<?xml version="1.0" encoding="UTF-8" standalone="no" ?><gpx xmlns="http://www.topografix.com/GPX/1/1" xmlns:gpxx="http://www.garmin.com/xmlschemas/GpxExtensions/v3" xmlns:wptx1="http://www.garmin.com/xmlschemas/WaypointExtension/v1" xmlns:gpxtpx="http://www.garmin.com/xmlschemas/TrackPointExtension/v1" creator="GuideVTT.com" version="1.1" xmlns:xsi="http://www.w3.org/2001/XMLSchema-instance" xsi:schemaLocation="http://www.topografix.com/GPX/1/1 http://www.topografix.com/GPX/1/1/gpx.xsd http://www.garmin.com/xmlschemas/GpxExtensions/v3 http://www8.garmin.com/xmlschemas/GpxExtensionsv3.xsd http://www.garmin.com/xmlschemas/WaypointExtension/v1 http://www8.garmin.com/xmlschemas/WaypointExtensionv1.xsd http://www.garmin.com/xmlschemas/TrackPointExtension/v1 http://www.garmin.com/xmlschemas/TrackPointExtensionv1.xsd">
<metadata><link href="http://www.garmin.com"><text>Garmin International</text></link><time>2013-06-22T15:13:50Z</time></metadata>
<trk><name>mont_thou.gpx</name><extensions><gpxx:TrackExtension><gpxx:DisplayColor>Cyan</gpxx:DisplayColor></gpxx:TrackExtension></extensions><trkseg>
<trkpt lat="45.74927800" lon="4.86725800"><ele>237.1000060632</ele><time>2010-07-31T05:07:36Z</time></trkpt>
<trkpt lat="45.74922900" lon="4.86723800"><ele>235.6000060152</ele><time>2010-07-31T05:08:04Z</time></trkpt>
<trkpt lat="45.74923400" lon="4.86717200"><ele>234.8999938008</ele><time>2010-07-31T05:08:16Z</time></trkpt>
<trkpt lat="45.74919400" lon="4.86713000"><ele>234.3000029256</ele><time>2010-07-31T05:08:19Z</time></trkpt>
<trkpt lat="45.74914000" lon="4.86710700"><ele>234.1999968264</ele><time>2010-07-31T05:08:20Z</time></trkpt>
<trkpt lat="45.74914000" lon="4.86703900"><ele>235.1000059992</ele><time>2010-07-31T05:08:22Z</time></trkpt>
<trkpt lat="45.74914900" lon="4.86692100"><ele>233.8999937688</ele><time>2010-07-31T05:08:24Z</time></trkpt>
<trkpt lat="45.74917000" lon="4.86681900"><ele>233.1999970992</ele><time>2010-07-31T05:08:26Z</time></trkpt>
<trkpt lat="45.74918200" lon="4.86675400"><ele>232.600006224</ele><time>2010-07-31T05:08:27Z</time></trkpt>
<trkpt lat="45.74919800" lon="4.86669000"><ele>232.3000031664</ele><time>2010-07-31T05:08:28Z</time></trkpt>
<trkpt lat="45.74922300" lon="4.86662100"><ele>232.3000031664</ele><time>2010-07-31T05:08:29Z</time></trkpt>
<trkpt lat="45.74925500" lon="4.86655200"><ele>232.3000031664</ele><time>2010-07-31T05:08:30Z</time></trkpt>
<trkpt lat="45.74931700" lon="4.86640400"><ele>232.8000031824</ele><time>2010-07-31T05:08:32Z</time></trkpt>
<trkpt lat="45.74935400" lon="4.86634900"><ele>233.3999937528</ele><time>2010-07-31T05:08:33Z</time></trkpt>
<trkpt lat="45.74936100" lon="4.86627400"><ele>233.3999937528</ele><time>2010-07-31T05:08:34Z</time></trkpt>
<trkpt lat="45.74936700" lon="4.86619200"><ele>232.600006224</ele><time>2010-07-31T05:08:35Z</time></trkpt>
<trkpt lat="45.74939000" lon="4.86610300"><ele>232.1999970672</ele><time>2010-07-31T05:08:36Z</time></trkpt>
<trkpt lat="45.74941000" lon="4.86604000"><ele>231.8999940096</ele><time>2010-07-31T05:08:37Z</time></trkpt>
<trkpt lat="45.74943700" lon="4.86594000"><ele>231.6999970512</ele><time>2010-07-31T05:08:38Z</time></trkpt>
<trkpt lat="45.74944800" lon="4.86584300"><ele>233.10000624</ele><time>2010-07-31T05:08:39Z</time></trkpt>
<trkpt lat="45.74946600" lon="4.86574500"><ele>233.3999937528</ele><time>2010-07-31T05:08:40Z</time></trkpt>
<trkpt lat="45.74948200" lon="4.86566100"><ele>234.1000059672</ele><time>2010-07-31T05:08:41Z</time></trkpt>
<trkpt lat="45.74950200" lon="4.86558600"><ele>234.1000059672</ele><time>2010-07-31T05:08:42Z</time></trkpt>
<trkpt lat="45.74953400" lon="4.86550500"><ele>233.3999937528</ele><time>2010-07-31T05:08:43Z</time></trkpt>
<trkpt lat="45.74956000" lon="4.86542200"><ele>233.3999937528</ele><time>2010-07-31T05:08:44Z</time></trkpt>
<trkpt lat="45.74957600" lon="4.86533400"><ele>233.6999968104</ele><time>2010-07-31T05:08:45Z</time></trkpt>
<trkpt lat="45.74959200" lon="4.86525900"><ele>234.3000029256</ele><time>2010-07-31T05:08:46Z</time></trkpt>
<trkpt lat="45.74961200" lon="4.86518800"><ele>234.3999937848</ele><time>2010-07-31T05:08:47Z</time></trkpt>
<trkpt lat="45.74964600" lon="4.86510800"><ele>234.1999968264</ele><time>2010-07-31T05:08:48Z</time></trkpt>
<trkpt lat="45.74967300" lon="4.86502700"><ele>234.3000029256</ele><time>2010-07-31T05:08:49Z</time></trkpt>
<trkpt lat="45.74969900" lon="4.86496000"><ele>234.6999968424</ele><time>2010-07-31T05:08:50Z</time></trkpt>
<trkpt lat="45.74972000" lon="4.86487500"><ele>234.8000029416</ele><time>2010-07-31T05:08:51Z</time></trkpt>
<trkpt lat="45.74973300" lon="4.86479200"><ele>234.6999968424</ele><time>2010-07-31T05:08:52Z</time></trkpt>
<trkpt lat="45.74976500" lon="4.86465200"><ele>233.6000059512</ele><time>2010-07-31T05:08:54Z</time></trkpt>
<trkpt lat="45.74979700" lon="4.86457000"><ele>233.499999852</ele><time>2010-07-31T05:08:55Z</time></trkpt>
<trkpt lat="45.74981500" lon="4.86450100"><ele>233.6999968104</ele><time>2010-07-31T05:08:56Z</time></trkpt>
<trkpt lat="45.74982800" lon="4.86443900"><ele>234.1000059672</ele><time>2010-07-31T05:08:57Z</time></trkpt>
<trkpt lat="45.74985400" lon="4.86437200"><ele>234.1000059672</ele><time>2010-07-31T05:08:58Z</time></trkpt>
<trkpt lat="45.74991400" lon="4.86433800"><ele>234.9999999</ele><time>2010-07-31T05:08:59Z</time></trkpt>
<trkpt lat="45.74995500" lon="4.86431100"><ele>233.3999937528</ele><time>2010-07-31T05:09:00Z</time></trkpt>
<trkpt lat="45.74995800" lon="4.86419700"><ele>232.100006208</ele><time>2010-07-31T05:09:02Z</time></trkpt>
<trkpt lat="45.74996000" lon="4.86412400"><ele>231.3000031344</ele><time>2010-07-31T05:09:03Z</time></trkpt>
<trkpt lat="45.74996400" lon="4.86404700"><ele>231.5000000928</ele><time>2010-07-31T05:09:04Z</time></trkpt>
<trkpt lat="45.74996500" lon="4.86396300"><ele>231.100006176</ele><time>2010-07-31T05:09:05Z</time></trkpt>
<trkpt lat="45.74996300" lon="4.86388800"><ele>230.3000031024</ele><time>2010-07-31T05:09:06Z</time></trkpt>
<trkpt lat="45.74996000" lon="4.86380600"><ele>230.3999939616</ele><time>2010-07-31T05:09:07Z</time></trkpt>
<trkpt lat="45.74996000" lon="4.86372500"><ele>230.1999970032</ele><time>2010-07-31T05:09:08Z</time></trkpt>
<trkpt lat="45.74995900" lon="4.86364800"><ele>230.3000031024</ele><time>2010-07-31T05:09:09Z</time></trkpt>
<trkpt lat="45.74995400" lon="4.86356500"><ele>230.1999970032</ele><time>2010-07-31T05:09:10Z</time></trkpt>
<trkpt lat="45.74995700" lon="4.86347700"><ele>229.8999939456</ele><time>2010-07-31T05:09:11Z</time></trkpt>
<trkpt lat="45.74996000" lon="4.86339800"><ele>229.8999939456</ele><time>2010-07-31T05:09:12Z</time></trkpt>
<trkpt lat="45.74996000" lon="4.86331800"><ele>230.0000000448</ele><time>2010-07-31T05:09:13Z</time></trkpt>
<trkpt lat="45.74996400" lon="4.86324100"><ele>230.0000000448</ele><time>2010-07-31T05:09:14Z</time></trkpt>
<trkpt lat="45.74996500" lon="4.86316200"><ele>228.6999969552</ele><time>2010-07-31T05:09:15Z</time></trkpt>
<trkpt lat="45.74996300" lon="4.86308000"><ele>228.6999969552</ele><time>2010-07-31T05:09:16Z</time></trkpt>
<trkpt lat="45.74996300" lon="4.86299900"><ele>228.600006096</ele><time>2010-07-31T05:09:17Z</time></trkpt>
<trkpt lat="45.74996200" lon="4.86291500"><ele>228.1999969392</ele><time>2010-07-31T05:09:18Z</time></trkpt>
<trkpt lat="45.74995700" lon="4.86283300"><ele>228.600006096</ele><time>2010-07-31T05:09:19Z</time></trkpt>
<trkpt lat="45.74995200" lon="4.86275200"><ele>228.8000030544</ele><time>2010-07-31T05:09:20Z</time></trkpt>
<trkpt lat="45.74994800" lon="4.86267500"><ele>228.6999969552</ele><time>2010-07-31T05:09:21Z</time></trkpt>
<trkpt lat="45.74994400" lon="4.86259800"><ele>228.4999999968</ele><time>2010-07-31T05:09:22Z</time></trkpt>
<trkpt lat="45.74993900" lon="4.86251500"><ele>228.4999999968</ele><time>2010-07-31T05:09:23Z</time></trkpt>
<trkpt lat="45.74993500" lon="4.86243200"><ele>228.1999969392</ele><time>2010-07-31T05:09:24Z</time></trkpt>
<trkpt lat="45.74993900" lon="4.86235200"><ele>227.4999999648</ele><time>2010-07-31T05:09:25Z</time></trkpt>
<trkpt lat="45.74993500" lon="4.86226200"><ele>227.4999999648</ele><time>2010-07-31T05:09:26Z</time></trkpt>
<trkpt lat="45.74993500" lon="4.86218200"><ele>226.8000029904</ele><time>2010-07-31T05:09:27Z</time></trkpt>
<trkpt lat="45.74993300" lon="4.86210500"><ele>226.3999938336</ele><time>2010-07-31T05:09:28Z</time></trkpt>
<trkpt lat="45.74992900" lon="4.86202500"><ele>225.9999999168</ele><time>2010-07-31T05:09:29Z</time></trkpt>
<trkpt lat="45.74992800" lon="4.86194500"><ele>226.100006016</ele><time>2010-07-31T05:09:30Z</time></trkpt>
<trkpt lat="45.74992900" lon="4.86185700"><ele>226.1999968752</ele><time>2010-07-31T05:09:31Z</time></trkpt>
<trkpt lat="45.74992400" lon="4.86177600"><ele>225.8999938176</ele><time>2010-07-31T05:09:32Z</time></trkpt>
<trkpt lat="45.74992600" lon="4.86169400"><ele>226.100006016</ele><time>2010-07-31T05:09:33Z</time></trkpt>
<trkpt lat="45.74992600" lon="4.86160800"><ele>225.8999938176</ele><time>2010-07-31T05:09:34Z</time></trkpt>
<trkpt lat="45.74993000" lon="4.86152500"><ele>225.9999999168</ele><time>2010-07-31T05:09:35Z</time></trkpt>
<trkpt lat="45.74992800" lon="4.86144000"><ele>226.3999938336</ele><time>2010-07-31T05:09:36Z</time></trkpt>
<trkpt lat="45.74993400" lon="4.86135700"><ele>226.8999938496</ele><time>2010-07-31T05:09:37Z</time></trkpt>
<trkpt lat="45.74993400" lon="4.86128500"><ele>227.1999969072</ele><time>2010-07-31T05:09:38Z</time></trkpt>
<trkpt lat="45.74993400" lon="4.86119900"><ele>227.4999999648</ele><time>2010-07-31T05:09:39Z</time></trkpt>
<trkpt lat="45.74993500" lon="4.86112100"><ele>227.4999999648</ele><time>2010-07-31T05:09:40Z</time></trkpt>
<trkpt lat="45.74993600" lon="4.86105600"><ele>227.9999999808</ele><time>2010-07-31T05:09:41Z</time></trkpt>
<trkpt lat="45.74993400" lon="4.86098400"><ele>227.8999938816</ele><time>2010-07-31T05:09:42Z</time></trkpt>
<trkpt lat="45.74993300" lon="4.86090700"><ele>227.8000030224</ele><time>2010-07-31T05:09:43Z</time></trkpt>
<trkpt lat="45.74992500" lon="4.86083400"><ele>227.600006064</ele><time>2010-07-31T05:09:44Z</time></trkpt>
<trkpt lat="45.74988500" lon="4.86072300"><ele>228.1999969392</ele><time>2010-07-31T05:09:46Z</time></trkpt>
<trkpt lat="45.74986300" lon="4.86065300"><ele>227.8999938816</ele><time>2010-07-31T05:09:47Z</time></trkpt>
<trkpt lat="45.74983300" lon="4.86060100"><ele>228.1999969392</ele><time>2010-07-31T05:09:48Z</time></trkpt>
<trkpt lat="45.74979600" lon="4.86055400"><ele>228.3999938976</ele><time>2010-07-31T05:09:49Z</time></trkpt>
<trkpt lat="45.74975600" lon="4.86051400"><ele>228.8000030544</ele><time>2010-07-31T05:09:50Z</time></trkpt>
<trkpt lat="45.74971000" lon="4.86048200"><ele>228.8999939136</ele><time>2010-07-31T05:09:51Z</time></trkpt>
<trkpt lat="45.74966200" lon="4.86045500"><ele>229.0000000128</ele><time>2010-07-31T05:09:52Z</time></trkpt>
<trkpt lat="45.74961300" lon="4.86042300"><ele>229.0000000128</ele><time>2010-07-31T05:09:53Z</time></trkpt>
<trkpt lat="45.74956600" lon="4.86038000"><ele>229.100006112</ele><time>2010-07-31T05:09:54Z</time></trkpt>
<trkpt lat="45.74954200" lon="4.86031400"><ele>229.8999939456</ele><time>2010-07-31T05:09:55Z</time></trkpt>
<trkpt lat="45.74951200" lon="4.86025600"><ele>229.8000030864</ele><time>2010-07-31T05:09:56Z</time></trkpt>
<trkpt lat="45.74950200" lon="4.86012500"><ele>230.3000031024</ele><time>2010-07-31T05:09:58Z</time></trkpt>
<trkpt lat="45.74953500" lon="4.86000600"><ele>230.5000000608</ele><time>2010-07-31T05:10:00Z</time></trkpt>
<trkpt lat="45.74955500" lon="4.85994500"><ele>230.60000616</ele><time>2010-07-31T05:10:01Z</time></trkpt>
<trkpt lat="45.74957300" lon="4.85988500"><ele>230.5000000608</ele><time>2010-07-31T05:10:02Z</time></trkpt>
<trkpt lat="45.74959800" lon="4.85981800"><ele>230.8999939776</ele><time>2010-07-31T05:10:03Z</time></trkpt>
<trkpt lat="45.74961900" lon="4.85975600"><ele>231.100006176</ele><time>2010-07-31T05:10:04Z</time></trkpt>
<trkpt lat="45.74963800" lon="4.85969300"><ele>230.8999939776</ele><time>2010-07-31T05:10:05Z</time></trkpt>
<trkpt lat="45.74965800" lon="4.85963000"><ele>230.8999939776</ele><time>2010-07-31T05:10:06Z</time></trkpt>
<trkpt lat="45.74967700" lon="4.85956500"><ele>230.3000031024</ele><time>2010-07-31T05:10:07Z</time></trkpt>
<trkpt lat="45.74969900" lon="4.85949500"><ele>230.100006144</ele><time>2010-07-31T05:10:08Z</time></trkpt>
<trkpt lat="45.74972300" lon="4.85942100"><ele>230.0000000448</ele><time>2010-07-31T05:10:09Z</time></trkpt>
<trkpt lat="45.74974700" lon="4.85935000"><ele>230.100006144</ele><time>2010-07-31T05:10:10Z</time></trkpt>
<trkpt lat="45.74977100" lon="4.85926100"><ele>230.1999970032</ele><time>2010-07-31T05:10:11Z</time></trkpt>
<trkpt lat="45.74978900" lon="4.85917700"><ele>230.0000000448</ele><time>2010-07-31T05:10:12Z</time></trkpt>
<trkpt lat="45.74981000" lon="4.85909800"><ele>229.6999969872</ele><time>2010-07-31T05:10:13Z</time></trkpt>
<trkpt lat="45.74983300" lon="4.85900700"><ele>229.8000030864</ele><time>2010-07-31T05:10:14Z</time></trkpt>
<trkpt lat="45.74985400" lon="4.85891700"><ele>229.6999969872</ele><time>2010-07-31T05:10:15Z</time></trkpt>
<trkpt lat="45.74987700" lon="4.85882900"><ele>229.3999939296</ele><time>2010-07-31T05:10:16Z</time></trkpt>
<trkpt lat="45.74990400" lon="4.85874300"><ele>229.3000030704</ele><time>2010-07-31T05:10:17Z</time></trkpt>
<trkpt lat="45.74992900" lon="4.85865800"><ele>229.100006112</ele><time>2010-07-31T05:10:18Z</time></trkpt>
<trkpt lat="45.74996000" lon="4.85856800"><ele>229.0000000128</ele><time>2010-07-31T05:10:19Z</time></trkpt>
<trkpt lat="45.74998800" lon="4.85848300"><ele>229.1999969712</ele><time>2010-07-31T05:10:20Z</time></trkpt>
<trkpt lat="45.75001700" lon="4.85839800"><ele>229.5000000288</ele><time>2010-07-31T05:10:21Z</time></trkpt>
<trkpt lat="45.75004200" lon="4.85831700"><ele>229.600006128</ele><time>2010-07-31T05:10:22Z</time></trkpt>
<trkpt lat="45.75007500" lon="4.85823200"><ele>230.0000000448</ele><time>2010-07-31T05:10:23Z</time></trkpt>
<trkpt lat="45.75010400" lon="4.85814900"><ele>230.100006144</ele><time>2010-07-31T05:10:24Z</time></trkpt>
<trkpt lat="45.75013200" lon="4.85806500"><ele>230.100006144</ele><time>2010-07-31T05:10:25Z</time></trkpt>
<trkpt lat="45.75016000" lon="4.85798300"><ele>229.8000030864</ele><time>2010-07-31T05:10:26Z</time></trkpt>
<trkpt lat="45.75019200" lon="4.85789400"><ele>229.1999969712</ele><time>2010-07-31T05:10:27Z</time></trkpt>
<trkpt lat="45.75021900" lon="4.85781100"><ele>229.1999969712</ele><time>2010-07-31T05:10:28Z</time></trkpt>
<trkpt lat="45.75024500" lon="4.85773600"><ele>229.8999939456</ele><time>2010-07-31T05:10:29Z</time></trkpt>
<trkpt lat="45.75027300" lon="4.85765500"><ele>229.3000030704</ele><time>2010-07-31T05:10:30Z</time></trkpt>
<trkpt lat="45.75030000" lon="4.85757300"><ele>229.3000030704</ele><time>2010-07-31T05:10:31Z</time></trkpt>
<trkpt lat="45.75032800" lon="4.85749200"><ele>229.8000030864</ele><time>2010-07-31T05:10:32Z</time></trkpt>
<trkpt lat="45.75035500" lon="4.85741400"><ele>229.8999939456</ele><time>2010-07-31T05:10:33Z</time></trkpt>
<trkpt lat="45.75038000" lon="4.85735000"><ele>229.8000030864</ele><time>2010-07-31T05:10:34Z</time></trkpt>
<trkpt lat="45.75041100" lon="4.85725100"><ele>229.1999969712</ele><time>2010-07-31T05:10:36Z</time></trkpt>
<trkpt lat="45.75043800" lon="4.85718300"><ele>229.1999969712</ele><time>2010-07-31T05:10:38Z</time></trkpt>
<trkpt lat="45.75046900" lon="4.85709800"><ele>229.1999969712</ele><time>2010-07-31T05:10:40Z</time></trkpt>
<trkpt lat="45.75049000" lon="4.85702500"><ele>228.3999938976</ele><time>2010-07-31T05:10:42Z</time></trkpt>
<trkpt lat="45.75050900" lon="4.85695800"><ele>228.1999969392</ele><time>2010-07-31T05:10:44Z</time></trkpt>
<trkpt lat="45.75053300" lon="4.85688800"><ele>227.8000030224</ele><time>2010-07-31T05:10:46Z</time></trkpt>
<trkpt lat="45.75056100" lon="4.85680500"><ele>227.6999969232</ele><time>2010-07-31T05:10:48Z</time></trkpt>
<trkpt lat="45.75058400" lon="4.85674700"><ele>227.8000030224</ele><time>2010-07-31T05:10:49Z</time></trkpt>
<trkpt lat="45.75060500" lon="4.85668600"><ele>227.600006064</ele><time>2010-07-31T05:10:50Z</time></trkpt>
<trkpt lat="45.75062700" lon="4.85661400"><ele>227.600006064</ele><time>2010-07-31T05:10:51Z</time></trkpt>
<trkpt lat="45.75065000" lon="4.85654800"><ele>227.6999969232</ele><time>2010-07-31T05:10:52Z</time></trkpt>
<trkpt lat="45.75067600" lon="4.85647600"><ele>227.600006064</ele><time>2010-07-31T05:10:53Z</time></trkpt>
<trkpt lat="45.75069600" lon="4.85640800"><ele>227.600006064</ele><time>2010-07-31T05:10:54Z</time></trkpt>
<trkpt lat="45.75072600" lon="4.85634700"><ele>227.9999999808</ele><time>2010-07-31T05:10:55Z</time></trkpt>
<trkpt lat="45.75075300" lon="4.85627700"><ele>227.9999999808</ele><time>2010-07-31T05:10:56Z</time></trkpt>
<trkpt lat="45.75076800" lon="4.85620600"><ele>228.10000608</ele><time>2010-07-31T05:10:57Z</time></trkpt>
<trkpt lat="45.75079100" lon="4.85614000"><ele>228.10000608</ele><time>2010-07-31T05:10:58Z</time></trkpt>
<trkpt lat="45.75080900" lon="4.85606200"><ele>227.9999999808</ele><time>2010-07-31T05:10:59Z</time></trkpt>
<trkpt lat="45.75082300" lon="4.85599500"><ele>227.9999999808</ele><time>2010-07-31T05:11:00Z</time></trkpt>
<trkpt lat="45.75087100" lon="4.85588300"><ele>228.3000030384</ele><time>2010-07-31T05:11:02Z</time></trkpt>
<trkpt lat="45.75090200" lon="4.85580200"><ele>228.10000608</ele><time>2010-07-31T05:11:04Z</time></trkpt>
<trkpt lat="45.75091400" lon="4.85572100"><ele>227.8999938816</ele><time>2010-07-31T05:11:06Z</time></trkpt>
<trkpt lat="45.75096000" lon="4.85565900"><ele>227.8999938816</ele><time>2010-07-31T05:11:07Z</time></trkpt>
<trkpt lat="45.75098500" lon="4.85559000"><ele>228.600006096</ele><time>2010-07-31T05:11:08Z</time></trkpt>
<trkpt lat="45.75100000" lon="4.85552100"><ele>227.600006064</ele><time>2010-07-31T05:11:09Z</time></trkpt>
<trkpt lat="45.75102200" lon="4.85545800"><ele>227.3999938656</ele><time>2010-07-31T05:11:10Z</time></trkpt>
<trkpt lat="45.75104500" lon="4.85539300"><ele>227.3000030064</ele><time>2010-07-31T05:11:11Z</time></trkpt>
<trkpt lat="45.75107500" lon="4.85533000"><ele>227.6999969232</ele><time>2010-07-31T05:11:12Z</time></trkpt>
<trkpt lat="45.75109200" lon="4.85525700"><ele>227.3999938656</ele><time>2010-07-31T05:11:13Z</time></trkpt>
<trkpt lat="45.75111900" lon="4.85519200"><ele>227.6999969232</ele><time>2010-07-31T05:11:14Z</time></trkpt>
<trkpt lat="45.75114200" lon="4.85510700"><ele>227.3999938656</ele><time>2010-07-31T05:11:15Z</time></trkpt>
<trkpt lat="45.75116900" lon="4.85501900"><ele>227.4999999648</ele><time>2010-07-31T05:11:16Z</time></trkpt>
<trkpt lat="45.75119300" lon="4.85494800"><ele>227.4999999648</ele><time>2010-07-31T05:11:17Z</time></trkpt>
<trkpt lat="45.75122400" lon="4.85485700"><ele>227.4999999648</ele><time>2010-07-31T05:11:18Z</time></trkpt>
<trkpt lat="45.75125300" lon="4.85477400"><ele>227.4999999648</ele><time>2010-07-31T05:11:19Z</time></trkpt>
<trkpt lat="45.75126800" lon="4.85467900"><ele>227.8999938816</ele><time>2010-07-31T05:11:20Z</time></trkpt>
<trkpt lat="45.75129300" lon="4.85459800"><ele>228.6999969552</ele><time>2010-07-31T05:11:21Z</time></trkpt>
<trkpt lat="45.75133200" lon="4.85453000"><ele>228.8000030544</ele><time>2010-07-31T05:11:22Z</time></trkpt>
<trkpt lat="45.75137400" lon="4.85447000"><ele>229.0000000128</ele><time>2010-07-31T05:11:23Z</time></trkpt>
<trkpt lat="45.75140000" lon="4.85440400"><ele>229.100006112</ele><time>2010-07-31T05:11:24Z</time></trkpt>
<trkpt lat="45.75143400" lon="4.85433500"><ele>229.1999969712</ele><time>2010-07-31T05:11:25Z</time></trkpt>
<trkpt lat="45.75147400" lon="4.85426200"><ele>229.1999969712</ele><time>2010-07-31T05:11:26Z</time></trkpt>
<trkpt lat="45.75149800" lon="4.85418400"><ele>229.100006112</ele><time>2010-07-31T05:11:27Z</time></trkpt>
<trkpt lat="45.75151700" lon="4.85411000"><ele>229.100006112</ele><time>2010-07-31T05:11:28Z</time></trkpt>
<trkpt lat="45.75155600" lon="4.85403300"><ele>225.8000029584</ele><time>2010-07-31T05:11:30Z</time></trkpt>
<trkpt lat="45.75155800" lon="4.85396800"><ele>226.8000029904</ele><time>2010-07-31T05:11:32Z</time></trkpt>
<trkpt lat="45.75157700" lon="4.85388000"><ele>225.100005984</ele><time>2010-07-31T05:11:34Z</time></trkpt>
<trkpt lat="45.75160600" lon="4.85377800"><ele>224.6999968272</ele><time>2010-07-31T05:11:36Z</time></trkpt>
<trkpt lat="45.75164100" lon="4.85367400"><ele>224.8000029264</ele><time>2010-07-31T05:11:38Z</time></trkpt>
<trkpt lat="45.75166100" lon="4.85360800"><ele>224.6999968272</ele><time>2010-07-31T05:11:39Z</time></trkpt>
<trkpt lat="45.75167900" lon="4.85353600"><ele>225.100005984</ele><time>2010-07-31T05:11:40Z</time></trkpt>
<trkpt lat="45.75170200" lon="4.85346800"><ele>224.8000029264</ele><time>2010-07-31T05:11:41Z</time></trkpt>
<trkpt lat="45.75172800" lon="4.85339900"><ele>224.6999968272</ele><time>2010-07-31T05:11:42Z</time></trkpt>
<trkpt lat="45.75175200" lon="4.85332800"><ele>224.8000029264</ele><time>2010-07-31T05:11:43Z</time></trkpt>
<trkpt lat="45.75177900" lon="4.85325500"><ele>224.4999998688</ele><time>2010-07-31T05:11:44Z</time></trkpt>
<trkpt lat="45.75180900" lon="4.85318000"><ele>224.1999968112</ele><time>2010-07-31T05:11:45Z</time></trkpt>
<trkpt lat="45.75183200" lon="4.85310500"><ele>224.4999998688</ele><time>2010-07-31T05:11:46Z</time></trkpt>
<trkpt lat="45.75186400" lon="4.85302600"><ele>224.8000029264</ele><time>2010-07-31T05:11:47Z</time></trkpt>
<trkpt lat="45.75189100" lon="4.85295100"><ele>224.3999937696</ele><time>2010-07-31T05:11:48Z</time></trkpt>
<trkpt lat="45.75191500" lon="4.85288300"><ele>224.3999937696</ele><time>2010-07-31T05:11:49Z</time></trkpt>
<trkpt lat="45.75194200" lon="4.85279900"><ele>224.3000029104</ele><time>2010-07-31T05:11:50Z</time></trkpt>
<trkpt lat="45.75196800" lon="4.85272100"><ele>224.3999937696</ele><time>2010-07-31T05:11:51Z</time></trkpt>
<trkpt lat="45.75199700" lon="4.85265400"><ele>224.6999968272</ele><time>2010-07-31T05:11:52Z</time></trkpt>
<trkpt lat="45.75202900" lon="4.85256500"><ele>224.6999968272</ele><time>2010-07-31T05:11:53Z</time></trkpt>
<trkpt lat="45.75204800" lon="4.85249700"><ele>224.9999998848</ele><time>2010-07-31T05:11:54Z</time></trkpt>
<trkpt lat="45.75207000" lon="4.85241700"><ele>225.3000029424</ele><time>2010-07-31T05:11:55Z</time></trkpt>
<trkpt lat="45.75209500" lon="4.85234700"><ele>225.3000029424</ele><time>2010-07-31T05:11:56Z</time></trkpt>
<trkpt lat="45.75212000" lon="4.85227000"><ele>225.1999968432</ele><time>2010-07-31T05:11:57Z</time></trkpt>
<trkpt lat="45.75215400" lon="4.85219700"><ele>225.4999999008</ele><time>2010-07-31T05:11:58Z</time></trkpt>
<trkpt lat="45.75218200" lon="4.85213600"><ele>225.4999999008</ele><time>2010-07-31T05:11:59Z</time></trkpt>
<trkpt lat="45.75219200" lon="4.85205200"><ele>225.6999968592</ele><time>2010-07-31T05:12:00Z</time></trkpt>
<trkpt lat="45.75221900" lon="4.85199200"><ele>225.9999999168</ele><time>2010-07-31T05:12:01Z</time></trkpt>
<trkpt lat="45.75224000" lon="4.85193100"><ele>226.600006032</ele><time>2010-07-31T05:12:02Z</time></trkpt>
<trkpt lat="45.75226700" lon="4.85186400"><ele>226.600006032</ele><time>2010-07-31T05:12:03Z</time></trkpt>
<trkpt lat="45.75228900" lon="4.85180500"><ele>226.4999999328</ele><time>2010-07-31T05:12:04Z</time></trkpt>
<trkpt lat="45.75234700" lon="4.85168500"><ele>227.8999938816</ele><time>2010-07-31T05:12:06Z</time></trkpt>
<trkpt lat="45.75236900" lon="4.85162800"><ele>228.4999999968</ele><time>2010-07-31T05:12:07Z</time></trkpt>
<trkpt lat="45.75239400" lon="4.85153900"><ele>228.6999969552</ele><time>2010-07-31T05:12:08Z</time></trkpt>
<trkpt lat="45.75241000" lon="4.85147500"><ele>229.100006112</ele><time>2010-07-31T05:12:09Z</time></trkpt>
<trkpt lat="45.75243500" lon="4.85141300"><ele>229.100006112</ele><time>2010-07-31T05:12:10Z</time></trkpt>
<trkpt lat="45.75245800" lon="4.85134200"><ele>229.1999969712</ele><time>2010-07-31T05:12:11Z</time></trkpt>
<trkpt lat="45.75245400" lon="4.85127000"><ele>230.6999970192</ele><time>2010-07-31T05:12:12Z</time></trkpt>
<trkpt lat="45.75246700" lon="4.85119200"><ele>231.5000000928</ele><time>2010-07-31T05:12:13Z</time></trkpt>
<trkpt lat="45.75249200" lon="4.85111500"><ele>231.3000031344</ele><time>2010-07-31T05:12:14Z</time></trkpt>
<trkpt lat="45.75251800" lon="4.85105700"><ele>231.8000031504</ele><time>2010-07-31T05:12:15Z</time></trkpt>
<trkpt lat="45.75253800" lon="4.85098900"><ele>232.100006208</ele><time>2010-07-31T05:12:16Z</time></trkpt>
<trkpt lat="45.75256800" lon="4.85092200"><ele>231.8999940096</ele><time>2010-07-31T05:12:17Z</time></trkpt>
<trkpt lat="45.75258800" lon="4.85085400"><ele>233.0000001408</ele><time>2010-07-31T05:12:18Z</time></trkpt>
<trkpt lat="45.75261000" lon="4.85077700"><ele>233.6000059512</ele><time>2010-07-31T05:12:19Z</time></trkpt>
<trkpt lat="45.75262400" lon="4.85070300"><ele>233.499999852</ele><time>2010-07-31T05:12:20Z</time></trkpt>
<trkpt lat="45.75265100" lon="4.85063700"><ele>233.8999937688</ele><time>2010-07-31T05:12:21Z</time></trkpt>
<trkpt lat="45.75265800" lon="4.85055300"><ele>234.3999937848</ele><time>2010-07-31T05:12:22Z</time></trkpt>
<trkpt lat="45.75269500" lon="4.85047200"><ele>234.9999999</ele><time>2010-07-31T05:12:23Z</time></trkpt>
<trkpt lat="45.75270300" lon="4.85039100"><ele>233.999999868</ele><time>2010-07-31T05:12:24Z</time></trkpt>
<trkpt lat="45.75272700" lon="4.85031300"><ele>233.8000029096</ele><time>2010-07-31T05:12:25Z</time></trkpt>
<trkpt lat="45.75275500" lon="4.85024400"><ele>233.999999868</ele><time>2010-07-31T05:12:26Z</time></trkpt>
<trkpt lat="45.75278900" lon="4.85016300"><ele>234.1000059672</ele><time>2010-07-31T05:12:27Z</time></trkpt>
<trkpt lat="45.75282600" lon="4.85009700"><ele>233.6999968104</ele><time>2010-07-31T05:12:28Z</time></trkpt>
<trkpt lat="45.75285100" lon="4.85001700"><ele>233.499999852</ele><time>2010-07-31T05:12:29Z</time></trkpt>
<trkpt lat="45.75288500" lon="4.84993200"><ele>233.3999937528</ele><time>2010-07-31T05:12:30Z</time></trkpt>
<trkpt lat="45.75291400" lon="4.84985400"><ele>233.1999970992</ele><time>2010-07-31T05:12:31Z</time></trkpt>
<trkpt lat="45.75294800" lon="4.84978500"><ele>233.3000031984</ele><time>2010-07-31T05:12:32Z</time></trkpt>
<trkpt lat="45.75298500" lon="4.84971200"><ele>233.0000001408</ele><time>2010-07-31T05:12:33Z</time></trkpt>
<trkpt lat="45.75301600" lon="4.84964200"><ele>231.100006176</ele><time>2010-07-31T05:12:34Z</time></trkpt>
<trkpt lat="45.75304600" lon="4.84956100"><ele>230.3000031024</ele><time>2010-07-31T05:12:35Z</time></trkpt>
<trkpt lat="45.75307200" lon="4.84948600"><ele>230.0000000448</ele><time>2010-07-31T05:12:36Z</time></trkpt>
<trkpt lat="45.75309500" lon="4.84940300"><ele>230.3000031024</ele><time>2010-07-31T05:12:37Z</time></trkpt>
<trkpt lat="45.75312200" lon="4.84931700"><ele>230.0000000448</ele><time>2010-07-31T05:12:38Z</time></trkpt>
<trkpt lat="45.75314600" lon="4.84923900"><ele>230.0000000448</ele><time>2010-07-31T05:12:39Z</time></trkpt>
<trkpt lat="45.75316900" lon="4.84915300"><ele>230.1999970032</ele><time>2010-07-31T05:12:40Z</time></trkpt>
<trkpt lat="45.75319500" lon="4.84907800"><ele>230.3000031024</ele><time>2010-07-31T05:12:41Z</time></trkpt>
<trkpt lat="45.75322500" lon="4.84901800"><ele>229.6999969872</ele><time>2010-07-31T05:12:42Z</time></trkpt>
<trkpt lat="45.75325400" lon="4.84894100"><ele>230.100006144</ele><time>2010-07-31T05:12:43Z</time></trkpt>
<trkpt lat="45.75327600" lon="4.84887200"><ele>230.3999939616</ele><time>2010-07-31T05:12:44Z</time></trkpt>
<trkpt lat="45.75330300" lon="4.84879900"><ele>231.100006176</ele><time>2010-07-31T05:12:45Z</time></trkpt>
<trkpt lat="45.75333300" lon="4.84873000"><ele>231.100006176</ele><time>2010-07-31T05:12:46Z</time></trkpt>
<trkpt lat="45.75335000" lon="4.84865400"><ele>231.3000031344</ele><time>2010-07-31T05:12:47Z</time></trkpt>
<trkpt lat="45.75336500" lon="4.84856100"><ele>232.3999940256</ele><time>2010-07-31T05:12:48Z</time></trkpt>
<trkpt lat="45.75337200" lon="4.84847600"><ele>233.6000059512</ele><time>2010-07-31T05:12:49Z</time></trkpt>
<trkpt lat="45.75339000" lon="4.84839400"><ele>234.3999937848</ele><time>2010-07-31T05:12:50Z</time></trkpt>
<trkpt lat="45.75341100" lon="4.84831400"><ele>234.8000029416</ele><time>2010-07-31T05:12:51Z</time></trkpt>
<trkpt lat="45.75342900" lon="4.84821700"><ele>233.999999868</ele><time>2010-07-31T05:12:52Z</time></trkpt>
<trkpt lat="45.75345400" lon="4.84812700"><ele>232.3999940256</ele><time>2010-07-31T05:12:53Z</time></trkpt>
<trkpt lat="45.75348000" lon="4.84805700"><ele>232.5000001248</ele><time>2010-07-31T05:12:54Z</time></trkpt>
<trkpt lat="45.75351500" lon="4.84800500"><ele>233.1999970992</ele><time>2010-07-31T05:12:55Z</time></trkpt>
<trkpt lat="45.75354500" lon="4.84794100"><ele>233.3999937528</ele><time>2010-07-31T05:12:56Z</time></trkpt>
<trkpt lat="45.75357600" lon="4.84786800"><ele>233.6000059512</ele><time>2010-07-31T05:12:57Z</time></trkpt>
<trkpt lat="45.75359900" lon="4.84781100"><ele>234.3000029256</ele><time>2010-07-31T05:12:58Z</time></trkpt>
<trkpt lat="45.75363600" lon="4.84773300"><ele>234.3999937848</ele><time>2010-07-31T05:12:59Z</time></trkpt>
<trkpt lat="45.75366100" lon="4.84765900"><ele>234.1999968264</ele><time>2010-07-31T05:13:00Z</time></trkpt>
<trkpt lat="45.75369000" lon="4.84758700"><ele>234.6000059832</ele><time>2010-07-31T05:13:01Z</time></trkpt>
<trkpt lat="45.75372200" lon="4.84751400"><ele>233.10000624</ele><time>2010-07-31T05:13:02Z</time></trkpt>
<trkpt lat="45.75375300" lon="4.84743900"><ele>231.8000031504</ele><time>2010-07-31T05:13:03Z</time></trkpt>
<trkpt lat="45.75378200" lon="4.84736300"><ele>231.1999970352</ele><time>2010-07-31T05:13:04Z</time></trkpt>
<trkpt lat="45.75381700" lon="4.84729300"><ele>231.3000031344</ele><time>2010-07-31T05:13:05Z</time></trkpt>
<trkpt lat="45.75383900" lon="4.84723100"><ele>231.3999939936</ele><time>2010-07-31T05:13:06Z</time></trkpt>
<trkpt lat="45.75388800" lon="4.84715500"><ele>231.600006192</ele><time>2010-07-31T05:13:07Z</time></trkpt>
<trkpt lat="45.75390700" lon="4.84707400"><ele>231.600006192</ele><time>2010-07-31T05:13:08Z</time></trkpt>
<trkpt lat="45.75392200" lon="4.84698400"><ele>231.8000031504</ele><time>2010-07-31T05:13:09Z</time></trkpt>
<trkpt lat="45.75395100" lon="4.84690200"><ele>231.1999970352</ele><time>2010-07-31T05:13:10Z</time></trkpt>
<trkpt lat="45.75399000" lon="4.84683300"><ele>230.3999939616</ele><time>2010-07-31T05:13:11Z</time></trkpt>
<trkpt lat="45.75403200" lon="4.84675700"><ele>229.8000030864</ele><time>2010-07-31T05:13:12Z</time></trkpt>
<trkpt lat="45.75406900" lon="4.84668500"><ele>229.3999939296</ele><time>2010-07-31T05:13:13Z</time></trkpt>
<trkpt lat="45.75409600" lon="4.84659500"><ele>230.3000031024</ele><time>2010-07-31T05:13:14Z</time></trkpt>
<trkpt lat="45.75412300" lon="4.84649500"><ele>230.5000000608</ele><time>2010-07-31T05:13:15Z</time></trkpt>
<trkpt lat="45.75414400" lon="4.84641200"><ele>230.60000616</ele><time>2010-07-31T05:13:16Z</time></trkpt>
<trkpt lat="45.75416400" lon="4.84633300"><ele>230.60000616</ele><time>2010-07-31T05:13:17Z</time></trkpt>
<trkpt lat="45.75419100" lon="4.84624700"><ele>230.60000616</ele><time>2010-07-31T05:13:18Z</time></trkpt>
<trkpt lat="45.75421300" lon="4.84615600"><ele>230.3000031024</ele><time>2010-07-31T05:13:19Z</time></trkpt>
<trkpt lat="45.75423700" lon="4.84607000"><ele>230.6999970192</ele><time>2010-07-31T05:13:20Z</time></trkpt>
<trkpt lat="45.75426100" lon="4.84598800"><ele>230.6999970192</ele><time>2010-07-31T05:13:21Z</time></trkpt>
<trkpt lat="45.75429100" lon="4.84593400"><ele>231.0000000768</ele><time>2010-07-31T05:13:22Z</time></trkpt>
<trkpt lat="45.75431700" lon="4.84585200"><ele>231.3999939936</ele><time>2010-07-31T05:13:23Z</time></trkpt>
<trkpt lat="45.75434200" lon="4.84577200"><ele>232.3000031664</ele><time>2010-07-31T05:13:24Z</time></trkpt>
<trkpt lat="45.75436300" lon="4.84570200"><ele>232.6999970832</ele><time>2010-07-31T05:13:25Z</time></trkpt>
<trkpt lat="45.75438200" lon="4.84561500"><ele>233.999999868</ele><time>2010-07-31T05:13:26Z</time></trkpt>
<trkpt lat="45.75442500" lon="4.84556600"><ele>233.499999852</ele><time>2010-07-31T05:13:27Z</time></trkpt>
<trkpt lat="45.75446300" lon="4.84551300"><ele>233.1999970992</ele><time>2010-07-31T05:13:28Z</time></trkpt>
<trkpt lat="45.75448900" lon="4.84539500"><ele>232.600006224</ele><time>2010-07-31T05:13:30Z</time></trkpt>
<trkpt lat="45.75451000" lon="4.84531800"><ele>232.3999940256</ele><time>2010-07-31T05:13:31Z</time></trkpt>
<trkpt lat="45.75452700" lon="4.84524900"><ele>231.8999940096</ele><time>2010-07-31T05:13:32Z</time></trkpt>
<trkpt lat="45.75455300" lon="4.84517200"><ele>232.1999970672</ele><time>2010-07-31T05:13:33Z</time></trkpt>
<trkpt lat="45.75457100" lon="4.84508200"><ele>232.8999940416</ele><time>2010-07-31T05:13:34Z</time></trkpt>
<trkpt lat="45.75459300" lon="4.84501100"><ele>233.499999852</ele><time>2010-07-31T05:13:35Z</time></trkpt>
<trkpt lat="45.75461300" lon="4.84493400"><ele>234.1999968264</ele><time>2010-07-31T05:13:36Z</time></trkpt>
<trkpt lat="45.75462600" lon="4.84485700"><ele>235.3000029576</ele><time>2010-07-31T05:13:37Z</time></trkpt>
<trkpt lat="45.75465500" lon="4.84477900"><ele>235.6999968744</ele><time>2010-07-31T05:13:38Z</time></trkpt>
<trkpt lat="45.75467700" lon="4.84470500"><ele>236.3000029896</ele><time>2010-07-31T05:13:39Z</time></trkpt>
<trkpt lat="45.75470900" lon="4.84461000"><ele>237.1999969224</ele><time>2010-07-31T05:13:40Z</time></trkpt>
<trkpt lat="45.75472500" lon="4.84453200"><ele>237.3000030216</ele><time>2010-07-31T05:13:41Z</time></trkpt>
<trkpt lat="45.75475900" lon="4.84443400"><ele>237.999999996</ele><time>2010-07-31T05:13:42Z</time></trkpt>
<trkpt lat="45.75478300" lon="4.84434800"><ele>238.1999969544</ele><time>2010-07-31T05:13:43Z</time></trkpt>
<trkpt lat="45.75481300" lon="4.84427100"><ele>238.500000012</ele><time>2010-07-31T05:13:44Z</time></trkpt>
<trkpt lat="45.75481800" lon="4.84418800"><ele>238.8999939288</ele><time>2010-07-31T05:13:45Z</time></trkpt>
<trkpt lat="45.75484600" lon="4.84412200"><ele>239.1000061272</ele><time>2010-07-31T05:13:46Z</time></trkpt>
<trkpt lat="45.75486100" lon="4.84403400"><ele>239.3999939448</ele><time>2010-07-31T05:13:47Z</time></trkpt>
<trkpt lat="45.75487300" lon="4.84394600"><ele>239.500000044</ele><time>2010-07-31T05:13:48Z</time></trkpt>
<trkpt lat="45.75488500" lon="4.84386000"><ele>239.500000044</ele><time>2010-07-31T05:13:49Z</time></trkpt>
<trkpt lat="45.75492100" lon="4.84377500"><ele>239.8999939608</ele><time>2010-07-31T05:13:50Z</time></trkpt>
<trkpt lat="45.75496000" lon="4.84369500"><ele>239.6999970024</ele><time>2010-07-31T05:13:51Z</time></trkpt>
<trkpt lat="45.75498600" lon="4.84362700"><ele>239.8999939608</ele><time>2010-07-31T05:13:52Z</time></trkpt>
<trkpt lat="45.75503200" lon="4.84355100"><ele>240.3000031176</ele><time>2010-07-31T05:13:54Z</time></trkpt>
<trkpt lat="45.75507600" lon="4.84346400"><ele>240.8000031336</ele><time>2010-07-31T05:13:55Z</time></trkpt>
<trkpt lat="45.75511100" lon="4.84340300"><ele>240.6999970344</ele><time>2010-07-31T05:13:56Z</time></trkpt>
<trkpt lat="45.75515900" lon="4.84335100"><ele>240.6000061752</ele><time>2010-07-31T05:13:57Z</time></trkpt>
<trkpt lat="45.75519900" lon="4.84328300"><ele>239.3000030856</ele><time>2010-07-31T05:13:58Z</time></trkpt>
<trkpt lat="45.75522000" lon="4.84319600"><ele>236.1999968904</ele><time>2010-07-31T05:14:00Z</time></trkpt>
<trkpt lat="45.75526700" lon="4.84310800"><ele>234.9999999</ele><time>2010-07-31T05:14:02Z</time></trkpt>
<trkpt lat="45.75532500" lon="4.84301500"><ele>233.10000624</ele><time>2010-07-31T05:14:04Z</time></trkpt>
<trkpt lat="45.75535700" lon="4.84296200"><ele>233.0000001408</ele><time>2010-07-31T05:14:05Z</time></trkpt>
<trkpt lat="45.75538600" lon="4.84289700"><ele>232.3999940256</ele><time>2010-07-31T05:14:06Z</time></trkpt>
<trkpt lat="45.75541100" lon="4.84282500"><ele>231.8999940096</ele><time>2010-07-31T05:14:07Z</time></trkpt>
<trkpt lat="45.75543600" lon="4.84275100"><ele>231.6999970512</ele><time>2010-07-31T05:14:08Z</time></trkpt>
<trkpt lat="45.75546100" lon="4.84267500"><ele>231.6999970512</ele><time>2010-07-31T05:14:09Z</time></trkpt>
<trkpt lat="45.75548200" lon="4.84260600"><ele>231.3000031344</ele><time>2010-07-31T05:14:10Z</time></trkpt>
<trkpt lat="45.75551000" lon="4.84253400"><ele>231.0000000768</ele><time>2010-07-31T05:14:11Z</time></trkpt>
<trkpt lat="45.75553100" lon="4.84246500"><ele>230.6999970192</ele><time>2010-07-31T05:14:12Z</time></trkpt>
<trkpt lat="45.75555300" lon="4.84240200"><ele>230.6999970192</ele><time>2010-07-31T05:14:13Z</time></trkpt>
<trkpt lat="45.75557800" lon="4.84233300"><ele>230.8999939776</ele><time>2010-07-31T05:14:14Z</time></trkpt>
<trkpt lat="45.75560100" lon="4.84226300"><ele>230.6999970192</ele><time>2010-07-31T05:14:15Z</time></trkpt>
<trkpt lat="45.75561900" lon="4.84218700"><ele>230.5000000608</ele><time>2010-07-31T05:14:16Z</time></trkpt>
<trkpt lat="45.75563700" lon="4.84211100"><ele>230.5000000608</ele><time>2010-07-31T05:14:17Z</time></trkpt>
<trkpt lat="45.75565000" lon="4.84204400"><ele>230.3999939616</ele><time>2010-07-31T05:14:18Z</time></trkpt>
<trkpt lat="45.75567200" lon="4.84196900"><ele>230.5000000608</ele><time>2010-07-31T05:14:19Z</time></trkpt>
<trkpt lat="45.75571600" lon="4.84185700"><ele>231.1999970352</ele><time>2010-07-31T05:14:21Z</time></trkpt>
<trkpt lat="45.75573500" lon="4.84179700"><ele>231.100006176</ele><time>2010-07-31T05:14:22Z</time></trkpt>
<trkpt lat="45.75575700" lon="4.84173900"><ele>231.0000000768</ele><time>2010-07-31T05:14:23Z</time></trkpt>
<trkpt lat="45.75577300" lon="4.84167700"><ele>231.6999970512</ele><time>2010-07-31T05:14:24Z</time></trkpt>
<trkpt lat="45.75581100" lon="4.84156000"><ele>232.3999940256</ele><time>2010-07-31T05:14:26Z</time></trkpt>
<trkpt lat="45.75583300" lon="4.84149500"><ele>232.5000001248</ele><time>2010-07-31T05:14:27Z</time></trkpt>
<trkpt lat="45.75585800" lon="4.84144100"><ele>232.8000031824</ele><time>2010-07-31T05:14:28Z</time></trkpt>
<trkpt lat="45.75588500" lon="4.84138400"><ele>232.8999940416</ele><time>2010-07-31T05:14:29Z</time></trkpt>
<trkpt lat="45.75591900" lon="4.84134100"><ele>232.6999970832</ele><time>2010-07-31T05:14:30Z</time></trkpt>
<trkpt lat="45.75595200" lon="4.84129200"><ele>232.6999970832</ele><time>2010-07-31T05:14:31Z</time></trkpt>
<trkpt lat="45.75598100" lon="4.84118100"><ele>231.1999970352</ele><time>2010-07-31T05:14:33Z</time></trkpt>
<trkpt lat="45.75602300" lon="4.84107400"><ele>230.0000000448</ele><time>2010-07-31T05:14:35Z</time></trkpt>
<trkpt lat="45.75605300" lon="4.84096600"><ele>228.8000030544</ele><time>2010-07-31T05:14:37Z</time></trkpt>
<trkpt lat="45.75608700" lon="4.84086700"><ele>228.8000030544</ele><time>2010-07-31T05:14:39Z</time></trkpt>
<trkpt lat="45.75611100" lon="4.84077500"><ele>227.3999938656</ele><time>2010-07-31T05:14:41Z</time></trkpt>
<trkpt lat="45.75613900" lon="4.84068800"><ele>226.6999968912</ele><time>2010-07-31T05:14:43Z</time></trkpt>
<trkpt lat="45.75616700" lon="4.84061300"><ele>224.8000029264</ele><time>2010-07-31T05:14:45Z</time></trkpt>
<trkpt lat="45.75619400" lon="4.84052600"><ele>224.600005968</ele><time>2010-07-31T05:14:47Z</time></trkpt>
<trkpt lat="45.75622500" lon="4.84043600"><ele>225.600006</ele><time>2010-07-31T05:14:49Z</time></trkpt>
<trkpt lat="45.75627700" lon="4.84034900"><ele>225.6999968592</ele><time>2010-07-31T05:14:51Z</time></trkpt>
<trkpt lat="45.75630100" lon="4.84029400"><ele>225.9999999168</ele><time>2010-07-31T05:14:52Z</time></trkpt>
<trkpt lat="45.75632400" lon="4.84023800"><ele>225.6999968592</ele><time>2010-07-31T05:14:53Z</time></trkpt>
<trkpt lat="45.75634200" lon="4.84017200"><ele>225.8000029584</ele><time>2010-07-31T05:14:54Z</time></trkpt>
<trkpt lat="45.75636200" lon="4.84010700"><ele>225.8000029584</ele><time>2010-07-31T05:14:55Z</time></trkpt>
<trkpt lat="45.75637900" lon="4.84004000"><ele>225.6999968592</ele><time>2010-07-31T05:14:56Z</time></trkpt>
<trkpt lat="45.75639700" lon="4.83997100"><ele>225.8000029584</ele><time>2010-07-31T05:14:57Z</time></trkpt>
<trkpt lat="45.75641200" lon="4.83990600"><ele>225.600006</ele><time>2010-07-31T05:14:58Z</time></trkpt>
<trkpt lat="45.75643500" lon="4.83982900"><ele>225.8000029584</ele><time>2010-07-31T05:14:59Z</time></trkpt>
<trkpt lat="45.75645700" lon="4.83975600"><ele>225.9999999168</ele><time>2010-07-31T05:15:00Z</time></trkpt>
<trkpt lat="45.75647600" lon="4.83968600"><ele>225.8999938176</ele><time>2010-07-31T05:15:01Z</time></trkpt>
<trkpt lat="45.75649900" lon="4.83960700"><ele>225.6999968592</ele><time>2010-07-31T05:15:02Z</time></trkpt>
<trkpt lat="45.75652200" lon="4.83953500"><ele>225.8999938176</ele><time>2010-07-31T05:15:03Z</time></trkpt>
<trkpt lat="45.75654500" lon="4.83946300"><ele>226.100006016</ele><time>2010-07-31T05:15:04Z</time></trkpt>
<trkpt lat="45.75656700" lon="4.83938800"><ele>226.100006016</ele><time>2010-07-31T05:15:05Z</time></trkpt>
<trkpt lat="45.75658800" lon="4.83931900"><ele>225.9999999168</ele><time>2010-07-31T05:15:06Z</time></trkpt>
<trkpt lat="45.75661200" lon="4.83924400"><ele>226.1999968752</ele><time>2010-07-31T05:15:07Z</time></trkpt>
<trkpt lat="45.75663500" lon="4.83917200"><ele>226.1999968752</ele><time>2010-07-31T05:15:08Z</time></trkpt>
<trkpt lat="45.75665400" lon="4.83910000"><ele>226.100006016</ele><time>2010-07-31T05:15:09Z</time></trkpt>
<trkpt lat="45.75667800" lon="4.83903200"><ele>226.100006016</ele><time>2010-07-31T05:15:10Z</time></trkpt>
<trkpt lat="45.75670000" lon="4.83896400"><ele>226.100006016</ele><time>2010-07-31T05:15:11Z</time></trkpt>
<trkpt lat="45.75672000" lon="4.83889800"><ele>226.1999968752</ele><time>2010-07-31T05:15:12Z</time></trkpt>
<trkpt lat="45.75673900" lon="4.83882900"><ele>226.1999968752</ele><time>2010-07-31T05:15:13Z</time></trkpt>
<trkpt lat="45.75675800" lon="4.83876700"><ele>226.3999938336</ele><time>2010-07-31T05:15:14Z</time></trkpt>
<trkpt lat="45.75678000" lon="4.83869800"><ele>226.4999999328</ele><time>2010-07-31T05:15:15Z</time></trkpt>
<trkpt lat="45.75679900" lon="4.83862900"><ele>226.600006032</ele><time>2010-07-31T05:15:16Z</time></trkpt>
<trkpt lat="45.75681700" lon="4.83856100"><ele>226.3999938336</ele><time>2010-07-31T05:15:17Z</time></trkpt>
<trkpt lat="45.75683800" lon="4.83848500"><ele>226.4999999328</ele><time>2010-07-31T05:15:18Z</time></trkpt>
<trkpt lat="45.75685500" lon="4.83842000"><ele>226.3000029744</ele><time>2010-07-31T05:15:19Z</time></trkpt>
<trkpt lat="45.75687400" lon="4.83835400"><ele>226.3000029744</ele><time>2010-07-31T05:15:20Z</time></trkpt>
<trkpt lat="45.75689100" lon="4.83828400"><ele>226.3000029744</ele><time>2010-07-31T05:15:21Z</time></trkpt>
<trkpt lat="45.75690500" lon="4.83822200"><ele>226.1999968752</ele><time>2010-07-31T05:15:22Z</time></trkpt>
<trkpt lat="45.75692300" lon="4.83815300"><ele>226.100006016</ele><time>2010-07-31T05:15:23Z</time></trkpt>
<trkpt lat="45.75694100" lon="4.83809000"><ele>226.100006016</ele><time>2010-07-31T05:15:24Z</time></trkpt>
<trkpt lat="45.75696100" lon="4.83802500"><ele>226.100006016</ele><time>2010-07-31T05:15:25Z</time></trkpt>
<trkpt lat="45.75698200" lon="4.83796100"><ele>226.1999968752</ele><time>2010-07-31T05:15:26Z</time></trkpt>
<trkpt lat="45.75700000" lon="4.83789400"><ele>226.1999968752</ele><time>2010-07-31T05:15:27Z</time></trkpt>
<trkpt lat="45.75701900" lon="4.83782800"><ele>226.3999938336</ele><time>2010-07-31T05:15:28Z</time></trkpt>
<trkpt lat="45.75703500" lon="4.83776700"><ele>226.3999938336</ele><time>2010-07-31T05:15:29Z</time></trkpt>
<trkpt lat="45.75707400" lon="4.83764600"><ele>226.100006016</ele><time>2010-07-31T05:15:31Z</time></trkpt>
<trkpt lat="45.75709400" lon="4.83758300"><ele>225.8999938176</ele><time>2010-07-31T05:15:32Z</time></trkpt>
<trkpt lat="45.75712800" lon="4.83746000"><ele>225.8999938176</ele><time>2010-07-31T05:15:34Z</time></trkpt>
<trkpt lat="45.75714800" lon="4.83740100"><ele>225.8000029584</ele><time>2010-07-31T05:15:35Z</time></trkpt>
<trkpt lat="45.75716500" lon="4.83733900"><ele>225.6999968592</ele><time>2010-07-31T05:15:36Z</time></trkpt>
<trkpt lat="45.75718400" lon="4.83727600"><ele>225.4999999008</ele><time>2010-07-31T05:15:37Z</time></trkpt>
<trkpt lat="45.75720300" lon="4.83721700"><ele>225.4999999008</ele><time>2010-07-31T05:15:38Z</time></trkpt>
<trkpt lat="45.75722000" lon="4.83715700"><ele>225.3999938016</ele><time>2010-07-31T05:15:39Z</time></trkpt>
<trkpt lat="45.75725200" lon="4.83705000"><ele>225.100005984</ele><time>2010-07-31T05:15:41Z</time></trkpt>
<trkpt lat="45.75727000" lon="4.83699000"><ele>225.8999938176</ele><time>2010-07-31T05:15:44Z</time></trkpt>
<trkpt lat="45.75731100" lon="4.83694500"><ele>225.6999968592</ele><time>2010-07-31T05:15:47Z</time></trkpt>
<trkpt lat="45.75735300" lon="4.83687700"><ele>225.4999999008</ele><time>2010-07-31T05:15:50Z</time></trkpt>
<trkpt lat="45.75738300" lon="4.83680300"><ele>225.4999999008</ele><time>2010-07-31T05:15:53Z</time></trkpt>
<trkpt lat="45.75740400" lon="4.83671900"><ele>225.3999938016</ele><time>2010-07-31T05:15:57Z</time></trkpt>
<trkpt lat="45.75740500" lon="4.83662400"><ele>225.1999968432</ele><time>2010-07-31T05:16:00Z</time></trkpt>
<trkpt lat="45.75737100" lon="4.83655700"><ele>225.1999968432</ele><time>2010-07-31T05:16:02Z</time></trkpt>
<trkpt lat="45.75735300" lon="4.83644700"><ele>224.9999998848</ele><time>2010-07-31T05:16:04Z</time></trkpt>
<trkpt lat="45.75737000" lon="4.83632400"><ele>224.6999968272</ele><time>2010-07-31T05:16:06Z</time></trkpt>
<trkpt lat="45.75739000" lon="4.83625900"><ele>224.4999998688</ele><time>2010-07-31T05:16:07Z</time></trkpt>
<trkpt lat="45.75741000" lon="4.83619100"><ele>224.4999998688</ele><time>2010-07-31T05:16:08Z</time></trkpt>
<trkpt lat="45.75742900" lon="4.83611800"><ele>224.3999937696</ele><time>2010-07-31T05:16:09Z</time></trkpt>
<trkpt lat="45.75746000" lon="4.83604900"><ele>224.3999937696</ele><time>2010-07-31T05:16:10Z</time></trkpt>
<trkpt lat="45.75748200" lon="4.83597200"><ele>224.600005968</ele><time>2010-07-31T05:16:11Z</time></trkpt>
<trkpt lat="45.75749300" lon="4.83589200"><ele>224.4999998688</ele><time>2010-07-31T05:16:12Z</time></trkpt>
<trkpt lat="45.75751400" lon="4.83578900"><ele>224.8999937856</ele><time>2010-07-31T05:16:13Z</time></trkpt>
<trkpt lat="45.75753500" lon="4.83571000"><ele>224.9999998848</ele><time>2010-07-31T05:16:14Z</time></trkpt>
<trkpt lat="45.75755700" lon="4.83562800"><ele>224.9999998848</ele><time>2010-07-31T05:16:15Z</time></trkpt>
<trkpt lat="45.75757000" lon="4.83554700"><ele>224.9999998848</ele><time>2010-07-31T05:16:16Z</time></trkpt>
<trkpt lat="45.75756900" lon="4.83546000"><ele>225.600006</ele><time>2010-07-31T05:16:17Z</time></trkpt>
<trkpt lat="45.75758000" lon="4.83537200"><ele>225.6999968592</ele><time>2010-07-31T05:16:18Z</time></trkpt>
<trkpt lat="45.75764100" lon="4.83530400"><ele>225.9999999168</ele><time>2010-07-31T05:16:19Z</time></trkpt>
<trkpt lat="45.75767700" lon="4.83522100"><ele>225.8000029584</ele><time>2010-07-31T05:16:20Z</time></trkpt>
<trkpt lat="45.75769400" lon="4.83513300"><ele>225.8999938176</ele><time>2010-07-31T05:16:21Z</time></trkpt>
<trkpt lat="45.75771200" lon="4.83502400"><ele>225.8000029584</ele><time>2010-07-31T05:16:22Z</time></trkpt>
<trkpt lat="45.75775300" lon="4.83493300"><ele>226.1999968752</ele><time>2010-07-31T05:16:23Z</time></trkpt>
<trkpt lat="45.75777300" lon="4.83484700"><ele>226.1999968752</ele><time>2010-07-31T05:16:24Z</time></trkpt>
<trkpt lat="45.75780200" lon="4.83474700"><ele>225.8000029584</ele><time>2010-07-31T05:16:25Z</time></trkpt>
<trkpt lat="45.75783700" lon="4.83465700"><ele>225.8999938176</ele><time>2010-07-31T05:16:26Z</time></trkpt>
<trkpt lat="45.75787300" lon="4.83454900"><ele>225.8000029584</ele><time>2010-07-31T05:16:27Z</time></trkpt>
<trkpt lat="45.75790100" lon="4.83444700"><ele>225.6999968592</ele><time>2010-07-31T05:16:28Z</time></trkpt>
<trkpt lat="45.75791600" lon="4.83436300"><ele>225.1999968432</ele><time>2010-07-31T05:16:29Z</time></trkpt>
<trkpt lat="45.75794600" lon="4.83427400"><ele>225.3999938016</ele><time>2010-07-31T05:16:30Z</time></trkpt>
<trkpt lat="45.75797100" lon="4.83417700"><ele>225.1999968432</ele><time>2010-07-31T05:16:31Z</time></trkpt>
<trkpt lat="45.75798700" lon="4.83407700"><ele>224.8000029264</ele><time>2010-07-31T05:16:32Z</time></trkpt>
<trkpt lat="45.75800200" lon="4.83398100"><ele>224.9999998848</ele><time>2010-07-31T05:16:33Z</time></trkpt>
<trkpt lat="45.75802600" lon="4.83388900"><ele>224.3999937696</ele><time>2010-07-31T05:16:34Z</time></trkpt>
<trkpt lat="45.75804700" lon="4.83378500"><ele>224.8000029264</ele><time>2010-07-31T05:16:35Z</time></trkpt>
<trkpt lat="45.75807000" lon="4.83369200"><ele>224.6999968272</ele><time>2010-07-31T05:16:36Z</time></trkpt>
<trkpt lat="45.75809700" lon="4.83360100"><ele>225.100005984</ele><time>2010-07-31T05:16:37Z</time></trkpt>
<trkpt lat="45.75812800" lon="4.83349600"><ele>224.9999998848</ele><time>2010-07-31T05:16:38Z</time></trkpt>
<trkpt lat="45.75815400" lon="4.83339600"><ele>224.9999998848</ele><time>2010-07-31T05:16:39Z</time></trkpt>
<trkpt lat="45.75817800" lon="4.83330100"><ele>225.1999968432</ele><time>2010-07-31T05:16:40Z</time></trkpt>
<trkpt lat="45.75820400" lon="4.83320800"><ele>225.8999938176</ele><time>2010-07-31T05:16:41Z</time></trkpt>
<trkpt lat="45.75823100" lon="4.83312400"><ele>225.8999938176</ele><time>2010-07-31T05:16:42Z</time></trkpt>
<trkpt lat="45.75825900" lon="4.83302800"><ele>225.4999999008</ele><time>2010-07-31T05:16:43Z</time></trkpt>
<trkpt lat="45.75828100" lon="4.83294000"><ele>225.3999938016</ele><time>2010-07-31T05:16:44Z</time></trkpt>
<trkpt lat="45.75830700" lon="4.83284900"><ele>225.3999938016</ele><time>2010-07-31T05:16:45Z</time></trkpt>
<trkpt lat="45.75832800" lon="4.83275800"><ele>225.9999999168</ele><time>2010-07-31T05:16:46Z</time></trkpt>
<trkpt lat="45.75835300" lon="4.83266900"><ele>225.6999968592</ele><time>2010-07-31T05:16:47Z</time></trkpt>
<trkpt lat="45.75837800" lon="4.83258300"><ele>225.4999999008</ele><time>2010-07-31T05:16:48Z</time></trkpt>
<trkpt lat="45.75839900" lon="4.83249700"><ele>225.600006</ele><time>2010-07-31T05:16:49Z</time></trkpt>
<trkpt lat="45.75841900" lon="4.83241600"><ele>225.4999999008</ele><time>2010-07-31T05:16:50Z</time></trkpt>
<trkpt lat="45.75844200" lon="4.83232500"><ele>225.600006</ele><time>2010-07-31T05:16:51Z</time></trkpt>
<trkpt lat="45.75846800" lon="4.83224000"><ele>225.8000029584</ele><time>2010-07-31T05:16:52Z</time></trkpt>
<trkpt lat="45.75849100" lon="4.83216300"><ele>225.8999938176</ele><time>2010-07-31T05:16:53Z</time></trkpt>
<trkpt lat="45.75851300" lon="4.83207500"><ele>225.8999938176</ele><time>2010-07-31T05:16:54Z</time></trkpt>
<trkpt lat="45.75853500" lon="4.83199600"><ele>225.4999999008</ele><time>2010-07-31T05:16:55Z</time></trkpt>
<trkpt lat="45.75855600" lon="4.83191600"><ele>225.6999968592</ele><time>2010-07-31T05:16:56Z</time></trkpt>
<trkpt lat="45.75857500" lon="4.83183400"><ele>225.6999968592</ele><time>2010-07-31T05:16:57Z</time></trkpt>
<trkpt lat="45.75859600" lon="4.83176200"><ele>225.1999968432</ele><time>2010-07-31T05:16:58Z</time></trkpt>
<trkpt lat="45.75861800" lon="4.83168000"><ele>225.3000029424</ele><time>2010-07-31T05:16:59Z</time></trkpt>
<trkpt lat="45.75863800" lon="4.83160400"><ele>225.1999968432</ele><time>2010-07-31T05:17:00Z</time></trkpt>
<trkpt lat="45.75866100" lon="4.83152800"><ele>225.100005984</ele><time>2010-07-31T05:17:01Z</time></trkpt>
<trkpt lat="45.75868200" lon="4.83145300"><ele>225.6999968592</ele><time>2010-07-31T05:17:02Z</time></trkpt>
<trkpt lat="45.75870200" lon="4.83137700"><ele>225.6999968592</ele><time>2010-07-31T05:17:03Z</time></trkpt>
<trkpt lat="45.75872200" lon="4.83130400"><ele>225.9999999168</ele><time>2010-07-31T05:17:04Z</time></trkpt>
<trkpt lat="45.75874000" lon="4.83123000"><ele>226.1999968752</ele><time>2010-07-31T05:17:05Z</time></trkpt>
<trkpt lat="45.75876000" lon="4.83116000"><ele>226.100006016</ele><time>2010-07-31T05:17:06Z</time></trkpt>
<trkpt lat="45.75878000" lon="4.83107900"><ele>226.1999968752</ele><time>2010-07-31T05:17:07Z</time></trkpt>
<trkpt lat="45.75879800" lon="4.83100800"><ele>226.3000029744</ele><time>2010-07-31T05:17:08Z</time></trkpt>
<trkpt lat="45.75881500" lon="4.83093900"><ele>226.1999968752</ele><time>2010-07-31T05:17:09Z</time></trkpt>
<trkpt lat="45.75883300" lon="4.83085900"><ele>226.3000029744</ele><time>2010-07-31T05:17:10Z</time></trkpt>
<trkpt lat="45.75885300" lon="4.83078300"><ele>226.4999999328</ele><time>2010-07-31T05:17:11Z</time></trkpt>
<trkpt lat="45.75887400" lon="4.83071000"><ele>226.3000029744</ele><time>2010-07-31T05:17:12Z</time></trkpt>
<trkpt lat="45.75889700" lon="4.83064300"><ele>226.3000029744</ele><time>2010-07-31T05:17:13Z</time></trkpt>
<trkpt lat="45.75891900" lon="4.83058300"><ele>226.3999938336</ele><time>2010-07-31T05:17:14Z</time></trkpt>
<trkpt lat="45.75893800" lon="4.83051300"><ele>226.600006032</ele><time>2010-07-31T05:17:15Z</time></trkpt>
<trkpt lat="45.75895000" lon="4.83043400"><ele>226.9999999488</ele><time>2010-07-31T05:17:16Z</time></trkpt>
<trkpt lat="45.75897200" lon="4.83036500"><ele>227.100006048</ele><time>2010-07-31T05:17:17Z</time></trkpt>
<trkpt lat="45.75899400" lon="4.83030400"><ele>227.4999999648</ele><time>2010-07-31T05:17:18Z</time></trkpt>
<trkpt lat="45.75902200" lon="4.83019000"><ele>228.3999938976</ele><time>2010-07-31T05:17:20Z</time></trkpt>
<trkpt lat="45.75902000" lon="4.83012400"><ele>228.8999939136</ele><time>2010-07-31T05:17:21Z</time></trkpt>
<trkpt lat="45.75906300" lon="4.83002900"><ele>230.0000000448</ele><time>2010-07-31T05:17:23Z</time></trkpt>
<trkpt lat="45.75906300" lon="4.82992800"><ele>233.6999968104</ele><time>2010-07-31T05:17:25Z</time></trkpt>
<trkpt lat="45.75911600" lon="4.82986200"><ele>232.5000001248</ele><time>2010-07-31T05:17:27Z</time></trkpt>
<trkpt lat="45.75916000" lon="4.82975600"><ele>232.3999940256</ele><time>2010-07-31T05:17:29Z</time></trkpt>
<trkpt lat="45.75922000" lon="4.82965900"><ele>230.8000031184</ele><time>2010-07-31T05:17:31Z</time></trkpt>
<trkpt lat="45.75924400" lon="4.82960200"><ele>231.600006192</ele><time>2010-07-31T05:17:32Z</time></trkpt>
<trkpt lat="45.75929000" lon="4.82949700"><ele>230.0000000448</ele><time>2010-07-31T05:17:34Z</time></trkpt>
<trkpt lat="45.75930200" lon="4.82943500"><ele>229.3999939296</ele><time>2010-07-31T05:17:35Z</time></trkpt>
<trkpt lat="45.75931900" lon="4.82937000"><ele>229.100006112</ele><time>2010-07-31T05:17:36Z</time></trkpt>
<trkpt lat="45.75933500" lon="4.82930700"><ele>229.0000000128</ele><time>2010-07-31T05:17:37Z</time></trkpt>
<trkpt lat="45.75936900" lon="4.82918400"><ele>228.600006096</ele><time>2010-07-31T05:17:39Z</time></trkpt>
<trkpt lat="45.75938700" lon="4.82911900"><ele>228.3999938976</ele><time>2010-07-31T05:17:40Z</time></trkpt>
<trkpt lat="45.75942300" lon="4.82901000"><ele>228.4999999968</ele><time>2010-07-31T05:17:42Z</time></trkpt>
<trkpt lat="45.75945200" lon="4.82890500"><ele>228.3000030384</ele><time>2010-07-31T05:17:44Z</time></trkpt>
<trkpt lat="45.75947900" lon="4.82880600"><ele>228.1999969392</ele><time>2010-07-31T05:17:46Z</time></trkpt>
<trkpt lat="45.75951100" lon="4.82870300"><ele>227.8999938816</ele><time>2010-07-31T05:17:48Z</time></trkpt>
<trkpt lat="45.75953900" lon="4.82859900"><ele>227.8000030224</ele><time>2010-07-31T05:17:50Z</time></trkpt>
<trkpt lat="45.75957100" lon="4.82849300"><ele>227.1999969072</ele><time>2010-07-31T05:17:52Z</time></trkpt>
<trkpt lat="45.75960700" lon="4.82838400"><ele>226.600006032</ele><time>2010-07-31T05:17:54Z</time></trkpt>
<trkpt lat="45.75964800" lon="4.82827500"><ele>225.9999999168</ele><time>2010-07-31T05:17:56Z</time></trkpt>
<trkpt lat="45.75968800" lon="4.82815800"><ele>225.8999938176</ele><time>2010-07-31T05:17:58Z</time></trkpt>
<trkpt lat="45.75974800" lon="4.82806000"><ele>225.6999968592</ele><time>2010-07-31T05:18:00Z</time></trkpt>
<trkpt lat="45.75979900" lon="4.82803700"><ele>224.9999998848</ele><time>2010-07-31T05:18:01Z</time></trkpt>
<trkpt lat="45.75984800" lon="4.82804900"><ele>224.600005968</ele><time>2010-07-31T05:18:02Z</time></trkpt>
<trkpt lat="45.75990500" lon="4.82807400"><ele>224.100005952</ele><time>2010-07-31T05:18:03Z</time></trkpt>
<trkpt lat="45.75995900" lon="4.82810000"><ele>224.1999968112</ele><time>2010-07-31T05:18:04Z</time></trkpt>
<trkpt lat="45.76001700" lon="4.82812700"><ele>224.100005952</ele><time>2010-07-31T05:18:05Z</time></trkpt>
<trkpt lat="45.76007200" lon="4.82816200"><ele>223.9999998528</ele><time>2010-07-31T05:18:06Z</time></trkpt>
<trkpt lat="45.76012900" lon="4.82819900"><ele>223.9999998528</ele><time>2010-07-31T05:18:07Z</time></trkpt>
<trkpt lat="45.76018800" lon="4.82823200"><ele>223.6000062408</ele><time>2010-07-31T05:18:08Z</time></trkpt>
<trkpt lat="45.76024900" lon="4.82826200"><ele>223.5000001416</ele><time>2010-07-31T05:18:09Z</time></trkpt>
<trkpt lat="45.76030800" lon="4.82829500"><ele>223.3999940424</ele><time>2010-07-31T05:18:10Z</time></trkpt>
<trkpt lat="45.76037800" lon="4.82832700"><ele>223.1000062248</ele><time>2010-07-31T05:18:11Z</time></trkpt>
<trkpt lat="45.76044500" lon="4.82835300"><ele>222.8999940264</ele><time>2010-07-31T05:18:12Z</time></trkpt>
<trkpt lat="45.76050800" lon="4.82837700"><ele>222.5000001096</ele><time>2010-07-31T05:18:13Z</time></trkpt>
<trkpt lat="45.76057900" lon="4.82841200"><ele>222.199997052</ele><time>2010-07-31T05:18:14Z</time></trkpt>
<trkpt lat="45.76064300" lon="4.82843500"><ele>222.1000061928</ele><time>2010-07-31T05:18:15Z</time></trkpt>
<trkpt lat="45.76070900" lon="4.82845600"><ele>222.0000000936</ele><time>2010-07-31T05:18:16Z</time></trkpt>
<trkpt lat="45.76077300" lon="4.82848100"><ele>222.1000061928</ele><time>2010-07-31T05:18:17Z</time></trkpt>
<trkpt lat="45.76083200" lon="4.82850100"><ele>222.1000061928</ele><time>2010-07-31T05:18:18Z</time></trkpt>
<trkpt lat="45.76089400" lon="4.82852200"><ele>222.3999940104</ele><time>2010-07-31T05:18:19Z</time></trkpt>
<trkpt lat="45.76095300" lon="4.82854300"><ele>222.6000062088</ele><time>2010-07-31T05:18:20Z</time></trkpt>
<trkpt lat="45.76101000" lon="4.82856100"><ele>222.6000062088</ele><time>2010-07-31T05:18:21Z</time></trkpt>
<trkpt lat="45.76106500" lon="4.82857500"><ele>222.6000062088</ele><time>2010-07-31T05:18:22Z</time></trkpt>
<trkpt lat="45.76111400" lon="4.82858800"><ele>222.699997068</ele><time>2010-07-31T05:18:23Z</time></trkpt>
<trkpt lat="45.76116300" lon="4.82860100"><ele>222.699997068</ele><time>2010-07-31T05:18:24Z</time></trkpt>
<trkpt lat="45.76123200" lon="4.82861600"><ele>222.699997068</ele><time>2010-07-31T05:18:26Z</time></trkpt>
<trkpt lat="45.76128300" lon="4.82861800"><ele>223.0000001256</ele><time>2010-07-31T05:18:29Z</time></trkpt>
<trkpt lat="45.76133900" lon="4.82862500"><ele>225.3999938016</ele><time>2010-07-31T05:18:33Z</time></trkpt>
<trkpt lat="45.76139400" lon="4.82861300"><ele>226.8000029904</ele><time>2010-07-31T05:18:35Z</time></trkpt>
<trkpt lat="45.76147300" lon="4.82862100"><ele>227.3999938656</ele><time>2010-07-31T05:18:37Z</time></trkpt>
<trkpt lat="45.76155400" lon="4.82863400"><ele>227.600006064</ele><time>2010-07-31T05:18:39Z</time></trkpt>
<trkpt lat="45.76159800" lon="4.82864100"><ele>227.6999969232</ele><time>2010-07-31T05:18:40Z</time></trkpt>
<trkpt lat="45.76164300" lon="4.82865000"><ele>227.4999999648</ele><time>2010-07-31T05:18:41Z</time></trkpt>
<trkpt lat="45.76169000" lon="4.82866200"><ele>227.6999969232</ele><time>2010-07-31T05:18:42Z</time></trkpt>
<trkpt lat="45.76174400" lon="4.82867500"><ele>227.6999969232</ele><time>2010-07-31T05:18:43Z</time></trkpt>
<trkpt lat="45.76179100" lon="4.82869200"><ele>227.6999969232</ele><time>2010-07-31T05:18:44Z</time></trkpt>
<trkpt lat="45.76183600" lon="4.82870000"><ele>227.3000030064</ele><time>2010-07-31T05:18:45Z</time></trkpt>
<trkpt lat="45.76189200" lon="4.82872000"><ele>226.6999968912</ele><time>2010-07-31T05:18:46Z</time></trkpt>
<trkpt lat="45.76194800" lon="4.82874400"><ele>226.4999999328</ele><time>2010-07-31T05:18:47Z</time></trkpt>
<trkpt lat="45.76199900" lon="4.82877400"><ele>226.3000029744</ele><time>2010-07-31T05:18:48Z</time></trkpt>
<trkpt lat="45.76205300" lon="4.82879900"><ele>225.8999938176</ele><time>2010-07-31T05:18:49Z</time></trkpt>
<trkpt lat="45.76210900" lon="4.82880800"><ele>225.6999968592</ele><time>2010-07-31T05:18:50Z</time></trkpt>
<trkpt lat="45.76217200" lon="4.82882000"><ele>225.9999999168</ele><time>2010-07-31T05:18:51Z</time></trkpt>
<trkpt lat="45.76222700" lon="4.82883900"><ele>227.3000030064</ele><time>2010-07-31T05:18:52Z</time></trkpt>
<trkpt lat="45.76228300" lon="4.82885600"><ele>227.600006064</ele><time>2010-07-31T05:18:53Z</time></trkpt>
<trkpt lat="45.76234200" lon="4.82887200"><ele>227.6999969232</ele><time>2010-07-31T05:18:54Z</time></trkpt>
<trkpt lat="45.76240400" lon="4.82888600"><ele>227.8000030224</ele><time>2010-07-31T05:18:55Z</time></trkpt>
<trkpt lat="45.76247000" lon="4.82891400"><ele>227.8000030224</ele><time>2010-07-31T05:18:56Z</time></trkpt>
<trkpt lat="45.76254000" lon="4.82893200"><ele>227.8000030224</ele><time>2010-07-31T05:18:57Z</time></trkpt>
<trkpt lat="45.76259500" lon="4.82895900"><ele>227.8000030224</ele><time>2010-07-31T05:18:58Z</time></trkpt>
<trkpt lat="45.76265900" lon="4.82898600"><ele>227.8999938816</ele><time>2010-07-31T05:18:59Z</time></trkpt>
<trkpt lat="45.76272600" lon="4.82901700"><ele>227.6999969232</ele><time>2010-07-31T05:19:00Z</time></trkpt>
<trkpt lat="45.76278500" lon="4.82902600"><ele>227.8000030224</ele><time>2010-07-31T05:19:01Z</time></trkpt>
<trkpt lat="45.76285000" lon="4.82905000"><ele>228.10000608</ele><time>2010-07-31T05:19:02Z</time></trkpt>
<trkpt lat="45.76291500" lon="4.82906500"><ele>227.9999999808</ele><time>2010-07-31T05:19:03Z</time></trkpt>
<trkpt lat="45.76297700" lon="4.82908200"><ele>227.9999999808</ele><time>2010-07-31T05:19:04Z</time></trkpt>
<trkpt lat="45.76303700" lon="4.82910400"><ele>227.600006064</ele><time>2010-07-31T05:19:05Z</time></trkpt>
<trkpt lat="45.76310200" lon="4.82910600"><ele>227.3999938656</ele><time>2010-07-31T05:19:06Z</time></trkpt>
<trkpt lat="45.76315900" lon="4.82911800"><ele>229.3999939296</ele><time>2010-07-31T05:19:07Z</time></trkpt>
<trkpt lat="45.76322600" lon="4.82913400"><ele>228.8999939136</ele><time>2010-07-31T05:19:08Z</time></trkpt>
<trkpt lat="45.76328300" lon="4.82914600"><ele>229.100006112</ele><time>2010-07-31T05:19:09Z</time></trkpt>
<trkpt lat="45.76334800" lon="4.82913400"><ele>230.100006144</ele><time>2010-07-31T05:19:10Z</time></trkpt>
<trkpt lat="45.76341000" lon="4.82913400"><ele>230.100006144</ele><time>2010-07-31T05:19:11Z</time></trkpt>
<trkpt lat="45.76346900" lon="4.82913200"><ele>230.0000000448</ele><time>2010-07-31T05:19:12Z</time></trkpt>
<trkpt lat="45.76353900" lon="4.82913400"><ele>228.600006096</ele><time>2010-07-31T05:19:13Z</time></trkpt>
<trkpt lat="45.76360000" lon="4.82914100"><ele>228.6999969552</ele><time>2010-07-31T05:19:14Z</time></trkpt>
<trkpt lat="45.76366500" lon="4.82913800"><ele>228.3999938976</ele><time>2010-07-31T05:19:15Z</time></trkpt>
<trkpt lat="45.76372700" lon="4.82913500"><ele>227.9999999808</ele><time>2010-07-31T05:19:16Z</time></trkpt>
<trkpt lat="45.76378600" lon="4.82913500"><ele>228.1999969392</ele><time>2010-07-31T05:19:17Z</time></trkpt>
<trkpt lat="45.76384800" lon="4.82913300"><ele>228.10000608</ele><time>2010-07-31T05:19:18Z</time></trkpt>
<trkpt lat="45.76390900" lon="4.82912900"><ele>227.3000030064</ele><time>2010-07-31T05:19:19Z</time></trkpt>
<trkpt lat="45.76396600" lon="4.82913600"><ele>226.9999999488</ele><time>2010-07-31T05:19:20Z</time></trkpt>
<trkpt lat="45.76402400" lon="4.82913100"><ele>226.8999938496</ele><time>2010-07-31T05:19:21Z</time></trkpt>
<trkpt lat="45.76407200" lon="4.82912500"><ele>226.8999938496</ele><time>2010-07-31T05:19:22Z</time></trkpt>
<trkpt lat="45.76413000" lon="4.82912300"><ele>226.8000029904</ele><time>2010-07-31T05:19:23Z</time></trkpt>
<trkpt lat="45.76418200" lon="4.82912800"><ele>226.6999968912</ele><time>2010-07-31T05:19:24Z</time></trkpt>
<trkpt lat="45.76423800" lon="4.82912000"><ele>226.8000029904</ele><time>2010-07-31T05:19:25Z</time></trkpt>
<trkpt lat="45.76429200" lon="4.82911400"><ele>226.600006032</ele><time>2010-07-31T05:19:26Z</time></trkpt>
<trkpt lat="45.76434400" lon="4.82911400"><ele>226.1999968752</ele><time>2010-07-31T05:19:27Z</time></trkpt>
<trkpt lat="45.76439800" lon="4.82910900"><ele>226.1999968752</ele><time>2010-07-31T05:19:28Z</time></trkpt>
<trkpt lat="45.76445100" lon="4.82911100"><ele>226.3000029744</ele><time>2010-07-31T05:19:29Z</time></trkpt>
<trkpt lat="45.76450700" lon="4.82909800"><ele>225.100005984</ele><time>2010-07-31T05:19:30Z</time></trkpt>
<trkpt lat="45.76455200" lon="4.82910500"><ele>224.6999968272</ele><time>2010-07-31T05:19:31Z</time></trkpt>
<trkpt lat="45.76459900" lon="4.82911300"><ele>224.600005968</ele><time>2010-07-31T05:19:32Z</time></trkpt>
<trkpt lat="45.76464900" lon="4.82910500"><ele>223.3999940424</ele><time>2010-07-31T05:19:33Z</time></trkpt>
<trkpt lat="45.76470200" lon="4.82910700"><ele>223.6000062408</ele><time>2010-07-31T05:19:34Z</time></trkpt>
<trkpt lat="45.76474900" lon="4.82911500"><ele>223.6999971</ele><time>2010-07-31T05:19:35Z</time></trkpt>
<trkpt lat="45.76479800" lon="4.82912400"><ele>223.3000031832</ele><time>2010-07-31T05:19:36Z</time></trkpt>
<trkpt lat="45.76484800" lon="4.82912900"><ele>222.5000001096</ele><time>2010-07-31T05:19:37Z</time></trkpt>
<trkpt lat="45.76489600" lon="4.82912700"><ele>221.8000031352</ele><time>2010-07-31T05:19:38Z</time></trkpt>
<trkpt lat="45.76494900" lon="4.82912600"><ele>220.8999939624</ele><time>2010-07-31T05:19:39Z</time></trkpt>
<trkpt lat="45.76500100" lon="4.82912600"><ele>220.5000000456</ele><time>2010-07-31T05:19:40Z</time></trkpt>
<trkpt lat="45.76505600" lon="4.82913100"><ele>220.3999939464</ele><time>2010-07-31T05:19:41Z</time></trkpt>
<trkpt lat="45.76510600" lon="4.82912700"><ele>220.3999939464</ele><time>2010-07-31T05:19:42Z</time></trkpt>
<trkpt lat="45.76516600" lon="4.82912200"><ele>220.199996988</ele><time>2010-07-31T05:19:43Z</time></trkpt>
<trkpt lat="45.76522200" lon="4.82911300"><ele>220.3999939464</ele><time>2010-07-31T05:19:44Z</time></trkpt>
<trkpt lat="45.76527600" lon="4.82910300"><ele>220.3000030872</ele><time>2010-07-31T05:19:45Z</time></trkpt>
<trkpt lat="45.76533100" lon="4.82908800"><ele>220.199996988</ele><time>2010-07-31T05:19:46Z</time></trkpt>
<trkpt lat="45.76539400" lon="4.82906400"><ele>219.699996972</ele><time>2010-07-31T05:19:47Z</time></trkpt>
<trkpt lat="45.76544600" lon="4.82904800"><ele>219.8999939304</ele><time>2010-07-31T05:19:48Z</time></trkpt>
<trkpt lat="45.76550100" lon="4.82903500"><ele>220.0000000296</ele><time>2010-07-31T05:19:49Z</time></trkpt>
<trkpt lat="45.76556600" lon="4.82901800"><ele>219.8000030712</ele><time>2010-07-31T05:19:50Z</time></trkpt>
<trkpt lat="45.76562700" lon="4.82900600"><ele>220.1000061288</ele><time>2010-07-31T05:19:51Z</time></trkpt>
<trkpt lat="45.76568400" lon="4.82897900"><ele>219.8000030712</ele><time>2010-07-31T05:19:52Z</time></trkpt>
<trkpt lat="45.76574200" lon="4.82895900"><ele>219.699996972</ele><time>2010-07-31T05:19:53Z</time></trkpt>
<trkpt lat="45.76579400" lon="4.82893800"><ele>220.0000000296</ele><time>2010-07-31T05:19:54Z</time></trkpt>
<trkpt lat="45.76585200" lon="4.82890600"><ele>220.199996988</ele><time>2010-07-31T05:19:55Z</time></trkpt>
<trkpt lat="45.76590500" lon="4.82889200"><ele>220.6000061448</ele><time>2010-07-31T05:19:56Z</time></trkpt>
<trkpt lat="45.76596300" lon="4.82886900"><ele>220.8999939624</ele><time>2010-07-31T05:19:57Z</time></trkpt>
<trkpt lat="45.76602000" lon="4.82883800"><ele>220.6000061448</ele><time>2010-07-31T05:19:58Z</time></trkpt>
<trkpt lat="45.76607300" lon="4.82881100"><ele>220.3999939464</ele><time>2010-07-31T05:19:59Z</time></trkpt>
<trkpt lat="45.76613600" lon="4.82878100"><ele>220.5000000456</ele><time>2010-07-31T05:20:00Z</time></trkpt>
<trkpt lat="45.76619300" lon="4.82875300"><ele>220.699997004</ele><time>2010-07-31T05:20:01Z</time></trkpt>
<trkpt lat="45.76624200" lon="4.82874300"><ele>221.699997036</ele><time>2010-07-31T05:20:02Z</time></trkpt>
<trkpt lat="45.76629000" lon="4.82870500"><ele>222.5000001096</ele><time>2010-07-31T05:20:03Z</time></trkpt>
<trkpt lat="45.76632700" lon="4.82865900"><ele>222.6000062088</ele><time>2010-07-31T05:20:04Z</time></trkpt>
<trkpt lat="45.76636700" lon="4.82861400"><ele>222.5000001096</ele><time>2010-07-31T05:20:05Z</time></trkpt>
<trkpt lat="45.76642000" lon="4.82859600"><ele>222.3000031512</ele><time>2010-07-31T05:20:06Z</time></trkpt>
<trkpt lat="45.76646300" lon="4.82855700"><ele>221.699997036</ele><time>2010-07-31T05:20:07Z</time></trkpt>
<trkpt lat="45.76650300" lon="4.82851100"><ele>221.8999939944</ele><time>2010-07-31T05:20:08Z</time></trkpt>
<trkpt lat="45.76654000" lon="4.82845300"><ele>222.6000062088</ele><time>2010-07-31T05:20:09Z</time></trkpt>
<trkpt lat="45.76657400" lon="4.82839600"><ele>222.6000062088</ele><time>2010-07-31T05:20:10Z</time></trkpt>
<trkpt lat="45.76661700" lon="4.82833700"><ele>222.5000001096</ele><time>2010-07-31T05:20:11Z</time></trkpt>
<trkpt lat="45.76665600" lon="4.82827500"><ele>222.3999940104</ele><time>2010-07-31T05:20:12Z</time></trkpt>
<trkpt lat="45.76669600" lon="4.82821000"><ele>222.3000031512</ele><time>2010-07-31T05:20:13Z</time></trkpt>
<trkpt lat="45.76674000" lon="4.82814100"><ele>222.6000062088</ele><time>2010-07-31T05:20:14Z</time></trkpt>
<trkpt lat="45.76678400" lon="4.82808000"><ele>222.8999940264</ele><time>2010-07-31T05:20:15Z</time></trkpt>
<trkpt lat="45.76682500" lon="4.82801200"><ele>223.3999940424</ele><time>2010-07-31T05:20:16Z</time></trkpt>
<trkpt lat="45.76687000" lon="4.82794500"><ele>223.8999937536</ele><time>2010-07-31T05:20:17Z</time></trkpt>
<trkpt lat="45.76691300" lon="4.82789100"><ele>223.8999937536</ele><time>2010-07-31T05:20:18Z</time></trkpt>
<trkpt lat="45.76695900" lon="4.82782400"><ele>224.100005952</ele><time>2010-07-31T05:20:19Z</time></trkpt>
<trkpt lat="45.76699800" lon="4.82775700"><ele>224.600005968</ele><time>2010-07-31T05:20:20Z</time></trkpt>
<trkpt lat="45.76703700" lon="4.82770500"><ele>224.8000029264</ele><time>2010-07-31T05:20:21Z</time></trkpt>
<trkpt lat="45.76708600" lon="4.82764900"><ele>224.9999998848</ele><time>2010-07-31T05:20:22Z</time></trkpt>
<trkpt lat="45.76712700" lon="4.82758600"><ele>224.8000029264</ele><time>2010-07-31T05:20:23Z</time></trkpt>
<trkpt lat="45.76715300" lon="4.82752000"><ele>224.3000029104</ele><time>2010-07-31T05:20:24Z</time></trkpt>
<trkpt lat="45.76718400" lon="4.82745700"><ele>223.8000031992</ele><time>2010-07-31T05:20:25Z</time></trkpt>
<trkpt lat="45.76721000" lon="4.82740000"><ele>223.6999971</ele><time>2010-07-31T05:20:26Z</time></trkpt>
<trkpt lat="45.76723600" lon="4.82733000"><ele>224.1999968112</ele><time>2010-07-31T05:20:27Z</time></trkpt>
<trkpt lat="45.76726300" lon="4.82726300"><ele>224.4999998688</ele><time>2010-07-31T05:20:28Z</time></trkpt>
<trkpt lat="45.76728800" lon="4.82718900"><ele>224.3000029104</ele><time>2010-07-31T05:20:29Z</time></trkpt>
<trkpt lat="45.76731200" lon="4.82711900"><ele>224.600005968</ele><time>2010-07-31T05:20:30Z</time></trkpt>
<trkpt lat="45.76733400" lon="4.82704700"><ele>224.600005968</ele><time>2010-07-31T05:20:31Z</time></trkpt>
<trkpt lat="45.76735400" lon="4.82697700"><ele>224.4999998688</ele><time>2010-07-31T05:20:32Z</time></trkpt>
<trkpt lat="45.76737100" lon="4.82690600"><ele>224.600005968</ele><time>2010-07-31T05:20:33Z</time></trkpt>
<trkpt lat="45.76738700" lon="4.82684400"><ele>224.3000029104</ele><time>2010-07-31T05:20:34Z</time></trkpt>
<trkpt lat="45.76740700" lon="4.82676900"><ele>224.3999937696</ele><time>2010-07-31T05:20:35Z</time></trkpt>
<trkpt lat="45.76742700" lon="4.82669800"><ele>224.6999968272</ele><time>2010-07-31T05:20:36Z</time></trkpt>
<trkpt lat="45.76744100" lon="4.82663100"><ele>224.8000029264</ele><time>2010-07-31T05:20:37Z</time></trkpt>
<trkpt lat="45.76745600" lon="4.82655600"><ele>224.8000029264</ele><time>2010-07-31T05:20:38Z</time></trkpt>
<trkpt lat="45.76747100" lon="4.82648600"><ele>224.9999998848</ele><time>2010-07-31T05:20:39Z</time></trkpt>
<trkpt lat="45.76748500" lon="4.82641500"><ele>224.9999998848</ele><time>2010-07-31T05:20:40Z</time></trkpt>
<trkpt lat="45.76749800" lon="4.82634300"><ele>225.1999968432</ele><time>2010-07-31T05:20:41Z</time></trkpt>
<trkpt lat="45.76750700" lon="4.82627600"><ele>224.9999998848</ele><time>2010-07-31T05:20:42Z</time></trkpt>
<trkpt lat="45.76750900" lon="4.82620400"><ele>224.8999937856</ele><time>2010-07-31T05:20:43Z</time></trkpt>
<trkpt lat="45.76750700" lon="4.82613400"><ele>224.8000029264</ele><time>2010-07-31T05:20:44Z</time></trkpt>
<trkpt lat="45.76750700" lon="4.82606500"><ele>224.6999968272</ele><time>2010-07-31T05:20:45Z</time></trkpt>
<trkpt lat="45.76750300" lon="4.82599600"><ele>224.4999998688</ele><time>2010-07-31T05:20:46Z</time></trkpt>
<trkpt lat="45.76750100" lon="4.82592600"><ele>224.600005968</ele><time>2010-07-31T05:20:47Z</time></trkpt>
<trkpt lat="45.76750100" lon="4.82585700"><ele>224.3000029104</ele><time>2010-07-31T05:20:48Z</time></trkpt>
<trkpt lat="45.76749800" lon="4.82578900"><ele>224.3999937696</ele><time>2010-07-31T05:20:49Z</time></trkpt>
<trkpt lat="45.76749300" lon="4.82565100"><ele>224.3999937696</ele><time>2010-07-31T05:20:51Z</time></trkpt>
<trkpt lat="45.76748700" lon="4.82558000"><ele>224.1999968112</ele><time>2010-07-31T05:20:52Z</time></trkpt>
<trkpt lat="45.76748500" lon="4.82551300"><ele>223.8999937536</ele><time>2010-07-31T05:20:53Z</time></trkpt>
<trkpt lat="45.76748000" lon="4.82543700"><ele>223.6000062408</ele><time>2010-07-31T05:20:54Z</time></trkpt>
<trkpt lat="45.76747800" lon="4.82536100"><ele>223.199997084</ele><time>2010-07-31T05:20:55Z</time></trkpt>
<trkpt lat="45.76747300" lon="4.82529300"><ele>223.199997084</ele><time>2010-07-31T05:20:56Z</time></trkpt>
<trkpt lat="45.76747000" lon="4.82522400"><ele>223.3999940424</ele><time>2010-07-31T05:20:57Z</time></trkpt>
<trkpt lat="45.76746000" lon="4.82508700"><ele>223.3000031832</ele><time>2010-07-31T05:20:59Z</time></trkpt>
<trkpt lat="45.76745800" lon="4.82502100"><ele>223.3000031832</ele><time>2010-07-31T05:21:00Z</time></trkpt>
<trkpt lat="45.76745500" lon="4.82494800"><ele>223.3999940424</ele><time>2010-07-31T05:21:01Z</time></trkpt>
<trkpt lat="45.76745500" lon="4.82488000"><ele>223.3999940424</ele><time>2010-07-31T05:21:02Z</time></trkpt>
<trkpt lat="45.76744900" lon="4.82481100"><ele>223.8000031992</ele><time>2010-07-31T05:21:03Z</time></trkpt>
<trkpt lat="45.76744600" lon="4.82473900"><ele>224.100005952</ele><time>2010-07-31T05:21:04Z</time></trkpt>
<trkpt lat="45.76744500" lon="4.82466700"><ele>223.9999998528</ele><time>2010-07-31T05:21:05Z</time></trkpt>
<trkpt lat="45.76744100" lon="4.82460000"><ele>224.1999968112</ele><time>2010-07-31T05:21:06Z</time></trkpt>
<trkpt lat="45.76743800" lon="4.82452700"><ele>224.1999968112</ele><time>2010-07-31T05:21:07Z</time></trkpt>
<trkpt lat="45.76744100" lon="4.82445400"><ele>223.9999998528</ele><time>2010-07-31T05:21:08Z</time></trkpt>
<trkpt lat="45.76743800" lon="4.82438900"><ele>224.100005952</ele><time>2010-07-31T05:21:09Z</time></trkpt>
<trkpt lat="45.76743600" lon="4.82431300"><ele>223.8000031992</ele><time>2010-07-31T05:21:10Z</time></trkpt>
<trkpt lat="45.76743700" lon="4.82423800"><ele>223.6999971</ele><time>2010-07-31T05:21:11Z</time></trkpt>
<trkpt lat="45.76743400" lon="4.82416500"><ele>223.6000062408</ele><time>2010-07-31T05:21:12Z</time></trkpt>
<trkpt lat="45.76743000" lon="4.82409400"><ele>223.3999940424</ele><time>2010-07-31T05:21:13Z</time></trkpt>
<trkpt lat="45.76742700" lon="4.82402700"><ele>223.3000031832</ele><time>2010-07-31T05:21:14Z</time></trkpt>
<trkpt lat="45.76741900" lon="4.82394700"><ele>223.1000062248</ele><time>2010-07-31T05:21:15Z</time></trkpt>
<trkpt lat="45.76741900" lon="4.82387200"><ele>222.699997068</ele><time>2010-07-31T05:21:16Z</time></trkpt>
<trkpt lat="45.76741900" lon="4.82380000"><ele>223.0000001256</ele><time>2010-07-31T05:21:17Z</time></trkpt>
<trkpt lat="45.76741900" lon="4.82372000"><ele>223.3000031832</ele><time>2010-07-31T05:21:18Z</time></trkpt>
<trkpt lat="45.76741800" lon="4.82364300"><ele>223.6000062408</ele><time>2010-07-31T05:21:19Z</time></trkpt>
<trkpt lat="45.76741600" lon="4.82356400"><ele>223.6000062408</ele><time>2010-07-31T05:21:20Z</time></trkpt>
<trkpt lat="45.76741500" lon="4.82348500"><ele>223.6000062408</ele><time>2010-07-31T05:21:21Z</time></trkpt>
<trkpt lat="45.76742100" lon="4.82341000"><ele>223.6999971</ele><time>2010-07-31T05:21:22Z</time></trkpt>
<trkpt lat="45.76742100" lon="4.82332600"><ele>223.5000001416</ele><time>2010-07-31T05:21:23Z</time></trkpt>
<trkpt lat="45.76741400" lon="4.82325100"><ele>223.6000062408</ele><time>2010-07-31T05:21:24Z</time></trkpt>
<trkpt lat="45.76740600" lon="4.82318000"><ele>223.6000062408</ele><time>2010-07-31T05:21:25Z</time></trkpt>
<trkpt lat="45.76740200" lon="4.82309700"><ele>223.8000031992</ele><time>2010-07-31T05:21:26Z</time></trkpt>
<trkpt lat="45.76740100" lon="4.82302400"><ele>223.6999971</ele><time>2010-07-31T05:21:27Z</time></trkpt>
<trkpt lat="45.76740000" lon="4.82295300"><ele>223.9999998528</ele><time>2010-07-31T05:21:28Z</time></trkpt>
<trkpt lat="45.76740200" lon="4.82288000"><ele>224.100005952</ele><time>2010-07-31T05:21:29Z</time></trkpt>
<trkpt lat="45.76739500" lon="4.82281100"><ele>224.100005952</ele><time>2010-07-31T05:21:30Z</time></trkpt>
<trkpt lat="45.76738800" lon="4.82273200"><ele>224.1999968112</ele><time>2010-07-31T05:21:31Z</time></trkpt>
<trkpt lat="45.76738100" lon="4.82265800"><ele>223.8000031992</ele><time>2010-07-31T05:21:32Z</time></trkpt>
<trkpt lat="45.76737500" lon="4.82258500"><ele>223.9999998528</ele><time>2010-07-31T05:21:33Z</time></trkpt>
<trkpt lat="45.76736200" lon="4.82251600"><ele>223.8999937536</ele><time>2010-07-31T05:21:34Z</time></trkpt>
<trkpt lat="45.76734800" lon="4.82244200"><ele>223.8999937536</ele><time>2010-07-31T05:21:35Z</time></trkpt>
<trkpt lat="45.76732900" lon="4.82237400"><ele>224.3000029104</ele><time>2010-07-31T05:21:36Z</time></trkpt>
<trkpt lat="45.76730700" lon="4.82231100"><ele>224.1999968112</ele><time>2010-07-31T05:21:37Z</time></trkpt>
<trkpt lat="45.76728800" lon="4.82224900"><ele>224.3000029104</ele><time>2010-07-31T05:21:38Z</time></trkpt>
<trkpt lat="45.76726600" lon="4.82217300"><ele>224.100005952</ele><time>2010-07-31T05:21:39Z</time></trkpt>
<trkpt lat="45.76724400" lon="4.82210300"><ele>224.100005952</ele><time>2010-07-31T05:21:40Z</time></trkpt>
<trkpt lat="45.76722500" lon="4.82203700"><ele>224.1999968112</ele><time>2010-07-31T05:21:41Z</time></trkpt>
<trkpt lat="45.76720100" lon="4.82196300"><ele>223.9999998528</ele><time>2010-07-31T05:21:42Z</time></trkpt>
<trkpt lat="45.76717800" lon="4.82189500"><ele>224.1999968112</ele><time>2010-07-31T05:21:43Z</time></trkpt>
<trkpt lat="45.76715600" lon="4.82182800"><ele>224.100005952</ele><time>2010-07-31T05:21:44Z</time></trkpt>
<trkpt lat="45.76713600" lon="4.82175900"><ele>224.1999968112</ele><time>2010-07-31T05:21:45Z</time></trkpt>
<trkpt lat="45.76711600" lon="4.82169100"><ele>223.9999998528</ele><time>2010-07-31T05:21:46Z</time></trkpt>
<trkpt lat="45.76709700" lon="4.82161700"><ele>224.100005952</ele><time>2010-07-31T05:21:47Z</time></trkpt>
<trkpt lat="45.76707800" lon="4.82154900"><ele>224.1999968112</ele><time>2010-07-31T05:21:48Z</time></trkpt>
<trkpt lat="45.76705500" lon="4.82148300"><ele>224.1999968112</ele><time>2010-07-31T05:21:49Z</time></trkpt>
<trkpt lat="45.76703700" lon="4.82141500"><ele>224.100005952</ele><time>2010-07-31T05:21:50Z</time></trkpt>
<trkpt lat="45.76701600" lon="4.82134500"><ele>223.9999998528</ele><time>2010-07-31T05:21:51Z</time></trkpt>
<trkpt lat="45.76699900" lon="4.82127700"><ele>223.9999998528</ele><time>2010-07-31T05:21:52Z</time></trkpt>
<trkpt lat="45.76698300" lon="4.82120800"><ele>224.100005952</ele><time>2010-07-31T05:21:53Z</time></trkpt>
<trkpt lat="45.76696600" lon="4.82114600"><ele>224.100005952</ele><time>2010-07-31T05:21:54Z</time></trkpt>
<trkpt lat="45.76694700" lon="4.82108000"><ele>223.8999937536</ele><time>2010-07-31T05:21:55Z</time></trkpt>
<trkpt lat="45.76693200" lon="4.82101500"><ele>224.100005952</ele><time>2010-07-31T05:21:56Z</time></trkpt>
<trkpt lat="45.76689900" lon="4.82089800"><ele>223.8999937536</ele><time>2010-07-31T05:21:58Z</time></trkpt>
<trkpt lat="45.76687000" lon="4.82078300"><ele>223.8000031992</ele><time>2010-07-31T05:22:00Z</time></trkpt>
<trkpt lat="45.76684500" lon="4.82066600"><ele>224.1999968112</ele><time>2010-07-31T05:22:02Z</time></trkpt>
<trkpt lat="45.76682600" lon="4.82060100"><ele>224.1999968112</ele><time>2010-07-31T05:22:03Z</time></trkpt>
<trkpt lat="45.76680500" lon="4.82048700"><ele>224.4999998688</ele><time>2010-07-31T05:22:05Z</time></trkpt>
<trkpt lat="45.76679700" lon="4.82041800"><ele>224.3999937696</ele><time>2010-07-31T05:22:06Z</time></trkpt>
<trkpt lat="45.76678700" lon="4.82035300"><ele>224.3999937696</ele><time>2010-07-31T05:22:07Z</time></trkpt>
<trkpt lat="45.76675600" lon="4.82023400"><ele>224.1999968112</ele><time>2010-07-31T05:22:09Z</time></trkpt>
<trkpt lat="45.76672200" lon="4.82011000"><ele>223.9999998528</ele><time>2010-07-31T05:22:11Z</time></trkpt>
<trkpt lat="45.76669700" lon="4.82005100"><ele>224.1999968112</ele><time>2010-07-31T05:22:12Z</time></trkpt>
<trkpt lat="45.76667700" lon="4.81998900"><ele>223.9999998528</ele><time>2010-07-31T05:22:13Z</time></trkpt>
<trkpt lat="45.76665500" lon="4.81992000"><ele>223.9999998528</ele><time>2010-07-31T05:22:14Z</time></trkpt>
<trkpt lat="45.76663600" lon="4.81985100"><ele>224.3000029104</ele><time>2010-07-31T05:22:15Z</time></trkpt>
<trkpt lat="45.76662100" lon="4.81978500"><ele>224.3000029104</ele><time>2010-07-31T05:22:16Z</time></trkpt>
<trkpt lat="45.76660700" lon="4.81971600"><ele>224.3000029104</ele><time>2010-07-31T05:22:17Z</time></trkpt>
<trkpt lat="45.76659600" lon="4.81964900"><ele>224.1999968112</ele><time>2010-07-31T05:22:18Z</time></trkpt>
<trkpt lat="45.76658300" lon="4.81957300"><ele>224.1999968112</ele><time>2010-07-31T05:22:19Z</time></trkpt>
<trkpt lat="45.76657100" lon="4.81950400"><ele>224.1999968112</ele><time>2010-07-31T05:22:20Z</time></trkpt>
<trkpt lat="45.76655900" lon="4.81943300"><ele>223.9999998528</ele><time>2010-07-31T05:22:21Z</time></trkpt>
<trkpt lat="45.76654600" lon="4.81936500"><ele>223.9999998528</ele><time>2010-07-31T05:22:22Z</time></trkpt>
<trkpt lat="45.76653300" lon="4.81929200"><ele>223.9999998528</ele><time>2010-07-31T05:22:23Z</time></trkpt>
<trkpt lat="45.76652300" lon="4.81921900"><ele>223.9999998528</ele><time>2010-07-31T05:22:24Z</time></trkpt>
<trkpt lat="45.76651300" lon="4.81914800"><ele>223.9999998528</ele><time>2010-07-31T05:22:25Z</time></trkpt>
<trkpt lat="45.76650600" lon="4.81907600"><ele>224.100005952</ele><time>2010-07-31T05:22:26Z</time></trkpt>
<trkpt lat="45.76649700" lon="4.81899600"><ele>223.9999998528</ele><time>2010-07-31T05:22:27Z</time></trkpt>
<trkpt lat="45.76649100" lon="4.81891800"><ele>224.100005952</ele><time>2010-07-31T05:22:28Z</time></trkpt>
<trkpt lat="45.76648500" lon="4.81885100"><ele>223.8999937536</ele><time>2010-07-31T05:22:29Z</time></trkpt>
<trkpt lat="45.76648600" lon="4.81876900"><ele>223.8999937536</ele><time>2010-07-31T05:22:30Z</time></trkpt>
<trkpt lat="45.76648100" lon="4.81869100"><ele>223.8999937536</ele><time>2010-07-31T05:22:31Z</time></trkpt>
<trkpt lat="45.76647900" lon="4.81861300"><ele>223.8000031992</ele><time>2010-07-31T05:22:32Z</time></trkpt>
<trkpt lat="45.76647600" lon="4.81853400"><ele>223.8999937536</ele><time>2010-07-31T05:22:33Z</time></trkpt>
<trkpt lat="45.76647900" lon="4.81846000"><ele>223.8000031992</ele><time>2010-07-31T05:22:34Z</time></trkpt>
<trkpt lat="45.76647800" lon="4.81838500"><ele>223.8000031992</ele><time>2010-07-31T05:22:35Z</time></trkpt>
<trkpt lat="45.76647900" lon="4.81831300"><ele>223.6999971</ele><time>2010-07-31T05:22:36Z</time></trkpt>
<trkpt lat="45.76648300" lon="4.81823600"><ele>224.1999968112</ele><time>2010-07-31T05:22:37Z</time></trkpt>
<trkpt lat="45.76648700" lon="4.81816100"><ele>224.4999998688</ele><time>2010-07-31T05:22:38Z</time></trkpt>
<trkpt lat="45.76649700" lon="4.81808600"><ele>224.3000029104</ele><time>2010-07-31T05:22:39Z</time></trkpt>
<trkpt lat="45.76650600" lon="4.81800700"><ele>223.8000031992</ele><time>2010-07-31T05:22:40Z</time></trkpt>
<trkpt lat="45.76651500" lon="4.81793100"><ele>223.6999971</ele><time>2010-07-31T05:22:41Z</time></trkpt>
<trkpt lat="45.76652500" lon="4.81786000"><ele>223.8999937536</ele><time>2010-07-31T05:22:42Z</time></trkpt>
<trkpt lat="45.76654000" lon="4.81777700"><ele>223.5000001416</ele><time>2010-07-31T05:22:43Z</time></trkpt>
<trkpt lat="45.76654900" lon="4.81769900"><ele>223.5000001416</ele><time>2010-07-31T05:22:44Z</time></trkpt>
<trkpt lat="45.76655700" lon="4.81762600"><ele>223.6999971</ele><time>2010-07-31T05:22:45Z</time></trkpt>
<trkpt lat="45.76657200" lon="4.81754300"><ele>223.6999971</ele><time>2010-07-31T05:22:46Z</time></trkpt>
<trkpt lat="45.76658700" lon="4.81746400"><ele>223.6999971</ele><time>2010-07-31T05:22:47Z</time></trkpt>
<trkpt lat="45.76660300" lon="4.81738400"><ele>223.5000001416</ele><time>2010-07-31T05:22:48Z</time></trkpt>
<trkpt lat="45.76661700" lon="4.81730200"><ele>223.6999971</ele><time>2010-07-31T05:22:49Z</time></trkpt>
<trkpt lat="45.76663000" lon="4.81722700"><ele>223.6000062408</ele><time>2010-07-31T05:22:50Z</time></trkpt>
<trkpt lat="45.76664800" lon="4.81714600"><ele>223.6000062408</ele><time>2010-07-31T05:22:51Z</time></trkpt>
<trkpt lat="45.76666600" lon="4.81706500"><ele>223.6000062408</ele><time>2010-07-31T05:22:52Z</time></trkpt>
<trkpt lat="45.76668400" lon="4.81698700"><ele>223.6000062408</ele><time>2010-07-31T05:22:53Z</time></trkpt>
<trkpt lat="45.76669900" lon="4.81690900"><ele>223.6000062408</ele><time>2010-07-31T05:22:54Z</time></trkpt>
<trkpt lat="45.76671100" lon="4.81682900"><ele>223.9999998528</ele><time>2010-07-31T05:22:55Z</time></trkpt>
<trkpt lat="45.76672600" lon="4.81674900"><ele>224.100005952</ele><time>2010-07-31T05:22:56Z</time></trkpt>
<trkpt lat="45.76674200" lon="4.81667200"><ele>224.100005952</ele><time>2010-07-31T05:22:57Z</time></trkpt>
<trkpt lat="45.76675500" lon="4.81659800"><ele>223.9999998528</ele><time>2010-07-31T05:22:58Z</time></trkpt>
<trkpt lat="45.76677000" lon="4.81651500"><ele>223.8000031992</ele><time>2010-07-31T05:22:59Z</time></trkpt>
<trkpt lat="45.76678400" lon="4.81643300"><ele>223.8000031992</ele><time>2010-07-31T05:23:00Z</time></trkpt>
<trkpt lat="45.76679800" lon="4.81636000"><ele>223.8999937536</ele><time>2010-07-31T05:23:01Z</time></trkpt>
<trkpt lat="45.76681300" lon="4.81628100"><ele>223.8999937536</ele><time>2010-07-31T05:23:02Z</time></trkpt>
<trkpt lat="45.76682800" lon="4.81620700"><ele>223.8999937536</ele><time>2010-07-31T05:23:03Z</time></trkpt>
<trkpt lat="45.76684200" lon="4.81613200"><ele>223.6000062408</ele><time>2010-07-31T05:23:04Z</time></trkpt>
<trkpt lat="45.76685800" lon="4.81605700"><ele>223.6999971</ele><time>2010-07-31T05:23:05Z</time></trkpt>
<trkpt lat="45.76687200" lon="4.81598300"><ele>223.8999937536</ele><time>2010-07-31T05:23:06Z</time></trkpt>
<trkpt lat="45.76689500" lon="4.81590300"><ele>223.8000031992</ele><time>2010-07-31T05:23:07Z</time></trkpt>
<trkpt lat="45.76692100" lon="4.81583000"><ele>224.100005952</ele><time>2010-07-31T05:23:08Z</time></trkpt>
<trkpt lat="45.76694700" lon="4.81575600"><ele>224.600005968</ele><time>2010-07-31T05:23:09Z</time></trkpt>
<trkpt lat="45.76697500" lon="4.81568400"><ele>224.6999968272</ele><time>2010-07-31T05:23:10Z</time></trkpt>
<trkpt lat="45.76699900" lon="4.81561300"><ele>224.4999998688</ele><time>2010-07-31T05:23:11Z</time></trkpt>
<trkpt lat="45.76702300" lon="4.81554200"><ele>224.600005968</ele><time>2010-07-31T05:23:12Z</time></trkpt>
<trkpt lat="45.76704500" lon="4.81546900"><ele>224.6999968272</ele><time>2010-07-31T05:23:13Z</time></trkpt>
<trkpt lat="45.76706600" lon="4.81540600"><ele>224.600005968</ele><time>2010-07-31T05:23:14Z</time></trkpt>
<trkpt lat="45.76709300" lon="4.81533000"><ele>224.4999998688</ele><time>2010-07-31T05:23:15Z</time></trkpt>
<trkpt lat="45.76711900" lon="4.81525200"><ele>224.6999968272</ele><time>2010-07-31T05:23:16Z</time></trkpt>
<trkpt lat="45.76714300" lon="4.81518600"><ele>225.100005984</ele><time>2010-07-31T05:23:17Z</time></trkpt>
<trkpt lat="45.76717100" lon="4.81510800"><ele>225.100005984</ele><time>2010-07-31T05:23:18Z</time></trkpt>
<trkpt lat="45.76719800" lon="4.81503800"><ele>225.1999968432</ele><time>2010-07-31T05:23:19Z</time></trkpt>
<trkpt lat="45.76722500" lon="4.81497000"><ele>225.1999968432</ele><time>2010-07-31T05:23:20Z</time></trkpt>
<trkpt lat="45.76725100" lon="4.81490200"><ele>225.3999938016</ele><time>2010-07-31T05:23:21Z</time></trkpt>
<trkpt lat="45.76727200" lon="4.81483800"><ele>225.8000029584</ele><time>2010-07-31T05:23:22Z</time></trkpt>
<trkpt lat="45.76729500" lon="4.81476600"><ele>225.8000029584</ele><time>2010-07-31T05:23:23Z</time></trkpt>
<trkpt lat="45.76731900" lon="4.81470400"><ele>225.6999968592</ele><time>2010-07-31T05:23:24Z</time></trkpt>
<trkpt lat="45.76734900" lon="4.81465500"><ele>225.600006</ele><time>2010-07-31T05:23:25Z</time></trkpt>
<trkpt lat="45.76740700" lon="4.81454800"><ele>225.1999968432</ele><time>2010-07-31T05:23:27Z</time></trkpt>
<trkpt lat="45.76743400" lon="4.81447600"><ele>225.3000029424</ele><time>2010-07-31T05:23:28Z</time></trkpt>
<trkpt lat="45.76746300" lon="4.81438700"><ele>224.600005968</ele><time>2010-07-31T05:23:29Z</time></trkpt>
<trkpt lat="45.76749200" lon="4.81430500"><ele>223.8000031992</ele><time>2010-07-31T05:23:30Z</time></trkpt>
<trkpt lat="45.76752500" lon="4.81421500"><ele>223.1000062248</ele><time>2010-07-31T05:23:31Z</time></trkpt>
<trkpt lat="45.76756800" lon="4.81411900"><ele>222.0000000936</ele><time>2010-07-31T05:23:32Z</time></trkpt>
<trkpt lat="45.76760900" lon="4.81403200"><ele>221.3999939784</ele><time>2010-07-31T05:23:33Z</time></trkpt>
<trkpt lat="45.76765500" lon="4.81393100"><ele>221.1000061608</ele><time>2010-07-31T05:23:34Z</time></trkpt>
<trkpt lat="45.76769800" lon="4.81383500"><ele>221.19999702</ele><time>2010-07-31T05:23:35Z</time></trkpt>
<trkpt lat="45.76774300" lon="4.81374900"><ele>221.3999939784</ele><time>2010-07-31T05:23:36Z</time></trkpt>
<trkpt lat="45.76778300" lon="4.81367000"><ele>221.699997036</ele><time>2010-07-31T05:23:37Z</time></trkpt>
<trkpt lat="45.76782200" lon="4.81358900"><ele>222.1000061928</ele><time>2010-07-31T05:23:38Z</time></trkpt>
<trkpt lat="45.76786800" lon="4.81350900"><ele>222.6000062088</ele><time>2010-07-31T05:23:39Z</time></trkpt>
<trkpt lat="45.76791600" lon="4.81344200"><ele>222.3999940104</ele><time>2010-07-31T05:23:40Z</time></trkpt>
<trkpt lat="45.76796800" lon="4.81338000"><ele>222.3999940104</ele><time>2010-07-31T05:23:41Z</time></trkpt>
<trkpt lat="45.76801700" lon="4.81332200"><ele>223.0000001256</ele><time>2010-07-31T05:23:42Z</time></trkpt>
<trkpt lat="45.76807000" lon="4.81326800"><ele>222.8000031672</ele><time>2010-07-31T05:23:43Z</time></trkpt>
<trkpt lat="45.76812700" lon="4.81322500"><ele>222.699997068</ele><time>2010-07-31T05:23:44Z</time></trkpt>
<trkpt lat="45.76818800" lon="4.81318500"><ele>222.3000031512</ele><time>2010-07-31T05:23:45Z</time></trkpt>
<trkpt lat="45.76824800" lon="4.81316100"><ele>221.8000031352</ele><time>2010-07-31T05:23:46Z</time></trkpt>
<trkpt lat="45.76830700" lon="4.81312000"><ele>221.699997036</ele><time>2010-07-31T05:23:47Z</time></trkpt>
<trkpt lat="45.76836100" lon="4.81308700"><ele>221.19999702</ele><time>2010-07-31T05:23:48Z</time></trkpt>
<trkpt lat="45.76841700" lon="4.81305600"><ele>221.1000061608</ele><time>2010-07-31T05:23:49Z</time></trkpt>
<trkpt lat="45.76847400" lon="4.81302500"><ele>221.19999702</ele><time>2010-07-31T05:23:50Z</time></trkpt>
<trkpt lat="45.76852800" lon="4.81300200"><ele>220.8000031032</ele><time>2010-07-31T05:23:51Z</time></trkpt>
<trkpt lat="45.76858500" lon="4.81297700"><ele>220.3000030872</ele><time>2010-07-31T05:23:52Z</time></trkpt>
<trkpt lat="45.76863700" lon="4.81295400"><ele>220.1000061288</ele><time>2010-07-31T05:23:53Z</time></trkpt>
<trkpt lat="45.76868300" lon="4.81294100"><ele>219.8999939304</ele><time>2010-07-31T05:23:54Z</time></trkpt>
<trkpt lat="45.76873400" lon="4.81292900"><ele>219.699996972</ele><time>2010-07-31T05:23:55Z</time></trkpt>
<trkpt lat="45.76878600" lon="4.81292700"><ele>219.5000000136</ele><time>2010-07-31T05:23:56Z</time></trkpt>
<trkpt lat="45.76883600" lon="4.81291800"><ele>219.3000030552</ele><time>2010-07-31T05:23:57Z</time></trkpt>
<trkpt lat="45.76888500" lon="4.81290500"><ele>219.3000030552</ele><time>2010-07-31T05:23:58Z</time></trkpt>
<trkpt lat="45.76893500" lon="4.81289300"><ele>219.3999939144</ele><time>2010-07-31T05:23:59Z</time></trkpt>
<trkpt lat="45.76898200" lon="4.81288700"><ele>219.199996956</ele><time>2010-07-31T05:24:00Z</time></trkpt>
<trkpt lat="45.76903100" lon="4.81288100"><ele>219.1000060968</ele><time>2010-07-31T05:24:01Z</time></trkpt>
<trkpt lat="45.76907700" lon="4.81287700"><ele>218.69999694</ele><time>2010-07-31T05:24:02Z</time></trkpt>
<trkpt lat="45.76912900" lon="4.81287400"><ele>218.3999938824</ele><time>2010-07-31T05:24:03Z</time></trkpt>
<trkpt lat="45.76917800" lon="4.81287100"><ele>218.3000030232</ele><time>2010-07-31T05:24:04Z</time></trkpt>
<trkpt lat="45.76922300" lon="4.81286500"><ele>218.3000030232</ele><time>2010-07-31T05:24:05Z</time></trkpt>
<trkpt lat="45.76927700" lon="4.81285900"><ele>218.199996924</ele><time>2010-07-31T05:24:06Z</time></trkpt>
<trkpt lat="45.76932500" lon="4.81285200"><ele>218.199996924</ele><time>2010-07-31T05:24:07Z</time></trkpt>
<trkpt lat="45.76937400" lon="4.81284600"><ele>218.199996924</ele><time>2010-07-31T05:24:08Z</time></trkpt>
<trkpt lat="45.76942200" lon="4.81284000"><ele>218.1000060648</ele><time>2010-07-31T05:24:09Z</time></trkpt>
<trkpt lat="45.76946800" lon="4.81283600"><ele>217.8999938664</ele><time>2010-07-31T05:24:10Z</time></trkpt>
<trkpt lat="45.76951900" lon="4.81282900"><ele>218.1000060648</ele><time>2010-07-31T05:24:11Z</time></trkpt>
<trkpt lat="45.76956900" lon="4.81282400"><ele>218.1000060648</ele><time>2010-07-31T05:24:12Z</time></trkpt>
<trkpt lat="45.76961600" lon="4.81281700"><ele>218.1000060648</ele><time>2010-07-31T05:24:13Z</time></trkpt>
<trkpt lat="45.76966200" lon="4.81280800"><ele>218.1000060648</ele><time>2010-07-31T05:24:14Z</time></trkpt>
<trkpt lat="45.76971200" lon="4.81280200"><ele>217.9999999656</ele><time>2010-07-31T05:24:15Z</time></trkpt>
<trkpt lat="45.76975700" lon="4.81279500"><ele>217.699996908</ele><time>2010-07-31T05:24:16Z</time></trkpt>
<trkpt lat="45.76980200" lon="4.81278800"><ele>217.699996908</ele><time>2010-07-31T05:24:17Z</time></trkpt>
<trkpt lat="45.76989000" lon="4.81276600"><ele>217.4999999496</ele><time>2010-07-31T05:24:19Z</time></trkpt>
<trkpt lat="45.76996900" lon="4.81273400"><ele>217.199996892</ele><time>2010-07-31T05:24:21Z</time></trkpt>
<trkpt lat="45.77002400" lon="4.81269900"><ele>216.8999938344</ele><time>2010-07-31T05:24:23Z</time></trkpt>
<trkpt lat="45.77011000" lon="4.81271200"><ele>216.8000029752</ele><time>2010-07-31T05:24:25Z</time></trkpt>
<trkpt lat="45.77017100" lon="4.81267600"><ele>216.8999938344</ele><time>2010-07-31T05:24:26Z</time></trkpt>
<trkpt lat="45.77023700" lon="4.81263000"><ele>217.4999999496</ele><time>2010-07-31T05:24:27Z</time></trkpt>
<trkpt lat="45.77031800" lon="4.81260300"><ele>218.199996924</ele><time>2010-07-31T05:24:29Z</time></trkpt>
<trkpt lat="45.77036400" lon="4.81259000"><ele>218.3999938824</ele><time>2010-07-31T05:24:30Z</time></trkpt>
<trkpt lat="45.77040900" lon="4.81258000"><ele>218.8000030392</ele><time>2010-07-31T05:24:31Z</time></trkpt>
<trkpt lat="45.77045500" lon="4.81255800"><ele>218.69999694</ele><time>2010-07-31T05:24:32Z</time></trkpt>
<trkpt lat="45.77053800" lon="4.81253800"><ele>218.8999938984</ele><time>2010-07-31T05:24:34Z</time></trkpt>
<trkpt lat="45.77058300" lon="4.81252600"><ele>219.199996956</ele><time>2010-07-31T05:24:35Z</time></trkpt>
<trkpt lat="45.77066700" lon="4.81248500"><ele>219.6000061128</ele><time>2010-07-31T05:24:37Z</time></trkpt>
<trkpt lat="45.77071000" lon="4.81246600"><ele>219.8999939304</ele><time>2010-07-31T05:24:38Z</time></trkpt>
<trkpt lat="45.77075300" lon="4.81244000"><ele>220.6000061448</ele><time>2010-07-31T05:24:39Z</time></trkpt>
<trkpt lat="45.77083200" lon="4.81238800"><ele>221.5000000776</ele><time>2010-07-31T05:24:41Z</time></trkpt>
<trkpt lat="45.77091400" lon="4.81233900"><ele>222.3000031512</ele><time>2010-07-31T05:24:43Z</time></trkpt>
<trkpt lat="45.77096300" lon="4.81230700"><ele>222.699997068</ele><time>2010-07-31T05:24:44Z</time></trkpt>
<trkpt lat="45.77104500" lon="4.81228000"><ele>223.5000001416</ele><time>2010-07-31T05:24:46Z</time></trkpt>
<trkpt lat="45.77109100" lon="4.81225200"><ele>223.9999998528</ele><time>2010-07-31T05:24:47Z</time></trkpt>
<trkpt lat="45.77117400" lon="4.81221400"><ele>223.8999937536</ele><time>2010-07-31T05:24:49Z</time></trkpt>
<trkpt lat="45.77122000" lon="4.81220700"><ele>223.6000062408</ele><time>2010-07-31T05:24:50Z</time></trkpt>
<trkpt lat="45.77130700" lon="4.81217200"><ele>223.6000062408</ele><time>2010-07-31T05:24:52Z</time></trkpt>
<trkpt lat="45.77139300" lon="4.81212400"><ele>224.4999998688</ele><time>2010-07-31T05:24:54Z</time></trkpt>
<trkpt lat="45.77143600" lon="4.81209100"><ele>224.9999998848</ele><time>2010-07-31T05:24:55Z</time></trkpt>
<trkpt lat="45.77152800" lon="4.81204000"><ele>225.4999999008</ele><time>2010-07-31T05:24:57Z</time></trkpt>
<trkpt lat="45.77157800" lon="4.81201800"><ele>225.3000029424</ele><time>2010-07-31T05:24:58Z</time></trkpt>
<trkpt lat="45.77166700" lon="4.81197500"><ele>226.6999968912</ele><time>2010-07-31T05:25:00Z</time></trkpt>
<trkpt lat="45.77171400" lon="4.81196600"><ele>226.6999968912</ele><time>2010-07-31T05:25:01Z</time></trkpt>
<trkpt lat="45.77176600" lon="4.81194300"><ele>226.600006032</ele><time>2010-07-31T05:25:02Z</time></trkpt>
<trkpt lat="45.77181500" lon="4.81192600"><ele>226.3999938336</ele><time>2010-07-31T05:25:03Z</time></trkpt>
<trkpt lat="45.77186100" lon="4.81190300"><ele>226.3000029744</ele><time>2010-07-31T05:25:04Z</time></trkpt>
<trkpt lat="45.77190400" lon="4.81187800"><ele>226.1999968752</ele><time>2010-07-31T05:25:05Z</time></trkpt>
<trkpt lat="45.77194300" lon="4.81183100"><ele>226.8999938496</ele><time>2010-07-31T05:25:06Z</time></trkpt>
<trkpt lat="45.77198900" lon="4.81180000"><ele>227.1999969072</ele><time>2010-07-31T05:25:07Z</time></trkpt>
<trkpt lat="45.77203200" lon="4.81176600"><ele>227.6999969232</ele><time>2010-07-31T05:25:08Z</time></trkpt>
<trkpt lat="45.77209400" lon="4.81167900"><ele>226.6999968912</ele><time>2010-07-31T05:25:10Z</time></trkpt>
<trkpt lat="45.77213100" lon="4.81164100"><ele>226.3999938336</ele><time>2010-07-31T05:25:11Z</time></trkpt>
<trkpt lat="45.77217200" lon="4.81160700"><ele>226.100006016</ele><time>2010-07-31T05:25:12Z</time></trkpt>
<trkpt lat="45.77223500" lon="4.81152000"><ele>225.8000029584</ele><time>2010-07-31T05:25:14Z</time></trkpt>
<trkpt lat="45.77227900" lon="4.81146500"><ele>225.3000029424</ele><time>2010-07-31T05:25:15Z</time></trkpt>
<trkpt lat="45.77231200" lon="4.81141400"><ele>225.600006</ele><time>2010-07-31T05:25:16Z</time></trkpt>
<trkpt lat="45.77237500" lon="4.81133300"><ele>225.8999938176</ele><time>2010-07-31T05:25:18Z</time></trkpt>
<trkpt lat="45.77240800" lon="4.81128900"><ele>226.100006016</ele><time>2010-07-31T05:25:19Z</time></trkpt>
<trkpt lat="45.77248000" lon="4.81119600"><ele>226.3999938336</ele><time>2010-07-31T05:25:21Z</time></trkpt>
<trkpt lat="45.77251600" lon="4.81114600"><ele>226.600006032</ele><time>2010-07-31T05:25:22Z</time></trkpt>
<trkpt lat="45.77255700" lon="4.81110200"><ele>226.600006032</ele><time>2010-07-31T05:25:23Z</time></trkpt>
<trkpt lat="45.77260500" lon="4.81104400"><ele>226.6999968912</ele><time>2010-07-31T05:25:25Z</time></trkpt>
<trkpt lat="45.77266700" lon="4.81097100"><ele>227.100006048</ele><time>2010-07-31T05:25:27Z</time></trkpt>
<trkpt lat="45.77271800" lon="4.81092700"><ele>227.3999938656</ele><time>2010-07-31T05:25:29Z</time></trkpt>
<trkpt lat="45.77275700" lon="4.81088000"><ele>227.1999969072</ele><time>2010-07-31T05:25:30Z</time></trkpt>
<trkpt lat="45.77280000" lon="4.81083600"><ele>227.3000030064</ele><time>2010-07-31T05:25:31Z</time></trkpt>
<trkpt lat="45.77288200" lon="4.81075300"><ele>227.3999938656</ele><time>2010-07-31T05:25:33Z</time></trkpt>
<trkpt lat="45.77292000" lon="4.81071600"><ele>227.3999938656</ele><time>2010-07-31T05:25:34Z</time></trkpt>
<trkpt lat="45.77295500" lon="4.81067600"><ele>227.3999938656</ele><time>2010-07-31T05:25:35Z</time></trkpt>
<trkpt lat="45.77299400" lon="4.81063700"><ele>227.8000030224</ele><time>2010-07-31T05:25:36Z</time></trkpt>
<trkpt lat="45.77305500" lon="4.81058000"><ele>228.1999969392</ele><time>2010-07-31T05:25:38Z</time></trkpt>
<trkpt lat="45.77309900" lon="4.81054300"><ele>228.3999938976</ele><time>2010-07-31T05:25:39Z</time></trkpt>
<trkpt lat="45.77314100" lon="4.81050000"><ele>228.4999999968</ele><time>2010-07-31T05:25:40Z</time></trkpt>
<trkpt lat="45.77317600" lon="4.81045400"><ele>228.6999969552</ele><time>2010-07-31T05:25:41Z</time></trkpt>
<trkpt lat="45.77321800" lon="4.81040700"><ele>228.8000030544</ele><time>2010-07-31T05:25:42Z</time></trkpt>
<trkpt lat="45.77329500" lon="4.81028600"><ele>229.6999969872</ele><time>2010-07-31T05:25:44Z</time></trkpt>
<trkpt lat="45.77332200" lon="4.81021300"><ele>228.6999969552</ele><time>2010-07-31T05:25:45Z</time></trkpt>
<trkpt lat="45.77336700" lon="4.81015800"><ele>228.1999969392</ele><time>2010-07-31T05:25:46Z</time></trkpt>
<trkpt lat="45.77342300" lon="4.81009500"><ele>227.3999938656</ele><time>2010-07-31T05:25:47Z</time></trkpt>
<trkpt lat="45.77346600" lon="4.81005200"><ele>227.4999999648</ele><time>2010-07-31T05:25:48Z</time></trkpt>
<trkpt lat="45.77352100" lon="4.80996700"><ele>226.8999938496</ele><time>2010-07-31T05:25:50Z</time></trkpt>
<trkpt lat="45.77358500" lon="4.80989600"><ele>226.4999999328</ele><time>2010-07-31T05:25:52Z</time></trkpt>
<trkpt lat="45.77362200" lon="4.80986000"><ele>226.1999968752</ele><time>2010-07-31T05:25:53Z</time></trkpt>
<trkpt lat="45.77368600" lon="4.80980900"><ele>225.8000029584</ele><time>2010-07-31T05:25:55Z</time></trkpt>
<trkpt lat="45.77375100" lon="4.80974200"><ele>224.9999998848</ele><time>2010-07-31T05:25:57Z</time></trkpt>
<trkpt lat="45.77378800" lon="4.80970200"><ele>223.8999937536</ele><time>2010-07-31T05:25:58Z</time></trkpt>
<trkpt lat="45.77382300" lon="4.80966000"><ele>223.3999940424</ele><time>2010-07-31T05:25:59Z</time></trkpt>
<trkpt lat="45.77385800" lon="4.80961800"><ele>222.8999940264</ele><time>2010-07-31T05:26:00Z</time></trkpt>
<trkpt lat="45.77389600" lon="4.80957500"><ele>222.699997068</ele><time>2010-07-31T05:26:01Z</time></trkpt>
<trkpt lat="45.77397100" lon="4.80948800"><ele>222.6000062088</ele><time>2010-07-31T05:26:03Z</time></trkpt>
<trkpt lat="45.77401200" lon="4.80944500"><ele>222.3000031512</ele><time>2010-07-31T05:26:04Z</time></trkpt>
<trkpt lat="45.77408500" lon="4.80938800"><ele>222.6000062088</ele><time>2010-07-31T05:26:06Z</time></trkpt>
<trkpt lat="45.77416500" lon="4.80932700"><ele>223.3999940424</ele><time>2010-07-31T05:26:08Z</time></trkpt>
<trkpt lat="45.77420700" lon="4.80929500"><ele>223.5000001416</ele><time>2010-07-31T05:26:09Z</time></trkpt>
<trkpt lat="45.77424800" lon="4.80926100"><ele>223.8000031992</ele><time>2010-07-31T05:26:10Z</time></trkpt>
<trkpt lat="45.77431500" lon="4.80922300"><ele>224.1999968112</ele><time>2010-07-31T05:26:12Z</time></trkpt>
<trkpt lat="45.77436200" lon="4.80919700"><ele>224.3999937696</ele><time>2010-07-31T05:26:13Z</time></trkpt>
<trkpt lat="45.77445200" lon="4.80913100"><ele>224.100005952</ele><time>2010-07-31T05:26:15Z</time></trkpt>
<trkpt lat="45.77452700" lon="4.80905300"><ele>223.6000062408</ele><time>2010-07-31T05:26:16Z</time></trkpt>
<trkpt lat="45.77459300" lon="4.80898700"><ele>222.699997068</ele><time>2010-07-31T05:26:17Z</time></trkpt>
<trkpt lat="45.77468300" lon="4.80891900"><ele>222.6000062088</ele><time>2010-07-31T05:26:19Z</time></trkpt>
<trkpt lat="45.77473300" lon="4.80888900"><ele>222.699997068</ele><time>2010-07-31T05:26:20Z</time></trkpt>
<trkpt lat="45.77478200" lon="4.80886300"><ele>222.6000062088</ele><time>2010-07-31T05:26:21Z</time></trkpt>
<trkpt lat="45.77482600" lon="4.80883100"><ele>222.1000061928</ele><time>2010-07-31T05:26:22Z</time></trkpt>
<trkpt lat="45.77489400" lon="4.80877300"><ele>222.1000061928</ele><time>2010-07-31T05:26:24Z</time></trkpt>
<trkpt lat="45.77493300" lon="4.80872200"><ele>222.699997068</ele><time>2010-07-31T05:26:26Z</time></trkpt>
<trkpt lat="45.77502900" lon="4.80866900"><ele>222.699997068</ele><time>2010-07-31T05:26:28Z</time></trkpt>
<trkpt lat="45.77508300" lon="4.80864300"><ele>222.5000001096</ele><time>2010-07-31T05:26:29Z</time></trkpt>
<trkpt lat="45.77515300" lon="4.80861700"><ele>223.3999940424</ele><time>2010-07-31T05:26:30Z</time></trkpt>
<trkpt lat="45.77522000" lon="4.80859600"><ele>223.3999940424</ele><time>2010-07-31T05:26:31Z</time></trkpt>
<trkpt lat="45.77527900" lon="4.80855700"><ele>223.3999940424</ele><time>2010-07-31T05:26:32Z</time></trkpt>
<trkpt lat="45.77532300" lon="4.80853300"><ele>224.100005952</ele><time>2010-07-31T05:26:33Z</time></trkpt>
<trkpt lat="45.77540500" lon="4.80850200"><ele>224.3999937696</ele><time>2010-07-31T05:26:35Z</time></trkpt>
<trkpt lat="45.77545200" lon="4.80848500"><ele>224.3999937696</ele><time>2010-07-31T05:26:36Z</time></trkpt>
<trkpt lat="45.77550000" lon="4.80847300"><ele>224.3000029104</ele><time>2010-07-31T05:26:37Z</time></trkpt>
<trkpt lat="45.77558600" lon="4.80844000"><ele>223.6999971</ele><time>2010-07-31T05:26:39Z</time></trkpt>
<trkpt lat="45.77563500" lon="4.80842500"><ele>223.6999971</ele><time>2010-07-31T05:26:40Z</time></trkpt>
<trkpt lat="45.77568200" lon="4.80840900"><ele>223.6000062408</ele><time>2010-07-31T05:26:41Z</time></trkpt>
<trkpt lat="45.77577400" lon="4.80837500"><ele>223.3999940424</ele><time>2010-07-31T05:26:43Z</time></trkpt>
<trkpt lat="45.77582400" lon="4.80836200"><ele>223.9999998528</ele><time>2010-07-31T05:26:44Z</time></trkpt>
<trkpt lat="45.77587300" lon="4.80834700"><ele>224.100005952</ele><time>2010-07-31T05:26:45Z</time></trkpt>
<trkpt lat="45.77592400" lon="4.80832800"><ele>224.100005952</ele><time>2010-07-31T05:26:46Z</time></trkpt>
<trkpt lat="45.77597000" lon="4.80830700"><ele>223.9999998528</ele><time>2010-07-31T05:26:47Z</time></trkpt>
<trkpt lat="45.77601900" lon="4.80829100"><ele>223.9999998528</ele><time>2010-07-31T05:26:48Z</time></trkpt>
<trkpt lat="45.77606700" lon="4.80828200"><ele>223.9999998528</ele><time>2010-07-31T05:26:49Z</time></trkpt>
<trkpt lat="45.77616100" lon="4.80826000"><ele>223.9999998528</ele><time>2010-07-31T05:26:51Z</time></trkpt>
<trkpt lat="45.77621200" lon="4.80824500"><ele>223.3000031832</ele><time>2010-07-31T05:26:52Z</time></trkpt>
<trkpt lat="45.77625800" lon="4.80824200"><ele>223.5000001416</ele><time>2010-07-31T05:26:53Z</time></trkpt>
<trkpt lat="45.77635000" lon="4.80822200"><ele>223.5000001416</ele><time>2010-07-31T05:26:55Z</time></trkpt>
<trkpt lat="45.77639800" lon="4.80820900"><ele>223.3000031832</ele><time>2010-07-31T05:26:56Z</time></trkpt>
<trkpt lat="45.77645000" lon="4.80819600"><ele>223.199997084</ele><time>2010-07-31T05:26:57Z</time></trkpt>
<trkpt lat="45.77654500" lon="4.80816100"><ele>223.3999940424</ele><time>2010-07-31T05:26:59Z</time></trkpt>
<trkpt lat="45.77659100" lon="4.80813500"><ele>222.8000031672</ele><time>2010-07-31T05:27:00Z</time></trkpt>
<trkpt lat="45.77663600" lon="4.80811700"><ele>222.8000031672</ele><time>2010-07-31T05:27:01Z</time></trkpt>
<trkpt lat="45.77669000" lon="4.80809200"><ele>223.0000001256</ele><time>2010-07-31T05:27:02Z</time></trkpt>
<trkpt lat="45.77677300" lon="4.80806000"><ele>223.199997084</ele><time>2010-07-31T05:27:04Z</time></trkpt>
<trkpt lat="45.77684900" lon="4.80800800"><ele>222.3000031512</ele><time>2010-07-31T05:27:06Z</time></trkpt>
<trkpt lat="45.77692000" lon="4.80798700"><ele>222.199997052</ele><time>2010-07-31T05:27:08Z</time></trkpt>
<trkpt lat="45.77698900" lon="4.80798200"><ele>221.8000031352</ele><time>2010-07-31T05:27:10Z</time></trkpt>
<trkpt lat="45.77706000" lon="4.80798600"><ele>222.199997052</ele><time>2010-07-31T05:27:12Z</time></trkpt>
<trkpt lat="45.77710500" lon="4.80799800"><ele>222.0000000936</ele><time>2010-07-31T05:27:13Z</time></trkpt>
<trkpt lat="45.77719300" lon="4.80801000"><ele>221.3999939784</ele><time>2010-07-31T05:27:15Z</time></trkpt>
<trkpt lat="45.77723700" lon="4.80802200"><ele>221.3999939784</ele><time>2010-07-31T05:27:16Z</time></trkpt>
<trkpt lat="45.77732600" lon="4.80804500"><ele>221.3000031192</ele><time>2010-07-31T05:27:18Z</time></trkpt>
<trkpt lat="45.77737200" lon="4.80805100"><ele>221.19999702</ele><time>2010-07-31T05:27:19Z</time></trkpt>
<trkpt lat="45.77741600" lon="4.80806400"><ele>221.5000000776</ele><time>2010-07-31T05:27:20Z</time></trkpt>
<trkpt lat="45.77746100" lon="4.80807000"><ele>221.8000031352</ele><time>2010-07-31T05:27:21Z</time></trkpt>
<trkpt lat="45.77755500" lon="4.80808200"><ele>221.6000061768</ele><time>2010-07-31T05:27:23Z</time></trkpt>
<trkpt lat="45.77760100" lon="4.80808800"><ele>221.6000061768</ele><time>2010-07-31T05:27:24Z</time></trkpt>
<trkpt lat="45.77764700" lon="4.80809600"><ele>221.6000061768</ele><time>2010-07-31T05:27:25Z</time></trkpt>
<trkpt lat="45.77774000" lon="4.80810600"><ele>221.19999702</ele><time>2010-07-31T05:27:27Z</time></trkpt>
<trkpt lat="45.77778800" lon="4.80811100"><ele>220.699997004</ele><time>2010-07-31T05:27:28Z</time></trkpt>
<trkpt lat="45.77783500" lon="4.80811500"><ele>221.0000000616</ele><time>2010-07-31T05:27:29Z</time></trkpt>
<trkpt lat="45.77791800" lon="4.80815500"><ele>221.5000000776</ele><time>2010-07-31T05:27:31Z</time></trkpt>
<trkpt lat="45.77796200" lon="4.80816500"><ele>221.699997036</ele><time>2010-07-31T05:27:32Z</time></trkpt>
<trkpt lat="45.77809900" lon="4.80818100"><ele>221.699997036</ele><time>2010-07-31T05:27:35Z</time></trkpt>
<trkpt lat="45.77815000" lon="4.80818600"><ele>221.8000031352</ele><time>2010-07-31T05:27:36Z</time></trkpt>
<trkpt lat="45.77820000" lon="4.80820000"><ele>221.699997036</ele><time>2010-07-31T05:27:37Z</time></trkpt>
<trkpt lat="45.77824700" lon="4.80820700"><ele>222.0000000936</ele><time>2010-07-31T05:27:38Z</time></trkpt>
<trkpt lat="45.77829900" lon="4.80821100"><ele>222.699997068</ele><time>2010-07-31T05:27:39Z</time></trkpt>
<trkpt lat="45.77835100" lon="4.80821900"><ele>222.6000062088</ele><time>2010-07-31T05:27:40Z</time></trkpt>
<trkpt lat="45.77840200" lon="4.80823000"><ele>222.5000001096</ele><time>2010-07-31T05:27:41Z</time></trkpt>
<trkpt lat="45.77848800" lon="4.80824700"><ele>223.3999940424</ele><time>2010-07-31T05:27:43Z</time></trkpt>
<trkpt lat="45.77857200" lon="4.80827800"><ele>223.1000062248</ele><time>2010-07-31T05:27:45Z</time></trkpt>
<trkpt lat="45.77861700" lon="4.80829200"><ele>223.199997084</ele><time>2010-07-31T05:27:46Z</time></trkpt>
<trkpt lat="45.77866600" lon="4.80831000"><ele>223.3000031832</ele><time>2010-07-31T05:27:47Z</time></trkpt>
<trkpt lat="45.77874300" lon="4.80834400"><ele>223.5000001416</ele><time>2010-07-31T05:27:49Z</time></trkpt>
<trkpt lat="45.77881300" lon="4.80837800"><ele>224.600005968</ele><time>2010-07-31T05:27:51Z</time></trkpt>
<trkpt lat="45.77887400" lon="4.80839700"><ele>225.8999938176</ele><time>2010-07-31T05:27:53Z</time></trkpt>
<trkpt lat="45.77893100" lon="4.80841200"><ele>226.1999968752</ele><time>2010-07-31T05:27:55Z</time></trkpt>
<trkpt lat="45.77898000" lon="4.80843500"><ele>226.8000029904</ele><time>2010-07-31T05:27:57Z</time></trkpt>
<trkpt lat="45.77902800" lon="4.80844600"><ele>227.8999938816</ele><time>2010-07-31T05:27:59Z</time></trkpt>
<trkpt lat="45.77909700" lon="4.80845100"><ele>228.8999939136</ele><time>2010-07-31T05:28:02Z</time></trkpt>
<trkpt lat="45.77915000" lon="4.80844700"><ele>229.3000030704</ele><time>2010-07-31T05:28:04Z</time></trkpt>
<trkpt lat="45.77921100" lon="4.80846500"><ele>230.0000000448</ele><time>2010-07-31T05:28:06Z</time></trkpt>
<trkpt lat="45.77926400" lon="4.80851100"><ele>230.1999970032</ele><time>2010-07-31T05:28:08Z</time></trkpt>
<trkpt lat="45.77931500" lon="4.80857100"><ele>231.100006176</ele><time>2010-07-31T05:28:10Z</time></trkpt>
<trkpt lat="45.77935200" lon="4.80860900"><ele>239.3000030856</ele><time>2010-07-31T05:28:12Z</time></trkpt>
<trkpt lat="45.77941400" lon="4.80867300"><ele>241.8000031656</ele><time>2010-07-31T05:28:14Z</time></trkpt>
<trkpt lat="45.77947800" lon="4.80872800"><ele>241.3000031496</ele><time>2010-07-31T05:28:16Z</time></trkpt>
<trkpt lat="45.77952800" lon="4.80873900"><ele>239.8999939608</ele><time>2010-07-31T05:28:17Z</time></trkpt>
<trkpt lat="45.77960200" lon="4.80878300"><ele>239.3000030856</ele><time>2010-07-31T05:28:19Z</time></trkpt>
<trkpt lat="45.77967200" lon="4.80882700"><ele>238.500000012</ele><time>2010-07-31T05:28:21Z</time></trkpt>
<trkpt lat="45.77971600" lon="4.80885400"><ele>237.6000060792</ele><time>2010-07-31T05:28:22Z</time></trkpt>
<trkpt lat="45.77976400" lon="4.80888300"><ele>237.3000030216</ele><time>2010-07-31T05:28:23Z</time></trkpt>
<trkpt lat="45.77980700" lon="4.80890800"><ele>236.499999948</ele><time>2010-07-31T05:28:24Z</time></trkpt>
<trkpt lat="45.77985000" lon="4.80892600"><ele>235.8999938328</ele><time>2010-07-31T05:28:25Z</time></trkpt>
<trkpt lat="45.77990800" lon="4.80892700"><ele>234.6999968424</ele><time>2010-07-31T05:28:26Z</time></trkpt>
<trkpt lat="45.77998700" lon="4.80892700"><ele>231.8999940096</ele><time>2010-07-31T05:28:28Z</time></trkpt>
<trkpt lat="45.78006300" lon="4.80895000"><ele>231.1999970352</ele><time>2010-07-31T05:28:30Z</time></trkpt>
<trkpt lat="45.78010800" lon="4.80896100"><ele>231.0000000768</ele><time>2010-07-31T05:28:31Z</time></trkpt>
<trkpt lat="45.78016300" lon="4.80895600"><ele>229.6999969872</ele><time>2010-07-31T05:28:33Z</time></trkpt>
<trkpt lat="45.78021400" lon="4.80894000"><ele>227.9999999808</ele><time>2010-07-31T05:28:35Z</time></trkpt>
<trkpt lat="45.78027100" lon="4.80893200"><ele>226.600006032</ele><time>2010-07-31T05:28:37Z</time></trkpt>
<trkpt lat="45.78033700" lon="4.80889000"><ele>226.9999999488</ele><time>2010-07-31T05:28:39Z</time></trkpt>
<trkpt lat="45.78038800" lon="4.80880800"><ele>226.600006032</ele><time>2010-07-31T05:28:41Z</time></trkpt>
<trkpt lat="45.78043400" lon="4.80870900"><ele>226.4999999328</ele><time>2010-07-31T05:28:43Z</time></trkpt>
<trkpt lat="45.78046000" lon="4.80864800"><ele>226.3000029744</ele><time>2010-07-31T05:28:44Z</time></trkpt>
<trkpt lat="45.78048500" lon="4.80859100"><ele>226.3000029744</ele><time>2010-07-31T05:28:45Z</time></trkpt>
<trkpt lat="45.78052300" lon="4.80854700"><ele>226.6999968912</ele><time>2010-07-31T05:28:46Z</time></trkpt>
<trkpt lat="45.78055700" lon="4.80850300"><ele>226.4999999328</ele><time>2010-07-31T05:28:47Z</time></trkpt>
<trkpt lat="45.78059000" lon="4.80845500"><ele>226.4999999328</ele><time>2010-07-31T05:28:48Z</time></trkpt>
<trkpt lat="45.78061800" lon="4.80839500"><ele>226.4999999328</ele><time>2010-07-31T05:28:49Z</time></trkpt>
<trkpt lat="45.78064000" lon="4.80833800"><ele>226.3999938336</ele><time>2010-07-31T05:28:50Z</time></trkpt>
<trkpt lat="45.78066000" lon="4.80827500"><ele>227.100006048</ele><time>2010-07-31T05:28:51Z</time></trkpt>
<trkpt lat="45.78068400" lon="4.80816000"><ele>227.6999969232</ele><time>2010-07-31T05:28:53Z</time></trkpt>
<trkpt lat="45.78071800" lon="4.80809000"><ele>228.3999938976</ele><time>2010-07-31T05:28:54Z</time></trkpt>
<trkpt lat="45.78076000" lon="4.80803500"><ele>228.600006096</ele><time>2010-07-31T05:28:55Z</time></trkpt>
<trkpt lat="45.78080700" lon="4.80798300"><ele>228.1999969392</ele><time>2010-07-31T05:28:56Z</time></trkpt>
<trkpt lat="45.78085300" lon="4.80795800"><ele>227.9999999808</ele><time>2010-07-31T05:28:57Z</time></trkpt>
<trkpt lat="45.78092200" lon="4.80789000"><ele>230.100006144</ele><time>2010-07-31T05:28:59Z</time></trkpt>
<trkpt lat="45.78099600" lon="4.80782100"><ele>231.100006176</ele><time>2010-07-31T05:29:01Z</time></trkpt>
<trkpt lat="45.78104100" lon="4.80778800"><ele>230.1999970032</ele><time>2010-07-31T05:29:02Z</time></trkpt>
<trkpt lat="45.78108700" lon="4.80779600"><ele>229.1999969712</ele><time>2010-07-31T05:29:03Z</time></trkpt>
<trkpt lat="45.78116900" lon="4.80778500"><ele>228.1999969392</ele><time>2010-07-31T05:29:05Z</time></trkpt>
<trkpt lat="45.78122400" lon="4.80769800"><ele>227.6999969232</ele><time>2010-07-31T05:29:07Z</time></trkpt>
<trkpt lat="45.78126800" lon="4.80760900"><ele>226.6999968912</ele><time>2010-07-31T05:29:09Z</time></trkpt>
<trkpt lat="45.78131700" lon="4.80751000"><ele>226.100006016</ele><time>2010-07-31T05:29:11Z</time></trkpt>
<trkpt lat="45.78136000" lon="4.80740500"><ele>225.6999968592</ele><time>2010-07-31T05:29:13Z</time></trkpt>
<trkpt lat="45.78140700" lon="4.80730300"><ele>225.6999968592</ele><time>2010-07-31T05:29:15Z</time></trkpt>
<trkpt lat="45.78145900" lon="4.80721300"><ele>225.6999968592</ele><time>2010-07-31T05:29:17Z</time></trkpt>
<trkpt lat="45.78153600" lon="4.80716000"><ele>224.9999998848</ele><time>2010-07-31T05:29:19Z</time></trkpt>
<trkpt lat="45.78158200" lon="4.80715300"><ele>224.600005968</ele><time>2010-07-31T05:29:20Z</time></trkpt>
<trkpt lat="45.78162700" lon="4.80715700"><ele>224.4999998688</ele><time>2010-07-31T05:29:21Z</time></trkpt>
<trkpt lat="45.78171700" lon="4.80715700"><ele>224.3999937696</ele><time>2010-07-31T05:29:23Z</time></trkpt>
<trkpt lat="45.78180100" lon="4.80715100"><ele>223.9999998528</ele><time>2010-07-31T05:29:25Z</time></trkpt>
<trkpt lat="45.78184900" lon="4.80715500"><ele>223.8000031992</ele><time>2010-07-31T05:29:26Z</time></trkpt>
<trkpt lat="45.78189400" lon="4.80715800"><ele>223.6000062408</ele><time>2010-07-31T05:29:27Z</time></trkpt>
<trkpt lat="45.78193900" lon="4.80716600"><ele>223.3000031832</ele><time>2010-07-31T05:29:28Z</time></trkpt>
<trkpt lat="45.78198400" lon="4.80718900"><ele>223.1000062248</ele><time>2010-07-31T05:29:29Z</time></trkpt>
<trkpt lat="45.78202500" lon="4.80721500"><ele>222.699997068</ele><time>2010-07-31T05:29:30Z</time></trkpt>
<trkpt lat="45.78207500" lon="4.80724000"><ele>222.6000062088</ele><time>2010-07-31T05:29:31Z</time></trkpt>
<trkpt lat="45.78212000" lon="4.80726600"><ele>222.3000031512</ele><time>2010-07-31T05:29:32Z</time></trkpt>
<trkpt lat="45.78216500" lon="4.80729600"><ele>222.0000000936</ele><time>2010-07-31T05:29:33Z</time></trkpt>
<trkpt lat="45.78221000" lon="4.80732100"><ele>221.8999939944</ele><time>2010-07-31T05:29:34Z</time></trkpt>
<trkpt lat="45.78225100" lon="4.80734900"><ele>222.1000061928</ele><time>2010-07-31T05:29:35Z</time></trkpt>
<trkpt lat="45.78229100" lon="4.80738200"><ele>222.3000031512</ele><time>2010-07-31T05:29:36Z</time></trkpt>
<trkpt lat="45.78233500" lon="4.80740000"><ele>222.5000001096</ele><time>2010-07-31T05:29:37Z</time></trkpt>
<trkpt lat="45.78241700" lon="4.80744400"><ele>222.8000031672</ele><time>2010-07-31T05:29:39Z</time></trkpt>
<trkpt lat="45.78246100" lon="4.80745700"><ele>222.3999940104</ele><time>2010-07-31T05:29:40Z</time></trkpt>
<trkpt lat="45.78255300" lon="4.80747100"><ele>221.3999939784</ele><time>2010-07-31T05:29:42Z</time></trkpt>
<trkpt lat="45.78259600" lon="4.80749000"><ele>221.3999939784</ele><time>2010-07-31T05:29:43Z</time></trkpt>
<trkpt lat="45.78263700" lon="4.80751400"><ele>221.1000061608</ele><time>2010-07-31T05:29:44Z</time></trkpt>
<trkpt lat="45.78268100" lon="4.80754100"><ele>220.8999939624</ele><time>2010-07-31T05:29:45Z</time></trkpt>
<trkpt lat="45.78276900" lon="4.80759700"><ele>220.6000061448</ele><time>2010-07-31T05:29:47Z</time></trkpt>
<trkpt lat="45.78281500" lon="4.80762200"><ele>220.3999939464</ele><time>2010-07-31T05:29:48Z</time></trkpt>
<trkpt lat="45.78285900" lon="4.80765600"><ele>220.1000061288</ele><time>2010-07-31T05:29:49Z</time></trkpt>
<trkpt lat="45.78290200" lon="4.80769000"><ele>219.8999939304</ele><time>2010-07-31T05:29:50Z</time></trkpt>
<trkpt lat="45.78294700" lon="4.80771900"><ele>219.6000061128</ele><time>2010-07-31T05:29:51Z</time></trkpt>
<trkpt lat="45.78299100" lon="4.80774200"><ele>219.3000030552</ele><time>2010-07-31T05:29:52Z</time></trkpt>
<trkpt lat="45.78303400" lon="4.80776600"><ele>219.199996956</ele><time>2010-07-31T05:29:53Z</time></trkpt>
<trkpt lat="45.78311100" lon="4.80781900"><ele>218.8000030392</ele><time>2010-07-31T05:29:55Z</time></trkpt>
<trkpt lat="45.78318600" lon="4.80784500"><ele>218.3999938824</ele><time>2010-07-31T05:29:57Z</time></trkpt>
<trkpt lat="45.78327000" lon="4.80782900"><ele>217.8999938664</ele><time>2010-07-31T05:29:59Z</time></trkpt>
<trkpt lat="45.78335100" lon="4.80787000"><ele>217.9999999656</ele><time>2010-07-31T05:30:01Z</time></trkpt>
<trkpt lat="45.78343000" lon="4.80793500"><ele>217.699996908</ele><time>2010-07-31T05:30:03Z</time></trkpt>
<trkpt lat="45.78347400" lon="4.80796900"><ele>216.4999999176</ele><time>2010-07-31T05:30:04Z</time></trkpt>
<trkpt lat="45.78351400" lon="4.80800000"><ele>216.6000060168</ele><time>2010-07-31T05:30:05Z</time></trkpt>
<trkpt lat="45.78355700" lon="4.80802700"><ele>216.4999999176</ele><time>2010-07-31T05:30:06Z</time></trkpt>
<trkpt lat="45.78360000" lon="4.80805100"><ele>216.3000029592</ele><time>2010-07-31T05:30:07Z</time></trkpt>
<trkpt lat="45.78364400" lon="4.80807300"><ele>216.3000029592</ele><time>2010-07-31T05:30:08Z</time></trkpt>
<trkpt lat="45.78368600" lon="4.80809900"><ele>216.19999686</ele><time>2010-07-31T05:30:09Z</time></trkpt>
<trkpt lat="45.78376800" lon="4.80815200"><ele>215.9999999016</ele><time>2010-07-31T05:30:11Z</time></trkpt>
<trkpt lat="45.78381100" lon="4.80817600"><ele>215.9999999016</ele><time>2010-07-31T05:30:12Z</time></trkpt>
<trkpt lat="45.78389300" lon="4.80822100"><ele>216.19999686</ele><time>2010-07-31T05:30:14Z</time></trkpt>
<trkpt lat="45.78397800" lon="4.80826100"><ele>216.1000060008</ele><time>2010-07-31T05:30:16Z</time></trkpt>
<trkpt lat="45.78402100" lon="4.80828800"><ele>216.19999686</ele><time>2010-07-31T05:30:17Z</time></trkpt>
<trkpt lat="45.78406100" lon="4.80831500"><ele>216.1000060008</ele><time>2010-07-31T05:30:18Z</time></trkpt>
<trkpt lat="45.78410800" lon="4.80834500"><ele>216.1000060008</ele><time>2010-07-31T05:30:19Z</time></trkpt>
<trkpt lat="45.78415200" lon="4.80837000"><ele>216.1000060008</ele><time>2010-07-31T05:30:20Z</time></trkpt>
<trkpt lat="45.78419600" lon="4.80839400"><ele>215.9999999016</ele><time>2010-07-31T05:30:21Z</time></trkpt>
<trkpt lat="45.78423900" lon="4.80842200"><ele>215.8000029432</ele><time>2010-07-31T05:30:22Z</time></trkpt>
<trkpt lat="45.78428200" lon="4.80845100"><ele>215.699996844</ele><time>2010-07-31T05:30:23Z</time></trkpt>
<trkpt lat="45.78432500" lon="4.80847600"><ele>215.8000029432</ele><time>2010-07-31T05:30:24Z</time></trkpt>
<trkpt lat="45.78436800" lon="4.80849900"><ele>215.8999938024</ele><time>2010-07-31T05:30:25Z</time></trkpt>
<trkpt lat="45.78444900" lon="4.80853800"><ele>215.8000029432</ele><time>2010-07-31T05:30:27Z</time></trkpt>
<trkpt lat="45.78452400" lon="4.80856700"><ele>215.8000029432</ele><time>2010-07-31T05:30:29Z</time></trkpt>
<trkpt lat="45.78459900" lon="4.80861700"><ele>215.4999998856</ele><time>2010-07-31T05:30:31Z</time></trkpt>
<trkpt lat="45.78466400" lon="4.80865400"><ele>215.3999937864</ele><time>2010-07-31T05:30:33Z</time></trkpt>
<trkpt lat="45.78472600" lon="4.80864700"><ele>215.699996844</ele><time>2010-07-31T05:30:35Z</time></trkpt>
<trkpt lat="45.78476900" lon="4.80857500"><ele>215.6000059848</ele><time>2010-07-31T05:30:37Z</time></trkpt>
<trkpt lat="45.78478300" lon="4.80847100"><ele>215.8999938024</ele><time>2010-07-31T05:30:39Z</time></trkpt>
<trkpt lat="45.78483600" lon="4.80840700"><ele>216.3000029592</ele><time>2010-07-31T05:30:41Z</time></trkpt>
<trkpt lat="45.78489100" lon="4.80836900"><ele>216.3000029592</ele><time>2010-07-31T05:30:45Z</time></trkpt>
<trkpt lat="45.78493700" lon="4.80832700"><ele>216.4999999176</ele><time>2010-07-31T05:30:47Z</time></trkpt>
<trkpt lat="45.78499700" lon="4.80828000"><ele>216.4999999176</ele><time>2010-07-31T05:30:49Z</time></trkpt>
<trkpt lat="45.78505500" lon="4.80822000"><ele>215.4999998856</ele><time>2010-07-31T05:30:51Z</time></trkpt>
<trkpt lat="45.78510600" lon="4.80815800"><ele>215.1000059688</ele><time>2010-07-31T05:30:53Z</time></trkpt>
<trkpt lat="45.78516800" lon="4.80809400"><ele>214.9999998696</ele><time>2010-07-31T05:30:55Z</time></trkpt>
<trkpt lat="45.78523900" lon="4.80801700"><ele>214.9999998696</ele><time>2010-07-31T05:30:57Z</time></trkpt>
<trkpt lat="45.78529000" lon="4.80790600"><ele>214.9999998696</ele><time>2010-07-31T05:30:58Z</time></trkpt>
<trkpt lat="45.78536200" lon="4.80784800"><ele>214.8999937704</ele><time>2010-07-31T05:30:59Z</time></trkpt>
<trkpt lat="45.78543300" lon="4.80782800"><ele>214.9999998696</ele><time>2010-07-31T05:31:01Z</time></trkpt>
<trkpt lat="45.78548000" lon="4.80781600"><ele>214.9999998696</ele><time>2010-07-31T05:31:02Z</time></trkpt>
<trkpt lat="45.78553300" lon="4.80782500"><ele>214.8000029112</ele><time>2010-07-31T05:31:03Z</time></trkpt>
<trkpt lat="45.78557800" lon="4.80782700"><ele>214.8000029112</ele><time>2010-07-31T05:31:04Z</time></trkpt>
<trkpt lat="45.78565700" lon="4.80785500"><ele>214.3000032</ele><time>2010-07-31T05:31:06Z</time></trkpt>
<trkpt lat="45.78573600" lon="4.80789500"><ele>214.1000062416</ele><time>2010-07-31T05:31:08Z</time></trkpt>
<trkpt lat="45.78581000" lon="4.80792700"><ele>214.3000032</ele><time>2010-07-31T05:31:10Z</time></trkpt>
<trkpt lat="45.78588200" lon="4.80795700"><ele>214.3000032</ele><time>2010-07-31T05:31:12Z</time></trkpt>
<trkpt lat="45.78594800" lon="4.80799300"><ele>214.199996796</ele><time>2010-07-31T05:31:14Z</time></trkpt>
<trkpt lat="45.78602200" lon="4.80802400"><ele>214.3000032</ele><time>2010-07-31T05:31:16Z</time></trkpt>
<trkpt lat="45.78609400" lon="4.80805200"><ele>214.699996812</ele><time>2010-07-31T05:31:18Z</time></trkpt>
<trkpt lat="45.78615300" lon="4.80807800"><ele>216.6000060168</ele><time>2010-07-31T05:31:20Z</time></trkpt>
<trkpt lat="45.78621400" lon="4.80810200"><ele>217.6000060488</ele><time>2010-07-31T05:31:22Z</time></trkpt>
<trkpt lat="45.78629700" lon="4.80814200"><ele>215.6000059848</ele><time>2010-07-31T05:31:24Z</time></trkpt>
<trkpt lat="45.78636500" lon="4.80817500"><ele>215.8000029432</ele><time>2010-07-31T05:31:26Z</time></trkpt>
<trkpt lat="45.78641800" lon="4.80819100"><ele>215.8999938024</ele><time>2010-07-31T05:31:28Z</time></trkpt>
<trkpt lat="45.78647600" lon="4.80819100"><ele>216.8999938344</ele><time>2010-07-31T05:31:30Z</time></trkpt>
<trkpt lat="45.78655600" lon="4.80820200"><ele>216.8000029752</ele><time>2010-07-31T05:31:32Z</time></trkpt>
<trkpt lat="45.78663300" lon="4.80826500"><ele>217.3999938504</ele><time>2010-07-31T05:31:34Z</time></trkpt>
<trkpt lat="45.78670400" lon="4.80832400"><ele>217.9999999656</ele><time>2010-07-31T05:31:36Z</time></trkpt>
<trkpt lat="45.78676400" lon="4.80832700"><ele>218.8000030392</ele><time>2010-07-31T05:31:38Z</time></trkpt>
<trkpt lat="45.78683900" lon="4.80837700"><ele>219.3000030552</ele><time>2010-07-31T05:31:40Z</time></trkpt>
<trkpt lat="45.78690900" lon="4.80842500"><ele>219.8999939304</ele><time>2010-07-31T05:31:42Z</time></trkpt>
<trkpt lat="45.78698200" lon="4.80844200"><ele>220.3000030872</ele><time>2010-07-31T05:31:44Z</time></trkpt>
<trkpt lat="45.78704300" lon="4.80847100"><ele>221.1000061608</ele><time>2010-07-31T05:31:46Z</time></trkpt>
<trkpt lat="45.78711000" lon="4.80850600"><ele>220.6000061448</ele><time>2010-07-31T05:31:48Z</time></trkpt>
<trkpt lat="45.78717500" lon="4.80852200"><ele>220.3000030872</ele><time>2010-07-31T05:31:50Z</time></trkpt>
<trkpt lat="45.78724100" lon="4.80854400"><ele>220.3999939464</ele><time>2010-07-31T05:31:52Z</time></trkpt>
<trkpt lat="45.78729400" lon="4.80854200"><ele>221.0000000616</ele><time>2010-07-31T05:31:54Z</time></trkpt>
<trkpt lat="45.78735700" lon="4.80854900"><ele>222.3000031512</ele><time>2010-07-31T05:31:56Z</time></trkpt>
<trkpt lat="45.78740800" lon="4.80859700"><ele>222.3000031512</ele><time>2010-07-31T05:31:58Z</time></trkpt>
<trkpt lat="45.78745500" lon="4.80862800"><ele>222.3000031512</ele><time>2010-07-31T05:31:59Z</time></trkpt>
<trkpt lat="45.78751900" lon="4.80867300"><ele>223.199997084</ele><time>2010-07-31T05:32:01Z</time></trkpt>
<trkpt lat="45.78757800" lon="4.80870600"><ele>223.0000001256</ele><time>2010-07-31T05:32:03Z</time></trkpt>
<trkpt lat="45.78763400" lon="4.80873300"><ele>224.3000029104</ele><time>2010-07-31T05:32:05Z</time></trkpt>
<trkpt lat="45.78769000" lon="4.80876400"><ele>224.6999968272</ele><time>2010-07-31T05:32:07Z</time></trkpt>
<trkpt lat="45.78775200" lon="4.80878800"><ele>222.6000062088</ele><time>2010-07-31T05:32:09Z</time></trkpt>
<trkpt lat="45.78779600" lon="4.80880900"><ele>222.6000062088</ele><time>2010-07-31T05:32:11Z</time></trkpt>
<trkpt lat="45.78783900" lon="4.80875300"><ele>223.1000062248</ele><time>2010-07-31T05:32:14Z</time></trkpt>
<trkpt lat="45.78785800" lon="4.80868500"><ele>222.6000062088</ele><time>2010-07-31T05:32:16Z</time></trkpt>
<trkpt lat="45.78788500" lon="4.80860400"><ele>223.3999940424</ele><time>2010-07-31T05:32:18Z</time></trkpt>
<trkpt lat="45.78792800" lon="4.80853500"><ele>224.600005968</ele><time>2010-07-31T05:32:20Z</time></trkpt>
<trkpt lat="45.78799200" lon="4.80851600"><ele>225.9999999168</ele><time>2010-07-31T05:32:22Z</time></trkpt>
<trkpt lat="45.78804300" lon="4.80848800"><ele>225.6999968592</ele><time>2010-07-31T05:32:24Z</time></trkpt>
<trkpt lat="45.78809300" lon="4.80841200"><ele>225.6999968592</ele><time>2010-07-31T05:32:27Z</time></trkpt>
<trkpt lat="45.78813600" lon="4.80835300"><ele>226.1999968752</ele><time>2010-07-31T05:32:29Z</time></trkpt>
<trkpt lat="45.78817000" lon="4.80829200"><ele>226.3000029744</ele><time>2010-07-31T05:32:31Z</time></trkpt>
<trkpt lat="45.78820400" lon="4.80823800"><ele>226.3999938336</ele><time>2010-07-31T05:32:33Z</time></trkpt>
<trkpt lat="45.78824500" lon="4.80818300"><ele>226.4999999328</ele><time>2010-07-31T05:32:35Z</time></trkpt>
<trkpt lat="45.78828600" lon="4.80811500"><ele>226.3999938336</ele><time>2010-07-31T05:32:37Z</time></trkpt>
<trkpt lat="45.78831500" lon="4.80802400"><ele>226.9999999488</ele><time>2010-07-31T05:32:39Z</time></trkpt>
<trkpt lat="45.78835200" lon="4.80795600"><ele>226.600006032</ele><time>2010-07-31T05:32:41Z</time></trkpt>
<trkpt lat="45.78841300" lon="4.80790600"><ele>227.1999969072</ele><time>2010-07-31T05:32:43Z</time></trkpt>
<trkpt lat="45.78845700" lon="4.80782700"><ele>227.8999938816</ele><time>2010-07-31T05:32:45Z</time></trkpt>
<trkpt lat="45.78849400" lon="4.80773800"><ele>227.6999969232</ele><time>2010-07-31T05:32:47Z</time></trkpt>
<trkpt lat="45.78853000" lon="4.80764700"><ele>227.600006064</ele><time>2010-07-31T05:32:49Z</time></trkpt>
<trkpt lat="45.78856200" lon="4.80755900"><ele>227.6999969232</ele><time>2010-07-31T05:32:51Z</time></trkpt>
<trkpt lat="45.78859500" lon="4.80747400"><ele>228.3000030384</ele><time>2010-07-31T05:32:53Z</time></trkpt>
<trkpt lat="45.78863300" lon="4.80739400"><ele>228.600006096</ele><time>2010-07-31T05:32:55Z</time></trkpt>
<trkpt lat="45.78866700" lon="4.80731400"><ele>228.6999969552</ele><time>2010-07-31T05:32:57Z</time></trkpt>
<trkpt lat="45.78871100" lon="4.80725000"><ele>228.8000030544</ele><time>2010-07-31T05:32:59Z</time></trkpt>
<trkpt lat="45.78876800" lon="4.80720700"><ele>228.8999939136</ele><time>2010-07-31T05:33:01Z</time></trkpt>
<trkpt lat="45.78883200" lon="4.80719700"><ele>228.6999969552</ele><time>2010-07-31T05:33:03Z</time></trkpt>
<trkpt lat="45.78890000" lon="4.80715100"><ele>228.4999999968</ele><time>2010-07-31T05:33:05Z</time></trkpt>
<trkpt lat="45.78896700" lon="4.80708100"><ele>228.10000608</ele><time>2010-07-31T05:33:07Z</time></trkpt>
<trkpt lat="45.78903500" lon="4.80702100"><ele>228.10000608</ele><time>2010-07-31T05:33:09Z</time></trkpt>
<trkpt lat="45.78910000" lon="4.80697300"><ele>228.1999969392</ele><time>2010-07-31T05:33:11Z</time></trkpt>
<trkpt lat="45.78916700" lon="4.80689400"><ele>228.10000608</ele><time>2010-07-31T05:33:13Z</time></trkpt>
<trkpt lat="45.78922300" lon="4.80681300"><ele>227.9999999808</ele><time>2010-07-31T05:33:15Z</time></trkpt>
<trkpt lat="45.78927200" lon="4.80673400"><ele>228.3999938976</ele><time>2010-07-31T05:33:17Z</time></trkpt>
<trkpt lat="45.78932700" lon="4.80664500"><ele>228.8999939136</ele><time>2010-07-31T05:33:19Z</time></trkpt>
<trkpt lat="45.78936500" lon="4.80659800"><ele>229.100006112</ele><time>2010-07-31T05:33:20Z</time></trkpt>
<trkpt lat="45.78941100" lon="4.80653300"><ele>229.1999969712</ele><time>2010-07-31T05:33:22Z</time></trkpt>
<trkpt lat="45.78944300" lon="4.80648400"><ele>229.3999939296</ele><time>2010-07-31T05:33:23Z</time></trkpt>
<trkpt lat="45.78949300" lon="4.80639200"><ele>230.60000616</ele><time>2010-07-31T05:33:25Z</time></trkpt>
<trkpt lat="45.78952200" lon="4.80632700"><ele>230.8000031184</ele><time>2010-07-31T05:33:26Z</time></trkpt>
<trkpt lat="45.78955700" lon="4.80627700"><ele>229.8000030864</ele><time>2010-07-31T05:33:27Z</time></trkpt>
<trkpt lat="45.78957500" lon="4.80621600"><ele>229.1999969712</ele><time>2010-07-31T05:33:28Z</time></trkpt>
<trkpt lat="45.78960000" lon="4.80615700"><ele>229.3999939296</ele><time>2010-07-31T05:33:29Z</time></trkpt>
<trkpt lat="45.78964000" lon="4.80605700"><ele>229.3999939296</ele><time>2010-07-31T05:33:31Z</time></trkpt>
<trkpt lat="45.78967600" lon="4.80595200"><ele>229.8000030864</ele><time>2010-07-31T05:33:33Z</time></trkpt>
<trkpt lat="45.78971700" lon="4.80584400"><ele>230.3999939616</ele><time>2010-07-31T05:33:35Z</time></trkpt>
<trkpt lat="45.78973900" lon="4.80573900"><ele>230.60000616</ele><time>2010-07-31T05:33:37Z</time></trkpt>
<trkpt lat="45.78976000" lon="4.80567600"><ele>231.0000000768</ele><time>2010-07-31T05:33:38Z</time></trkpt>
<trkpt lat="45.78978000" lon="4.80556600"><ele>232.3000031664</ele><time>2010-07-31T05:33:40Z</time></trkpt>
<trkpt lat="45.78980700" lon="4.80550400"><ele>232.8000031824</ele><time>2010-07-31T05:33:41Z</time></trkpt>
<trkpt lat="45.78982400" lon="4.80543000"><ele>232.3999940256</ele><time>2010-07-31T05:33:42Z</time></trkpt>
<trkpt lat="45.78986900" lon="4.80533300"><ele>232.3000031664</ele><time>2010-07-31T05:33:44Z</time></trkpt>
<trkpt lat="45.78992300" lon="4.80525800"><ele>232.0000001088</ele><time>2010-07-31T05:33:46Z</time></trkpt>
<trkpt lat="45.78997800" lon="4.80516600"><ele>231.8000031504</ele><time>2010-07-31T05:33:48Z</time></trkpt>
<trkpt lat="45.79002500" lon="4.80509100"><ele>232.0000001088</ele><time>2010-07-31T05:33:50Z</time></trkpt>
<trkpt lat="45.79004600" lon="4.80499100"><ele>232.5000001248</ele><time>2010-07-31T05:33:52Z</time></trkpt>
<trkpt lat="45.79008200" lon="4.80491700"><ele>233.0000001408</ele><time>2010-07-31T05:33:54Z</time></trkpt>
<trkpt lat="45.79014300" lon="4.80482600"><ele>233.1999970992</ele><time>2010-07-31T05:33:56Z</time></trkpt>
<trkpt lat="45.79020700" lon="4.80476500"><ele>233.3000031984</ele><time>2010-07-31T05:33:58Z</time></trkpt>
<trkpt lat="45.79026600" lon="4.80468500"><ele>233.8999937688</ele><time>2010-07-31T05:34:00Z</time></trkpt>
<trkpt lat="45.79033200" lon="4.80460000"><ele>233.999999868</ele><time>2010-07-31T05:34:02Z</time></trkpt>
<trkpt lat="45.79039700" lon="4.80450600"><ele>233.499999852</ele><time>2010-07-31T05:34:04Z</time></trkpt>
<trkpt lat="45.79043700" lon="4.80446400"><ele>234.6999968424</ele><time>2010-07-31T05:34:05Z</time></trkpt>
<trkpt lat="45.79046600" lon="4.80441400"><ele>234.6999968424</ele><time>2010-07-31T05:34:07Z</time></trkpt>
<trkpt lat="45.79053500" lon="4.80434400"><ele>234.9999999</ele><time>2010-07-31T05:34:09Z</time></trkpt>
<trkpt lat="45.79057700" lon="4.80430400"><ele>235.1999968584</ele><time>2010-07-31T05:34:10Z</time></trkpt>
<trkpt lat="45.79062400" lon="4.80427000"><ele>235.8000029736</ele><time>2010-07-31T05:34:11Z</time></trkpt>
<trkpt lat="45.79066200" lon="4.80423500"><ele>236.3000029896</ele><time>2010-07-31T05:34:12Z</time></trkpt>
<trkpt lat="45.79073400" lon="4.80416800"><ele>236.3000029896</ele><time>2010-07-31T05:34:14Z</time></trkpt>
<trkpt lat="45.79077300" lon="4.80412800"><ele>235.8999938328</ele><time>2010-07-31T05:34:15Z</time></trkpt>
<trkpt lat="45.79081700" lon="4.80408900"><ele>235.499999916</ele><time>2010-07-31T05:34:16Z</time></trkpt>
<trkpt lat="45.79085500" lon="4.80405000"><ele>235.999999932</ele><time>2010-07-31T05:34:17Z</time></trkpt>
<trkpt lat="45.79091800" lon="4.80398300"><ele>237.1999969224</ele><time>2010-07-31T05:34:19Z</time></trkpt>
<trkpt lat="45.79098200" lon="4.80391000"><ele>238.3000030536</ele><time>2010-07-31T05:34:21Z</time></trkpt>
<trkpt lat="45.79103400" lon="4.80383600"><ele>238.8000030696</ele><time>2010-07-31T05:34:23Z</time></trkpt>
<trkpt lat="45.79110500" lon="4.80372700"><ele>238.1999969544</ele><time>2010-07-31T05:34:26Z</time></trkpt>
<trkpt lat="45.79114600" lon="4.80363900"><ele>238.6000061112</ele><time>2010-07-31T05:34:28Z</time></trkpt>
<trkpt lat="45.79118600" lon="4.80355100"><ele>238.6000061112</ele><time>2010-07-31T05:34:30Z</time></trkpt>
<trkpt lat="45.79121900" lon="4.80347200"><ele>239.000000028</ele><time>2010-07-31T05:34:32Z</time></trkpt>
<trkpt lat="45.79125800" lon="4.80338700"><ele>240.00000006</ele><time>2010-07-31T05:34:34Z</time></trkpt>
<trkpt lat="45.79128500" lon="4.80330300"><ele>239.500000044</ele><time>2010-07-31T05:34:36Z</time></trkpt>
<trkpt lat="45.79133200" lon="4.80321100"><ele>241.1000061912</ele><time>2010-07-31T05:34:38Z</time></trkpt>
<trkpt lat="45.79137500" lon="4.80312300"><ele>241.500000108</ele><time>2010-07-31T05:34:40Z</time></trkpt>
<trkpt lat="45.79142700" lon="4.80304400"><ele>241.8000031656</ele><time>2010-07-31T05:34:42Z</time></trkpt>
<trkpt lat="45.79148300" lon="4.80297000"><ele>241.8000031656</ele><time>2010-07-31T05:34:44Z</time></trkpt>
<trkpt lat="45.79153200" lon="4.80291400"><ele>248.6000061264</ele><time>2010-07-31T05:34:46Z</time></trkpt>
<trkpt lat="45.79157800" lon="4.80288300"><ele>250.399993992</ele><time>2010-07-31T05:34:48Z</time></trkpt>
<trkpt lat="45.79162400" lon="4.80283600"><ele>256.7000121768</ele><time>2010-07-31T05:34:51Z</time></trkpt>
<trkpt lat="45.79166200" lon="4.80278700"><ele>258.0000000264</ele><time>2010-07-31T05:34:53Z</time></trkpt>
<trkpt lat="45.79171200" lon="4.80279800"><ele>255.9999999624</ele><time>2010-07-31T05:34:54Z</time></trkpt>
<trkpt lat="45.79178700" lon="4.80277400"><ele>251.3000031648</ele><time>2010-07-31T05:34:56Z</time></trkpt>
<trkpt lat="45.79184100" lon="4.80276700"><ele>249.6000061584</ele><time>2010-07-31T05:34:58Z</time></trkpt>
<trkpt lat="45.79188900" lon="4.80276100"><ele>249.1000061424</ele><time>2010-07-31T05:35:00Z</time></trkpt>
<trkpt lat="45.79195200" lon="4.80273800"><ele>248.399993928</ele><time>2010-07-31T05:35:03Z</time></trkpt>
<trkpt lat="45.79201400" lon="4.80271600"><ele>247.4999999952</ele><time>2010-07-31T05:35:06Z</time></trkpt>
<trkpt lat="45.79206500" lon="4.80271800"><ele>246.6000060624</ele><time>2010-07-31T05:35:08Z</time></trkpt>
<trkpt lat="45.79212700" lon="4.80269500"><ele>246.3000030048</ele><time>2010-07-31T05:35:11Z</time></trkpt>
<trkpt lat="45.79218100" lon="4.80265500"><ele>246.89999388</ele><time>2010-07-31T05:35:14Z</time></trkpt>
<trkpt lat="45.79222700" lon="4.80263600"><ele>246.4999999632</ele><time>2010-07-31T05:35:16Z</time></trkpt>
<trkpt lat="45.79227100" lon="4.80261400"><ele>246.3000030048</ele><time>2010-07-31T05:35:18Z</time></trkpt>
<trkpt lat="45.79232500" lon="4.80255900"><ele>246.8000030208</ele><time>2010-07-31T05:35:21Z</time></trkpt>
<trkpt lat="45.79238200" lon="4.80250900"><ele>246.89999388</ele><time>2010-07-31T05:35:24Z</time></trkpt>
<trkpt lat="45.79243000" lon="4.80245000"><ele>247.1000060784</ele><time>2010-07-31T05:35:27Z</time></trkpt>
<trkpt lat="45.79246900" lon="4.80238400"><ele>247.1999969376</ele><time>2010-07-31T05:35:30Z</time></trkpt>
<trkpt lat="45.79249200" lon="4.80230800"><ele>247.3000030368</ele><time>2010-07-31T05:35:33Z</time></trkpt>
<trkpt lat="45.79249600" lon="4.80222000"><ele>247.399993896</ele><time>2010-07-31T05:35:36Z</time></trkpt>
<trkpt lat="45.79249300" lon="4.80212200"><ele>247.6999969536</ele><time>2010-07-31T05:35:39Z</time></trkpt>
<trkpt lat="45.79248700" lon="4.80203100"><ele>248.3000030688</ele><time>2010-07-31T05:35:42Z</time></trkpt>
<trkpt lat="45.79247400" lon="4.80194100"><ele>249.0000000432</ele><time>2010-07-31T05:35:45Z</time></trkpt>
<trkpt lat="45.79245700" lon="4.80185700"><ele>249.6000061584</ele><time>2010-07-31T05:35:48Z</time></trkpt>
<trkpt lat="45.79244900" lon="4.80177500"><ele>250.1999970336</ele><time>2010-07-31T05:35:51Z</time></trkpt>
<trkpt lat="45.79245800" lon="4.80169900"><ele>251.0000001072</ele><time>2010-07-31T05:35:54Z</time></trkpt>
<trkpt lat="45.79247000" lon="4.80161900"><ele>251.399994024</ele><time>2010-07-31T05:35:57Z</time></trkpt>
<trkpt lat="45.79248200" lon="4.80154300"><ele>252.4999998504</ele><time>2010-07-31T05:36:00Z</time></trkpt>
<trkpt lat="45.79247300" lon="4.80145600"><ele>252.6999968088</ele><time>2010-07-31T05:36:03Z</time></trkpt>
<trkpt lat="45.79247600" lon="4.80137800"><ele>253.1999968248</ele><time>2010-07-31T05:36:06Z</time></trkpt>
<trkpt lat="45.79247900" lon="4.80129300"><ele>253.1999968248</ele><time>2010-07-31T05:36:09Z</time></trkpt>
<trkpt lat="45.79245600" lon="4.80123100"><ele>255.300002988</ele><time>2010-07-31T05:36:12Z</time></trkpt>
<trkpt lat="45.79245700" lon="4.80114800"><ele>256.7000121768</ele><time>2010-07-31T05:36:15Z</time></trkpt>
<trkpt lat="45.79245500" lon="4.80108200"><ele>258.0000000264</ele><time>2010-07-31T05:36:17Z</time></trkpt>
<trkpt lat="45.79245300" lon="4.80100100"><ele>259.0000000584</ele><time>2010-07-31T05:36:20Z</time></trkpt>
<trkpt lat="45.79245000" lon="4.80092600"><ele>258.79998786</ele><time>2010-07-31T05:36:23Z</time></trkpt>
<trkpt lat="45.79245600" lon="4.80085100"><ele>259.5000000744</ele><time>2010-07-31T05:36:26Z</time></trkpt>
<trkpt lat="45.79245300" lon="4.80076400"><ele>260.6000062056</ele><time>2010-07-31T05:36:29Z</time></trkpt>
<trkpt lat="45.79246400" lon="4.80067600"><ele>261.1000062216</ele><time>2010-07-31T05:36:32Z</time></trkpt>
<trkpt lat="45.79246500" lon="4.80059700"><ele>261.8999937504</ele><time>2010-07-31T05:36:35Z</time></trkpt>
<trkpt lat="45.79247400" lon="4.80052000"><ele>262.1000062536</ele><time>2010-07-31T05:36:38Z</time></trkpt>
<trkpt lat="45.79249300" lon="4.80042200"><ele>261.9999998496</ele><time>2010-07-31T05:36:41Z</time></trkpt>
<trkpt lat="45.79250900" lon="4.80035900"><ele>262.6000059648</ele><time>2010-07-31T05:36:43Z</time></trkpt>
<trkpt lat="45.79253100" lon="4.80029200"><ele>262.4999998656</ele><time>2010-07-31T05:36:45Z</time></trkpt>
<trkpt lat="45.79255500" lon="4.80021900"><ele>262.2000123528</ele><time>2010-07-31T05:36:47Z</time></trkpt>
<trkpt lat="45.79258300" lon="4.80015700"><ele>262.6000059648</ele><time>2010-07-31T05:36:49Z</time></trkpt>
<trkpt lat="45.79262200" lon="4.80009600"><ele>262.4999998656</ele><time>2010-07-31T05:36:51Z</time></trkpt>
<trkpt lat="45.79266300" lon="4.80004500"><ele>262.6000059648</ele><time>2010-07-31T05:36:53Z</time></trkpt>
<trkpt lat="45.79272000" lon="4.80000300"><ele>262.6000059648</ele><time>2010-07-31T05:36:55Z</time></trkpt>
<trkpt lat="45.79277800" lon="4.79996900"><ele>262.2000123528</ele><time>2010-07-31T05:36:57Z</time></trkpt>
<trkpt lat="45.79283100" lon="4.79993800"><ele>261.7000123368</ele><time>2010-07-31T05:36:59Z</time></trkpt>
<trkpt lat="45.79288200" lon="4.79991000"><ele>261.7000123368</ele><time>2010-07-31T05:37:01Z</time></trkpt>
<trkpt lat="45.79293200" lon="4.79988300"><ele>261.9999998496</ele><time>2010-07-31T05:37:03Z</time></trkpt>
<trkpt lat="45.79298300" lon="4.79985800"><ele>262.1000062536</ele><time>2010-07-31T05:37:05Z</time></trkpt>
<trkpt lat="45.79302600" lon="4.79983200"><ele>262.3999937664</ele><time>2010-07-31T05:37:07Z</time></trkpt>
<trkpt lat="45.79308500" lon="4.79980100"><ele>262.4999998656</ele><time>2010-07-31T05:37:10Z</time></trkpt>
<trkpt lat="45.79313700" lon="4.79977500"><ele>262.700012064</ele><time>2010-07-31T05:37:13Z</time></trkpt>
<trkpt lat="45.79318300" lon="4.79974100"><ele>263.8999938144</ele><time>2010-07-31T05:37:16Z</time></trkpt>
<trkpt lat="45.79322800" lon="4.79970600"><ele>265.2999877632</ele><time>2010-07-31T05:37:19Z</time></trkpt>
<trkpt lat="45.79327800" lon="4.79968100"><ele>265.8999938784</ele><time>2010-07-31T05:37:22Z</time></trkpt>
<trkpt lat="45.79332100" lon="4.79963700"><ele>266.4999999936</ele><time>2010-07-31T05:37:25Z</time></trkpt>
<trkpt lat="45.79336600" lon="4.79959800"><ele>266.6000060928</ele><time>2010-07-31T05:37:28Z</time></trkpt>
<trkpt lat="45.79341100" lon="4.79955000"><ele>268.0000000416</ele><time>2010-07-31T05:37:31Z</time></trkpt>
<trkpt lat="45.79345400" lon="4.79950200"><ele>268.7999878752</ele><time>2010-07-31T05:37:34Z</time></trkpt>
<trkpt lat="45.79350000" lon="4.79945600"><ele>269.8999940064</ele><time>2010-07-31T05:37:37Z</time></trkpt>
<trkpt lat="45.79355200" lon="4.79943400"><ele>270.70001232</ele><time>2010-07-31T05:37:40Z</time></trkpt>
<trkpt lat="45.79360400" lon="4.79940600"><ele>272.3999937816</ele><time>2010-07-31T05:37:43Z</time></trkpt>
<trkpt lat="45.79365000" lon="4.79939700"><ele>271.700012352</ele><time>2010-07-31T05:37:45Z</time></trkpt>
<trkpt lat="45.79370600" lon="4.79937800"><ele>272.3999937816</ele><time>2010-07-31T05:37:48Z</time></trkpt>
<trkpt lat="45.79375900" lon="4.79936600"><ele>272.7000120792</ele><time>2010-07-31T05:37:51Z</time></trkpt>
<trkpt lat="45.79382500" lon="4.79935800"><ele>273.600006012</ele><time>2010-07-31T05:37:54Z</time></trkpt>
<trkpt lat="45.79388800" lon="4.79934600"><ele>273.3999938136</ele><time>2010-07-31T05:37:57Z</time></trkpt>
<trkpt lat="45.79395300" lon="4.79936100"><ele>273.2000120952</ele><time>2010-07-31T05:38:00Z</time></trkpt>
<trkpt lat="45.79400900" lon="4.79938100"><ele>272.4999998808</ele><time>2010-07-31T05:38:03Z</time></trkpt>
<trkpt lat="45.79406700" lon="4.79940300"><ele>272.3999937816</ele><time>2010-07-31T05:38:06Z</time></trkpt>
<trkpt lat="45.79412100" lon="4.79942400"><ele>271.9999998648</ele><time>2010-07-31T05:38:09Z</time></trkpt>
<trkpt lat="45.79417900" lon="4.79943800"><ele>271.9999998648</ele><time>2010-07-31T05:38:12Z</time></trkpt>
<trkpt lat="45.79423300" lon="4.79945000"><ele>272.2000120632</ele><time>2010-07-31T05:38:15Z</time></trkpt>
<trkpt lat="45.79429000" lon="4.79944800"><ele>271.8999937656</ele><time>2010-07-31T05:38:18Z</time></trkpt>
<trkpt lat="45.79434400" lon="4.79943400"><ele>272.2000120632</ele><time>2010-07-31T05:38:21Z</time></trkpt>
<trkpt lat="45.79439600" lon="4.79942800"><ele>272.4999998808</ele><time>2010-07-31T05:38:24Z</time></trkpt>
<trkpt lat="45.79444800" lon="4.79941400"><ele>272.9999998968</ele><time>2010-07-31T05:38:27Z</time></trkpt>
<trkpt lat="45.79449600" lon="4.79939000"><ele>273.2999877144</ele><time>2010-07-31T05:38:30Z</time></trkpt>
<trkpt lat="45.79454100" lon="4.79936800"><ele>273.7000121112</ele><time>2010-07-31T05:38:33Z</time></trkpt>
<trkpt lat="45.79459700" lon="4.79933700"><ele>273.7000121112</ele><time>2010-07-31T05:38:37Z</time></trkpt>
<trkpt lat="45.79464000" lon="4.79930400"><ele>273.8999938296</ele><time>2010-07-31T05:38:40Z</time></trkpt>
<trkpt lat="45.79468000" lon="4.79926600"><ele>274.2000121272</ele><time>2010-07-31T05:38:43Z</time></trkpt>
<trkpt lat="45.79472500" lon="4.79924600"><ele>274.2000121272</ele><time>2010-07-31T05:38:46Z</time></trkpt>
<trkpt lat="45.79477200" lon="4.79922000"><ele>274.9999999608</ele><time>2010-07-31T05:38:49Z</time></trkpt>
<trkpt lat="45.79481700" lon="4.79918900"><ele>276.2000121912</ele><time>2010-07-31T05:38:52Z</time></trkpt>
<trkpt lat="45.79486700" lon="4.79916500"><ele>277.0000000248</ele><time>2010-07-31T05:38:55Z</time></trkpt>
<trkpt lat="45.79491300" lon="4.79915000"><ele>277.3999939416</ele><time>2010-07-31T05:38:58Z</time></trkpt>
<trkpt lat="45.79496800" lon="4.79913100"><ele>277.7000122392</ele><time>2010-07-31T05:39:01Z</time></trkpt>
<trkpt lat="45.79501500" lon="4.79911300"><ele>277.7999878584</ele><time>2010-07-31T05:39:03Z</time></trkpt>
<trkpt lat="45.79506800" lon="4.79910100"><ele>277.7000122392</ele><time>2010-07-31T05:39:05Z</time></trkpt>
<trkpt lat="45.79511800" lon="4.79909700"><ele>278.0000000568</ele><time>2010-07-31T05:39:07Z</time></trkpt>
<trkpt lat="45.79516700" lon="4.79909500"><ele>278.100006156</ele><time>2010-07-31T05:39:09Z</time></trkpt>
<trkpt lat="45.79522700" lon="4.79909200"><ele>279.7000123032</ele><time>2010-07-31T05:39:12Z</time></trkpt>
<trkpt lat="45.79527800" lon="4.79909300"><ele>280.2999879384</ele><time>2010-07-31T05:39:14Z</time></trkpt>
<trkpt lat="45.79533200" lon="4.79910200"><ele>280.5000001368</ele><time>2010-07-31T05:39:16Z</time></trkpt>
<trkpt lat="45.79538800" lon="4.79909700"><ele>280.7999876496</ele><time>2010-07-31T05:39:18Z</time></trkpt>
<trkpt lat="45.79544600" lon="4.79909400"><ele>280.7999876496</ele><time>2010-07-31T05:39:20Z</time></trkpt>
<trkpt lat="45.79550400" lon="4.79910200"><ele>281.100006252</ele><time>2010-07-31T05:39:22Z</time></trkpt>
<trkpt lat="45.79556500" lon="4.79911300"><ele>280.8999937488</ele><time>2010-07-31T05:39:24Z</time></trkpt>
<trkpt lat="45.79562300" lon="4.79912400"><ele>280.600006236</ele><time>2010-07-31T05:39:26Z</time></trkpt>
<trkpt lat="45.79568000" lon="4.79913200"><ele>280.5000001368</ele><time>2010-07-31T05:39:28Z</time></trkpt>
<trkpt lat="45.79573100" lon="4.79914300"><ele>281.100006252</ele><time>2010-07-31T05:39:30Z</time></trkpt>
<trkpt lat="45.79579100" lon="4.79914700"><ele>281.2000123512</ele><time>2010-07-31T05:39:32Z</time></trkpt>
<trkpt lat="45.79585800" lon="4.79915100"><ele>280.999999848</ele><time>2010-07-31T05:39:34Z</time></trkpt>
<trkpt lat="45.79593000" lon="4.79915500"><ele>280.7999876496</ele><time>2010-07-31T05:39:36Z</time></trkpt>
<trkpt lat="45.79597500" lon="4.79916500"><ele>280.7999876496</ele><time>2010-07-31T05:39:37Z</time></trkpt>
<trkpt lat="45.79606100" lon="4.79915800"><ele>281.7999876816</ele><time>2010-07-31T05:39:39Z</time></trkpt>
<trkpt lat="45.79614900" lon="4.79914000"><ele>282.6000059952</ele><time>2010-07-31T05:39:41Z</time></trkpt>
<trkpt lat="45.79619500" lon="4.79912400"><ele>283.499999928</ele><time>2010-07-31T05:39:42Z</time></trkpt>
<trkpt lat="45.79624200" lon="4.79910700"><ele>283.499999928</ele><time>2010-07-31T05:39:43Z</time></trkpt>
<trkpt lat="45.79628800" lon="4.79909200"><ele>283.999999944</ele><time>2010-07-31T05:39:44Z</time></trkpt>
<trkpt lat="45.79633500" lon="4.79907500"><ele>284.49999996</ele><time>2010-07-31T05:39:45Z</time></trkpt>
<trkpt lat="45.79638000" lon="4.79906100"><ele>284.1000060432</ele><time>2010-07-31T05:39:46Z</time></trkpt>
<trkpt lat="45.79643400" lon="4.79904500"><ele>283.8999938448</ele><time>2010-07-31T05:39:47Z</time></trkpt>
<trkpt lat="45.79648200" lon="4.79902500"><ele>283.7999877456</ele><time>2010-07-31T05:39:48Z</time></trkpt>
<trkpt lat="45.79652600" lon="4.79900800"><ele>283.7999877456</ele><time>2010-07-31T05:39:49Z</time></trkpt>
<trkpt lat="45.79657800" lon="4.79898500"><ele>283.6000060272</ele><time>2010-07-31T05:39:50Z</time></trkpt>
<trkpt lat="45.79662500" lon="4.79896700"><ele>283.7000121264</ele><time>2010-07-31T05:39:51Z</time></trkpt>
<trkpt lat="45.79667100" lon="4.79894100"><ele>283.6000060272</ele><time>2010-07-31T05:39:52Z</time></trkpt>
<trkpt lat="45.79671900" lon="4.79892000"><ele>283.2999877296</ele><time>2010-07-31T05:39:53Z</time></trkpt>
<trkpt lat="45.79676200" lon="4.79889800"><ele>283.2999877296</ele><time>2010-07-31T05:39:54Z</time></trkpt>
<trkpt lat="45.79680500" lon="4.79886500"><ele>284.1000060432</ele><time>2010-07-31T05:39:55Z</time></trkpt>
<trkpt lat="45.79684900" lon="4.79883700"><ele>284.49999996</ele><time>2010-07-31T05:39:56Z</time></trkpt>
<trkpt lat="45.79689400" lon="4.79881700"><ele>285.1000060752</ele><time>2010-07-31T05:39:57Z</time></trkpt>
<trkpt lat="45.79693900" lon="4.79879200"><ele>285.1000060752</ele><time>2010-07-31T05:39:58Z</time></trkpt>
<trkpt lat="45.79698300" lon="4.79876600"><ele>285.1000060752</ele><time>2010-07-31T05:39:59Z</time></trkpt>
<trkpt lat="45.79703000" lon="4.79874500"><ele>283.7999877456</ele><time>2010-07-31T05:40:00Z</time></trkpt>
<trkpt lat="45.79707300" lon="4.79872200"><ele>283.499999928</ele><time>2010-07-31T05:40:01Z</time></trkpt>
<trkpt lat="45.79711700" lon="4.79869900"><ele>283.499999928</ele><time>2010-07-31T05:40:02Z</time></trkpt>
<trkpt lat="45.79715900" lon="4.79866900"><ele>284.1000060432</ele><time>2010-07-31T05:40:03Z</time></trkpt>
<trkpt lat="45.79720100" lon="4.79864000"><ele>284.49999996</ele><time>2010-07-31T05:40:04Z</time></trkpt>
<trkpt lat="45.79728600" lon="4.79859700"><ele>283.2999877296</ele><time>2010-07-31T05:40:06Z</time></trkpt>
<trkpt lat="45.79736800" lon="4.79856500"><ele>283.2999877296</ele><time>2010-07-31T05:40:08Z</time></trkpt>
<trkpt lat="45.79744000" lon="4.79855200"><ele>283.7999877456</ele><time>2010-07-31T05:40:10Z</time></trkpt>
<trkpt lat="45.79748600" lon="4.79855100"><ele>281.7000120624</ele><time>2010-07-31T05:40:11Z</time></trkpt>
<trkpt lat="45.79756700" lon="4.79854300"><ele>280.10000622</ele><time>2010-07-31T05:40:13Z</time></trkpt>
<trkpt lat="45.79764600" lon="4.79853600"><ele>279.7999879224</ele><time>2010-07-31T05:40:15Z</time></trkpt>
<trkpt lat="45.79772700" lon="4.79853900"><ele>279.5000001048</ele><time>2010-07-31T05:40:17Z</time></trkpt>
<trkpt lat="45.79782100" lon="4.79853400"><ele>279.2999879064</ele><time>2010-07-31T05:40:19Z</time></trkpt>
<trkpt lat="45.79786600" lon="4.79852200"><ele>279.2999879064</ele><time>2010-07-31T05:40:20Z</time></trkpt>
<trkpt lat="45.79795100" lon="4.79851700"><ele>279.2999879064</ele><time>2010-07-31T05:40:22Z</time></trkpt>
<trkpt lat="45.79800000" lon="4.79851900"><ele>279.600006204</ele><time>2010-07-31T05:40:23Z</time></trkpt>
<trkpt lat="45.79808200" lon="4.79850500"><ele>279.7000123032</ele><time>2010-07-31T05:40:25Z</time></trkpt>
<trkpt lat="45.79816800" lon="4.79848700"><ele>280.10000622</ele><time>2010-07-31T05:40:27Z</time></trkpt>
<trkpt lat="45.79824900" lon="4.79849000"><ele>281.8999937808</ele><time>2010-07-31T05:40:29Z</time></trkpt>
<trkpt lat="45.79833400" lon="4.79848200"><ele>283.2000121104</ele><time>2010-07-31T05:40:31Z</time></trkpt>
<trkpt lat="45.79841900" lon="4.79850000"><ele>283.7000121264</ele><time>2010-07-31T05:40:33Z</time></trkpt>
<trkpt lat="45.79849600" lon="4.79853300"><ele>283.8999938448</ele><time>2010-07-31T05:40:35Z</time></trkpt>
<trkpt lat="45.79855300" lon="4.79852800"><ele>284.2999877616</ele><time>2010-07-31T05:40:36Z</time></trkpt>
<trkpt lat="45.79859800" lon="4.79852100"><ele>284.2999877616</ele><time>2010-07-31T05:40:37Z</time></trkpt>
<trkpt lat="45.79867800" lon="4.79851000"><ele>284.3999938608</ele><time>2010-07-31T05:40:39Z</time></trkpt>
<trkpt lat="45.79876700" lon="4.79845200"><ele>285.1000060752</ele><time>2010-07-31T05:40:41Z</time></trkpt>
<trkpt lat="45.79884500" lon="4.79841200"><ele>285.7000121904</ele><time>2010-07-31T05:40:43Z</time></trkpt>
<trkpt lat="45.79892200" lon="4.79837300"><ele>286.1000061072</ele><time>2010-07-31T05:40:45Z</time></trkpt>
<trkpt lat="45.79898900" lon="4.79830200"><ele>289.1000062032</ele><time>2010-07-31T05:40:47Z</time></trkpt>
<trkpt lat="45.79906500" lon="4.79824800"><ele>290.500000152</ele><time>2010-07-31T05:40:49Z</time></trkpt>
<trkpt lat="45.79912600" lon="4.79818800"><ele>290.6000062512</ele><time>2010-07-31T05:40:51Z</time></trkpt>
<trkpt lat="45.79919100" lon="4.79814900"><ele>290.7000123504</ele><time>2010-07-31T05:40:53Z</time></trkpt>
<trkpt lat="45.79926900" lon="4.79810000"><ele>290.6000062512</ele><time>2010-07-31T05:40:55Z</time></trkpt>
<trkpt lat="45.79933900" lon="4.79806100"><ele>290.899993764</ele><time>2010-07-31T05:40:57Z</time></trkpt>
<trkpt lat="45.79941800" lon="4.79804300"><ele>291.899993796</ele><time>2010-07-31T05:40:59Z</time></trkpt>
<trkpt lat="45.79947600" lon="4.79799600"><ele>294.7000121736</ele><time>2010-07-31T05:41:01Z</time></trkpt>
<trkpt lat="45.79952000" lon="4.79797500"><ele>294.9999999912</ele><time>2010-07-31T05:41:02Z</time></trkpt>
<trkpt lat="45.79959200" lon="4.79795100"><ele>295.5000000072</ele><time>2010-07-31T05:41:04Z</time></trkpt>
<trkpt lat="45.79966000" lon="4.79794400"><ele>295.399993908</ele><time>2010-07-31T05:41:06Z</time></trkpt>
<trkpt lat="45.79972900" lon="4.79792600"><ele>294.9999999912</ele><time>2010-07-31T05:41:08Z</time></trkpt>
<trkpt lat="45.79978900" lon="4.79793300"><ele>294.6000060744</ele><time>2010-07-31T05:41:10Z</time></trkpt>
<trkpt lat="45.79985000" lon="4.79793600"><ele>293.9999999592</ele><time>2010-07-31T05:41:12Z</time></trkpt>
<trkpt lat="45.79991000" lon="4.79796500"><ele>293.1000060264</ele><time>2010-07-31T05:41:14Z</time></trkpt>
<trkpt lat="45.79995300" lon="4.79798200"><ele>292.9999999272</ele><time>2010-07-31T05:41:15Z</time></trkpt>
<trkpt lat="45.80000700" lon="4.79798500"><ele>293.399993844</ele><time>2010-07-31T05:41:17Z</time></trkpt>
<trkpt lat="45.80007100" lon="4.79797900"><ele>291.7999876968</ele><time>2010-07-31T05:41:19Z</time></trkpt>
<trkpt lat="45.80012000" lon="4.79798600"><ele>291.7999876968</ele><time>2010-07-31T05:41:21Z</time></trkpt>
<trkpt lat="45.80017200" lon="4.79800400"><ele>291.4999998792</ele><time>2010-07-31T05:41:23Z</time></trkpt>
<trkpt lat="45.80021800" lon="4.79800100"><ele>291.6000059784</ele><time>2010-07-31T05:41:25Z</time></trkpt>
<trkpt lat="45.80026900" lon="4.79800800"><ele>290.6000062512</ele><time>2010-07-31T05:41:27Z</time></trkpt>
<trkpt lat="45.80031600" lon="4.79800300"><ele>290.6000062512</ele><time>2010-07-31T05:41:29Z</time></trkpt>
<trkpt lat="45.80038000" lon="4.79799300"><ele>291.7000120776</ele><time>2010-07-31T05:41:32Z</time></trkpt>
<trkpt lat="45.80044200" lon="4.79797700"><ele>293.2000121256</ele><time>2010-07-31T05:41:35Z</time></trkpt>
<trkpt lat="45.80049800" lon="4.79797600"><ele>293.4999999432</ele><time>2010-07-31T05:41:38Z</time></trkpt>
<trkpt lat="45.80054900" lon="4.79799000"><ele>293.4999999432</ele><time>2010-07-31T05:41:40Z</time></trkpt>
<trkpt lat="45.80060900" lon="4.79799200"><ele>294.2000121576</ele><time>2010-07-31T05:41:43Z</time></trkpt>
<trkpt lat="45.80066200" lon="4.79801300"><ele>295.399993908</ele><time>2010-07-31T05:41:46Z</time></trkpt>
<trkpt lat="45.80071600" lon="4.79801200"><ele>296.899993956</ele><time>2010-07-31T05:41:49Z</time></trkpt>
<trkpt lat="45.80076600" lon="4.79801800"><ele>298.2000122856</ele><time>2010-07-31T05:41:52Z</time></trkpt>
<trkpt lat="45.80081600" lon="4.79798400"><ele>301.299987696</ele><time>2010-07-31T05:41:55Z</time></trkpt>
<trkpt lat="45.80087800" lon="4.79796000"><ele>301.2000120768</ele><time>2010-07-31T05:41:58Z</time></trkpt>
<trkpt lat="45.80093500" lon="4.79793500"><ele>301.299987696</ele><time>2010-07-31T05:42:01Z</time></trkpt>
<trkpt lat="45.80099500" lon="4.79792700"><ele>296.2000122216</ele><time>2010-07-31T05:42:03Z</time></trkpt>
<trkpt lat="45.80104300" lon="4.79790600"><ele>296.7000122376</ele><time>2010-07-31T05:42:05Z</time></trkpt>
<trkpt lat="45.80108000" lon="4.79786900"><ele>297.7000122696</ele><time>2010-07-31T05:42:07Z</time></trkpt>
<trkpt lat="45.80112700" lon="4.79783100"><ele>298.6000062024</ele><time>2010-07-31T05:42:09Z</time></trkpt>
<trkpt lat="45.80117000" lon="4.79777800"><ele>298.2999879048</ele><time>2010-07-31T05:42:11Z</time></trkpt>
<trkpt lat="45.80121700" lon="4.79772400"><ele>298.5000001032</ele><time>2010-07-31T05:42:13Z</time></trkpt>
<trkpt lat="45.80126100" lon="4.79766600"><ele>298.6000062024</ele><time>2010-07-31T05:42:15Z</time></trkpt>
<trkpt lat="45.80129300" lon="4.79758000"><ele>300.0000001512</ele><time>2010-07-31T05:42:17Z</time></trkpt>
<trkpt lat="45.80132100" lon="4.79750800"><ele>299.7000123336</ele><time>2010-07-31T05:42:19Z</time></trkpt>
<trkpt lat="45.80135700" lon="4.79744000"><ele>299.1000062184</ele><time>2010-07-31T05:42:21Z</time></trkpt>
<trkpt lat="45.80137800" lon="4.79736400"><ele>299.2999879368</ele><time>2010-07-31T05:42:23Z</time></trkpt>
<trkpt lat="45.80139600" lon="4.79729100"><ele>299.2000123176</ele><time>2010-07-31T05:42:25Z</time></trkpt>
<trkpt lat="45.80142000" lon="4.79721800"><ele>299.6000062344</ele><time>2010-07-31T05:42:27Z</time></trkpt>
<trkpt lat="45.80144100" lon="4.79714900"><ele>299.799987648</ele><time>2010-07-31T05:42:29Z</time></trkpt>
<trkpt lat="45.80146000" lon="4.79707800"><ele>301.799987712</ele><time>2010-07-31T05:42:32Z</time></trkpt>
<trkpt lat="45.80148900" lon="4.79702700"><ele>302.299987728</ele><time>2010-07-31T05:42:35Z</time></trkpt>
<trkpt lat="45.80150900" lon="4.79695200"><ele>301.799987712</ele><time>2010-07-31T05:42:37Z</time></trkpt>
<trkpt lat="45.80152600" lon="4.79683300"><ele>299.8999937472</ele><time>2010-07-31T05:42:39Z</time></trkpt>
<trkpt lat="45.80153300" lon="4.79675400"><ele>299.5000001352</ele><time>2010-07-31T05:42:40Z</time></trkpt>
<trkpt lat="45.80153900" lon="4.79667100"><ele>299.0000001192</ele><time>2010-07-31T05:42:41Z</time></trkpt>
<trkpt lat="45.80154700" lon="4.79658800"><ele>298.399994004</ele><time>2010-07-31T05:42:42Z</time></trkpt>
<trkpt lat="45.80155500" lon="4.79648600"><ele>297.5000000712</ele><time>2010-07-31T05:42:43Z</time></trkpt>
<trkpt lat="45.80156500" lon="4.79638600"><ele>296.39999394</ele><time>2010-07-31T05:42:44Z</time></trkpt>
<trkpt lat="45.80157000" lon="4.79628700"><ele>296.39999394</ele><time>2010-07-31T05:42:45Z</time></trkpt>
<trkpt lat="45.80157600" lon="4.79617800"><ele>296.2999878408</ele><time>2010-07-31T05:42:46Z</time></trkpt>
<trkpt lat="45.80157700" lon="4.79607500"><ele>296.5000000392</ele><time>2010-07-31T05:42:47Z</time></trkpt>
<trkpt lat="45.80158700" lon="4.79597400"><ele>296.0000000232</ele><time>2010-07-31T05:42:48Z</time></trkpt>
<trkpt lat="45.80159700" lon="4.79587600"><ele>295.899993924</ele><time>2010-07-31T05:42:49Z</time></trkpt>
<trkpt lat="45.80160000" lon="4.79577200"><ele>296.2000122216</ele><time>2010-07-31T05:42:50Z</time></trkpt>
<trkpt lat="45.80161000" lon="4.79566100"><ele>296.39999394</ele><time>2010-07-31T05:42:51Z</time></trkpt>
<trkpt lat="45.80162000" lon="4.79556600"><ele>296.2999878408</ele><time>2010-07-31T05:42:52Z</time></trkpt>
<trkpt lat="45.80163500" lon="4.79546700"><ele>296.39999394</ele><time>2010-07-31T05:42:53Z</time></trkpt>
<trkpt lat="45.80164600" lon="4.79537500"><ele>296.39999394</ele><time>2010-07-31T05:42:54Z</time></trkpt>
<trkpt lat="45.80165100" lon="4.79527600"><ele>296.6000061384</ele><time>2010-07-31T05:42:55Z</time></trkpt>
<trkpt lat="45.80165400" lon="4.79518500"><ele>296.6000061384</ele><time>2010-07-31T05:42:56Z</time></trkpt>
<trkpt lat="45.80165700" lon="4.79508700"><ele>296.39999394</ele><time>2010-07-31T05:42:57Z</time></trkpt>
<trkpt lat="45.80166100" lon="4.79501700"><ele>296.1000061224</ele><time>2010-07-31T05:42:58Z</time></trkpt>
<trkpt lat="45.80162200" lon="4.79494500"><ele>296.7000122376</ele><time>2010-07-31T05:43:00Z</time></trkpt>
<trkpt lat="45.80162000" lon="4.79485000"><ele>298.0000000872</ele><time>2010-07-31T05:43:02Z</time></trkpt>
<trkpt lat="45.80162600" lon="4.79478000"><ele>298.6000062024</ele><time>2010-07-31T05:43:03Z</time></trkpt>
<trkpt lat="45.80164500" lon="4.79468100"><ele>299.1000062184</ele><time>2010-07-31T05:43:04Z</time></trkpt>
<trkpt lat="45.80166600" lon="4.79459400"><ele>299.6000062344</ele><time>2010-07-31T05:43:05Z</time></trkpt>
<trkpt lat="45.80167900" lon="4.79453100"><ele>299.7000123336</ele><time>2010-07-31T05:43:06Z</time></trkpt>
<trkpt lat="45.80170600" lon="4.79444000"><ele>300.79998768</ele><time>2010-07-31T05:43:08Z</time></trkpt>
<trkpt lat="45.80175400" lon="4.79436600"><ele>301.4999998944</ele><time>2010-07-31T05:43:09Z</time></trkpt>
<trkpt lat="45.80178400" lon="4.79429400"><ele>301.3999937952</ele><time>2010-07-31T05:43:10Z</time></trkpt>
<trkpt lat="45.80181400" lon="4.79420700"><ele>301.8999938112</ele><time>2010-07-31T05:43:11Z</time></trkpt>
<trkpt lat="45.80183600" lon="4.79415000"><ele>302.8999938432</ele><time>2010-07-31T05:43:12Z</time></trkpt>
<trkpt lat="45.80189100" lon="4.79404500"><ele>304.299987792</ele><time>2010-07-31T05:43:13Z</time></trkpt>
<trkpt lat="45.80192200" lon="4.79396700"><ele>305.5000000224</ele><time>2010-07-31T05:43:14Z</time></trkpt>
<trkpt lat="45.80195100" lon="4.79389600"><ele>305.2000122048</ele><time>2010-07-31T05:43:15Z</time></trkpt>
<trkpt lat="45.80197900" lon="4.79382000"><ele>305.2000122048</ele><time>2010-07-31T05:43:16Z</time></trkpt>
<trkpt lat="45.80201200" lon="4.79373200"><ele>305.299987824</ele><time>2010-07-31T05:43:17Z</time></trkpt>
<trkpt lat="45.80203400" lon="4.79365300"><ele>305.3999939232</ele><time>2010-07-31T05:43:18Z</time></trkpt>
<trkpt lat="45.80207300" lon="4.79353800"><ele>305.299987824</ele><time>2010-07-31T05:43:20Z</time></trkpt>
<trkpt lat="45.80209000" lon="4.79347700"><ele>305.2000122048</ele><time>2010-07-31T05:43:21Z</time></trkpt>
<trkpt lat="45.80210600" lon="4.79336200"><ele>305.0000000064</ele><time>2010-07-31T05:43:23Z</time></trkpt>
<trkpt lat="45.80213000" lon="4.79328400"><ele>303.9999999744</ele><time>2010-07-31T05:43:25Z</time></trkpt>
<trkpt lat="45.80208200" lon="4.79324800"><ele>301.4999998944</ele><time>2010-07-31T05:43:26Z</time></trkpt>
<trkpt lat="45.80207200" lon="4.79317500"><ele>301.6000059936</ele><time>2010-07-31T05:43:28Z</time></trkpt>
<trkpt lat="45.80208100" lon="4.79310400"><ele>301.1000059776</ele><time>2010-07-31T05:43:30Z</time></trkpt>
<trkpt lat="45.80207400" lon="4.79302800"><ele>301.2000120768</ele><time>2010-07-31T05:43:32Z</time></trkpt>
<trkpt lat="45.80206900" lon="4.79293700"><ele>302.2000121088</ele><time>2010-07-31T05:43:35Z</time></trkpt>
<trkpt lat="45.80206400" lon="4.79286800"><ele>303.2000121408</ele><time>2010-07-31T05:43:37Z</time></trkpt>
<trkpt lat="45.80205500" lon="4.79279300"><ele>303.3999938592</ele><time>2010-07-31T05:43:39Z</time></trkpt>
<trkpt lat="45.80204800" lon="4.79272600"><ele>303.9999999744</ele><time>2010-07-31T05:43:41Z</time></trkpt>
<trkpt lat="45.80203100" lon="4.79264500"><ele>306.3999939552</ele><time>2010-07-31T05:43:44Z</time></trkpt>
<trkpt lat="45.80201300" lon="4.79257300"><ele>306.7000122528</ele><time>2010-07-31T05:43:46Z</time></trkpt>
<trkpt lat="45.80199700" lon="4.79248600"><ele>308.799987936</ele><time>2010-07-31T05:43:49Z</time></trkpt>
<trkpt lat="45.80197000" lon="4.79243000"><ele>309.5000001504</ele><time>2010-07-31T05:43:51Z</time></trkpt>
<trkpt lat="45.80192800" lon="4.79238300"><ele>310.700012076</ele><time>2010-07-31T05:43:54Z</time></trkpt>
<trkpt lat="45.80187800" lon="4.79233700"><ele>311.2999877112</ele><time>2010-07-31T05:43:57Z</time></trkpt>
<trkpt lat="45.80182900" lon="4.79230500"><ele>311.8999938264</ele><time>2010-07-31T05:44:00Z</time></trkpt>
<trkpt lat="45.80177200" lon="4.79226700"><ele>312.1000060248</ele><time>2010-07-31T05:44:03Z</time></trkpt>
<trkpt lat="45.80172200" lon="4.79223300"><ele>312.1000060248</ele><time>2010-07-31T05:44:06Z</time></trkpt>
<trkpt lat="45.80167900" lon="4.79220500"><ele>312.3999938424</ele><time>2010-07-31T05:44:09Z</time></trkpt>
<trkpt lat="45.80163700" lon="4.79215100"><ele>312.200012124</ele><time>2010-07-31T05:44:13Z</time></trkpt>
<trkpt lat="45.80164000" lon="4.79207900"><ele>312.4999999416</ele><time>2010-07-31T05:44:16Z</time></trkpt>
<trkpt lat="45.80162500" lon="4.79200800"><ele>312.7999877592</ele><time>2010-07-31T05:44:19Z</time></trkpt>
<trkpt lat="45.80162300" lon="4.79193900"><ele>311.7999877272</ele><time>2010-07-31T05:44:22Z</time></trkpt>
<trkpt lat="45.80162200" lon="4.79186900"><ele>311.9999999256</ele><time>2010-07-31T05:44:25Z</time></trkpt>
<trkpt lat="45.80160200" lon="4.79178700"><ele>313.4999999736</ele><time>2010-07-31T05:44:29Z</time></trkpt>
<trkpt lat="45.80165100" lon="4.79172500"><ele>315.0000000216</ele><time>2010-07-31T05:44:33Z</time></trkpt>
<trkpt lat="45.80168500" lon="4.79167200"><ele>314.5000000056</ele><time>2010-07-31T05:44:36Z</time></trkpt>
<trkpt lat="45.80172600" lon="4.79162400"><ele>316.5000000696</ele><time>2010-07-31T05:44:39Z</time></trkpt>
<trkpt lat="45.80177200" lon="4.79156700"><ele>317.2999879032</ele><time>2010-07-31T05:44:42Z</time></trkpt>
<trkpt lat="45.80181800" lon="4.79151300"><ele>317.7000123</ele><time>2010-07-31T05:44:45Z</time></trkpt>
<trkpt lat="45.80188200" lon="4.79147700"><ele>320.4999998928</ele><time>2010-07-31T05:44:52Z</time></trkpt>
<trkpt lat="45.80190000" lon="4.79139500"><ele>319.200012348</ele><time>2010-07-31T05:44:55Z</time></trkpt>
<trkpt lat="45.80192800" lon="4.79133000"><ele>317.1000061848</ele><time>2010-07-31T05:44:57Z</time></trkpt>
<trkpt lat="45.80197800" lon="4.79128800"><ele>316.700012268</ele><time>2010-07-31T05:44:59Z</time></trkpt>
<trkpt lat="45.80202500" lon="4.79124200"><ele>318.3999940344</ele><time>2010-07-31T05:45:03Z</time></trkpt>
<trkpt lat="45.80208300" lon="4.79118000"><ele>317.7000123</ele><time>2010-07-31T05:45:07Z</time></trkpt>
<trkpt lat="45.80213300" lon="4.79114100"><ele>320.9999999088</ele><time>2010-07-31T05:45:10Z</time></trkpt>
<trkpt lat="45.80216000" lon="4.79107800"><ele>324.60000612</ele><time>2010-07-31T05:45:14Z</time></trkpt>
<trkpt lat="45.80217600" lon="4.79100000"><ele>326.7000122832</ele><time>2010-07-31T05:45:19Z</time></trkpt>
<trkpt lat="45.80219400" lon="4.79092100"><ele>326.7000122832</ele><time>2010-07-31T05:45:23Z</time></trkpt>
<trkpt lat="45.80217800" lon="4.79085300"><ele>327.8999940336</ele><time>2010-07-31T05:45:27Z</time></trkpt>
<trkpt lat="45.80218800" lon="4.79077900"><ele>328.2999876456</ele><time>2010-07-31T05:45:32Z</time></trkpt>
<trkpt lat="45.80218800" lon="4.79070900"><ele>329.6000059752</ele><time>2010-07-31T05:45:36Z</time></trkpt>
<trkpt lat="45.80219600" lon="4.79062800"><ele>332.8999938888</ele><time>2010-07-31T05:45:42Z</time></trkpt>
<trkpt lat="45.80220300" lon="4.79055600"><ele>331.6000060392</ele><time>2010-07-31T05:45:45Z</time></trkpt>
<trkpt lat="45.80221600" lon="4.79048600"><ele>329.999999892</ele><time>2010-07-31T05:45:49Z</time></trkpt>
<trkpt lat="45.80218800" lon="4.79042400"><ele>330.2999877096</ele><time>2010-07-31T05:45:52Z</time></trkpt>
<trkpt lat="45.80216500" lon="4.79035900"><ele>329.999999892</ele><time>2010-07-31T05:45:56Z</time></trkpt>
<trkpt lat="45.80215500" lon="4.79028100"><ele>330.2000120904</ele><time>2010-07-31T05:45:59Z</time></trkpt>
<trkpt lat="45.80213300" lon="4.79020800"><ele>331.7999877576</ele><time>2010-07-31T05:46:04Z</time></trkpt>
<trkpt lat="45.80211700" lon="4.79014000"><ele>331.2000121224</ele><time>2010-07-31T05:46:08Z</time></trkpt>
<trkpt lat="45.80211800" lon="4.79005200"><ele>332.7999877896</ele><time>2010-07-31T05:46:11Z</time></trkpt>
<trkpt lat="45.80211000" lon="4.78996700"><ele>333.500000004</ele><time>2010-07-31T05:46:14Z</time></trkpt>
<trkpt lat="45.80211300" lon="4.78989700"><ele>334.7000122344</ele><time>2010-07-31T05:46:17Z</time></trkpt>
<trkpt lat="45.80211400" lon="4.78982900"><ele>335.500000068</ele><time>2010-07-31T05:46:20Z</time></trkpt>
<trkpt lat="45.80210100" lon="4.78976100"><ele>336.000000084</ele><time>2010-07-31T05:46:23Z</time></trkpt>
<trkpt lat="45.80210600" lon="4.78969200"><ele>335.2999878696</ele><time>2010-07-31T05:46:26Z</time></trkpt>
<trkpt lat="45.80210000" lon="4.78961500"><ele>334.7999878536</ele><time>2010-07-31T05:46:29Z</time></trkpt>
<trkpt lat="45.80208700" lon="4.78954800"><ele>335.2000122504</ele><time>2010-07-31T05:46:32Z</time></trkpt>
<trkpt lat="45.80206800" lon="4.78946900"><ele>335.500000068</ele><time>2010-07-31T05:46:36Z</time></trkpt>
<trkpt lat="45.80204900" lon="4.78938000"><ele>335.7999878856</ele><time>2010-07-31T05:46:40Z</time></trkpt>
<trkpt lat="45.80202900" lon="4.78928600"><ele>334.2999878376</ele><time>2010-07-31T05:46:42Z</time></trkpt>
<trkpt lat="45.80200100" lon="4.78918500"><ele>333.7000122024</ele><time>2010-07-31T05:46:44Z</time></trkpt>
<trkpt lat="45.80198100" lon="4.78911400"><ele>332.7999877896</ele><time>2010-07-31T05:46:45Z</time></trkpt>
<trkpt lat="45.80195600" lon="4.78904100"><ele>332.7000121704</ele><time>2010-07-31T05:46:46Z</time></trkpt>
<trkpt lat="45.80193400" lon="4.78896900"><ele>332.1000060552</ele><time>2010-07-31T05:46:47Z</time></trkpt>
<trkpt lat="45.80189900" lon="4.78890100"><ele>331.2000121224</ele><time>2010-07-31T05:46:48Z</time></trkpt>
<trkpt lat="45.80187500" lon="4.78882000"><ele>330.8999938248</ele><time>2010-07-31T05:46:49Z</time></trkpt>
<trkpt lat="45.80185400" lon="4.78874500"><ele>330.499999908</ele><time>2010-07-31T05:46:50Z</time></trkpt>
<trkpt lat="45.80182600" lon="4.78866800"><ele>330.2999877096</ele><time>2010-07-31T05:46:51Z</time></trkpt>
<trkpt lat="45.80178100" lon="4.78857800"><ele>329.7000120744</ele><time>2010-07-31T05:46:53Z</time></trkpt>
<trkpt lat="45.80173600" lon="4.78848100"><ele>327.600006216</ele><time>2010-07-31T05:46:56Z</time></trkpt>
<trkpt lat="45.80170500" lon="4.78840100"><ele>326.7999879024</ele><time>2010-07-31T05:46:58Z</time></trkpt>
<trkpt lat="45.80168300" lon="4.78832400"><ele>326.7999879024</ele><time>2010-07-31T05:47:00Z</time></trkpt>
<trkpt lat="45.80167900" lon="4.78825600"><ele>326.7999879024</ele><time>2010-07-31T05:47:02Z</time></trkpt>
<trkpt lat="45.80167900" lon="4.78816800"><ele>327.2999879184</ele><time>2010-07-31T05:47:05Z</time></trkpt>
<trkpt lat="45.80170400" lon="4.78808400"><ele>329.1000059592</ele><time>2010-07-31T05:47:08Z</time></trkpt>
<trkpt lat="45.80171800" lon="4.78799700"><ele>329.2000120584</ele><time>2010-07-31T05:47:11Z</time></trkpt>
<trkpt lat="45.80172500" lon="4.78791100"><ele>329.8999937928</ele><time>2010-07-31T05:47:15Z</time></trkpt>
<trkpt lat="45.80174900" lon="4.78784100"><ele>329.499999876</ele><time>2010-07-31T05:47:18Z</time></trkpt>
<trkpt lat="45.80177800" lon="4.78776600"><ele>328.5000001488</ele><time>2010-07-31T05:47:20Z</time></trkpt>
<trkpt lat="45.80181900" lon="4.78770700"><ele>328.8999937608</ele><time>2010-07-31T05:47:23Z</time></trkpt>
<trkpt lat="45.80185500" lon="4.78765000"><ele>329.1000059592</ele><time>2010-07-31T05:47:25Z</time></trkpt>
<trkpt lat="45.80188100" lon="4.78759000"><ele>332.1000060552</ele><time>2010-07-31T05:47:28Z</time></trkpt>
<trkpt lat="45.80192100" lon="4.78752500"><ele>331.6000060392</ele><time>2010-07-31T05:47:31Z</time></trkpt>
<trkpt lat="45.80194500" lon="4.78745000"><ele>333.2000121864</ele><time>2010-07-31T05:47:34Z</time></trkpt>
<trkpt lat="45.80193100" lon="4.78737500"><ele>336.3999940008</ele><time>2010-07-31T05:47:38Z</time></trkpt>
<trkpt lat="45.80192700" lon="4.78730500"><ele>337.6000062312</ele><time>2010-07-31T05:47:41Z</time></trkpt>
<trkpt lat="45.80190800" lon="4.78724500"><ele>337.8999940488</ele><time>2010-07-31T05:47:44Z</time></trkpt>
<trkpt lat="45.80188500" lon="4.78717700"><ele>337.7999876448</ele><time>2010-07-31T05:47:47Z</time></trkpt>
<trkpt lat="45.80186400" lon="4.78710900"><ele>337.7999876448</ele><time>2010-07-31T05:47:50Z</time></trkpt>
<trkpt lat="45.80184200" lon="4.78704900"><ele>337.3999940328</ele><time>2010-07-31T05:47:53Z</time></trkpt>
<trkpt lat="45.80181300" lon="4.78697300"><ele>338.000000148</ele><time>2010-07-31T05:47:57Z</time></trkpt>
<trkpt lat="45.80178600" lon="4.78691600"><ele>338.39999376</ele><time>2010-07-31T05:48:00Z</time></trkpt>
<trkpt lat="45.80176300" lon="4.78685500"><ele>338.1000062472</ele><time>2010-07-31T05:48:03Z</time></trkpt>
<trkpt lat="45.80173900" lon="4.78677600"><ele>338.7000120576</ele><time>2010-07-31T05:48:07Z</time></trkpt>
<trkpt lat="45.80172500" lon="4.78671200"><ele>339.399993792</ele><time>2010-07-31T05:48:10Z</time></trkpt>
<trkpt lat="45.80171200" lon="4.78663300"><ele>339.4999998912</ele><time>2010-07-31T05:48:14Z</time></trkpt>
<trkpt lat="45.80175900" lon="4.78662000"><ele>338.899993776</ele><time>2010-07-31T05:48:18Z</time></trkpt>
<trkpt lat="45.80181200" lon="4.78663700"><ele>338.7000120576</ele><time>2010-07-31T05:48:21Z</time></trkpt>
<trkpt lat="45.80187500" lon="4.78665100"><ele>339.2000120736</ele><time>2010-07-31T05:48:24Z</time></trkpt>
<trkpt lat="45.80194200" lon="4.78664300"><ele>340.4999999232</ele><time>2010-07-31T05:48:27Z</time></trkpt>
<trkpt lat="45.80198900" lon="4.78664800"><ele>340.1000060064</ele><time>2010-07-31T05:48:29Z</time></trkpt>
<trkpt lat="45.80203400" lon="4.78665400"><ele>340.7000121216</ele><time>2010-07-31T05:48:31Z</time></trkpt>
<trkpt lat="45.80207900" lon="4.78665600"><ele>340.7000121216</ele><time>2010-07-31T05:48:33Z</time></trkpt>
<trkpt lat="45.80214200" lon="4.78665400"><ele>341.7000121536</ele><time>2010-07-31T05:48:35Z</time></trkpt>
<trkpt lat="45.80220500" lon="4.78665400"><ele>341.9999999712</ele><time>2010-07-31T05:48:37Z</time></trkpt>
<trkpt lat="45.80229100" lon="4.78664800"><ele>341.399993856</ele><time>2010-07-31T05:48:39Z</time></trkpt>
<trkpt lat="45.80238800" lon="4.78663800"><ele>340.6000060224</ele><time>2010-07-31T05:48:41Z</time></trkpt>
<trkpt lat="45.80243800" lon="4.78663800"><ele>340.1000060064</ele><time>2010-07-31T05:48:42Z</time></trkpt>
<trkpt lat="45.80249600" lon="4.78664600"><ele>339.7999877088</ele><time>2010-07-31T05:48:43Z</time></trkpt>
<trkpt lat="45.80255700" lon="4.78664900"><ele>338.899993776</ele><time>2010-07-31T05:48:44Z</time></trkpt>
<trkpt lat="45.80261200" lon="4.78664700"><ele>338.7000120576</ele><time>2010-07-31T05:48:45Z</time></trkpt>
<trkpt lat="45.80266700" lon="4.78663900"><ele>338.39999376</ele><time>2010-07-31T05:48:46Z</time></trkpt>
<trkpt lat="45.80273000" lon="4.78663600"><ele>338.2000123464</ele><time>2010-07-31T05:48:47Z</time></trkpt>
<trkpt lat="45.80279800" lon="4.78663600"><ele>338.1000062472</ele><time>2010-07-31T05:48:48Z</time></trkpt>
<trkpt lat="45.80285600" lon="4.78663800"><ele>338.000000148</ele><time>2010-07-31T05:48:49Z</time></trkpt>
<trkpt lat="45.80291900" lon="4.78665000"><ele>337.8999940488</ele><time>2010-07-31T05:48:50Z</time></trkpt>
<trkpt lat="45.80300000" lon="4.78666200"><ele>337.7000123304</ele><time>2010-07-31T05:48:51Z</time></trkpt>
<trkpt lat="45.80308300" lon="4.78666700"><ele>336.3999940008</ele><time>2010-07-31T05:48:52Z</time></trkpt>
<trkpt lat="45.80314500" lon="4.78666800"><ele>336.2000122824</ele><time>2010-07-31T05:48:53Z</time></trkpt>
<trkpt lat="45.80322100" lon="4.78667000"><ele>335.2000122504</ele><time>2010-07-31T05:48:54Z</time></trkpt>
<trkpt lat="45.80327600" lon="4.78667200"><ele>334.3999939368</ele><time>2010-07-31T05:48:55Z</time></trkpt>
<trkpt lat="45.80334300" lon="4.78666700"><ele>334.2999878376</ele><time>2010-07-31T05:48:56Z</time></trkpt>
<trkpt lat="45.80340200" lon="4.78665100"><ele>333.500000004</ele><time>2010-07-31T05:48:57Z</time></trkpt>
<trkpt lat="45.80347700" lon="4.78659100"><ele>333.2000121864</ele><time>2010-07-31T05:48:58Z</time></trkpt>
<trkpt lat="45.80354800" lon="4.78652300"><ele>332.7000121704</ele><time>2010-07-31T05:48:59Z</time></trkpt>
<trkpt lat="45.80363000" lon="4.78646500"><ele>332.3999938728</ele><time>2010-07-31T05:49:00Z</time></trkpt>
<trkpt lat="45.80371200" lon="4.78639800"><ele>332.2999877736</ele><time>2010-07-31T05:49:01Z</time></trkpt>
<trkpt lat="45.80382200" lon="4.78629200"><ele>331.2999877416</ele><time>2010-07-31T05:49:02Z</time></trkpt>
<trkpt lat="45.80394900" lon="4.78618800"><ele>328.2000123312</ele><time>2010-07-31T05:49:03Z</time></trkpt>
<trkpt lat="45.80404900" lon="4.78612700"><ele>327.0000001008</ele><time>2010-07-31T05:49:04Z</time></trkpt>
<trkpt lat="45.80413800" lon="4.78607900"><ele>326.5000000848</ele><time>2010-07-31T05:49:05Z</time></trkpt>
<trkpt lat="45.80422200" lon="4.78603100"><ele>326.2000122672</ele><time>2010-07-31T05:49:06Z</time></trkpt>
<trkpt lat="45.80431300" lon="4.78597200"><ele>326.5000000848</ele><time>2010-07-31T05:49:08Z</time></trkpt>
<trkpt lat="45.80435500" lon="4.78594400"><ele>326.2999878864</ele><time>2010-07-31T05:49:09Z</time></trkpt>
<trkpt lat="45.80441700" lon="4.78590800"><ele>323.7999878064</ele><time>2010-07-31T05:49:12Z</time></trkpt>
<trkpt lat="45.80447600" lon="4.78593200"><ele>322.7000121552</ele><time>2010-07-31T05:49:14Z</time></trkpt>
<trkpt lat="45.80453200" lon="4.78598300"><ele>322.7999877744</ele><time>2010-07-31T05:49:16Z</time></trkpt>
<trkpt lat="45.80458400" lon="4.78602900"><ele>322.7000121552</ele><time>2010-07-31T05:49:18Z</time></trkpt>
<trkpt lat="45.80463800" lon="4.78605300"><ele>322.2000121392</ele><time>2010-07-31T05:49:20Z</time></trkpt>
<trkpt lat="45.80468200" lon="4.78609200"><ele>320.2000120752</ele><time>2010-07-31T05:49:22Z</time></trkpt>
<trkpt lat="45.80472100" lon="4.78612500"><ele>320.3999937936</ele><time>2010-07-31T05:49:24Z</time></trkpt>
<trkpt lat="45.80477900" lon="4.78615600"><ele>320.8999938096</ele><time>2010-07-31T05:49:26Z</time></trkpt>
<trkpt lat="45.80482500" lon="4.78619400"><ele>321.7000121232</ele><time>2010-07-31T05:49:28Z</time></trkpt>
<trkpt lat="45.80487000" lon="4.78623500"><ele>321.4999999248</ele><time>2010-07-31T05:49:30Z</time></trkpt>
<trkpt lat="45.80493000" lon="4.78628800"><ele>319.9999998768</ele><time>2010-07-31T05:49:32Z</time></trkpt>
<trkpt lat="45.80498100" lon="4.78633800"><ele>320.3999937936</ele><time>2010-07-31T05:49:34Z</time></trkpt>
<trkpt lat="45.80502000" lon="4.78639100"><ele>320.3999937936</ele><time>2010-07-31T05:49:36Z</time></trkpt>
<trkpt lat="45.80507100" lon="4.78641900"><ele>319.60000596</ele><time>2010-07-31T05:49:39Z</time></trkpt>
<trkpt lat="45.80512500" lon="4.78641700"><ele>319.60000596</ele><time>2010-07-31T05:49:42Z</time></trkpt>
<trkpt lat="45.80516900" lon="4.78637300"><ele>319.2999876624</ele><time>2010-07-31T05:49:45Z</time></trkpt>
<trkpt lat="45.80522500" lon="4.78632100"><ele>319.2999876624</ele><time>2010-07-31T05:49:48Z</time></trkpt>
<trkpt lat="45.80527200" lon="4.78629200"><ele>319.2999876624</ele><time>2010-07-31T05:49:50Z</time></trkpt>
<trkpt lat="45.80533100" lon="4.78626800"><ele>318.7999876464</ele><time>2010-07-31T05:49:53Z</time></trkpt>
<trkpt lat="45.80537700" lon="4.78621600"><ele>319.200012348</ele><time>2010-07-31T05:49:56Z</time></trkpt>
<trkpt lat="45.80538600" lon="4.78620200"><ele>318.700012332</ele><time>2010-07-31T05:50:15Z</time></trkpt>
<trkpt lat="45.80541500" lon="4.78618400"><ele>317.8999940184</ele><time>2010-07-31T05:50:25Z</time></trkpt>
<trkpt lat="45.80542000" lon="4.78615900"><ele>317.6000062008</ele><time>2010-07-31T05:50:26Z</time></trkpt>
<trkpt lat="45.80545300" lon="4.78610100"><ele>316.700012268</ele><time>2010-07-31T05:50:29Z</time></trkpt>
<trkpt lat="45.80549400" lon="4.78606900"><ele>316.1000061528</ele><time>2010-07-31T05:50:45Z</time></trkpt>
<trkpt lat="45.80553800" lon="4.78601000"><ele>315.20001222</ele><time>2010-07-31T05:50:48Z</time></trkpt>
<trkpt lat="45.80557000" lon="4.78596400"><ele>314.1000060888</ele><time>2010-07-31T05:50:50Z</time></trkpt>
<trkpt lat="45.80560200" lon="4.78590500"><ele>313.700012172</ele><time>2010-07-31T05:50:52Z</time></trkpt>
<trkpt lat="45.80563100" lon="4.78583500"><ele>312.9999999576</ele><time>2010-07-31T05:50:54Z</time></trkpt>
<trkpt lat="45.80566100" lon="4.78573800"><ele>313.2999877752</ele><time>2010-07-31T05:50:56Z</time></trkpt>
<trkpt lat="45.80568900" lon="4.78564600"><ele>313.1000060568</ele><time>2010-07-31T05:50:58Z</time></trkpt>
<trkpt lat="45.80572100" lon="4.78554600"><ele>312.8999938584</ele><time>2010-07-31T05:51:00Z</time></trkpt>
<trkpt lat="45.80575200" lon="4.78545500"><ele>312.8999938584</ele><time>2010-07-31T05:51:02Z</time></trkpt>
<trkpt lat="45.80578300" lon="4.78536100"><ele>312.8999938584</ele><time>2010-07-31T05:51:04Z</time></trkpt>
<trkpt lat="45.80580900" lon="4.78527000"><ele>312.70001214</ele><time>2010-07-31T05:51:06Z</time></trkpt>
<trkpt lat="45.80583000" lon="4.78517200"><ele>312.70001214</ele><time>2010-07-31T05:51:08Z</time></trkpt>
<trkpt lat="45.80585200" lon="4.78507700"><ele>312.3999938424</ele><time>2010-07-31T05:51:10Z</time></trkpt>
<trkpt lat="45.80587200" lon="4.78498900"><ele>313.1000060568</ele><time>2010-07-31T05:51:12Z</time></trkpt>
<trkpt lat="45.80588900" lon="4.78491000"><ele>313.9999999896</ele><time>2010-07-31T05:51:14Z</time></trkpt>
<trkpt lat="45.80589500" lon="4.78482400"><ele>314.200012188</ele><time>2010-07-31T05:51:16Z</time></trkpt>
<trkpt lat="45.80590800" lon="4.78473400"><ele>313.1000060568</ele><time>2010-07-31T05:51:18Z</time></trkpt>
<trkpt lat="45.80592300" lon="4.78464400"><ele>314.7999878232</ele><time>2010-07-31T05:51:20Z</time></trkpt>
<trkpt lat="45.80594000" lon="4.78456100"><ele>315.7999878552</ele><time>2010-07-31T05:51:22Z</time></trkpt>
<trkpt lat="45.80597300" lon="4.78447000"><ele>316.0000000536</ele><time>2010-07-31T05:51:24Z</time></trkpt>
<trkpt lat="45.80603100" lon="4.78439100"><ele>316.700012268</ele><time>2010-07-31T05:51:26Z</time></trkpt>
<trkpt lat="45.80607900" lon="4.78432400"><ele>316.7999878872</ele><time>2010-07-31T05:51:28Z</time></trkpt>
<trkpt lat="45.80612000" lon="4.78426700"><ele>316.6000061688</ele><time>2010-07-31T05:51:30Z</time></trkpt>
<trkpt lat="45.80617300" lon="4.78419900"><ele>317.0000000856</ele><time>2010-07-31T05:51:32Z</time></trkpt>
<trkpt lat="45.80622500" lon="4.78414600"><ele>316.2999878712</ele><time>2010-07-31T05:51:34Z</time></trkpt>
<trkpt lat="45.80628000" lon="4.78409300"><ele>316.200012252</ele><time>2010-07-31T05:51:36Z</time></trkpt>
<trkpt lat="45.80633500" lon="4.78404500"><ele>315.8999939544</ele><time>2010-07-31T05:51:38Z</time></trkpt>
<trkpt lat="45.80639500" lon="4.78399500"><ele>315.700012236</ele><time>2010-07-31T05:51:40Z</time></trkpt>
<trkpt lat="45.80644200" lon="4.78394400"><ele>315.5000000376</ele><time>2010-07-31T05:51:42Z</time></trkpt>
<trkpt lat="45.80647100" lon="4.78389400"><ele>315.700012236</ele><time>2010-07-31T05:51:44Z</time></trkpt>
<trkpt lat="45.80653700" lon="4.78387200"><ele>316.6000061688</ele><time>2010-07-31T05:51:47Z</time></trkpt>
<trkpt lat="45.80658600" lon="4.78387800"><ele>317.1000061848</ele><time>2010-07-31T05:51:49Z</time></trkpt>
<trkpt lat="45.80665300" lon="4.78392000"><ele>316.200012252</ele><time>2010-07-31T05:51:51Z</time></trkpt>
<trkpt lat="45.80670500" lon="4.78395100"><ele>315.8999939544</ele><time>2010-07-31T05:51:53Z</time></trkpt>
<trkpt lat="45.80675300" lon="4.78400100"><ele>316.200012252</ele><time>2010-07-31T05:51:56Z</time></trkpt>
<trkpt lat="45.80680300" lon="4.78396900"><ele>317.1000061848</ele><time>2010-07-31T05:52:00Z</time></trkpt>
<trkpt lat="45.80687700" lon="4.78395700"><ele>314.7999878232</ele><time>2010-07-31T05:52:03Z</time></trkpt>
<trkpt lat="45.80692400" lon="4.78394500"><ele>314.200012188</ele><time>2010-07-31T05:52:05Z</time></trkpt>
<trkpt lat="45.80697800" lon="4.78391300"><ele>314.200012188</ele><time>2010-07-31T05:52:07Z</time></trkpt>
<trkpt lat="45.80703600" lon="4.78389200"><ele>316.1000061528</ele><time>2010-07-31T05:52:10Z</time></trkpt>
<trkpt lat="45.80710200" lon="4.78384600"><ele>316.6000061688</ele><time>2010-07-31T05:52:13Z</time></trkpt>
<trkpt lat="45.80715100" lon="4.78383400"><ele>315.700012236</ele><time>2010-07-31T05:52:15Z</time></trkpt>
<trkpt lat="45.80722000" lon="4.78381800"><ele>316.8999939864</ele><time>2010-07-31T05:52:17Z</time></trkpt>
<trkpt lat="45.80727100" lon="4.78381800"><ele>318.3999940344</ele><time>2010-07-31T05:52:19Z</time></trkpt>
<trkpt lat="45.80732100" lon="4.78380200"><ele>318.7999876464</ele><time>2010-07-31T05:52:21Z</time></trkpt>
<trkpt lat="45.80737100" lon="4.78377800"><ele>318.1000062168</ele><time>2010-07-31T05:52:23Z</time></trkpt>
<trkpt lat="45.80742500" lon="4.78375600"><ele>318.0000001176</ele><time>2010-07-31T05:52:26Z</time></trkpt>
<trkpt lat="45.80749800" lon="4.78375600"><ele>316.7999878872</ele><time>2010-07-31T05:52:28Z</time></trkpt>
<trkpt lat="45.80755600" lon="4.78375100"><ele>317.200012284</ele><time>2010-07-31T05:52:30Z</time></trkpt>
<trkpt lat="45.80760600" lon="4.78372100"><ele>320.100005976</ele><time>2010-07-31T05:52:33Z</time></trkpt>
<trkpt lat="45.80765200" lon="4.78370500"><ele>320.600005992</ele><time>2010-07-31T05:52:35Z</time></trkpt>
<trkpt lat="45.80769900" lon="4.78371000"><ele>320.4999998928</ele><time>2010-07-31T05:52:37Z</time></trkpt>
<trkpt lat="45.80774800" lon="4.78371000"><ele>320.4999998928</ele><time>2010-07-31T05:52:39Z</time></trkpt>
<trkpt lat="45.80778800" lon="4.78367100"><ele>320.7000120912</ele><time>2010-07-31T05:52:41Z</time></trkpt>
<trkpt lat="45.80783900" lon="4.78367400"><ele>320.7000120912</ele><time>2010-07-31T05:52:44Z</time></trkpt>
<trkpt lat="45.80792500" lon="4.78368600"><ele>320.600005992</ele><time>2010-07-31T05:52:47Z</time></trkpt>
<trkpt lat="45.80799100" lon="4.78365700"><ele>320.600005992</ele><time>2010-07-31T05:52:48Z</time></trkpt>
<trkpt lat="45.80805400" lon="4.78360000"><ele>321.2999877264</ele><time>2010-07-31T05:52:50Z</time></trkpt>
<trkpt lat="45.80812700" lon="4.78357700"><ele>321.3999938256</ele><time>2010-07-31T05:52:52Z</time></trkpt>
<trkpt lat="45.80819400" lon="4.78355800"><ele>320.600005992</ele><time>2010-07-31T05:52:54Z</time></trkpt>
<trkpt lat="45.80826700" lon="4.78355900"><ele>321.3999938256</ele><time>2010-07-31T05:52:56Z</time></trkpt>
<trkpt lat="45.80833600" lon="4.78354300"><ele>320.4999998928</ele><time>2010-07-31T05:52:58Z</time></trkpt>
<trkpt lat="45.80841300" lon="4.78354500"><ele>321.4999999248</ele><time>2010-07-31T05:53:00Z</time></trkpt>
<trkpt lat="45.80849000" lon="4.78355000"><ele>321.7000121232</ele><time>2010-07-31T05:53:02Z</time></trkpt>
<trkpt lat="45.80854800" lon="4.78358300"><ele>322.7000121552</ele><time>2010-07-31T05:53:04Z</time></trkpt>
<trkpt lat="45.80860900" lon="4.78360200"><ele>324.0000000048</ele><time>2010-07-31T05:53:06Z</time></trkpt>
<trkpt lat="45.80866700" lon="4.78361300"><ele>324.2000122032</ele><time>2010-07-31T05:53:08Z</time></trkpt>
<trkpt lat="45.80873300" lon="4.78358800"><ele>328.99999986</ele><time>2010-07-31T05:53:11Z</time></trkpt>
<trkpt lat="45.80879600" lon="4.78357300"><ele>329.499999876</ele><time>2010-07-31T05:53:13Z</time></trkpt>
<trkpt lat="45.80885600" lon="4.78353900"><ele>329.3999937768</ele><time>2010-07-31T05:53:15Z</time></trkpt>
<trkpt lat="45.80891400" lon="4.78346500"><ele>330.3999938088</ele><time>2010-07-31T05:53:17Z</time></trkpt>
<trkpt lat="45.80896400" lon="4.78338900"><ele>330.1000059912</ele><time>2010-07-31T05:53:19Z</time></trkpt>
<trkpt lat="45.80901600" lon="4.78328000"><ele>330.3999938088</ele><time>2010-07-31T05:53:21Z</time></trkpt>
<trkpt lat="45.80903100" lon="4.78320300"><ele>330.3999938088</ele><time>2010-07-31T05:53:23Z</time></trkpt>
<trkpt lat="45.80907300" lon="4.78312900"><ele>329.8999937928</ele><time>2010-07-31T05:53:25Z</time></trkpt>
<trkpt lat="45.80910300" lon="4.78307600"><ele>329.7000120744</ele><time>2010-07-31T05:53:26Z</time></trkpt>
<trkpt lat="45.80912900" lon="4.78300600"><ele>330.6000060072</ele><time>2010-07-31T05:53:28Z</time></trkpt>
<trkpt lat="45.80914800" lon="4.78292800"><ele>331.2999877416</ele><time>2010-07-31T05:53:31Z</time></trkpt>
<trkpt lat="45.80918900" lon="4.78279800"><ele>331.7000121384</ele><time>2010-07-31T05:53:34Z</time></trkpt>
<trkpt lat="45.80919800" lon="4.78272200"><ele>331.8999938568</ele><time>2010-07-31T05:53:36Z</time></trkpt>
<trkpt lat="45.80923600" lon="4.78264300"><ele>331.999999956</ele><time>2010-07-31T05:53:38Z</time></trkpt>
<trkpt lat="45.80927000" lon="4.78257900"><ele>331.7000121384</ele><time>2010-07-31T05:53:40Z</time></trkpt>
<trkpt lat="45.80931200" lon="4.78253400"><ele>331.2000121224</ele><time>2010-07-31T05:53:42Z</time></trkpt>
<trkpt lat="45.80935700" lon="4.78249400"><ele>330.2999877096</ele><time>2010-07-31T05:53:43Z</time></trkpt>
<trkpt lat="45.80941600" lon="4.78248100"><ele>336.3999940008</ele><time>2010-07-31T05:53:45Z</time></trkpt>
<trkpt lat="45.80947400" lon="4.78245600"><ele>339.2000120736</ele><time>2010-07-31T05:53:47Z</time></trkpt>
<trkpt lat="45.80953000" lon="4.78243900"><ele>339.1000059744</ele><time>2010-07-31T05:53:49Z</time></trkpt>
<trkpt lat="45.80959000" lon="4.78244300"><ele>341.4999999552</ele><time>2010-07-31T05:53:51Z</time></trkpt>
<trkpt lat="45.80963700" lon="4.78244700"><ele>342.899993904</ele><time>2010-07-31T05:53:53Z</time></trkpt>
<trkpt lat="45.80970500" lon="4.78244100"><ele>341.2000121376</ele><time>2010-07-31T05:53:55Z</time></trkpt>
<trkpt lat="45.80975000" lon="4.78244300"><ele>341.2000121376</ele><time>2010-07-31T05:53:57Z</time></trkpt>
<trkpt lat="45.80980300" lon="4.78245300"><ele>341.2000121376</ele><time>2010-07-31T05:53:59Z</time></trkpt>
<trkpt lat="45.80985800" lon="4.78245900"><ele>340.7999877408</ele><time>2010-07-31T05:54:01Z</time></trkpt>
<trkpt lat="45.80990700" lon="4.78245000"><ele>339.7000120896</ele><time>2010-07-31T05:54:03Z</time></trkpt>
<trkpt lat="45.80996200" lon="4.78246300"><ele>339.1000059744</ele><time>2010-07-31T05:54:05Z</time></trkpt>
<trkpt lat="45.81001000" lon="4.78247500"><ele>339.1000059744</ele><time>2010-07-31T05:54:07Z</time></trkpt>
<trkpt lat="45.81006900" lon="4.78247500"><ele>339.6000059904</ele><time>2010-07-31T05:54:09Z</time></trkpt>
<trkpt lat="45.81011400" lon="4.78247000"><ele>339.2000120736</ele><time>2010-07-31T05:54:11Z</time></trkpt>
<trkpt lat="45.81018900" lon="4.78246700"><ele>338.7999876768</ele><time>2010-07-31T05:54:13Z</time></trkpt>
<trkpt lat="45.81024600" lon="4.78244600"><ele>337.3999940328</ele><time>2010-07-31T05:54:15Z</time></trkpt>
<trkpt lat="45.81032300" lon="4.78245000"><ele>335.2999878696</ele><time>2010-07-31T05:54:17Z</time></trkpt>
<trkpt lat="45.81038300" lon="4.78245600"><ele>334.2999878376</ele><time>2010-07-31T05:54:19Z</time></trkpt>
<trkpt lat="45.81045600" lon="4.78246000"><ele>333.7999878216</ele><time>2010-07-31T05:54:21Z</time></trkpt>
<trkpt lat="45.81050400" lon="4.78245900"><ele>332.2999877736</ele><time>2010-07-31T05:54:23Z</time></trkpt>
<trkpt lat="45.81060200" lon="4.78245500"><ele>330.2999877096</ele><time>2010-07-31T05:54:26Z</time></trkpt>
<trkpt lat="45.81065400" lon="4.78244800"><ele>329.999999892</ele><time>2010-07-31T05:54:28Z</time></trkpt>
<trkpt lat="45.81069900" lon="4.78242900"><ele>329.499999876</ele><time>2010-07-31T05:54:30Z</time></trkpt>
<trkpt lat="45.81075700" lon="4.78242800"><ele>330.3999938088</ele><time>2010-07-31T05:54:33Z</time></trkpt>
<trkpt lat="45.81082000" lon="4.78242500"><ele>330.1000059912</ele><time>2010-07-31T05:54:35Z</time></trkpt>
<trkpt lat="45.81086600" lon="4.78243400"><ele>329.6000059752</ele><time>2010-07-31T05:54:36Z</time></trkpt>
<trkpt lat="45.81094100" lon="4.78245300"><ele>329.3999937768</ele><time>2010-07-31T05:54:38Z</time></trkpt>
<trkpt lat="45.81101300" lon="4.78245700"><ele>328.600006248</ele><time>2010-07-31T05:54:40Z</time></trkpt>
<trkpt lat="45.81106300" lon="4.78245600"><ele>328.7999876616</ele><time>2010-07-31T05:54:42Z</time></trkpt>
<trkpt lat="45.81111100" lon="4.78244600"><ele>328.7999876616</ele><time>2010-07-31T05:54:44Z</time></trkpt>
<trkpt lat="45.81115900" lon="4.78242500"><ele>328.5000001488</ele><time>2010-07-31T05:54:46Z</time></trkpt>
<trkpt lat="45.81120700" lon="4.78243100"><ele>328.5000001488</ele><time>2010-07-31T05:54:49Z</time></trkpt>
<trkpt lat="45.81126700" lon="4.78245000"><ele>328.7999876616</ele><time>2010-07-31T05:54:52Z</time></trkpt>
<trkpt lat="45.81131900" lon="4.78242100"><ele>334.7000122344</ele><time>2010-07-31T05:54:56Z</time></trkpt>
<trkpt lat="45.81136400" lon="4.78241100"><ele>335.2999878696</ele><time>2010-07-31T05:54:58Z</time></trkpt>
<trkpt lat="45.81141400" lon="4.78240000"><ele>335.2000122504</ele><time>2010-07-31T05:55:00Z</time></trkpt>
<trkpt lat="45.81146900" lon="4.78237600"><ele>335.2999878696</ele><time>2010-07-31T05:55:03Z</time></trkpt>
<trkpt lat="45.81152400" lon="4.78234300"><ele>337.7000123304</ele><time>2010-07-31T05:55:06Z</time></trkpt>
<trkpt lat="45.81157600" lon="4.78232700"><ele>342.6000060864</ele><time>2010-07-31T05:55:09Z</time></trkpt>
<trkpt lat="45.81162000" lon="4.78231400"><ele>341.7999877728</ele><time>2010-07-31T05:55:23Z</time></trkpt>
<trkpt lat="45.81168800" lon="4.78229400"><ele>343.39999392</ele><time>2010-07-31T05:55:34Z</time></trkpt>
<trkpt lat="45.81173800" lon="4.78227700"><ele>342.7999878048</ele><time>2010-07-31T05:55:37Z</time></trkpt>
<trkpt lat="45.81178700" lon="4.78228600"><ele>341.7000121536</ele><time>2010-07-31T05:55:39Z</time></trkpt>
<trkpt lat="45.81184100" lon="4.78228200"><ele>341.2999877568</ele><time>2010-07-31T05:55:41Z</time></trkpt>
<trkpt lat="45.81190600" lon="4.78227300"><ele>340.7000121216</ele><time>2010-07-31T05:55:43Z</time></trkpt>
<trkpt lat="45.81197500" lon="4.78225500"><ele>341.1000060384</ele><time>2010-07-31T05:55:45Z</time></trkpt>
<trkpt lat="45.81201700" lon="4.78222800"><ele>339.9999999072</ele><time>2010-07-31T05:55:46Z</time></trkpt>
<trkpt lat="45.81206700" lon="4.78220300"><ele>338.6000059584</ele><time>2010-07-31T05:55:47Z</time></trkpt>
<trkpt lat="45.81214900" lon="4.78218300"><ele>337.000000116</ele><time>2010-07-31T05:55:49Z</time></trkpt>
<trkpt lat="45.81223200" lon="4.78218600"><ele>335.7000122664</ele><time>2010-07-31T05:55:51Z</time></trkpt>
<trkpt lat="45.81230900" lon="4.78222800"><ele>335.1000061512</ele><time>2010-07-31T05:55:53Z</time></trkpt>
<trkpt lat="45.81237200" lon="4.78230600"><ele>331.8999938568</ele><time>2010-07-31T05:55:55Z</time></trkpt>
<trkpt lat="45.81241700" lon="4.78240300"><ele>330.3999938088</ele><time>2010-07-31T05:55:57Z</time></trkpt>
<trkpt lat="45.81245400" lon="4.78250000"><ele>329.6000059752</ele><time>2010-07-31T05:55:59Z</time></trkpt>
<trkpt lat="45.81249000" lon="4.78259400"><ele>329.3999937768</ele><time>2010-07-31T05:56:01Z</time></trkpt>
<trkpt lat="45.81253200" lon="4.78267900"><ele>328.8999937608</ele><time>2010-07-31T05:56:03Z</time></trkpt>
<trkpt lat="45.81257500" lon="4.78275700"><ele>328.99999986</ele><time>2010-07-31T05:56:05Z</time></trkpt>
<trkpt lat="45.81261600" lon="4.78283700"><ele>329.1000059592</ele><time>2010-07-31T05:56:07Z</time></trkpt>
<trkpt lat="45.81265500" lon="4.78291400"><ele>328.8999937608</ele><time>2010-07-31T05:56:09Z</time></trkpt>
<trkpt lat="45.81269900" lon="4.78298900"><ele>328.7000123472</ele><time>2010-07-31T05:56:11Z</time></trkpt>
<trkpt lat="45.81273700" lon="4.78306900"><ele>328.7000123472</ele><time>2010-07-31T05:56:13Z</time></trkpt>
<trkpt lat="45.81277400" lon="4.78313200"><ele>328.7000123472</ele><time>2010-07-31T05:56:15Z</time></trkpt>
<trkpt lat="45.81282200" lon="4.78317200"><ele>328.600006248</ele><time>2010-07-31T05:56:17Z</time></trkpt>
<trkpt lat="45.81287400" lon="4.78318400"><ele>328.600006248</ele><time>2010-07-31T05:56:19Z</time></trkpt>
<trkpt lat="45.81291900" lon="4.78320000"><ele>328.99999986</ele><time>2010-07-31T05:56:21Z</time></trkpt>
<trkpt lat="45.81296900" lon="4.78325600"><ele>329.6000059752</ele><time>2010-07-31T05:56:24Z</time></trkpt>
<trkpt lat="45.81302900" lon="4.78327700"><ele>330.8999938248</ele><time>2010-07-31T05:56:27Z</time></trkpt>
<trkpt lat="45.81307400" lon="4.78328500"><ele>331.7000121384</ele><time>2010-07-31T05:56:29Z</time></trkpt>
<trkpt lat="45.81314000" lon="4.78328600"><ele>332.1000060552</ele><time>2010-07-31T05:56:31Z</time></trkpt>
<trkpt lat="45.81320000" lon="4.78330000"><ele>331.999999956</ele><time>2010-07-31T05:56:33Z</time></trkpt>
<trkpt lat="45.81324700" lon="4.78330100"><ele>333.1000060872</ele><time>2010-07-31T05:56:35Z</time></trkpt>
<trkpt lat="45.81329200" lon="4.78331700"><ele>333.1000060872</ele><time>2010-07-31T05:56:37Z</time></trkpt>
<trkpt lat="45.81334200" lon="4.78332500"><ele>336.7999879176</ele><time>2010-07-31T05:56:39Z</time></trkpt>
<trkpt lat="45.81338900" lon="4.78333800"><ele>339.399993792</ele><time>2010-07-31T05:56:41Z</time></trkpt>
<trkpt lat="45.81346100" lon="4.78335100"><ele>340.6000060224</ele><time>2010-07-31T05:56:44Z</time></trkpt>
<trkpt lat="45.81352100" lon="4.78339100"><ele>334.7000122344</ele><time>2010-07-31T05:56:46Z</time></trkpt>
<trkpt lat="45.81357500" lon="4.78339300"><ele>334.2000122184</ele><time>2010-07-31T05:56:48Z</time></trkpt>
<trkpt lat="45.81363300" lon="4.78339800"><ele>334.8999939528</ele><time>2010-07-31T05:56:50Z</time></trkpt>
<trkpt lat="45.81368400" lon="4.78339200"><ele>336.1000061832</ele><time>2010-07-31T05:56:52Z</time></trkpt>
<trkpt lat="45.81374700" lon="4.78340900"><ele>336.2000122824</ele><time>2010-07-31T05:56:54Z</time></trkpt>
<trkpt lat="45.81380500" lon="4.78342200"><ele>336.2999879016</ele><time>2010-07-31T05:56:56Z</time></trkpt>
<trkpt lat="45.81385900" lon="4.78343500"><ele>336.2000122824</ele><time>2010-07-31T05:56:58Z</time></trkpt>
<trkpt lat="45.81391900" lon="4.78344700"><ele>335.8999939848</ele><time>2010-07-31T05:57:00Z</time></trkpt>
<trkpt lat="45.81397800" lon="4.78347000"><ele>334.500000036</ele><time>2010-07-31T05:57:02Z</time></trkpt>
<trkpt lat="45.81403800" lon="4.78347400"><ele>334.1000061192</ele><time>2010-07-31T05:57:04Z</time></trkpt>
<trkpt lat="45.81409200" lon="4.78347900"><ele>334.6000061352</ele><time>2010-07-31T05:57:06Z</time></trkpt>
<trkpt lat="45.81414500" lon="4.78348200"><ele>335.1000061512</ele><time>2010-07-31T05:57:08Z</time></trkpt>
<trkpt lat="45.81419500" lon="4.78347500"><ele>335.6000061672</ele><time>2010-07-31T05:57:10Z</time></trkpt>
<trkpt lat="45.81424000" lon="4.78345900"><ele>335.8999939848</ele><time>2010-07-31T05:57:12Z</time></trkpt>
<trkpt lat="45.81429700" lon="4.78345200"><ele>335.6000061672</ele><time>2010-07-31T05:57:14Z</time></trkpt>
<trkpt lat="45.81435800" lon="4.78342700"><ele>335.7999878856</ele><time>2010-07-31T05:57:16Z</time></trkpt>
<trkpt lat="45.81440400" lon="4.78344800"><ele>336.5000001</ele><time>2010-07-31T05:57:18Z</time></trkpt>
<trkpt lat="45.81446200" lon="4.78345000"><ele>338.39999376</ele><time>2010-07-31T05:57:21Z</time></trkpt>
<trkpt lat="45.81450700" lon="4.78345700"><ele>338.9999998752</ele><time>2010-07-31T05:57:23Z</time></trkpt>
<trkpt lat="45.81458100" lon="4.78348900"><ele>338.7000120576</ele><time>2010-07-31T05:57:27Z</time></trkpt>
<trkpt lat="45.81463000" lon="4.78349400"><ele>339.4999998912</ele><time>2010-07-31T05:57:29Z</time></trkpt>
<trkpt lat="45.81469600" lon="4.78349600"><ele>339.2999876928</ele><time>2010-07-31T05:57:32Z</time></trkpt>
<trkpt lat="45.81474900" lon="4.78347900"><ele>339.7000120896</ele><time>2010-07-31T05:57:35Z</time></trkpt>
<trkpt lat="45.81479500" lon="4.78349100"><ele>340.1000060064</ele><time>2010-07-31T05:57:38Z</time></trkpt>
<trkpt lat="45.81484400" lon="4.78349100"><ele>340.399993824</ele><time>2010-07-31T05:57:40Z</time></trkpt>
<trkpt lat="45.81490600" lon="4.78347400"><ele>341.2000121376</ele><time>2010-07-31T05:57:43Z</time></trkpt>
<trkpt lat="45.81497000" lon="4.78348300"><ele>341.399993856</ele><time>2010-07-31T05:57:46Z</time></trkpt>
<trkpt lat="45.81502800" lon="4.78349400"><ele>341.399993856</ele><time>2010-07-31T05:57:49Z</time></trkpt>
<trkpt lat="45.81509600" lon="4.78347500"><ele>340.7999877408</ele><time>2010-07-31T05:57:51Z</time></trkpt>
<trkpt lat="45.81514700" lon="4.78346100"><ele>340.2000121056</ele><time>2010-07-31T05:57:53Z</time></trkpt>
<trkpt lat="45.81522000" lon="4.78343300"><ele>342.1000060704</ele><time>2010-07-31T05:57:55Z</time></trkpt>
<trkpt lat="45.81526700" lon="4.78344800"><ele>342.7999878048</ele><time>2010-07-31T05:57:57Z</time></trkpt>
<trkpt lat="45.81532100" lon="4.78346100"><ele>341.9999999712</ele><time>2010-07-31T05:57:59Z</time></trkpt>
<trkpt lat="45.81538900" lon="4.78345700"><ele>343.1000061024</ele><time>2010-07-31T05:58:02Z</time></trkpt>
<trkpt lat="45.81544600" lon="4.78343700"><ele>344.0000000352</ele><time>2010-07-31T05:58:04Z</time></trkpt>
<trkpt lat="45.81550300" lon="4.78342500"><ele>344.5000000512</ele><time>2010-07-31T05:58:06Z</time></trkpt>
<trkpt lat="45.81556200" lon="4.78342100"><ele>344.2999878528</ele><time>2010-07-31T05:58:08Z</time></trkpt>
<trkpt lat="45.81561700" lon="4.78341600"><ele>344.6000061504</ele><time>2010-07-31T05:58:10Z</time></trkpt>
<trkpt lat="45.81567200" lon="4.78342300"><ele>345.1000061664</ele><time>2010-07-31T05:58:12Z</time></trkpt>
<trkpt lat="45.81572300" lon="4.78339900"><ele>345.7999879008</ele><time>2010-07-31T05:58:14Z</time></trkpt>
<trkpt lat="45.81577400" lon="4.78340500"><ele>346.2999879168</ele><time>2010-07-31T05:58:16Z</time></trkpt>
<trkpt lat="45.81582800" lon="4.78340400"><ele>346.899994032</ele><time>2010-07-31T05:58:18Z</time></trkpt>
<trkpt lat="45.81589600" lon="4.78340300"><ele>348.8999937912</ele><time>2010-07-31T05:58:20Z</time></trkpt>
<trkpt lat="45.81596700" lon="4.78338700"><ele>349.799987724</ele><time>2010-07-31T05:58:23Z</time></trkpt>
<trkpt lat="45.81603400" lon="4.78336700"><ele>350.799987756</ele><time>2010-07-31T05:58:26Z</time></trkpt>
<trkpt lat="45.81609100" lon="4.78334000"><ele>351.299987772</ele><time>2010-07-31T05:58:28Z</time></trkpt>
<trkpt lat="45.81614400" lon="4.78331500"><ele>351.8999938872</ele><time>2010-07-31T05:58:30Z</time></trkpt>
<trkpt lat="45.81618800" lon="4.78329900"><ele>351.4999999704</ele><time>2010-07-31T05:58:32Z</time></trkpt>
<trkpt lat="45.81623200" lon="4.78327300"><ele>352.3999939032</ele><time>2010-07-31T05:58:34Z</time></trkpt>
<trkpt lat="45.81628800" lon="4.78322900"><ele>352.2000121848</ele><time>2010-07-31T05:58:37Z</time></trkpt>
<trkpt lat="45.81633400" lon="4.78319200"><ele>351.7000121688</ele><time>2010-07-31T05:58:38Z</time></trkpt>
<trkpt lat="45.81640400" lon="4.78314100"><ele>351.6000060696</ele><time>2010-07-31T05:58:40Z</time></trkpt>
<trkpt lat="45.81646800" lon="4.78314100"><ele>347.399994048</ele><time>2010-07-31T05:58:42Z</time></trkpt>
<trkpt lat="45.81651700" lon="4.78311600"><ele>347.2000123296</ele><time>2010-07-31T05:58:44Z</time></trkpt>
<trkpt lat="45.81657200" lon="4.78308600"><ele>347.2000123296</ele><time>2010-07-31T05:58:46Z</time></trkpt>
<trkpt lat="45.81664400" lon="4.78304800"><ele>345.6000061824</ele><time>2010-07-31T05:58:48Z</time></trkpt>
<trkpt lat="45.81671200" lon="4.78301400"><ele>345.5000000832</ele><time>2010-07-31T05:58:50Z</time></trkpt>
<trkpt lat="45.81679200" lon="4.78298300"><ele>344.2999878528</ele><time>2010-07-31T05:58:52Z</time></trkpt>
<trkpt lat="45.81686800" lon="4.78295600"><ele>343.5000000192</ele><time>2010-07-31T05:58:54Z</time></trkpt>
<trkpt lat="45.81694500" lon="4.78292300"><ele>343.6000061184</ele><time>2010-07-31T05:58:56Z</time></trkpt>
<trkpt lat="45.81701900" lon="4.78290300"><ele>344.2000122336</ele><time>2010-07-31T05:58:58Z</time></trkpt>
<trkpt lat="45.81709000" lon="4.78291400"><ele>347.7000123456</ele><time>2010-07-31T05:59:01Z</time></trkpt>
<trkpt lat="45.81714000" lon="4.78292500"><ele>347.9999998584</ele><time>2010-07-31T05:59:03Z</time></trkpt>
<trkpt lat="45.81719600" lon="4.78293000"><ele>347.79998766</ele><time>2010-07-31T05:59:06Z</time></trkpt>
<trkpt lat="45.81725500" lon="4.78292600"><ele>347.7000123456</ele><time>2010-07-31T05:59:11Z</time></trkpt>
<trkpt lat="45.81730600" lon="4.78291600"><ele>347.5000001472</ele><time>2010-07-31T05:59:14Z</time></trkpt>
<trkpt lat="45.81736800" lon="4.78287800"><ele>347.5000001472</ele><time>2010-07-31T05:59:17Z</time></trkpt>
<trkpt lat="45.81741100" lon="4.78285300"><ele>347.7000123456</ele><time>2010-07-31T05:59:19Z</time></trkpt>
<trkpt lat="45.81747300" lon="4.78283800"><ele>347.8999937592</ele><time>2010-07-31T05:59:22Z</time></trkpt>
<trkpt lat="45.81753500" lon="4.78284300"><ele>347.299987644</ele><time>2010-07-31T05:59:25Z</time></trkpt>
<trkpt lat="45.81758800" lon="4.78284200"><ele>347.399994048</ele><time>2010-07-31T05:59:28Z</time></trkpt>
<trkpt lat="45.81764300" lon="4.78282900"><ele>347.399994048</ele><time>2010-07-31T05:59:31Z</time></trkpt>
<trkpt lat="45.81769400" lon="4.78283800"><ele>348.3999937752</ele><time>2010-07-31T05:59:34Z</time></trkpt>
<trkpt lat="45.81775000" lon="4.78284300"><ele>349.1000059896</ele><time>2010-07-31T05:59:38Z</time></trkpt>
<trkpt lat="45.81779700" lon="4.78283700"><ele>349.299987708</ele><time>2010-07-31T05:59:41Z</time></trkpt>
<trkpt lat="45.81779400" lon="4.78290500"><ele>350.29998774</ele><time>2010-07-31T05:59:51Z</time></trkpt>
<trkpt lat="45.81777500" lon="4.78296600"><ele>354.3999939672</ele><time>2010-07-31T06:00:01Z</time></trkpt>
<trkpt lat="45.81774600" lon="4.78302500"><ele>358.3999937904</ele><time>2010-07-31T06:00:14Z</time></trkpt>
<trkpt lat="45.81773500" lon="4.78308900"><ele>358.700012088</ele><time>2010-07-31T06:00:18Z</time></trkpt>
<trkpt lat="45.81769100" lon="4.78313800"><ele>357.2999876592</ele><time>2010-07-31T06:00:22Z</time></trkpt>
<trkpt lat="45.81764700" lon="4.78316900"><ele>357.2999876592</ele><time>2010-07-31T06:00:26Z</time></trkpt>
<trkpt lat="45.81764800" lon="4.78323300"><ele>356.3999940312</ele><time>2010-07-31T06:00:32Z</time></trkpt>
<trkpt lat="45.81769500" lon="4.78324900"><ele>357.3999937584</ele><time>2010-07-31T06:00:37Z</time></trkpt>
<trkpt lat="45.81775100" lon="4.78325000"><ele>358.4999998896</ele><time>2010-07-31T06:00:41Z</time></trkpt>
<trkpt lat="45.81780000" lon="4.78324800"><ele>359.4999999216</ele><time>2010-07-31T06:00:45Z</time></trkpt>
<trkpt lat="45.81785500" lon="4.78326000"><ele>360.2999877552</ele><time>2010-07-31T06:00:49Z</time></trkpt>
<trkpt lat="45.81791200" lon="4.78326300"><ele>359.8999938384</ele><time>2010-07-31T06:00:52Z</time></trkpt>
<trkpt lat="45.81796400" lon="4.78326700"><ele>361.200012168</ele><time>2010-07-31T06:00:54Z</time></trkpt>
<trkpt lat="45.81801900" lon="4.78328100"><ele>361.6000060848</ele><time>2010-07-31T06:00:57Z</time></trkpt>
<trkpt lat="45.81806200" lon="4.78329800"><ele>361.1000060688</ele><time>2010-07-31T06:01:00Z</time></trkpt>
<trkpt lat="45.81811700" lon="4.78331100"><ele>361.8999939024</ele><time>2010-07-31T06:01:03Z</time></trkpt>
<trkpt lat="45.81817500" lon="4.78331900"><ele>362.2000122</ele><time>2010-07-31T06:01:06Z</time></trkpt>
<trkpt lat="45.81822600" lon="4.78334700"><ele>363.0000000336</ele><time>2010-07-31T06:01:09Z</time></trkpt>
<trkpt lat="45.81827600" lon="4.78337600"><ele>364.200012264</ele><time>2010-07-31T06:01:12Z</time></trkpt>
<trkpt lat="45.81832900" lon="4.78340600"><ele>364.7999878992</ele><time>2010-07-31T06:01:16Z</time></trkpt>
<trkpt lat="45.81838200" lon="4.78343700"><ele>365.700012312</ele><time>2010-07-31T06:01:20Z</time></trkpt>
<trkpt lat="45.81843700" lon="4.78346600"><ele>366.2999876424</ele><time>2010-07-31T06:01:24Z</time></trkpt>
<trkpt lat="45.81848100" lon="4.78349800"><ele>366.700012344</ele><time>2010-07-31T06:01:27Z</time></trkpt>
<trkpt lat="45.81852400" lon="4.78353900"><ele>366.9999998568</ele><time>2010-07-31T06:01:30Z</time></trkpt>
<trkpt lat="45.81857000" lon="4.78358200"><ele>366.6000062448</ele><time>2010-07-31T06:01:34Z</time></trkpt>
<trkpt lat="45.81863300" lon="4.78361400"><ele>366.0000001296</ele><time>2010-07-31T06:01:38Z</time></trkpt>
<trkpt lat="45.81867400" lon="4.78364200"><ele>365.3999940144</ele><time>2010-07-31T06:01:41Z</time></trkpt>
<trkpt lat="45.81872500" lon="4.78366500"><ele>365.5000001136</ele><time>2010-07-31T06:01:44Z</time></trkpt>
<trkpt lat="45.81876800" lon="4.78369300"><ele>365.5000001136</ele><time>2010-07-31T06:01:47Z</time></trkpt>
<trkpt lat="45.81881300" lon="4.78370400"><ele>365.3999940144</ele><time>2010-07-31T06:01:50Z</time></trkpt>
<trkpt lat="45.81885300" lon="4.78374100"><ele>366.3999940464</ele><time>2010-07-31T06:01:53Z</time></trkpt>
<trkpt lat="45.81889800" lon="4.78377700"><ele>367.100005956</ele><time>2010-07-31T06:01:57Z</time></trkpt>
<trkpt lat="45.81895100" lon="4.78380700"><ele>366.5000001456</ele><time>2010-07-31T06:02:01Z</time></trkpt>
<trkpt lat="45.81899600" lon="4.78383200"><ele>366.700012344</ele><time>2010-07-31T06:02:04Z</time></trkpt>
<trkpt lat="45.81904300" lon="4.78385700"><ele>366.9999998568</ele><time>2010-07-31T06:02:07Z</time></trkpt>
<trkpt lat="45.81909100" lon="4.78388500"><ele>367.7000120712</ele><time>2010-07-31T06:02:11Z</time></trkpt>
<trkpt lat="45.81913400" lon="4.78390700"><ele>368.3999938056</ele><time>2010-07-31T06:02:14Z</time></trkpt>
<trkpt lat="45.81918000" lon="4.78392400"><ele>368.8999938216</ele><time>2010-07-31T06:02:17Z</time></trkpt>
<trkpt lat="45.81922400" lon="4.78394300"><ele>369.3999938376</ele><time>2010-07-31T06:02:20Z</time></trkpt>
<trkpt lat="45.81927900" lon="4.78396500"><ele>369.7000121352</ele><time>2010-07-31T06:02:24Z</time></trkpt>
<trkpt lat="45.81932500" lon="4.78396700"><ele>370.2000121512</ele><time>2010-07-31T06:02:27Z</time></trkpt>
<trkpt lat="45.81937800" lon="4.78397200"><ele>370.100006052</ele><time>2010-07-31T06:02:30Z</time></trkpt>
<trkpt lat="45.81943600" lon="4.78397800"><ele>370.3999938696</ele><time>2010-07-31T06:02:33Z</time></trkpt>
<trkpt lat="45.81949600" lon="4.78399900"><ele>370.600006068</ele><time>2010-07-31T06:02:36Z</time></trkpt>
<trkpt lat="45.81955400" lon="4.78402600"><ele>370.8999938856</ele><time>2010-07-31T06:02:39Z</time></trkpt>
<trkpt lat="45.81960800" lon="4.78404400"><ele>371.6000061</ele><time>2010-07-31T06:02:42Z</time></trkpt>
<trkpt lat="45.81966900" lon="4.78407600"><ele>371.7999878184</ele><time>2010-07-31T06:02:45Z</time></trkpt>
<trkpt lat="45.81971600" lon="4.78409900"><ele>372.2999878344</ele><time>2010-07-31T06:02:47Z</time></trkpt>
<trkpt lat="45.81976900" lon="4.78411900"><ele>372.7000122312</ele><time>2010-07-31T06:02:50Z</time></trkpt>
<trkpt lat="45.81983300" lon="4.78406400"><ele>372.8999939496</ele><time>2010-07-31T06:02:53Z</time></trkpt>
<trkpt lat="45.81984800" lon="4.78397900"><ele>370.600006068</ele><time>2010-07-31T06:02:55Z</time></trkpt>
<trkpt lat="45.81983700" lon="4.78384900"><ele>369.600006036</ele><time>2010-07-31T06:02:57Z</time></trkpt>
<trkpt lat="45.81978400" lon="4.78378000"><ele>367.2000120552</ele><time>2010-07-31T06:02:58Z</time></trkpt>
<trkpt lat="45.81973500" lon="4.78369700"><ele>365.200012296</ele><time>2010-07-31T06:02:59Z</time></trkpt>
<trkpt lat="45.81968700" lon="4.78361600"><ele>364.2999878832</ele><time>2010-07-31T06:03:00Z</time></trkpt>
<trkpt lat="45.81963400" lon="4.78355300"><ele>364.1000061648</ele><time>2010-07-31T06:03:01Z</time></trkpt>
<trkpt lat="45.81958000" lon="4.78348100"><ele>364.1000061648</ele><time>2010-07-31T06:03:02Z</time></trkpt>
<trkpt lat="45.81953000" lon="4.78343200"><ele>364.0000000656</ele><time>2010-07-31T06:03:03Z</time></trkpt>
<trkpt lat="45.81947400" lon="4.78341200"><ele>361.1000060688</ele><time>2010-07-31T06:03:05Z</time></trkpt>
<trkpt lat="45.81941500" lon="4.78338200"><ele>360.2999877552</ele><time>2010-07-31T06:03:07Z</time></trkpt>
<trkpt lat="45.81944300" lon="4.78332600"><ele>360.8999938704</ele><time>2010-07-31T06:03:11Z</time></trkpt>
<trkpt lat="45.81950500" lon="4.78335400"><ele>359.70001212</ele><time>2010-07-31T06:03:12Z</time></trkpt>
<trkpt lat="45.81956100" lon="4.78335700"><ele>359.3999938224</ele><time>2010-07-31T06:03:14Z</time></trkpt>
<trkpt lat="45.81960800" lon="4.78336800"><ele>360.6000060528</ele><time>2010-07-31T06:03:16Z</time></trkpt>
<trkpt lat="45.81967600" lon="4.78337200"><ele>362.6000061168</ele><time>2010-07-31T06:03:19Z</time></trkpt>
<trkpt lat="45.81972000" lon="4.78338800"><ele>362.7999878352</ele><time>2010-07-31T06:03:21Z</time></trkpt>
<trkpt lat="45.81977400" lon="4.78340900"><ele>363.8999939664</ele><time>2010-07-31T06:03:24Z</time></trkpt>
<trkpt lat="45.81981800" lon="4.78343500"><ele>363.5000000496</ele><time>2010-07-31T06:03:26Z</time></trkpt>
<trkpt lat="45.81987500" lon="4.78346000"><ele>364.200012264</ele><time>2010-07-31T06:03:29Z</time></trkpt>
<trkpt lat="45.81993700" lon="4.78346400"><ele>367.2000120552</ele><time>2010-07-31T06:03:32Z</time></trkpt>
<trkpt lat="45.81999800" lon="4.78348100"><ele>368.7999877224</ele><time>2010-07-31T06:03:35Z</time></trkpt>
<trkpt lat="45.82004300" lon="4.78348100"><ele>368.7000121032</ele><time>2010-07-31T06:03:37Z</time></trkpt>
<trkpt lat="45.82008800" lon="4.78347600"><ele>368.8999938216</ele><time>2010-07-31T06:03:39Z</time></trkpt>
<trkpt lat="45.82014000" lon="4.78346000"><ele>368.4999999048</ele><time>2010-07-31T06:03:41Z</time></trkpt>
<trkpt lat="45.82019500" lon="4.78349200"><ele>367.7999876904</ele><time>2010-07-31T06:03:43Z</time></trkpt>
<trkpt lat="45.82024700" lon="4.78352700"><ele>367.2000120552</ele><time>2010-07-31T06:03:45Z</time></trkpt>
<trkpt lat="45.82030700" lon="4.78355100"><ele>366.6000062448</ele><time>2010-07-31T06:03:48Z</time></trkpt>
<trkpt lat="45.82036300" lon="4.78359400"><ele>365.3999940144</ele><time>2010-07-31T06:03:51Z</time></trkpt>
<trkpt lat="45.82040800" lon="4.78363400"><ele>364.7999878992</ele><time>2010-07-31T06:03:54Z</time></trkpt>
<trkpt lat="45.82047100" lon="4.78363500"><ele>365.2999879152</ele><time>2010-07-31T06:03:57Z</time></trkpt>
<trkpt lat="45.82053900" lon="4.78363400"><ele>365.700012312</ele><time>2010-07-31T06:04:00Z</time></trkpt>
<trkpt lat="45.82058700" lon="4.78363600"><ele>364.8999939984</ele><time>2010-07-31T06:04:01Z</time></trkpt>
<trkpt lat="45.82065000" lon="4.78365200"><ele>365.200012296</ele><time>2010-07-31T06:04:03Z</time></trkpt>
<trkpt lat="45.82070500" lon="4.78366100"><ele>365.0000000976</ele><time>2010-07-31T06:04:05Z</time></trkpt>
<trkpt lat="45.82076500" lon="4.78367900"><ele>363.700012248</ele><time>2010-07-31T06:04:07Z</time></trkpt>
<trkpt lat="45.82082600" lon="4.78369100"><ele>363.5000000496</ele><time>2010-07-31T06:04:09Z</time></trkpt>
<trkpt lat="45.82088400" lon="4.78370000"><ele>363.0000000336</ele><time>2010-07-31T06:04:11Z</time></trkpt>
<trkpt lat="45.82094400" lon="4.78372000"><ele>362.5000000176</ele><time>2010-07-31T06:04:13Z</time></trkpt>
<trkpt lat="45.82100300" lon="4.78374200"><ele>362.2999878192</ele><time>2010-07-31T06:04:15Z</time></trkpt>
<trkpt lat="45.82105600" lon="4.78376900"><ele>362.1000061008</ele><time>2010-07-31T06:04:17Z</time></trkpt>
<trkpt lat="45.82109500" lon="4.78380200"><ele>362.700012216</ele><time>2010-07-31T06:04:20Z</time></trkpt>
<trkpt lat="45.82114800" lon="4.78382600"><ele>362.7999878352</ele><time>2010-07-31T06:04:22Z</time></trkpt>
<trkpt lat="45.82121200" lon="4.78382900"><ele>363.5000000496</ele><time>2010-07-31T06:04:25Z</time></trkpt>
<trkpt lat="45.82127600" lon="4.78381400"><ele>364.2999878832</ele><time>2010-07-31T06:04:28Z</time></trkpt>
<trkpt lat="45.82132600" lon="4.78376800"><ele>365.0000000976</ele><time>2010-07-31T06:04:31Z</time></trkpt>
<trkpt lat="45.82135900" lon="4.78371800"><ele>367.7000120712</ele><time>2010-07-31T06:04:33Z</time></trkpt>
<trkpt lat="45.82141200" lon="4.78368300"><ele>367.600005972</ele><time>2010-07-31T06:04:37Z</time></trkpt>
<trkpt lat="45.82145500" lon="4.78365300"><ele>370.3999938696</ele><time>2010-07-31T06:04:39Z</time></trkpt>
<trkpt lat="45.82150600" lon="4.78363000"><ele>371.7000121992</ele><time>2010-07-31T06:04:41Z</time></trkpt>
<trkpt lat="45.82155900" lon="4.78361300"><ele>372.2999878344</ele><time>2010-07-31T06:04:43Z</time></trkpt>
<trkpt lat="45.82161100" lon="4.78361400"><ele>371.7999878184</ele><time>2010-07-31T06:04:45Z</time></trkpt>
<trkpt lat="45.82166500" lon="4.78362700"><ele>372.2999878344</ele><time>2010-07-31T06:04:48Z</time></trkpt>
<trkpt lat="45.82171800" lon="4.78364600"><ele>372.600006132</ele><time>2010-07-31T06:04:50Z</time></trkpt>
<trkpt lat="45.82177900" lon="4.78368300"><ele>373.7999878824</ele><time>2010-07-31T06:04:53Z</time></trkpt>
<trkpt lat="45.82182900" lon="4.78371900"><ele>373.2999878664</ele><time>2010-07-31T06:04:55Z</time></trkpt>
<trkpt lat="45.82188100" lon="4.78373600"><ele>373.7000122632</ele><time>2010-07-31T06:04:58Z</time></trkpt>
<trkpt lat="45.82193800" lon="4.78374400"><ele>373.2000122472</ele><time>2010-07-31T06:05:02Z</time></trkpt>
<trkpt lat="45.82198700" lon="4.78374800"><ele>373.3999939656</ele><time>2010-07-31T06:05:05Z</time></trkpt>
<trkpt lat="45.82205400" lon="4.78372500"><ele>373.3999939656</ele><time>2010-07-31T06:05:07Z</time></trkpt>
<trkpt lat="45.82209900" lon="4.78371700"><ele>373.3999939656</ele><time>2010-07-31T06:05:09Z</time></trkpt>
<trkpt lat="45.82215600" lon="4.78376600"><ele>374.0000000808</ele><time>2010-07-31T06:05:11Z</time></trkpt>
<trkpt lat="45.82221300" lon="4.78381800"><ele>371.2999878024</ele><time>2010-07-31T06:05:13Z</time></trkpt>
<trkpt lat="45.82225500" lon="4.78386700"><ele>370.4999999688</ele><time>2010-07-31T06:05:15Z</time></trkpt>
<trkpt lat="45.82229900" lon="4.78390400"><ele>369.9999999528</ele><time>2010-07-31T06:05:17Z</time></trkpt>
<trkpt lat="45.82234100" lon="4.78393300"><ele>370.9999999848</ele><time>2010-07-31T06:05:19Z</time></trkpt>
<trkpt lat="45.82240200" lon="4.78396900"><ele>370.4999999688</ele><time>2010-07-31T06:05:22Z</time></trkpt>
<trkpt lat="45.82245400" lon="4.78399000"><ele>370.4999999688</ele><time>2010-07-31T06:05:27Z</time></trkpt>
<trkpt lat="45.82250300" lon="4.78398600"><ele>371.7999878184</ele><time>2010-07-31T06:05:30Z</time></trkpt>
<trkpt lat="45.82255600" lon="4.78400000"><ele>372.2000122152</ele><time>2010-07-31T06:05:33Z</time></trkpt>
<trkpt lat="45.82260400" lon="4.78400600"><ele>371.8999939176</ele><time>2010-07-31T06:05:36Z</time></trkpt>
<trkpt lat="45.82266300" lon="4.78401600"><ele>372.600006132</ele><time>2010-07-31T06:05:39Z</time></trkpt>
<trkpt lat="45.82269600" lon="4.78407700"><ele>372.7000122312</ele><time>2010-07-31T06:05:41Z</time></trkpt>
<trkpt lat="45.82274400" lon="4.78412100"><ele>373.600006164</ele><time>2010-07-31T06:05:43Z</time></trkpt>
<trkpt lat="45.82277400" lon="4.78417700"><ele>375.2999879304</ele><time>2010-07-31T06:05:47Z</time></trkpt>
<trkpt lat="45.82283700" lon="4.78421800"><ele>374.5000000968</ele><time>2010-07-31T06:05:51Z</time></trkpt>
<trkpt lat="45.82288700" lon="4.78423500"><ele>376.0000001448</ele><time>2010-07-31T06:05:55Z</time></trkpt>
<trkpt lat="45.82293600" lon="4.78428100"><ele>375.0000001128</ele><time>2010-07-31T06:05:59Z</time></trkpt>
<trkpt lat="45.82297900" lon="4.78431300"><ele>375.0000001128</ele><time>2010-07-31T06:06:02Z</time></trkpt>
<trkpt lat="45.82303000" lon="4.78432400"><ele>375.7000123272</ele><time>2010-07-31T06:06:06Z</time></trkpt>
<trkpt lat="45.82308400" lon="4.78432400"><ele>377.6000059872</ele><time>2010-07-31T06:06:10Z</time></trkpt>
<trkpt lat="45.82313200" lon="4.78437800"><ele>378.2000121024</ele><time>2010-07-31T06:06:14Z</time></trkpt>
<trkpt lat="45.82313700" lon="4.78444600"><ele>378.7999877376</ele><time>2010-07-31T06:06:17Z</time></trkpt>
<trkpt lat="45.82316600" lon="4.78450600"><ele>378.49999992</ele><time>2010-07-31T06:06:21Z</time></trkpt>
<trkpt lat="45.82320600" lon="4.78454400"><ele>379.7000121504</ele><time>2010-07-31T06:06:24Z</time></trkpt>
<trkpt lat="45.82325100" lon="4.78456600"><ele>381</ele><time>2010-07-31T06:06:28Z</time></trkpt>
<trkpt lat="45.82330200" lon="4.78460400"><ele>381.2999878176</ele><time>2010-07-31T06:06:32Z</time></trkpt>
<trkpt lat="45.82336600" lon="4.78464600"><ele>381.8999939328</ele><time>2010-07-31T06:06:36Z</time></trkpt>
<trkpt lat="45.82341500" lon="4.78462100"><ele>384.2000122944</ele><time>2010-07-31T06:06:40Z</time></trkpt>
<trkpt lat="45.82346900" lon="4.78465800"><ele>387.1000059864</ele><time>2010-07-31T06:06:44Z</time></trkpt>
<trkpt lat="45.82347600" lon="4.78472300"><ele>388.2000121176</ele><time>2010-07-31T06:06:49Z</time></trkpt>
<trkpt lat="45.82342900" lon="4.78475100"><ele>388.6000060344</ele><time>2010-07-31T06:06:57Z</time></trkpt>
<trkpt lat="45.82338500" lon="4.78479100"><ele>391.1000061144</ele><time>2010-07-31T06:07:00Z</time></trkpt>
<trkpt lat="45.82335300" lon="4.78484300"><ele>392.399993964</ele><time>2010-07-31T06:07:04Z</time></trkpt>
<trkpt lat="45.82332000" lon="4.78490100"><ele>395.3999937552</ele><time>2010-07-31T06:07:09Z</time></trkpt>
<trkpt lat="45.82331000" lon="4.78499300"><ele>394.899994044</ele><time>2010-07-31T06:07:14Z</time></trkpt>
<trkpt lat="45.82332100" lon="4.78506600"><ele>394.7999879448</ele><time>2010-07-31T06:07:18Z</time></trkpt>
<trkpt lat="45.82337000" lon="4.78505900"><ele>395.799987672</ele><time>2010-07-31T06:07:24Z</time></trkpt>
<trkpt lat="45.82341900" lon="4.78507400"><ele>396.2000120688</ele><time>2010-07-31T06:07:29Z</time></trkpt>
<trkpt lat="45.82347000" lon="4.78508600"><ele>396.6000059856</ele><time>2010-07-31T06:07:33Z</time></trkpt>
<trkpt lat="45.82350400" lon="4.78512900"><ele>397.1000060016</ele><time>2010-07-31T06:07:36Z</time></trkpt>
<trkpt lat="45.82354000" lon="4.78518100"><ele>396.4999998864</ele><time>2010-07-31T06:07:40Z</time></trkpt>
<trkpt lat="45.82357700" lon="4.78523200"><ele>398.8999938672</ele><time>2010-07-31T06:07:45Z</time></trkpt>
<trkpt lat="45.82358800" lon="4.78530100"><ele>400.1000060976</ele><time>2010-07-31T06:07:49Z</time></trkpt>
<trkpt lat="45.82360100" lon="4.78536500"><ele>399.7000121808</ele><time>2010-07-31T06:07:52Z</time></trkpt>
<trkpt lat="45.82362700" lon="4.78542400"><ele>399.299987784</ele><time>2010-07-31T06:07:55Z</time></trkpt>
<trkpt lat="45.82365200" lon="4.78549800"><ele>399.2000121648</ele><time>2010-07-31T06:07:59Z</time></trkpt>
<trkpt lat="45.82367600" lon="4.78555200"><ele>399.299987784</ele><time>2010-07-31T06:08:02Z</time></trkpt>
<trkpt lat="45.82371100" lon="4.78559600"><ele>400.3999939152</ele><time>2010-07-31T06:08:05Z</time></trkpt>
<trkpt lat="45.82375900" lon="4.78563900"><ele>400.8999939312</ele><time>2010-07-31T06:08:11Z</time></trkpt>
<trkpt lat="45.82380100" lon="4.78568100"><ele>401.0000000304</ele><time>2010-07-31T06:08:16Z</time></trkpt>
<trkpt lat="45.82383800" lon="4.78572700"><ele>400.6000061136</ele><time>2010-07-31T06:08:20Z</time></trkpt>
<trkpt lat="45.82387500" lon="4.78576700"><ele>400.8999939312</ele><time>2010-07-31T06:08:24Z</time></trkpt>
<trkpt lat="45.82391700" lon="4.78579800"><ele>401.299987848</ele><time>2010-07-31T06:08:28Z</time></trkpt>
<trkpt lat="45.82396300" lon="4.78581900"><ele>402.0000000624</ele><time>2010-07-31T06:08:32Z</time></trkpt>
<trkpt lat="45.82401600" lon="4.78583800"><ele>401.0000000304</ele><time>2010-07-31T06:08:36Z</time></trkpt>
<trkpt lat="45.82406300" lon="4.78585600"><ele>401.2000122288</ele><time>2010-07-31T06:08:40Z</time></trkpt>
<trkpt lat="45.82410500" lon="4.78588500"><ele>402.2000122608</ele><time>2010-07-31T06:08:44Z</time></trkpt>
<trkpt lat="45.82414900" lon="4.78590500"><ele>404.8999937544</ele><time>2010-07-31T06:08:49Z</time></trkpt>
<trkpt lat="45.82419000" lon="4.78593600"><ele>405.7999876872</ele><time>2010-07-31T06:08:53Z</time></trkpt>
<trkpt lat="45.82423700" lon="4.78595500"><ele>406.4999999016</ele><time>2010-07-31T06:08:57Z</time></trkpt>
<trkpt lat="45.82428100" lon="4.78598500"><ele>407.9999999496</ele><time>2010-07-31T06:09:02Z</time></trkpt>
<trkpt lat="45.82433000" lon="4.78599900"><ele>408.4999999656</ele><time>2010-07-31T06:09:06Z</time></trkpt>
<trkpt lat="45.82438500" lon="4.78601800"><ele>409.3999938984</ele><time>2010-07-31T06:09:10Z</time></trkpt>
<trkpt lat="45.82443400" lon="4.78601900"><ele>409.2999877992</ele><time>2010-07-31T06:09:14Z</time></trkpt>
<trkpt lat="45.82448500" lon="4.78603300"><ele>409.4999999976</ele><time>2010-07-31T06:09:18Z</time></trkpt>
<trkpt lat="45.82453700" lon="4.78604500"><ele>410.6000061288</ele><time>2010-07-31T06:09:23Z</time></trkpt>
<trkpt lat="45.82459000" lon="4.78606300"><ele>411.5000000616</ele><time>2010-07-31T06:09:27Z</time></trkpt>
<trkpt lat="45.82464300" lon="4.78607100"><ele>413.0000001096</ele><time>2010-07-31T06:09:32Z</time></trkpt>
<trkpt lat="45.82469100" lon="4.78609400"><ele>413.2999879272</ele><time>2010-07-31T06:09:36Z</time></trkpt>
<trkpt lat="45.82474400" lon="4.78609800"><ele>413.7999879432</ele><time>2010-07-31T06:09:40Z</time></trkpt>
<trkpt lat="45.82478900" lon="4.78610000"><ele>413.5000001256</ele><time>2010-07-31T06:09:43Z</time></trkpt>
<trkpt lat="45.82483600" lon="4.78610700"><ele>414.1000062408</ele><time>2010-07-31T06:09:46Z</time></trkpt>
<trkpt lat="45.82489100" lon="4.78612000"><ele>414.0000001416</ele><time>2010-07-31T06:09:49Z</time></trkpt>
<trkpt lat="45.82493600" lon="4.78613400"><ele>414.20001234</ele><time>2010-07-31T06:09:52Z</time></trkpt>
<trkpt lat="45.82498800" lon="4.78615400"><ele>413.7999879432</ele><time>2010-07-31T06:09:56Z</time></trkpt>
<trkpt lat="45.82503600" lon="4.78618500"><ele>413.1000062088</ele><time>2010-07-31T06:10:00Z</time></trkpt>
<trkpt lat="45.82509100" lon="4.78620300"><ele>413.5000001256</ele><time>2010-07-31T06:10:04Z</time></trkpt>
<trkpt lat="45.82514800" lon="4.78622600"><ele>414.20001234</ele><time>2010-07-31T06:10:08Z</time></trkpt>
<trkpt lat="45.82520200" lon="4.78623300"><ele>414.20001234</ele><time>2010-07-31T06:10:12Z</time></trkpt>
<trkpt lat="45.82525400" lon="4.78624000"><ele>415.100005968</ele><time>2010-07-31T06:10:16Z</time></trkpt>
<trkpt lat="45.82530400" lon="4.78625200"><ele>415.7000120832</ele><time>2010-07-31T06:10:20Z</time></trkpt>
<trkpt lat="45.82535600" lon="4.78626900"><ele>416.2999877184</ele><time>2010-07-31T06:10:24Z</time></trkpt>
<trkpt lat="45.82540500" lon="4.78628600"><ele>416.2999877184</ele><time>2010-07-31T06:10:27Z</time></trkpt>
<trkpt lat="45.82545200" lon="4.78631100"><ele>416.8999938336</ele><time>2010-07-31T06:10:30Z</time></trkpt>
<trkpt lat="45.82550000" lon="4.78633600"><ele>416.600006016</ele><time>2010-07-31T06:10:33Z</time></trkpt>
<trkpt lat="45.82554500" lon="4.78635500"><ele>417.2000121312</ele><time>2010-07-31T06:10:36Z</time></trkpt>
<trkpt lat="45.82558900" lon="4.78637600"><ele>417.7000121472</ele><time>2010-07-31T06:10:39Z</time></trkpt>
<trkpt lat="45.82563400" lon="4.78639900"><ele>418.100006064</ele><time>2010-07-31T06:10:42Z</time></trkpt>
<trkpt lat="45.82567900" lon="4.78640600"><ele>417.9999999648</ele><time>2010-07-31T06:10:45Z</time></trkpt>
<trkpt lat="45.82572900" lon="4.78642700"><ele>417.7999877664</ele><time>2010-07-31T06:10:48Z</time></trkpt>
<trkpt lat="45.82578100" lon="4.78645200"><ele>417.7000121472</ele><time>2010-07-31T06:10:51Z</time></trkpt>
<trkpt lat="45.82582600" lon="4.78647400"><ele>418.2999877824</ele><time>2010-07-31T06:10:54Z</time></trkpt>
<trkpt lat="45.82587400" lon="4.78648900"><ele>418.7000121792</ele><time>2010-07-31T06:10:57Z</time></trkpt>
<trkpt lat="45.82591900" lon="4.78651500"><ele>418.9999999968</ele><time>2010-07-31T06:11:00Z</time></trkpt>
<trkpt lat="45.82596600" lon="4.78656200"><ele>420.2999878464</ele><time>2010-07-31T06:11:04Z</time></trkpt>
<trkpt lat="45.82600700" lon="4.78659700"><ele>421.0000000608</ele><time>2010-07-31T06:11:07Z</time></trkpt>
<trkpt lat="45.82605300" lon="4.78663800"><ele>421.600006176</ele><time>2010-07-31T06:11:11Z</time></trkpt>
<trkpt lat="45.82609600" lon="4.78666900"><ele>422.3999940096</ele><time>2010-07-31T06:11:15Z</time></trkpt>
<trkpt lat="45.82613900" lon="4.78670400"><ele>421.7000122752</ele><time>2010-07-31T06:11:18Z</time></trkpt>
<trkpt lat="45.82619000" lon="4.78673800"><ele>422.0000000928</ele><time>2010-07-31T06:11:22Z</time></trkpt>
<trkpt lat="45.82624100" lon="4.78676400"><ele>423.999999852</ele><time>2010-07-31T06:11:26Z</time></trkpt>
<trkpt lat="45.82628400" lon="4.78678800"><ele>423.5000001408</ele><time>2010-07-31T06:11:30Z</time></trkpt>
<trkpt lat="45.82633500" lon="4.78683900"><ele>424.3999937688</ele><time>2010-07-31T06:11:34Z</time></trkpt>
<trkpt lat="45.82637800" lon="4.78688000"><ele>426.499999932</ele><time>2010-07-31T06:11:38Z</time></trkpt>
<trkpt lat="45.82642400" lon="4.78691400"><ele>426.7999877496</ele><time>2010-07-31T06:11:41Z</time></trkpt>
<trkpt lat="45.82646800" lon="4.78695000"><ele>426.999999948</ele><time>2010-07-31T06:11:44Z</time></trkpt>
<trkpt lat="45.82650900" lon="4.78699400"><ele>428.7000121944</ele><time>2010-07-31T06:11:48Z</time></trkpt>
<trkpt lat="45.82655200" lon="4.78704400"><ele>430.2000122424</ele><time>2010-07-31T06:11:52Z</time></trkpt>
<trkpt lat="45.82658300" lon="4.78710000"><ele>430.2999878616</ele><time>2010-07-31T06:11:55Z</time></trkpt>
<trkpt lat="45.82662200" lon="4.78714500"><ele>429.000000012</ele><time>2010-07-31T06:11:59Z</time></trkpt>
<trkpt lat="45.82666300" lon="4.78720200"><ele>429.7000122264</ele><time>2010-07-31T06:12:03Z</time></trkpt>
<trkpt lat="45.82671000" lon="4.78724800"><ele>431.500000092</ele><time>2010-07-31T06:12:08Z</time></trkpt>
<trkpt lat="45.82673200" lon="4.78732100"><ele>432.8999940408</ele><time>2010-07-31T06:12:12Z</time></trkpt>
<trkpt lat="45.82673700" lon="4.78739000"><ele>433.6000062552</ele><time>2010-07-31T06:12:15Z</time></trkpt>
<trkpt lat="45.82678800" lon="4.78740900"><ele>430.2999878616</ele><time>2010-07-31T06:12:19Z</time></trkpt>
<trkpt lat="45.82683300" lon="4.78735100"><ele>430.50000006</ele><time>2010-07-31T06:12:22Z</time></trkpt>
<trkpt lat="45.82686700" lon="4.78730800"><ele>430.6000061592</ele><time>2010-07-31T06:12:24Z</time></trkpt>
<trkpt lat="45.82690700" lon="4.78726100"><ele>430.7000122584</ele><time>2010-07-31T06:12:27Z</time></trkpt>
<trkpt lat="45.82693800" lon="4.78720600"><ele>431.1000061752</ele><time>2010-07-31T06:12:31Z</time></trkpt>
<trkpt lat="45.82697000" lon="4.78716100"><ele>431.1000061752</ele><time>2010-07-31T06:12:35Z</time></trkpt>
<trkpt lat="45.82701000" lon="4.78709700"><ele>432.2000123064</ele><time>2010-07-31T06:12:39Z</time></trkpt>
<trkpt lat="45.82706100" lon="4.78704100"><ele>431.7999879096</ele><time>2010-07-31T06:12:42Z</time></trkpt>
<trkpt lat="45.82710900" lon="4.78699100"><ele>431.7000122904</ele><time>2010-07-31T06:12:45Z</time></trkpt>
<trkpt lat="45.82714400" lon="4.78695100"><ele>431.7999879096</ele><time>2010-07-31T06:12:47Z</time></trkpt>
<trkpt lat="45.82718900" lon="4.78691300"><ele>431.6000061912</ele><time>2010-07-31T06:12:49Z</time></trkpt>
<trkpt lat="45.82723900" lon="4.78688300"><ele>431.500000092</ele><time>2010-07-31T06:12:51Z</time></trkpt>
<trkpt lat="45.82729000" lon="4.78686800"><ele>431.7999879096</ele><time>2010-07-31T06:12:53Z</time></trkpt>
<trkpt lat="45.82734600" lon="4.78685200"><ele>431.8999940088</ele><time>2010-07-31T06:12:55Z</time></trkpt>
<trkpt lat="45.82740000" lon="4.78684400"><ele>431.7999879096</ele><time>2010-07-31T06:12:57Z</time></trkpt>
<trkpt lat="45.82745100" lon="4.78682300"><ele>432.3999940248</ele><time>2010-07-31T06:12:59Z</time></trkpt>
<trkpt lat="45.82750600" lon="4.78681600"><ele>431.7999879096</ele><time>2010-07-31T06:13:01Z</time></trkpt>
<trkpt lat="45.82755700" lon="4.78679800"><ele>432.3999940248</ele><time>2010-07-31T06:13:03Z</time></trkpt>
<trkpt lat="45.82760900" lon="4.78677800"><ele>433.1000062392</ele><time>2010-07-31T06:13:05Z</time></trkpt>
<trkpt lat="45.82765800" lon="4.78676100"><ele>434.6000059824</ele><time>2010-07-31T06:13:07Z</time></trkpt>
<trkpt lat="45.82770400" lon="4.78674500"><ele>435.7999877328</ele><time>2010-07-31T06:13:09Z</time></trkpt>
<trkpt lat="45.82775900" lon="4.78674100"><ele>435.2999877168</ele><time>2010-07-31T06:13:11Z</time></trkpt>
<trkpt lat="45.82780600" lon="4.78672500"><ele>435.6000060144</ele><time>2010-07-31T06:13:13Z</time></trkpt>
<trkpt lat="45.82785400" lon="4.78671200"><ele>435.6000060144</ele><time>2010-07-31T06:13:15Z</time></trkpt>
<trkpt lat="45.82791600" lon="4.78668200"><ele>435.2000120976</ele><time>2010-07-31T06:13:18Z</time></trkpt>
<trkpt lat="45.82795800" lon="4.78665800"><ele>435.4999999152</ele><time>2010-07-31T06:13:20Z</time></trkpt>
<trkpt lat="45.82801300" lon="4.78660900"><ele>435.899993832</ele><time>2010-07-31T06:13:23Z</time></trkpt>
<trkpt lat="45.82806300" lon="4.78651000"><ele>436.399993848</ele><time>2010-07-31T06:13:26Z</time></trkpt>
<trkpt lat="45.82808600" lon="4.78645000"><ele>436.6000060464</ele><time>2010-07-31T06:13:28Z</time></trkpt>
<trkpt lat="45.82810600" lon="4.78638900"><ele>436.4999999472</ele><time>2010-07-31T06:13:30Z</time></trkpt>
<trkpt lat="45.82810900" lon="4.78630800"><ele>437.2999877808</ele><time>2010-07-31T06:13:32Z</time></trkpt>
<trkpt lat="45.82811700" lon="4.78624100"><ele>437.7000121776</ele><time>2010-07-31T06:13:34Z</time></trkpt>
<trkpt lat="45.82811900" lon="4.78616500"><ele>437.2000121616</ele><time>2010-07-31T06:13:36Z</time></trkpt>
<trkpt lat="45.82812000" lon="4.78609800"><ele>437.39999388</ele><time>2010-07-31T06:13:38Z</time></trkpt>
<trkpt lat="45.82811500" lon="4.78603000"><ele>437.7999877968</ele><time>2010-07-31T06:13:40Z</time></trkpt>
<trkpt lat="45.82810100" lon="4.78595700"><ele>437.7000121776</ele><time>2010-07-31T06:13:42Z</time></trkpt>
<trkpt lat="45.82808400" lon="4.78588000"><ele>438.2999878128</ele><time>2010-07-31T06:13:44Z</time></trkpt>
<trkpt lat="45.82806700" lon="4.78581600"><ele>438.7000122096</ele><time>2010-07-31T06:13:46Z</time></trkpt>
<trkpt lat="45.82804600" lon="4.78574600"><ele>438.899993928</ele><time>2010-07-31T06:13:48Z</time></trkpt>
<trkpt lat="45.82802100" lon="4.78567000"><ele>439.2999878448</ele><time>2010-07-31T06:13:50Z</time></trkpt>
<trkpt lat="45.82799300" lon="4.78559300"><ele>439.2000122256</ele><time>2010-07-31T06:13:52Z</time></trkpt>
<trkpt lat="45.82795000" lon="4.78553600"><ele>440.1000061584</ele><time>2010-07-31T06:13:54Z</time></trkpt>
<trkpt lat="45.82790200" lon="4.78545800"><ele>440.2000122576</ele><time>2010-07-31T06:13:56Z</time></trkpt>
<trkpt lat="45.82786700" lon="4.78536300"><ele>439.6000061424</ele><time>2010-07-31T06:13:58Z</time></trkpt>
<trkpt lat="45.82786100" lon="4.78526700"><ele>440.399993976</ele><time>2010-07-31T06:14:00Z</time></trkpt>
<trkpt lat="45.82785300" lon="4.78518500"><ele>441.2999879088</ele><time>2010-07-31T06:14:02Z</time></trkpt>
<trkpt lat="45.82784700" lon="4.78510200"><ele>442.0000001232</ele><time>2010-07-31T06:14:04Z</time></trkpt>
<trkpt lat="45.82785100" lon="4.78502100"><ele>442.0000001232</ele><time>2010-07-31T06:14:06Z</time></trkpt>
<trkpt lat="45.82786300" lon="4.78493300"><ele>441.899994024</ele><time>2010-07-31T06:14:08Z</time></trkpt>
<trkpt lat="45.82788700" lon="4.78485300"><ele>441.7000123056</ele><time>2010-07-31T06:14:10Z</time></trkpt>
<trkpt lat="45.82791400" lon="4.78477400"><ele>441.6000062064</ele><time>2010-07-31T06:14:12Z</time></trkpt>
<trkpt lat="45.82795000" lon="4.78471400"><ele>441.7000123056</ele><time>2010-07-31T06:14:14Z</time></trkpt>
<trkpt lat="45.82799200" lon="4.78466100"><ele>441.0000000912</ele><time>2010-07-31T06:14:16Z</time></trkpt>
<trkpt lat="45.82804100" lon="4.78461800"><ele>441.0000000912</ele><time>2010-07-31T06:14:18Z</time></trkpt>
<trkpt lat="45.82809400" lon="4.78457800"><ele>441.0000000912</ele><time>2010-07-31T06:14:20Z</time></trkpt>
<trkpt lat="45.82814500" lon="4.78453700"><ele>441.7999879248</ele><time>2010-07-31T06:14:22Z</time></trkpt>
<trkpt lat="45.82820000" lon="4.78450300"><ele>442.2000123216</ele><time>2010-07-31T06:14:24Z</time></trkpt>
<trkpt lat="45.82824900" lon="4.78448400"><ele>442.2999879408</ele><time>2010-07-31T06:14:26Z</time></trkpt>
<trkpt lat="45.82829800" lon="4.78445800"><ele>443.4999998664</ele><time>2010-07-31T06:14:28Z</time></trkpt>
<trkpt lat="45.82834600" lon="4.78443900"><ele>443.799987684</ele><time>2010-07-31T06:14:30Z</time></trkpt>
<trkpt lat="45.82839300" lon="4.78443200"><ele>443.299987668</ele><time>2010-07-31T06:14:32Z</time></trkpt>
<trkpt lat="45.82844500" lon="4.78442300"><ele>443.7000120648</ele><time>2010-07-31T06:14:34Z</time></trkpt>
<trkpt lat="45.82850100" lon="4.78441800"><ele>443.7000120648</ele><time>2010-07-31T06:14:36Z</time></trkpt>
<trkpt lat="45.82855600" lon="4.78441100"><ele>443.8999937832</ele><time>2010-07-31T06:14:38Z</time></trkpt>
<trkpt lat="45.82861400" lon="4.78440600"><ele>443.7000120648</ele><time>2010-07-31T06:14:40Z</time></trkpt>
<trkpt lat="45.82866800" lon="4.78440300"><ele>443.8999937832</ele><time>2010-07-31T06:14:42Z</time></trkpt>
<trkpt lat="45.82873300" lon="4.78441100"><ele>443.9999998824</ele><time>2010-07-31T06:14:44Z</time></trkpt>
<trkpt lat="45.82879100" lon="4.78442700"><ele>444.4999998984</ele><time>2010-07-31T06:14:46Z</time></trkpt>
<trkpt lat="45.82884900" lon="4.78445300"><ele>444.4999998984</ele><time>2010-07-31T06:14:48Z</time></trkpt>
<trkpt lat="45.82890100" lon="4.78447900"><ele>444.4999998984</ele><time>2010-07-31T06:14:50Z</time></trkpt>
<trkpt lat="45.82895700" lon="4.78450600"><ele>444.3999937992</ele><time>2010-07-31T06:14:52Z</time></trkpt>
<trkpt lat="45.82900600" lon="4.78452900"><ele>444.7000120968</ele><time>2010-07-31T06:14:54Z</time></trkpt>
<trkpt lat="45.82905800" lon="4.78454300"><ele>444.8999938152</ele><time>2010-07-31T06:14:56Z</time></trkpt>
<trkpt lat="45.82910700" lon="4.78452900"><ele>445.1000060136</ele><time>2010-07-31T06:14:58Z</time></trkpt>
<trkpt lat="45.82916500" lon="4.78452300"><ele>444.8999938152</ele><time>2010-07-31T06:15:00Z</time></trkpt>
<trkpt lat="45.82921500" lon="4.78450900"><ele>444.8999938152</ele><time>2010-07-31T06:15:02Z</time></trkpt>
<trkpt lat="45.82926200" lon="4.78447900"><ele>445.2000121128</ele><time>2010-07-31T06:15:04Z</time></trkpt>
<trkpt lat="45.82930600" lon="4.78445100"><ele>445.1000060136</ele><time>2010-07-31T06:15:06Z</time></trkpt>
<trkpt lat="45.82935300" lon="4.78441600"><ele>445.6000060296</ele><time>2010-07-31T06:15:08Z</time></trkpt>
<trkpt lat="45.82939900" lon="4.78437700"><ele>445.799987748</ele><time>2010-07-31T06:15:10Z</time></trkpt>
<trkpt lat="45.82944200" lon="4.78434600"><ele>445.8999938472</ele><time>2010-07-31T06:15:12Z</time></trkpt>
<trkpt lat="45.82948300" lon="4.78431600"><ele>445.7000121288</ele><time>2010-07-31T06:15:14Z</time></trkpt>
<trkpt lat="45.82952400" lon="4.78427300"><ele>445.8999938472</ele><time>2010-07-31T06:15:16Z</time></trkpt>
<trkpt lat="45.82958400" lon="4.78422900"><ele>446.3999938632</ele><time>2010-07-31T06:15:19Z</time></trkpt>
<trkpt lat="45.82962900" lon="4.78420100"><ele>446.79998778</ele><time>2010-07-31T06:15:21Z</time></trkpt>
<trkpt lat="45.82967300" lon="4.78416900"><ele>446.8999938792</ele><time>2010-07-31T06:15:23Z</time></trkpt>
<trkpt lat="45.82971500" lon="4.78414100"><ele>447.1000060776</ele><time>2010-07-31T06:15:25Z</time></trkpt>
<trkpt lat="45.82976000" lon="4.78412100"><ele>447.2000121768</ele><time>2010-07-31T06:15:27Z</time></trkpt>
<trkpt lat="45.82980700" lon="4.78409600"><ele>447.4999999944</ele><time>2010-07-31T06:15:29Z</time></trkpt>
<trkpt lat="45.82985200" lon="4.78407000"><ele>447.799987812</ele><time>2010-07-31T06:15:31Z</time></trkpt>
<trkpt lat="45.82990000" lon="4.78405300"><ele>448.0000000104</ele><time>2010-07-31T06:15:33Z</time></trkpt>
<trkpt lat="45.82994500" lon="4.78403000"><ele>448.2000122088</ele><time>2010-07-31T06:15:35Z</time></trkpt>
<trkpt lat="45.82998600" lon="4.78400400"><ele>448.5000000264</ele><time>2010-07-31T06:15:37Z</time></trkpt>
<trkpt lat="45.83002900" lon="4.78398200"><ele>448.3999939272</ele><time>2010-07-31T06:15:39Z</time></trkpt>
<trkpt lat="45.83007000" lon="4.78395500"><ele>448.8999939432</ele><time>2010-07-31T06:15:41Z</time></trkpt>
<trkpt lat="45.83012500" lon="4.78390300"><ele>449.3999939592</ele><time>2010-07-31T06:15:44Z</time></trkpt>
<trkpt lat="45.83016400" lon="4.78385900"><ele>449.799987876</ele><time>2010-07-31T06:15:46Z</time></trkpt>
<trkpt lat="45.83019900" lon="4.78380700"><ele>449.8999939752</ele><time>2010-07-31T06:15:48Z</time></trkpt>
<trkpt lat="45.83023400" lon="4.78375600"><ele>449.8999939752</ele><time>2010-07-31T06:15:50Z</time></trkpt>
<trkpt lat="45.83025900" lon="4.78369100"><ele>450.0000000744</ele><time>2010-07-31T06:15:52Z</time></trkpt>
<trkpt lat="45.83028500" lon="4.78362200"><ele>450.3999939912</ele><time>2010-07-31T06:15:54Z</time></trkpt>
<trkpt lat="45.83030600" lon="4.78354900"><ele>450.8999940072</ele><time>2010-07-31T06:15:56Z</time></trkpt>
<trkpt lat="45.83032100" lon="4.78348300"><ele>451.1000062056</ele><time>2010-07-31T06:15:58Z</time></trkpt>
<trkpt lat="45.83033000" lon="4.78341600"><ele>451.5000001224</ele><time>2010-07-31T06:16:00Z</time></trkpt>
<trkpt lat="45.83033400" lon="4.78331600"><ele>451.5000001224</ele><time>2010-07-31T06:16:03Z</time></trkpt>
<trkpt lat="45.83033100" lon="4.78324800"><ele>451.6000062216</ele><time>2010-07-31T06:16:05Z</time></trkpt>
<trkpt lat="45.83031900" lon="4.78318200"><ele>451.7000123208</ele><time>2010-07-31T06:16:07Z</time></trkpt>
<trkpt lat="45.83030000" lon="4.78308600"><ele>452.2000123368</ele><time>2010-07-31T06:16:10Z</time></trkpt>
<trkpt lat="45.83028300" lon="4.78302000"><ele>452.2999876512</ele><time>2010-07-31T06:16:12Z</time></trkpt>
<trkpt lat="45.83026200" lon="4.78295300"><ele>452.3999937504</ele><time>2010-07-31T06:16:14Z</time></trkpt>
<trkpt lat="45.83024000" lon="4.78288800"><ele>452.7000123528</ele><time>2010-07-31T06:16:16Z</time></trkpt>
<trkpt lat="45.83021100" lon="4.78283000"><ele>452.7999876672</ele><time>2010-07-31T06:16:18Z</time></trkpt>
<trkpt lat="45.83017900" lon="4.78277100"><ele>453.1000059648</ele><time>2010-07-31T06:16:20Z</time></trkpt>
<trkpt lat="45.83014500" lon="4.78271400"><ele>453.2999876832</ele><time>2010-07-31T06:16:22Z</time></trkpt>
<trkpt lat="45.83011800" lon="4.78265100"><ele>453.3999937824</ele><time>2010-07-31T06:16:24Z</time></trkpt>
<trkpt lat="45.83008800" lon="4.78259200"><ele>453.6000059808</ele><time>2010-07-31T06:16:26Z</time></trkpt>
<trkpt lat="45.83006200" lon="4.78252200"><ele>453.6000059808</ele><time>2010-07-31T06:16:28Z</time></trkpt>
<trkpt lat="45.83003800" lon="4.78246100"><ele>453.70001208</ele><time>2010-07-31T06:16:30Z</time></trkpt>
<trkpt lat="45.83001500" lon="4.78240100"><ele>453.9999998976</ele><time>2010-07-31T06:16:32Z</time></trkpt>
<trkpt lat="45.83000000" lon="4.78233900"><ele>454.2999877152</ele><time>2010-07-31T06:16:34Z</time></trkpt>
<trkpt lat="45.82998700" lon="4.78227300"><ele>454.4999999136</ele><time>2010-07-31T06:16:36Z</time></trkpt>
<trkpt lat="45.82998000" lon="4.78219300"><ele>455.200012128</ele><time>2010-07-31T06:16:39Z</time></trkpt>
<trkpt lat="45.82998200" lon="4.78211500"><ele>455.7999877632</ele><time>2010-07-31T06:16:42Z</time></trkpt>
<trkpt lat="45.82998900" lon="4.78203900"><ele>455.8999938624</ele><time>2010-07-31T06:16:45Z</time></trkpt>
<trkpt lat="45.83002100" lon="4.78198200"><ele>455.8999938624</ele><time>2010-07-31T06:16:48Z</time></trkpt>
<trkpt lat="45.83006600" lon="4.78197500"><ele>456.4999999776</ele><time>2010-07-31T06:16:51Z</time></trkpt>
<trkpt lat="45.83009400" lon="4.78203300"><ele>456.9999999936</ele><time>2010-07-31T06:16:54Z</time></trkpt>
<trkpt lat="45.83013500" lon="4.78206400"><ele>457.8999939264</ele><time>2010-07-31T06:16:57Z</time></trkpt>
<trkpt lat="45.83017300" lon="4.78211300"><ele>458.8999939584</ele><time>2010-07-31T06:17:00Z</time></trkpt>
<trkpt lat="45.83020800" lon="4.78215700"><ele>459.7999878912</ele><time>2010-07-31T06:17:03Z</time></trkpt>
<trkpt lat="45.83024900" lon="4.78218900"><ele>460.5000001056</ele><time>2010-07-31T06:17:06Z</time></trkpt>
<trkpt lat="45.83028900" lon="4.78223200"><ele>461.0000001216</ele><time>2010-07-31T06:17:09Z</time></trkpt>
<trkpt lat="45.83032700" lon="4.78227900"><ele>461.3999940384</ele><time>2010-07-31T06:17:12Z</time></trkpt>
<trkpt lat="45.83036900" lon="4.78231500"><ele>461.9999998488</ele><time>2010-07-31T06:17:15Z</time></trkpt>
<trkpt lat="45.83041100" lon="4.78234600"><ele>462.600005964</ele><time>2010-07-31T06:17:18Z</time></trkpt>
<trkpt lat="45.83045100" lon="4.78237700"><ele>462.7000120632</ele><time>2010-07-31T06:17:21Z</time></trkpt>
<trkpt lat="45.83049300" lon="4.78240700"><ele>462.2999876664</ele><time>2010-07-31T06:17:24Z</time></trkpt>
<trkpt lat="45.83053900" lon="4.78243500"><ele>462.9999998808</ele><time>2010-07-31T06:17:27Z</time></trkpt>
<trkpt lat="45.83058100" lon="4.78246000"><ele>463.3999937976</ele><time>2010-07-31T06:17:30Z</time></trkpt>
<trkpt lat="45.83063100" lon="4.78249300"><ele>464.600006028</ele><time>2010-07-31T06:17:34Z</time></trkpt>
<trkpt lat="45.83067200" lon="4.78252200"><ele>464.7999877464</ele><time>2010-07-31T06:17:37Z</time></trkpt>
<trkpt lat="45.83072200" lon="4.78254600"><ele>465.3999938616</ele><time>2010-07-31T06:17:41Z</time></trkpt>
<trkpt lat="45.83076100" lon="4.78257700"><ele>465.9999999768</ele><time>2010-07-31T06:17:44Z</time></trkpt>
<trkpt lat="45.83080300" lon="4.78260200"><ele>466.8999939096</ele><time>2010-07-31T06:17:47Z</time></trkpt>
<trkpt lat="45.83085100" lon="4.78263900"><ele>467.600006124</ele><time>2010-07-31T06:17:51Z</time></trkpt>
<trkpt lat="45.83089900" lon="4.78268500"><ele>468.10000614</ele><time>2010-07-31T06:17:55Z</time></trkpt>
<trkpt lat="45.83095100" lon="4.78271500"><ele>468.600006156</ele><time>2010-07-31T06:17:59Z</time></trkpt>
<trkpt lat="45.83099800" lon="4.78275800"><ele>469.600006188</ele><time>2010-07-31T06:18:03Z</time></trkpt>
<trkpt lat="45.83105000" lon="4.78279100"><ele>470.2000123032</ele><time>2010-07-31T06:18:07Z</time></trkpt>
<trkpt lat="45.83110700" lon="4.78280200"><ele>471.2999876496</ele><time>2010-07-31T06:18:11Z</time></trkpt>
<trkpt lat="45.83116300" lon="4.78280500"><ele>471.7999876656</ele><time>2010-07-31T06:18:15Z</time></trkpt>
<trkpt lat="45.83121300" lon="4.78280600"><ele>472.7000120784</ele><time>2010-07-31T06:18:19Z</time></trkpt>
<trkpt lat="45.83125700" lon="4.78278600"><ele>473.7999877296</ele><time>2010-07-31T06:18:23Z</time></trkpt>
<trkpt lat="45.83130600" lon="4.78276000"><ele>474.3999938448</ele><time>2010-07-31T06:18:27Z</time></trkpt>
<trkpt lat="45.83135300" lon="4.78274500"><ele>474.2000121264</ele><time>2010-07-31T06:18:31Z</time></trkpt>
<trkpt lat="45.83140400" lon="4.78275900"><ele>473.8999938288</ele><time>2010-07-31T06:18:35Z</time></trkpt>
<trkpt lat="45.83144800" lon="4.78274300"><ele>475.1000060592</ele><time>2010-07-31T06:18:41Z</time></trkpt>
<trkpt lat="45.83149800" lon="4.78276400"><ele>474.7999877616</ele><time>2010-07-31T06:18:44Z</time></trkpt>
<trkpt lat="45.83153600" lon="4.78272500"><ele>475.2000121584</ele><time>2010-07-31T06:18:47Z</time></trkpt>
<trkpt lat="45.83159400" lon="4.78270000"><ele>477.1000061232</ele><time>2010-07-31T06:18:50Z</time></trkpt>
<trkpt lat="45.83164000" lon="4.78267700"><ele>478.7000122704</ele><time>2010-07-31T06:18:53Z</time></trkpt>
<trkpt lat="45.83168600" lon="4.78267100"><ele>479.3999940048</ele><time>2010-07-31T06:18:56Z</time></trkpt>
<trkpt lat="45.83174200" lon="4.78268400"><ele>480.3999940368</ele><time>2010-07-31T06:19:00Z</time></trkpt>
<trkpt lat="45.83179200" lon="4.78268000"><ele>480.899993748</ele><time>2010-07-31T06:19:04Z</time></trkpt>
<trkpt lat="45.83184800" lon="4.78269000"><ele>482.1000059784</ele><time>2010-07-31T06:19:08Z</time></trkpt>
<trkpt lat="45.83189800" lon="4.78269600"><ele>482.899993812</ele><time>2010-07-31T06:19:11Z</time></trkpt>
<trkpt lat="45.83194400" lon="4.78269200"><ele>483.4999999272</ele><time>2010-07-31T06:19:14Z</time></trkpt>
<trkpt lat="45.83199300" lon="4.78269500"><ele>484.4999999592</ele><time>2010-07-31T06:19:17Z</time></trkpt>
<trkpt lat="45.83204600" lon="4.78270100"><ele>485.399993892</ele><time>2010-07-31T06:19:20Z</time></trkpt>
<trkpt lat="45.83209800" lon="4.78273300"><ele>486.0000000072</ele><time>2010-07-31T06:19:24Z</time></trkpt>
<trkpt lat="45.83214300" lon="4.78276100"><ele>486.0000000072</ele><time>2010-07-31T06:19:27Z</time></trkpt>
<trkpt lat="45.83219900" lon="4.78276700"><ele>486.1000061064</ele><time>2010-07-31T06:19:30Z</time></trkpt>
<trkpt lat="45.83226000" lon="4.78279200"><ele>486.399993924</ele><time>2010-07-31T06:19:33Z</time></trkpt>
<trkpt lat="45.83230200" lon="4.78282100"><ele>486.6000061224</ele><time>2010-07-31T06:19:35Z</time></trkpt>
<trkpt lat="45.83236000" lon="4.78285800"><ele>487.2000122376</ele><time>2010-07-31T06:19:38Z</time></trkpt>
<trkpt lat="45.83241400" lon="4.78288900"><ele>487.899993972</ele><time>2010-07-31T06:19:41Z</time></trkpt>
<trkpt lat="45.83246500" lon="4.78290400"><ele>488.7000122856</ele><time>2010-07-31T06:19:44Z</time></trkpt>
<trkpt lat="45.83251300" lon="4.78291800"><ele>489.39999402</ele><time>2010-07-31T06:19:47Z</time></trkpt>
<trkpt lat="45.83256900" lon="4.78293600"><ele>490.299987648</ele><time>2010-07-31T06:19:51Z</time></trkpt>
<trkpt lat="45.83261700" lon="4.78296200"><ele>491.6000059776</ele><time>2010-07-31T06:19:55Z</time></trkpt>
<trkpt lat="45.83264300" lon="4.78303400"><ele>491.8999937952</ele><time>2010-07-31T06:19:59Z</time></trkpt>
<trkpt lat="45.83266200" lon="4.78311000"><ele>492.4999999104</ele><time>2010-07-31T06:20:03Z</time></trkpt>
<trkpt lat="45.83266400" lon="4.78319300"><ele>492.9999999264</ele><time>2010-07-31T06:20:07Z</time></trkpt>
<trkpt lat="45.83267100" lon="4.78327300"><ele>493.9999999584</ele><time>2010-07-31T06:20:11Z</time></trkpt>
<trkpt lat="45.83266800" lon="4.78335600"><ele>494.799987792</ele><time>2010-07-31T06:20:15Z</time></trkpt>
<trkpt lat="45.83264800" lon="4.78343300"><ele>495.6000061056</ele><time>2010-07-31T06:20:19Z</time></trkpt>
<trkpt lat="45.83263500" lon="4.78351300"><ele>496.1000061216</ele><time>2010-07-31T06:20:22Z</time></trkpt>
<trkpt lat="45.83261400" lon="4.78358200"><ele>498.0000000864</ele><time>2010-07-31T06:20:25Z</time></trkpt>
<trkpt lat="45.83259400" lon="4.78365300"><ele>498.299987904</ele><time>2010-07-31T06:20:28Z</time></trkpt>
<trkpt lat="45.83256900" lon="4.78372300"><ele>498.3999940032</ele><time>2010-07-31T06:20:31Z</time></trkpt>
<trkpt lat="45.83254800" lon="4.78378600"><ele>499.1000062176</ele><time>2010-07-31T06:20:34Z</time></trkpt>
<trkpt lat="45.83252300" lon="4.78387000"><ele>499.299987936</ele><time>2010-07-31T06:20:37Z</time></trkpt>
<trkpt lat="45.83249900" lon="4.78395800"><ele>499.3999940352</ele><time>2010-07-31T06:20:40Z</time></trkpt>
<trkpt lat="45.83247300" lon="4.78403900"><ele>499.5000001344</ele><time>2010-07-31T06:20:43Z</time></trkpt>
<trkpt lat="45.83245300" lon="4.78412600"><ele>499.7000123328</ele><time>2010-07-31T06:20:46Z</time></trkpt>
<trkpt lat="45.83242800" lon="4.78418500"><ele>499.8999937464</ele><time>2010-07-31T06:20:48Z</time></trkpt>
<trkpt lat="45.83240300" lon="4.78425600"><ele>500.2999876632</ele><time>2010-07-31T06:20:50Z</time></trkpt>
<trkpt lat="45.83237000" lon="4.78434000"><ele>500.2000123488</ele><time>2010-07-31T06:20:52Z</time></trkpt>
<trkpt lat="45.83231700" lon="4.78442200"><ele>500.2999876632</ele><time>2010-07-31T06:20:54Z</time></trkpt>
<trkpt lat="45.83224000" lon="4.78449900"><ele>500.2999876632</ele><time>2010-07-31T06:20:56Z</time></trkpt>
<trkpt lat="45.83220100" lon="4.78453800"><ele>500.2000123488</ele><time>2010-07-31T06:20:57Z</time></trkpt>
<trkpt lat="45.83212200" lon="4.78460200"><ele>500.1000062496</ele><time>2010-07-31T06:20:59Z</time></trkpt>
<trkpt lat="45.83207700" lon="4.78463500"><ele>500.1000062496</ele><time>2010-07-31T06:21:00Z</time></trkpt>
<trkpt lat="45.83203700" lon="4.78467300"><ele>500.1000062496</ele><time>2010-07-31T06:21:01Z</time></trkpt>
<trkpt lat="45.83199400" lon="4.78470300"><ele>500.0000001504</ele><time>2010-07-31T06:21:02Z</time></trkpt>
<trkpt lat="45.83194800" lon="4.78476100"><ele>499.8999937464</ele><time>2010-07-31T06:21:03Z</time></trkpt>
<trkpt lat="45.83191700" lon="4.78481200"><ele>499.7999876472</ele><time>2010-07-31T06:21:04Z</time></trkpt>
<trkpt lat="45.83188900" lon="4.78486900"><ele>499.6000062336</ele><time>2010-07-31T06:21:05Z</time></trkpt>
<trkpt lat="45.83180600" lon="4.78496300"><ele>499.299987936</ele><time>2010-07-31T06:21:07Z</time></trkpt>
<trkpt lat="45.83175700" lon="4.78506400"><ele>499.299987936</ele><time>2010-07-31T06:21:09Z</time></trkpt>
<trkpt lat="45.83172100" lon="4.78511600"><ele>499.3999940352</ele><time>2010-07-31T06:21:10Z</time></trkpt>
<trkpt lat="45.83165400" lon="4.78518100"><ele>499.7000123328</ele><time>2010-07-31T06:21:12Z</time></trkpt>
<trkpt lat="45.83160700" lon="4.78520500"><ele>499.7000123328</ele><time>2010-07-31T06:21:13Z</time></trkpt>
<trkpt lat="45.83152800" lon="4.78521500"><ele>500.6000059608</ele><time>2010-07-31T06:21:15Z</time></trkpt>
<trkpt lat="45.83145400" lon="4.78523900"><ele>500.70001206</ele><time>2010-07-31T06:21:17Z</time></trkpt>
<trkpt lat="45.83139200" lon="4.78527800"><ele>500.2000123488</ele><time>2010-07-31T06:21:19Z</time></trkpt>
<trkpt lat="45.83132800" lon="4.78531000"><ele>500.2000123488</ele><time>2010-07-31T06:21:21Z</time></trkpt>
<trkpt lat="45.83126500" lon="4.78536100"><ele>499.8999937464</ele><time>2010-07-31T06:21:23Z</time></trkpt>
<trkpt lat="45.83120900" lon="4.78541900"><ele>499.6000062336</ele><time>2010-07-31T06:21:25Z</time></trkpt>
<trkpt lat="45.83115500" lon="4.78545400"><ele>499.299987936</ele><time>2010-07-31T06:21:27Z</time></trkpt>
<trkpt lat="45.83113400" lon="4.78551700"><ele>501.200012076</ele><time>2010-07-31T06:21:30Z</time></trkpt>
<trkpt lat="45.83110800" lon="4.78557500"><ele>502.2999877272</ele><time>2010-07-31T06:21:32Z</time></trkpt>
<trkpt lat="45.83106000" lon="4.78563400"><ele>503.1000060408</ele><time>2010-07-31T06:21:35Z</time></trkpt>
<trkpt lat="45.83101400" lon="4.78568800"><ele>503.3999938584</ele><time>2010-07-31T06:21:38Z</time></trkpt>
<trkpt lat="45.83097100" lon="4.78574100"><ele>504.7999878072</ele><time>2010-07-31T06:21:41Z</time></trkpt>
<trkpt lat="45.83093900" lon="4.78581200"><ele>505.0000000056</ele><time>2010-07-31T06:21:44Z</time></trkpt>
<trkpt lat="45.83090600" lon="4.78586400"><ele>505.3999939224</ele><time>2010-07-31T06:21:47Z</time></trkpt>
<trkpt lat="45.83087400" lon="4.78592600"><ele>506.7999878712</ele><time>2010-07-31T06:21:50Z</time></trkpt>
<trkpt lat="45.83084600" lon="4.78598900"><ele>505.70001222</ele><time>2010-07-31T06:21:53Z</time></trkpt>
<trkpt lat="45.83082300" lon="4.78606900"><ele>505.6000061208</ele><time>2010-07-31T06:21:56Z</time></trkpt>
<trkpt lat="45.83078000" lon="4.78612800"><ele>506.7999878712</ele><time>2010-07-31T06:21:59Z</time></trkpt>
<trkpt lat="45.83074600" lon="4.78620600"><ele>507.5000000856</ele><time>2010-07-31T06:22:02Z</time></trkpt>
<trkpt lat="45.83071000" lon="4.78626600"><ele>507.200012268</ele><time>2010-07-31T06:22:04Z</time></trkpt>
<trkpt lat="45.83067300" lon="4.78632900"><ele>507.2999878872</ele><time>2010-07-31T06:22:06Z</time></trkpt>
<trkpt lat="45.83063200" lon="4.78640300"><ele>507.700012284</ele><time>2010-07-31T06:22:08Z</time></trkpt>
<trkpt lat="45.83059100" lon="4.78647800"><ele>508.1000062008</ele><time>2010-07-31T06:22:10Z</time></trkpt>
<trkpt lat="45.83054300" lon="4.78657000"><ele>508.2000123</ele><time>2010-07-31T06:22:12Z</time></trkpt>
<trkpt lat="45.83049100" lon="4.78667600"><ele>508.2000123</ele><time>2010-07-31T06:22:14Z</time></trkpt>
<trkpt lat="45.83046000" lon="4.78674400"><ele>507.8999940024</ele><time>2010-07-31T06:22:15Z</time></trkpt>
<trkpt lat="45.83043700" lon="4.78681300"><ele>508.0000001016</ele><time>2010-07-31T06:22:16Z</time></trkpt>
<trkpt lat="45.83041100" lon="4.78687500"><ele>507.7999879032</ele><time>2010-07-31T06:22:17Z</time></trkpt>
<trkpt lat="45.83038600" lon="4.78693300"><ele>507.700012284</ele><time>2010-07-31T06:22:18Z</time></trkpt>
<trkpt lat="45.83035400" lon="4.78699500"><ele>507.6000061848</ele><time>2010-07-31T06:22:19Z</time></trkpt>
<trkpt lat="45.83033200" lon="4.78705500"><ele>507.6000061848</ele><time>2010-07-31T06:22:20Z</time></trkpt>
<trkpt lat="45.83030200" lon="4.78710900"><ele>507.5000000856</ele><time>2010-07-31T06:22:21Z</time></trkpt>
<trkpt lat="45.83027300" lon="4.78717100"><ele>507.5000000856</ele><time>2010-07-31T06:22:22Z</time></trkpt>
<trkpt lat="45.83024700" lon="4.78723600"><ele>507.6000061848</ele><time>2010-07-31T06:22:23Z</time></trkpt>
<trkpt lat="45.83021900" lon="4.78729800"><ele>507.3999939864</ele><time>2010-07-31T06:22:24Z</time></trkpt>
<trkpt lat="45.83018200" lon="4.78735600"><ele>508.2000123</ele><time>2010-07-31T06:22:25Z</time></trkpt>
<trkpt lat="45.83015000" lon="4.78741100"><ele>508.7999879352</ele><time>2010-07-31T06:22:26Z</time></trkpt>
<trkpt lat="45.83011500" lon="4.78747400"><ele>509.1000062328</ele><time>2010-07-31T06:22:27Z</time></trkpt>
<trkpt lat="45.83008000" lon="4.78753100"><ele>509.0000001336</ele><time>2010-07-31T06:22:28Z</time></trkpt>
<trkpt lat="45.83005100" lon="4.78758100"><ele>508.8999940344</ele><time>2010-07-31T06:22:29Z</time></trkpt>
<trkpt lat="45.83000800" lon="4.78763900"><ele>508.7999879352</ele><time>2010-07-31T06:22:30Z</time></trkpt>
<trkpt lat="45.82997000" lon="4.78768700"><ele>508.2000123</ele><time>2010-07-31T06:22:31Z</time></trkpt>
<trkpt lat="45.82992500" lon="4.78772900"><ele>509.3999937456</ele><time>2010-07-31T06:22:32Z</time></trkpt>
<trkpt lat="45.82988300" lon="4.78776500"><ele>510.10000596</ele><time>2010-07-31T06:22:33Z</time></trkpt>
<trkpt lat="45.82984700" lon="4.78780900"><ele>509.9999998608</ele><time>2010-07-31T06:22:34Z</time></trkpt>
<trkpt lat="45.82980500" lon="4.78786400"><ele>509.8999937616</ele><time>2010-07-31T06:22:35Z</time></trkpt>
<trkpt lat="45.82976100" lon="4.78791100"><ele>509.7999876624</ele><time>2010-07-31T06:22:36Z</time></trkpt>
<trkpt lat="45.82970200" lon="4.78797100"><ele>510.10000596</ele><time>2010-07-31T06:22:38Z</time></trkpt>
<trkpt lat="45.82963500" lon="4.78801600"><ele>510.600005976</ele><time>2010-07-31T06:22:40Z</time></trkpt>
<trkpt lat="45.82957800" lon="4.78806600"><ele>510.7999876944</ele><time>2010-07-31T06:22:42Z</time></trkpt>
<trkpt lat="45.82952900" lon="4.78811500"><ele>510.7999876944</ele><time>2010-07-31T06:22:44Z</time></trkpt>
<trkpt lat="45.82948500" lon="4.78815900"><ele>510.8999937936</ele><time>2010-07-31T06:22:46Z</time></trkpt>
<trkpt lat="45.82944200" lon="4.78820300"><ele>510.9999998928</ele><time>2010-07-31T06:22:48Z</time></trkpt>
<trkpt lat="45.82940200" lon="4.78826000"><ele>511.600006008</ele><time>2010-07-31T06:22:51Z</time></trkpt>
<trkpt lat="45.82936300" lon="4.78835600"><ele>510.9999998928</ele><time>2010-07-31T06:22:54Z</time></trkpt>
<trkpt lat="45.82933300" lon="4.78842600"><ele>510.7000120752</ele><time>2010-07-31T06:22:56Z</time></trkpt>
<trkpt lat="45.82930900" lon="4.78849300"><ele>511.100005992</ele><time>2010-07-31T06:22:58Z</time></trkpt>
<trkpt lat="45.82927300" lon="4.78855300"><ele>514.2999878064</ele><time>2010-07-31T06:23:01Z</time></trkpt>
<trkpt lat="45.82924200" lon="4.78862000"><ele>515.7999878544</ele><time>2010-07-31T06:23:04Z</time></trkpt>
<trkpt lat="45.82922300" lon="4.78868900"><ele>513.2999877744</ele><time>2010-07-31T06:23:06Z</time></trkpt>
<trkpt lat="45.82918700" lon="4.78874600"><ele>513.7999877904</ele><time>2010-07-31T06:23:09Z</time></trkpt>
<trkpt lat="45.82915200" lon="4.78880200"><ele>513.9000243696</ele><time>2010-07-31T06:23:12Z</time></trkpt>
<trkpt lat="45.82911100" lon="4.78883400"><ele>514.099975608</ele><time>2010-07-31T06:23:14Z</time></trkpt>
<trkpt lat="45.82906800" lon="4.78888900"><ele>517.099975704</ele><time>2010-07-31T06:23:17Z</time></trkpt>
<trkpt lat="45.82903200" lon="4.78894800"><ele>518.7999876456</ele><time>2010-07-31T06:23:20Z</time></trkpt>
<trkpt lat="45.82899500" lon="4.78900100"><ele>518.0000001168</ele><time>2010-07-31T06:23:23Z</time></trkpt>
<trkpt lat="45.82895200" lon="4.78904400"><ele>518.9000245296</ele><time>2010-07-31T06:23:26Z</time></trkpt>
<trkpt lat="45.82891100" lon="4.78909600"><ele>518.9000245296</ele><time>2010-07-31T06:23:29Z</time></trkpt>
<trkpt lat="45.82886600" lon="4.78915800"><ele>517.9000244976</ele><time>2010-07-31T06:23:32Z</time></trkpt>
<trkpt lat="45.82881400" lon="4.78920700"><ele>516.4000244496</ele><time>2010-07-31T06:23:35Z</time></trkpt>
<trkpt lat="45.82876900" lon="4.78923100"><ele>517.7000122992</ele><time>2010-07-31T06:23:38Z</time></trkpt>
<trkpt lat="45.82873000" lon="4.78929100"><ele>518.4000245136</ele><time>2010-07-31T06:23:41Z</time></trkpt>
<trkpt lat="45.82869500" lon="4.78934700"><ele>518.5000001328</ele><time>2010-07-31T06:23:44Z</time></trkpt>
<trkpt lat="45.82865700" lon="4.78940000"><ele>518.4000245136</ele><time>2010-07-31T06:23:47Z</time></trkpt>
<trkpt lat="45.82862100" lon="4.78944800"><ele>518.099975736</ele><time>2010-07-31T06:23:50Z</time></trkpt>
<trkpt lat="45.82858300" lon="4.78949600"><ele>518.5000001328</ele><time>2010-07-31T06:23:53Z</time></trkpt>
<trkpt lat="45.82854400" lon="4.78953700"><ele>518.5999754472</ele><time>2010-07-31T06:23:56Z</time></trkpt>
<trkpt lat="45.82851500" lon="4.78960200"><ele>518.7999876456</ele><time>2010-07-31T06:23:59Z</time></trkpt>
<trkpt lat="45.82847800" lon="4.78965900"><ele>518.9000245296</ele><time>2010-07-31T06:24:02Z</time></trkpt>
<trkpt lat="45.82844400" lon="4.78972100"><ele>518.9000245296</ele><time>2010-07-31T06:24:05Z</time></trkpt>
<trkpt lat="45.82839500" lon="4.78977700"><ele>518.7999876456</ele><time>2010-07-31T06:24:08Z</time></trkpt>
<trkpt lat="45.82835900" lon="4.78983900"><ele>518.9000245296</ele><time>2010-07-31T06:24:10Z</time></trkpt>
<trkpt lat="45.82831500" lon="4.78991500"><ele>519.2000123472</ele><time>2010-07-31T06:24:12Z</time></trkpt>
<trkpt lat="45.82827100" lon="4.79000800"><ele>518.7999876456</ele><time>2010-07-31T06:24:14Z</time></trkpt>
<trkpt lat="45.82822300" lon="4.79009500"><ele>517.7999879184</ele><time>2010-07-31T06:24:16Z</time></trkpt>
<trkpt lat="45.82818500" lon="4.79018800"><ele>518.2999879344</ele><time>2010-07-31T06:24:18Z</time></trkpt>
<trkpt lat="45.82816600" lon="4.79025600"><ele>516.4000244496</ele><time>2010-07-31T06:24:19Z</time></trkpt>
<trkpt lat="45.82814500" lon="4.79036000"><ele>516.7999878864</ele><time>2010-07-31T06:24:21Z</time></trkpt>
<trkpt lat="45.82815800" lon="4.79047800"><ele>516.0000000528</ele><time>2010-07-31T06:24:23Z</time></trkpt>
<trkpt lat="45.82818400" lon="4.79059800"><ele>515.2999878384</ele><time>2010-07-31T06:24:25Z</time></trkpt>
<trkpt lat="45.82821300" lon="4.79073800"><ele>513.9000243696</ele><time>2010-07-31T06:24:27Z</time></trkpt>
<trkpt lat="45.82822600" lon="4.79082100"><ele>513.4999999728</ele><time>2010-07-31T06:24:28Z</time></trkpt>
<trkpt lat="45.82823900" lon="4.79090400"><ele>512.9999999568</ele><time>2010-07-31T06:24:29Z</time></trkpt>
<trkpt lat="45.82826200" lon="4.79099000"><ele>512.7000121392</ele><time>2010-07-31T06:24:30Z</time></trkpt>
<trkpt lat="45.82828700" lon="4.79107500"><ele>512.2000121232</ele><time>2010-07-31T06:24:31Z</time></trkpt>
<trkpt lat="45.82831700" lon="4.79115700"><ele>512.2000121232</ele><time>2010-07-31T06:24:32Z</time></trkpt>
<trkpt lat="45.82835200" lon="4.79124000"><ele>512.2000121232</ele><time>2010-07-31T06:24:33Z</time></trkpt>
<trkpt lat="45.82838100" lon="4.79132000"><ele>511.9999999248</ele><time>2010-07-31T06:24:34Z</time></trkpt>
<trkpt lat="45.82842100" lon="4.79140500"><ele>511.9999999248</ele><time>2010-07-31T06:24:35Z</time></trkpt>
<trkpt lat="45.82845500" lon="4.79148200"><ele>511.7999877264</ele><time>2010-07-31T06:24:36Z</time></trkpt>
<trkpt lat="45.82845400" lon="4.79156500"><ele>512.2000121232</ele><time>2010-07-31T06:24:37Z</time></trkpt>
<trkpt lat="45.82846600" lon="4.79165700"><ele>512.4000243216</ele><time>2010-07-31T06:24:38Z</time></trkpt>
<trkpt lat="45.82848600" lon="4.79173400"><ele>512.7000121392</ele><time>2010-07-31T06:24:39Z</time></trkpt>
<trkpt lat="45.82850400" lon="4.79181000"><ele>512.9000243376</ele><time>2010-07-31T06:24:40Z</time></trkpt>
<trkpt lat="45.82852600" lon="4.79188100"><ele>513.099975576</ele><time>2010-07-31T06:24:41Z</time></trkpt>
<trkpt lat="45.82854500" lon="4.79194200"><ele>513.4000243536</ele><time>2010-07-31T06:24:42Z</time></trkpt>
<trkpt lat="45.82856500" lon="4.79201200"><ele>513.4999999728</ele><time>2010-07-31T06:24:43Z</time></trkpt>
<trkpt lat="45.82859600" lon="4.79212200"><ele>514.2999878064</ele><time>2010-07-31T06:24:45Z</time></trkpt>
<trkpt lat="45.82862600" lon="4.79222800"><ele>514.9000244016</ele><time>2010-07-31T06:24:47Z</time></trkpt>
<trkpt lat="45.82865400" lon="4.79232500"><ele>515.4000244176</ele><time>2010-07-31T06:24:49Z</time></trkpt>
<trkpt lat="45.82868100" lon="4.79241400"><ele>515.599975656</ele><time>2010-07-31T06:24:51Z</time></trkpt>
<trkpt lat="45.82871200" lon="4.79249300"><ele>515.7000122352</ele><time>2010-07-31T06:24:53Z</time></trkpt>
<trkpt lat="45.82873700" lon="4.79257300"><ele>516.0000000528</ele><time>2010-07-31T06:24:55Z</time></trkpt>
<trkpt lat="45.82874600" lon="4.79264500"><ele>516.2999878704</ele><time>2010-07-31T06:24:57Z</time></trkpt>
<trkpt lat="45.82876600" lon="4.79271400"><ele>516.099975672</ele><time>2010-07-31T06:24:59Z</time></trkpt>
<trkpt lat="45.82879200" lon="4.79279700"><ele>515.5000000368</ele><time>2010-07-31T06:25:01Z</time></trkpt>
<trkpt lat="45.82883400" lon="4.79289500"><ele>515.4000244176</ele><time>2010-07-31T06:25:03Z</time></trkpt>
<trkpt lat="45.82885700" lon="4.79295100"><ele>515.0000000208</ele><time>2010-07-31T06:25:04Z</time></trkpt>
<trkpt lat="45.82888000" lon="4.79301400"><ele>514.599975624</ele><time>2010-07-31T06:25:05Z</time></trkpt>
<trkpt lat="45.82890700" lon="4.79307500"><ele>514.2000121872</ele><time>2010-07-31T06:25:06Z</time></trkpt>
<trkpt lat="45.82894000" lon="4.79315200"><ele>513.9000243696</ele><time>2010-07-31T06:25:07Z</time></trkpt>
<trkpt lat="45.82898000" lon="4.79322400"><ele>513.2000121552</ele><time>2010-07-31T06:25:08Z</time></trkpt>
<trkpt lat="45.82901700" lon="4.79329400"><ele>512.59997556</ele><time>2010-07-31T06:25:09Z</time></trkpt>
<trkpt lat="45.82905500" lon="4.79338500"><ele>511.7999877264</ele><time>2010-07-31T06:25:10Z</time></trkpt>
<trkpt lat="45.82909000" lon="4.79347200"><ele>510.9999998928</ele><time>2010-07-31T06:25:11Z</time></trkpt>
<trkpt lat="45.82911200" lon="4.79356500"><ele>509.8999937616</ele><time>2010-07-31T06:25:12Z</time></trkpt>
<trkpt lat="45.82913100" lon="4.79366000"><ele>509.3999937456</ele><time>2010-07-31T06:25:13Z</time></trkpt>
<trkpt lat="45.82911200" lon="4.79376800"><ele>508.5000001176</ele><time>2010-07-31T06:25:14Z</time></trkpt>
<trkpt lat="45.82909300" lon="4.79387600"><ele>508.1000062008</ele><time>2010-07-31T06:25:15Z</time></trkpt>
<trkpt lat="45.82906900" lon="4.79397700"><ele>507.3999939864</ele><time>2010-07-31T06:25:16Z</time></trkpt>
<trkpt lat="45.82904700" lon="4.79405800"><ele>506.8999939704</ele><time>2010-07-31T06:25:17Z</time></trkpt>
<trkpt lat="45.82901700" lon="4.79412500"><ele>506.5000000536</ele><time>2010-07-31T06:25:18Z</time></trkpt>
<trkpt lat="45.82899300" lon="4.79418400"><ele>506.0000000376</ele><time>2010-07-31T06:25:19Z</time></trkpt>
<trkpt lat="45.82898400" lon="4.79424800"><ele>505.5000000216</ele><time>2010-07-31T06:25:20Z</time></trkpt>
<trkpt lat="45.82900000" lon="4.79431100"><ele>505.2999878232</ele><time>2010-07-31T06:25:21Z</time></trkpt>
<trkpt lat="45.82908000" lon="4.79437200"><ele>505.200012204</ele><time>2010-07-31T06:25:23Z</time></trkpt>
<trkpt lat="45.82916200" lon="4.79436800"><ele>504.8999939064</ele><time>2010-07-31T06:25:25Z</time></trkpt>
<trkpt lat="45.82924500" lon="4.79435100"><ele>505.2999878232</ele><time>2010-07-31T06:25:27Z</time></trkpt>
<trkpt lat="45.82932200" lon="4.79434100"><ele>505.6000061208</ele><time>2010-07-31T06:25:29Z</time></trkpt>
<trkpt lat="45.82940000" lon="4.79432500"><ele>505.5000000216</ele><time>2010-07-31T06:25:31Z</time></trkpt>
<trkpt lat="45.82947300" lon="4.79431500"><ele>505.6000061208</ele><time>2010-07-31T06:25:33Z</time></trkpt>
<trkpt lat="45.82953900" lon="4.79429900"><ele>505.7999878392</ele><time>2010-07-31T06:25:35Z</time></trkpt>
<trkpt lat="45.82960500" lon="4.79428800"><ele>506.0000000376</ele><time>2010-07-31T06:25:37Z</time></trkpt>
<trkpt lat="45.82966600" lon="4.79428000"><ele>506.1000061368</ele><time>2010-07-31T06:25:39Z</time></trkpt>
<trkpt lat="45.82972600" lon="4.79427300"><ele>506.2999878552</ele><time>2010-07-31T06:25:41Z</time></trkpt>
<trkpt lat="45.82978800" lon="4.79425800"><ele>506.3999939544</ele><time>2010-07-31T06:25:43Z</time></trkpt>
<trkpt lat="45.82984900" lon="4.79424700"><ele>506.2999878552</ele><time>2010-07-31T06:25:45Z</time></trkpt>
<trkpt lat="45.82990700" lon="4.79424000"><ele>506.700012252</ele><time>2010-07-31T06:25:47Z</time></trkpt>
<trkpt lat="45.82996300" lon="4.79422000"><ele>507.0000000696</ele><time>2010-07-31T06:25:49Z</time></trkpt>
<trkpt lat="45.83001500" lon="4.79421000"><ele>507.3999939864</ele><time>2010-07-31T06:25:51Z</time></trkpt>
<trkpt lat="45.83006300" lon="4.79420600"><ele>507.6000061848</ele><time>2010-07-31T06:25:53Z</time></trkpt>
<trkpt lat="45.83011600" lon="4.79419300"><ele>507.6000061848</ele><time>2010-07-31T06:25:55Z</time></trkpt>
<trkpt lat="45.83016700" lon="4.79418400"><ele>507.700012284</ele><time>2010-07-31T06:25:57Z</time></trkpt>
<trkpt lat="45.83022200" lon="4.79417800"><ele>507.6000061848</ele><time>2010-07-31T06:25:59Z</time></trkpt>
<trkpt lat="45.83027300" lon="4.79416800"><ele>507.8999940024</ele><time>2010-07-31T06:26:01Z</time></trkpt>
<trkpt lat="45.83032700" lon="4.79416100"><ele>507.8999940024</ele><time>2010-07-31T06:26:03Z</time></trkpt>
<trkpt lat="45.83038200" lon="4.79415800"><ele>508.0000001016</ele><time>2010-07-31T06:26:05Z</time></trkpt>
<trkpt lat="45.83044300" lon="4.79415600"><ele>508.1000062008</ele><time>2010-07-31T06:26:07Z</time></trkpt>
<trkpt lat="45.83050300" lon="4.79415300"><ele>508.2999879192</ele><time>2010-07-31T06:26:09Z</time></trkpt>
<trkpt lat="45.83056400" lon="4.79415700"><ele>508.2999879192</ele><time>2010-07-31T06:26:11Z</time></trkpt>
<trkpt lat="45.83062400" lon="4.79416400"><ele>508.3999940184</ele><time>2010-07-31T06:26:13Z</time></trkpt>
<trkpt lat="45.83069200" lon="4.79417300"><ele>508.2999879192</ele><time>2010-07-31T06:26:15Z</time></trkpt>
<trkpt lat="45.83076900" lon="4.79419100"><ele>507.8999940024</ele><time>2010-07-31T06:26:17Z</time></trkpt>
<trkpt lat="45.83085400" lon="4.79422200"><ele>507.5000000856</ele><time>2010-07-31T06:26:19Z</time></trkpt>
<trkpt lat="45.83089800" lon="4.79423600"><ele>507.1000061688</ele><time>2010-07-31T06:26:20Z</time></trkpt>
<trkpt lat="45.83094200" lon="4.79425600"><ele>507.200012268</ele><time>2010-07-31T06:26:21Z</time></trkpt>
<trkpt lat="45.83098700" lon="4.79427500"><ele>507.1000061688</ele><time>2010-07-31T06:26:22Z</time></trkpt>
<trkpt lat="45.83103200" lon="4.79429800"><ele>507.0000000696</ele><time>2010-07-31T06:26:23Z</time></trkpt>
<trkpt lat="45.83108000" lon="4.79432000"><ele>506.7999878712</ele><time>2010-07-31T06:26:24Z</time></trkpt>
<trkpt lat="45.83112700" lon="4.79435100"><ele>506.6000061528</ele><time>2010-07-31T06:26:25Z</time></trkpt>
<trkpt lat="45.83117300" lon="4.79437800"><ele>506.6000061528</ele><time>2010-07-31T06:26:26Z</time></trkpt>
<trkpt lat="45.83122600" lon="4.79440700"><ele>506.5000000536</ele><time>2010-07-31T06:26:27Z</time></trkpt>
<trkpt lat="45.83127600" lon="4.79443100"><ele>506.3999939544</ele><time>2010-07-31T06:26:28Z</time></trkpt>
<trkpt lat="45.83132200" lon="4.79444900"><ele>506.5000000536</ele><time>2010-07-31T06:26:29Z</time></trkpt>
<trkpt lat="45.83137500" lon="4.79446600"><ele>506.7999878712</ele><time>2010-07-31T06:26:30Z</time></trkpt>
<trkpt lat="45.83141900" lon="4.79448000"><ele>507.200012268</ele><time>2010-07-31T06:26:31Z</time></trkpt>
<trkpt lat="45.83150500" lon="4.79450300"><ele>507.6000061848</ele><time>2010-07-31T06:26:33Z</time></trkpt>
<trkpt lat="45.83158000" lon="4.79451900"><ele>508.2999879192</ele><time>2010-07-31T06:26:35Z</time></trkpt>
<trkpt lat="45.83165000" lon="4.79454000"><ele>508.8999940344</ele><time>2010-07-31T06:26:37Z</time></trkpt>
<trkpt lat="45.83171200" lon="4.79454700"><ele>509.2999876464</ele><time>2010-07-31T06:26:39Z</time></trkpt>
<trkpt lat="45.83177200" lon="4.79455900"><ele>509.3999937456</ele><time>2010-07-31T06:26:41Z</time></trkpt>
<trkpt lat="45.83182800" lon="4.79457700"><ele>509.5000001496</ele><time>2010-07-31T06:26:43Z</time></trkpt>
<trkpt lat="45.83187600" lon="4.79459800"><ele>509.700012348</ele><time>2010-07-31T06:26:45Z</time></trkpt>
<trkpt lat="45.83192500" lon="4.79461900"><ele>509.7999876624</ele><time>2010-07-31T06:26:47Z</time></trkpt>
<trkpt lat="45.83196900" lon="4.79464300"><ele>510.10000596</ele><time>2010-07-31T06:26:49Z</time></trkpt>
<trkpt lat="45.83202700" lon="4.79466500"><ele>510.2000120592</ele><time>2010-07-31T06:26:52Z</time></trkpt>
<trkpt lat="45.83208700" lon="4.79468900"><ele>509.9999998608</ele><time>2010-07-31T06:26:55Z</time></trkpt>
<trkpt lat="45.83214600" lon="4.79471900"><ele>510.9999998928</ele><time>2010-07-31T06:26:58Z</time></trkpt>
<trkpt lat="45.83219100" lon="4.79472600"><ele>511.9999999248</ele><time>2010-07-31T06:27:00Z</time></trkpt>
<trkpt lat="45.83223400" lon="4.79474600"><ele>512.2000121232</ele><time>2010-07-31T06:27:02Z</time></trkpt>
<trkpt lat="45.83229900" lon="4.79476600"><ele>512.4000243216</ele><time>2010-07-31T06:27:05Z</time></trkpt>
<trkpt lat="45.83234300" lon="4.79478000"><ele>512.7000121392</ele><time>2010-07-31T06:27:07Z</time></trkpt>
<trkpt lat="45.83239900" lon="4.79481900"><ele>513.7000121712</ele><time>2010-07-31T06:27:10Z</time></trkpt>
<trkpt lat="45.83246400" lon="4.79484200"><ele>514.2000121872</ele><time>2010-07-31T06:27:13Z</time></trkpt>
<trkpt lat="45.83253100" lon="4.79485300"><ele>514.4000243856</ele><time>2010-07-31T06:27:16Z</time></trkpt>
<trkpt lat="45.83259600" lon="4.79487600"><ele>514.2000121872</ele><time>2010-07-31T06:27:19Z</time></trkpt>
<trkpt lat="45.83263800" lon="4.79489800"><ele>514.2000121872</ele><time>2010-07-31T06:27:21Z</time></trkpt>
<trkpt lat="45.83269500" lon="4.79493000"><ele>514.4000243856</ele><time>2010-07-31T06:27:24Z</time></trkpt>
<trkpt lat="45.83274200" lon="4.79494500"><ele>514.7000122032</ele><time>2010-07-31T06:27:26Z</time></trkpt>
<trkpt lat="45.83278200" lon="4.79498000"><ele>515.599975656</ele><time>2010-07-31T06:27:28Z</time></trkpt>
<trkpt lat="45.83282800" lon="4.79498700"><ele>515.7000122352</ele><time>2010-07-31T06:27:30Z</time></trkpt>
<trkpt lat="45.83287500" lon="4.79499600"><ele>516.0000000528</ele><time>2010-07-31T06:27:32Z</time></trkpt>
<trkpt lat="45.83293300" lon="4.79501900"><ele>516.2000122512</ele><time>2010-07-31T06:27:35Z</time></trkpt>
<trkpt lat="45.83299300" lon="4.79504900"><ele>517.0000000848</ele><time>2010-07-31T06:27:38Z</time></trkpt>
<trkpt lat="45.83305800" lon="4.79505800"><ele>516.7999878864</ele><time>2010-07-31T06:27:41Z</time></trkpt>
<trkpt lat="45.83311600" lon="4.79507400"><ele>516.9000244656</ele><time>2010-07-31T06:27:44Z</time></trkpt>
<trkpt lat="45.83317500" lon="4.79507600"><ele>517.0000000848</ele><time>2010-07-31T06:27:47Z</time></trkpt>
<trkpt lat="45.83320900" lon="4.79503200"><ele>518.9000245296</ele><time>2010-07-31T06:27:51Z</time></trkpt>
<trkpt lat="45.83326600" lon="4.79505900"><ele>518.0000001168</ele><time>2010-07-31T06:27:53Z</time></trkpt>
<trkpt lat="45.83330800" lon="4.79509600"><ele>517.59997572</ele><time>2010-07-31T06:27:55Z</time></trkpt>
<trkpt lat="45.83334700" lon="4.79513000"><ele>517.59997572</ele><time>2010-07-31T06:27:57Z</time></trkpt>
<trkpt lat="45.83339400" lon="4.79514200"><ele>518.0000001168</ele><time>2010-07-31T06:27:59Z</time></trkpt>
<trkpt lat="45.83344000" lon="4.79515200"><ele>518.2999879344</ele><time>2010-07-31T06:28:01Z</time></trkpt>
<trkpt lat="45.83349200" lon="4.79517200"><ele>518.2999879344</ele><time>2010-07-31T06:28:04Z</time></trkpt>
<trkpt lat="45.83354500" lon="4.79519200"><ele>518.4000245136</ele><time>2010-07-31T06:28:07Z</time></trkpt>
<trkpt lat="45.83360100" lon="4.79519400"><ele>518.2999879344</ele><time>2010-07-31T06:28:10Z</time></trkpt>
<trkpt lat="45.83365700" lon="4.79520300"><ele>518.7999876456</ele><time>2010-07-31T06:28:13Z</time></trkpt>
<trkpt lat="45.83370600" lon="4.79520700"><ele>519.7000120584</ele><time>2010-07-31T06:28:16Z</time></trkpt>
<trkpt lat="45.83375900" lon="4.79522400"><ele>520.0999754952</ele><time>2010-07-31T06:28:19Z</time></trkpt>
<trkpt lat="45.83380900" lon="4.79523900"><ele>520.7999877096</ele><time>2010-07-31T06:28:22Z</time></trkpt>
<trkpt lat="45.83386000" lon="4.79523600"><ele>521.0999755272</ele><time>2010-07-31T06:28:25Z</time></trkpt>
<trkpt lat="45.83391500" lon="4.79524100"><ele>521.4000243048</ele><time>2010-07-31T06:28:28Z</time></trkpt>
<trkpt lat="45.83397300" lon="4.79524700"><ele>521.2999877256</ele><time>2010-07-31T06:28:31Z</time></trkpt>
<trkpt lat="45.83402400" lon="4.79525600"><ele>521.0999755272</ele><time>2010-07-31T06:28:34Z</time></trkpt>
<trkpt lat="45.83408000" lon="4.79526400"><ele>520.7999877096</ele><time>2010-07-31T06:28:37Z</time></trkpt>
<trkpt lat="45.83414000" lon="4.79526200"><ele>521.2000121064</ele><time>2010-07-31T06:28:40Z</time></trkpt>
<trkpt lat="45.83420200" lon="4.79526800"><ele>521.2999877256</ele><time>2010-07-31T06:28:43Z</time></trkpt>
<trkpt lat="45.83424600" lon="4.79527300"><ele>521.0999755272</ele><time>2010-07-31T06:28:45Z</time></trkpt>
<trkpt lat="45.83429700" lon="4.79528600"><ele>521.2000121064</ele><time>2010-07-31T06:28:48Z</time></trkpt>
<trkpt lat="45.83434800" lon="4.79528900"><ele>521.4000243048</ele><time>2010-07-31T06:28:51Z</time></trkpt>
<trkpt lat="45.83440400" lon="4.79529900"><ele>521.7000121224</ele><time>2010-07-31T06:28:54Z</time></trkpt>
<trkpt lat="45.83445400" lon="4.79533300"><ele>522.0999755592</ele><time>2010-07-31T06:28:57Z</time></trkpt>
<trkpt lat="45.83447700" lon="4.79539900"><ele>522.499999956</ele><time>2010-07-31T06:29:00Z</time></trkpt>
<trkpt lat="45.83447400" lon="4.79548100"><ele>522.2000121384</ele><time>2010-07-31T06:29:03Z</time></trkpt>
<trkpt lat="45.83447500" lon="4.79554800"><ele>521.99999994</ele><time>2010-07-31T06:29:05Z</time></trkpt>
<trkpt lat="45.83446700" lon="4.79562600"><ele>521.99999994</ele><time>2010-07-31T06:29:07Z</time></trkpt>
<trkpt lat="45.83446300" lon="4.79570700"><ele>521.499999924</ele><time>2010-07-31T06:29:09Z</time></trkpt>
<trkpt lat="45.83445700" lon="4.79580400"><ele>521.0999755272</ele><time>2010-07-31T06:29:11Z</time></trkpt>
<trkpt lat="45.83444900" lon="4.79589900"><ele>520.999999908</ele><time>2010-07-31T06:29:13Z</time></trkpt>
<trkpt lat="45.83445900" lon="4.79597600"><ele>520.999999908</ele><time>2010-07-31T06:29:15Z</time></trkpt>
<trkpt lat="45.83449600" lon="4.79601500"><ele>520.999999908</ele><time>2010-07-31T06:29:17Z</time></trkpt>
<trkpt lat="45.83454800" lon="4.79602600"><ele>520.9000242888</ele><time>2010-07-31T06:29:19Z</time></trkpt>
<trkpt lat="45.83460000" lon="4.79602500"><ele>521.0999755272</ele><time>2010-07-31T06:29:21Z</time></trkpt>
<trkpt lat="45.83465400" lon="4.79602800"><ele>521.2000121064</ele><time>2010-07-31T06:29:23Z</time></trkpt>
<trkpt lat="45.83471900" lon="4.79603800"><ele>523.4000243688</ele><time>2010-07-31T06:29:25Z</time></trkpt>
<trkpt lat="45.83476600" lon="4.79604300"><ele>523.2999877896</ele><time>2010-07-31T06:29:27Z</time></trkpt>
<trkpt lat="45.83481200" lon="4.79607100"><ele>523.4000243688</ele><time>2010-07-31T06:29:29Z</time></trkpt>
<trkpt lat="45.83483600" lon="4.79614300"><ele>523.4000243688</ele><time>2010-07-31T06:29:31Z</time></trkpt>
<trkpt lat="45.83484100" lon="4.79621700"><ele>522.999999972</ele><time>2010-07-31T06:29:33Z</time></trkpt>
<trkpt lat="45.83484300" lon="4.79629700"><ele>522.7999877736</ele><time>2010-07-31T06:29:35Z</time></trkpt>
<trkpt lat="45.83484200" lon="4.79637000"><ele>522.9000243528</ele><time>2010-07-31T06:29:37Z</time></trkpt>
<trkpt lat="45.83484400" lon="4.79645200"><ele>522.9000243528</ele><time>2010-07-31T06:29:40Z</time></trkpt>
<trkpt lat="45.83484600" lon="4.79652600"><ele>523.0999755912</ele><time>2010-07-31T06:29:43Z</time></trkpt>
<trkpt lat="45.83484500" lon="4.79660700"><ele>523.0999755912</ele><time>2010-07-31T06:29:46Z</time></trkpt>
<trkpt lat="45.83485000" lon="4.79669300"><ele>523.0999755912</ele><time>2010-07-31T06:29:49Z</time></trkpt>
<trkpt lat="45.83485100" lon="4.79677500"><ele>523.5999756072</ele><time>2010-07-31T06:29:52Z</time></trkpt>
<trkpt lat="45.83484600" lon="4.79685500"><ele>523.7999878056</ele><time>2010-07-31T06:29:55Z</time></trkpt>
<trkpt lat="45.83483700" lon="4.79693500"><ele>524.0999756232</ele><time>2010-07-31T06:29:58Z</time></trkpt>
<trkpt lat="45.83483500" lon="4.79699900"><ele>524.9000244168</ele><time>2010-07-31T06:30:01Z</time></trkpt>
<trkpt lat="45.83483600" lon="4.79708000"><ele>526.2000122664</ele><time>2010-07-31T06:30:05Z</time></trkpt>
<trkpt lat="45.83483900" lon="4.79716500"><ele>526.5999757032</ele><time>2010-07-31T06:30:09Z</time></trkpt>
<trkpt lat="45.83485500" lon="4.79724300"><ele>527.2000122984</ele><time>2010-07-31T06:30:13Z</time></trkpt>
<trkpt lat="45.83487900" lon="4.79731700"><ele>528.0999754464</ele><time>2010-07-31T06:30:17Z</time></trkpt>
<trkpt lat="45.83489200" lon="4.79737800"><ele>529.0999754784</ele><time>2010-07-31T06:30:20Z</time></trkpt>
<trkpt lat="45.83490500" lon="4.79744300"><ele>529.9999998912</ele><time>2010-07-31T06:30:23Z</time></trkpt>
<trkpt lat="45.83491600" lon="4.79750600"><ele>530.9999999232</ele><time>2010-07-31T06:30:26Z</time></trkpt>
<trkpt lat="45.83492600" lon="4.79759000"><ele>532.400024352</ele><time>2010-07-31T06:30:30Z</time></trkpt>
<trkpt lat="45.83493000" lon="4.79766800"><ele>533.7000122016</ele><time>2010-07-31T06:30:34Z</time></trkpt>
<trkpt lat="45.83492100" lon="4.79774100"><ele>535.2999878688</ele><time>2010-07-31T06:30:38Z</time></trkpt>
<trkpt lat="45.83489600" lon="4.79779700"><ele>535.7000122656</ele><time>2010-07-31T06:30:42Z</time></trkpt>
<trkpt lat="45.83486300" lon="4.79786700"><ele>535.7999878848</ele><time>2010-07-31T06:30:46Z</time></trkpt>
<trkpt lat="45.83482800" lon="4.79792300"><ele>536.5000000992</ele><time>2010-07-31T06:30:50Z</time></trkpt>
<trkpt lat="45.83479900" lon="4.79797800"><ele>536.900024496</ele><time>2010-07-31T06:30:54Z</time></trkpt>
<trkpt lat="45.83476900" lon="4.79804000"><ele>537.799987644</ele><time>2010-07-31T06:30:58Z</time></trkpt>
<trkpt lat="45.83474800" lon="4.79810900"><ele>538.5999754776</ele><time>2010-07-31T06:31:02Z</time></trkpt>
<trkpt lat="45.83473800" lon="4.79817900"><ele>539.4999998904</ele><time>2010-07-31T06:31:05Z</time></trkpt>
<trkpt lat="45.83473800" lon="4.79822400"><ele>539.9999999064</ele><time>2010-07-31T06:31:31Z</time></trkpt>
<trkpt lat="45.83472700" lon="4.79828300"><ele>541.0999755576</ele><time>2010-07-31T06:31:43Z</time></trkpt>
<trkpt lat="45.83472800" lon="4.79829600"><ele>541.5999755736</ele><time>2010-07-31T06:31:44Z</time></trkpt>
<trkpt lat="45.83471700" lon="4.79836500"><ele>542.799987804</ele><time>2010-07-31T06:31:50Z</time></trkpt>
<trkpt lat="45.83471100" lon="4.79843100"><ele>543.7000122168</ele><time>2010-07-31T06:31:56Z</time></trkpt>
<trkpt lat="45.83470400" lon="4.79850300"><ele>544.9000244472</ele><time>2010-07-31T06:32:02Z</time></trkpt>
<trkpt lat="45.83469900" lon="4.79856900"><ele>546.4000244952</ele><time>2010-07-31T06:32:07Z</time></trkpt>
<trkpt lat="45.83469700" lon="4.79864600"><ele>547.4000245272</ele><time>2010-07-31T06:32:13Z</time></trkpt>
<trkpt lat="45.83469200" lon="4.79871300"><ele>548.2999876752</ele><time>2010-07-31T06:32:18Z</time></trkpt>
<trkpt lat="45.83469200" lon="4.79877800"><ele>549.200012088</ele><time>2010-07-31T06:32:23Z</time></trkpt>
<trkpt lat="45.83468700" lon="4.79884700"><ele>550.4000243184</ele><time>2010-07-31T06:32:28Z</time></trkpt>
<trkpt lat="45.83467500" lon="4.79891500"><ele>550.9999999536</ele><time>2010-07-31T06:32:34Z</time></trkpt>
<trkpt lat="45.83465800" lon="4.79898200"><ele>551.9000243664</ele><time>2010-07-31T06:32:39Z</time></trkpt>
<trkpt lat="45.83465700" lon="4.79905100"><ele>552.7999878192</ele><time>2010-07-31T06:32:44Z</time></trkpt>
<trkpt lat="45.83469000" lon="4.79910800"><ele>553.200012216</ele><time>2010-07-31T06:32:50Z</time></trkpt>
<trkpt lat="45.83473300" lon="4.79909000"><ele>553.2999878352</ele><time>2010-07-31T06:33:00Z</time></trkpt>
<trkpt lat="45.83478100" lon="4.79908600"><ele>553.4000244144</ele><time>2010-07-31T06:33:04Z</time></trkpt>
<trkpt lat="45.83483100" lon="4.79906500"><ele>553.700012232</ele><time>2010-07-31T06:33:08Z</time></trkpt>
<trkpt lat="45.83488300" lon="4.79904500"><ele>553.9000244304</ele><time>2010-07-31T06:33:12Z</time></trkpt>
<trkpt lat="45.83493500" lon="4.79906200"><ele>554.0999756688</ele><time>2010-07-31T06:33:16Z</time></trkpt>
<trkpt lat="45.83498800" lon="4.79902300"><ele>557.9000245584</ele><time>2010-07-31T06:33:21Z</time></trkpt>
<trkpt lat="45.83498900" lon="4.79908800"><ele>559.9000243176</ele><time>2010-07-31T06:33:30Z</time></trkpt>
<trkpt lat="45.83499400" lon="4.79916900"><ele>561.2999877864</ele><time>2010-07-31T06:33:43Z</time></trkpt>
<trkpt lat="45.83502000" lon="4.79922500"><ele>561.099975588</ele><time>2010-07-31T06:33:47Z</time></trkpt>
<trkpt lat="45.83506500" lon="4.79921700"><ele>561.099975588</ele><time>2010-07-31T06:33:51Z</time></trkpt>
<trkpt lat="45.83510900" lon="4.79920600"><ele>561.2999877864</ele><time>2010-07-31T06:33:54Z</time></trkpt>
<trkpt lat="45.83516500" lon="4.79918700"><ele>562.599975636</ele><time>2010-07-31T06:33:57Z</time></trkpt>
<trkpt lat="45.83522700" lon="4.79918300"><ele>563.099975652</ele><time>2010-07-31T06:34:00Z</time></trkpt>
<trkpt lat="45.83528700" lon="4.79917300"><ele>563.599975668</ele><time>2010-07-31T06:34:03Z</time></trkpt>
<trkpt lat="45.83534500" lon="4.79916200"><ele>564.4000244616</ele><time>2010-07-31T06:34:06Z</time></trkpt>
<trkpt lat="45.83541100" lon="4.79914700"><ele>565.599975732</ele><time>2010-07-31T06:34:09Z</time></trkpt>
<trkpt lat="45.83547500" lon="4.79913700"><ele>567.0999754752</ele><time>2010-07-31T06:34:12Z</time></trkpt>
<trkpt lat="45.83552400" lon="4.79914500"><ele>567.2000123592</ele><time>2010-07-31T06:34:14Z</time></trkpt>
<trkpt lat="45.83556900" lon="4.79914900"><ele>567.2999876736</ele><time>2010-07-31T06:34:16Z</time></trkpt>
<trkpt lat="45.83563500" lon="4.79914300"><ele>568.7000121024</ele><time>2010-07-31T06:34:19Z</time></trkpt>
<trkpt lat="45.83568700" lon="4.79913600"><ele>568.9000243008</ele><time>2010-07-31T06:34:21Z</time></trkpt>
<trkpt lat="45.83574600" lon="4.79910300"><ele>573.7000122624</ele><time>2010-07-31T06:34:24Z</time></trkpt>
<trkpt lat="45.83581000" lon="4.79908500"><ele>575.7999876408</ele><time>2010-07-31T06:34:27Z</time></trkpt>
<trkpt lat="45.83586200" lon="4.79909100"><ele>575.2999879296</ele><time>2010-07-31T06:34:29Z</time></trkpt>
<trkpt lat="45.83591200" lon="4.79910000"><ele>575.2000123104</ele><time>2010-07-31T06:34:31Z</time></trkpt>
<trkpt lat="45.83595700" lon="4.79910800"><ele>574.9000244928</ele><time>2010-07-31T06:34:33Z</time></trkpt>
<trkpt lat="45.83600400" lon="4.79910700"><ele>575.0999757312</ele><time>2010-07-31T06:34:35Z</time></trkpt>
<trkpt lat="45.83606200" lon="4.79908500"><ele>577.7999877048</ele><time>2010-07-31T06:34:38Z</time></trkpt>
<trkpt lat="45.83612800" lon="4.79908500"><ele>578.4000243</ele><time>2010-07-31T06:34:41Z</time></trkpt>
<trkpt lat="45.83617600" lon="4.79908600"><ele>578.7000121176</ele><time>2010-07-31T06:34:43Z</time></trkpt>
<trkpt lat="45.83623900" lon="4.79909800"><ele>577.7999877048</ele><time>2010-07-31T06:34:46Z</time></trkpt>
<trkpt lat="45.83628500" lon="4.79910200"><ele>577.4999998872</ele><time>2010-07-31T06:34:48Z</time></trkpt>
<trkpt lat="45.83635000" lon="4.79909900"><ele>577.7999877048</ele><time>2010-07-31T06:34:51Z</time></trkpt>
<trkpt lat="45.83639800" lon="4.79909900"><ele>577.4999998872</ele><time>2010-07-31T06:34:53Z</time></trkpt>
<trkpt lat="45.83644600" lon="4.79908800"><ele>578.2999877208</ele><time>2010-07-31T06:34:55Z</time></trkpt>
<trkpt lat="45.83649100" lon="4.79907400"><ele>580.4999999832</ele><time>2010-07-31T06:34:57Z</time></trkpt>
<trkpt lat="45.83652200" lon="4.79902300"><ele>586.4999998704</ele><time>2010-07-31T06:34:59Z</time></trkpt>
<trkpt lat="45.83657000" lon="4.79902800"><ele>586.7000120688</ele><time>2010-07-31T06:35:01Z</time></trkpt>
<trkpt lat="45.83662400" lon="4.79906200"><ele>582.5999756664</ele><time>2010-07-31T06:35:03Z</time></trkpt>
<trkpt lat="45.83667200" lon="4.79906600"><ele>582.7999878648</ele><time>2010-07-31T06:35:05Z</time></trkpt>
<trkpt lat="45.83673600" lon="4.79905600"><ele>582.7000122456</ele><time>2010-07-31T06:35:08Z</time></trkpt>
<trkpt lat="45.83678300" lon="4.79905300"><ele>583.2000122616</ele><time>2010-07-31T06:35:10Z</time></trkpt>
<trkpt lat="45.83682900" lon="4.79904600"><ele>583.5999756984</ele><time>2010-07-31T06:35:12Z</time></trkpt>
<trkpt lat="45.83689100" lon="4.79903100"><ele>585.90002454</ele><time>2010-07-31T06:35:15Z</time></trkpt>
<trkpt lat="45.83693800" lon="4.79902600"><ele>586.5999754896</ele><time>2010-07-31T06:35:17Z</time></trkpt>
<trkpt lat="45.83698300" lon="4.79901600"><ele>587.9999999184</ele><time>2010-07-31T06:35:19Z</time></trkpt>
<trkpt lat="45.83702800" lon="4.79900800"><ele>588.7000121328</ele><time>2010-07-31T06:35:21Z</time></trkpt>
<trkpt lat="45.83707300" lon="4.79900300"><ele>589.2000121488</ele><time>2010-07-31T06:35:23Z</time></trkpt>
<trkpt lat="45.83713100" lon="4.79896600"><ele>592.5999756816</ele><time>2010-07-31T06:35:26Z</time></trkpt>
<trkpt lat="45.83717700" lon="4.79897800"><ele>591.4000244112</ele><time>2010-07-31T06:35:28Z</time></trkpt>
<trkpt lat="45.83724000" lon="4.79896900"><ele>593.0999756976</ele><time>2010-07-31T06:35:31Z</time></trkpt>
<trkpt lat="45.83730400" lon="4.79897000"><ele>592.299987864</ele><time>2010-07-31T06:35:34Z</time></trkpt>
<trkpt lat="45.83735600" lon="4.79898200"><ele>592.2000122448</ele><time>2010-07-31T06:35:36Z</time></trkpt>
<trkpt lat="45.83740900" lon="4.79898800"><ele>592.0000000464</ele><time>2010-07-31T06:35:38Z</time></trkpt>
<trkpt lat="45.83746100" lon="4.79901000"><ele>590.5999756176</ele><time>2010-07-31T06:35:40Z</time></trkpt>
<trkpt lat="45.83751500" lon="4.79903500"><ele>589.4000243472</ele><time>2010-07-31T06:35:42Z</time></trkpt>
<trkpt lat="45.83756600" lon="4.79905500"><ele>588.5999755536</ele><time>2010-07-31T06:35:44Z</time></trkpt>
<trkpt lat="45.83761300" lon="4.79908900"><ele>586.5999754896</ele><time>2010-07-31T06:35:46Z</time></trkpt>
<trkpt lat="45.83766000" lon="4.79912400"><ele>584.7999879288</ele><time>2010-07-31T06:35:48Z</time></trkpt>
<trkpt lat="45.83771100" lon="4.79914300"><ele>583.40002446</ele><time>2010-07-31T06:35:50Z</time></trkpt>
<trkpt lat="45.83776600" lon="4.79915000"><ele>581.900024412</ele><time>2010-07-31T06:35:52Z</time></trkpt>
<trkpt lat="45.83781300" lon="4.79914100"><ele>580.2000121656</ele><time>2010-07-31T06:35:54Z</time></trkpt>
<trkpt lat="45.83786300" lon="4.79910600"><ele>579.5999755704</ele><time>2010-07-31T06:35:57Z</time></trkpt>
<trkpt lat="45.83791100" lon="4.79908100"><ele>579.2000121336</ele><time>2010-07-31T06:36:00Z</time></trkpt>
<trkpt lat="45.83786600" lon="4.79906600"><ele>577.7000120856</ele><time>2010-07-31T06:36:07Z</time></trkpt>
<trkpt lat="45.83789500" lon="4.79911800"><ele>577.4999998872</ele><time>2010-07-31T06:36:12Z</time></trkpt>
<trkpt lat="45.83794300" lon="4.79909400"><ele>577.7999877048</ele><time>2010-07-31T06:36:15Z</time></trkpt>
<trkpt lat="45.83798700" lon="4.79907300"><ele>577.5999755064</ele><time>2010-07-31T06:36:18Z</time></trkpt>
<trkpt lat="45.83803300" lon="4.79904600"><ele>577.7999877048</ele><time>2010-07-31T06:36:21Z</time></trkpt>
<trkpt lat="45.83809000" lon="4.79903500"><ele>577.7000120856</ele><time>2010-07-31T06:36:25Z</time></trkpt>
<trkpt lat="45.83813400" lon="4.79901900"><ele>577.7999877048</ele><time>2010-07-31T06:36:28Z</time></trkpt>
<trkpt lat="45.83817800" lon="4.79899700"><ele>577.7999877048</ele><time>2010-07-31T06:36:31Z</time></trkpt>
<trkpt lat="45.83822600" lon="4.79894900"><ele>578.2999877208</ele><time>2010-07-31T06:36:35Z</time></trkpt>
<trkpt lat="45.83827300" lon="4.79892700"><ele>578.4000243</ele><time>2010-07-31T06:36:38Z</time></trkpt>
<trkpt lat="45.83832100" lon="4.79891700"><ele>578.7000121176</ele><time>2010-07-31T06:36:41Z</time></trkpt>
<trkpt lat="45.83837100" lon="4.79890200"><ele>578.5999755384</ele><time>2010-07-31T06:36:44Z</time></trkpt>
<trkpt lat="45.83842200" lon="4.79890200"><ele>580.7000121816</ele><time>2010-07-31T06:36:47Z</time></trkpt>
<trkpt lat="45.83846700" lon="4.79889600"><ele>581.5999756344</ele><time>2010-07-31T06:36:50Z</time></trkpt>
<trkpt lat="45.83852700" lon="4.79889600"><ele>582.0999756504</ele><time>2010-07-31T06:36:54Z</time></trkpt>
<trkpt lat="45.83858100" lon="4.79890000"><ele>581.900024412</ele><time>2010-07-31T06:36:58Z</time></trkpt>
<trkpt lat="45.83862800" lon="4.79890100"><ele>582.7999878648</ele><time>2010-07-31T06:37:01Z</time></trkpt>
<trkpt lat="45.83867700" lon="4.79890400"><ele>583.40002446</ele><time>2010-07-31T06:37:04Z</time></trkpt>
<trkpt lat="45.83874800" lon="4.79891400"><ele>583.7000122776</ele><time>2010-07-31T06:37:09Z</time></trkpt>
<trkpt lat="45.83879400" lon="4.79892400"><ele>583.7000122776</ele><time>2010-07-31T06:37:12Z</time></trkpt>
<trkpt lat="45.83884100" lon="4.79892100"><ele>584.0000000952</ele><time>2010-07-31T06:37:15Z</time></trkpt>
<trkpt lat="45.83889300" lon="4.79893700"><ele>584.5000001112</ele><time>2010-07-31T06:37:19Z</time></trkpt>
<trkpt lat="45.83894500" lon="4.79893700"><ele>585.9999998544</ele><time>2010-07-31T06:37:23Z</time></trkpt>
<trkpt lat="45.83899500" lon="4.79895500"><ele>586.4999998704</ele><time>2010-07-31T06:37:27Z</time></trkpt>
<trkpt lat="45.83904700" lon="4.79897300"><ele>587.0999755056</ele><time>2010-07-31T06:37:31Z</time></trkpt>
<trkpt lat="45.83909300" lon="4.79899100"><ele>588.299987736</ele><time>2010-07-31T06:37:35Z</time></trkpt>
<trkpt lat="45.83913500" lon="4.79901700"><ele>588.7000121328</ele><time>2010-07-31T06:37:38Z</time></trkpt>
<trkpt lat="45.83917600" lon="4.79905100"><ele>589.4999999664</ele><time>2010-07-31T06:37:41Z</time></trkpt>
<trkpt lat="45.83921800" lon="4.79908600"><ele>589.9999999824</ele><time>2010-07-31T06:37:44Z</time></trkpt>
<trkpt lat="45.83925200" lon="4.79913100"><ele>590.4999999984</ele><time>2010-07-31T06:37:47Z</time></trkpt>
<trkpt lat="45.83929600" lon="4.79918100"><ele>591.0999756336</ele><time>2010-07-31T06:37:51Z</time></trkpt>
<trkpt lat="45.83933200" lon="4.79923300"><ele>591.5999756496</ele><time>2010-07-31T06:37:55Z</time></trkpt>
<trkpt lat="45.83937100" lon="4.79928400"><ele>592.2000122448</ele><time>2010-07-31T06:37:59Z</time></trkpt>
<trkpt lat="45.83941200" lon="4.79932600"><ele>592.5999756816</ele><time>2010-07-31T06:38:03Z</time></trkpt>
<trkpt lat="45.83944500" lon="4.79938700"><ele>592.9000244592</ele><time>2010-07-31T06:38:07Z</time></trkpt>
<trkpt lat="45.83948100" lon="4.79944300"><ele>593.2000122768</ele><time>2010-07-31T06:38:11Z</time></trkpt>
<trkpt lat="45.83951500" lon="4.79949800"><ele>593.799987912</ele><time>2010-07-31T06:38:15Z</time></trkpt>
<trkpt lat="45.83955400" lon="4.79956000"><ele>594.0999757296</ele><time>2010-07-31T06:38:19Z</time></trkpt>
<trkpt lat="45.83959100" lon="4.79962000"><ele>594.7000123248</ele><time>2010-07-31T06:38:23Z</time></trkpt>
<trkpt lat="45.83961300" lon="4.79967800"><ele>595.2000123408</ele><time>2010-07-31T06:38:26Z</time></trkpt>
<trkpt lat="45.83963200" lon="4.79974100"><ele>595.9999998696</ele><time>2010-07-31T06:38:29Z</time></trkpt>
<trkpt lat="45.83966000" lon="4.79981500"><ele>597.0999755208</ele><time>2010-07-31T06:38:33Z</time></trkpt>
<trkpt lat="45.83967600" lon="4.79989000"><ele>597.2000121</ele><time>2010-07-31T06:38:37Z</time></trkpt>
<trkpt lat="45.83969300" lon="4.79996600"><ele>596.5999755048</ele><time>2010-07-31T06:38:41Z</time></trkpt>
<trkpt lat="45.83971000" lon="4.80004700"><ele>596.4999998856</ele><time>2010-07-31T06:38:45Z</time></trkpt>
<trkpt lat="45.83972100" lon="4.80011400"><ele>597.0999755208</ele><time>2010-07-31T06:38:48Z</time></trkpt>
<trkpt lat="45.83973400" lon="4.80018200"><ele>597.5999755368</ele><time>2010-07-31T06:38:51Z</time></trkpt>
<trkpt lat="45.83975100" lon="4.80025300"><ele>597.7999877352</ele><time>2010-07-31T06:38:54Z</time></trkpt>
<trkpt lat="45.83976700" lon="4.80032800"><ele>598.4000243304</ele><time>2010-07-31T06:38:57Z</time></trkpt>
<trkpt lat="45.83978300" lon="4.80040000"><ele>598.7999877672</ele><time>2010-07-31T06:39:00Z</time></trkpt>
<trkpt lat="45.83980700" lon="4.80048200"><ele>599.4000243624</ele><time>2010-07-31T06:39:03Z</time></trkpt>
<trkpt lat="45.83983800" lon="4.80055700"><ele>599.7999877992</ele><time>2010-07-31T06:39:06Z</time></trkpt>
<trkpt lat="45.83987900" lon="4.80062800"><ele>600.5000000136</ele><time>2010-07-31T06:39:09Z</time></trkpt>
<trkpt lat="45.83992300" lon="4.80068900"><ele>601.0000000296</ele><time>2010-07-31T06:39:12Z</time></trkpt>
<trkpt lat="45.83997500" lon="4.80073500"><ele>601.4000244264</ele><time>2010-07-31T06:39:15Z</time></trkpt>
<trkpt lat="45.84003500" lon="4.80076700"><ele>601.9000244424</ele><time>2010-07-31T06:39:18Z</time></trkpt>
<trkpt lat="45.84008900" lon="4.80080100"><ele>602.2999878792</ele><time>2010-07-31T06:39:21Z</time></trkpt>
<trkpt lat="45.84013700" lon="4.80081700"><ele>602.9000244744</ele><time>2010-07-31T06:39:24Z</time></trkpt>
<trkpt lat="45.84018800" lon="4.80081500"><ele>603.4000244904</ele><time>2010-07-31T06:39:27Z</time></trkpt>
<trkpt lat="45.84023200" lon="4.80082600"><ele>603.5999757288</ele><time>2010-07-31T06:39:30Z</time></trkpt>
<trkpt lat="45.84027900" lon="4.80083200"><ele>604.09997544</ele><time>2010-07-31T06:39:33Z</time></trkpt>
<trkpt lat="45.84032500" lon="4.80083700"><ele>604.599975456</ele><time>2010-07-31T06:39:36Z</time></trkpt>
<trkpt lat="45.84037000" lon="4.80083000"><ele>605.200012356</ele><time>2010-07-31T06:39:39Z</time></trkpt>
<trkpt lat="45.84042000" lon="4.80082400"><ele>605.599975488</ele><time>2010-07-31T06:39:42Z</time></trkpt>
<trkpt lat="45.84046900" lon="4.80081600"><ele>605.7000120672</ele><time>2010-07-31T06:39:45Z</time></trkpt>
<trkpt lat="45.84052700" lon="4.80082100"><ele>605.9000242656</ele><time>2010-07-31T06:39:49Z</time></trkpt>
<trkpt lat="45.84058000" lon="4.80080100"><ele>606.59997552</ele><time>2010-07-31T06:39:53Z</time></trkpt>
<trkpt lat="45.84063300" lon="4.80077700"><ele>607.2999877344</ele><time>2010-07-31T06:39:57Z</time></trkpt>
<trkpt lat="45.84068800" lon="4.80076200"><ele>608.099975568</ele><time>2010-07-31T06:40:01Z</time></trkpt>
<trkpt lat="45.84073700" lon="4.80075300"><ele>608.4000243456</ele><time>2010-07-31T06:40:05Z</time></trkpt>
<trkpt lat="45.84078400" lon="4.80073200"><ele>608.7000121632</ele><time>2010-07-31T06:40:09Z</time></trkpt>
<trkpt lat="45.84082100" lon="4.80068800"><ele>609.2999877984</ele><time>2010-07-31T06:40:13Z</time></trkpt>
<trkpt lat="45.84087100" lon="4.80067400"><ele>609.599975616</ele><time>2010-07-31T06:40:17Z</time></trkpt>
<trkpt lat="45.84092200" lon="4.80065900"><ele>610.2000122112</ele><time>2010-07-31T06:40:21Z</time></trkpt>
<trkpt lat="45.84097100" lon="4.80062500"><ele>610.7999878464</ele><time>2010-07-31T06:40:25Z</time></trkpt>
<trkpt lat="45.84102400" lon="4.80059600"><ele>611.5000000608</ele><time>2010-07-31T06:40:29Z</time></trkpt>
<trkpt lat="45.84106600" lon="4.80055000"><ele>612.4000244736</ele><time>2010-07-31T06:40:33Z</time></trkpt>
<trkpt lat="45.84111500" lon="4.80053000"><ele>612.9000244896</ele><time>2010-07-31T06:40:37Z</time></trkpt>
<trkpt lat="45.84115800" lon="4.80050300"><ele>613.2000123072</ele><time>2010-07-31T06:40:40Z</time></trkpt>
<trkpt lat="45.84120400" lon="4.80046100"><ele>613.5000001248</ele><time>2010-07-31T06:40:43Z</time></trkpt>
<trkpt lat="45.84125000" lon="4.80042500"><ele>614.0000001408</ele><time>2010-07-31T06:40:46Z</time></trkpt>
<trkpt lat="45.84129600" lon="4.80039900"><ele>614.4000245376</ele><time>2010-07-31T06:40:49Z</time></trkpt>
<trkpt lat="45.84134100" lon="4.80037900"><ele>614.9000245536</ele><time>2010-07-31T06:40:52Z</time></trkpt>
<trkpt lat="45.84138700" lon="4.80035000"><ele>615.4000242648</ele><time>2010-07-31T06:40:55Z</time></trkpt>
<trkpt lat="45.84142700" lon="4.80031300"><ele>616.0999755192</ele><time>2010-07-31T06:40:58Z</time></trkpt>
<trkpt lat="45.84147100" lon="4.80029100"><ele>616.5999755352</ele><time>2010-07-31T06:41:01Z</time></trkpt>
<trkpt lat="45.84151200" lon="4.80023700"><ele>617.2999877496</ele><time>2010-07-31T06:41:05Z</time></trkpt>
<trkpt lat="45.84156100" lon="4.80022800"><ele>617.7999877656</ele><time>2010-07-31T06:41:09Z</time></trkpt>
<trkpt lat="45.84161100" lon="4.80020600"><ele>618.2999877816</ele><time>2010-07-31T06:41:13Z</time></trkpt>
<trkpt lat="45.84164300" lon="4.80015100"><ele>618.9000243768</ele><time>2010-07-31T06:41:17Z</time></trkpt>
<trkpt lat="45.84169200" lon="4.80012600"><ele>619.5999756312</ele><time>2010-07-31T06:41:21Z</time></trkpt>
<trkpt lat="45.84174100" lon="4.80011200"><ele>620.2999878456</ele><time>2010-07-31T06:41:25Z</time></trkpt>
<trkpt lat="45.84177500" lon="4.80004600"><ele>621.00000006</ele><time>2010-07-31T06:41:29Z</time></trkpt>
<trkpt lat="45.84183400" lon="4.80004800"><ele>621.4000244568</ele><time>2010-07-31T06:41:33Z</time></trkpt>
<trkpt lat="45.84187200" lon="4.79998900"><ele>622.2000122904</ele><time>2010-07-31T06:41:37Z</time></trkpt>
<trkpt lat="45.84191600" lon="4.79999600"><ele>622.500000108</ele><time>2010-07-31T06:41:40Z</time></trkpt>
<trkpt lat="45.84197400" lon="4.79997600"><ele>623.0999754384</ele><time>2010-07-31T06:41:44Z</time></trkpt>
<trkpt lat="45.84201000" lon="4.79993200"><ele>623.5999754544</ele><time>2010-07-31T06:41:47Z</time></trkpt>
<trkpt lat="45.84205500" lon="4.79992700"><ele>623.9999998512</ele><time>2010-07-31T06:41:50Z</time></trkpt>
<trkpt lat="45.84210700" lon="4.79989400"><ele>624.7000120656</ele><time>2010-07-31T06:41:54Z</time></trkpt>
<trkpt lat="45.84215200" lon="4.79987600"><ele>624.9999998832</ele><time>2010-07-31T06:41:57Z</time></trkpt>
<trkpt lat="45.84219900" lon="4.79988300"><ele>625.5999755184</ele><time>2010-07-31T06:42:00Z</time></trkpt>
<trkpt lat="45.84224600" lon="4.79985100"><ele>625.900024296</ele><time>2010-07-31T06:42:03Z</time></trkpt>
<trkpt lat="45.84228600" lon="4.79980300"><ele>626.2000121136</ele><time>2010-07-31T06:42:06Z</time></trkpt>
<trkpt lat="45.84232000" lon="4.79974900"><ele>626.400024312</ele><time>2010-07-31T06:42:09Z</time></trkpt>
<trkpt lat="45.84234100" lon="4.79967700"><ele>626.9999999472</ele><time>2010-07-31T06:42:12Z</time></trkpt>
<trkpt lat="45.84235500" lon="4.79961400"><ele>627.4999999632</ele><time>2010-07-31T06:42:15Z</time></trkpt>
<trkpt lat="45.84233500" lon="4.79954900"><ele>627.5999755824</ele><time>2010-07-31T06:42:18Z</time></trkpt>
<trkpt lat="45.84232800" lon="4.79947500"><ele>627.7999877808</ele><time>2010-07-31T06:42:21Z</time></trkpt>
<trkpt lat="45.84229700" lon="4.79942300"><ele>627.9999999792</ele><time>2010-07-31T06:42:24Z</time></trkpt>
<trkpt lat="45.84224900" lon="4.79938900"><ele>628.0999755984</ele><time>2010-07-31T06:42:27Z</time></trkpt>
<trkpt lat="45.84221200" lon="4.79934800"><ele>628.400024376</ele><time>2010-07-31T06:42:30Z</time></trkpt>
<trkpt lat="45.84216600" lon="4.79929900"><ele>628.7000121936</ele><time>2010-07-31T06:42:34Z</time></trkpt>
<trkpt lat="45.84211500" lon="4.79925500"><ele>629.400024408</ele><time>2010-07-31T06:42:38Z</time></trkpt>
<trkpt lat="45.84206500" lon="4.79921100"><ele>629.7999878448</ele><time>2010-07-31T06:42:42Z</time></trkpt>
<trkpt lat="45.84202500" lon="4.79917400"><ele>630.0999756624</ele><time>2010-07-31T06:42:45Z</time></trkpt>
<trkpt lat="45.84196900" lon="4.79914800"><ele>630.7000122576</ele><time>2010-07-31T06:42:49Z</time></trkpt>
<trkpt lat="45.84193100" lon="4.79910500"><ele>631.0000000752</ele><time>2010-07-31T06:42:52Z</time></trkpt>
<trkpt lat="45.84189700" lon="4.79905500"><ele>631.5000000912</ele><time>2010-07-31T06:42:55Z</time></trkpt>
<trkpt lat="45.84186600" lon="4.79900100"><ele>632.0000001072</ele><time>2010-07-31T06:42:58Z</time></trkpt>
<trkpt lat="45.84182800" lon="4.79893900"><ele>632.7999879408</ele><time>2010-07-31T06:43:02Z</time></trkpt>
<trkpt lat="45.84180600" lon="4.79886100"><ele>633.0000001392</ele><time>2010-07-31T06:43:06Z</time></trkpt>
<trkpt lat="45.84177800" lon="4.79879200"><ele>633.7000123536</ele><time>2010-07-31T06:43:10Z</time></trkpt>
<trkpt lat="45.84176200" lon="4.79871300"><ele>634.7000120808</ele><time>2010-07-31T06:43:14Z</time></trkpt>
<trkpt lat="45.84175800" lon="4.79864500"><ele>635.4999999144</ele><time>2010-07-31T06:43:17Z</time></trkpt>
<trkpt lat="45.84175700" lon="4.79856700"><ele>636.0999755496</ele><time>2010-07-31T06:43:21Z</time></trkpt>
<trkpt lat="45.84175500" lon="4.79849800"><ele>636.7000121448</ele><time>2010-07-31T06:43:25Z</time></trkpt>
<trkpt lat="45.84180300" lon="4.79845600"><ele>637.2000121608</ele><time>2010-07-31T06:43:29Z</time></trkpt>
<trkpt lat="45.84183400" lon="4.79839600"><ele>638.4000243912</ele><time>2010-07-31T06:43:34Z</time></trkpt>
<trkpt lat="45.84186900" lon="4.79833500"><ele>639.4000244232</ele><time>2010-07-31T06:43:38Z</time></trkpt>
<trkpt lat="45.84190900" lon="4.79829700"><ele>640.2000122568</ele><time>2010-07-31T06:43:41Z</time></trkpt>
<trkpt lat="45.84195200" lon="4.79825300"><ele>640.9000244712</ele><time>2010-07-31T06:43:45Z</time></trkpt>
<trkpt lat="45.84199400" lon="4.79822200"><ele>641.299987908</ele><time>2010-07-31T06:43:49Z</time></trkpt>
<trkpt lat="45.84204100" lon="4.79820200"><ele>641.7000123048</ele><time>2010-07-31T06:43:53Z</time></trkpt>
<trkpt lat="45.84208100" lon="4.79815500"><ele>642.29998794</ele><time>2010-07-31T06:43:57Z</time></trkpt>
<trkpt lat="45.84212400" lon="4.79810600"><ele>642.5000001384</ele><time>2010-07-31T06:44:02Z</time></trkpt>
<trkpt lat="45.84217300" lon="4.79806900"><ele>642.9000245352</ele><time>2010-07-31T06:44:07Z</time></trkpt>
<trkpt lat="45.84220000" lon="4.79801300"><ele>642.7999876512</ele><time>2010-07-31T06:44:11Z</time></trkpt>
<trkpt lat="45.84224500" lon="4.79805300"><ele>642.0999754368</ele><time>2010-07-31T06:44:22Z</time></trkpt>
<trkpt lat="45.84223800" lon="4.79808600"><ele>642.2000123208</ele><time>2010-07-31T06:44:57Z</time></trkpt>
<trkpt lat="45.84226900" lon="4.79810800"><ele>640.5999756936</ele><time>2010-07-31T06:51:37Z</time></trkpt>
<trkpt lat="45.84228500" lon="4.79812600"><ele>640.5999756936</ele><time>2010-07-31T06:51:38Z</time></trkpt>
<trkpt lat="45.84234400" lon="4.79818000"><ele>639.79998786</ele><time>2010-07-31T06:51:40Z</time></trkpt>
<trkpt lat="45.84238900" lon="4.79828100"><ele>638.9000244072</ele><time>2010-07-31T06:51:42Z</time></trkpt>
<trkpt lat="45.84240300" lon="4.79834300"><ele>638.4000243912</ele><time>2010-07-31T06:51:43Z</time></trkpt>
<trkpt lat="45.84242600" lon="4.79845400"><ele>637.4999999784</ele><time>2010-07-31T06:51:45Z</time></trkpt>
<trkpt lat="45.84246500" lon="4.79855500"><ele>636.7000121448</ele><time>2010-07-31T06:51:47Z</time></trkpt>
<trkpt lat="45.84249800" lon="4.79860700"><ele>636.0999755496</ele><time>2010-07-31T06:51:48Z</time></trkpt>
<trkpt lat="45.84253700" lon="4.79865500"><ele>635.5999755336</ele><time>2010-07-31T06:51:49Z</time></trkpt>
<trkpt lat="45.84258100" lon="4.79870900"><ele>634.7000120808</ele><time>2010-07-31T06:51:50Z</time></trkpt>
<trkpt lat="45.84262500" lon="4.79877200"><ele>634.2000120648</ele><time>2010-07-31T06:51:51Z</time></trkpt>
<trkpt lat="45.84267400" lon="4.79883500"><ele>633.2000123376</ele><time>2010-07-31T06:51:52Z</time></trkpt>
<trkpt lat="45.84272500" lon="4.79888500"><ele>632.400024504</ele><time>2010-07-31T06:51:53Z</time></trkpt>
<trkpt lat="45.84277500" lon="4.79893700"><ele>631.900024488</ele><time>2010-07-31T06:51:54Z</time></trkpt>
<trkpt lat="45.84282800" lon="4.79900400"><ele>631.0999756944</ele><time>2010-07-31T06:51:55Z</time></trkpt>
<trkpt lat="45.84288000" lon="4.79906700"><ele>630.2999878608</ele><time>2010-07-31T06:51:56Z</time></trkpt>
<trkpt lat="45.84293100" lon="4.79912700"><ele>629.5000000272</ele><time>2010-07-31T06:51:57Z</time></trkpt>
<trkpt lat="45.84298600" lon="4.79918800"><ele>628.7999878128</ele><time>2010-07-31T06:51:58Z</time></trkpt>
<trkpt lat="45.84304200" lon="4.79924400"><ele>628.0999755984</ele><time>2010-07-31T06:51:59Z</time></trkpt>
<trkpt lat="45.84310400" lon="4.79929900"><ele>627.5999755824</ele><time>2010-07-31T06:52:00Z</time></trkpt>
<trkpt lat="45.84316800" lon="4.79935100"><ele>626.4999999312</ele><time>2010-07-31T06:52:01Z</time></trkpt>
<trkpt lat="45.84322500" lon="4.79939300"><ele>625.7999877168</ele><time>2010-07-31T06:52:02Z</time></trkpt>
<trkpt lat="45.84328900" lon="4.79943100"><ele>625.0999755024</ele><time>2010-07-31T06:52:03Z</time></trkpt>
<trkpt lat="45.84335000" lon="4.79945800"><ele>624.2000123544</ele><time>2010-07-31T06:52:04Z</time></trkpt>
<trkpt lat="45.84340500" lon="4.79947000"><ele>623.50000014</ele><time>2010-07-31T06:52:05Z</time></trkpt>
<trkpt lat="45.84346300" lon="4.79948800"><ele>623.2000123224</ele><time>2010-07-31T06:52:06Z</time></trkpt>
<trkpt lat="45.84351800" lon="4.79952500"><ele>622.500000108</ele><time>2010-07-31T06:52:07Z</time></trkpt>
<trkpt lat="45.84357200" lon="4.79956500"><ele>621.7000122744</ele><time>2010-07-31T06:52:08Z</time></trkpt>
<trkpt lat="45.84362000" lon="4.79960500"><ele>621.00000006</ele><time>2010-07-31T06:52:09Z</time></trkpt>
<trkpt lat="45.84366300" lon="4.79964400"><ele>620.5999756632</ele><time>2010-07-31T06:52:10Z</time></trkpt>
<trkpt lat="45.84369800" lon="4.79975600"><ele>618.999999996</ele><time>2010-07-31T06:52:12Z</time></trkpt>
<trkpt lat="45.84370300" lon="4.79987200"><ele>618.4000243608</ele><time>2010-07-31T06:52:14Z</time></trkpt>
<trkpt lat="45.84369300" lon="4.79994500"><ele>617.499999948</ele><time>2010-07-31T06:52:15Z</time></trkpt>
<trkpt lat="45.84368700" lon="4.80006200"><ele>616.4000242968</ele><time>2010-07-31T06:52:17Z</time></trkpt>
<trkpt lat="45.84369500" lon="4.80017600"><ele>615.2000120664</ele><time>2010-07-31T06:52:19Z</time></trkpt>
<trkpt lat="45.84372300" lon="4.80028800"><ele>614.2000123392</ele><time>2010-07-31T06:52:21Z</time></trkpt>
<trkpt lat="45.84376600" lon="4.80039300"><ele>613.7000123232</ele><time>2010-07-31T06:52:23Z</time></trkpt>
<trkpt lat="45.84384900" lon="4.80046700"><ele>612.099975696</ele><time>2010-07-31T06:52:25Z</time></trkpt>
<trkpt lat="45.84389000" lon="4.80050100"><ele>611.9000244576</ele><time>2010-07-31T06:52:26Z</time></trkpt>
<trkpt lat="45.84393800" lon="4.80053700"><ele>611.7999878784</ele><time>2010-07-31T06:52:27Z</time></trkpt>
<trkpt lat="45.84398600" lon="4.80056900"><ele>611.59997568</ele><time>2010-07-31T06:52:28Z</time></trkpt>
<trkpt lat="45.84403200" lon="4.80060700"><ele>611.59997568</ele><time>2010-07-31T06:52:29Z</time></trkpt>
<trkpt lat="45.84408100" lon="4.80064200"><ele>611.59997568</ele><time>2010-07-31T06:52:30Z</time></trkpt>
<trkpt lat="45.84412300" lon="4.80069900"><ele>611.59997568</ele><time>2010-07-31T06:52:31Z</time></trkpt>
<trkpt lat="45.84418100" lon="4.80078000"><ele>611.2000122432</ele><time>2010-07-31T06:52:33Z</time></trkpt>
<trkpt lat="45.84421800" lon="4.80082600"><ele>611.0000000448</ele><time>2010-07-31T06:52:34Z</time></trkpt>
<trkpt lat="45.84426000" lon="4.80090200"><ele>610.599975648</ele><time>2010-07-31T06:52:35Z</time></trkpt>
<trkpt lat="45.84429600" lon="4.80096400"><ele>610.7000122272</ele><time>2010-07-31T06:52:36Z</time></trkpt>
<trkpt lat="45.84434200" lon="4.80102900"><ele>610.4000244096</ele><time>2010-07-31T06:52:37Z</time></trkpt>
<trkpt lat="45.84436200" lon="4.80109500"><ele>608.9000243616</ele><time>2010-07-31T06:52:38Z</time></trkpt>
<trkpt lat="45.84438800" lon="4.80115900"><ele>607.9999999488</ele><time>2010-07-31T06:52:39Z</time></trkpt>
<trkpt lat="45.84441400" lon="4.80122100"><ele>607.4999999328</ele><time>2010-07-31T06:52:40Z</time></trkpt>
<trkpt lat="45.84443900" lon="4.80128500"><ele>607.599975552</ele><time>2010-07-31T06:52:41Z</time></trkpt>
<trkpt lat="45.84448800" lon="4.80140500"><ele>606.4999999008</ele><time>2010-07-31T06:52:43Z</time></trkpt>
<trkpt lat="45.84450200" lon="4.80147600"><ele>605.9999998848</ele><time>2010-07-31T06:52:44Z</time></trkpt>
<trkpt lat="45.84452700" lon="4.80154800"><ele>604.70001234</ele><time>2010-07-31T06:52:45Z</time></trkpt>
<trkpt lat="45.84456000" lon="4.80162800"><ele>603.2999879112</ele><time>2010-07-31T06:52:46Z</time></trkpt>
<trkpt lat="45.84460100" lon="4.80170000"><ele>602.0000000616</ele><time>2010-07-31T06:52:47Z</time></trkpt>
<trkpt lat="45.84463800" lon="4.80177300"><ele>600.7999878312</ele><time>2010-07-31T06:52:48Z</time></trkpt>
<trkpt lat="45.84467500" lon="4.80184400"><ele>600.200012196</ele><time>2010-07-31T06:52:49Z</time></trkpt>
<trkpt lat="45.84471200" lon="4.80190800"><ele>599.0999755848</ele><time>2010-07-31T06:52:50Z</time></trkpt>
<trkpt lat="45.84475000" lon="4.80198000"><ele>598.2999877512</ele><time>2010-07-31T06:52:51Z</time></trkpt>
<trkpt lat="45.84478400" lon="4.80204800"><ele>597.700012116</ele><time>2010-07-31T06:52:52Z</time></trkpt>
<trkpt lat="45.84481300" lon="4.80211700"><ele>596.9999999016</ele><time>2010-07-31T06:52:53Z</time></trkpt>
<trkpt lat="45.84484500" lon="4.80218200"><ele>596.9999999016</ele><time>2010-07-31T06:52:54Z</time></trkpt>
<trkpt lat="45.84491700" lon="4.80226500"><ele>596.2999876872</ele><time>2010-07-31T06:52:56Z</time></trkpt>
<trkpt lat="45.84495700" lon="4.80230900"><ele>596.200012068</ele><time>2010-07-31T06:52:57Z</time></trkpt>
<trkpt lat="45.84499800" lon="4.80234800"><ele>595.7999876712</ele><time>2010-07-31T06:52:58Z</time></trkpt>
<trkpt lat="45.84504400" lon="4.80238900"><ele>594.9000245232</ele><time>2010-07-31T06:52:59Z</time></trkpt>
<trkpt lat="45.84508900" lon="4.80242500"><ele>594.4000245072</ele><time>2010-07-31T06:53:00Z</time></trkpt>
<trkpt lat="45.84513600" lon="4.80246500"><ele>593.9000244912</ele><time>2010-07-31T06:53:01Z</time></trkpt>
<trkpt lat="45.84518400" lon="4.80250500"><ele>593.299987896</ele><time>2010-07-31T06:53:02Z</time></trkpt>
<trkpt lat="45.84523600" lon="4.80254200"><ele>592.79998788</ele><time>2010-07-31T06:53:03Z</time></trkpt>
<trkpt lat="45.84528900" lon="4.80257600"><ele>592.299987864</ele><time>2010-07-31T06:53:04Z</time></trkpt>
<trkpt lat="45.84534100" lon="4.80260200"><ele>591.5999756496</ele><time>2010-07-31T06:53:05Z</time></trkpt>
<trkpt lat="45.84539400" lon="4.80261900"><ele>591.2000122128</ele><time>2010-07-31T06:53:06Z</time></trkpt>
<trkpt lat="45.84545600" lon="4.80263400"><ele>590.4999999984</ele><time>2010-07-31T06:53:07Z</time></trkpt>
<trkpt lat="45.84551800" lon="4.80263500"><ele>590.4000243792</ele><time>2010-07-31T06:53:08Z</time></trkpt>
<trkpt lat="45.84557600" lon="4.80263700"><ele>590.2000121808</ele><time>2010-07-31T06:53:09Z</time></trkpt>
<trkpt lat="45.84563400" lon="4.80263800"><ele>589.9999999824</ele><time>2010-07-31T06:53:10Z</time></trkpt>
<trkpt lat="45.84569400" lon="4.80262600"><ele>589.799987784</ele><time>2010-07-31T06:53:11Z</time></trkpt>
<trkpt lat="45.84575600" lon="4.80264100"><ele>588.9000243312</ele><time>2010-07-31T06:53:12Z</time></trkpt>
<trkpt lat="45.84581600" lon="4.80265500"><ele>588.299987736</ele><time>2010-07-31T06:53:13Z</time></trkpt>
<trkpt lat="45.84586900" lon="4.80267000"><ele>587.9999999184</ele><time>2010-07-31T06:53:14Z</time></trkpt>
<trkpt lat="45.84593400" lon="4.80270200"><ele>587.5999755216</ele><time>2010-07-31T06:53:15Z</time></trkpt>
<trkpt lat="45.84599500" lon="4.80273900"><ele>587.0999755056</ele><time>2010-07-31T06:53:16Z</time></trkpt>
<trkpt lat="45.84605100" lon="4.80277000"><ele>586.9000242672</ele><time>2010-07-31T06:53:17Z</time></trkpt>
<trkpt lat="45.84611000" lon="4.80279100"><ele>587.0999755056</ele><time>2010-07-31T06:53:18Z</time></trkpt>
<trkpt lat="45.84616400" lon="4.80280700"><ele>587.0999755056</ele><time>2010-07-31T06:53:19Z</time></trkpt>
<trkpt lat="45.84621800" lon="4.80282400"><ele>586.9999998864</ele><time>2010-07-31T06:53:20Z</time></trkpt>
<trkpt lat="45.84627400" lon="4.80284800"><ele>586.299987672</ele><time>2010-07-31T06:53:21Z</time></trkpt>
<trkpt lat="45.84632200" lon="4.80287300"><ele>587.299987704</ele><time>2010-07-31T06:53:22Z</time></trkpt>
<trkpt lat="45.84638000" lon="4.80290000"><ele>587.5999755216</ele><time>2010-07-31T06:53:23Z</time></trkpt>
<trkpt lat="45.84642800" lon="4.80293600"><ele>587.5999755216</ele><time>2010-07-31T06:53:24Z</time></trkpt>
<trkpt lat="45.84646700" lon="4.80298000"><ele>587.5999755216</ele><time>2010-07-31T06:53:25Z</time></trkpt>
<trkpt lat="45.84650800" lon="4.80302800"><ele>586.9999998864</ele><time>2010-07-31T06:53:26Z</time></trkpt>
<trkpt lat="45.84655000" lon="4.80307900"><ele>587.0999755056</ele><time>2010-07-31T06:53:27Z</time></trkpt>
<trkpt lat="45.84659100" lon="4.80312500"><ele>586.400024556</ele><time>2010-07-31T06:53:28Z</time></trkpt>
<trkpt lat="45.84663700" lon="4.80317700"><ele>586.400024556</ele><time>2010-07-31T06:53:29Z</time></trkpt>
<trkpt lat="45.84667500" lon="4.80322800"><ele>586.299987672</ele><time>2010-07-31T06:53:30Z</time></trkpt>
<trkpt lat="45.84671800" lon="4.80328000"><ele>586.299987672</ele><time>2010-07-31T06:53:31Z</time></trkpt>
<trkpt lat="45.84676500" lon="4.80334300"><ele>586.4999998704</ele><time>2010-07-31T06:53:32Z</time></trkpt>
<trkpt lat="45.84682100" lon="4.80339800"><ele>585.400024524</ele><time>2010-07-31T06:53:33Z</time></trkpt>
<trkpt lat="45.84686200" lon="4.80344800"><ele>585.2000123256</ele><time>2010-07-31T06:53:34Z</time></trkpt>
<trkpt lat="45.84690800" lon="4.80350200"><ele>584.5999757304</ele><time>2010-07-31T06:53:35Z</time></trkpt>
<trkpt lat="45.84695800" lon="4.80355500"><ele>583.5000000792</ele><time>2010-07-31T06:53:36Z</time></trkpt>
<trkpt lat="45.84700100" lon="4.80360700"><ele>582.900024444</ele><time>2010-07-31T06:53:37Z</time></trkpt>
<trkpt lat="45.84704200" lon="4.80365500"><ele>582.2000122296</ele><time>2010-07-31T06:53:38Z</time></trkpt>
<trkpt lat="45.84708800" lon="4.80371600"><ele>581.7999878328</ele><time>2010-07-31T06:53:39Z</time></trkpt>
<trkpt lat="45.84713400" lon="4.80376700"><ele>581.0999756184</ele><time>2010-07-31T06:53:40Z</time></trkpt>
<trkpt lat="45.84717900" lon="4.80382800"><ele>580.5999756024</ele><time>2010-07-31T06:53:41Z</time></trkpt>
<trkpt lat="45.84722300" lon="4.80388200"><ele>580.400024364</ele><time>2010-07-31T06:53:42Z</time></trkpt>
<trkpt lat="45.84726200" lon="4.80394100"><ele>580.0999755864</ele><time>2010-07-31T06:53:43Z</time></trkpt>
<trkpt lat="45.84730400" lon="4.80399500"><ele>579.2999877528</ele><time>2010-07-31T06:53:44Z</time></trkpt>
<trkpt lat="45.84734500" lon="4.80405100"><ele>577.9999999032</ele><time>2010-07-31T06:53:45Z</time></trkpt>
<trkpt lat="45.84742400" lon="4.80413200"><ele>577.2000120696</ele><time>2010-07-31T06:53:47Z</time></trkpt>
<trkpt lat="45.84745900" lon="4.80417800"><ele>575.9000245248</ele><time>2010-07-31T06:53:48Z</time></trkpt>
<trkpt lat="45.84749000" lon="4.80422900"><ele>574.9000244928</ele><time>2010-07-31T06:53:49Z</time></trkpt>
<trkpt lat="45.84752500" lon="4.80428200"><ele>574.7000122944</ele><time>2010-07-31T06:53:50Z</time></trkpt>
<trkpt lat="45.84756900" lon="4.80433600"><ele>573.5999756832</ele><time>2010-07-31T06:53:51Z</time></trkpt>
<trkpt lat="45.84760600" lon="4.80439000"><ele>572.5999756512</ele><time>2010-07-31T06:53:52Z</time></trkpt>
<trkpt lat="45.84765100" lon="4.80443400"><ele>571.5</ele><time>2010-07-31T06:53:53Z</time></trkpt>
<trkpt lat="45.84769100" lon="4.80447500"><ele>571.2000121824</ele><time>2010-07-31T06:53:54Z</time></trkpt>
<trkpt lat="45.84773000" lon="4.80451700"><ele>570.999999984</ele><time>2010-07-31T06:53:55Z</time></trkpt>
<trkpt lat="45.84776800" lon="4.80455000"><ele>570.4000243488</ele><time>2010-07-31T06:53:56Z</time></trkpt>
<trkpt lat="45.84781000" lon="4.80459300"><ele>569.7000121344</ele><time>2010-07-31T06:53:57Z</time></trkpt>
<trkpt lat="45.84784900" lon="4.80463000"><ele>568.4000242848</ele><time>2010-07-31T06:53:58Z</time></trkpt>
<trkpt lat="45.84788800" lon="4.80466800"><ele>567.7000120704</ele><time>2010-07-31T06:53:59Z</time></trkpt>
<trkpt lat="45.84796000" lon="4.80473400"><ele>566.2999876416</ele><time>2010-07-31T06:54:01Z</time></trkpt>
<trkpt lat="45.84800100" lon="4.80477200"><ele>565.2999879144</ele><time>2010-07-31T06:54:02Z</time></trkpt>
<trkpt lat="45.84804600" lon="4.80481300"><ele>564.5999757</ele><time>2010-07-31T06:54:03Z</time></trkpt>
<trkpt lat="45.84808500" lon="4.80485700"><ele>564.0000000648</ele><time>2010-07-31T06:54:04Z</time></trkpt>
<trkpt lat="45.84812500" lon="4.80489700"><ele>563.9000244456</ele><time>2010-07-31T06:54:05Z</time></trkpt>
<trkpt lat="45.84816800" lon="4.80493700"><ele>563.7000122472</ele><time>2010-07-31T06:54:06Z</time></trkpt>
<trkpt lat="45.84821700" lon="4.80497300"><ele>563.9000244456</ele><time>2010-07-31T06:54:07Z</time></trkpt>
<trkpt lat="45.84826000" lon="4.80501400"><ele>563.9000244456</ele><time>2010-07-31T06:54:08Z</time></trkpt>
<trkpt lat="45.84831100" lon="4.80505100"><ele>563.9000244456</ele><time>2010-07-31T06:54:09Z</time></trkpt>
<trkpt lat="45.84836000" lon="4.80508800"><ele>563.5000000488</ele><time>2010-07-31T06:54:10Z</time></trkpt>
<trkpt lat="45.84840700" lon="4.80513800"><ele>563.5000000488</ele><time>2010-07-31T06:54:11Z</time></trkpt>
<trkpt lat="45.84845500" lon="4.80519700"><ele>561.7000121832</ele><time>2010-07-31T06:54:12Z</time></trkpt>
<trkpt lat="45.84850900" lon="4.80524200"><ele>561.2000121672</ele><time>2010-07-31T06:54:13Z</time></trkpt>
<trkpt lat="45.84856000" lon="4.80528300"><ele>561.099975588</ele><time>2010-07-31T06:54:14Z</time></trkpt>
<trkpt lat="45.84860500" lon="4.80535500"><ele>559.4999999208</ele><time>2010-07-31T06:54:15Z</time></trkpt>
<trkpt lat="45.84865200" lon="4.80542000"><ele>558.7999877064</ele><time>2010-07-31T06:54:16Z</time></trkpt>
<trkpt lat="45.84869300" lon="4.80549200"><ele>558.4999998888</ele><time>2010-07-31T06:54:17Z</time></trkpt>
<trkpt lat="45.84872700" lon="4.80554900"><ele>558.4000242696</ele><time>2010-07-31T06:54:18Z</time></trkpt>
<trkpt lat="45.84877500" lon="4.80561300"><ele>558.4000242696</ele><time>2010-07-31T06:54:19Z</time></trkpt>
<trkpt lat="45.84881900" lon="4.80568500"><ele>558.2999876904</ele><time>2010-07-31T06:54:20Z</time></trkpt>
<trkpt lat="45.84886800" lon="4.80575000"><ele>558.099975492</ele><time>2010-07-31T06:54:21Z</time></trkpt>
<trkpt lat="45.84890100" lon="4.80581000"><ele>556.7999876424</ele><time>2010-07-31T06:54:22Z</time></trkpt>
<trkpt lat="45.84896200" lon="4.80586200"><ele>556.0000001136</ele><time>2010-07-31T06:54:23Z</time></trkpt>
<trkpt lat="45.84900500" lon="4.80592100"><ele>555.0999757008</ele><time>2010-07-31T06:54:24Z</time></trkpt>
<trkpt lat="45.84904800" lon="4.80597200"><ele>553.9000244304</ele><time>2010-07-31T06:54:25Z</time></trkpt>
<trkpt lat="45.84908500" lon="4.80603100"><ele>553.4000244144</ele><time>2010-07-31T06:54:26Z</time></trkpt>
<trkpt lat="45.84913400" lon="4.80609800"><ele>553.0999756368</ele><time>2010-07-31T06:54:27Z</time></trkpt>
<trkpt lat="45.84919000" lon="4.80615800"><ele>552.200012184</ele><time>2010-07-31T06:54:28Z</time></trkpt>
<trkpt lat="45.84924200" lon="4.80621600"><ele>551.7999877872</ele><time>2010-07-31T06:54:29Z</time></trkpt>
<trkpt lat="45.84930400" lon="4.80626700"><ele>550.5999755568</ele><time>2010-07-31T06:54:30Z</time></trkpt>
<trkpt lat="45.84935600" lon="4.80632900"><ele>549.9999999216</ele><time>2010-07-31T06:54:31Z</time></trkpt>
<trkpt lat="45.84940700" lon="4.80639600"><ele>549.700012104</ele><time>2010-07-31T06:54:32Z</time></trkpt>
<trkpt lat="45.84944500" lon="4.80646700"><ele>549.700012104</ele><time>2010-07-31T06:54:33Z</time></trkpt>
<trkpt lat="45.84947600" lon="4.80653700"><ele>548.9000242704</ele><time>2010-07-31T06:54:35Z</time></trkpt>
<trkpt lat="45.84947200" lon="4.80660500"><ele>547.5000001464</ele><time>2010-07-31T06:54:37Z</time></trkpt>
<trkpt lat="45.84942800" lon="4.80664800"><ele>545.5999757016</ele><time>2010-07-31T06:54:42Z</time></trkpt>
<trkpt lat="45.84934100" lon="4.80663700"><ele>545.5000000824</ele><time>2010-07-31T06:54:44Z</time></trkpt>
<trkpt lat="45.84928100" lon="4.80661600"><ele>545.299987884</ele><time>2010-07-31T06:54:46Z</time></trkpt>
<trkpt lat="45.84918500" lon="4.80660600"><ele>544.9000244472</ele><time>2010-07-31T06:54:48Z</time></trkpt>
<trkpt lat="45.84913700" lon="4.80661700"><ele>544.7000122488</ele><time>2010-07-31T06:54:49Z</time></trkpt>
<trkpt lat="45.84907900" lon="4.80658300"><ele>544.5999756696</ele><time>2010-07-31T06:54:51Z</time></trkpt>
<trkpt lat="45.84901700" lon="4.80654800"><ele>544.299987852</ele><time>2010-07-31T06:54:53Z</time></trkpt>
<trkpt lat="45.84895700" lon="4.80652000"><ele>544.0000000344</ele><time>2010-07-31T06:54:55Z</time></trkpt>
<trkpt lat="45.84888700" lon="4.80648000"><ele>543.5999756376</ele><time>2010-07-31T06:54:57Z</time></trkpt>
<trkpt lat="45.84879800" lon="4.80646200"><ele>544.299987852</ele><time>2010-07-31T06:54:58Z</time></trkpt>
<trkpt lat="45.84875100" lon="4.80645200"><ele>544.0000000344</ele><time>2010-07-31T06:54:59Z</time></trkpt>
<trkpt lat="45.84870200" lon="4.80644200"><ele>543.799987836</ele><time>2010-07-31T06:55:00Z</time></trkpt>
<trkpt lat="45.84861900" lon="4.80642000"><ele>543.5000000184</ele><time>2010-07-31T06:55:02Z</time></trkpt>
<trkpt lat="45.84853400" lon="4.80642600"><ele>546.0000000984</ele><time>2010-07-31T06:55:04Z</time></trkpt>
<trkpt lat="45.84845100" lon="4.80642400"><ele>546.2000122968</ele><time>2010-07-31T06:55:06Z</time></trkpt>
<trkpt lat="45.84840300" lon="4.80642000"><ele>546.5999757336</ele><time>2010-07-31T06:55:07Z</time></trkpt>
<trkpt lat="45.84831700" lon="4.80641700"><ele>546.7000123128</ele><time>2010-07-31T06:55:09Z</time></trkpt>
<trkpt lat="45.84825100" lon="4.80638000"><ele>546.799987932</ele><time>2010-07-31T06:55:11Z</time></trkpt>
<trkpt lat="45.84817500" lon="4.80637700"><ele>546.4000244952</ele><time>2010-07-31T06:55:13Z</time></trkpt>
<trkpt lat="45.84810000" lon="4.80636300"><ele>545.9000244792</ele><time>2010-07-31T06:55:15Z</time></trkpt>
<trkpt lat="45.84805600" lon="4.80634300"><ele>545.5000000824</ele><time>2010-07-31T06:55:16Z</time></trkpt>
<trkpt lat="45.84799900" lon="4.80633500"><ele>544.5999756696</ele><time>2010-07-31T06:55:17Z</time></trkpt>
<trkpt lat="45.84793500" lon="4.80627800"><ele>543.0999756216</ele><time>2010-07-31T06:55:19Z</time></trkpt>
<trkpt lat="45.84789200" lon="4.80625500"><ele>541.9000243512</ele><time>2010-07-31T06:55:20Z</time></trkpt>
<trkpt lat="45.84783200" lon="4.80627300"><ele>541.4999999544</ele><time>2010-07-31T06:55:21Z</time></trkpt>
<trkpt lat="45.84777900" lon="4.80627900"><ele>541.5999755736</ele><time>2010-07-31T06:55:22Z</time></trkpt>
<trkpt lat="45.84771600" lon="4.80629600"><ele>542.799987804</ele><time>2010-07-31T06:55:23Z</time></trkpt>
<trkpt lat="45.84763500" lon="4.80631200"><ele>542.5999756056</ele><time>2010-07-31T06:55:25Z</time></trkpt>
<trkpt lat="45.84755100" lon="4.80633600"><ele>541.9000243512</ele><time>2010-07-31T06:55:27Z</time></trkpt>
<trkpt lat="45.84749600" lon="4.80635100"><ele>542.0999755896</ele><time>2010-07-31T06:55:28Z</time></trkpt>
<trkpt lat="45.84744700" lon="4.80635900"><ele>541.5999755736</ele><time>2010-07-31T06:55:29Z</time></trkpt>
<trkpt lat="45.84739800" lon="4.80639600"><ele>541.299987756</ele><time>2010-07-31T06:55:30Z</time></trkpt>
<trkpt lat="45.84735400" lon="4.80641000"><ele>541.2000121368</ele><time>2010-07-31T06:55:31Z</time></trkpt>
<trkpt lat="45.84727200" lon="4.80643500"><ele>541.2000121368</ele><time>2010-07-31T06:55:33Z</time></trkpt>
<trkpt lat="45.84722100" lon="4.80645500"><ele>541.2000121368</ele><time>2010-07-31T06:55:34Z</time></trkpt>
<trkpt lat="45.84713100" lon="4.80644700"><ele>541.5999755736</ele><time>2010-07-31T06:55:36Z</time></trkpt>
<trkpt lat="45.84707600" lon="4.80644900"><ele>541.5999755736</ele><time>2010-07-31T06:55:37Z</time></trkpt>
<trkpt lat="45.84702900" lon="4.80645200"><ele>541.4999999544</ele><time>2010-07-31T06:55:38Z</time></trkpt>
<trkpt lat="45.84697500" lon="4.80645200"><ele>541.799987772</ele><time>2010-07-31T06:55:39Z</time></trkpt>
<trkpt lat="45.84689800" lon="4.80646200"><ele>540.79998774</ele><time>2010-07-31T06:55:41Z</time></trkpt>
<trkpt lat="45.84682300" lon="4.80646800"><ele>540.79998774</ele><time>2010-07-31T06:55:43Z</time></trkpt>
<trkpt lat="45.84675200" lon="4.80646200"><ele>540.4000243032</ele><time>2010-07-31T06:55:45Z</time></trkpt>
<trkpt lat="45.84668100" lon="4.80644000"><ele>540.4000243032</ele><time>2010-07-31T06:55:47Z</time></trkpt>
<trkpt lat="45.84660400" lon="4.80642000"><ele>540.0999755256</ele><time>2010-07-31T06:55:49Z</time></trkpt>
<trkpt lat="45.84651600" lon="4.80639400"><ele>540.2000121048</ele><time>2010-07-31T06:55:51Z</time></trkpt>
<trkpt lat="45.84644600" lon="4.80636600"><ele>539.7000120888</ele><time>2010-07-31T06:55:53Z</time></trkpt>
<trkpt lat="45.84638200" lon="4.80634400"><ele>540.0999755256</ele><time>2010-07-31T06:55:55Z</time></trkpt>
<trkpt lat="45.84631400" lon="4.80633600"><ele>539.5999755096</ele><time>2010-07-31T06:55:57Z</time></trkpt>
<trkpt lat="45.84622800" lon="4.80633400"><ele>539.799987708</ele><time>2010-07-31T06:55:59Z</time></trkpt>
<trkpt lat="45.84614800" lon="4.80631400"><ele>539.7000120888</ele><time>2010-07-31T06:56:01Z</time></trkpt>
<trkpt lat="45.84607400" lon="4.80629800"><ele>539.5999755096</ele><time>2010-07-31T06:56:02Z</time></trkpt>
<trkpt lat="45.84599900" lon="4.80623200"><ele>538.2000123456</ele><time>2010-07-31T06:56:03Z</time></trkpt>
<trkpt lat="45.84594500" lon="4.80619100"><ele>537.5000001312</ele><time>2010-07-31T06:56:04Z</time></trkpt>
<trkpt lat="45.84590700" lon="4.80613900"><ele>537.5000001312</ele><time>2010-07-31T06:56:05Z</time></trkpt>
<trkpt lat="45.84587000" lon="4.80607600"><ele>537.400024512</ele><time>2010-07-31T06:56:06Z</time></trkpt>
<trkpt lat="45.84584100" lon="4.80599400"><ele>537.0000001152</ele><time>2010-07-31T06:56:07Z</time></trkpt>
<trkpt lat="45.84582100" lon="4.80590700"><ele>536.5000000992</ele><time>2010-07-31T06:56:08Z</time></trkpt>
<trkpt lat="45.84579300" lon="4.80581000"><ele>535.5000000672</ele><time>2010-07-31T06:56:09Z</time></trkpt>
<trkpt lat="45.84576600" lon="4.80572200"><ele>535.2000122496</ele><time>2010-07-31T06:56:10Z</time></trkpt>
<trkpt lat="45.84572700" lon="4.80564100"><ele>535.0000000512</ele><time>2010-07-31T06:56:11Z</time></trkpt>
<trkpt lat="45.84566700" lon="4.80557800"><ele>535.0999756704</ele><time>2010-07-31T06:56:13Z</time></trkpt>
<trkpt lat="45.84561900" lon="4.80556500"><ele>535.0000000512</ele><time>2010-07-31T06:56:14Z</time></trkpt>
<trkpt lat="45.84557000" lon="4.80555800"><ele>535.0000000512</ele><time>2010-07-31T06:56:15Z</time></trkpt>
<trkpt lat="45.84552000" lon="4.80558400"><ele>536.5000000992</ele><time>2010-07-31T06:56:18Z</time></trkpt>
<trkpt lat="45.84547100" lon="4.80561000"><ele>540.2000121048</ele><time>2010-07-31T06:56:42Z</time></trkpt>
<trkpt lat="45.84541800" lon="4.80564600"><ele>540.4000243032</ele><time>2010-07-31T06:56:46Z</time></trkpt>
<trkpt lat="45.84537100" lon="4.80569400"><ele>540.4999999224</ele><time>2010-07-31T06:56:50Z</time></trkpt>
<trkpt lat="45.84531700" lon="4.80572700"><ele>540.0999755256</ele><time>2010-07-31T06:56:53Z</time></trkpt>
<trkpt lat="45.84525500" lon="4.80574500"><ele>540.5999755416</ele><time>2010-07-31T06:56:55Z</time></trkpt>
<trkpt lat="45.84520300" lon="4.80577900"><ele>538.5999754776</ele><time>2010-07-31T06:57:00Z</time></trkpt>
<trkpt lat="45.84515900" lon="4.80581000"><ele>539.5999755096</ele><time>2010-07-31T06:57:03Z</time></trkpt>
<trkpt lat="45.84511100" lon="4.80585500"><ele>538.0999754616</ele><time>2010-07-31T06:57:10Z</time></trkpt>
<trkpt lat="45.84506100" lon="4.80585900"><ele>537.400024512</ele><time>2010-07-31T06:57:12Z</time></trkpt>
<trkpt lat="45.84500800" lon="4.80586700"><ele>538.0999754616</ele><time>2010-07-31T06:57:14Z</time></trkpt>
<trkpt lat="45.84494100" lon="4.80587100"><ele>538.400024544</ele><time>2010-07-31T06:57:16Z</time></trkpt>
<trkpt lat="45.84488300" lon="4.80590200"><ele>538.0999754616</ele><time>2010-07-31T06:57:18Z</time></trkpt>
<trkpt lat="45.84482000" lon="4.80591400"><ele>536.2999879008</ele><time>2010-07-31T06:57:22Z</time></trkpt>
<trkpt lat="45.84476800" lon="4.80591100"><ele>535.400024448</ele><time>2010-07-31T06:57:24Z</time></trkpt>
<trkpt lat="45.84471600" lon="4.80591600"><ele>536.0000000832</ele><time>2010-07-31T06:57:27Z</time></trkpt>
<trkpt lat="45.84466900" lon="4.80591400"><ele>535.7000122656</ele><time>2010-07-31T06:57:30Z</time></trkpt>
<trkpt lat="45.84460200" lon="4.80591200"><ele>536.5999757184</ele><time>2010-07-31T06:57:31Z</time></trkpt>
<trkpt lat="45.84455700" lon="4.80589900"><ele>537.0000001152</ele><time>2010-07-31T06:57:33Z</time></trkpt>
<trkpt lat="45.84449800" lon="4.80588300"><ele>536.900024496</ele><time>2010-07-31T06:57:36Z</time></trkpt>
<trkpt lat="45.84443200" lon="4.80587900"><ele>537.799987644</ele><time>2010-07-31T06:57:40Z</time></trkpt>
<trkpt lat="45.84438600" lon="4.80587300"><ele>538.0999754616</ele><time>2010-07-31T06:57:42Z</time></trkpt>
<trkpt lat="45.84432000" lon="4.80587000"><ele>538.799987676</ele><time>2010-07-31T06:57:45Z</time></trkpt>
<trkpt lat="45.84427300" lon="4.80591500"><ele>539.4000242712</ele><time>2010-07-31T06:57:46Z</time></trkpt>
<trkpt lat="45.84423300" lon="4.80597100"><ele>539.4000242712</ele><time>2010-07-31T06:57:47Z</time></trkpt>
<trkpt lat="45.84419900" lon="4.80601500"><ele>539.4000242712</ele><time>2010-07-31T06:57:48Z</time></trkpt>
<trkpt lat="45.84417200" lon="4.80610800"><ele>538.799987676</ele><time>2010-07-31T06:57:50Z</time></trkpt>
<trkpt lat="45.84415200" lon="4.80621000"><ele>539.299987692</ele><time>2010-07-31T06:57:52Z</time></trkpt>
<trkpt lat="45.84413000" lon="4.80631600"><ele>539.799987708</ele><time>2010-07-31T06:57:54Z</time></trkpt>
<trkpt lat="45.84411100" lon="4.80638000"><ele>540.9000243192</ele><time>2010-07-31T06:57:55Z</time></trkpt>
<trkpt lat="45.84414100" lon="4.80647400"><ele>537.2000123136</ele><time>2010-07-31T06:57:57Z</time></trkpt>
<trkpt lat="45.84413700" lon="4.80658100"><ele>533.7999878208</ele><time>2010-07-31T06:57:59Z</time></trkpt>
<trkpt lat="45.84411300" lon="4.80667400"><ele>532.5999755904</ele><time>2010-07-31T06:58:01Z</time></trkpt>
<trkpt lat="45.84413100" lon="4.80674400"><ele>532.2000121536</ele><time>2010-07-31T06:58:03Z</time></trkpt>
<trkpt lat="45.84414300" lon="4.80681600"><ele>531.7999877568</ele><time>2010-07-31T06:58:05Z</time></trkpt>
<trkpt lat="45.84414300" lon="4.80691700"><ele>531.40002432</ele><time>2010-07-31T06:58:07Z</time></trkpt>
<trkpt lat="45.84411900" lon="4.80702500"><ele>530.2000120896</ele><time>2010-07-31T06:58:09Z</time></trkpt>
<trkpt lat="45.84414100" lon="4.80712200"><ele>527.4000244968</ele><time>2010-07-31T06:58:10Z</time></trkpt>
<trkpt lat="45.84414100" lon="4.80719800"><ele>526.5999757032</ele><time>2010-07-31T06:58:11Z</time></trkpt>
<trkpt lat="45.84414800" lon="4.80726200"><ele>526.0999756872</ele><time>2010-07-31T06:58:12Z</time></trkpt>
<trkpt lat="45.84415700" lon="4.80738200"><ele>525.9000244488</ele><time>2010-07-31T06:58:14Z</time></trkpt>
<trkpt lat="45.84415900" lon="4.80745800"><ele>526.2999878856</ele><time>2010-07-31T06:58:15Z</time></trkpt>
<trkpt lat="45.84415700" lon="4.80752500"><ele>525.5999756712</ele><time>2010-07-31T06:58:16Z</time></trkpt>
<trkpt lat="45.84416900" lon="4.80758700"><ele>525.5999756712</ele><time>2010-07-31T06:58:17Z</time></trkpt>
<trkpt lat="45.84419400" lon="4.80769300"><ele>525.500000052</ele><time>2010-07-31T06:58:19Z</time></trkpt>
<trkpt lat="45.84421100" lon="4.80779300"><ele>526.000000068</ele><time>2010-07-31T06:58:21Z</time></trkpt>
<trkpt lat="45.84422500" lon="4.80785600"><ele>525.7000122504</ele><time>2010-07-31T06:58:22Z</time></trkpt>
<trkpt lat="45.84419400" lon="4.80793400"><ele>524.2999878216</ele><time>2010-07-31T06:58:23Z</time></trkpt>
<trkpt lat="45.84415700" lon="4.80799000"><ele>521.99999994</ele><time>2010-07-31T06:58:24Z</time></trkpt>
<trkpt lat="45.84416700" lon="4.80811300"><ele>520.2999876936</ele><time>2010-07-31T06:58:26Z</time></trkpt>
<trkpt lat="45.84416500" lon="4.80823800"><ele>519.999999876</ele><time>2010-07-31T06:58:28Z</time></trkpt>
<trkpt lat="45.84416700" lon="4.80836300"><ele>519.2000123472</ele><time>2010-07-31T06:58:30Z</time></trkpt>
<trkpt lat="45.84417500" lon="4.80844300"><ele>518.2000123152</ele><time>2010-07-31T06:58:31Z</time></trkpt>
<trkpt lat="45.84414000" lon="4.80856100"><ele>517.59997572</ele><time>2010-07-31T06:58:33Z</time></trkpt>
<trkpt lat="45.84409400" lon="4.80869100"><ele>516.9000244656</ele><time>2010-07-31T06:58:35Z</time></trkpt>
<trkpt lat="45.84406700" lon="4.80880100"><ele>516.5000000688</ele><time>2010-07-31T06:58:37Z</time></trkpt>
<trkpt lat="45.84401500" lon="4.80890000"><ele>516.4000244496</ele><time>2010-07-31T06:58:39Z</time></trkpt>
<trkpt lat="45.84398500" lon="4.80896400"><ele>516.599975688</ele><time>2010-07-31T06:58:40Z</time></trkpt>
<trkpt lat="45.84395500" lon="4.80904000"><ele>517.2999879024</ele><time>2010-07-31T06:58:41Z</time></trkpt>
<trkpt lat="45.84392400" lon="4.80910600"><ele>517.2000122832</ele><time>2010-07-31T06:58:42Z</time></trkpt>
<trkpt lat="45.84390200" lon="4.80919400"><ele>516.0000000528</ele><time>2010-07-31T06:58:43Z</time></trkpt>
<trkpt lat="45.84386600" lon="4.80928300"><ele>514.5000000048</ele><time>2010-07-31T06:58:44Z</time></trkpt>
<trkpt lat="45.84383700" lon="4.80936200"><ele>513.7999877904</ele><time>2010-07-31T06:58:45Z</time></trkpt>
<trkpt lat="45.84380100" lon="4.80946300"><ele>513.7999877904</ele><time>2010-07-31T06:58:46Z</time></trkpt>
<trkpt lat="45.84375300" lon="4.80954400"><ele>512.7999877584</ele><time>2010-07-31T06:58:47Z</time></trkpt>
<trkpt lat="45.84373000" lon="4.80964200"><ele>511.7999877264</ele><time>2010-07-31T06:58:48Z</time></trkpt>
<trkpt lat="45.84371500" lon="4.80974100"><ele>511.7999877264</ele><time>2010-07-31T06:58:49Z</time></trkpt>
<trkpt lat="45.84372300" lon="4.80984600"><ele>510.7000120752</ele><time>2010-07-31T06:58:50Z</time></trkpt>
<trkpt lat="45.84370600" lon="4.80993300"><ele>510.3999937776</ele><time>2010-07-31T06:58:51Z</time></trkpt>
<trkpt lat="45.84369100" lon="4.81000800"><ele>510.2999876784</ele><time>2010-07-31T06:58:52Z</time></trkpt>
<trkpt lat="45.84368200" lon="4.81008500"><ele>509.700012348</ele><time>2010-07-31T06:58:53Z</time></trkpt>
<trkpt lat="45.84368900" lon="4.81016900"><ele>509.200012332</ele><time>2010-07-31T06:58:54Z</time></trkpt>
<trkpt lat="45.84365800" lon="4.81025000"><ele>508.0000001016</ele><time>2010-07-31T06:58:55Z</time></trkpt>
<trkpt lat="45.84359700" lon="4.81033200"><ele>505.7999878392</ele><time>2010-07-31T06:58:56Z</time></trkpt>
<trkpt lat="45.84358400" lon="4.81041200"><ele>504.2999877912</ele><time>2010-07-31T06:58:57Z</time></trkpt>
<trkpt lat="45.84357600" lon="4.81049100"><ele>503.700012156</ele><time>2010-07-31T06:58:58Z</time></trkpt>
<trkpt lat="45.84354700" lon="4.81058100"><ele>502.7999877432</ele><time>2010-07-31T06:58:59Z</time></trkpt>
<trkpt lat="45.84353000" lon="4.81066400"><ele>501.9999999096</ele><time>2010-07-31T06:59:00Z</time></trkpt>
<trkpt lat="45.84351000" lon="4.81074200"><ele>501.3999937944</ele><time>2010-07-31T06:59:01Z</time></trkpt>
<trkpt lat="45.84349100" lon="4.81081700"><ele>500.4999998616</ele><time>2010-07-31T06:59:02Z</time></trkpt>
<trkpt lat="45.84344900" lon="4.81086500"><ele>500.4999998616</ele><time>2010-07-31T06:59:03Z</time></trkpt>
<trkpt lat="45.84340800" lon="4.81092900"><ele>500.0000001504</ele><time>2010-07-31T06:59:04Z</time></trkpt>
<trkpt lat="45.84341700" lon="4.81105200"><ele>499.3999940352</ele><time>2010-07-31T06:59:05Z</time></trkpt>
<trkpt lat="45.84342300" lon="4.81115300"><ele>498.7000123008</ele><time>2010-07-31T06:59:06Z</time></trkpt>
<trkpt lat="45.84341600" lon="4.81126100"><ele>498.0000000864</ele><time>2010-07-31T06:59:07Z</time></trkpt>
<trkpt lat="45.84341700" lon="4.81133500"><ele>497.299987872</ele><time>2010-07-31T06:59:08Z</time></trkpt>
<trkpt lat="45.84342200" lon="4.81140300"><ele>496.7000122368</ele><time>2010-07-31T06:59:09Z</time></trkpt>
<trkpt lat="45.84339000" lon="4.81148600"><ele>496.0000000224</ele><time>2010-07-31T06:59:10Z</time></trkpt>
<trkpt lat="45.84335700" lon="4.81156400"><ele>495.7000122048</ele><time>2010-07-31T06:59:11Z</time></trkpt>
<trkpt lat="45.84333900" lon="4.81165000"><ele>494.9999999904</ele><time>2010-07-31T06:59:12Z</time></trkpt>
<trkpt lat="45.84335700" lon="4.81176700"><ele>492.4999999104</ele><time>2010-07-31T06:59:13Z</time></trkpt>
<trkpt lat="45.84332700" lon="4.81186700"><ele>491.1000059616</ele><time>2010-07-31T06:59:14Z</time></trkpt>
<trkpt lat="45.84330900" lon="4.81197100"><ele>489.2000123016</ele><time>2010-07-31T06:59:15Z</time></trkpt>
<trkpt lat="45.84330300" lon="4.81207100"><ele>488.2000122696</ele><time>2010-07-31T06:59:16Z</time></trkpt>
<trkpt lat="45.84328000" lon="4.81215900"><ele>487.2999878568</ele><time>2010-07-31T06:59:17Z</time></trkpt>
<trkpt lat="45.84326200" lon="4.81224100"><ele>486.5000000232</ele><time>2010-07-31T06:59:18Z</time></trkpt>
<trkpt lat="45.84324800" lon="4.81233100"><ele>485.7999878088</ele><time>2010-07-31T06:59:19Z</time></trkpt>
<trkpt lat="45.84321400" lon="4.81241800"><ele>484.4999999592</ele><time>2010-07-31T06:59:20Z</time></trkpt>
<trkpt lat="45.84318600" lon="4.81250400"><ele>483.399993828</ele><time>2010-07-31T06:59:21Z</time></trkpt>
<trkpt lat="45.84318500" lon="4.81259500"><ele>481.89999378</ele><time>2010-07-31T06:59:22Z</time></trkpt>
<trkpt lat="45.84315900" lon="4.81266900"><ele>481.000000152</ele><time>2010-07-31T06:59:23Z</time></trkpt>
<trkpt lat="45.84314600" lon="4.81274500"><ele>478.7000122704</ele><time>2010-07-31T06:59:25Z</time></trkpt>
<trkpt lat="45.84316800" lon="4.81282800"><ele>476.2999878096</ele><time>2010-07-31T06:59:27Z</time></trkpt>
<trkpt lat="45.84319100" lon="4.81288400"><ele>475.2999877776</ele><time>2010-07-31T06:59:28Z</time></trkpt>
<trkpt lat="45.84321000" lon="4.81297600"><ele>475.2000121584</ele><time>2010-07-31T06:59:30Z</time></trkpt>
<trkpt lat="45.84315000" lon="4.81304300"><ele>474.7999877616</ele><time>2010-07-31T06:59:31Z</time></trkpt>
<trkpt lat="45.84312800" lon="4.81311400"><ele>473.7000121104</ele><time>2010-07-31T06:59:32Z</time></trkpt>
<trkpt lat="45.84310600" lon="4.81317700"><ele>473.1000059952</ele><time>2010-07-31T06:59:33Z</time></trkpt>
<trkpt lat="45.84308500" lon="4.81324300"><ele>473.2999877136</ele><time>2010-07-31T06:59:34Z</time></trkpt>
<trkpt lat="45.84304900" lon="4.81332500"><ele>472.7999876976</ele><time>2010-07-31T06:59:35Z</time></trkpt>
<trkpt lat="45.84302300" lon="4.81340800"><ele>472.999999896</ele><time>2010-07-31T06:59:36Z</time></trkpt>
<trkpt lat="45.84298900" lon="4.81350600"><ele>471.100006236</ele><time>2010-07-31T06:59:37Z</time></trkpt>
<trkpt lat="45.84297000" lon="4.81358200"><ele>471.2000123352</ele><time>2010-07-31T06:59:38Z</time></trkpt>
<trkpt lat="45.84294100" lon="4.81366300"><ele>470.7000123192</ele><time>2010-07-31T06:59:39Z</time></trkpt>
<trkpt lat="45.84294900" lon="4.81376400"><ele>469.7000122872</ele><time>2010-07-31T06:59:40Z</time></trkpt>
<trkpt lat="45.84294600" lon="4.81385300"><ele>469.600006188</ele><time>2010-07-31T06:59:41Z</time></trkpt>
<trkpt lat="45.84293700" lon="4.81393500"><ele>469.3999939896</ele><time>2010-07-31T06:59:42Z</time></trkpt>
<trkpt lat="45.84292500" lon="4.81400400"><ele>468.8999939736</ele><time>2010-07-31T06:59:43Z</time></trkpt>
<trkpt lat="45.84287900" lon="4.81412300"><ele>468.2999878584</ele><time>2010-07-31T06:59:45Z</time></trkpt>
<trkpt lat="45.84287000" lon="4.81425000"><ele>467.100006108</ele><time>2010-07-31T06:59:47Z</time></trkpt>
<trkpt lat="45.84282600" lon="4.81429800"><ele>467.2000122072</ele><time>2010-07-31T06:59:48Z</time></trkpt>
<trkpt lat="45.84277700" lon="4.81435900"><ele>466.3999938936</ele><time>2010-07-31T06:59:49Z</time></trkpt>
<trkpt lat="45.84270700" lon="4.81446500"><ele>466.100006076</ele><time>2010-07-31T06:59:51Z</time></trkpt>
<trkpt lat="45.84270200" lon="4.81455400"><ele>465.2999877624</ele><time>2010-07-31T06:59:52Z</time></trkpt>
<trkpt lat="45.84264500" lon="4.81460700"><ele>464.9999999448</ele><time>2010-07-31T06:59:53Z</time></trkpt>
<trkpt lat="45.84263500" lon="4.81467100"><ele>464.600006028</ele><time>2010-07-31T06:59:54Z</time></trkpt>
<trkpt lat="45.84257500" lon="4.81475500"><ele>464.100006012</ele><time>2010-07-31T06:59:55Z</time></trkpt>
<trkpt lat="45.84255400" lon="4.81482100"><ele>463.9999999128</ele><time>2010-07-31T06:59:56Z</time></trkpt>
<trkpt lat="45.84245500" lon="4.81496900"><ele>461.3999940384</ele><time>2010-07-31T06:59:59Z</time></trkpt>
<trkpt lat="45.84242100" lon="4.81502400"><ele>461.5000001376</ele><time>2010-07-31T07:00:00Z</time></trkpt>
<trkpt lat="45.84240600" lon="4.81512600"><ele>460.8999940224</ele><time>2010-07-31T07:00:02Z</time></trkpt>
<trkpt lat="45.84238500" lon="4.81521500"><ele>460.0000000896</ele><time>2010-07-31T07:00:04Z</time></trkpt>
<trkpt lat="45.84233000" lon="4.81528400"><ele>459.0000000576</ele><time>2010-07-31T07:00:06Z</time></trkpt>
<trkpt lat="45.84225800" lon="4.81534700"><ele>458.1000061248</ele><time>2010-07-31T07:00:08Z</time></trkpt>
<trkpt lat="45.84222500" lon="4.81539400"><ele>457.200012192</ele><time>2010-07-31T07:00:09Z</time></trkpt>
<trkpt lat="45.84216100" lon="4.81549100"><ele>457.1000060928</ele><time>2010-07-31T07:00:11Z</time></trkpt>
<trkpt lat="45.84214300" lon="4.81555400"><ele>455.700012144</ele><time>2010-07-31T07:00:12Z</time></trkpt>
<trkpt lat="45.84214800" lon="4.81565600"><ele>455.200012128</ele><time>2010-07-31T07:00:14Z</time></trkpt>
<trkpt lat="45.84215700" lon="4.81572000"><ele>455.2999877472</ele><time>2010-07-31T07:00:15Z</time></trkpt>
<trkpt lat="45.84213500" lon="4.81579000"><ele>453.8999937984</ele><time>2010-07-31T07:00:16Z</time></trkpt>
<trkpt lat="45.84213300" lon="4.81585700"><ele>452.9999998656</ele><time>2010-07-31T07:00:17Z</time></trkpt>
<trkpt lat="45.84212300" lon="4.81593800"><ele>452.0000001384</ele><time>2010-07-31T07:00:19Z</time></trkpt>
<trkpt lat="45.84210400" lon="4.81602500"><ele>450.6000061896</ele><time>2010-07-31T07:00:21Z</time></trkpt>
<trkpt lat="45.84210900" lon="4.81612600"><ele>449.5000000584</ele><time>2010-07-31T07:00:23Z</time></trkpt>
<trkpt lat="45.84212800" lon="4.81625000"><ele>447.799987812</ele><time>2010-07-31T07:00:25Z</time></trkpt>
<trkpt lat="45.84213200" lon="4.81631500"><ele>446.79998778</ele><time>2010-07-31T07:00:26Z</time></trkpt>
<trkpt lat="45.84214200" lon="4.81638800"><ele>446.1000060456</ele><time>2010-07-31T07:00:27Z</time></trkpt>
<trkpt lat="45.84214600" lon="4.81647500"><ele>445.8999938472</ele><time>2010-07-31T07:00:28Z</time></trkpt>
<trkpt lat="45.84215900" lon="4.81656000"><ele>445.299987732</ele><time>2010-07-31T07:00:29Z</time></trkpt>
<trkpt lat="45.84213800" lon="4.81664100"><ele>444.799987716</ele><time>2010-07-31T07:00:30Z</time></trkpt>
<trkpt lat="45.84211800" lon="4.81672700"><ele>443.7000120648</ele><time>2010-07-31T07:00:31Z</time></trkpt>
<trkpt lat="45.84212900" lon="4.81680600"><ele>443.1000062544</ele><time>2010-07-31T07:00:32Z</time></trkpt>
<trkpt lat="45.84216000" lon="4.81690200"><ele>442.2999879408</ele><time>2010-07-31T07:00:33Z</time></trkpt>
<trkpt lat="45.84216900" lon="4.81697300"><ele>441.899994024</ele><time>2010-07-31T07:00:34Z</time></trkpt>
<trkpt lat="45.84215600" lon="4.81707900"><ele>439.2999878448</ele><time>2010-07-31T07:00:36Z</time></trkpt>
<trkpt lat="45.84216200" lon="4.81718500"><ele>439.1000061264</ele><time>2010-07-31T07:00:38Z</time></trkpt>
<trkpt lat="45.84210600" lon="4.81726100"><ele>437.7999877968</ele><time>2010-07-31T07:00:39Z</time></trkpt>
<trkpt lat="45.84207600" lon="4.81732000"><ele>436.6000060464</ele><time>2010-07-31T07:00:40Z</time></trkpt>
<trkpt lat="45.84207200" lon="4.81743800"><ele>434.9999998992</ele><time>2010-07-31T07:00:42Z</time></trkpt>
<trkpt lat="45.84203800" lon="4.81755000"><ele>430.8999939768</ele><time>2010-07-31T07:00:44Z</time></trkpt>
<trkpt lat="45.84199300" lon="4.81764700"><ele>428.2999877976</ele><time>2010-07-31T07:00:46Z</time></trkpt>
<trkpt lat="45.84193700" lon="4.81773900"><ele>425.7999877176</ele><time>2010-07-31T07:00:48Z</time></trkpt>
<trkpt lat="45.84190900" lon="4.81780800"><ele>419.100006096</ele><time>2010-07-31T07:00:51Z</time></trkpt>
<trkpt lat="45.84183400" lon="4.81788300"><ele>417.4999999488</ele><time>2010-07-31T07:00:54Z</time></trkpt>
<trkpt lat="45.84178900" lon="4.81793900"><ele>416.9999999328</ele><time>2010-07-31T07:00:55Z</time></trkpt>
<trkpt lat="45.84174100" lon="4.81799600"><ele>415.7000120832</ele><time>2010-07-31T07:00:56Z</time></trkpt>
<trkpt lat="45.84170800" lon="4.81805300"><ele>415.3999937856</ele><time>2010-07-31T07:00:57Z</time></trkpt>
<trkpt lat="45.84168100" lon="4.81811000"><ele>414.600005952</ele><time>2010-07-31T07:00:58Z</time></trkpt>
<trkpt lat="45.84164400" lon="4.81818100"><ele>413.3999940264</ele><time>2010-07-31T07:00:59Z</time></trkpt>
<trkpt lat="45.84160800" lon="4.81825400"><ele>412.7999879112</ele><time>2010-07-31T07:01:01Z</time></trkpt>
<trkpt lat="45.84158600" lon="4.81833700"><ele>412.200012276</ele><time>2010-07-31T07:01:03Z</time></trkpt>
<trkpt lat="45.84154500" lon="4.81836800"><ele>410.8999939464</ele><time>2010-07-31T07:01:04Z</time></trkpt>
<trkpt lat="45.84150600" lon="4.81841300"><ele>409.4999999976</ele><time>2010-07-31T07:01:05Z</time></trkpt>
<trkpt lat="45.84144800" lon="4.81848400"><ele>408.3999938664</ele><time>2010-07-31T07:01:07Z</time></trkpt>
<trkpt lat="45.84139400" lon="4.81854800"><ele>406.4999999016</ele><time>2010-07-31T07:01:09Z</time></trkpt>
<trkpt lat="45.84137900" lon="4.81863400"><ele>403.1000061936</ele><time>2010-07-31T07:01:11Z</time></trkpt>
<trkpt lat="45.84135000" lon="4.81868900"><ele>402.0000000624</ele><time>2010-07-31T07:01:13Z</time></trkpt>
<trkpt lat="45.84133300" lon="4.81877300"><ele>401.5000000464</ele><time>2010-07-31T07:01:16Z</time></trkpt>
<trkpt lat="45.84133400" lon="4.81888600"><ele>395.799987672</ele><time>2010-07-31T07:01:17Z</time></trkpt>
<trkpt lat="45.84129800" lon="4.81893800"><ele>394.6000062264</ele><time>2010-07-31T07:01:21Z</time></trkpt>
<trkpt lat="45.84123400" lon="4.81898900"><ele>392.399993964</ele><time>2010-07-31T07:01:24Z</time></trkpt>
<trkpt lat="45.84120300" lon="4.81904600"><ele>390.7999878168</ele><time>2010-07-31T07:01:27Z</time></trkpt>
<trkpt lat="45.84117800" lon="4.81912700"><ele>387.1000059864</ele><time>2010-07-31T07:01:29Z</time></trkpt>
<trkpt lat="45.84114400" lon="4.81918600"><ele>384.2999879136</ele><time>2010-07-31T07:01:32Z</time></trkpt>
<trkpt lat="45.84111000" lon="4.81926500"><ele>381.7999878336</ele><time>2010-07-31T07:01:35Z</time></trkpt>
<trkpt lat="45.84108200" lon="4.81932100"><ele>378.6000060192</ele><time>2010-07-31T07:01:38Z</time></trkpt>
<trkpt lat="45.84105900" lon="4.81940000"><ele>377.1000059712</ele><time>2010-07-31T07:01:41Z</time></trkpt>
<trkpt lat="45.84104200" lon="4.81947600"><ele>377.2000120704</ele><time>2010-07-31T07:01:44Z</time></trkpt>
<trkpt lat="45.84103200" lon="4.81954500"><ele>377.7999877056</ele><time>2010-07-31T07:01:46Z</time></trkpt>
<trkpt lat="45.84100900" lon="4.81961400"><ele>376.8999937728</ele><time>2010-07-31T07:01:48Z</time></trkpt>
<trkpt lat="45.84098600" lon="4.81970100"><ele>375.600006228</ele><time>2010-07-31T07:01:50Z</time></trkpt>
<trkpt lat="45.84096900" lon="4.81980600"><ele>375.0000001128</ele><time>2010-07-31T07:01:52Z</time></trkpt>
<trkpt lat="45.84095800" lon="4.81986800"><ele>373.8999939816</ele><time>2010-07-31T07:01:53Z</time></trkpt>
<trkpt lat="45.84094600" lon="4.81996300"><ele>373.7000122632</ele><time>2010-07-31T07:01:55Z</time></trkpt>
<trkpt lat="45.84094600" lon="4.82006600"><ele>372.3999939336</ele><time>2010-07-31T07:01:57Z</time></trkpt>
<trkpt lat="45.84096000" lon="4.82013000"><ele>371.3999939016</ele><time>2010-07-31T07:01:58Z</time></trkpt>
<trkpt lat="45.84099100" lon="4.82023500"><ele>369.2999877384</ele><time>2010-07-31T07:02:00Z</time></trkpt>
<trkpt lat="45.84101700" lon="4.82035200"><ele>367.7999876904</ele><time>2010-07-31T07:02:02Z</time></trkpt>
<trkpt lat="45.84100500" lon="4.82041800"><ele>363.700012248</ele><time>2010-07-31T07:02:03Z</time></trkpt>
<trkpt lat="45.84101000" lon="4.82050600"><ele>360.200012136</ele><time>2010-07-31T07:02:05Z</time></trkpt>
<trkpt lat="45.84100200" lon="4.82058300"><ele>358.8999938064</ele><time>2010-07-31T07:02:09Z</time></trkpt>
<trkpt lat="45.84098500" lon="4.82065400"><ele>357.3999937584</ele><time>2010-07-31T07:02:11Z</time></trkpt>
<trkpt lat="45.84093600" lon="4.82079400"><ele>354.1000061496</ele><time>2010-07-31T07:02:13Z</time></trkpt>
<trkpt lat="45.84090700" lon="4.82085900"><ele>352.299987804</ele><time>2010-07-31T07:02:14Z</time></trkpt>
<trkpt lat="45.84093100" lon="4.82101100"><ele>346.899994032</ele><time>2010-07-31T07:02:16Z</time></trkpt>
<trkpt lat="45.84094100" lon="4.82108400"><ele>345.5000000832</ele><time>2010-07-31T07:02:17Z</time></trkpt>
<trkpt lat="45.84094400" lon="4.82119100"><ele>344.899993968</ele><time>2010-07-31T07:02:19Z</time></trkpt>
<trkpt lat="45.84091500" lon="4.82124700"><ele>344.399993952</ele><time>2010-07-31T07:02:20Z</time></trkpt>
<trkpt lat="45.84090200" lon="4.82133600"><ele>343.7000122176</ele><time>2010-07-31T07:02:22Z</time></trkpt>
<trkpt lat="45.84089900" lon="4.82141200"><ele>343.2000122016</ele><time>2010-07-31T07:02:24Z</time></trkpt>
<trkpt lat="45.84085700" lon="4.82146700"><ele>343.5000000192</ele><time>2010-07-31T07:02:26Z</time></trkpt>
<trkpt lat="45.84083100" lon="4.82153700"><ele>343.7000122176</ele><time>2010-07-31T07:02:28Z</time></trkpt>
<trkpt lat="45.84080100" lon="4.82161500"><ele>343.7000122176</ele><time>2010-07-31T07:02:30Z</time></trkpt>
<trkpt lat="45.84077400" lon="4.82171400"><ele>342.899993904</ele><time>2010-07-31T07:02:32Z</time></trkpt>
<trkpt lat="45.84074000" lon="4.82177400"><ele>341.7000121536</ele><time>2010-07-31T07:02:33Z</time></trkpt>
<trkpt lat="45.84071900" lon="4.82183800"><ele>340.4999999232</ele><time>2010-07-31T07:02:34Z</time></trkpt>
<trkpt lat="45.84071500" lon="4.82190600"><ele>341.2000121376</ele><time>2010-07-31T07:02:36Z</time></trkpt>
<trkpt lat="45.84069600" lon="4.82197900"><ele>339.899993808</ele><time>2010-07-31T07:02:38Z</time></trkpt>
<trkpt lat="45.84064700" lon="4.82205300"><ele>339.7999877088</ele><time>2010-07-31T07:02:40Z</time></trkpt>
<trkpt lat="45.84060600" lon="4.82211500"><ele>339.2000120736</ele><time>2010-07-31T07:02:41Z</time></trkpt>
<trkpt lat="45.84056800" lon="4.82216800"><ele>338.2000123464</ele><time>2010-07-31T07:02:42Z</time></trkpt>
<trkpt lat="45.84055500" lon="4.82228600"><ele>336.8999940168</ele><time>2010-07-31T07:02:44Z</time></trkpt>
<trkpt lat="45.84052400" lon="4.82238000"><ele>338.2000123464</ele><time>2010-07-31T07:02:46Z</time></trkpt>
<trkpt lat="45.84052300" lon="4.82244600"><ele>336.8999940168</ele><time>2010-07-31T07:02:47Z</time></trkpt>
<trkpt lat="45.84049700" lon="4.82252600"><ele>335.2999878696</ele><time>2010-07-31T07:02:49Z</time></trkpt>
<trkpt lat="45.84047100" lon="4.82259400"><ele>331.6000060392</ele><time>2010-07-31T07:02:51Z</time></trkpt>
<trkpt lat="45.84044400" lon="4.82264800"><ele>330.3999938088</ele><time>2010-07-31T07:02:53Z</time></trkpt>
<trkpt lat="45.84042000" lon="4.82270800"><ele>328.2000123312</ele><time>2010-07-31T07:02:55Z</time></trkpt>
<trkpt lat="45.84038500" lon="4.82276000"><ele>326.2000122672</ele><time>2010-07-31T07:02:57Z</time></trkpt>
<trkpt lat="45.84035400" lon="4.82282700"><ele>324.2999878224</ele><time>2010-07-31T07:02:59Z</time></trkpt>
<trkpt lat="45.84032900" lon="4.82289700"><ele>322.9999999728</ele><time>2010-07-31T07:03:01Z</time></trkpt>
<trkpt lat="45.84030000" lon="4.82298200"><ele>321.600006024</ele><time>2010-07-31T07:03:03Z</time></trkpt>
<trkpt lat="45.84031700" lon="4.82306300"><ele>322.4999999568</ele><time>2010-07-31T07:03:05Z</time></trkpt>
<trkpt lat="45.84030000" lon="4.82313400"><ele>321.600006024</ele><time>2010-07-31T07:03:07Z</time></trkpt>
<trkpt lat="45.84027200" lon="4.82321400"><ele>319.7999876784</ele><time>2010-07-31T07:03:09Z</time></trkpt>
<trkpt lat="45.84026100" lon="4.82329600"><ele>317.7000123</ele><time>2010-07-31T07:03:11Z</time></trkpt>
<trkpt lat="45.84024800" lon="4.82338100"><ele>315.6000061368</ele><time>2010-07-31T07:03:14Z</time></trkpt>
<trkpt lat="45.84024200" lon="4.82348200"><ele>315.5000000376</ele><time>2010-07-31T07:03:17Z</time></trkpt>
<trkpt lat="45.84019800" lon="4.82357100"><ele>313.9999999896</ele><time>2010-07-31T07:03:19Z</time></trkpt>
<trkpt lat="45.84017200" lon="4.82364500"><ele>310.9999998936</ele><time>2010-07-31T07:03:20Z</time></trkpt>
<trkpt lat="45.84015500" lon="4.82370800"><ele>309.1000062336</ele><time>2010-07-31T07:03:21Z</time></trkpt>
<trkpt lat="45.84013600" lon="4.82382400"><ele>306.2000122368</ele><time>2010-07-31T07:03:23Z</time></trkpt>
<trkpt lat="45.84010500" lon="4.82393900"><ele>304.299987792</ele><time>2010-07-31T07:03:25Z</time></trkpt>
<trkpt lat="45.84006300" lon="4.82404200"><ele>303.29998776</ele><time>2010-07-31T07:03:27Z</time></trkpt>
<trkpt lat="45.84003200" lon="4.82413700"><ele>302.9999999424</ele><time>2010-07-31T07:03:29Z</time></trkpt>
<trkpt lat="45.84000900" lon="4.82422100"><ele>301.3999937952</ele><time>2010-07-31T07:03:31Z</time></trkpt>
<trkpt lat="45.84000700" lon="4.82432900"><ele>297.5000000712</ele><time>2010-07-31T07:03:33Z</time></trkpt>
<trkpt lat="45.83998100" lon="4.82442500"><ele>294.1000060584</ele><time>2010-07-31T07:03:35Z</time></trkpt>
<trkpt lat="45.83995100" lon="4.82451800"><ele>293.1000060264</ele><time>2010-07-31T07:03:37Z</time></trkpt>
<trkpt lat="45.83991800" lon="4.82462100"><ele>290.7999876648</ele><time>2010-07-31T07:03:39Z</time></trkpt>
<trkpt lat="45.83988900" lon="4.82471200"><ele>288.3999939888</ele><time>2010-07-31T07:03:41Z</time></trkpt>
<trkpt lat="45.83986100" lon="4.82480100"><ele>286.8999939408</ele><time>2010-07-31T07:03:43Z</time></trkpt>
<trkpt lat="45.83983900" lon="4.82486500"><ele>286.2000122064</ele><time>2010-07-31T07:03:45Z</time></trkpt>
<trkpt lat="45.83981000" lon="4.82492700"><ele>284.6000060592</ele><time>2010-07-31T07:03:48Z</time></trkpt>
<trkpt lat="45.83979700" lon="4.82499400"><ele>283.999999944</ele><time>2010-07-31T07:03:50Z</time></trkpt>
<trkpt lat="45.83981700" lon="4.82507500"><ele>282.7000120944</ele><time>2010-07-31T07:03:53Z</time></trkpt>
<trkpt lat="45.83985800" lon="4.82515700"><ele>281.7999876816</ele><time>2010-07-31T07:03:55Z</time></trkpt>
<trkpt lat="45.83991600" lon="4.82522600"><ele>279.8999940216</ele><time>2010-07-31T07:03:57Z</time></trkpt>
<trkpt lat="45.84000400" lon="4.82529400"><ele>278.5000000728</ele><time>2010-07-31T07:03:59Z</time></trkpt>
<trkpt lat="45.84005500" lon="4.82532900"><ele>278.100006156</ele><time>2010-07-31T07:04:00Z</time></trkpt>
<trkpt lat="45.84011400" lon="4.82536600"><ele>277.8999939576</ele><time>2010-07-31T07:04:01Z</time></trkpt>
<trkpt lat="45.84016800" lon="4.82540300"><ele>277.7999878584</ele><time>2010-07-31T07:04:02Z</time></trkpt>
<trkpt lat="45.84023400" lon="4.82543200"><ele>277.5000000408</ele><time>2010-07-31T07:04:03Z</time></trkpt>
<trkpt lat="45.84030900" lon="4.82544900"><ele>276.5000000088</ele><time>2010-07-31T07:04:04Z</time></trkpt>
<trkpt lat="45.84037700" lon="4.82547100"><ele>275.4999999768</ele><time>2010-07-31T07:04:05Z</time></trkpt>
<trkpt lat="45.84045000" lon="4.82549200"><ele>274.3999938456</ele><time>2010-07-31T07:04:06Z</time></trkpt>
<trkpt lat="45.84052300" lon="4.82550500"><ele>273.2000120952</ele><time>2010-07-31T07:04:07Z</time></trkpt>
<trkpt lat="45.84059100" lon="4.82551900"><ele>271.8999937656</ele><time>2010-07-31T07:04:08Z</time></trkpt>
<trkpt lat="45.84066400" lon="4.82553400"><ele>270.5000001216</ele><time>2010-07-31T07:04:09Z</time></trkpt>
<trkpt lat="45.84073200" lon="4.82554900"><ele>269.8999940064</ele><time>2010-07-31T07:04:10Z</time></trkpt>
<trkpt lat="45.84081500" lon="4.82556800"><ele>269.2999878912</ele><time>2010-07-31T07:04:11Z</time></trkpt>
<trkpt lat="45.84088300" lon="4.82558500"><ele>267.8999939424</ele><time>2010-07-31T07:04:12Z</time></trkpt>
<trkpt lat="45.84095400" lon="4.82559800"><ele>267.1000061088</ele><time>2010-07-31T07:04:13Z</time></trkpt>
<trkpt lat="45.84103200" lon="4.82559500"><ele>265.8999938784</ele><time>2010-07-31T07:04:14Z</time></trkpt>
<trkpt lat="45.84111000" lon="4.82559200"><ele>265.200012144</ele><time>2010-07-31T07:04:15Z</time></trkpt>
<trkpt lat="45.84118900" lon="4.82558300"><ele>264.7999877472</ele><time>2010-07-31T07:04:16Z</time></trkpt>
<trkpt lat="45.84127000" lon="4.82557500"><ele>264.700012128</ele><time>2010-07-31T07:04:17Z</time></trkpt>
<trkpt lat="45.84133000" lon="4.82556500"><ele>264.3999938304</ele><time>2010-07-31T07:04:18Z</time></trkpt>
<trkpt lat="45.84139400" lon="4.82555100"><ele>264.2999877312</ele><time>2010-07-31T07:04:19Z</time></trkpt>
<trkpt lat="45.84144600" lon="4.82554000"><ele>264.200012112</ele><time>2010-07-31T07:04:20Z</time></trkpt>
<trkpt lat="45.84150200" lon="4.82551200"><ele>264.2999877312</ele><time>2010-07-31T07:04:21Z</time></trkpt>
<trkpt lat="45.84154900" lon="4.82553200"><ele>264.1000060128</ele><time>2010-07-31T07:04:22Z</time></trkpt>
<trkpt lat="45.84159700" lon="4.82552700"><ele>264.2999877312</ele><time>2010-07-31T07:04:23Z</time></trkpt>
<trkpt lat="45.84165200" lon="4.82553000"><ele>263.9999999136</ele><time>2010-07-31T07:04:24Z</time></trkpt>
<trkpt lat="45.84167800" lon="4.82559300"><ele>263.9999999136</ele><time>2010-07-31T07:04:25Z</time></trkpt>
<trkpt lat="45.84169700" lon="4.82568800"><ele>261.6000062376</ele><time>2010-07-31T07:04:26Z</time></trkpt>
<trkpt lat="45.84172200" lon="4.82579200"><ele>259.8999939912</ele><time>2010-07-31T07:04:27Z</time></trkpt>
<trkpt lat="45.84176000" lon="4.82590200"><ele>258.1000061256</ele><time>2010-07-31T07:04:28Z</time></trkpt>
<trkpt lat="45.84178700" lon="4.82601500"><ele>256.3999938792</ele><time>2010-07-31T07:04:29Z</time></trkpt>
<trkpt lat="45.84182300" lon="4.82613700"><ele>255.8999938632</ele><time>2010-07-31T07:04:30Z</time></trkpt>
<trkpt lat="45.84184800" lon="4.82625300"><ele>255.4999999464</ele><time>2010-07-31T07:04:31Z</time></trkpt>
<trkpt lat="45.84187700" lon="4.82635500"><ele>255.6000060456</ele><time>2010-07-31T07:04:32Z</time></trkpt>
<trkpt lat="45.84191200" lon="4.82645000"><ele>255.6000060456</ele><time>2010-07-31T07:04:33Z</time></trkpt>
<trkpt lat="45.84193100" lon="4.82653700"><ele>255.300002988</ele><time>2010-07-31T07:04:34Z</time></trkpt>
<trkpt lat="45.84195700" lon="4.82662200"><ele>255.1999968888</ele><time>2010-07-31T07:04:35Z</time></trkpt>
<trkpt lat="45.84197100" lon="4.82670300"><ele>252.9999998664</ele><time>2010-07-31T07:04:37Z</time></trkpt>
<trkpt lat="45.84199900" lon="4.82676400"><ele>252.0000001392</ele><time>2010-07-31T07:04:39Z</time></trkpt>
<trkpt lat="45.84202000" lon="4.82682000"><ele>250.899994008</ele><time>2010-07-31T07:04:41Z</time></trkpt>
<trkpt lat="45.84205400" lon="4.82691300"><ele>250.0000000752</ele><time>2010-07-31T07:04:44Z</time></trkpt>
<trkpt lat="45.84207300" lon="4.82697100"><ele>249.8000031168</ele><time>2010-07-31T07:04:45Z</time></trkpt>
<trkpt lat="45.84209600" lon="4.82702700"><ele>249.3000031008</ele><time>2010-07-31T07:04:46Z</time></trkpt>
<trkpt lat="45.84205700" lon="4.82710400"><ele>248.399993928</ele><time>2010-07-31T07:04:47Z</time></trkpt>
<trkpt lat="45.84205700" lon="4.82718100"><ele>248.1000061104</ele><time>2010-07-31T07:04:48Z</time></trkpt>
<trkpt lat="45.84207400" lon="4.82727300"><ele>247.8000030528</ele><time>2010-07-31T07:04:49Z</time></trkpt>
<trkpt lat="45.84208200" lon="4.82733700"><ele>247.3000030368</ele><time>2010-07-31T07:04:50Z</time></trkpt>
<trkpt lat="45.84209900" lon="4.82743000"><ele>246.89999388</ele><time>2010-07-31T07:04:51Z</time></trkpt>
<trkpt lat="45.84211400" lon="4.82750300"><ele>246.9999999792</ele><time>2010-07-31T07:04:52Z</time></trkpt>
<trkpt lat="45.84207400" lon="4.82759900"><ele>245.899993848</ele><time>2010-07-31T07:04:53Z</time></trkpt>
<trkpt lat="45.84211700" lon="4.82768500"><ele>245.6999968896</ele><time>2010-07-31T07:04:54Z</time></trkpt>
<trkpt lat="45.84213200" lon="4.82775100"><ele>245.4999999312</ele><time>2010-07-31T07:04:55Z</time></trkpt>
<trkpt lat="45.84215800" lon="4.82782900"><ele>242.6000062392</ele><time>2010-07-31T07:04:57Z</time></trkpt>
<trkpt lat="45.84222100" lon="4.82787100"><ele>240.6000061752</ele><time>2010-07-31T07:04:59Z</time></trkpt>
<trkpt lat="45.84228300" lon="4.82791300"><ele>239.6000061432</ele><time>2010-07-31T07:05:01Z</time></trkpt>
<trkpt lat="45.84235000" lon="4.82796900"><ele>241.500000108</ele><time>2010-07-31T07:05:03Z</time></trkpt>
<trkpt lat="45.84242000" lon="4.82799400"><ele>241.500000108</ele><time>2010-07-31T07:05:05Z</time></trkpt>
<trkpt lat="45.84247700" lon="4.82802300"><ele>241.000000092</ele><time>2010-07-31T07:05:07Z</time></trkpt>
<trkpt lat="45.84253600" lon="4.82800800"><ele>240.3999939768</ele><time>2010-07-31T07:05:09Z</time></trkpt>
<trkpt lat="45.84258100" lon="4.82791200"><ele>236.3999938488</ele><time>2010-07-31T07:05:10Z</time></trkpt>
<trkpt lat="45.84264700" lon="4.82785600"><ele>233.8000029096</ele><time>2010-07-31T07:05:12Z</time></trkpt>
<trkpt lat="45.84270200" lon="4.82783500"><ele>232.3000031664</ele><time>2010-07-31T07:05:14Z</time></trkpt>
<trkpt lat="45.84276100" lon="4.82783200"><ele>231.8999940096</ele><time>2010-07-31T07:05:16Z</time></trkpt>
<trkpt lat="45.84281100" lon="4.82783800"><ele>231.5000000928</ele><time>2010-07-31T07:05:18Z</time></trkpt>
<trkpt lat="45.84286100" lon="4.82783800"><ele>230.5000000608</ele><time>2010-07-31T07:05:20Z</time></trkpt>
<trkpt lat="45.84291100" lon="4.82783800"><ele>230.3999939616</ele><time>2010-07-31T07:05:22Z</time></trkpt>
<trkpt lat="45.84297900" lon="4.82782900"><ele>229.6999969872</ele><time>2010-07-31T07:05:25Z</time></trkpt>
<trkpt lat="45.84303600" lon="4.82783100"><ele>229.5000000288</ele><time>2010-07-31T07:05:29Z</time></trkpt>
<trkpt lat="45.84308300" lon="4.82782600"><ele>229.6999969872</ele><time>2010-07-31T07:05:34Z</time></trkpt>
<trkpt lat="45.84314200" lon="4.82783700"><ele>229.5000000288</ele><time>2010-07-31T07:05:43Z</time></trkpt>
<trkpt lat="45.84320400" lon="4.82783800"><ele>229.5000000288</ele><time>2010-07-31T07:05:46Z</time></trkpt>
<trkpt lat="45.84325500" lon="4.82784400"><ele>229.5000000288</ele><time>2010-07-31T07:05:48Z</time></trkpt>
<trkpt lat="45.84330300" lon="4.82784400"><ele>228.6999969552</ele><time>2010-07-31T07:05:50Z</time></trkpt>
<trkpt lat="45.84335400" lon="4.82785200"><ele>228.1999969392</ele><time>2010-07-31T07:05:52Z</time></trkpt>
<trkpt lat="45.84340200" lon="4.82786100"><ele>229.3000030704</ele><time>2010-07-31T07:05:54Z</time></trkpt>
<trkpt lat="45.84345500" lon="4.82787000"><ele>230.3999939616</ele><time>2010-07-31T07:05:56Z</time></trkpt>
<trkpt lat="45.84350900" lon="4.82788800"><ele>230.3000031024</ele><time>2010-07-31T07:05:58Z</time></trkpt>
<trkpt lat="45.84356700" lon="4.82785000"><ele>229.6999969872</ele><time>2010-07-31T07:06:00Z</time></trkpt>
<trkpt lat="45.84361900" lon="4.82784500"><ele>229.3000030704</ele><time>2010-07-31T07:06:02Z</time></trkpt>
<trkpt lat="45.84367600" lon="4.82784800"><ele>229.1999969712</ele><time>2010-07-31T07:06:04Z</time></trkpt>
<trkpt lat="45.84372400" lon="4.82786000"><ele>229.1999969712</ele><time>2010-07-31T07:06:06Z</time></trkpt>
<trkpt lat="45.84377400" lon="4.82786000"><ele>230.100006144</ele><time>2010-07-31T07:06:08Z</time></trkpt>
<trkpt lat="45.84382000" lon="4.82789700"><ele>231.1999970352</ele><time>2010-07-31T07:06:10Z</time></trkpt>
<trkpt lat="45.84387200" lon="4.82793100"><ele>232.1999970672</ele><time>2010-07-31T07:06:12Z</time></trkpt>
<trkpt lat="45.84391900" lon="4.82797000"><ele>233.6000059512</ele><time>2010-07-31T07:06:14Z</time></trkpt>
<trkpt lat="45.84397100" lon="4.82801600"><ele>234.6999968424</ele><time>2010-07-31T07:06:16Z</time></trkpt>
<trkpt lat="45.84403000" lon="4.82804200"><ele>235.3999938168</ele><time>2010-07-31T07:06:18Z</time></trkpt>
<trkpt lat="45.84408800" lon="4.82805300"><ele>235.3000029576</ele><time>2010-07-31T07:06:20Z</time></trkpt>
<trkpt lat="45.84413800" lon="4.82806100"><ele>235.8999938328</ele><time>2010-07-31T07:06:22Z</time></trkpt>
<trkpt lat="45.84419200" lon="4.82806800"><ele>235.8999938328</ele><time>2010-07-31T07:06:24Z</time></trkpt>
<trkpt lat="45.84425500" lon="4.82807400"><ele>235.6999968744</ele><time>2010-07-31T07:06:27Z</time></trkpt>
<trkpt lat="45.84430100" lon="4.82808200"><ele>235.1999968584</ele><time>2010-07-31T07:06:30Z</time></trkpt>
<trkpt lat="45.84435300" lon="4.82807200"><ele>232.8999940416</ele><time>2010-07-31T07:06:35Z</time></trkpt>
<trkpt lat="45.84439000" lon="4.82812000"><ele>230.60000616</ele><time>2010-07-31T07:06:38Z</time></trkpt>
<trkpt lat="45.84440900" lon="4.82820400"><ele>231.100006176</ele><time>2010-07-31T07:06:39Z</time></trkpt>
<trkpt lat="45.84445600" lon="4.82831100"><ele>231.100006176</ele><time>2010-07-31T07:06:41Z</time></trkpt>
<trkpt lat="45.84447900" lon="4.82837100"><ele>231.5000000928</ele><time>2010-07-31T07:06:42Z</time></trkpt>
<trkpt lat="45.84451000" lon="4.82844600"><ele>230.8000031184</ele><time>2010-07-31T07:06:43Z</time></trkpt>
<trkpt lat="45.84453700" lon="4.82852000"><ele>230.8000031184</ele><time>2010-07-31T07:06:44Z</time></trkpt>
<trkpt lat="45.84456400" lon="4.82859200"><ele>230.6999970192</ele><time>2010-07-31T07:06:45Z</time></trkpt>
<trkpt lat="45.84458900" lon="4.82866100"><ele>230.3000031024</ele><time>2010-07-31T07:06:46Z</time></trkpt>
<trkpt lat="45.84460900" lon="4.82873200"><ele>229.6999969872</ele><time>2010-07-31T07:06:47Z</time></trkpt>
<trkpt lat="45.84463000" lon="4.82880500"><ele>229.5000000288</ele><time>2010-07-31T07:06:48Z</time></trkpt>
<trkpt lat="45.84466900" lon="4.82890400"><ele>230.5000000608</ele><time>2010-07-31T07:06:50Z</time></trkpt>
<trkpt lat="45.84470600" lon="4.82898800"><ele>230.3999939616</ele><time>2010-07-31T07:06:52Z</time></trkpt>
<trkpt lat="45.84478100" lon="4.82898700"><ele>230.100006144</ele><time>2010-07-31T07:06:55Z</time></trkpt>
<trkpt lat="45.84482700" lon="4.82897800"><ele>229.5000000288</ele><time>2010-07-31T07:06:56Z</time></trkpt>
<trkpt lat="45.84488000" lon="4.82900600"><ele>230.100006144</ele><time>2010-07-31T07:06:58Z</time></trkpt>
<trkpt lat="45.84493900" lon="4.82906100"><ele>231.3000031344</ele><time>2010-07-31T07:07:00Z</time></trkpt>
<trkpt lat="45.84497600" lon="4.82911600"><ele>231.8999940096</ele><time>2010-07-31T07:07:01Z</time></trkpt>
<trkpt lat="45.84499000" lon="4.82918000"><ele>232.3999940256</ele><time>2010-07-31T07:07:02Z</time></trkpt>
<trkpt lat="45.84498800" lon="4.82927300"><ele>231.0000000768</ele><time>2010-07-31T07:07:03Z</time></trkpt>
<trkpt lat="45.84501300" lon="4.82934000"><ele>230.8000031184</ele><time>2010-07-31T07:07:04Z</time></trkpt>
<trkpt lat="45.84504000" lon="4.82941000"><ele>230.3999939616</ele><time>2010-07-31T07:07:05Z</time></trkpt>
<trkpt lat="45.84506400" lon="4.82947800"><ele>230.8000031184</ele><time>2010-07-31T07:07:06Z</time></trkpt>
<trkpt lat="45.84508400" lon="4.82955900"><ele>231.100006176</ele><time>2010-07-31T07:07:07Z</time></trkpt>
<trkpt lat="45.84510700" lon="4.82963600"><ele>231.1999970352</ele><time>2010-07-31T07:07:08Z</time></trkpt>
<trkpt lat="45.84512400" lon="4.82971900"><ele>231.6999970512</ele><time>2010-07-31T07:07:09Z</time></trkpt>
<trkpt lat="45.84516500" lon="4.82980400"><ele>232.0000001088</ele><time>2010-07-31T07:07:10Z</time></trkpt>
<trkpt lat="45.84518400" lon="4.82990300"><ele>231.3000031344</ele><time>2010-07-31T07:07:11Z</time></trkpt>
<trkpt lat="45.84517000" lon="4.83001100"><ele>230.100006144</ele><time>2010-07-31T07:07:12Z</time></trkpt>
<trkpt lat="45.84519400" lon="4.83010700"><ele>229.6999969872</ele><time>2010-07-31T07:07:13Z</time></trkpt>
<trkpt lat="45.84521400" lon="4.83018500"><ele>229.5000000288</ele><time>2010-07-31T07:07:14Z</time></trkpt>
<trkpt lat="45.84523900" lon="4.83028200"><ele>229.0000000128</ele><time>2010-07-31T07:07:15Z</time></trkpt>
<trkpt lat="45.84526200" lon="4.83037500"><ele>229.1999969712</ele><time>2010-07-31T07:07:16Z</time></trkpt>
<trkpt lat="45.84527600" lon="4.83047400"><ele>228.3000030384</ele><time>2010-07-31T07:07:17Z</time></trkpt>
<trkpt lat="45.84529400" lon="4.83057100"><ele>227.9999999808</ele><time>2010-07-31T07:07:18Z</time></trkpt>
<trkpt lat="45.84532100" lon="4.83066400"><ele>227.4999999648</ele><time>2010-07-31T07:07:19Z</time></trkpt>
<trkpt lat="45.84533400" lon="4.83076400"><ele>226.3999938336</ele><time>2010-07-31T07:07:20Z</time></trkpt>
<trkpt lat="45.84535200" lon="4.83085900"><ele>225.4999999008</ele><time>2010-07-31T07:07:21Z</time></trkpt>
<trkpt lat="45.84536600" lon="4.83094000"><ele>225.3999938016</ele><time>2010-07-31T07:07:22Z</time></trkpt>
<trkpt lat="45.84538300" lon="4.83103600"><ele>225.4999999008</ele><time>2010-07-31T07:07:23Z</time></trkpt>
<trkpt lat="45.84540100" lon="4.83111700"><ele>225.1999968432</ele><time>2010-07-31T07:07:24Z</time></trkpt>
<trkpt lat="45.84541800" lon="4.83118700"><ele>225.100005984</ele><time>2010-07-31T07:07:25Z</time></trkpt>
<trkpt lat="45.84543100" lon="4.83125900"><ele>225.1999968432</ele><time>2010-07-31T07:07:26Z</time></trkpt>
<trkpt lat="45.84546900" lon="4.83133700"><ele>224.1999968112</ele><time>2010-07-31T07:07:28Z</time></trkpt>
<trkpt lat="45.84549000" lon="4.83140900"><ele>223.8000031992</ele><time>2010-07-31T07:07:30Z</time></trkpt>
<trkpt lat="45.84546500" lon="4.83149300"><ele>222.6000062088</ele><time>2010-07-31T07:07:32Z</time></trkpt>
<trkpt lat="45.84539200" lon="4.83150200"><ele>221.5000000776</ele><time>2010-07-31T07:07:35Z</time></trkpt>
<trkpt lat="45.84534600" lon="4.83151900"><ele>224.8999937856</ele><time>2010-07-31T07:07:39Z</time></trkpt>
<trkpt lat="45.84531000" lon="4.83157900"><ele>224.3000029104</ele><time>2010-07-31T07:07:47Z</time></trkpt>
<trkpt lat="45.84529500" lon="4.83166800"><ele>223.5000001416</ele><time>2010-07-31T07:07:49Z</time></trkpt>
<trkpt lat="45.84527700" lon="4.83175300"><ele>223.8000031992</ele><time>2010-07-31T07:07:51Z</time></trkpt>
<trkpt lat="45.84526300" lon="4.83184100"><ele>223.8000031992</ele><time>2010-07-31T07:07:53Z</time></trkpt>
<trkpt lat="45.84522500" lon="4.83190500"><ele>223.5000001416</ele><time>2010-07-31T07:07:55Z</time></trkpt>
<trkpt lat="45.84529000" lon="4.83199300"><ele>224.1999968112</ele><time>2010-07-31T07:07:57Z</time></trkpt>
<trkpt lat="45.84524600" lon="4.83207000"><ele>223.199997084</ele><time>2010-07-31T07:07:59Z</time></trkpt>
<trkpt lat="45.84523300" lon="4.83213900"><ele>222.3999940104</ele><time>2010-07-31T07:08:01Z</time></trkpt>
<trkpt lat="45.84521400" lon="4.83219900"><ele>222.0000000936</ele><time>2010-07-31T07:08:03Z</time></trkpt>
<trkpt lat="45.84520600" lon="4.83226600"><ele>222.199997052</ele><time>2010-07-31T07:08:09Z</time></trkpt>
<trkpt lat="45.84517200" lon="4.83231400"><ele>221.699997036</ele><time>2010-07-31T07:08:12Z</time></trkpt>
<trkpt lat="45.84519500" lon="4.83239000"><ele>221.3000031192</ele><time>2010-07-31T07:08:15Z</time></trkpt>
<trkpt lat="45.84518900" lon="4.83248100"><ele>222.0000000936</ele><time>2010-07-31T07:08:22Z</time></trkpt>
<trkpt lat="45.84514900" lon="4.83253100"><ele>223.3000031832</ele><time>2010-07-31T07:08:24Z</time></trkpt>
<trkpt lat="45.84514400" lon="4.83260800"><ele>223.5000001416</ele><time>2010-07-31T07:08:26Z</time></trkpt>
<trkpt lat="45.84512600" lon="4.83270200"><ele>223.0000001256</ele><time>2010-07-31T07:08:28Z</time></trkpt>
<trkpt lat="45.84511800" lon="4.83278500"><ele>223.3999940424</ele><time>2010-07-31T07:08:30Z</time></trkpt>
<trkpt lat="45.84511200" lon="4.83288500"><ele>223.1000062248</ele><time>2010-07-31T07:08:32Z</time></trkpt>
<trkpt lat="45.84509700" lon="4.83298100"><ele>223.3000031832</ele><time>2010-07-31T07:08:34Z</time></trkpt>
<trkpt lat="45.84507500" lon="4.83306400"><ele>222.3999940104</ele><time>2010-07-31T07:08:36Z</time></trkpt>
<trkpt lat="45.84507200" lon="4.83315500"><ele>221.8999939944</ele><time>2010-07-31T07:08:38Z</time></trkpt>
<trkpt lat="45.84507600" lon="4.83323900"><ele>220.8000031032</ele><time>2010-07-31T07:08:40Z</time></trkpt>
<trkpt lat="45.84507600" lon="4.83331800"><ele>220.3999939464</ele><time>2010-07-31T07:08:42Z</time></trkpt>
<trkpt lat="45.84506000" lon="4.83339600"><ele>220.0000000296</ele><time>2010-07-31T07:08:44Z</time></trkpt>
<trkpt lat="45.84502700" lon="4.83349800"><ele>223.199997084</ele><time>2010-07-31T07:08:48Z</time></trkpt>
<trkpt lat="45.84501600" lon="4.83357500"><ele>222.8999940264</ele><time>2010-07-31T07:08:50Z</time></trkpt>
<trkpt lat="45.84501500" lon="4.83363900"><ele>222.3999940104</ele><time>2010-07-31T07:08:51Z</time></trkpt>
<trkpt lat="45.84501000" lon="4.83374300"><ele>221.8000031352</ele><time>2010-07-31T07:08:53Z</time></trkpt>
<trkpt lat="45.84501000" lon="4.83385200"><ele>222.3999940104</ele><time>2010-07-31T07:08:55Z</time></trkpt>
<trkpt lat="45.84501500" lon="4.83394900"><ele>222.8000031672</ele><time>2010-07-31T07:08:57Z</time></trkpt>
<trkpt lat="45.84498400" lon="4.83404400"><ele>222.3999940104</ele><time>2010-07-31T07:08:59Z</time></trkpt>
<trkpt lat="45.84496900" lon="4.83414200"><ele>223.1000062248</ele><time>2010-07-31T07:09:01Z</time></trkpt>
<trkpt lat="45.84496100" lon="4.83425000"><ele>221.5000000776</ele><time>2010-07-31T07:09:03Z</time></trkpt>
<trkpt lat="45.84493800" lon="4.83434600"><ele>221.5000000776</ele><time>2010-07-31T07:09:05Z</time></trkpt>
<trkpt lat="45.84491900" lon="4.83443800"><ele>221.19999702</ele><time>2010-07-31T07:09:07Z</time></trkpt>
<trkpt lat="45.84492400" lon="4.83453800"><ele>221.0000000616</ele><time>2010-07-31T07:09:09Z</time></trkpt>
<trkpt lat="45.84491900" lon="4.83460600"><ele>221.0000000616</ele><time>2010-07-31T07:09:11Z</time></trkpt>
<trkpt lat="45.84486600" lon="4.83461400"><ele>222.5000001096</ele><time>2010-07-31T07:09:14Z</time></trkpt>
<trkpt lat="45.84483000" lon="4.83466600"><ele>222.6000062088</ele><time>2010-07-31T07:09:16Z</time></trkpt>
<trkpt lat="45.84479400" lon="4.83461600"><ele>217.9999999656</ele><time>2010-07-31T07:09:20Z</time></trkpt>
<trkpt lat="45.84475800" lon="4.83450500"><ele>215.4999998856</ele><time>2010-07-31T07:09:22Z</time></trkpt>
<trkpt lat="45.84473100" lon="4.83444300"><ele>214.8999937704</ele><time>2010-07-31T07:09:23Z</time></trkpt>
<trkpt lat="45.84465800" lon="4.83438300"><ele>214.9999998696</ele><time>2010-07-31T07:09:25Z</time></trkpt>
<trkpt lat="45.84458200" lon="4.83438000"><ele>215.1000059688</ele><time>2010-07-31T07:09:26Z</time></trkpt>
<trkpt lat="45.84453300" lon="4.83436500"><ele>215.4999998856</ele><time>2010-07-31T07:09:27Z</time></trkpt>
<trkpt lat="45.84448200" lon="4.83435100"><ele>215.4999998856</ele><time>2010-07-31T07:09:28Z</time></trkpt>
<trkpt lat="45.84443500" lon="4.83432800"><ele>215.699996844</ele><time>2010-07-31T07:09:29Z</time></trkpt>
<trkpt lat="45.84438600" lon="4.83431900"><ele>215.699996844</ele><time>2010-07-31T07:09:30Z</time></trkpt>
<trkpt lat="45.84433000" lon="4.83431200"><ele>215.699996844</ele><time>2010-07-31T07:09:31Z</time></trkpt>
<trkpt lat="45.84427500" lon="4.83429600"><ele>215.8000029432</ele><time>2010-07-31T07:09:32Z</time></trkpt>
<trkpt lat="45.84422300" lon="4.83427700"><ele>216.1000060008</ele><time>2010-07-31T07:09:33Z</time></trkpt>
<trkpt lat="45.84417300" lon="4.83426100"><ele>215.9999999016</ele><time>2010-07-31T07:09:34Z</time></trkpt>
<trkpt lat="45.84411800" lon="4.83424600"><ele>216.6000060168</ele><time>2010-07-31T07:09:35Z</time></trkpt>
<trkpt lat="45.84406800" lon="4.83422800"><ele>216.8999938344</ele><time>2010-07-31T07:09:36Z</time></trkpt>
<trkpt lat="45.84402200" lon="4.83421000"><ele>216.9999999336</ele><time>2010-07-31T07:09:37Z</time></trkpt>
<trkpt lat="45.84392700" lon="4.83416800"><ele>217.4999999496</ele><time>2010-07-31T07:09:39Z</time></trkpt>
<trkpt lat="45.84387500" lon="4.83415300"><ele>217.4999999496</ele><time>2010-07-31T07:09:40Z</time></trkpt>
<trkpt lat="45.84382800" lon="4.83413500"><ele>217.8999938664</ele><time>2010-07-31T07:09:41Z</time></trkpt>
<trkpt lat="45.84377900" lon="4.83411600"><ele>218.199996924</ele><time>2010-07-31T07:09:42Z</time></trkpt>
<trkpt lat="45.84368800" lon="4.83408000"><ele>218.199996924</ele><time>2010-07-31T07:09:44Z</time></trkpt>
<trkpt lat="45.84364000" lon="4.83406600"><ele>218.6000060808</ele><time>2010-07-31T07:09:45Z</time></trkpt>
<trkpt lat="45.84354900" lon="4.83403400"><ele>218.69999694</ele><time>2010-07-31T07:09:47Z</time></trkpt>
<trkpt lat="45.84350300" lon="4.83401700"><ele>218.8000030392</ele><time>2010-07-31T07:09:48Z</time></trkpt>
<trkpt lat="45.84345500" lon="4.83399800"><ele>218.8000030392</ele><time>2010-07-31T07:09:49Z</time></trkpt>
<trkpt lat="45.84340900" lon="4.83398500"><ele>218.8999938984</ele><time>2010-07-31T07:09:50Z</time></trkpt>
<trkpt lat="45.84336200" lon="4.83395800"><ele>218.8999938984</ele><time>2010-07-31T07:09:51Z</time></trkpt>
<trkpt lat="45.84328100" lon="4.83392500"><ele>218.8000030392</ele><time>2010-07-31T07:09:53Z</time></trkpt>
<trkpt lat="45.84323100" lon="4.83391400"><ele>218.8000030392</ele><time>2010-07-31T07:09:54Z</time></trkpt>
<trkpt lat="45.84317900" lon="4.83389400"><ele>218.3999938824</ele><time>2010-07-31T07:09:55Z</time></trkpt>
<trkpt lat="45.84312900" lon="4.83387200"><ele>218.69999694</ele><time>2010-07-31T07:09:56Z</time></trkpt>
<trkpt lat="45.84307400" lon="4.83385700"><ele>219.1000060968</ele><time>2010-07-31T07:09:57Z</time></trkpt>
<trkpt lat="45.84302700" lon="4.83383900"><ele>218.8000030392</ele><time>2010-07-31T07:09:58Z</time></trkpt>
<trkpt lat="45.84298100" lon="4.83381800"><ele>218.8000030392</ele><time>2010-07-31T07:09:59Z</time></trkpt>
<trkpt lat="45.84293500" lon="4.83381000"><ele>218.8999938984</ele><time>2010-07-31T07:10:00Z</time></trkpt>
<trkpt lat="45.84284900" lon="4.83378900"><ele>218.9999999976</ele><time>2010-07-31T07:10:02Z</time></trkpt>
<trkpt lat="45.84280100" lon="4.83377200"><ele>219.1000060968</ele><time>2010-07-31T07:10:03Z</time></trkpt>
<trkpt lat="45.84275500" lon="4.83375400"><ele>219.1000060968</ele><time>2010-07-31T07:10:04Z</time></trkpt>
<trkpt lat="45.84266300" lon="4.83372300"><ele>219.3000030552</ele><time>2010-07-31T07:10:06Z</time></trkpt>
<trkpt lat="45.84261900" lon="4.83370000"><ele>219.199996956</ele><time>2010-07-31T07:10:07Z</time></trkpt>
<trkpt lat="45.84257300" lon="4.83367600"><ele>219.8000030712</ele><time>2010-07-31T07:10:08Z</time></trkpt>
<trkpt lat="45.84249400" lon="4.83364400"><ele>220.1000061288</ele><time>2010-07-31T07:10:10Z</time></trkpt>
<trkpt lat="45.84244700" lon="4.83362700"><ele>219.8000030712</ele><time>2010-07-31T07:10:11Z</time></trkpt>
<trkpt lat="45.84236100" lon="4.83360400"><ele>219.3999939144</ele><time>2010-07-31T07:10:13Z</time></trkpt>
<trkpt lat="45.84227300" lon="4.83358000"><ele>219.3000030552</ele><time>2010-07-31T07:10:15Z</time></trkpt>
<trkpt lat="45.84218500" lon="4.83355000"><ele>219.1000060968</ele><time>2010-07-31T07:10:17Z</time></trkpt>
<trkpt lat="45.84210000" lon="4.83352700"><ele>219.699996972</ele><time>2010-07-31T07:10:19Z</time></trkpt>
<trkpt lat="45.84201700" lon="4.83349700"><ele>219.3000030552</ele><time>2010-07-31T07:10:21Z</time></trkpt>
<trkpt lat="45.84193500" lon="4.83346600"><ele>219.3000030552</ele><time>2010-07-31T07:10:23Z</time></trkpt>
<trkpt lat="45.84185100" lon="4.83343500"><ele>219.5000000136</ele><time>2010-07-31T07:10:25Z</time></trkpt>
<trkpt lat="45.84177200" lon="4.83339900"><ele>219.199996956</ele><time>2010-07-31T07:10:27Z</time></trkpt>
<trkpt lat="45.84168900" lon="4.83336800"><ele>218.9999999976</ele><time>2010-07-31T07:10:29Z</time></trkpt>
<trkpt lat="45.84164500" lon="4.83334900"><ele>219.199996956</ele><time>2010-07-31T07:10:30Z</time></trkpt>
<trkpt lat="45.84156100" lon="4.83332000"><ele>218.69999694</ele><time>2010-07-31T07:10:32Z</time></trkpt>
<trkpt lat="45.84147600" lon="4.83329000"><ele>218.8999938984</ele><time>2010-07-31T07:10:34Z</time></trkpt>
<trkpt lat="45.84142700" lon="4.83327500"><ele>219.1000060968</ele><time>2010-07-31T07:10:35Z</time></trkpt>
<trkpt lat="45.84134400" lon="4.83324900"><ele>219.6000061128</ele><time>2010-07-31T07:10:37Z</time></trkpt>
<trkpt lat="45.84125900" lon="4.83322300"><ele>219.3000030552</ele><time>2010-07-31T07:10:39Z</time></trkpt>
<trkpt lat="45.84118900" lon="4.83319100"><ele>219.3999939144</ele><time>2010-07-31T07:10:41Z</time></trkpt>
<trkpt lat="45.84111000" lon="4.83317300"><ele>219.6000061128</ele><time>2010-07-31T07:10:43Z</time></trkpt>
<trkpt lat="45.84102700" lon="4.83315200"><ele>220.8000031032</ele><time>2010-07-31T07:10:45Z</time></trkpt>
<trkpt lat="45.84097100" lon="4.83314000"><ele>222.3999940104</ele><time>2010-07-31T07:10:46Z</time></trkpt>
<trkpt lat="45.84092400" lon="4.83313300"><ele>222.699997068</ele><time>2010-07-31T07:10:47Z</time></trkpt>
<trkpt lat="45.84087700" lon="4.83312500"><ele>223.1000062248</ele><time>2010-07-31T07:10:48Z</time></trkpt>
<trkpt lat="45.84078500" lon="4.83310800"><ele>223.3000031832</ele><time>2010-07-31T07:10:50Z</time></trkpt>
<trkpt lat="45.84074000" lon="4.83309700"><ele>223.1000062248</ele><time>2010-07-31T07:10:51Z</time></trkpt>
<trkpt lat="45.84068600" lon="4.83309100"><ele>222.699997068</ele><time>2010-07-31T07:10:52Z</time></trkpt>
<trkpt lat="45.84060000" lon="4.83306000"><ele>222.699997068</ele><time>2010-07-31T07:10:54Z</time></trkpt>
<trkpt lat="45.84055400" lon="4.83306000"><ele>222.3000031512</ele><time>2010-07-31T07:10:55Z</time></trkpt>
<trkpt lat="45.84050800" lon="4.83305600"><ele>222.3999940104</ele><time>2010-07-31T07:10:56Z</time></trkpt>
<trkpt lat="45.84044900" lon="4.83305100"><ele>221.8000031352</ele><time>2010-07-31T07:10:57Z</time></trkpt>
<trkpt lat="45.84038800" lon="4.83305700"><ele>221.19999702</ele><time>2010-07-31T07:10:58Z</time></trkpt>
<trkpt lat="45.84034300" lon="4.83304200"><ele>221.19999702</ele><time>2010-07-31T07:10:59Z</time></trkpt>
<trkpt lat="45.84029300" lon="4.83304500"><ele>220.5000000456</ele><time>2010-07-31T07:11:00Z</time></trkpt>
<trkpt lat="45.84020600" lon="4.83303200"><ele>220.3999939464</ele><time>2010-07-31T07:11:02Z</time></trkpt>
<trkpt lat="45.84015900" lon="4.83304000"><ele>220.0000000296</ele><time>2010-07-31T07:11:03Z</time></trkpt>
<trkpt lat="45.84007100" lon="4.83302900"><ele>219.8999939304</ele><time>2010-07-31T07:11:05Z</time></trkpt>
<trkpt lat="45.83999500" lon="4.83302500"><ele>219.8999939304</ele><time>2010-07-31T07:11:07Z</time></trkpt>
<trkpt lat="45.83994200" lon="4.83302200"><ele>220.3999939464</ele><time>2010-07-31T07:11:08Z</time></trkpt>
<trkpt lat="45.83989400" lon="4.83302300"><ele>220.5000000456</ele><time>2010-07-31T07:11:09Z</time></trkpt>
<trkpt lat="45.83984600" lon="4.83303600"><ele>219.3999939144</ele><time>2010-07-31T07:11:10Z</time></trkpt>
<trkpt lat="45.83979200" lon="4.83304100"><ele>218.6000060808</ele><time>2010-07-31T07:11:11Z</time></trkpt>
<trkpt lat="45.83970300" lon="4.83305000"><ele>218.3999938824</ele><time>2010-07-31T07:11:13Z</time></trkpt>
<trkpt lat="45.83965700" lon="4.83306400"><ele>217.9999999656</ele><time>2010-07-31T07:11:14Z</time></trkpt>
<trkpt lat="45.83960900" lon="4.83307400"><ele>217.699996908</ele><time>2010-07-31T07:11:15Z</time></trkpt>
<trkpt lat="45.83956400" lon="4.83308900"><ele>218.1000060648</ele><time>2010-07-31T07:11:16Z</time></trkpt>
<trkpt lat="45.83948200" lon="4.83311100"><ele>218.1000060648</ele><time>2010-07-31T07:11:18Z</time></trkpt>
<trkpt lat="45.83939300" lon="4.83313500"><ele>217.6000060488</ele><time>2010-07-31T07:11:20Z</time></trkpt>
<trkpt lat="45.83934700" lon="4.83314800"><ele>217.6000060488</ele><time>2010-07-31T07:11:21Z</time></trkpt>
<trkpt lat="45.83926200" lon="4.83316900"><ele>217.9999999656</ele><time>2010-07-31T07:11:23Z</time></trkpt>
<trkpt lat="45.83921700" lon="4.83317900"><ele>218.199996924</ele><time>2010-07-31T07:11:24Z</time></trkpt>
<trkpt lat="45.83913600" lon="4.83320600"><ele>218.199996924</ele><time>2010-07-31T07:11:26Z</time></trkpt>
<trkpt lat="45.83905600" lon="4.83323100"><ele>218.3000030232</ele><time>2010-07-31T07:11:28Z</time></trkpt>
<trkpt lat="45.83898300" lon="4.83325700"><ele>218.199996924</ele><time>2010-07-31T07:11:30Z</time></trkpt>
<trkpt lat="45.83890600" lon="4.83329300"><ele>218.3000030232</ele><time>2010-07-31T07:11:32Z</time></trkpt>
<trkpt lat="45.83883200" lon="4.83332700"><ele>217.8999938664</ele><time>2010-07-31T07:11:34Z</time></trkpt>
<trkpt lat="45.83876300" lon="4.83335400"><ele>217.699996908</ele><time>2010-07-31T07:11:36Z</time></trkpt>
<trkpt lat="45.83871800" lon="4.83337800"><ele>217.6000060488</ele><time>2010-07-31T07:11:38Z</time></trkpt>
<trkpt lat="45.83865000" lon="4.83340800"><ele>217.8000030072</ele><time>2010-07-31T07:11:40Z</time></trkpt>
<trkpt lat="45.83858800" lon="4.83345200"><ele>217.699996908</ele><time>2010-07-31T07:11:42Z</time></trkpt>
<trkpt lat="45.83852500" lon="4.83349700"><ele>217.8999938664</ele><time>2010-07-31T07:11:44Z</time></trkpt>
<trkpt lat="45.83845200" lon="4.83352900"><ele>218.1000060648</ele><time>2010-07-31T07:11:46Z</time></trkpt>
<trkpt lat="45.83837100" lon="4.83356900"><ele>218.3000030232</ele><time>2010-07-31T07:11:48Z</time></trkpt>
<trkpt lat="45.83829300" lon="4.83360700"><ele>218.1000060648</ele><time>2010-07-31T07:11:50Z</time></trkpt>
<trkpt lat="45.83824500" lon="4.83363100"><ele>217.6000060488</ele><time>2010-07-31T07:11:51Z</time></trkpt>
<trkpt lat="45.83819900" lon="4.83365200"><ele>217.699996908</ele><time>2010-07-31T07:11:52Z</time></trkpt>
<trkpt lat="45.83811300" lon="4.83369000"><ele>217.6000060488</ele><time>2010-07-31T07:11:54Z</time></trkpt>
<trkpt lat="45.83806300" lon="4.83370800"><ele>217.8000030072</ele><time>2010-07-31T07:11:55Z</time></trkpt>
<trkpt lat="45.83797500" lon="4.83375500"><ele>217.8999938664</ele><time>2010-07-31T07:11:57Z</time></trkpt>
<trkpt lat="45.83793300" lon="4.83378300"><ele>217.8999938664</ele><time>2010-07-31T07:11:58Z</time></trkpt>
<trkpt lat="45.83788700" lon="4.83380700"><ele>217.8999938664</ele><time>2010-07-31T07:11:59Z</time></trkpt>
<trkpt lat="45.83783900" lon="4.83383600"><ele>217.8000030072</ele><time>2010-07-31T07:12:00Z</time></trkpt>
<trkpt lat="45.83776000" lon="4.83388100"><ele>217.8999938664</ele><time>2010-07-31T07:12:02Z</time></trkpt>
<trkpt lat="45.83771400" lon="4.83390600"><ele>217.6000060488</ele><time>2010-07-31T07:12:03Z</time></trkpt>
<trkpt lat="45.83767100" lon="4.83393000"><ele>217.1000060328</ele><time>2010-07-31T07:12:04Z</time></trkpt>
<trkpt lat="45.83763000" lon="4.83396700"><ele>216.8999938344</ele><time>2010-07-31T07:12:05Z</time></trkpt>
<trkpt lat="45.83758500" lon="4.83399700"><ele>217.1000060328</ele><time>2010-07-31T07:12:06Z</time></trkpt>
<trkpt lat="45.83754500" lon="4.83402800"><ele>216.8999938344</ele><time>2010-07-31T07:12:07Z</time></trkpt>
<trkpt lat="45.83750400" lon="4.83406000"><ele>216.9999999336</ele><time>2010-07-31T07:12:08Z</time></trkpt>
<trkpt lat="45.83746400" lon="4.83409200"><ele>216.9999999336</ele><time>2010-07-31T07:12:09Z</time></trkpt>
<trkpt lat="45.83742200" lon="4.83411800"><ele>217.1000060328</ele><time>2010-07-31T07:12:10Z</time></trkpt>
<trkpt lat="45.83737900" lon="4.83415600"><ele>217.4999999496</ele><time>2010-07-31T07:12:11Z</time></trkpt>
<trkpt lat="45.83730200" lon="4.83422200"><ele>217.1000060328</ele><time>2010-07-31T07:12:13Z</time></trkpt>
<trkpt lat="45.83726200" lon="4.83425500"><ele>216.8000029752</ele><time>2010-07-31T07:12:14Z</time></trkpt>
<trkpt lat="45.83722100" lon="4.83428500"><ele>216.3000029592</ele><time>2010-07-31T07:12:15Z</time></trkpt>
<trkpt lat="45.83718100" lon="4.83431800"><ele>215.9999999016</ele><time>2010-07-31T07:12:16Z</time></trkpt>
<trkpt lat="45.83710400" lon="4.83437800"><ele>216.19999686</ele><time>2010-07-31T07:12:18Z</time></trkpt>
<trkpt lat="45.83705900" lon="4.83441400"><ele>215.9999999016</ele><time>2010-07-31T07:12:19Z</time></trkpt>
<trkpt lat="45.83702000" lon="4.83445100"><ele>215.8999938024</ele><time>2010-07-31T07:12:20Z</time></trkpt>
<trkpt lat="45.83697400" lon="4.83448700"><ele>216.1000060008</ele><time>2010-07-31T07:12:21Z</time></trkpt>
<trkpt lat="45.83693100" lon="4.83452100"><ele>216.3999938184</ele><time>2010-07-31T07:12:22Z</time></trkpt>
<trkpt lat="45.83689400" lon="4.83456400"><ele>216.19999686</ele><time>2010-07-31T07:12:23Z</time></trkpt>
<trkpt lat="45.83685600" lon="4.83461200"><ele>215.9999999016</ele><time>2010-07-31T07:12:24Z</time></trkpt>
<trkpt lat="45.83681900" lon="4.83466200"><ele>216.19999686</ele><time>2010-07-31T07:12:25Z</time></trkpt>
<trkpt lat="45.83678400" lon="4.83470800"><ele>216.1000060008</ele><time>2010-07-31T07:12:26Z</time></trkpt>
<trkpt lat="45.83674700" lon="4.83474900"><ele>216.3999938184</ele><time>2010-07-31T07:12:27Z</time></trkpt>
<trkpt lat="45.83670700" lon="4.83479400"><ele>216.6000060168</ele><time>2010-07-31T07:12:28Z</time></trkpt>
<trkpt lat="45.83667200" lon="4.83483700"><ele>216.8000029752</ele><time>2010-07-31T07:12:29Z</time></trkpt>
<trkpt lat="45.83663500" lon="4.83488000"><ele>216.6000060168</ele><time>2010-07-31T07:12:30Z</time></trkpt>
<trkpt lat="45.83660100" lon="4.83493200"><ele>216.3999938184</ele><time>2010-07-31T07:12:31Z</time></trkpt>
<trkpt lat="45.83656900" lon="4.83498300"><ele>216.3000029592</ele><time>2010-07-31T07:12:32Z</time></trkpt>
<trkpt lat="45.83653400" lon="4.83502500"><ele>216.6000060168</ele><time>2010-07-31T07:12:33Z</time></trkpt>
<trkpt lat="45.83646900" lon="4.83512700"><ele>216.1000060008</ele><time>2010-07-31T07:12:35Z</time></trkpt>
<trkpt lat="45.83643400" lon="4.83517500"><ele>216.3999938184</ele><time>2010-07-31T07:12:36Z</time></trkpt>
<trkpt lat="45.83640300" lon="4.83522700"><ele>216.3000029592</ele><time>2010-07-31T07:12:37Z</time></trkpt>
<trkpt lat="45.83637200" lon="4.83527500"><ele>216.19999686</ele><time>2010-07-31T07:12:38Z</time></trkpt>
<trkpt lat="45.83633700" lon="4.83532600"><ele>216.4999999176</ele><time>2010-07-31T07:12:39Z</time></trkpt>
<trkpt lat="45.83630300" lon="4.83537700"><ele>216.3000029592</ele><time>2010-07-31T07:12:40Z</time></trkpt>
<trkpt lat="45.83627200" lon="4.83542900"><ele>216.3000029592</ele><time>2010-07-31T07:12:41Z</time></trkpt>
<trkpt lat="45.83624000" lon="4.83547800"><ele>215.8000029432</ele><time>2010-07-31T07:12:42Z</time></trkpt>
<trkpt lat="45.83620500" lon="4.83553500"><ele>215.8000029432</ele><time>2010-07-31T07:12:43Z</time></trkpt>
<trkpt lat="45.83617000" lon="4.83559000"><ele>215.8999938024</ele><time>2010-07-31T07:12:44Z</time></trkpt>
<trkpt lat="45.83613900" lon="4.83564800"><ele>215.9999999016</ele><time>2010-07-31T07:12:45Z</time></trkpt>
<trkpt lat="45.83610500" lon="4.83570400"><ele>215.8999938024</ele><time>2010-07-31T07:12:46Z</time></trkpt>
<trkpt lat="45.83608400" lon="4.83577700"><ele>215.8000029432</ele><time>2010-07-31T07:12:47Z</time></trkpt>
<trkpt lat="45.83605200" lon="4.83583600"><ele>215.3999937864</ele><time>2010-07-31T07:12:48Z</time></trkpt>
<trkpt lat="45.83602100" lon="4.83589400"><ele>215.199996828</ele><time>2010-07-31T07:12:49Z</time></trkpt>
<trkpt lat="45.83598800" lon="4.83595200"><ele>215.199996828</ele><time>2010-07-31T07:12:50Z</time></trkpt>
<trkpt lat="45.83596000" lon="4.83601900"><ele>215.1000059688</ele><time>2010-07-31T07:12:51Z</time></trkpt>
<trkpt lat="45.83593400" lon="4.83608400"><ele>214.9999998696</ele><time>2010-07-31T07:12:52Z</time></trkpt>
<trkpt lat="45.83590700" lon="4.83614900"><ele>214.8999937704</ele><time>2010-07-31T07:12:53Z</time></trkpt>
<trkpt lat="45.83587600" lon="4.83621000"><ele>214.8000029112</ele><time>2010-07-31T07:12:54Z</time></trkpt>
<trkpt lat="45.83584900" lon="4.83628200"><ele>214.8999937704</ele><time>2010-07-31T07:12:55Z</time></trkpt>
<trkpt lat="45.83582100" lon="4.83634500"><ele>214.6000059528</ele><time>2010-07-31T07:12:56Z</time></trkpt>
<trkpt lat="45.83579300" lon="4.83641000"><ele>214.699996812</ele><time>2010-07-31T07:12:57Z</time></trkpt>
<trkpt lat="45.83576800" lon="4.83646800"><ele>214.8000029112</ele><time>2010-07-31T07:12:58Z</time></trkpt>
<trkpt lat="45.83573700" lon="4.83653500"><ele>214.4999998536</ele><time>2010-07-31T07:12:59Z</time></trkpt>
<trkpt lat="45.83571200" lon="4.83659000"><ele>214.3999937544</ele><time>2010-07-31T07:13:00Z</time></trkpt>
<trkpt lat="45.83568500" lon="4.83664300"><ele>214.1000062416</ele><time>2010-07-31T07:13:01Z</time></trkpt>
<trkpt lat="45.83565500" lon="4.83669200"><ele>213.800003184</ele><time>2010-07-31T07:13:02Z</time></trkpt>
<trkpt lat="45.83561600" lon="4.83679900"><ele>213.800003184</ele><time>2010-07-31T07:13:04Z</time></trkpt>
<trkpt lat="45.83557400" lon="4.83690100"><ele>213.6999970848</ele><time>2010-07-31T07:13:06Z</time></trkpt>
<trkpt lat="45.83554600" lon="4.83695900"><ele>213.5000001264</ele><time>2010-07-31T07:13:07Z</time></trkpt>
<trkpt lat="45.83552100" lon="4.83701500"><ele>213.0000001104</ele><time>2010-07-31T07:13:08Z</time></trkpt>
<trkpt lat="45.83549300" lon="4.83707300"><ele>213.1000062096</ele><time>2010-07-31T07:13:09Z</time></trkpt>
<trkpt lat="45.83546600" lon="4.83712600"><ele>212.8999940112</ele><time>2010-07-31T07:13:10Z</time></trkpt>
<trkpt lat="45.83541100" lon="4.83723900"><ele>212.800003152</ele><time>2010-07-31T07:13:12Z</time></trkpt>
<trkpt lat="45.83538400" lon="4.83730400"><ele>212.800003152</ele><time>2010-07-31T07:13:13Z</time></trkpt>
<trkpt lat="45.83536500" lon="4.83737000"><ele>213.1000062096</ele><time>2010-07-31T07:13:14Z</time></trkpt>
<trkpt lat="45.83534100" lon="4.83743900"><ele>213.300003168</ele><time>2010-07-31T07:13:15Z</time></trkpt>
<trkpt lat="45.83531400" lon="4.83750500"><ele>213.1000062096</ele><time>2010-07-31T07:13:16Z</time></trkpt>
<trkpt lat="45.83528200" lon="4.83756300"><ele>213.0000001104</ele><time>2010-07-31T07:13:17Z</time></trkpt>
<trkpt lat="45.83525500" lon="4.83762800"><ele>212.800003152</ele><time>2010-07-31T07:13:18Z</time></trkpt>
<trkpt lat="45.83522900" lon="4.83769200"><ele>212.8999940112</ele><time>2010-07-31T07:13:19Z</time></trkpt>
<trkpt lat="45.83520700" lon="4.83775500"><ele>212.8999940112</ele><time>2010-07-31T07:13:20Z</time></trkpt>
<trkpt lat="45.83518100" lon="4.83782500"><ele>212.6999970528</ele><time>2010-07-31T07:13:21Z</time></trkpt>
<trkpt lat="45.83516400" lon="4.83788600"><ele>212.5000000944</ele><time>2010-07-31T07:13:22Z</time></trkpt>
<trkpt lat="45.83515100" lon="4.83796900"><ele>212.1999970368</ele><time>2010-07-31T07:13:23Z</time></trkpt>
<trkpt lat="45.83513200" lon="4.83804300"><ele>211.6999970208</ele><time>2010-07-31T07:13:24Z</time></trkpt>
<trkpt lat="45.83509400" lon="4.83809000"><ele>211.80000312</ele><time>2010-07-31T07:13:25Z</time></trkpt>
<trkpt lat="45.83507100" lon="4.83815900"><ele>211.300003104</ele><time>2010-07-31T07:13:26Z</time></trkpt>
<trkpt lat="45.83504500" lon="4.83822000"><ele>211.5000000624</ele><time>2010-07-31T07:13:27Z</time></trkpt>
<trkpt lat="45.83503900" lon="4.83830300"><ele>211.1000061456</ele><time>2010-07-31T07:13:28Z</time></trkpt>
<trkpt lat="45.83502700" lon="4.83837500"><ele>210.800003088</ele><time>2010-07-31T07:13:29Z</time></trkpt>
<trkpt lat="45.83499700" lon="4.83843200"><ele>210.6000061296</ele><time>2010-07-31T07:13:30Z</time></trkpt>
<trkpt lat="45.83498300" lon="4.83851200"><ele>210.3999939312</ele><time>2010-07-31T07:13:31Z</time></trkpt>
<trkpt lat="45.83496100" lon="4.83857700"><ele>210.3999939312</ele><time>2010-07-31T07:13:32Z</time></trkpt>
<trkpt lat="45.83493500" lon="4.83865700"><ele>210.1999969728</ele><time>2010-07-31T07:13:33Z</time></trkpt>
<trkpt lat="45.83491400" lon="4.83872500"><ele>210.300003072</ele><time>2010-07-31T07:13:34Z</time></trkpt>
<trkpt lat="45.83489200" lon="4.83879500"><ele>210.3999939312</ele><time>2010-07-31T07:13:35Z</time></trkpt>
<trkpt lat="45.83487100" lon="4.83886700"><ele>210.300003072</ele><time>2010-07-31T07:13:36Z</time></trkpt>
<trkpt lat="45.83487000" lon="4.83895400"><ele>210.5000000304</ele><time>2010-07-31T07:13:37Z</time></trkpt>
<trkpt lat="45.83485800" lon="4.83902900"><ele>211.1999970048</ele><time>2010-07-31T07:13:38Z</time></trkpt>
<trkpt lat="45.83483800" lon="4.83910400"><ele>212.1000061776</ele><time>2010-07-31T07:13:39Z</time></trkpt>
<trkpt lat="45.83482500" lon="4.83917900"><ele>212.0000000784</ele><time>2010-07-31T07:13:40Z</time></trkpt>
<trkpt lat="45.83481600" lon="4.83925200"><ele>212.3999939952</ele><time>2010-07-31T07:13:41Z</time></trkpt>
<trkpt lat="45.83480000" lon="4.83932200"><ele>212.6999970528</ele><time>2010-07-31T07:13:42Z</time></trkpt>
<trkpt lat="45.83478700" lon="4.83940000"><ele>212.8999940112</ele><time>2010-07-31T07:13:43Z</time></trkpt>
<trkpt lat="45.83477900" lon="4.83947600"><ele>213.5000001264</ele><time>2010-07-31T07:13:44Z</time></trkpt>
<trkpt lat="45.83476300" lon="4.83955000"><ele>213.1000062096</ele><time>2010-07-31T07:13:45Z</time></trkpt>
<trkpt lat="45.83474800" lon="4.83962000"><ele>213.3999940272</ele><time>2010-07-31T07:13:46Z</time></trkpt>
<trkpt lat="45.83473600" lon="4.83969700"><ele>213.300003168</ele><time>2010-07-31T07:13:47Z</time></trkpt>
<trkpt lat="45.83471900" lon="4.83977000"><ele>213.0000001104</ele><time>2010-07-31T07:13:48Z</time></trkpt>
<trkpt lat="45.83469800" lon="4.83983800"><ele>212.800003152</ele><time>2010-07-31T07:13:49Z</time></trkpt>
<trkpt lat="45.83467700" lon="4.83990700"><ele>212.800003152</ele><time>2010-07-31T07:13:50Z</time></trkpt>
<trkpt lat="45.83465800" lon="4.83997900"><ele>212.800003152</ele><time>2010-07-31T07:13:51Z</time></trkpt>
<trkpt lat="45.83464200" lon="4.84005200"><ele>212.300003136</ele><time>2010-07-31T07:13:52Z</time></trkpt>
<trkpt lat="45.83463100" lon="4.84012900"><ele>212.300003136</ele><time>2010-07-31T07:13:53Z</time></trkpt>
<trkpt lat="45.83461400" lon="4.84020400"><ele>212.1999970368</ele><time>2010-07-31T07:13:54Z</time></trkpt>
<trkpt lat="45.83459800" lon="4.84027400"><ele>212.1000061776</ele><time>2010-07-31T07:13:55Z</time></trkpt>
<trkpt lat="45.83458300" lon="4.84033900"><ele>212.300003136</ele><time>2010-07-31T07:13:56Z</time></trkpt>
<trkpt lat="45.83457000" lon="4.84041400"><ele>212.1999970368</ele><time>2010-07-31T07:13:57Z</time></trkpt>
<trkpt lat="45.83455600" lon="4.84049200"><ele>212.3999939952</ele><time>2010-07-31T07:13:58Z</time></trkpt>
<trkpt lat="45.83454200" lon="4.84056500"><ele>212.3999939952</ele><time>2010-07-31T07:13:59Z</time></trkpt>
<trkpt lat="45.83452400" lon="4.84063500"><ele>212.5000000944</ele><time>2010-07-31T07:14:00Z</time></trkpt>
<trkpt lat="45.83450500" lon="4.84070100"><ele>212.8999940112</ele><time>2010-07-31T07:14:01Z</time></trkpt>
<trkpt lat="45.83449500" lon="4.84077400"><ele>212.3999939952</ele><time>2010-07-31T07:14:02Z</time></trkpt>
<trkpt lat="45.83448300" lon="4.84085100"><ele>212.1000061776</ele><time>2010-07-31T07:14:03Z</time></trkpt>
<trkpt lat="45.83446500" lon="4.84092100"><ele>212.0000000784</ele><time>2010-07-31T07:14:04Z</time></trkpt>
<trkpt lat="45.83445200" lon="4.84098900"><ele>212.3999939952</ele><time>2010-07-31T07:14:05Z</time></trkpt>
<trkpt lat="45.83443700" lon="4.84105800"><ele>212.300003136</ele><time>2010-07-31T07:14:06Z</time></trkpt>
<trkpt lat="45.83442100" lon="4.84112700"><ele>212.300003136</ele><time>2010-07-31T07:14:07Z</time></trkpt>
<trkpt lat="45.83440800" lon="4.84119600"><ele>212.3999939952</ele><time>2010-07-31T07:14:08Z</time></trkpt>
<trkpt lat="45.83437500" lon="4.84124600"><ele>212.6999970528</ele><time>2010-07-31T07:14:09Z</time></trkpt>
<trkpt lat="45.83435900" lon="4.84137900"><ele>213.1000062096</ele><time>2010-07-31T07:14:11Z</time></trkpt>
<trkpt lat="45.83432800" lon="4.84148400"><ele>213.6999970848</ele><time>2010-07-31T07:14:13Z</time></trkpt>
<trkpt lat="45.83430400" lon="4.84160100"><ele>213.6999970848</ele><time>2010-07-31T07:14:15Z</time></trkpt>
<trkpt lat="45.83428800" lon="4.84171100"><ele>213.5000001264</ele><time>2010-07-31T07:14:17Z</time></trkpt>
<trkpt lat="45.83425100" lon="4.84180200"><ele>214.8999937704</ele><time>2010-07-31T07:14:19Z</time></trkpt>
<trkpt lat="45.83421700" lon="4.84189400"><ele>215.8999938024</ele><time>2010-07-31T07:14:21Z</time></trkpt>
<trkpt lat="45.83420000" lon="4.84199400"><ele>216.3000029592</ele><time>2010-07-31T07:14:23Z</time></trkpt>
<trkpt lat="45.83418700" lon="4.84209300"><ele>216.19999686</ele><time>2010-07-31T07:14:25Z</time></trkpt>
<trkpt lat="45.83418500" lon="4.84218100"><ele>216.8000029752</ele><time>2010-07-31T07:14:27Z</time></trkpt>
<trkpt lat="45.83417800" lon="4.84228200"><ele>217.199996892</ele><time>2010-07-31T07:14:29Z</time></trkpt>
<trkpt lat="45.83415300" lon="4.84238000"><ele>217.199996892</ele><time>2010-07-31T07:14:31Z</time></trkpt>
<trkpt lat="45.83412100" lon="4.84248200"><ele>217.4999999496</ele><time>2010-07-31T07:14:33Z</time></trkpt>
<trkpt lat="45.83409200" lon="4.84259600"><ele>217.6000060488</ele><time>2010-07-31T07:14:35Z</time></trkpt>
<trkpt lat="45.83407400" lon="4.84265700"><ele>217.4999999496</ele><time>2010-07-31T07:14:36Z</time></trkpt>
<trkpt lat="45.83405300" lon="4.84272100"><ele>217.6000060488</ele><time>2010-07-31T07:14:37Z</time></trkpt>
<trkpt lat="45.83403700" lon="4.84279300"><ele>217.4999999496</ele><time>2010-07-31T07:14:38Z</time></trkpt>
<trkpt lat="45.83401500" lon="4.84286200"><ele>217.199996892</ele><time>2010-07-31T07:14:39Z</time></trkpt>
<trkpt lat="45.83399500" lon="4.84292900"><ele>217.1000060328</ele><time>2010-07-31T07:14:40Z</time></trkpt>
<trkpt lat="45.83397600" lon="4.84300000"><ele>217.199996892</ele><time>2010-07-31T07:14:41Z</time></trkpt>
<trkpt lat="45.83395200" lon="4.84306300"><ele>217.3000029912</ele><time>2010-07-31T07:14:42Z</time></trkpt>
<trkpt lat="45.83392800" lon="4.84313800"><ele>217.3999938504</ele><time>2010-07-31T07:14:43Z</time></trkpt>
<trkpt lat="45.83390800" lon="4.84320900"><ele>216.9999999336</ele><time>2010-07-31T07:14:44Z</time></trkpt>
<trkpt lat="45.83388700" lon="4.84328100"><ele>217.1000060328</ele><time>2010-07-31T07:14:45Z</time></trkpt>
<trkpt lat="45.83386500" lon="4.84335200"><ele>216.9999999336</ele><time>2010-07-31T07:14:46Z</time></trkpt>
<trkpt lat="45.83384100" lon="4.84341900"><ele>217.199996892</ele><time>2010-07-31T07:14:47Z</time></trkpt>
<trkpt lat="45.83382500" lon="4.84349000"><ele>216.9999999336</ele><time>2010-07-31T07:14:48Z</time></trkpt>
<trkpt lat="45.83381000" lon="4.84355900"><ele>216.8999938344</ele><time>2010-07-31T07:14:49Z</time></trkpt>
<trkpt lat="45.83379300" lon="4.84362200"><ele>216.699996876</ele><time>2010-07-31T07:14:50Z</time></trkpt>
<trkpt lat="45.83376300" lon="4.84369500"><ele>216.699996876</ele><time>2010-07-31T07:14:51Z</time></trkpt>
<trkpt lat="45.83373800" lon="4.84376100"><ele>216.8000029752</ele><time>2010-07-31T07:14:52Z</time></trkpt>
<trkpt lat="45.83372000" lon="4.84383000"><ele>216.6000060168</ele><time>2010-07-31T07:14:53Z</time></trkpt>
<trkpt lat="45.83369700" lon="4.84390200"><ele>216.3000029592</ele><time>2010-07-31T07:14:54Z</time></trkpt>
<trkpt lat="45.83367600" lon="4.84396400"><ele>215.8999938024</ele><time>2010-07-31T07:14:55Z</time></trkpt>
<trkpt lat="45.83365600" lon="4.84403600"><ele>215.8999938024</ele><time>2010-07-31T07:14:56Z</time></trkpt>
<trkpt lat="45.83363600" lon="4.84410300"><ele>215.8999938024</ele><time>2010-07-31T07:14:57Z</time></trkpt>
<trkpt lat="45.83361300" lon="4.84416200"><ele>215.699996844</ele><time>2010-07-31T07:14:58Z</time></trkpt>
<trkpt lat="45.83359500" lon="4.84423900"><ele>215.699996844</ele><time>2010-07-31T07:14:59Z</time></trkpt>
<trkpt lat="45.83357900" lon="4.84430700"><ele>215.8000029432</ele><time>2010-07-31T07:15:00Z</time></trkpt>
<trkpt lat="45.83355400" lon="4.84437600"><ele>215.8999938024</ele><time>2010-07-31T07:15:01Z</time></trkpt>
<trkpt lat="45.83353400" lon="4.84445500"><ele>216.1000060008</ele><time>2010-07-31T07:15:02Z</time></trkpt>
<trkpt lat="45.83351400" lon="4.84452800"><ele>215.8999938024</ele><time>2010-07-31T07:15:03Z</time></trkpt>
<trkpt lat="45.83349700" lon="4.84459800"><ele>216.3000029592</ele><time>2010-07-31T07:15:04Z</time></trkpt>
<trkpt lat="45.83348100" lon="4.84466800"><ele>216.3000029592</ele><time>2010-07-31T07:15:05Z</time></trkpt>
<trkpt lat="45.83346500" lon="4.84472900"><ele>216.3000029592</ele><time>2010-07-31T07:15:06Z</time></trkpt>
<trkpt lat="45.83344600" lon="4.84479800"><ele>216.3000029592</ele><time>2010-07-31T07:15:07Z</time></trkpt>
<trkpt lat="45.83342700" lon="4.84486600"><ele>216.19999686</ele><time>2010-07-31T07:15:08Z</time></trkpt>
<trkpt lat="45.83340500" lon="4.84492500"><ele>216.3000029592</ele><time>2010-07-31T07:15:09Z</time></trkpt>
<trkpt lat="45.83338400" lon="4.84499300"><ele>216.19999686</ele><time>2010-07-31T07:15:10Z</time></trkpt>
<trkpt lat="45.83336400" lon="4.84506000"><ele>215.8999938024</ele><time>2010-07-31T07:15:11Z</time></trkpt>
<trkpt lat="45.83334900" lon="4.84512700"><ele>215.8999938024</ele><time>2010-07-31T07:15:12Z</time></trkpt>
<trkpt lat="45.83333200" lon="4.84520200"><ele>216.19999686</ele><time>2010-07-31T07:15:13Z</time></trkpt>
<trkpt lat="45.83331900" lon="4.84527000"><ele>216.3999938184</ele><time>2010-07-31T07:15:14Z</time></trkpt>
<trkpt lat="45.83330000" lon="4.84534400"><ele>216.3999938184</ele><time>2010-07-31T07:15:15Z</time></trkpt>
<trkpt lat="45.83328500" lon="4.84541300"><ele>216.3000029592</ele><time>2010-07-31T07:15:16Z</time></trkpt>
<trkpt lat="45.83326200" lon="4.84547700"><ele>216.4999999176</ele><time>2010-07-31T07:15:17Z</time></trkpt>
<trkpt lat="45.83324900" lon="4.84554700"><ele>216.6000060168</ele><time>2010-07-31T07:15:18Z</time></trkpt>
<trkpt lat="45.83323300" lon="4.84561400"><ele>216.6000060168</ele><time>2010-07-31T07:15:19Z</time></trkpt>
<trkpt lat="45.83321900" lon="4.84567900"><ele>216.6000060168</ele><time>2010-07-31T07:15:20Z</time></trkpt>
<trkpt lat="45.83320500" lon="4.84574700"><ele>216.3999938184</ele><time>2010-07-31T07:15:21Z</time></trkpt>
<trkpt lat="45.83318500" lon="4.84581300"><ele>216.1000060008</ele><time>2010-07-31T07:15:22Z</time></trkpt>
<trkpt lat="45.83316100" lon="4.84589300"><ele>215.699996844</ele><time>2010-07-31T07:15:23Z</time></trkpt>
<trkpt lat="45.83314000" lon="4.84596800"><ele>215.8000029432</ele><time>2010-07-31T07:15:24Z</time></trkpt>
<trkpt lat="45.83311400" lon="4.84604100"><ele>215.6000059848</ele><time>2010-07-31T07:15:25Z</time></trkpt>
<trkpt lat="45.83309300" lon="4.84611900"><ele>215.1000059688</ele><time>2010-07-31T07:15:26Z</time></trkpt>
<trkpt lat="45.83306800" lon="4.84619500"><ele>214.8000029112</ele><time>2010-07-31T07:15:27Z</time></trkpt>
<trkpt lat="45.83304300" lon="4.84627800"><ele>214.4999998536</ele><time>2010-07-31T07:15:28Z</time></trkpt>
<trkpt lat="45.83301900" lon="4.84635700"><ele>214.199996796</ele><time>2010-07-31T07:15:29Z</time></trkpt>
<trkpt lat="45.83299800" lon="4.84643500"><ele>214.0000001424</ele><time>2010-07-31T07:15:30Z</time></trkpt>
<trkpt lat="45.83297200" lon="4.84652000"><ele>213.800003184</ele><time>2010-07-31T07:15:31Z</time></trkpt>
<trkpt lat="45.83294900" lon="4.84660400"><ele>213.6999970848</ele><time>2010-07-31T07:15:32Z</time></trkpt>
<trkpt lat="45.83292700" lon="4.84668400"><ele>213.6999970848</ele><time>2010-07-31T07:15:33Z</time></trkpt>
<trkpt lat="45.83290400" lon="4.84675800"><ele>213.6000062256</ele><time>2010-07-31T07:15:34Z</time></trkpt>
<trkpt lat="45.83288200" lon="4.84683200"><ele>213.6000062256</ele><time>2010-07-31T07:15:35Z</time></trkpt>
<trkpt lat="45.83285900" lon="4.84690600"><ele>213.6999970848</ele><time>2010-07-31T07:15:36Z</time></trkpt>
<trkpt lat="45.83283700" lon="4.84697600"><ele>213.5000001264</ele><time>2010-07-31T07:15:37Z</time></trkpt>
<trkpt lat="45.83281600" lon="4.84703400"><ele>213.1000062096</ele><time>2010-07-31T07:15:38Z</time></trkpt>
<trkpt lat="45.83279500" lon="4.84709500"><ele>213.0000001104</ele><time>2010-07-31T07:15:39Z</time></trkpt>
<trkpt lat="45.83278200" lon="4.84716400"><ele>213.1999970688</ele><time>2010-07-31T07:15:40Z</time></trkpt>
<trkpt lat="45.83279100" lon="4.84724800"><ele>213.300003168</ele><time>2010-07-31T07:15:41Z</time></trkpt>
<trkpt lat="45.83278100" lon="4.84738000"><ele>214.4999998536</ele><time>2010-07-31T07:15:43Z</time></trkpt>
<trkpt lat="45.83272600" lon="4.84746700"><ele>215.6000059848</ele><time>2010-07-31T07:15:45Z</time></trkpt>
<trkpt lat="45.83269600" lon="4.84758300"><ele>216.4999999176</ele><time>2010-07-31T07:15:47Z</time></trkpt>
<trkpt lat="45.83268000" lon="4.84764400"><ele>216.3000029592</ele><time>2010-07-31T07:15:48Z</time></trkpt>
<trkpt lat="45.83263800" lon="4.84775100"><ele>216.19999686</ele><time>2010-07-31T07:15:50Z</time></trkpt>
<trkpt lat="45.83259600" lon="4.84785300"><ele>215.9999999016</ele><time>2010-07-31T07:15:52Z</time></trkpt>
<trkpt lat="45.83254900" lon="4.84795100"><ele>216.1000060008</ele><time>2010-07-31T07:15:54Z</time></trkpt>
<trkpt lat="45.83251800" lon="4.84801400"><ele>215.6000059848</ele><time>2010-07-31T07:15:55Z</time></trkpt>
<trkpt lat="45.83249200" lon="4.84808300"><ele>215.6000059848</ele><time>2010-07-31T07:15:56Z</time></trkpt>
<trkpt lat="45.83246400" lon="4.84816500"><ele>215.1000059688</ele><time>2010-07-31T07:15:57Z</time></trkpt>
<trkpt lat="45.83243000" lon="4.84824300"><ele>214.8999937704</ele><time>2010-07-31T07:15:58Z</time></trkpt>
<trkpt lat="45.83239600" lon="4.84832800"><ele>214.3000032</ele><time>2010-07-31T07:15:59Z</time></trkpt>
<trkpt lat="45.83236600" lon="4.84841100"><ele>214.1000062416</ele><time>2010-07-31T07:16:00Z</time></trkpt>
<trkpt lat="45.83233300" lon="4.84849500"><ele>214.1000062416</ele><time>2010-07-31T07:16:01Z</time></trkpt>
<trkpt lat="45.83230300" lon="4.84857000"><ele>213.8999940432</ele><time>2010-07-31T07:16:02Z</time></trkpt>
<trkpt lat="45.83227000" lon="4.84865100"><ele>213.800003184</ele><time>2010-07-31T07:16:03Z</time></trkpt>
<trkpt lat="45.83224900" lon="4.84874100"><ele>214.0000001424</ele><time>2010-07-31T07:16:04Z</time></trkpt>
<trkpt lat="45.83222600" lon="4.84881500"><ele>214.0000001424</ele><time>2010-07-31T07:16:05Z</time></trkpt>
<trkpt lat="45.83220900" lon="4.84890000"><ele>213.800003184</ele><time>2010-07-31T07:16:06Z</time></trkpt>
<trkpt lat="45.83218400" lon="4.84897400"><ele>213.5000001264</ele><time>2010-07-31T07:16:07Z</time></trkpt>
<trkpt lat="45.83215700" lon="4.84905300"><ele>213.3999940272</ele><time>2010-07-31T07:16:08Z</time></trkpt>
<trkpt lat="45.83213300" lon="4.84912500"><ele>213.800003184</ele><time>2010-07-31T07:16:09Z</time></trkpt>
<trkpt lat="45.83211300" lon="4.84919500"><ele>214.0000001424</ele><time>2010-07-31T07:16:10Z</time></trkpt>
<trkpt lat="45.83208700" lon="4.84926300"><ele>214.0000001424</ele><time>2010-07-31T07:16:11Z</time></trkpt>
<trkpt lat="45.83206400" lon="4.84931900"><ele>214.6000059528</ele><time>2010-07-31T07:16:12Z</time></trkpt>
<trkpt lat="45.83202100" lon="4.84942000"><ele>215.699996844</ele><time>2010-07-31T07:16:14Z</time></trkpt>
<trkpt lat="45.83196200" lon="4.84947300"><ele>217.3000029912</ele><time>2010-07-31T07:16:16Z</time></trkpt>
<trkpt lat="45.83191800" lon="4.84953100"><ele>216.8999938344</ele><time>2010-07-31T07:16:18Z</time></trkpt>
<trkpt lat="45.83187500" lon="4.84963500"><ele>216.6000060168</ele><time>2010-07-31T07:16:20Z</time></trkpt>
<trkpt lat="45.83184900" lon="4.84968900"><ele>216.3000029592</ele><time>2010-07-31T07:16:21Z</time></trkpt>
<trkpt lat="45.83181700" lon="4.84973800"><ele>216.3999938184</ele><time>2010-07-31T07:16:22Z</time></trkpt>
<trkpt lat="45.83178300" lon="4.84978400"><ele>216.3000029592</ele><time>2010-07-31T07:16:23Z</time></trkpt>
<trkpt lat="45.83175200" lon="4.84983200"><ele>216.4999999176</ele><time>2010-07-31T07:16:24Z</time></trkpt>
<trkpt lat="45.83171600" lon="4.84987100"><ele>216.6000060168</ele><time>2010-07-31T07:16:25Z</time></trkpt>
<trkpt lat="45.83164100" lon="4.84994700"><ele>216.699996876</ele><time>2010-07-31T07:16:27Z</time></trkpt>
<trkpt lat="45.83160700" lon="4.84998900"><ele>216.6000060168</ele><time>2010-07-31T07:16:28Z</time></trkpt>
<trkpt lat="45.83154100" lon="4.85007000"><ele>217.3999938504</ele><time>2010-07-31T07:16:30Z</time></trkpt>
<trkpt lat="45.83149800" lon="4.85010600"><ele>217.8999938664</ele><time>2010-07-31T07:16:31Z</time></trkpt>
<trkpt lat="45.83145200" lon="4.85013100"><ele>218.199996924</ele><time>2010-07-31T07:16:32Z</time></trkpt>
<trkpt lat="45.83138200" lon="4.85020500"><ele>217.8999938664</ele><time>2010-07-31T07:16:34Z</time></trkpt>
<trkpt lat="45.83134900" lon="4.85026200"><ele>217.6000060488</ele><time>2010-07-31T07:16:35Z</time></trkpt>
<trkpt lat="45.83132100" lon="4.85031700"><ele>217.6000060488</ele><time>2010-07-31T07:16:36Z</time></trkpt>
<trkpt lat="45.83130300" lon="4.85037700"><ele>217.699996908</ele><time>2010-07-31T07:16:37Z</time></trkpt>
<trkpt lat="45.83130000" lon="4.85045200"><ele>217.4999999496</ele><time>2010-07-31T07:16:38Z</time></trkpt>
<trkpt lat="45.83128700" lon="4.85052000"><ele>217.699996908</ele><time>2010-07-31T07:16:39Z</time></trkpt>
<trkpt lat="45.83127100" lon="4.85059500"><ele>217.199996892</ele><time>2010-07-31T07:16:40Z</time></trkpt>
<trkpt lat="45.83121300" lon="4.85062600"><ele>216.8999938344</ele><time>2010-07-31T07:16:41Z</time></trkpt>
<trkpt lat="45.83117600" lon="4.85066800"><ele>216.8000029752</ele><time>2010-07-31T07:16:42Z</time></trkpt>
<trkpt lat="45.83113400" lon="4.85071700"><ele>216.8000029752</ele><time>2010-07-31T07:16:43Z</time></trkpt>
<trkpt lat="45.83109400" lon="4.85076300"><ele>217.3000029912</ele><time>2010-07-31T07:16:44Z</time></trkpt>
<trkpt lat="45.83105700" lon="4.85080900"><ele>217.3000029912</ele><time>2010-07-31T07:16:45Z</time></trkpt>
<trkpt lat="45.83101700" lon="4.85085100"><ele>217.4999999496</ele><time>2010-07-31T07:16:46Z</time></trkpt>
<trkpt lat="45.83097900" lon="4.85089800"><ele>217.3999938504</ele><time>2010-07-31T07:16:47Z</time></trkpt>
<trkpt lat="45.83093400" lon="4.85094200"><ele>217.3000029912</ele><time>2010-07-31T07:16:48Z</time></trkpt>
<trkpt lat="45.83089500" lon="4.85099100"><ele>217.8000030072</ele><time>2010-07-31T07:16:49Z</time></trkpt>
<trkpt lat="45.83082100" lon="4.85107600"><ele>218.1000060648</ele><time>2010-07-31T07:16:51Z</time></trkpt>
<trkpt lat="45.83075300" lon="4.85116500"><ele>218.69999694</ele><time>2010-07-31T07:16:53Z</time></trkpt>
<trkpt lat="45.83071600" lon="4.85122200"><ele>218.8000030392</ele><time>2010-07-31T07:16:54Z</time></trkpt>
<trkpt lat="45.83068100" lon="4.85126900"><ele>218.69999694</ele><time>2010-07-31T07:16:55Z</time></trkpt>
<trkpt lat="45.83064100" lon="4.85131100"><ele>219.3999939144</ele><time>2010-07-31T07:16:56Z</time></trkpt>
<trkpt lat="45.83060500" lon="4.85135500"><ele>219.8000030712</ele><time>2010-07-31T07:16:57Z</time></trkpt>
<trkpt lat="45.83052900" lon="4.85143100"><ele>220.3000030872</ele><time>2010-07-31T07:16:59Z</time></trkpt>
<trkpt lat="45.83048900" lon="4.85147400"><ele>220.3999939464</ele><time>2010-07-31T07:17:00Z</time></trkpt>
<trkpt lat="45.83045200" lon="4.85151500"><ele>220.1000061288</ele><time>2010-07-31T07:17:01Z</time></trkpt>
<trkpt lat="45.83041100" lon="4.85156400"><ele>219.8999939304</ele><time>2010-07-31T07:17:02Z</time></trkpt>
<trkpt lat="45.83037000" lon="4.85161200"><ele>219.699996972</ele><time>2010-07-31T07:17:03Z</time></trkpt>
<trkpt lat="45.83033300" lon="4.85165400"><ele>219.8000030712</ele><time>2010-07-31T07:17:04Z</time></trkpt>
<trkpt lat="45.83029700" lon="4.85169700"><ele>219.5000000136</ele><time>2010-07-31T07:17:05Z</time></trkpt>
<trkpt lat="45.83026300" lon="4.85174100"><ele>219.5000000136</ele><time>2010-07-31T07:17:06Z</time></trkpt>
<trkpt lat="45.83022000" lon="4.85179100"><ele>219.6000061128</ele><time>2010-07-31T07:17:07Z</time></trkpt>
<trkpt lat="45.83018200" lon="4.85183600"><ele>219.6000061128</ele><time>2010-07-31T07:17:08Z</time></trkpt>
<trkpt lat="45.83014600" lon="4.85188300"><ele>220.0000000296</ele><time>2010-07-31T07:17:09Z</time></trkpt>
<trkpt lat="45.83010800" lon="4.85192800"><ele>220.3000030872</ele><time>2010-07-31T07:17:10Z</time></trkpt>
<trkpt lat="45.83007000" lon="4.85197600"><ele>220.3999939464</ele><time>2010-07-31T07:17:11Z</time></trkpt>
<trkpt lat="45.83003300" lon="4.85201700"><ele>220.6000061448</ele><time>2010-07-31T07:17:12Z</time></trkpt>
<trkpt lat="45.82999400" lon="4.85205700"><ele>220.3999939464</ele><time>2010-07-31T07:17:13Z</time></trkpt>
<trkpt lat="45.82995700" lon="4.85210500"><ele>220.1000061288</ele><time>2010-07-31T07:17:14Z</time></trkpt>
<trkpt lat="45.82991300" lon="4.85215200"><ele>220.0000000296</ele><time>2010-07-31T07:17:15Z</time></trkpt>
<trkpt lat="45.82984400" lon="4.85223800"><ele>219.8999939304</ele><time>2010-07-31T07:17:17Z</time></trkpt>
<trkpt lat="45.82980300" lon="4.85229300"><ele>220.199996988</ele><time>2010-07-31T07:17:18Z</time></trkpt>
<trkpt lat="45.82976200" lon="4.85233800"><ele>220.1000061288</ele><time>2010-07-31T07:17:19Z</time></trkpt>
<trkpt lat="45.82972200" lon="4.85238400"><ele>220.199996988</ele><time>2010-07-31T07:17:20Z</time></trkpt>
<trkpt lat="45.82968000" lon="4.85243000"><ele>220.0000000296</ele><time>2010-07-31T07:17:21Z</time></trkpt>
<trkpt lat="45.82964500" lon="4.85247000"><ele>220.0000000296</ele><time>2010-07-31T07:17:22Z</time></trkpt>
<trkpt lat="45.82960700" lon="4.85251600"><ele>219.699996972</ele><time>2010-07-31T07:17:23Z</time></trkpt>
<trkpt lat="45.82956800" lon="4.85255400"><ele>219.699996972</ele><time>2010-07-31T07:17:24Z</time></trkpt>
<trkpt lat="45.82953200" lon="4.85260400"><ele>219.3000030552</ele><time>2010-07-31T07:17:25Z</time></trkpt>
<trkpt lat="45.82949400" lon="4.85265400"><ele>219.1000060968</ele><time>2010-07-31T07:17:26Z</time></trkpt>
<trkpt lat="45.82945800" lon="4.85270100"><ele>219.199996956</ele><time>2010-07-31T07:17:27Z</time></trkpt>
<trkpt lat="45.82941700" lon="4.85274900"><ele>219.3999939144</ele><time>2010-07-31T07:17:28Z</time></trkpt>
<trkpt lat="45.82937900" lon="4.85279700"><ele>219.3999939144</ele><time>2010-07-31T07:17:29Z</time></trkpt>
<trkpt lat="45.82934100" lon="4.85284200"><ele>219.3999939144</ele><time>2010-07-31T07:17:30Z</time></trkpt>
<trkpt lat="45.82929800" lon="4.85289100"><ele>219.199996956</ele><time>2010-07-31T07:17:31Z</time></trkpt>
<trkpt lat="45.82926200" lon="4.85293900"><ele>218.69999694</ele><time>2010-07-31T07:17:32Z</time></trkpt>
<trkpt lat="45.82922700" lon="4.85298600"><ele>219.1000060968</ele><time>2010-07-31T07:17:33Z</time></trkpt>
<trkpt lat="45.82918400" lon="4.85302800"><ele>219.1000060968</ele><time>2010-07-31T07:17:34Z</time></trkpt>
<trkpt lat="45.82914300" lon="4.85307200"><ele>218.9999999976</ele><time>2010-07-31T07:17:35Z</time></trkpt>
<trkpt lat="45.82910100" lon="4.85311600"><ele>218.9999999976</ele><time>2010-07-31T07:17:36Z</time></trkpt>
<trkpt lat="45.82906200" lon="4.85316100"><ele>218.8000030392</ele><time>2010-07-31T07:17:37Z</time></trkpt>
<trkpt lat="45.82903000" lon="4.85320900"><ele>218.69999694</ele><time>2010-07-31T07:17:38Z</time></trkpt>
<trkpt lat="45.82899200" lon="4.85326100"><ele>218.9999999976</ele><time>2010-07-31T07:17:39Z</time></trkpt>
<trkpt lat="45.82895200" lon="4.85330800"><ele>218.9999999976</ele><time>2010-07-31T07:17:40Z</time></trkpt>
<trkpt lat="45.82890900" lon="4.85335700"><ele>219.1000060968</ele><time>2010-07-31T07:17:41Z</time></trkpt>
<trkpt lat="45.82886800" lon="4.85340500"><ele>219.3000030552</ele><time>2010-07-31T07:17:42Z</time></trkpt>
<trkpt lat="45.82882900" lon="4.85345400"><ele>219.3999939144</ele><time>2010-07-31T07:17:43Z</time></trkpt>
<trkpt lat="45.82878700" lon="4.85350200"><ele>219.5000000136</ele><time>2010-07-31T07:17:44Z</time></trkpt>
<trkpt lat="45.82874400" lon="4.85354800"><ele>219.5000000136</ele><time>2010-07-31T07:17:45Z</time></trkpt>
<trkpt lat="45.82870700" lon="4.85359100"><ele>219.3999939144</ele><time>2010-07-31T07:17:46Z</time></trkpt>
<trkpt lat="45.82866300" lon="4.85364200"><ele>219.6000061128</ele><time>2010-07-31T07:17:47Z</time></trkpt>
<trkpt lat="45.82862400" lon="4.85369500"><ele>219.6000061128</ele><time>2010-07-31T07:17:48Z</time></trkpt>
<trkpt lat="45.82858800" lon="4.85374700"><ele>219.8000030712</ele><time>2010-07-31T07:17:49Z</time></trkpt>
<trkpt lat="45.82855400" lon="4.85379800"><ele>219.6000061128</ele><time>2010-07-31T07:17:50Z</time></trkpt>
<trkpt lat="45.82851900" lon="4.85384900"><ele>219.199996956</ele><time>2010-07-31T07:17:51Z</time></trkpt>
<trkpt lat="45.82848900" lon="4.85391300"><ele>219.1000060968</ele><time>2010-07-31T07:17:52Z</time></trkpt>
<trkpt lat="45.82845700" lon="4.85396900"><ele>218.8000030392</ele><time>2010-07-31T07:17:53Z</time></trkpt>
<trkpt lat="45.82842700" lon="4.85402600"><ele>218.8000030392</ele><time>2010-07-31T07:17:54Z</time></trkpt>
<trkpt lat="45.82839000" lon="4.85409400"><ele>218.9999999976</ele><time>2010-07-31T07:17:55Z</time></trkpt>
<trkpt lat="45.82836300" lon="4.85416000"><ele>218.8999938984</ele><time>2010-07-31T07:17:56Z</time></trkpt>
<trkpt lat="45.82832600" lon="4.85422900"><ele>218.69999694</ele><time>2010-07-31T07:17:57Z</time></trkpt>
<trkpt lat="45.82829600" lon="4.85429900"><ele>218.4999999816</ele><time>2010-07-31T07:17:58Z</time></trkpt>
<trkpt lat="45.82825800" lon="4.85435700"><ele>218.4999999816</ele><time>2010-07-31T07:17:59Z</time></trkpt>
<trkpt lat="45.82822400" lon="4.85441500"><ele>218.3000030232</ele><time>2010-07-31T07:18:00Z</time></trkpt>
<trkpt lat="45.82818900" lon="4.85446100"><ele>217.699996908</ele><time>2010-07-31T07:18:01Z</time></trkpt>
<trkpt lat="45.82811500" lon="4.85453300"><ele>217.6000060488</ele><time>2010-07-31T07:18:03Z</time></trkpt>
<trkpt lat="45.82805200" lon="4.85461800"><ele>216.8000029752</ele><time>2010-07-31T07:18:05Z</time></trkpt>
<trkpt lat="45.82802100" lon="4.85466800"><ele>216.699996876</ele><time>2010-07-31T07:18:06Z</time></trkpt>
<trkpt lat="45.82796000" lon="4.85476800"><ele>217.6000060488</ele><time>2010-07-31T07:18:08Z</time></trkpt>
<trkpt lat="45.82792100" lon="4.85481300"><ele>217.699996908</ele><time>2010-07-31T07:18:09Z</time></trkpt>
<trkpt lat="45.82788600" lon="4.85485600"><ele>217.8000030072</ele><time>2010-07-31T07:18:10Z</time></trkpt>
<trkpt lat="45.82784600" lon="4.85490000"><ele>217.8999938664</ele><time>2010-07-31T07:18:11Z</time></trkpt>
<trkpt lat="45.82780900" lon="4.85494800"><ele>217.8000030072</ele><time>2010-07-31T07:18:12Z</time></trkpt>
<trkpt lat="45.82777300" lon="4.85498900"><ele>217.6000060488</ele><time>2010-07-31T07:18:13Z</time></trkpt>
<trkpt lat="45.82774300" lon="4.85504000"><ele>218.1000060648</ele><time>2010-07-31T07:18:14Z</time></trkpt>
<trkpt lat="45.82768200" lon="4.85513400"><ele>218.199996924</ele><time>2010-07-31T07:18:16Z</time></trkpt>
<trkpt lat="45.82764600" lon="4.85517900"><ele>218.199996924</ele><time>2010-07-31T07:18:17Z</time></trkpt>
<trkpt lat="45.82758000" lon="4.85527000"><ele>218.1000060648</ele><time>2010-07-31T07:18:19Z</time></trkpt>
<trkpt lat="45.82751800" lon="4.85536800"><ele>218.69999694</ele><time>2010-07-31T07:18:21Z</time></trkpt>
<trkpt lat="45.82748700" lon="4.85541700"><ele>218.8999938984</ele><time>2010-07-31T07:18:22Z</time></trkpt>
<trkpt lat="45.82742000" lon="4.85549600"><ele>218.69999694</ele><time>2010-07-31T07:18:24Z</time></trkpt>
<trkpt lat="45.82735600" lon="4.85557700"><ele>218.8000030392</ele><time>2010-07-31T07:18:26Z</time></trkpt>
<trkpt lat="45.82732100" lon="4.85562600"><ele>218.4999999816</ele><time>2010-07-31T07:18:27Z</time></trkpt>
<trkpt lat="45.82729000" lon="4.85567400"><ele>218.3999938824</ele><time>2010-07-31T07:18:28Z</time></trkpt>
<trkpt lat="45.82724200" lon="4.85570900"><ele>218.69999694</ele><time>2010-07-31T07:18:29Z</time></trkpt>
<trkpt lat="45.82717300" lon="4.85579900"><ele>217.699996908</ele><time>2010-07-31T07:18:31Z</time></trkpt>
<trkpt lat="45.82710200" lon="4.85587300"><ele>218.199996924</ele><time>2010-07-31T07:18:33Z</time></trkpt>
<trkpt lat="45.82703200" lon="4.85595300"><ele>217.8000030072</ele><time>2010-07-31T07:18:35Z</time></trkpt>
<trkpt lat="45.82696700" lon="4.85604500"><ele>218.4999999816</ele><time>2010-07-31T07:18:37Z</time></trkpt>
<trkpt lat="45.82690300" lon="4.85612200"><ele>217.4999999496</ele><time>2010-07-31T07:18:39Z</time></trkpt>
<trkpt lat="45.82684100" lon="4.85620700"><ele>216.1000060008</ele><time>2010-07-31T07:18:41Z</time></trkpt>
<trkpt lat="45.82678400" lon="4.85629500"><ele>215.9999999016</ele><time>2010-07-31T07:18:43Z</time></trkpt>
<trkpt lat="45.82675000" lon="4.85634100"><ele>216.1000060008</ele><time>2010-07-31T07:18:44Z</time></trkpt>
<trkpt lat="45.82671100" lon="4.85638000"><ele>215.8999938024</ele><time>2010-07-31T07:18:45Z</time></trkpt>
<trkpt lat="45.82664700" lon="4.85646700"><ele>215.8000029432</ele><time>2010-07-31T07:18:47Z</time></trkpt>
<trkpt lat="45.82658300" lon="4.85655300"><ele>215.4999998856</ele><time>2010-07-31T07:18:49Z</time></trkpt>
<trkpt lat="45.82651800" lon="4.85663900"><ele>216.3000029592</ele><time>2010-07-31T07:18:51Z</time></trkpt>
<trkpt lat="45.82646100" lon="4.85673400"><ele>216.3000029592</ele><time>2010-07-31T07:18:53Z</time></trkpt>
<trkpt lat="45.82642800" lon="4.85677700"><ele>216.19999686</ele><time>2010-07-31T07:18:54Z</time></trkpt>
<trkpt lat="45.82636300" lon="4.85686500"><ele>216.3000029592</ele><time>2010-07-31T07:18:56Z</time></trkpt>
<trkpt lat="45.82629900" lon="4.85693800"><ele>216.6000060168</ele><time>2010-07-31T07:18:58Z</time></trkpt>
<trkpt lat="45.82622800" lon="4.85702000"><ele>217.3999938504</ele><time>2010-07-31T07:19:00Z</time></trkpt>
<trkpt lat="45.82616300" lon="4.85710600"><ele>216.8999938344</ele><time>2010-07-31T07:19:02Z</time></trkpt>
<trkpt lat="45.82610300" lon="4.85719500"><ele>216.4999999176</ele><time>2010-07-31T07:19:04Z</time></trkpt>
<trkpt lat="45.82606500" lon="4.85725000"><ele>216.6000060168</ele><time>2010-07-31T07:19:05Z</time></trkpt>
<trkpt lat="45.82602700" lon="4.85729200"><ele>217.199996892</ele><time>2010-07-31T07:19:06Z</time></trkpt>
<trkpt lat="45.82599000" lon="4.85734000"><ele>217.4999999496</ele><time>2010-07-31T07:19:07Z</time></trkpt>
<trkpt lat="45.82595700" lon="4.85739000"><ele>217.699996908</ele><time>2010-07-31T07:19:08Z</time></trkpt>
<trkpt lat="45.82592300" lon="4.85743500"><ele>217.6000060488</ele><time>2010-07-31T07:19:09Z</time></trkpt>
<trkpt lat="45.82586200" lon="4.85751700"><ele>216.6000060168</ele><time>2010-07-31T07:19:11Z</time></trkpt>
<trkpt lat="45.82580400" lon="4.85760800"><ele>216.4999999176</ele><time>2010-07-31T07:19:13Z</time></trkpt>
<trkpt lat="45.82573800" lon="4.85769100"><ele>216.3000029592</ele><time>2010-07-31T07:19:15Z</time></trkpt>
<trkpt lat="45.82567100" lon="4.85777600"><ele>216.3000029592</ele><time>2010-07-31T07:19:17Z</time></trkpt>
<trkpt lat="45.82560800" lon="4.85787100"><ele>216.4999999176</ele><time>2010-07-31T07:19:19Z</time></trkpt>
<trkpt lat="45.82554500" lon="4.85795800"><ele>216.6000060168</ele><time>2010-07-31T07:19:21Z</time></trkpt>
<trkpt lat="45.82548500" lon="4.85804500"><ele>216.9999999336</ele><time>2010-07-31T07:19:23Z</time></trkpt>
<trkpt lat="45.82543400" lon="4.85814200"><ele>217.8000030072</ele><time>2010-07-31T07:19:25Z</time></trkpt>
<trkpt lat="45.82537400" lon="4.85821400"><ele>219.1000060968</ele><time>2010-07-31T07:19:27Z</time></trkpt>
<trkpt lat="45.82533800" lon="4.85825700"><ele>219.1000060968</ele><time>2010-07-31T07:19:28Z</time></trkpt>
<trkpt lat="45.82527200" lon="4.85832900"><ele>218.69999694</ele><time>2010-07-31T07:19:30Z</time></trkpt>
<trkpt lat="45.82523200" lon="4.85836300"><ele>218.8999938984</ele><time>2010-07-31T07:19:31Z</time></trkpt>
<trkpt lat="45.82515600" lon="4.85841500"><ele>219.1000060968</ele><time>2010-07-31T07:19:33Z</time></trkpt>
<trkpt lat="45.82507500" lon="4.85846100"><ele>219.8000030712</ele><time>2010-07-31T07:19:35Z</time></trkpt>
<trkpt lat="45.82499500" lon="4.85849400"><ele>220.199996988</ele><time>2010-07-31T07:19:37Z</time></trkpt>
<trkpt lat="45.82491500" lon="4.85852700"><ele>220.3999939464</ele><time>2010-07-31T07:19:39Z</time></trkpt>
<trkpt lat="45.82483400" lon="4.85853900"><ele>220.6000061448</ele><time>2010-07-31T07:19:41Z</time></trkpt>
<trkpt lat="45.82475200" lon="4.85857300"><ele>221.0000000616</ele><time>2010-07-31T07:19:43Z</time></trkpt>
<trkpt lat="45.82466900" lon="4.85860300"><ele>221.8999939944</ele><time>2010-07-31T07:19:45Z</time></trkpt>
<trkpt lat="45.82458800" lon="4.85864200"><ele>222.1000061928</ele><time>2010-07-31T07:19:47Z</time></trkpt>
<trkpt lat="45.82450600" lon="4.85865500"><ele>222.0000000936</ele><time>2010-07-31T07:19:49Z</time></trkpt>
<trkpt lat="45.82442100" lon="4.85868300"><ele>222.6000062088</ele><time>2010-07-31T07:19:51Z</time></trkpt>
<trkpt lat="45.82437400" lon="4.85870100"><ele>222.1000061928</ele><time>2010-07-31T07:19:52Z</time></trkpt>
<trkpt lat="45.82432800" lon="4.85871200"><ele>222.0000000936</ele><time>2010-07-31T07:19:53Z</time></trkpt>
<trkpt lat="45.82428400" lon="4.85872800"><ele>221.8000031352</ele><time>2010-07-31T07:19:54Z</time></trkpt>
<trkpt lat="45.82423500" lon="4.85874600"><ele>221.699997036</ele><time>2010-07-31T07:19:55Z</time></trkpt>
<trkpt lat="45.82418900" lon="4.85876200"><ele>221.8000031352</ele><time>2010-07-31T07:19:56Z</time></trkpt>
<trkpt lat="45.82414300" lon="4.85876800"><ele>221.699997036</ele><time>2010-07-31T07:19:57Z</time></trkpt>
<trkpt lat="45.82405500" lon="4.85879200"><ele>221.699997036</ele><time>2010-07-31T07:19:59Z</time></trkpt>
<trkpt lat="45.82396600" lon="4.85880900"><ele>221.699997036</ele><time>2010-07-31T07:20:01Z</time></trkpt>
<trkpt lat="45.82387800" lon="4.85882500"><ele>221.3999939784</ele><time>2010-07-31T07:20:03Z</time></trkpt>
<trkpt lat="45.82379000" lon="4.85884900"><ele>221.19999702</ele><time>2010-07-31T07:20:05Z</time></trkpt>
<trkpt lat="45.82369700" lon="4.85887500"><ele>221.0000000616</ele><time>2010-07-31T07:20:07Z</time></trkpt>
<trkpt lat="45.82365300" lon="4.85889100"><ele>221.3999939784</ele><time>2010-07-31T07:20:08Z</time></trkpt>
<trkpt lat="45.82360100" lon="4.85889400"><ele>221.5000000776</ele><time>2010-07-31T07:20:09Z</time></trkpt>
<trkpt lat="45.82354900" lon="4.85890700"><ele>221.8999939944</ele><time>2010-07-31T07:20:10Z</time></trkpt>
<trkpt lat="45.82349500" lon="4.85891400"><ele>222.199997052</ele><time>2010-07-31T07:20:11Z</time></trkpt>
<trkpt lat="45.82344700" lon="4.85891500"><ele>221.8999939944</ele><time>2010-07-31T07:20:12Z</time></trkpt>
<trkpt lat="45.82340100" lon="4.85891900"><ele>221.699997036</ele><time>2010-07-31T07:20:13Z</time></trkpt>
<trkpt lat="45.82335100" lon="4.85891300"><ele>221.8000031352</ele><time>2010-07-31T07:20:14Z</time></trkpt>
<trkpt lat="45.82329600" lon="4.85892500"><ele>221.8999939944</ele><time>2010-07-31T07:20:15Z</time></trkpt>
<trkpt lat="45.82323600" lon="4.85893100"><ele>222.199997052</ele><time>2010-07-31T07:20:16Z</time></trkpt>
<trkpt lat="45.82318200" lon="4.85893400"><ele>222.3999940104</ele><time>2010-07-31T07:20:17Z</time></trkpt>
<trkpt lat="45.82308700" lon="4.85893500"><ele>222.5000001096</ele><time>2010-07-31T07:20:19Z</time></trkpt>
<trkpt lat="45.82299300" lon="4.85892500"><ele>222.699997068</ele><time>2010-07-31T07:20:21Z</time></trkpt>
<trkpt lat="45.82294100" lon="4.85892300"><ele>222.3999940104</ele><time>2010-07-31T07:20:22Z</time></trkpt>
<trkpt lat="45.82289300" lon="4.85891800"><ele>222.5000001096</ele><time>2010-07-31T07:20:23Z</time></trkpt>
<trkpt lat="45.82284300" lon="4.85891800"><ele>222.8999940264</ele><time>2010-07-31T07:20:24Z</time></trkpt>
<trkpt lat="45.82274600" lon="4.85892600"><ele>222.8999940264</ele><time>2010-07-31T07:20:26Z</time></trkpt>
<trkpt lat="45.82269700" lon="4.85893100"><ele>222.5000001096</ele><time>2010-07-31T07:20:27Z</time></trkpt>
<trkpt lat="45.82264000" lon="4.85895000"><ele>222.3999940104</ele><time>2010-07-31T07:20:28Z</time></trkpt>
<trkpt lat="45.82259100" lon="4.85895500"><ele>222.3999940104</ele><time>2010-07-31T07:20:29Z</time></trkpt>
<trkpt lat="45.82249800" lon="4.85895700"><ele>221.6000061768</ele><time>2010-07-31T07:20:31Z</time></trkpt>
<trkpt lat="45.82244600" lon="4.85895200"><ele>221.3000031192</ele><time>2010-07-31T07:20:32Z</time></trkpt>
<trkpt lat="45.82236600" lon="4.85890200"><ele>221.3999939784</ele><time>2010-07-31T07:20:34Z</time></trkpt>
<trkpt lat="45.82231800" lon="4.85888000"><ele>221.3999939784</ele><time>2010-07-31T07:20:35Z</time></trkpt>
<trkpt lat="45.82227100" lon="4.85885700"><ele>221.5000000776</ele><time>2010-07-31T07:20:36Z</time></trkpt>
<trkpt lat="45.82222600" lon="4.85884500"><ele>221.6000061768</ele><time>2010-07-31T07:20:37Z</time></trkpt>
<trkpt lat="45.82217500" lon="4.85882200"><ele>221.5000000776</ele><time>2010-07-31T07:20:38Z</time></trkpt>
<trkpt lat="45.82212500" lon="4.85881500"><ele>221.8000031352</ele><time>2010-07-31T07:20:39Z</time></trkpt>
<trkpt lat="45.82201900" lon="4.85880300"><ele>222.6000062088</ele><time>2010-07-31T07:20:41Z</time></trkpt>
<trkpt lat="45.82197400" lon="4.85879300"><ele>222.699997068</ele><time>2010-07-31T07:20:42Z</time></trkpt>
<trkpt lat="45.82192100" lon="4.85878100"><ele>222.699997068</ele><time>2010-07-31T07:20:43Z</time></trkpt>
<trkpt lat="45.82183900" lon="4.85875600"><ele>222.8000031672</ele><time>2010-07-31T07:20:45Z</time></trkpt>
<trkpt lat="45.82179200" lon="4.85874800"><ele>223.1000062248</ele><time>2010-07-31T07:20:46Z</time></trkpt>
<trkpt lat="45.82173700" lon="4.85874200"><ele>223.199997084</ele><time>2010-07-31T07:20:47Z</time></trkpt>
<trkpt lat="45.82164800" lon="4.85872500"><ele>222.8000031672</ele><time>2010-07-31T07:20:49Z</time></trkpt>
<trkpt lat="45.82160200" lon="4.85869600"><ele>223.199997084</ele><time>2010-07-31T07:20:50Z</time></trkpt>
<trkpt lat="45.82154800" lon="4.85866900"><ele>223.1000062248</ele><time>2010-07-31T07:20:51Z</time></trkpt>
<trkpt lat="45.82150000" lon="4.85864200"><ele>223.6999971</ele><time>2010-07-31T07:20:52Z</time></trkpt>
<trkpt lat="45.82144200" lon="4.85861800"><ele>223.6999971</ele><time>2010-07-31T07:20:53Z</time></trkpt>
<trkpt lat="45.82138800" lon="4.85858900"><ele>223.6000062408</ele><time>2010-07-31T07:20:54Z</time></trkpt>
<trkpt lat="45.82133700" lon="4.85856300"><ele>223.5000001416</ele><time>2010-07-31T07:20:55Z</time></trkpt>
<trkpt lat="45.82128100" lon="4.85854300"><ele>223.5000001416</ele><time>2010-07-31T07:20:56Z</time></trkpt>
<trkpt lat="45.82122900" lon="4.85852400"><ele>223.0000001256</ele><time>2010-07-31T07:20:57Z</time></trkpt>
<trkpt lat="45.82118200" lon="4.85851200"><ele>222.6000062088</ele><time>2010-07-31T07:20:58Z</time></trkpt>
<trkpt lat="45.82112700" lon="4.85849500"><ele>222.6000062088</ele><time>2010-07-31T07:20:59Z</time></trkpt>
<trkpt lat="45.82108100" lon="4.85847600"><ele>222.3999940104</ele><time>2010-07-31T07:21:00Z</time></trkpt>
<trkpt lat="45.82103400" lon="4.85845500"><ele>222.6000062088</ele><time>2010-07-31T07:21:01Z</time></trkpt>
<trkpt lat="45.82098500" lon="4.85843500"><ele>222.6000062088</ele><time>2010-07-31T07:21:02Z</time></trkpt>
<trkpt lat="45.82093300" lon="4.85842200"><ele>222.3999940104</ele><time>2010-07-31T07:21:03Z</time></trkpt>
<trkpt lat="45.82087900" lon="4.85840700"><ele>222.6000062088</ele><time>2010-07-31T07:21:04Z</time></trkpt>
<trkpt lat="45.82082400" lon="4.85839600"><ele>223.199997084</ele><time>2010-07-31T07:21:05Z</time></trkpt>
<trkpt lat="45.82077500" lon="4.85837900"><ele>223.0000001256</ele><time>2010-07-31T07:21:06Z</time></trkpt>
<trkpt lat="45.82072000" lon="4.85835800"><ele>222.5000001096</ele><time>2010-07-31T07:21:07Z</time></trkpt>
<trkpt lat="45.82066000" lon="4.85833600"><ele>221.8999939944</ele><time>2010-07-31T07:21:08Z</time></trkpt>
<trkpt lat="45.82061000" lon="4.85831500"><ele>222.0000000936</ele><time>2010-07-31T07:21:09Z</time></trkpt>
<trkpt lat="45.82056100" lon="4.85829800"><ele>221.8999939944</ele><time>2010-07-31T07:21:10Z</time></trkpt>
<trkpt lat="45.82051300" lon="4.85828400"><ele>222.0000000936</ele><time>2010-07-31T07:21:11Z</time></trkpt>
<trkpt lat="45.82046400" lon="4.85826900"><ele>221.699997036</ele><time>2010-07-31T07:21:12Z</time></trkpt>
<trkpt lat="45.82041700" lon="4.85825700"><ele>221.8000031352</ele><time>2010-07-31T07:21:13Z</time></trkpt>
<trkpt lat="45.82036800" lon="4.85823800"><ele>221.8999939944</ele><time>2010-07-31T07:21:14Z</time></trkpt>
<trkpt lat="45.82032200" lon="4.85821700"><ele>221.8999939944</ele><time>2010-07-31T07:21:15Z</time></trkpt>
<trkpt lat="45.82027200" lon="4.85820600"><ele>222.0000000936</ele><time>2010-07-31T07:21:16Z</time></trkpt>
<trkpt lat="45.82022800" lon="4.85818500"><ele>221.8999939944</ele><time>2010-07-31T07:21:17Z</time></trkpt>
<trkpt lat="45.82013900" lon="4.85816500"><ele>221.5000000776</ele><time>2010-07-31T07:21:19Z</time></trkpt>
<trkpt lat="45.82009100" lon="4.85815100"><ele>221.3000031192</ele><time>2010-07-31T07:21:20Z</time></trkpt>
<trkpt lat="45.82000900" lon="4.85812100"><ele>221.3999939784</ele><time>2010-07-31T07:21:22Z</time></trkpt>
<trkpt lat="45.81996000" lon="4.85810000"><ele>221.1000061608</ele><time>2010-07-31T07:21:23Z</time></trkpt>
<trkpt lat="45.81991400" lon="4.85808200"><ele>221.1000061608</ele><time>2010-07-31T07:21:24Z</time></trkpt>
<trkpt lat="45.81981700" lon="4.85803700"><ele>221.3000031192</ele><time>2010-07-31T07:21:26Z</time></trkpt>
<trkpt lat="45.81977100" lon="4.85801600"><ele>221.5000000776</ele><time>2010-07-31T07:21:27Z</time></trkpt>
<trkpt lat="45.81972400" lon="4.85799700"><ele>221.8999939944</ele><time>2010-07-31T07:21:28Z</time></trkpt>
<trkpt lat="45.81963700" lon="4.85795900"><ele>222.199997052</ele><time>2010-07-31T07:21:30Z</time></trkpt>
<trkpt lat="45.81958900" lon="4.85794300"><ele>221.8999939944</ele><time>2010-07-31T07:21:31Z</time></trkpt>
<trkpt lat="45.81953700" lon="4.85793400"><ele>221.8000031352</ele><time>2010-07-31T07:21:32Z</time></trkpt>
<trkpt lat="45.81948900" lon="4.85791700"><ele>221.699997036</ele><time>2010-07-31T07:21:33Z</time></trkpt>
<trkpt lat="45.81943800" lon="4.85789300"><ele>221.0000000616</ele><time>2010-07-31T07:21:34Z</time></trkpt>
<trkpt lat="45.81939400" lon="4.85787200"><ele>221.5000000776</ele><time>2010-07-31T07:21:35Z</time></trkpt>
<trkpt lat="45.81934400" lon="4.85784500"><ele>222.0000000936</ele><time>2010-07-31T07:21:36Z</time></trkpt>
<trkpt lat="45.81930200" lon="4.85781400"><ele>222.1000061928</ele><time>2010-07-31T07:21:37Z</time></trkpt>
<trkpt lat="45.81925900" lon="4.85779100"><ele>221.8000031352</ele><time>2010-07-31T07:21:38Z</time></trkpt>
<trkpt lat="45.81921000" lon="4.85776400"><ele>221.6000061768</ele><time>2010-07-31T07:21:39Z</time></trkpt>
<trkpt lat="45.81916500" lon="4.85772700"><ele>221.3999939784</ele><time>2010-07-31T07:21:40Z</time></trkpt>
<trkpt lat="45.81911900" lon="4.85767800"><ele>222.0000000936</ele><time>2010-07-31T07:21:41Z</time></trkpt>
<trkpt lat="45.81907600" lon="4.85763800"><ele>222.0000000936</ele><time>2010-07-31T07:21:42Z</time></trkpt>
<trkpt lat="45.81903000" lon="4.85758900"><ele>221.8000031352</ele><time>2010-07-31T07:21:43Z</time></trkpt>
<trkpt lat="45.81898400" lon="4.85754500"><ele>221.699997036</ele><time>2010-07-31T07:21:44Z</time></trkpt>
<trkpt lat="45.81893100" lon="4.85749700"><ele>221.8000031352</ele><time>2010-07-31T07:21:45Z</time></trkpt>
<trkpt lat="45.81889300" lon="4.85746000"><ele>221.699997036</ele><time>2010-07-31T07:21:46Z</time></trkpt>
<trkpt lat="45.81880300" lon="4.85744000"><ele>222.0000000936</ele><time>2010-07-31T07:21:47Z</time></trkpt>
<trkpt lat="45.81873900" lon="4.85740600"><ele>222.199997052</ele><time>2010-07-31T07:21:48Z</time></trkpt>
<trkpt lat="45.81867600" lon="4.85736300"><ele>222.3999940104</ele><time>2010-07-31T07:21:49Z</time></trkpt>
<trkpt lat="45.81862800" lon="4.85732000"><ele>222.5000001096</ele><time>2010-07-31T07:21:50Z</time></trkpt>
<trkpt lat="45.81856700" lon="4.85726800"><ele>222.699997068</ele><time>2010-07-31T07:21:51Z</time></trkpt>
<trkpt lat="45.81851600" lon="4.85721800"><ele>222.199997052</ele><time>2010-07-31T07:21:52Z</time></trkpt>
<trkpt lat="45.81846100" lon="4.85717200"><ele>222.3999940104</ele><time>2010-07-31T07:21:53Z</time></trkpt>
<trkpt lat="45.81840700" lon="4.85712900"><ele>222.5000001096</ele><time>2010-07-31T07:21:54Z</time></trkpt>
<trkpt lat="45.81834900" lon="4.85706800"><ele>222.1000061928</ele><time>2010-07-31T07:21:55Z</time></trkpt>
<trkpt lat="45.81829100" lon="4.85702000"><ele>222.3999940104</ele><time>2010-07-31T07:21:56Z</time></trkpt>
<trkpt lat="45.81823600" lon="4.85697600"><ele>222.199997052</ele><time>2010-07-31T07:21:57Z</time></trkpt>
<trkpt lat="45.81818700" lon="4.85693000"><ele>222.6000062088</ele><time>2010-07-31T07:21:58Z</time></trkpt>
<trkpt lat="45.81812700" lon="4.85688600"><ele>222.1000061928</ele><time>2010-07-31T07:21:59Z</time></trkpt>
<trkpt lat="45.81807100" lon="4.85684000"><ele>222.0000000936</ele><time>2010-07-31T07:22:00Z</time></trkpt>
<trkpt lat="45.81802600" lon="4.85679200"><ele>222.0000000936</ele><time>2010-07-31T07:22:01Z</time></trkpt>
<trkpt lat="45.81796400" lon="4.85675700"><ele>221.8999939944</ele><time>2010-07-31T07:22:02Z</time></trkpt>
<trkpt lat="45.81790200" lon="4.85671200"><ele>222.0000000936</ele><time>2010-07-31T07:22:03Z</time></trkpt>
<trkpt lat="45.81785600" lon="4.85666800"><ele>221.8000031352</ele><time>2010-07-31T07:22:04Z</time></trkpt>
<trkpt lat="45.81780700" lon="4.85662000"><ele>222.3999940104</ele><time>2010-07-31T07:22:05Z</time></trkpt>
<trkpt lat="45.81775500" lon="4.85656700"><ele>222.5000001096</ele><time>2010-07-31T07:22:06Z</time></trkpt>
<trkpt lat="45.81770700" lon="4.85651800"><ele>222.3999940104</ele><time>2010-07-31T07:22:07Z</time></trkpt>
<trkpt lat="45.81766500" lon="4.85646900"><ele>222.199997052</ele><time>2010-07-31T07:22:08Z</time></trkpt>
<trkpt lat="45.81762000" lon="4.85643200"><ele>222.199997052</ele><time>2010-07-31T07:22:09Z</time></trkpt>
<trkpt lat="45.81757900" lon="4.85638300"><ele>222.1000061928</ele><time>2010-07-31T07:22:10Z</time></trkpt>
<trkpt lat="45.81753300" lon="4.85632700"><ele>222.0000000936</ele><time>2010-07-31T07:22:11Z</time></trkpt>
<trkpt lat="45.81748000" lon="4.85627700"><ele>221.6000061768</ele><time>2010-07-31T07:22:12Z</time></trkpt>
<trkpt lat="45.81743900" lon="4.85621800"><ele>221.8999939944</ele><time>2010-07-31T07:22:13Z</time></trkpt>
<trkpt lat="45.81739500" lon="4.85616800"><ele>221.699997036</ele><time>2010-07-31T07:22:14Z</time></trkpt>
<trkpt lat="45.81735700" lon="4.85611200"><ele>222.199997052</ele><time>2010-07-31T07:22:15Z</time></trkpt>
<trkpt lat="45.81732400" lon="4.85606100"><ele>221.8999939944</ele><time>2010-07-31T07:22:16Z</time></trkpt>
<trkpt lat="45.81725300" lon="4.85601200"><ele>220.3000030872</ele><time>2010-07-31T07:22:17Z</time></trkpt>
<trkpt lat="45.81720400" lon="4.85596200"><ele>219.8000030712</ele><time>2010-07-31T07:22:18Z</time></trkpt>
<trkpt lat="45.81715800" lon="4.85590500"><ele>219.6000061128</ele><time>2010-07-31T07:22:19Z</time></trkpt>
<trkpt lat="45.81711200" lon="4.85585500"><ele>219.6000061128</ele><time>2010-07-31T07:22:20Z</time></trkpt>
<trkpt lat="45.81709000" lon="4.85578800"><ele>220.199996988</ele><time>2010-07-31T07:22:21Z</time></trkpt>
<trkpt lat="45.81705000" lon="4.85572400"><ele>220.6000061448</ele><time>2010-07-31T07:22:22Z</time></trkpt>
<trkpt lat="45.81698900" lon="4.85566900"><ele>219.699996972</ele><time>2010-07-31T07:22:23Z</time></trkpt>
<trkpt lat="45.81693600" lon="4.85560600"><ele>219.699996972</ele><time>2010-07-31T07:22:24Z</time></trkpt>
<trkpt lat="45.81688700" lon="4.85555000"><ele>219.699996972</ele><time>2010-07-31T07:22:25Z</time></trkpt>
<trkpt lat="45.81683900" lon="4.85548900"><ele>219.8999939304</ele><time>2010-07-31T07:22:26Z</time></trkpt>
<trkpt lat="45.81678700" lon="4.85543000"><ele>219.8000030712</ele><time>2010-07-31T07:22:27Z</time></trkpt>
<trkpt lat="45.81675400" lon="4.85537100"><ele>219.5000000136</ele><time>2010-07-31T07:22:28Z</time></trkpt>
<trkpt lat="45.81671400" lon="4.85530300"><ele>218.8000030392</ele><time>2010-07-31T07:22:29Z</time></trkpt>
<trkpt lat="45.81667800" lon="4.85521400"><ele>217.9999999656</ele><time>2010-07-31T07:22:30Z</time></trkpt>
<trkpt lat="45.81663600" lon="4.85513900"><ele>217.8999938664</ele><time>2010-07-31T07:22:31Z</time></trkpt>
<trkpt lat="45.81659500" lon="4.85506200"><ele>217.3999938504</ele><time>2010-07-31T07:22:32Z</time></trkpt>
<trkpt lat="45.81655800" lon="4.85497700"><ele>216.9999999336</ele><time>2010-07-31T07:22:33Z</time></trkpt>
<trkpt lat="45.81652200" lon="4.85490600"><ele>216.699996876</ele><time>2010-07-31T07:22:34Z</time></trkpt>
<trkpt lat="45.81648200" lon="4.85482200"><ele>216.3000029592</ele><time>2010-07-31T07:22:35Z</time></trkpt>
<trkpt lat="45.81644100" lon="4.85474500"><ele>215.699996844</ele><time>2010-07-31T07:22:36Z</time></trkpt>
<trkpt lat="45.81639900" lon="4.85467100"><ele>215.8999938024</ele><time>2010-07-31T07:22:37Z</time></trkpt>
<trkpt lat="45.81636500" lon="4.85459700"><ele>215.699996844</ele><time>2010-07-31T07:22:38Z</time></trkpt>
<trkpt lat="45.81632700" lon="4.85452000"><ele>215.699996844</ele><time>2010-07-31T07:22:39Z</time></trkpt>
<trkpt lat="45.81629100" lon="4.85444500"><ele>215.6000059848</ele><time>2010-07-31T07:22:40Z</time></trkpt>
<trkpt lat="45.81625600" lon="4.85437300"><ele>215.8999938024</ele><time>2010-07-31T07:22:41Z</time></trkpt>
<trkpt lat="45.81620600" lon="4.85431200"><ele>215.4999998856</ele><time>2010-07-31T07:22:42Z</time></trkpt>
<trkpt lat="45.81615300" lon="4.85424000"><ele>214.4999998536</ele><time>2010-07-31T07:22:43Z</time></trkpt>
<trkpt lat="45.81611500" lon="4.85417000"><ele>214.9999998696</ele><time>2010-07-31T07:22:44Z</time></trkpt>
<trkpt lat="45.81608700" lon="4.85409600"><ele>215.4999998856</ele><time>2010-07-31T07:22:45Z</time></trkpt>
<trkpt lat="45.81605600" lon="4.85402000"><ele>215.3000029272</ele><time>2010-07-31T07:22:46Z</time></trkpt>
<trkpt lat="45.81602400" lon="4.85394300"><ele>215.4999998856</ele><time>2010-07-31T07:22:47Z</time></trkpt>
<trkpt lat="45.81599400" lon="4.85386000"><ele>215.3000029272</ele><time>2010-07-31T07:22:48Z</time></trkpt>
<trkpt lat="45.81597200" lon="4.85377900"><ele>215.6000059848</ele><time>2010-07-31T07:22:49Z</time></trkpt>
<trkpt lat="45.81594400" lon="4.85369700"><ele>215.199996828</ele><time>2010-07-31T07:22:50Z</time></trkpt>
<trkpt lat="45.81591100" lon="4.85360700"><ele>215.3000029272</ele><time>2010-07-31T07:22:51Z</time></trkpt>
<trkpt lat="45.81587900" lon="4.85352400"><ele>215.3999937864</ele><time>2010-07-31T07:22:52Z</time></trkpt>
<trkpt lat="45.81584400" lon="4.85344200"><ele>215.1000059688</ele><time>2010-07-31T07:22:53Z</time></trkpt>
<trkpt lat="45.81581000" lon="4.85336000"><ele>215.699996844</ele><time>2010-07-31T07:22:54Z</time></trkpt>
<trkpt lat="45.81577400" lon="4.85327600"><ele>215.4999998856</ele><time>2010-07-31T07:22:55Z</time></trkpt>
<trkpt lat="45.81574100" lon="4.85319500"><ele>215.6000059848</ele><time>2010-07-31T07:22:56Z</time></trkpt>
<trkpt lat="45.81571400" lon="4.85311100"><ele>215.3999937864</ele><time>2010-07-31T07:22:57Z</time></trkpt>
<trkpt lat="45.81568400" lon="4.85303700"><ele>215.199996828</ele><time>2010-07-31T07:22:58Z</time></trkpt>
<trkpt lat="45.81564600" lon="4.85295800"><ele>215.1000059688</ele><time>2010-07-31T07:22:59Z</time></trkpt>
<trkpt lat="45.81561500" lon="4.85288500"><ele>215.699996844</ele><time>2010-07-31T07:23:00Z</time></trkpt>
<trkpt lat="45.81557900" lon="4.85281900"><ele>216.1000060008</ele><time>2010-07-31T07:23:01Z</time></trkpt>
<trkpt lat="45.81554300" lon="4.85274800"><ele>216.1000060008</ele><time>2010-07-31T07:23:02Z</time></trkpt>
<trkpt lat="45.81550600" lon="4.85268000"><ele>216.3000029592</ele><time>2010-07-31T07:23:03Z</time></trkpt>
<trkpt lat="45.81547000" lon="4.85261700"><ele>216.699996876</ele><time>2010-07-31T07:23:04Z</time></trkpt>
<trkpt lat="45.81543400" lon="4.85255500"><ele>216.699996876</ele><time>2010-07-31T07:23:05Z</time></trkpt>
<trkpt lat="45.81539900" lon="4.85249800"><ele>216.6000060168</ele><time>2010-07-31T07:23:06Z</time></trkpt>
<trkpt lat="45.81535000" lon="4.85243500"><ele>215.699996844</ele><time>2010-07-31T07:23:07Z</time></trkpt>
<trkpt lat="45.81531100" lon="4.85237400"><ele>215.8999938024</ele><time>2010-07-31T07:23:08Z</time></trkpt>
<trkpt lat="45.81527500" lon="4.85231600"><ele>215.699996844</ele><time>2010-07-31T07:23:09Z</time></trkpt>
<trkpt lat="45.81524200" lon="4.85225600"><ele>215.4999998856</ele><time>2010-07-31T07:23:10Z</time></trkpt>
<trkpt lat="45.81520700" lon="4.85220100"><ele>215.3000029272</ele><time>2010-07-31T07:23:11Z</time></trkpt>
<trkpt lat="45.81517500" lon="4.85214200"><ele>215.699996844</ele><time>2010-07-31T07:23:12Z</time></trkpt>
<trkpt lat="45.81514200" lon="4.85208900"><ele>215.8000029432</ele><time>2010-07-31T07:23:13Z</time></trkpt>
<trkpt lat="45.81511100" lon="4.85203300"><ele>215.4999998856</ele><time>2010-07-31T07:23:14Z</time></trkpt>
<trkpt lat="45.81507200" lon="4.85196700"><ele>215.4999998856</ele><time>2010-07-31T07:23:15Z</time></trkpt>
<trkpt lat="45.81503800" lon="4.85191500"><ele>215.4999998856</ele><time>2010-07-31T07:23:16Z</time></trkpt>
<trkpt lat="45.81500200" lon="4.85185200"><ele>215.4999998856</ele><time>2010-07-31T07:23:17Z</time></trkpt>
<trkpt lat="45.81497400" lon="4.85178900"><ele>215.6000059848</ele><time>2010-07-31T07:23:18Z</time></trkpt>
<trkpt lat="45.81494200" lon="4.85173200"><ele>215.3999937864</ele><time>2010-07-31T07:23:19Z</time></trkpt>
<trkpt lat="45.81490900" lon="4.85167600"><ele>215.3999937864</ele><time>2010-07-31T07:23:20Z</time></trkpt>
<trkpt lat="45.81487400" lon="4.85161300"><ele>215.4999998856</ele><time>2010-07-31T07:23:21Z</time></trkpt>
<trkpt lat="45.81483900" lon="4.85154800"><ele>215.6000059848</ele><time>2010-07-31T07:23:22Z</time></trkpt>
<trkpt lat="45.81482800" lon="4.85147300"><ele>215.6000059848</ele><time>2010-07-31T07:23:23Z</time></trkpt>
<trkpt lat="45.81480000" lon="4.85140800"><ele>216.1000060008</ele><time>2010-07-31T07:23:24Z</time></trkpt>
<trkpt lat="45.81476900" lon="4.85134100"><ele>216.3000029592</ele><time>2010-07-31T07:23:25Z</time></trkpt>
<trkpt lat="45.81472900" lon="4.85127900"><ele>215.699996844</ele><time>2010-07-31T07:23:26Z</time></trkpt>
<trkpt lat="45.81470500" lon="4.85121000"><ele>215.699996844</ele><time>2010-07-31T07:23:27Z</time></trkpt>
<trkpt lat="45.81467700" lon="4.85114300"><ele>215.6000059848</ele><time>2010-07-31T07:23:28Z</time></trkpt>
<trkpt lat="45.81464900" lon="4.85107700"><ele>215.9999999016</ele><time>2010-07-31T07:23:29Z</time></trkpt>
<trkpt lat="45.81462600" lon="4.85101500"><ele>215.8000029432</ele><time>2010-07-31T07:23:30Z</time></trkpt>
<trkpt lat="45.81460400" lon="4.85094200"><ele>215.8999938024</ele><time>2010-07-31T07:23:31Z</time></trkpt>
<trkpt lat="45.81457400" lon="4.85088000"><ele>215.8999938024</ele><time>2010-07-31T07:23:32Z</time></trkpt>
<trkpt lat="45.81454000" lon="4.85081400"><ele>216.3000029592</ele><time>2010-07-31T07:23:33Z</time></trkpt>
<trkpt lat="45.81451700" lon="4.85074600"><ele>216.3999938184</ele><time>2010-07-31T07:23:34Z</time></trkpt>
<trkpt lat="45.81449100" lon="4.85068000"><ele>216.4999999176</ele><time>2010-07-31T07:23:35Z</time></trkpt>
<trkpt lat="45.81446800" lon="4.85061300"><ele>216.3999938184</ele><time>2010-07-31T07:23:36Z</time></trkpt>
<trkpt lat="45.81443800" lon="4.85055100"><ele>216.8999938344</ele><time>2010-07-31T07:23:37Z</time></trkpt>
<trkpt lat="45.81441400" lon="4.85049500"><ele>217.199996892</ele><time>2010-07-31T07:23:38Z</time></trkpt>
<trkpt lat="45.81438500" lon="4.85042400"><ele>217.4999999496</ele><time>2010-07-31T07:23:39Z</time></trkpt>
<trkpt lat="45.81435800" lon="4.85036100"><ele>217.4999999496</ele><time>2010-07-31T07:23:40Z</time></trkpt>
<trkpt lat="45.81433200" lon="4.85029600"><ele>217.6000060488</ele><time>2010-07-31T07:23:41Z</time></trkpt>
<trkpt lat="45.81430600" lon="4.85022900"><ele>217.8000030072</ele><time>2010-07-31T07:23:42Z</time></trkpt>
<trkpt lat="45.81428100" lon="4.85016700"><ele>218.1000060648</ele><time>2010-07-31T07:23:43Z</time></trkpt>
<trkpt lat="45.81425700" lon="4.85010400"><ele>218.199996924</ele><time>2010-07-31T07:23:44Z</time></trkpt>
<trkpt lat="45.81423300" lon="4.85004000"><ele>218.3000030232</ele><time>2010-07-31T07:23:45Z</time></trkpt>
<trkpt lat="45.81420900" lon="4.84997400"><ele>218.4999999816</ele><time>2010-07-31T07:23:46Z</time></trkpt>
<trkpt lat="45.81418500" lon="4.84991200"><ele>218.3000030232</ele><time>2010-07-31T07:23:47Z</time></trkpt>
<trkpt lat="45.81415500" lon="4.84980700"><ele>217.9999999656</ele><time>2010-07-31T07:23:49Z</time></trkpt>
<trkpt lat="45.81410800" lon="4.84977000"><ele>217.3999938504</ele><time>2010-07-31T07:23:50Z</time></trkpt>
<trkpt lat="45.81408700" lon="4.84965800"><ele>217.4999999496</ele><time>2010-07-31T07:23:52Z</time></trkpt>
<trkpt lat="45.81406000" lon="4.84955300"><ele>217.8000030072</ele><time>2010-07-31T07:23:54Z</time></trkpt>
<trkpt lat="45.81403200" lon="4.84944600"><ele>217.8000030072</ele><time>2010-07-31T07:23:56Z</time></trkpt>
<trkpt lat="45.81401100" lon="4.84934800"><ele>217.8999938664</ele><time>2010-07-31T07:23:58Z</time></trkpt>
<trkpt lat="45.81397900" lon="4.84925800"><ele>217.4999999496</ele><time>2010-07-31T07:24:00Z</time></trkpt>
<trkpt lat="45.81393600" lon="4.84919400"><ele>217.1000060328</ele><time>2010-07-31T07:24:02Z</time></trkpt>
<trkpt lat="45.81389400" lon="4.84912100"><ele>217.1000060328</ele><time>2010-07-31T07:24:04Z</time></trkpt>
<trkpt lat="45.81385800" lon="4.84902300"><ele>215.9999999016</ele><time>2010-07-31T07:24:06Z</time></trkpt>
<trkpt lat="45.81382600" lon="4.84892100"><ele>216.19999686</ele><time>2010-07-31T07:24:08Z</time></trkpt>
<trkpt lat="45.81378400" lon="4.84883000"><ele>216.8000029752</ele><time>2010-07-31T07:24:10Z</time></trkpt>
<trkpt lat="45.81372900" lon="4.84873100"><ele>216.4999999176</ele><time>2010-07-31T07:24:12Z</time></trkpt>
<trkpt lat="45.81367600" lon="4.84863000"><ele>216.3999938184</ele><time>2010-07-31T07:24:14Z</time></trkpt>
<trkpt lat="45.81361500" lon="4.84853700"><ele>216.19999686</ele><time>2010-07-31T07:24:16Z</time></trkpt>
<trkpt lat="45.81356600" lon="4.84850200"><ele>216.4999999176</ele><time>2010-07-31T07:24:18Z</time></trkpt>
<trkpt lat="45.81350800" lon="4.84848100"><ele>217.3000029912</ele><time>2010-07-31T07:24:23Z</time></trkpt>
<trkpt lat="45.81346400" lon="4.84839000"><ele>217.8000030072</ele><time>2010-07-31T07:24:25Z</time></trkpt>
<trkpt lat="45.81340100" lon="4.84829000"><ele>217.3000029912</ele><time>2010-07-31T07:24:27Z</time></trkpt>
<trkpt lat="45.81336600" lon="4.84823700"><ele>217.199996892</ele><time>2010-07-31T07:24:28Z</time></trkpt>
<trkpt lat="45.81333000" lon="4.84817900"><ele>217.1000060328</ele><time>2010-07-31T07:24:29Z</time></trkpt>
<trkpt lat="45.81329600" lon="4.84812700"><ele>217.1000060328</ele><time>2010-07-31T07:24:30Z</time></trkpt>
<trkpt lat="45.81327000" lon="4.84805100"><ele>216.9999999336</ele><time>2010-07-31T07:24:31Z</time></trkpt>
<trkpt lat="45.81323700" lon="4.84798400"><ele>217.3000029912</ele><time>2010-07-31T07:24:32Z</time></trkpt>
<trkpt lat="45.81318500" lon="4.84794200"><ele>216.9999999336</ele><time>2010-07-31T07:24:33Z</time></trkpt>
<trkpt lat="45.81315200" lon="4.84788700"><ele>216.9999999336</ele><time>2010-07-31T07:24:34Z</time></trkpt>
<trkpt lat="45.81310600" lon="4.84783300"><ele>217.1000060328</ele><time>2010-07-31T07:24:35Z</time></trkpt>
<trkpt lat="45.81306400" lon="4.84778300"><ele>216.9999999336</ele><time>2010-07-31T07:24:36Z</time></trkpt>
<trkpt lat="45.81302300" lon="4.84772900"><ele>216.9999999336</ele><time>2010-07-31T07:24:37Z</time></trkpt>
<trkpt lat="45.81298100" lon="4.84767100"><ele>217.3999938504</ele><time>2010-07-31T07:24:38Z</time></trkpt>
<trkpt lat="45.81293900" lon="4.84761300"><ele>217.3000029912</ele><time>2010-07-31T07:24:39Z</time></trkpt>
<trkpt lat="45.81289400" lon="4.84755400"><ele>217.3999938504</ele><time>2010-07-31T07:24:40Z</time></trkpt>
<trkpt lat="45.81284700" lon="4.84749800"><ele>217.4999999496</ele><time>2010-07-31T07:24:41Z</time></trkpt>
<trkpt lat="45.81280800" lon="4.84744900"><ele>217.3000029912</ele><time>2010-07-31T07:24:42Z</time></trkpt>
<trkpt lat="45.81276400" lon="4.84738600"><ele>217.4999999496</ele><time>2010-07-31T07:24:43Z</time></trkpt>
<trkpt lat="45.81271400" lon="4.84733300"><ele>217.4999999496</ele><time>2010-07-31T07:24:44Z</time></trkpt>
<trkpt lat="45.81266600" lon="4.84727400"><ele>217.6000060488</ele><time>2010-07-31T07:24:45Z</time></trkpt>
<trkpt lat="45.81262000" lon="4.84722000"><ele>217.3999938504</ele><time>2010-07-31T07:24:46Z</time></trkpt>
<trkpt lat="45.81257500" lon="4.84716300"><ele>217.4999999496</ele><time>2010-07-31T07:24:47Z</time></trkpt>
<trkpt lat="45.81253100" lon="4.84710900"><ele>217.199996892</ele><time>2010-07-31T07:24:48Z</time></trkpt>
<trkpt lat="45.81248800" lon="4.84705200"><ele>217.199996892</ele><time>2010-07-31T07:24:49Z</time></trkpt>
<trkpt lat="45.81244900" lon="4.84699500"><ele>217.199996892</ele><time>2010-07-31T07:24:50Z</time></trkpt>
<trkpt lat="45.81240400" lon="4.84693200"><ele>217.1000060328</ele><time>2010-07-31T07:24:51Z</time></trkpt>
<trkpt lat="45.81236100" lon="4.84688000"><ele>216.8000029752</ele><time>2010-07-31T07:24:52Z</time></trkpt>
<trkpt lat="45.81231500" lon="4.84682600"><ele>216.9999999336</ele><time>2010-07-31T07:24:53Z</time></trkpt>
<trkpt lat="45.81227300" lon="4.84676600"><ele>216.699996876</ele><time>2010-07-31T07:24:54Z</time></trkpt>
<trkpt lat="45.81223100" lon="4.84671000"><ele>216.4999999176</ele><time>2010-07-31T07:24:55Z</time></trkpt>
<trkpt lat="45.81219000" lon="4.84666000"><ele>216.3999938184</ele><time>2010-07-31T07:24:56Z</time></trkpt>
<trkpt lat="45.81215100" lon="4.84660800"><ele>216.8000029752</ele><time>2010-07-31T07:24:57Z</time></trkpt>
<trkpt lat="45.81211600" lon="4.84656300"><ele>216.699996876</ele><time>2010-07-31T07:24:58Z</time></trkpt>
<trkpt lat="45.81207200" lon="4.84651200"><ele>216.699996876</ele><time>2010-07-31T07:24:59Z</time></trkpt>
<trkpt lat="45.81202900" lon="4.84646400"><ele>216.6000060168</ele><time>2010-07-31T07:25:00Z</time></trkpt>
<trkpt lat="45.81199100" lon="4.84641500"><ele>216.699996876</ele><time>2010-07-31T07:25:01Z</time></trkpt>
<trkpt lat="45.81195200" lon="4.84636800"><ele>216.699996876</ele><time>2010-07-31T07:25:02Z</time></trkpt>
<trkpt lat="45.81191000" lon="4.84632400"><ele>216.699996876</ele><time>2010-07-31T07:25:03Z</time></trkpt>
<trkpt lat="45.81187200" lon="4.84626800"><ele>216.4999999176</ele><time>2010-07-31T07:25:04Z</time></trkpt>
<trkpt lat="45.81179000" lon="4.84618900"><ele>215.8999938024</ele><time>2010-07-31T07:25:06Z</time></trkpt>
<trkpt lat="45.81174400" lon="4.84614400"><ele>215.9999999016</ele><time>2010-07-31T07:25:07Z</time></trkpt>
<trkpt lat="45.81169900" lon="4.84609900"><ele>215.9999999016</ele><time>2010-07-31T07:25:08Z</time></trkpt>
<trkpt lat="45.81165600" lon="4.84606000"><ele>215.9999999016</ele><time>2010-07-31T07:25:09Z</time></trkpt>
<trkpt lat="45.81161100" lon="4.84601600"><ele>215.9999999016</ele><time>2010-07-31T07:25:10Z</time></trkpt>
<trkpt lat="45.81157000" lon="4.84597600"><ele>215.9999999016</ele><time>2010-07-31T07:25:11Z</time></trkpt>
<trkpt lat="45.81153000" lon="4.84593000"><ele>215.9999999016</ele><time>2010-07-31T07:25:12Z</time></trkpt>
<trkpt lat="45.81148700" lon="4.84589000"><ele>216.3000029592</ele><time>2010-07-31T07:25:13Z</time></trkpt>
<trkpt lat="45.81140900" lon="4.84580800"><ele>216.19999686</ele><time>2010-07-31T07:25:15Z</time></trkpt>
<trkpt lat="45.81133700" lon="4.84572400"><ele>215.8999938024</ele><time>2010-07-31T07:25:17Z</time></trkpt>
<trkpt lat="45.81129400" lon="4.84568000"><ele>216.1000060008</ele><time>2010-07-31T07:25:18Z</time></trkpt>
<trkpt lat="45.81125000" lon="4.84564400"><ele>216.3999938184</ele><time>2010-07-31T07:25:19Z</time></trkpt>
<trkpt lat="45.81120800" lon="4.84560700"><ele>215.9999999016</ele><time>2010-07-31T07:25:20Z</time></trkpt>
<trkpt lat="45.81116300" lon="4.84556900"><ele>215.8999938024</ele><time>2010-07-31T07:25:21Z</time></trkpt>
<trkpt lat="45.81112400" lon="4.84553400"><ele>215.4999998856</ele><time>2010-07-31T07:25:22Z</time></trkpt>
<trkpt lat="45.81107900" lon="4.84549500"><ele>215.199996828</ele><time>2010-07-31T07:25:23Z</time></trkpt>
<trkpt lat="45.81103500" lon="4.84545700"><ele>214.8999937704</ele><time>2010-07-31T07:25:24Z</time></trkpt>
<trkpt lat="45.81099100" lon="4.84541900"><ele>214.699996812</ele><time>2010-07-31T07:25:25Z</time></trkpt>
<trkpt lat="45.81094600" lon="4.84538000"><ele>214.3999937544</ele><time>2010-07-31T07:25:26Z</time></trkpt>
<trkpt lat="45.81090300" lon="4.84534900"><ele>214.199996796</ele><time>2010-07-31T07:25:27Z</time></trkpt>
<trkpt lat="45.81082800" lon="4.84527500"><ele>214.0000001424</ele><time>2010-07-31T07:25:29Z</time></trkpt>
<trkpt lat="45.81077800" lon="4.84523800"><ele>214.3999937544</ele><time>2010-07-31T07:25:30Z</time></trkpt>
<trkpt lat="45.81072800" lon="4.84521100"><ele>214.3000032</ele><time>2010-07-31T07:25:31Z</time></trkpt>
<trkpt lat="45.81067900" lon="4.84518000"><ele>214.0000001424</ele><time>2010-07-31T07:25:32Z</time></trkpt>
<trkpt lat="45.81062700" lon="4.84513200"><ele>213.1999970688</ele><time>2010-07-31T07:25:33Z</time></trkpt>
<trkpt lat="45.81057400" lon="4.84508700"><ele>213.0000001104</ele><time>2010-07-31T07:25:34Z</time></trkpt>
<trkpt lat="45.81053000" lon="4.84504900"><ele>213.1999970688</ele><time>2010-07-31T07:25:35Z</time></trkpt>
<trkpt lat="45.81048000" lon="4.84502200"><ele>213.5000001264</ele><time>2010-07-31T07:25:36Z</time></trkpt>
<trkpt lat="45.81043100" lon="4.84499000"><ele>213.1000062096</ele><time>2010-07-31T07:25:37Z</time></trkpt>
<trkpt lat="45.81038400" lon="4.84495900"><ele>213.3999940272</ele><time>2010-07-31T07:25:38Z</time></trkpt>
<trkpt lat="45.81033000" lon="4.84493200"><ele>213.6000062256</ele><time>2010-07-31T07:25:39Z</time></trkpt>
<trkpt lat="45.81028200" lon="4.84489900"><ele>213.6000062256</ele><time>2010-07-31T07:25:40Z</time></trkpt>
<trkpt lat="45.81023000" lon="4.84487200"><ele>213.6000062256</ele><time>2010-07-31T07:25:41Z</time></trkpt>
<trkpt lat="45.81017700" lon="4.84484300"><ele>213.8999940432</ele><time>2010-07-31T07:25:42Z</time></trkpt>
<trkpt lat="45.81014200" lon="4.84475500"><ele>215.699996844</ele><time>2010-07-31T07:25:44Z</time></trkpt>
<trkpt lat="45.81010700" lon="4.84471000"><ele>215.3999937864</ele><time>2010-07-31T07:25:45Z</time></trkpt>
<trkpt lat="45.81006200" lon="4.84467700"><ele>215.3999937864</ele><time>2010-07-31T07:25:46Z</time></trkpt>
<trkpt lat="45.81002200" lon="4.84463800"><ele>215.4999998856</ele><time>2010-07-31T07:25:47Z</time></trkpt>
<trkpt lat="45.80995900" lon="4.84457800"><ele>216.4999999176</ele><time>2010-07-31T07:25:49Z</time></trkpt>
<trkpt lat="45.80991800" lon="4.84454200"><ele>216.8000029752</ele><time>2010-07-31T07:25:50Z</time></trkpt>
<trkpt lat="45.80985900" lon="4.84446200"><ele>216.699996876</ele><time>2010-07-31T07:25:52Z</time></trkpt>
<trkpt lat="45.80979500" lon="4.84440900"><ele>217.199996892</ele><time>2010-07-31T07:25:54Z</time></trkpt>
<trkpt lat="45.80971900" lon="4.84435100"><ele>217.199996892</ele><time>2010-07-31T07:25:56Z</time></trkpt>
<trkpt lat="45.80965700" lon="4.84431500"><ele>217.1000060328</ele><time>2010-07-31T07:25:58Z</time></trkpt>
<trkpt lat="45.80960000" lon="4.84425800"><ele>218.1000060648</ele><time>2010-07-31T07:26:01Z</time></trkpt>
<trkpt lat="45.80952700" lon="4.84424400"><ele>219.1000060968</ele><time>2010-07-31T07:26:03Z</time></trkpt>
<trkpt lat="45.80948000" lon="4.84421400"><ele>220.699997004</ele><time>2010-07-31T07:26:06Z</time></trkpt>
<trkpt lat="45.80942200" lon="4.84420200"><ele>221.0000000616</ele><time>2010-07-31T07:26:09Z</time></trkpt>
<trkpt lat="45.80936000" lon="4.84421300"><ele>220.0000000296</ele><time>2010-07-31T07:26:11Z</time></trkpt>
<trkpt lat="45.80929200" lon="4.84419600"><ele>219.6000061128</ele><time>2010-07-31T07:26:13Z</time></trkpt>
<trkpt lat="45.80923100" lon="4.84418800"><ele>219.8000030712</ele><time>2010-07-31T07:26:15Z</time></trkpt>
<trkpt lat="45.80914500" lon="4.84416400"><ele>220.699997004</ele><time>2010-07-31T07:26:18Z</time></trkpt>
<trkpt lat="45.80906700" lon="4.84411800"><ele>222.6000062088</ele><time>2010-07-31T07:26:19Z</time></trkpt>
<trkpt lat="45.80898400" lon="4.84412200"><ele>222.6000062088</ele><time>2010-07-31T07:26:21Z</time></trkpt>
<trkpt lat="45.80890500" lon="4.84411500"><ele>221.19999702</ele><time>2010-07-31T07:26:23Z</time></trkpt>
<trkpt lat="45.80882300" lon="4.84411000"><ele>219.8000030712</ele><time>2010-07-31T07:26:26Z</time></trkpt>
<trkpt lat="45.80875100" lon="4.84410900"><ele>220.6000061448</ele><time>2010-07-31T07:26:28Z</time></trkpt>
<trkpt lat="45.80867600" lon="4.84410000"><ele>220.199996988</ele><time>2010-07-31T07:26:30Z</time></trkpt>
<trkpt lat="45.80859600" lon="4.84409300"><ele>222.0000000936</ele><time>2010-07-31T07:26:32Z</time></trkpt>
<trkpt lat="45.80853500" lon="4.84409300"><ele>221.0000000616</ele><time>2010-07-31T07:26:34Z</time></trkpt>
<trkpt lat="45.80847900" lon="4.84409200"><ele>220.8999939624</ele><time>2010-07-31T07:26:36Z</time></trkpt>
<trkpt lat="45.80842400" lon="4.84410200"><ele>220.8999939624</ele><time>2010-07-31T07:26:38Z</time></trkpt>
<trkpt lat="45.80836800" lon="4.84412900"><ele>220.699997004</ele><time>2010-07-31T07:26:40Z</time></trkpt>
<trkpt lat="45.80831700" lon="4.84419100"><ele>221.19999702</ele><time>2010-07-31T07:26:43Z</time></trkpt>
<trkpt lat="45.80833500" lon="4.84425600"><ele>221.699997036</ele><time>2010-07-31T07:26:44Z</time></trkpt>
<trkpt lat="45.80838500" lon="4.84437500"><ele>220.3999939464</ele><time>2010-07-31T07:26:45Z</time></trkpt>
<trkpt lat="45.80839500" lon="4.84444300"><ele>220.3000030872</ele><time>2010-07-31T07:26:46Z</time></trkpt>
<trkpt lat="45.80840700" lon="4.84452400"><ele>219.6000061128</ele><time>2010-07-31T07:26:48Z</time></trkpt>
<trkpt lat="45.80840700" lon="4.84463700"><ele>218.8999938984</ele><time>2010-07-31T07:26:51Z</time></trkpt>
<trkpt lat="45.80839100" lon="4.84471900"><ele>218.8000030392</ele><time>2010-07-31T07:26:53Z</time></trkpt>
<trkpt lat="45.80838500" lon="4.84481200"><ele>219.5000000136</ele><time>2010-07-31T07:26:55Z</time></trkpt>
<trkpt lat="45.80837600" lon="4.84490200"><ele>219.699996972</ele><time>2010-07-31T07:26:57Z</time></trkpt>
<trkpt lat="45.80835500" lon="4.84498200"><ele>220.1000061288</ele><time>2010-07-31T07:26:59Z</time></trkpt>
<trkpt lat="45.80835400" lon="4.84505600"><ele>220.5000000456</ele><time>2010-07-31T07:27:01Z</time></trkpt>
<trkpt lat="45.80834800" lon="4.84514700"><ele>220.8999939624</ele><time>2010-07-31T07:27:03Z</time></trkpt>
<trkpt lat="45.80834800" lon="4.84523500"><ele>221.3000031192</ele><time>2010-07-31T07:27:05Z</time></trkpt>
<trkpt lat="45.80834700" lon="4.84531600"><ele>220.8999939624</ele><time>2010-07-31T07:27:07Z</time></trkpt>
<trkpt lat="45.80832600" lon="4.84538000"><ele>219.3000030552</ele><time>2010-07-31T07:27:09Z</time></trkpt>
<trkpt lat="45.80832400" lon="4.84545300"><ele>219.1000060968</ele><time>2010-07-31T07:27:11Z</time></trkpt>
<trkpt lat="45.80831300" lon="4.84553900"><ele>219.8000030712</ele><time>2010-07-31T07:27:13Z</time></trkpt>
<trkpt lat="45.80829200" lon="4.84559800"><ele>221.8000031352</ele><time>2010-07-31T07:27:15Z</time></trkpt>
<trkpt lat="45.80828600" lon="4.84566900"><ele>222.3000031512</ele><time>2010-07-31T07:27:17Z</time></trkpt>
<trkpt lat="45.80827600" lon="4.84574300"><ele>222.8000031672</ele><time>2010-07-31T07:27:19Z</time></trkpt>
<trkpt lat="45.80827600" lon="4.84582200"><ele>224.100005952</ele><time>2010-07-31T07:27:21Z</time></trkpt>
<trkpt lat="45.80828100" lon="4.84589300"><ele>223.3000031832</ele><time>2010-07-31T07:27:23Z</time></trkpt>
<trkpt lat="45.80827800" lon="4.84596200"><ele>224.100005952</ele><time>2010-07-31T07:27:25Z</time></trkpt>
<trkpt lat="45.80826800" lon="4.84603900"><ele>224.3000029104</ele><time>2010-07-31T07:27:27Z</time></trkpt>
<trkpt lat="45.80825800" lon="4.84610300"><ele>223.6999971</ele><time>2010-07-31T07:27:29Z</time></trkpt>
<trkpt lat="45.80824600" lon="4.84618800"><ele>224.8000029264</ele><time>2010-07-31T07:27:32Z</time></trkpt>
<trkpt lat="45.80825300" lon="4.84627600"><ele>225.600006</ele><time>2010-07-31T07:27:35Z</time></trkpt>
<trkpt lat="45.80826900" lon="4.84637000"><ele>226.600006032</ele><time>2010-07-31T07:27:40Z</time></trkpt>
<trkpt lat="45.80832400" lon="4.84641400"><ele>228.1999969392</ele><time>2010-07-31T07:27:42Z</time></trkpt>
<trkpt lat="45.80836200" lon="4.84646200"><ele>231.3999939936</ele><time>2010-07-31T07:27:47Z</time></trkpt>
<trkpt lat="45.80841000" lon="4.84650000"><ele>233.6000059512</ele><time>2010-07-31T07:27:49Z</time></trkpt>
<trkpt lat="45.80844300" lon="4.84654600"><ele>234.8999938008</ele><time>2010-07-31T07:27:52Z</time></trkpt>
<trkpt lat="45.80848400" lon="4.84658500"><ele>236.8999938648</ele><time>2010-07-31T07:27:56Z</time></trkpt>
<trkpt lat="45.80851800" lon="4.84663700"><ele>237.999999996</ele><time>2010-07-31T07:28:00Z</time></trkpt>
<trkpt lat="45.80854600" lon="4.84668700"><ele>240.00000006</ele><time>2010-07-31T07:28:04Z</time></trkpt>
<trkpt lat="45.80859400" lon="4.84672100"><ele>242.899993752</ele><time>2010-07-31T07:28:09Z</time></trkpt>
<trkpt lat="45.80863000" lon="4.84677700"><ele>243.399993768</ele><time>2010-07-31T07:28:14Z</time></trkpt>
<trkpt lat="45.80867100" lon="4.84680900"><ele>243.1999968096</ele><time>2010-07-31T07:28:18Z</time></trkpt>
<trkpt lat="45.80870100" lon="4.84687000"><ele>242.899993752</ele><time>2010-07-31T07:28:22Z</time></trkpt>
<trkpt lat="45.80873600" lon="4.84693100"><ele>242.6000062392</ele><time>2010-07-31T07:28:25Z</time></trkpt>
<trkpt lat="45.80877400" lon="4.84699000"><ele>245.9999999472</ele><time>2010-07-31T07:28:30Z</time></trkpt>
<trkpt lat="45.80880000" lon="4.84704500"><ele>245.899993848</ele><time>2010-07-31T07:28:38Z</time></trkpt>
<trkpt lat="45.80882500" lon="4.84710300"><ele>244.8000029568</ele><time>2010-07-31T07:28:41Z</time></trkpt>
<trkpt lat="45.80886300" lon="4.84715900"><ele>244.8000029568</ele><time>2010-07-31T07:28:44Z</time></trkpt>
<trkpt lat="45.80890000" lon="4.84721900"><ele>246.1000060464</ele><time>2010-07-31T07:28:48Z</time></trkpt>
<trkpt lat="45.80893800" lon="4.84726700"><ele>247.8000030528</ele><time>2010-07-31T07:28:54Z</time></trkpt>
<trkpt lat="45.80898300" lon="4.84730800"><ele>249.6000061584</ele><time>2010-07-31T07:28:59Z</time></trkpt>
<trkpt lat="45.80898800" lon="4.84737800"><ele>250.899994008</ele><time>2010-07-31T07:29:05Z</time></trkpt>
<trkpt lat="45.80898200" lon="4.84745100"><ele>251.1999970656</ele><time>2010-07-31T07:29:09Z</time></trkpt>
<trkpt lat="45.80898600" lon="4.84751600"><ele>249.899993976</ele><time>2010-07-31T07:29:12Z</time></trkpt>
<trkpt lat="45.80895300" lon="4.84756100"><ele>251.6999970816</ele><time>2010-07-31T07:29:17Z</time></trkpt>
<trkpt lat="45.80896100" lon="4.84762600"><ele>251.8000031808</ele><time>2010-07-31T07:29:25Z</time></trkpt>
<trkpt lat="45.80893600" lon="4.84770100"><ele>251.89999404</ele><time>2010-07-31T07:29:30Z</time></trkpt>
<trkpt lat="45.80893600" lon="4.84776600"><ele>252.1999970976</ele><time>2010-07-31T07:29:34Z</time></trkpt>
<trkpt lat="45.80896300" lon="4.84783000"><ele>253.300002924</ele><time>2010-07-31T07:29:39Z</time></trkpt>
<trkpt lat="45.80896500" lon="4.84789900"><ele>253.1000059656</ele><time>2010-07-31T07:29:46Z</time></trkpt>
<trkpt lat="45.80898000" lon="4.84797800"><ele>255.6999969048</ele><time>2010-07-31T07:29:52Z</time></trkpt>
<trkpt lat="45.80897100" lon="4.84804300"><ele>257.1000060936</ele><time>2010-07-31T07:29:57Z</time></trkpt>
<trkpt lat="45.80897100" lon="4.84812900"><ele>256.799987796</ele><time>2010-07-31T07:30:01Z</time></trkpt>
<trkpt lat="45.80893900" lon="4.84817900"><ele>260.299987908</ele><time>2010-07-31T07:30:24Z</time></trkpt>
<trkpt lat="45.80891700" lon="4.84823600"><ele>264.700012128</ele><time>2010-07-31T07:30:32Z</time></trkpt>
<trkpt lat="45.80892400" lon="4.84831800"><ele>264.2999877312</ele><time>2010-07-31T07:30:37Z</time></trkpt>
<trkpt lat="45.80891500" lon="4.84839000"><ele>264.4999999296</ele><time>2010-07-31T07:30:41Z</time></trkpt>
<trkpt lat="45.80890000" lon="4.84845200"><ele>267.1000061088</ele><time>2010-07-31T07:30:48Z</time></trkpt>
<trkpt lat="45.80891000" lon="4.84852100"><ele>267.8999939424</ele><time>2010-07-31T07:30:55Z</time></trkpt>
<trkpt lat="45.80887900" lon="4.84857000"><ele>266.8999939104</ele><time>2010-07-31T07:30:59Z</time></trkpt>
<trkpt lat="45.80891900" lon="4.84860700"><ele>270.200012304</ele><time>2010-07-31T07:31:06Z</time></trkpt>
<trkpt lat="45.80888400" lon="4.84866600"><ele>271.700012352</ele><time>2010-07-31T07:31:18Z</time></trkpt>
<trkpt lat="45.80888000" lon="4.84873800"><ele>269.7999879072</ele><time>2010-07-31T07:31:22Z</time></trkpt>
<trkpt lat="45.80886300" lon="4.84880400"><ele>269.6000061888</ele><time>2010-07-31T07:31:28Z</time></trkpt>
<trkpt lat="45.80883600" lon="4.84887300"><ele>269.5000000896</ele><time>2010-07-31T07:31:35Z</time></trkpt>
<trkpt lat="45.80885500" lon="4.84893800"><ele>270.200012304</ele><time>2010-07-31T07:31:41Z</time></trkpt>
<trkpt lat="45.80886200" lon="4.84900700"><ele>277.3999939416</ele><time>2010-07-31T07:31:53Z</time></trkpt>
<trkpt lat="45.80885200" lon="4.84908300"><ele>278.100006156</ele><time>2010-07-31T07:31:58Z</time></trkpt>
<trkpt lat="45.80881500" lon="4.84913600"><ele>277.100006124</ele><time>2010-07-31T07:32:00Z</time></trkpt>
<trkpt lat="45.80881100" lon="4.84921100"><ele>278.7000122712</ele><time>2010-07-31T07:32:05Z</time></trkpt>
<trkpt lat="45.80878100" lon="4.84926000"><ele>277.100006124</ele><time>2010-07-31T07:32:10Z</time></trkpt>
<trkpt lat="45.80874200" lon="4.84931000"><ele>276.600006108</ele><time>2010-07-31T07:32:14Z</time></trkpt>
<trkpt lat="45.80871500" lon="4.84936500"><ele>277.7999878584</ele><time>2010-07-31T07:32:20Z</time></trkpt>
<trkpt lat="45.80868300" lon="4.84941200"><ele>277.7000122392</ele><time>2010-07-31T07:32:26Z</time></trkpt>
<trkpt lat="45.80865200" lon="4.84946100"><ele>278.2000122552</ele><time>2010-07-31T07:32:31Z</time></trkpt>
<trkpt lat="45.80861000" lon="4.84950900"><ele>278.8999939896</ele><time>2010-07-31T07:32:37Z</time></trkpt>
<trkpt lat="45.80856700" lon="4.84954800"><ele>278.3999939736</ele><time>2010-07-31T07:32:45Z</time></trkpt>
<trkpt lat="45.80854700" lon="4.84960800"><ele>279.7999879224</ele><time>2010-07-31T07:33:01Z</time></trkpt>
<trkpt lat="45.80850300" lon="4.84964900"><ele>282.7999877136</ele><time>2010-07-31T07:33:06Z</time></trkpt>
<trkpt lat="45.80845200" lon="4.84967700"><ele>283.499999928</ele><time>2010-07-31T07:33:11Z</time></trkpt>
<trkpt lat="45.80840600" lon="4.84970800"><ele>286.2000122064</ele><time>2010-07-31T07:33:15Z</time></trkpt>
<trkpt lat="45.80838000" lon="4.84978400"><ele>285.7000121904</ele><time>2010-07-31T07:33:20Z</time></trkpt>
<trkpt lat="45.80832900" lon="4.84982300"><ele>286.000000008</ele><time>2010-07-31T07:33:23Z</time></trkpt>
<trkpt lat="45.80829000" lon="4.84987300"><ele>286.3999939248</ele><time>2010-07-31T07:33:27Z</time></trkpt>
<trkpt lat="45.80825000" lon="4.84990700"><ele>287.2999878576</ele><time>2010-07-31T07:33:30Z</time></trkpt>
<trkpt lat="45.80821700" lon="4.84995200"><ele>284.2999877616</ele><time>2010-07-31T07:33:34Z</time></trkpt>
<trkpt lat="45.80817300" lon="4.85000000"><ele>283.7000121264</ele><time>2010-07-31T07:33:38Z</time></trkpt>
<trkpt lat="45.80814700" lon="4.85006200"><ele>283.8999938448</ele><time>2010-07-31T07:33:41Z</time></trkpt>
<trkpt lat="45.80810600" lon="4.85009900"><ele>285.3999938928</ele><time>2010-07-31T07:33:46Z</time></trkpt>
<trkpt lat="45.80807300" lon="4.85015300"><ele>287.6000061552</ele><time>2010-07-31T07:33:50Z</time></trkpt>
<trkpt lat="45.80804300" lon="4.85020600"><ele>288.2999878896</ele><time>2010-07-31T07:33:53Z</time></trkpt>
<trkpt lat="45.80801100" lon="4.85026200"><ele>289.2999879216</ele><time>2010-07-31T07:33:56Z</time></trkpt>
<trkpt lat="45.80798700" lon="4.85032300"><ele>290.000000136</ele><time>2010-07-31T07:33:59Z</time></trkpt>
<trkpt lat="45.80796400" lon="4.85039900"><ele>291.6000059784</ele><time>2010-07-31T07:34:03Z</time></trkpt>
<trkpt lat="45.80794900" lon="4.85046900"><ele>292.2000120936</ele><time>2010-07-31T07:34:07Z</time></trkpt>
<trkpt lat="45.80791100" lon="4.85051600"><ele>293.4999999432</ele><time>2010-07-31T07:34:11Z</time></trkpt>
<trkpt lat="45.80788600" lon="4.85059000"><ele>295.2999878088</ele><time>2010-07-31T07:34:15Z</time></trkpt>
<trkpt lat="45.80786800" lon="4.85067200"><ele>296.1000061224</ele><time>2010-07-31T07:34:19Z</time></trkpt>
<trkpt lat="45.80784000" lon="4.85072300"><ele>297.0000000552</ele><time>2010-07-31T07:34:22Z</time></trkpt>
<trkpt lat="45.80781300" lon="4.85078700"><ele>298.0000000872</ele><time>2010-07-31T07:34:26Z</time></trkpt>
<trkpt lat="45.80777600" lon="4.85085200"><ele>298.5000001032</ele><time>2010-07-31T07:34:30Z</time></trkpt>
<trkpt lat="45.80774500" lon="4.85091200"><ele>298.89999402</ele><time>2010-07-31T07:34:34Z</time></trkpt>
<trkpt lat="45.80772800" lon="4.85098400"><ele>299.6000062344</ele><time>2010-07-31T07:34:38Z</time></trkpt>
<trkpt lat="45.80770400" lon="4.85106100"><ele>300.299987664</ele><time>2010-07-31T07:34:42Z</time></trkpt>
<trkpt lat="45.80768200" lon="4.85112100"><ele>300.79998768</ele><time>2010-07-31T07:34:45Z</time></trkpt>
<trkpt lat="45.80765800" lon="4.85118100"><ele>301.3999937952</ele><time>2010-07-31T07:34:48Z</time></trkpt>
<trkpt lat="45.80762700" lon="4.85125300"><ele>302.7000121248</ele><time>2010-07-31T07:34:52Z</time></trkpt>
<trkpt lat="45.80757500" lon="4.85128200"><ele>303.3999938592</ele><time>2010-07-31T07:34:56Z</time></trkpt>
<trkpt lat="45.80752700" lon="4.85130800"><ele>303.799987776</ele><time>2010-07-31T07:34:59Z</time></trkpt>
<trkpt lat="45.80748100" lon="4.85135200"><ele>303.8999938752</ele><time>2010-07-31T07:35:02Z</time></trkpt>
<trkpt lat="45.80743500" lon="4.85139700"><ele>304.299987792</ele><time>2010-07-31T07:35:05Z</time></trkpt>
<trkpt lat="45.80740100" lon="4.85144600"><ele>304.2000121728</ele><time>2010-07-31T07:35:07Z</time></trkpt>
<trkpt lat="45.80738800" lon="4.85151200"><ele>304.299987792</ele><time>2010-07-31T07:35:09Z</time></trkpt>
<trkpt lat="45.80738700" lon="4.85158300"><ele>303.6000060576</ele><time>2010-07-31T07:35:11Z</time></trkpt>
<trkpt lat="45.80737400" lon="4.85165600"><ele>303.799987776</ele><time>2010-07-31T07:35:13Z</time></trkpt>
<trkpt lat="45.80737400" lon="4.85173600"><ele>303.3999938592</ele><time>2010-07-31T07:35:15Z</time></trkpt>
<trkpt lat="45.80736000" lon="4.85180500"><ele>303.799987776</ele><time>2010-07-31T07:35:17Z</time></trkpt>
<trkpt lat="45.80734700" lon="4.85187400"><ele>303.799987776</ele><time>2010-07-31T07:35:19Z</time></trkpt>
<trkpt lat="45.80732000" lon="4.85196800"><ele>304.1000060736</ele><time>2010-07-31T07:35:22Z</time></trkpt>
<trkpt lat="45.80730800" lon="4.85205700"><ele>304.2000121728</ele><time>2010-07-31T07:35:24Z</time></trkpt>
<trkpt lat="45.80729500" lon="4.85213800"><ele>303.4999999584</ele><time>2010-07-31T07:35:26Z</time></trkpt>
<trkpt lat="45.80727300" lon="4.85221100"><ele>303.3999938592</ele><time>2010-07-31T07:35:28Z</time></trkpt>
<trkpt lat="45.80725400" lon="4.85228200"><ele>303.1000060416</ele><time>2010-07-31T07:35:30Z</time></trkpt>
<trkpt lat="45.80723600" lon="4.85235900"><ele>302.9999999424</ele><time>2010-07-31T07:35:32Z</time></trkpt>
<trkpt lat="45.80722800" lon="4.85244100"><ele>302.1000060096</ele><time>2010-07-31T07:35:34Z</time></trkpt>
<trkpt lat="45.80721200" lon="4.85250800"><ele>301.7000120928</ele><time>2010-07-31T07:35:36Z</time></trkpt>
<trkpt lat="45.80720100" lon="4.85257900"><ele>301.799987712</ele><time>2010-07-31T07:35:38Z</time></trkpt>
<trkpt lat="45.80718200" lon="4.85265900"><ele>301.7000120928</ele><time>2010-07-31T07:35:40Z</time></trkpt>
<trkpt lat="45.80714700" lon="4.85272400"><ele>301.4999998944</ele><time>2010-07-31T07:35:42Z</time></trkpt>
<trkpt lat="45.80711300" lon="4.85277600"><ele>302.9999999424</ele><time>2010-07-31T07:35:44Z</time></trkpt>
<trkpt lat="45.80709500" lon="4.85286200"><ele>302.3999938272</ele><time>2010-07-31T07:35:46Z</time></trkpt>
<trkpt lat="45.80707500" lon="4.85295500"><ele>302.1000060096</ele><time>2010-07-31T07:35:48Z</time></trkpt>
<trkpt lat="45.80706400" lon="4.85304500"><ele>302.4999999264</ele><time>2010-07-31T07:35:50Z</time></trkpt>
<trkpt lat="45.80704400" lon="4.85312700"><ele>302.3999938272</ele><time>2010-07-31T07:35:52Z</time></trkpt>
<trkpt lat="45.80702000" lon="4.85320000"><ele>300.6000059616</ele><time>2010-07-31T07:35:54Z</time></trkpt>
<trkpt lat="45.80699800" lon="4.85329000"><ele>300.79998768</ele><time>2010-07-31T07:35:56Z</time></trkpt>
<trkpt lat="45.80697400" lon="4.85337900"><ele>300.7000120608</ele><time>2010-07-31T07:35:58Z</time></trkpt>
<trkpt lat="45.80695000" lon="4.85346600"><ele>301.1000059776</ele><time>2010-07-31T07:36:00Z</time></trkpt>
<trkpt lat="45.80692700" lon="4.85354400"><ele>301.1000059776</ele><time>2010-07-31T07:36:02Z</time></trkpt>
<trkpt lat="45.80690900" lon="4.85363900"><ele>301.3999937952</ele><time>2010-07-31T07:36:04Z</time></trkpt>
<trkpt lat="45.80689100" lon="4.85373700"><ele>301.4999998944</ele><time>2010-07-31T07:36:06Z</time></trkpt>
<trkpt lat="45.80687100" lon="4.85383900"><ele>301.4999998944</ele><time>2010-07-31T07:36:08Z</time></trkpt>
<trkpt lat="45.80684900" lon="4.85393200"><ele>301.4999998944</ele><time>2010-07-31T07:36:10Z</time></trkpt>
<trkpt lat="45.80682900" lon="4.85402000"><ele>301.6000059936</ele><time>2010-07-31T07:36:12Z</time></trkpt>
<trkpt lat="45.80680800" lon="4.85409900"><ele>301.7000120928</ele><time>2010-07-31T07:36:14Z</time></trkpt>
<trkpt lat="45.80679100" lon="4.85419300"><ele>301.6000059936</ele><time>2010-07-31T07:36:16Z</time></trkpt>
<trkpt lat="45.80677400" lon="4.85428500"><ele>302.2000121088</ele><time>2010-07-31T07:36:18Z</time></trkpt>
<trkpt lat="45.80675300" lon="4.85436400"><ele>302.9999999424</ele><time>2010-07-31T07:36:20Z</time></trkpt>
<trkpt lat="45.80673200" lon="4.85444600"><ele>302.4999999264</ele><time>2010-07-31T07:36:22Z</time></trkpt>
<trkpt lat="45.80670800" lon="4.85451300"><ele>303.3999938592</ele><time>2010-07-31T07:36:24Z</time></trkpt>
<trkpt lat="45.80668700" lon="4.85457300"><ele>303.6000060576</ele><time>2010-07-31T07:36:26Z</time></trkpt>
<trkpt lat="45.80665900" lon="4.85463400"><ele>304.299987792</ele><time>2010-07-31T07:36:28Z</time></trkpt>
<trkpt lat="45.80663600" lon="4.85469800"><ele>304.2000121728</ele><time>2010-07-31T07:36:30Z</time></trkpt>
<trkpt lat="45.80662400" lon="4.85477400"><ele>304.3999938912</ele><time>2010-07-31T07:36:34Z</time></trkpt>
<trkpt lat="45.80666300" lon="4.85482100"><ele>305.79998784</ele><time>2010-07-31T07:36:39Z</time></trkpt>
<trkpt lat="45.80664300" lon="4.85488800"><ele>306.3999939552</ele><time>2010-07-31T07:36:52Z</time></trkpt>
<trkpt lat="45.80666100" lon="4.85497600"><ele>306.8999939712</ele><time>2010-07-31T07:36:54Z</time></trkpt>
<trkpt lat="45.80668600" lon="4.85505200"><ele>307.0000000704</ele><time>2010-07-31T07:36:57Z</time></trkpt>
<trkpt lat="45.80672600" lon="4.85509600"><ele>306.5000000544</ele><time>2010-07-31T07:36:59Z</time></trkpt>
<trkpt lat="45.80676800" lon="4.85514400"><ele>306.1000061376</ele><time>2010-07-31T07:37:01Z</time></trkpt>
<trkpt lat="45.80681300" lon="4.85518800"><ele>305.79998784</ele><time>2010-07-31T07:37:03Z</time></trkpt>
<trkpt lat="45.80687200" lon="4.85524400"><ele>306.299987856</ele><time>2010-07-31T07:37:06Z</time></trkpt>
<trkpt lat="45.80692300" lon="4.85529900"><ele>306.5000000544</ele><time>2010-07-31T07:37:08Z</time></trkpt>
<trkpt lat="45.80696800" lon="4.85534700"><ele>306.2000122368</ele><time>2010-07-31T07:37:10Z</time></trkpt>
<trkpt lat="45.80700200" lon="4.85540400"><ele>306.799987872</ele><time>2010-07-31T07:37:12Z</time></trkpt>
<trkpt lat="45.80705000" lon="4.85545700"><ele>307.2000122688</ele><time>2010-07-31T07:37:14Z</time></trkpt>
<trkpt lat="45.80709100" lon="4.85548500"><ele>306.8999939712</ele><time>2010-07-31T07:37:15Z</time></trkpt>
<trkpt lat="45.80714600" lon="4.85550300"><ele>307.799987904</ele><time>2010-07-31T07:37:17Z</time></trkpt>
<trkpt lat="45.80719200" lon="4.85553700"><ele>307.7000122848</ele><time>2010-07-31T07:37:19Z</time></trkpt>
<trkpt lat="45.80723500" lon="4.85555700"><ele>309.2000123328</ele><time>2010-07-31T07:37:22Z</time></trkpt>
<trkpt lat="45.80730400" lon="4.85561100"><ele>311.1000059928</ele><time>2010-07-31T07:37:25Z</time></trkpt>
<trkpt lat="45.80737000" lon="4.85566900"><ele>311.8999938264</ele><time>2010-07-31T07:37:27Z</time></trkpt>
<trkpt lat="45.80743300" lon="4.85570900"><ele>312.3999938424</ele><time>2010-07-31T07:37:29Z</time></trkpt>
<trkpt lat="45.80749200" lon="4.85576600"><ele>310.700012076</ele><time>2010-07-31T07:37:31Z</time></trkpt>
<trkpt lat="45.80753900" lon="4.85580700"><ele>309.2000123328</ele><time>2010-07-31T07:37:33Z</time></trkpt>
<trkpt lat="45.80758800" lon="4.85588200"><ele>307.299987888</ele><time>2010-07-31T07:37:35Z</time></trkpt>
<trkpt lat="45.80763800" lon="4.85594600"><ele>307.0000000704</ele><time>2010-07-31T07:37:37Z</time></trkpt>
<trkpt lat="45.80769100" lon="4.85601200"><ele>307.299987888</ele><time>2010-07-31T07:37:39Z</time></trkpt>
<trkpt lat="45.80769900" lon="4.85609000"><ele>306.799987872</ele><time>2010-07-31T07:37:41Z</time></trkpt>
<trkpt lat="45.80769600" lon="4.85617900"><ele>306.6000061536</ele><time>2010-07-31T07:37:43Z</time></trkpt>
<trkpt lat="45.80769300" lon="4.85626600"><ele>306.3999939552</ele><time>2010-07-31T07:37:45Z</time></trkpt>
<trkpt lat="45.80765600" lon="4.85632500"><ele>306.7000122528</ele><time>2010-07-31T07:37:47Z</time></trkpt>
<trkpt lat="45.80763900" lon="4.85639700"><ele>307.2000122688</ele><time>2010-07-31T07:37:49Z</time></trkpt>
<trkpt lat="45.80762800" lon="4.85646300"><ele>308.1000062016</ele><time>2010-07-31T07:37:51Z</time></trkpt>
<trkpt lat="45.80761600" lon="4.85652600"><ele>309.0000001344</ele><time>2010-07-31T07:37:53Z</time></trkpt>
<trkpt lat="45.80760700" lon="4.85659200"><ele>309.9999998616</ele><time>2010-07-31T07:37:55Z</time></trkpt>
<trkpt lat="45.80759600" lon="4.85666500"><ele>310.7999876952</ele><time>2010-07-31T07:37:57Z</time></trkpt>
<trkpt lat="45.80758000" lon="4.85673200"><ele>310.8999937944</ele><time>2010-07-31T07:37:59Z</time></trkpt>
<trkpt lat="45.80756400" lon="4.85680200"><ele>311.1000059928</ele><time>2010-07-31T07:38:01Z</time></trkpt>
<trkpt lat="45.80753200" lon="4.85686700"><ele>311.200012092</ele><time>2010-07-31T07:38:03Z</time></trkpt>
<trkpt lat="45.80748900" lon="4.85691800"><ele>311.4999999096</ele><time>2010-07-31T07:38:05Z</time></trkpt>
<trkpt lat="45.80744900" lon="4.85697700"><ele>311.7999877272</ele><time>2010-07-31T07:38:07Z</time></trkpt>
<trkpt lat="45.80739900" lon="4.85702600"><ele>311.9999999256</ele><time>2010-07-31T07:38:09Z</time></trkpt>
<trkpt lat="45.80733800" lon="4.85705800"><ele>312.1000060248</ele><time>2010-07-31T07:38:11Z</time></trkpt>
<trkpt lat="45.80727600" lon="4.85707100"><ele>312.200012124</ele><time>2010-07-31T07:38:13Z</time></trkpt>
<trkpt lat="45.80722900" lon="4.85706600"><ele>311.6000060088</ele><time>2010-07-31T07:38:15Z</time></trkpt>
<trkpt lat="45.80716700" lon="4.85708600"><ele>312.2999877432</ele><time>2010-07-31T07:38:17Z</time></trkpt>
<trkpt lat="45.80710100" lon="4.85708600"><ele>313.200012156</ele><time>2010-07-31T07:38:19Z</time></trkpt>
<trkpt lat="45.80703000" lon="4.85706400"><ele>313.200012156</ele><time>2010-07-31T07:38:22Z</time></trkpt>
<trkpt lat="45.80697000" lon="4.85706600"><ele>313.7999877912</ele><time>2010-07-31T07:38:24Z</time></trkpt>
<trkpt lat="45.80690400" lon="4.85706200"><ele>313.700012172</ele><time>2010-07-31T07:38:26Z</time></trkpt>
<trkpt lat="45.80683400" lon="4.85706900"><ele>313.6000060728</ele><time>2010-07-31T07:38:28Z</time></trkpt>
<trkpt lat="45.80678100" lon="4.85714200"><ele>312.9999999576</ele><time>2010-07-31T07:38:30Z</time></trkpt>
<trkpt lat="45.80673100" lon="4.85721300"><ele>312.7999877592</ele><time>2010-07-31T07:38:32Z</time></trkpt>
<trkpt lat="45.80668600" lon="4.85727500"><ele>313.1000060568</ele><time>2010-07-31T07:38:34Z</time></trkpt>
<trkpt lat="45.80665200" lon="4.85737100"><ele>314.200012188</ele><time>2010-07-31T07:38:36Z</time></trkpt>
<trkpt lat="45.80662300" lon="4.85745100"><ele>313.7999877912</ele><time>2010-07-31T07:38:38Z</time></trkpt>
<trkpt lat="45.80659700" lon="4.85752200"><ele>313.700012172</ele><time>2010-07-31T07:38:40Z</time></trkpt>
<trkpt lat="45.80655900" lon="4.85756200"><ele>314.2999878072</ele><time>2010-07-31T07:38:44Z</time></trkpt>
<trkpt lat="45.80650200" lon="4.85755500"><ele>313.200012156</ele><time>2010-07-31T07:38:48Z</time></trkpt>
<trkpt lat="45.80644800" lon="4.85755900"><ele>312.200012124</ele><time>2010-07-31T07:38:51Z</time></trkpt>
<trkpt lat="45.80640200" lon="4.85756200"><ele>310.1000059608</ele><time>2010-07-31T07:39:18Z</time></trkpt>
<trkpt lat="45.80635000" lon="4.85754600"><ele>308.6000062176</ele><time>2010-07-31T07:39:32Z</time></trkpt>
<trkpt lat="45.80630600" lon="4.85752900"><ele>308.3999940192</ele><time>2010-07-31T07:39:33Z</time></trkpt>
<trkpt lat="45.80624600" lon="4.85751200"><ele>308.0000001024</ele><time>2010-07-31T07:39:34Z</time></trkpt>
<trkpt lat="45.80618600" lon="4.85746100"><ele>307.799987904</ele><time>2010-07-31T07:39:36Z</time></trkpt>
<trkpt lat="45.80612400" lon="4.85741300"><ele>307.6000061856</ele><time>2010-07-31T07:39:38Z</time></trkpt>
<trkpt lat="45.80606800" lon="4.85735500"><ele>307.8999940032</ele><time>2010-07-31T07:39:40Z</time></trkpt>
<trkpt lat="45.80599000" lon="4.85733500"><ele>307.7000122848</ele><time>2010-07-31T07:39:42Z</time></trkpt>
<trkpt lat="45.80594800" lon="4.85729400"><ele>308.6000062176</ele><time>2010-07-31T07:39:43Z</time></trkpt>
<trkpt lat="45.80587900" lon="4.85725000"><ele>309.5000001504</ele><time>2010-07-31T07:39:45Z</time></trkpt>
<trkpt lat="45.80583500" lon="4.85721900"><ele>309.2999876472</ele><time>2010-07-31T07:39:46Z</time></trkpt>
<trkpt lat="45.80579400" lon="4.85718600"><ele>308.799987936</ele><time>2010-07-31T07:39:47Z</time></trkpt>
<trkpt lat="45.80570700" lon="4.85713200"><ele>308.29998792</ele><time>2010-07-31T07:39:49Z</time></trkpt>
<trkpt lat="45.80566400" lon="4.85709500"><ele>308.6000062176</ele><time>2010-07-31T07:39:50Z</time></trkpt>
<trkpt lat="45.80562200" lon="4.85706700"><ele>308.5000001184</ele><time>2010-07-31T07:39:51Z</time></trkpt>
<trkpt lat="45.80558200" lon="4.85703200"><ele>307.799987904</ele><time>2010-07-31T07:39:52Z</time></trkpt>
<trkpt lat="45.80554200" lon="4.85699400"><ele>306.7000122528</ele><time>2010-07-31T07:39:53Z</time></trkpt>
<trkpt lat="45.80547100" lon="4.85691900"><ele>306.8999939712</ele><time>2010-07-31T07:39:55Z</time></trkpt>
<trkpt lat="45.80542700" lon="4.85688400"><ele>306.5000000544</ele><time>2010-07-31T07:39:56Z</time></trkpt>
<trkpt lat="45.80538600" lon="4.85684300"><ele>306.299987856</ele><time>2010-07-31T07:39:57Z</time></trkpt>
<trkpt lat="45.80534000" lon="4.85681400"><ele>306.1000061376</ele><time>2010-07-31T07:39:58Z</time></trkpt>
<trkpt lat="45.80529100" lon="4.85677400"><ele>306.299987856</ele><time>2010-07-31T07:39:59Z</time></trkpt>
<trkpt lat="45.80522900" lon="4.85673800"><ele>306.2000122368</ele><time>2010-07-31T07:40:00Z</time></trkpt>
<trkpt lat="45.80515200" lon="4.85667800"><ele>307.1000061696</ele><time>2010-07-31T07:40:02Z</time></trkpt>
<trkpt lat="45.80509700" lon="4.85664200"><ele>306.2000122368</ele><time>2010-07-31T07:40:03Z</time></trkpt>
<trkpt lat="45.80504200" lon="4.85660600"><ele>306.2000122368</ele><time>2010-07-31T07:40:04Z</time></trkpt>
<trkpt lat="45.80498900" lon="4.85657600"><ele>306.2000122368</ele><time>2010-07-31T07:40:05Z</time></trkpt>
<trkpt lat="45.80493300" lon="4.85654100"><ele>306.299987856</ele><time>2010-07-31T07:40:06Z</time></trkpt>
<trkpt lat="45.80489000" lon="4.85650400"><ele>307.0000000704</ele><time>2010-07-31T07:40:07Z</time></trkpt>
<trkpt lat="45.80483300" lon="4.85646700"><ele>306.6000061536</ele><time>2010-07-31T07:40:08Z</time></trkpt>
<trkpt lat="45.80478100" lon="4.85643400"><ele>307.0000000704</ele><time>2010-07-31T07:40:09Z</time></trkpt>
<trkpt lat="45.80473600" lon="4.85639800"><ele>306.6000061536</ele><time>2010-07-31T07:40:10Z</time></trkpt>
<trkpt lat="45.80468400" lon="4.85635700"><ele>306.0000000384</ele><time>2010-07-31T07:40:11Z</time></trkpt>
<trkpt lat="45.80463100" lon="4.85631900"><ele>305.7000122208</ele><time>2010-07-31T07:40:12Z</time></trkpt>
<trkpt lat="45.80457400" lon="4.85629000"><ele>306.1000061376</ele><time>2010-07-31T07:40:13Z</time></trkpt>
<trkpt lat="45.80452300" lon="4.85624700"><ele>305.8999939392</ele><time>2010-07-31T07:40:14Z</time></trkpt>
<trkpt lat="45.80447600" lon="4.85620500"><ele>305.8999939392</ele><time>2010-07-31T07:40:15Z</time></trkpt>
<trkpt lat="45.80442200" lon="4.85616900"><ele>305.6000061216</ele><time>2010-07-31T07:40:16Z</time></trkpt>
<trkpt lat="45.80436300" lon="4.85613300"><ele>305.7000122208</ele><time>2010-07-31T07:40:17Z</time></trkpt>
<trkpt lat="45.80431200" lon="4.85610200"><ele>305.2000122048</ele><time>2010-07-31T07:40:18Z</time></trkpt>
<trkpt lat="45.80425700" lon="4.85605200"><ele>305.2000122048</ele><time>2010-07-31T07:40:19Z</time></trkpt>
<trkpt lat="45.80420300" lon="4.85601000"><ele>304.8999939072</ele><time>2010-07-31T07:40:20Z</time></trkpt>
<trkpt lat="45.80415200" lon="4.85596800"><ele>305.0000000064</ele><time>2010-07-31T07:40:21Z</time></trkpt>
<trkpt lat="45.80409400" lon="4.85592500"><ele>305.0000000064</ele><time>2010-07-31T07:40:22Z</time></trkpt>
<trkpt lat="45.80403700" lon="4.85587600"><ele>305.0000000064</ele><time>2010-07-31T07:40:23Z</time></trkpt>
<trkpt lat="45.80397700" lon="4.85583100"><ele>304.7000121888</ele><time>2010-07-31T07:40:24Z</time></trkpt>
<trkpt lat="45.80392200" lon="4.85578700"><ele>305.0000000064</ele><time>2010-07-31T07:40:25Z</time></trkpt>
<trkpt lat="45.80387500" lon="4.85573400"><ele>305.0000000064</ele><time>2010-07-31T07:40:26Z</time></trkpt>
<trkpt lat="45.80381300" lon="4.85568500"><ele>305.2000122048</ele><time>2010-07-31T07:40:27Z</time></trkpt>
<trkpt lat="45.80375900" lon="4.85564700"><ele>305.299987824</ele><time>2010-07-31T07:40:28Z</time></trkpt>
<trkpt lat="45.80370900" lon="4.85559800"><ele>305.0000000064</ele><time>2010-07-31T07:40:29Z</time></trkpt>
<trkpt lat="45.80363300" lon="4.85555700"><ele>304.8999939072</ele><time>2010-07-31T07:40:30Z</time></trkpt>
<trkpt lat="45.80360400" lon="4.85550500"><ele>305.299987824</ele><time>2010-07-31T07:40:31Z</time></trkpt>
<trkpt lat="45.80355300" lon="4.85545400"><ele>305.3999939232</ele><time>2010-07-31T07:40:32Z</time></trkpt>
<trkpt lat="45.80349300" lon="4.85542000"><ele>305.0000000064</ele><time>2010-07-31T07:40:33Z</time></trkpt>
<trkpt lat="45.80342000" lon="4.85539200"><ele>305.0000000064</ele><time>2010-07-31T07:40:34Z</time></trkpt>
<trkpt lat="45.80336200" lon="4.85534700"><ele>304.799987808</ele><time>2010-07-31T07:40:35Z</time></trkpt>
<trkpt lat="45.80329100" lon="4.85533300"><ele>304.799987808</ele><time>2010-07-31T07:40:36Z</time></trkpt>
<trkpt lat="45.80324400" lon="4.85529300"><ele>304.799987808</ele><time>2010-07-31T07:40:37Z</time></trkpt>
<trkpt lat="45.80316200" lon="4.85522400"><ele>305.2000122048</ele><time>2010-07-31T07:40:39Z</time></trkpt>
<trkpt lat="45.80310800" lon="4.85518300"><ele>305.3999939232</ele><time>2010-07-31T07:40:40Z</time></trkpt>
<trkpt lat="45.80306100" lon="4.85514300"><ele>305.299987824</ele><time>2010-07-31T07:40:41Z</time></trkpt>
<trkpt lat="45.80301600" lon="4.85510300"><ele>305.2000122048</ele><time>2010-07-31T07:40:42Z</time></trkpt>
<trkpt lat="45.80297200" lon="4.85506700"><ele>304.8999939072</ele><time>2010-07-31T07:40:43Z</time></trkpt>
<trkpt lat="45.80292300" lon="4.85503000"><ele>304.7000121888</ele><time>2010-07-31T07:40:44Z</time></trkpt>
<trkpt lat="45.80287400" lon="4.85499200"><ele>304.3999938912</ele><time>2010-07-31T07:40:45Z</time></trkpt>
<trkpt lat="45.80281600" lon="4.85495500"><ele>303.6000060576</ele><time>2010-07-31T07:40:46Z</time></trkpt>
<trkpt lat="45.80277800" lon="4.85491200"><ele>303.29998776</ele><time>2010-07-31T07:40:47Z</time></trkpt>
<trkpt lat="45.80272600" lon="4.85487200"><ele>303.2000121408</ele><time>2010-07-31T07:40:48Z</time></trkpt>
<trkpt lat="45.80267000" lon="4.85483600"><ele>302.4999999264</ele><time>2010-07-31T07:40:49Z</time></trkpt>
<trkpt lat="45.80262300" lon="4.85480400"><ele>302.2000121088</ele><time>2010-07-31T07:40:50Z</time></trkpt>
<trkpt lat="45.80257200" lon="4.85476700"><ele>301.9999999104</ele><time>2010-07-31T07:40:51Z</time></trkpt>
<trkpt lat="45.80252400" lon="4.85473300"><ele>302.6000060256</ele><time>2010-07-31T07:40:52Z</time></trkpt>
<trkpt lat="45.80247600" lon="4.85469300"><ele>302.3999938272</ele><time>2010-07-31T07:40:53Z</time></trkpt>
<trkpt lat="45.80242800" lon="4.85465600"><ele>302.9999999424</ele><time>2010-07-31T07:40:54Z</time></trkpt>
<trkpt lat="45.80237400" lon="4.85462000"><ele>303.29998776</ele><time>2010-07-31T07:40:55Z</time></trkpt>
<trkpt lat="45.80233000" lon="4.85458000"><ele>302.8999938432</ele><time>2010-07-31T07:40:56Z</time></trkpt>
<trkpt lat="45.80228400" lon="4.85454000"><ele>302.6000060256</ele><time>2010-07-31T07:40:57Z</time></trkpt>
<trkpt lat="45.80223900" lon="4.85450600"><ele>302.4999999264</ele><time>2010-07-31T07:40:58Z</time></trkpt>
<trkpt lat="45.80219500" lon="4.85447100"><ele>302.4999999264</ele><time>2010-07-31T07:40:59Z</time></trkpt>
<trkpt lat="45.80211500" lon="4.85439400"><ele>302.7000121248</ele><time>2010-07-31T07:41:01Z</time></trkpt>
<trkpt lat="45.80206400" lon="4.85435800"><ele>302.6000060256</ele><time>2010-07-31T07:41:02Z</time></trkpt>
<trkpt lat="45.80197300" lon="4.85429100"><ele>302.7000121248</ele><time>2010-07-31T07:41:04Z</time></trkpt>
<trkpt lat="45.80187300" lon="4.85422400"><ele>302.6000060256</ele><time>2010-07-31T07:41:06Z</time></trkpt>
<trkpt lat="45.80183700" lon="4.85417200"><ele>302.3999938272</ele><time>2010-07-31T07:41:07Z</time></trkpt>
<trkpt lat="45.80178500" lon="4.85415300"><ele>302.6000060256</ele><time>2010-07-31T07:41:08Z</time></trkpt>
<trkpt lat="45.80170800" lon="4.85408000"><ele>303.6000060576</ele><time>2010-07-31T07:41:10Z</time></trkpt>
<trkpt lat="45.80165500" lon="4.85405200"><ele>302.8999938432</ele><time>2010-07-31T07:41:11Z</time></trkpt>
<trkpt lat="45.80160700" lon="4.85402000"><ele>302.8999938432</ele><time>2010-07-31T07:41:12Z</time></trkpt>
<trkpt lat="45.80156400" lon="4.85399100"><ele>302.7000121248</ele><time>2010-07-31T07:41:13Z</time></trkpt>
<trkpt lat="45.80148000" lon="4.85392300"><ele>303.799987776</ele><time>2010-07-31T07:41:15Z</time></trkpt>
<trkpt lat="45.80142600" lon="4.85388600"><ele>303.7000121568</ele><time>2010-07-31T07:41:16Z</time></trkpt>
<trkpt lat="45.80138500" lon="4.85384500"><ele>303.29998776</ele><time>2010-07-31T07:41:17Z</time></trkpt>
<trkpt lat="45.80135000" lon="4.85379200"><ele>303.2000121408</ele><time>2010-07-31T07:41:18Z</time></trkpt>
<trkpt lat="45.80131700" lon="4.85374100"><ele>303.3999938592</ele><time>2010-07-31T07:41:19Z</time></trkpt>
<trkpt lat="45.80127900" lon="4.85370400"><ele>303.6000060576</ele><time>2010-07-31T07:41:20Z</time></trkpt>
<trkpt lat="45.80121300" lon="4.85362700"><ele>303.799987776</ele><time>2010-07-31T07:41:22Z</time></trkpt>
<trkpt lat="45.80117500" lon="4.85358900"><ele>303.6000060576</ele><time>2010-07-31T07:41:23Z</time></trkpt>
<trkpt lat="45.80110200" lon="4.85352900"><ele>304.3999938912</ele><time>2010-07-31T07:41:25Z</time></trkpt>
<trkpt lat="45.80102900" lon="4.85347100"><ele>304.6000060896</ele><time>2010-07-31T07:41:27Z</time></trkpt>
<trkpt lat="45.80096800" lon="4.85345100"><ele>304.8999939072</ele><time>2010-07-31T07:41:29Z</time></trkpt>
<trkpt lat="45.80092900" lon="4.85341700"><ele>304.8999939072</ele><time>2010-07-31T07:41:31Z</time></trkpt>
<trkpt lat="45.80088500" lon="4.85337400"><ele>303.8999938752</ele><time>2010-07-31T07:41:33Z</time></trkpt>
<trkpt lat="45.80083700" lon="4.85333700"><ele>303.7000121568</ele><time>2010-07-31T07:41:35Z</time></trkpt>
<trkpt lat="45.80078700" lon="4.85329200"><ele>302.9999999424</ele><time>2010-07-31T07:41:37Z</time></trkpt>
<trkpt lat="45.80075500" lon="4.85323700"><ele>302.299987728</ele><time>2010-07-31T07:41:39Z</time></trkpt>
<trkpt lat="45.80071600" lon="4.85317100"><ele>301.9999999104</ele><time>2010-07-31T07:41:41Z</time></trkpt>
<trkpt lat="45.80065300" lon="4.85310400"><ele>301.8999938112</ele><time>2010-07-31T07:41:43Z</time></trkpt>
<trkpt lat="45.80058400" lon="4.85302600"><ele>302.1000060096</ele><time>2010-07-31T07:41:45Z</time></trkpt>
<trkpt lat="45.80051500" lon="4.85294600"><ele>302.3999938272</ele><time>2010-07-31T07:41:47Z</time></trkpt>
<trkpt lat="45.80047300" lon="4.85290600"><ele>302.4999999264</ele><time>2010-07-31T07:41:48Z</time></trkpt>
<trkpt lat="45.80043600" lon="4.85286500"><ele>302.4999999264</ele><time>2010-07-31T07:41:49Z</time></trkpt>
<trkpt lat="45.80039900" lon="4.85282200"><ele>302.3999938272</ele><time>2010-07-31T07:41:50Z</time></trkpt>
<trkpt lat="45.80036100" lon="4.85278000"><ele>302.299987728</ele><time>2010-07-31T07:41:51Z</time></trkpt>
<trkpt lat="45.80032000" lon="4.85273800"><ele>302.2000121088</ele><time>2010-07-31T07:41:52Z</time></trkpt>
<trkpt lat="45.80028200" lon="4.85269100"><ele>301.8999938112</ele><time>2010-07-31T07:41:53Z</time></trkpt>
<trkpt lat="45.80020200" lon="4.85261100"><ele>301.9999999104</ele><time>2010-07-31T07:41:55Z</time></trkpt>
<trkpt lat="45.80016100" lon="4.85257100"><ele>301.8999938112</ele><time>2010-07-31T07:41:56Z</time></trkpt>
<trkpt lat="45.80012200" lon="4.85252700"><ele>301.8999938112</ele><time>2010-07-31T07:41:57Z</time></trkpt>
<trkpt lat="45.80008200" lon="4.85248300"><ele>301.8999938112</ele><time>2010-07-31T07:41:58Z</time></trkpt>
<trkpt lat="45.80004200" lon="4.85244200"><ele>301.7000120928</ele><time>2010-07-31T07:41:59Z</time></trkpt>
<trkpt lat="45.80000400" lon="4.85239800"><ele>301.9999999104</ele><time>2010-07-31T07:42:00Z</time></trkpt>
<trkpt lat="45.79997000" lon="4.85234800"><ele>302.1000060096</ele><time>2010-07-31T07:42:01Z</time></trkpt>
<trkpt lat="45.79993500" lon="4.85230000"><ele>302.1000060096</ele><time>2010-07-31T07:42:02Z</time></trkpt>
<trkpt lat="45.79989600" lon="4.85224600"><ele>302.1000060096</ele><time>2010-07-31T07:42:03Z</time></trkpt>
<trkpt lat="45.79985400" lon="4.85220000"><ele>302.2000121088</ele><time>2010-07-31T07:42:04Z</time></trkpt>
<trkpt lat="45.79981100" lon="4.85215500"><ele>301.9999999104</ele><time>2010-07-31T07:42:05Z</time></trkpt>
<trkpt lat="45.79977200" lon="4.85210900"><ele>302.1000060096</ele><time>2010-07-31T07:42:06Z</time></trkpt>
<trkpt lat="45.79973400" lon="4.85206300"><ele>301.9999999104</ele><time>2010-07-31T07:42:07Z</time></trkpt>
<trkpt lat="45.79969500" lon="4.85201300"><ele>301.4999998944</ele><time>2010-07-31T07:42:08Z</time></trkpt>
<trkpt lat="45.79965600" lon="4.85197000"><ele>301.3999937952</ele><time>2010-07-31T07:42:09Z</time></trkpt>
<trkpt lat="45.79961900" lon="4.85193200"><ele>301.2000120768</ele><time>2010-07-31T07:42:10Z</time></trkpt>
<trkpt lat="45.79958700" lon="4.85188600"><ele>300.9999998784</ele><time>2010-07-31T07:42:11Z</time></trkpt>
<trkpt lat="45.79954700" lon="4.85184900"><ele>300.7000120608</ele><time>2010-07-31T07:42:12Z</time></trkpt>
<trkpt lat="45.79951200" lon="4.85180400"><ele>300.6000059616</ele><time>2010-07-31T07:42:13Z</time></trkpt>
<trkpt lat="45.79947900" lon="4.85175800"><ele>300.8999937792</ele><time>2010-07-31T07:42:14Z</time></trkpt>
<trkpt lat="45.79944600" lon="4.85171200"><ele>300.7000120608</ele><time>2010-07-31T07:42:15Z</time></trkpt>
<trkpt lat="45.79941100" lon="4.85166500"><ele>300.299987664</ele><time>2010-07-31T07:42:16Z</time></trkpt>
<trkpt lat="45.79937900" lon="4.85161900"><ele>300.0000001512</ele><time>2010-07-31T07:42:17Z</time></trkpt>
<trkpt lat="45.79931800" lon="4.85152600"><ele>299.799987648</ele><time>2010-07-31T07:42:19Z</time></trkpt>
<trkpt lat="45.79926200" lon="4.85143400"><ele>299.5000001352</ele><time>2010-07-31T07:42:21Z</time></trkpt>
<trkpt lat="45.79922700" lon="4.85139200"><ele>299.7000123336</ele><time>2010-07-31T07:42:22Z</time></trkpt>
<trkpt lat="45.79916600" lon="4.85131300"><ele>300.1000062504</ele><time>2010-07-31T07:42:24Z</time></trkpt>
<trkpt lat="45.79910600" lon="4.85123700"><ele>300.7000120608</ele><time>2010-07-31T07:42:26Z</time></trkpt>
<trkpt lat="45.79906600" lon="4.85119100"><ele>300.6000059616</ele><time>2010-07-31T07:42:27Z</time></trkpt>
<trkpt lat="45.79902700" lon="4.85114900"><ele>300.299987664</ele><time>2010-07-31T07:42:28Z</time></trkpt>
<trkpt lat="45.79899300" lon="4.85110200"><ele>300.3999937632</ele><time>2010-07-31T07:42:29Z</time></trkpt>
<trkpt lat="45.79895600" lon="4.85105300"><ele>300.4999998624</ele><time>2010-07-31T07:42:30Z</time></trkpt>
<trkpt lat="45.79891500" lon="4.85101200"><ele>300.3999937632</ele><time>2010-07-31T07:42:31Z</time></trkpt>
<trkpt lat="45.79887400" lon="4.85096400"><ele>300.3999937632</ele><time>2010-07-31T07:42:32Z</time></trkpt>
<trkpt lat="45.79883800" lon="4.85091200"><ele>300.299987664</ele><time>2010-07-31T07:42:33Z</time></trkpt>
<trkpt lat="45.79880300" lon="4.85086400"><ele>300.2000123496</ele><time>2010-07-31T07:42:34Z</time></trkpt>
<trkpt lat="45.79876500" lon="4.85080500"><ele>300.1000062504</ele><time>2010-07-31T07:42:35Z</time></trkpt>
<trkpt lat="45.79872800" lon="4.85075600"><ele>299.799987648</ele><time>2010-07-31T07:42:36Z</time></trkpt>
<trkpt lat="45.79868900" lon="4.85070700"><ele>299.8999937472</ele><time>2010-07-31T07:42:37Z</time></trkpt>
<trkpt lat="45.79865200" lon="4.85066000"><ele>300.0000001512</ele><time>2010-07-31T07:42:38Z</time></trkpt>
<trkpt lat="45.79861400" lon="4.85061300"><ele>299.8999937472</ele><time>2010-07-31T07:42:39Z</time></trkpt>
<trkpt lat="45.79858100" lon="4.85056300"><ele>300.1000062504</ele><time>2010-07-31T07:42:40Z</time></trkpt>
<trkpt lat="45.79854200" lon="4.85051300"><ele>300.0000001512</ele><time>2010-07-31T07:42:41Z</time></trkpt>
<trkpt lat="45.79850400" lon="4.85046800"><ele>300.0000001512</ele><time>2010-07-31T07:42:42Z</time></trkpt>
<trkpt lat="45.79846100" lon="4.85040900"><ele>299.8999937472</ele><time>2010-07-31T07:42:43Z</time></trkpt>
<trkpt lat="45.79842400" lon="4.85035700"><ele>300.0000001512</ele><time>2010-07-31T07:42:44Z</time></trkpt>
<trkpt lat="45.79838500" lon="4.85030500"><ele>299.799987648</ele><time>2010-07-31T07:42:45Z</time></trkpt>
<trkpt lat="45.79834200" lon="4.85025700"><ele>299.7000123336</ele><time>2010-07-31T07:42:46Z</time></trkpt>
<trkpt lat="45.79829700" lon="4.85020900"><ele>299.2999879368</ele><time>2010-07-31T07:42:47Z</time></trkpt>
<trkpt lat="45.79825700" lon="4.85016000"><ele>299.6000062344</ele><time>2010-07-31T07:42:48Z</time></trkpt>
<trkpt lat="45.79821900" lon="4.85011100"><ele>299.2999879368</ele><time>2010-07-31T07:42:49Z</time></trkpt>
<trkpt lat="45.79818400" lon="4.85006300"><ele>299.2999879368</ele><time>2010-07-31T07:42:50Z</time></trkpt>
<trkpt lat="45.79814100" lon="4.85001100"><ele>299.5000001352</ele><time>2010-07-31T07:42:51Z</time></trkpt>
<trkpt lat="45.79810400" lon="4.84996500"><ele>299.399994036</ele><time>2010-07-31T07:42:52Z</time></trkpt>
<trkpt lat="45.79806900" lon="4.84991400"><ele>299.399994036</ele><time>2010-07-31T07:42:53Z</time></trkpt>
<trkpt lat="45.79803300" lon="4.84986500"><ele>299.5000001352</ele><time>2010-07-31T07:42:54Z</time></trkpt>
<trkpt lat="45.79799500" lon="4.84982200"><ele>299.6000062344</ele><time>2010-07-31T07:42:55Z</time></trkpt>
<trkpt lat="45.79795800" lon="4.84978000"><ele>299.7000123336</ele><time>2010-07-31T07:42:56Z</time></trkpt>
<trkpt lat="45.79792200" lon="4.84972800"><ele>299.2999879368</ele><time>2010-07-31T07:42:57Z</time></trkpt>
<trkpt lat="45.79786800" lon="4.84962100"><ele>299.2000123176</ele><time>2010-07-31T07:42:59Z</time></trkpt>
<trkpt lat="45.79784000" lon="4.84956500"><ele>299.399994036</ele><time>2010-07-31T07:43:00Z</time></trkpt>
<trkpt lat="45.79780200" lon="4.84951400"><ele>299.1000062184</ele><time>2010-07-31T07:43:01Z</time></trkpt>
<trkpt lat="45.79776300" lon="4.84946500"><ele>299.2999879368</ele><time>2010-07-31T07:43:02Z</time></trkpt>
<trkpt lat="45.79772300" lon="4.84940700"><ele>299.2000123176</ele><time>2010-07-31T07:43:03Z</time></trkpt>
<trkpt lat="45.79765200" lon="4.84931000"><ele>298.89999402</ele><time>2010-07-31T07:43:05Z</time></trkpt>
<trkpt lat="45.79761300" lon="4.84926000"><ele>298.5000001032</ele><time>2010-07-31T07:43:06Z</time></trkpt>
<trkpt lat="45.79757900" lon="4.84920300"><ele>298.6000062024</ele><time>2010-07-31T07:43:07Z</time></trkpt>
<trkpt lat="45.79754600" lon="4.84914800"><ele>299.0000001192</ele><time>2010-07-31T07:43:08Z</time></trkpt>
<trkpt lat="45.79750500" lon="4.84909800"><ele>299.2999879368</ele><time>2010-07-31T07:43:09Z</time></trkpt>
<trkpt lat="45.79747000" lon="4.84905100"><ele>299.399994036</ele><time>2010-07-31T07:43:10Z</time></trkpt>
<trkpt lat="45.79743200" lon="4.84900300"><ele>299.2999879368</ele><time>2010-07-31T07:43:11Z</time></trkpt>
<trkpt lat="45.79739300" lon="4.84895200"><ele>299.5000001352</ele><time>2010-07-31T07:43:12Z</time></trkpt>
<trkpt lat="45.79735700" lon="4.84890600"><ele>299.2999879368</ele><time>2010-07-31T07:43:13Z</time></trkpt>
<trkpt lat="45.79729100" lon="4.84882500"><ele>299.7000123336</ele><time>2010-07-31T07:43:15Z</time></trkpt>
<trkpt lat="45.79725900" lon="4.84877100"><ele>299.8999937472</ele><time>2010-07-31T07:43:16Z</time></trkpt>
<trkpt lat="45.79722300" lon="4.84871600"><ele>300.299987664</ele><time>2010-07-31T07:43:17Z</time></trkpt>
<trkpt lat="45.79718400" lon="4.84866600"><ele>299.8999937472</ele><time>2010-07-31T07:43:18Z</time></trkpt>
<trkpt lat="45.79714500" lon="4.84862100"><ele>299.8999937472</ele><time>2010-07-31T07:43:19Z</time></trkpt>
<trkpt lat="45.79711300" lon="4.84856700"><ele>299.799987648</ele><time>2010-07-31T07:43:20Z</time></trkpt>
<trkpt lat="45.79707500" lon="4.84851300"><ele>299.7000123336</ele><time>2010-07-31T07:43:21Z</time></trkpt>
<trkpt lat="45.79704100" lon="4.84846400"><ele>299.8999937472</ele><time>2010-07-31T07:43:22Z</time></trkpt>
<trkpt lat="45.79700600" lon="4.84841000"><ele>300.0000001512</ele><time>2010-07-31T07:43:23Z</time></trkpt>
<trkpt lat="45.79694000" lon="4.84832500"><ele>300.6000059616</ele><time>2010-07-31T07:43:25Z</time></trkpt>
<trkpt lat="45.79688900" lon="4.84825800"><ele>301.1000059776</ele><time>2010-07-31T07:43:27Z</time></trkpt>
<trkpt lat="45.79682900" lon="4.84818600"><ele>300.7000120608</ele><time>2010-07-31T07:43:29Z</time></trkpt>
<trkpt lat="45.79676400" lon="4.84810300"><ele>300.6000059616</ele><time>2010-07-31T07:43:31Z</time></trkpt>
<trkpt lat="45.79672400" lon="4.84806800"><ele>300.299987664</ele><time>2010-07-31T07:43:32Z</time></trkpt>
<trkpt lat="45.79665400" lon="4.84800000"><ele>301.1000059776</ele><time>2010-07-31T07:43:34Z</time></trkpt>
<trkpt lat="45.79659900" lon="4.84792700"><ele>302.4999999264</ele><time>2010-07-31T07:43:36Z</time></trkpt>
<trkpt lat="45.79653600" lon="4.84785300"><ele>302.6000060256</ele><time>2010-07-31T07:43:38Z</time></trkpt>
<trkpt lat="45.79650100" lon="4.84780500"><ele>302.299987728</ele><time>2010-07-31T07:43:39Z</time></trkpt>
<trkpt lat="45.79643600" lon="4.84771500"><ele>302.1000060096</ele><time>2010-07-31T07:43:41Z</time></trkpt>
<trkpt lat="45.79640200" lon="4.84766900"><ele>302.1000060096</ele><time>2010-07-31T07:43:42Z</time></trkpt>
<trkpt lat="45.79633700" lon="4.84758000"><ele>302.799987744</ele><time>2010-07-31T07:43:44Z</time></trkpt>
<trkpt lat="45.79630300" lon="4.84753300"><ele>302.6000060256</ele><time>2010-07-31T07:43:45Z</time></trkpt>
<trkpt lat="45.79623200" lon="4.84743600"><ele>302.7000121248</ele><time>2010-07-31T07:43:47Z</time></trkpt>
<trkpt lat="45.79620000" lon="4.84738600"><ele>302.7000121248</ele><time>2010-07-31T07:43:48Z</time></trkpt>
<trkpt lat="45.79616400" lon="4.84733700"><ele>302.799987744</ele><time>2010-07-31T07:43:49Z</time></trkpt>
<trkpt lat="45.79612700" lon="4.84729300"><ele>302.7000121248</ele><time>2010-07-31T07:43:50Z</time></trkpt>
<trkpt lat="45.79609300" lon="4.84724500"><ele>302.6000060256</ele><time>2010-07-31T07:43:51Z</time></trkpt>
<trkpt lat="45.79605700" lon="4.84719200"><ele>302.8999938432</ele><time>2010-07-31T07:43:52Z</time></trkpt>
<trkpt lat="45.79602000" lon="4.84715100"><ele>302.4999999264</ele><time>2010-07-31T07:43:53Z</time></trkpt>
<trkpt lat="45.79598400" lon="4.84710800"><ele>302.299987728</ele><time>2010-07-31T07:43:54Z</time></trkpt>
<trkpt lat="45.79594100" lon="4.84706100"><ele>302.3999938272</ele><time>2010-07-31T07:43:55Z</time></trkpt>
<trkpt lat="45.79590300" lon="4.84701400"><ele>302.3999938272</ele><time>2010-07-31T07:43:56Z</time></trkpt>
<trkpt lat="45.79583300" lon="4.84691800"><ele>302.8999938432</ele><time>2010-07-31T07:43:58Z</time></trkpt>
<trkpt lat="45.79576100" lon="4.84683700"><ele>302.799987744</ele><time>2010-07-31T07:44:00Z</time></trkpt>
<trkpt lat="45.79569100" lon="4.84675800"><ele>302.8999938432</ele><time>2010-07-31T07:44:02Z</time></trkpt>
<trkpt lat="45.79565200" lon="4.84671100"><ele>303.1000060416</ele><time>2010-07-31T07:44:03Z</time></trkpt>
<trkpt lat="45.79561500" lon="4.84666600"><ele>303.29998776</ele><time>2010-07-31T07:44:04Z</time></trkpt>
<trkpt lat="45.79555200" lon="4.84657600"><ele>303.4999999584</ele><time>2010-07-31T07:44:06Z</time></trkpt>
<trkpt lat="45.79552100" lon="4.84652300"><ele>303.2000121408</ele><time>2010-07-31T07:44:07Z</time></trkpt>
<trkpt lat="45.79546000" lon="4.84643300"><ele>303.1000060416</ele><time>2010-07-31T07:44:09Z</time></trkpt>
<trkpt lat="45.79539700" lon="4.84633900"><ele>303.29998776</ele><time>2010-07-31T07:44:11Z</time></trkpt>
<trkpt lat="45.79536700" lon="4.84629000"><ele>303.1000060416</ele><time>2010-07-31T07:44:12Z</time></trkpt>
<trkpt lat="45.79530200" lon="4.84619900"><ele>303.3999938592</ele><time>2010-07-31T07:44:14Z</time></trkpt>
<trkpt lat="45.79523500" lon="4.84611100"><ele>303.29998776</ele><time>2010-07-31T07:44:16Z</time></trkpt>
<trkpt lat="45.79520000" lon="4.84606300"><ele>303.29998776</ele><time>2010-07-31T07:44:17Z</time></trkpt>
<trkpt lat="45.79512500" lon="4.84597300"><ele>303.2000121408</ele><time>2010-07-31T07:44:19Z</time></trkpt>
<trkpt lat="45.79509600" lon="4.84592000"><ele>302.9999999424</ele><time>2010-07-31T07:44:20Z</time></trkpt>
<trkpt lat="45.79505500" lon="4.84587000"><ele>303.1000060416</ele><time>2010-07-31T07:44:21Z</time></trkpt>
<trkpt lat="45.79501900" lon="4.84581200"><ele>302.6000060256</ele><time>2010-07-31T07:44:22Z</time></trkpt>
<trkpt lat="45.79498000" lon="4.84576000"><ele>303.29998776</ele><time>2010-07-31T07:44:23Z</time></trkpt>
<trkpt lat="45.79493800" lon="4.84570900"><ele>303.4999999584</ele><time>2010-07-31T07:44:24Z</time></trkpt>
<trkpt lat="45.79489600" lon="4.84565600"><ele>303.3999938592</ele><time>2010-07-31T07:44:25Z</time></trkpt>
<trkpt lat="45.79485500" lon="4.84560500"><ele>303.1000060416</ele><time>2010-07-31T07:44:26Z</time></trkpt>
<trkpt lat="45.79480700" lon="4.84554400"><ele>302.9999999424</ele><time>2010-07-31T07:44:27Z</time></trkpt>
<trkpt lat="45.79476300" lon="4.84548700"><ele>302.799987744</ele><time>2010-07-31T07:44:28Z</time></trkpt>
<trkpt lat="45.79472100" lon="4.84542900"><ele>302.9999999424</ele><time>2010-07-31T07:44:29Z</time></trkpt>
<trkpt lat="45.79467800" lon="4.84537200"><ele>303.29998776</ele><time>2010-07-31T07:44:30Z</time></trkpt>
<trkpt lat="45.79463000" lon="4.84531400"><ele>303.29998776</ele><time>2010-07-31T07:44:31Z</time></trkpt>
<trkpt lat="45.79458600" lon="4.84525500"><ele>303.799987776</ele><time>2010-07-31T07:44:32Z</time></trkpt>
<trkpt lat="45.79454000" lon="4.84519500"><ele>303.799987776</ele><time>2010-07-31T07:44:33Z</time></trkpt>
<trkpt lat="45.79449600" lon="4.84513400"><ele>303.8999938752</ele><time>2010-07-31T07:44:34Z</time></trkpt>
<trkpt lat="45.79444500" lon="4.84506400"><ele>303.4999999584</ele><time>2010-07-31T07:44:35Z</time></trkpt>
<trkpt lat="45.79439900" lon="4.84500100"><ele>303.3999938592</ele><time>2010-07-31T07:44:36Z</time></trkpt>
<trkpt lat="45.79435200" lon="4.84494700"><ele>303.3999938592</ele><time>2010-07-31T07:44:37Z</time></trkpt>
<trkpt lat="45.79430300" lon="4.84488900"><ele>303.6000060576</ele><time>2010-07-31T07:44:38Z</time></trkpt>
<trkpt lat="45.79425700" lon="4.84482800"><ele>303.4999999584</ele><time>2010-07-31T07:44:39Z</time></trkpt>
<trkpt lat="45.79421100" lon="4.84476400"><ele>303.6000060576</ele><time>2010-07-31T07:44:40Z</time></trkpt>
<trkpt lat="45.79415900" lon="4.84470400"><ele>303.4999999584</ele><time>2010-07-31T07:44:41Z</time></trkpt>
<trkpt lat="45.79411100" lon="4.84465100"><ele>303.6000060576</ele><time>2010-07-31T07:44:42Z</time></trkpt>
<trkpt lat="45.79405700" lon="4.84458600"><ele>303.1000060416</ele><time>2010-07-31T07:44:43Z</time></trkpt>
<trkpt lat="45.79400800" lon="4.84452500"><ele>303.2000121408</ele><time>2010-07-31T07:44:44Z</time></trkpt>
<trkpt lat="45.79395700" lon="4.84447000"><ele>303.2000121408</ele><time>2010-07-31T07:44:45Z</time></trkpt>
<trkpt lat="45.79391000" lon="4.84440700"><ele>302.6000060256</ele><time>2010-07-31T07:44:46Z</time></trkpt>
<trkpt lat="45.79386400" lon="4.84434800"><ele>302.6000060256</ele><time>2010-07-31T07:44:47Z</time></trkpt>
<trkpt lat="45.79381800" lon="4.84429100"><ele>302.3999938272</ele><time>2010-07-31T07:44:48Z</time></trkpt>
<trkpt lat="45.79377300" lon="4.84423100"><ele>302.3999938272</ele><time>2010-07-31T07:44:49Z</time></trkpt>
<trkpt lat="45.79373200" lon="4.84417200"><ele>301.9999999104</ele><time>2010-07-31T07:44:50Z</time></trkpt>
<trkpt lat="45.79368600" lon="4.84410600"><ele>301.799987712</ele><time>2010-07-31T07:44:51Z</time></trkpt>
<trkpt lat="45.79364200" lon="4.84404800"><ele>301.6000059936</ele><time>2010-07-31T07:44:52Z</time></trkpt>
<trkpt lat="45.79359400" lon="4.84399000"><ele>301.4999998944</ele><time>2010-07-31T07:44:53Z</time></trkpt>
<trkpt lat="45.79354800" lon="4.84393600"><ele>301.3999937952</ele><time>2010-07-31T07:44:54Z</time></trkpt>
<trkpt lat="45.79350400" lon="4.84388300"><ele>301.4999998944</ele><time>2010-07-31T07:44:55Z</time></trkpt>
<trkpt lat="45.79346100" lon="4.84382300"><ele>301.299987696</ele><time>2010-07-31T07:44:56Z</time></trkpt>
<trkpt lat="45.79342000" lon="4.84376600"><ele>300.9999998784</ele><time>2010-07-31T07:44:57Z</time></trkpt>
<trkpt lat="45.79338300" lon="4.84371400"><ele>300.79998768</ele><time>2010-07-31T07:44:58Z</time></trkpt>
<trkpt lat="45.79334200" lon="4.84365500"><ele>300.7000120608</ele><time>2010-07-31T07:44:59Z</time></trkpt>
<trkpt lat="45.79330300" lon="4.84359800"><ele>300.6000059616</ele><time>2010-07-31T07:45:00Z</time></trkpt>
<trkpt lat="45.79326400" lon="4.84354500"><ele>300.6000059616</ele><time>2010-07-31T07:45:01Z</time></trkpt>
<trkpt lat="45.79322400" lon="4.84349400"><ele>300.7000120608</ele><time>2010-07-31T07:45:02Z</time></trkpt>
<trkpt lat="45.79318500" lon="4.84343700"><ele>300.4999998624</ele><time>2010-07-31T07:45:03Z</time></trkpt>
<trkpt lat="45.79314300" lon="4.84338500"><ele>300.2000123496</ele><time>2010-07-31T07:45:04Z</time></trkpt>
<trkpt lat="45.79310600" lon="4.84333200"><ele>300.1000062504</ele><time>2010-07-31T07:45:05Z</time></trkpt>
<trkpt lat="45.79307300" lon="4.84328100"><ele>300.0000001512</ele><time>2010-07-31T07:45:06Z</time></trkpt>
<trkpt lat="45.79303700" lon="4.84321900"><ele>300.0000001512</ele><time>2010-07-31T07:45:07Z</time></trkpt>
<trkpt lat="45.79300600" lon="4.84316200"><ele>299.8999937472</ele><time>2010-07-31T07:45:08Z</time></trkpt>
<trkpt lat="45.79297100" lon="4.84310800"><ele>299.8999937472</ele><time>2010-07-31T07:45:09Z</time></trkpt>
<trkpt lat="45.79293400" lon="4.84305800"><ele>299.799987648</ele><time>2010-07-31T07:45:10Z</time></trkpt>
<trkpt lat="45.79290000" lon="4.84301000"><ele>299.799987648</ele><time>2010-07-31T07:45:11Z</time></trkpt>
<trkpt lat="45.79286800" lon="4.84295700"><ele>300.0000001512</ele><time>2010-07-31T07:45:12Z</time></trkpt>
<trkpt lat="45.79283600" lon="4.84291000"><ele>300.2000123496</ele><time>2010-07-31T07:45:13Z</time></trkpt>
<trkpt lat="45.79280200" lon="4.84286400"><ele>300.299987664</ele><time>2010-07-31T07:45:14Z</time></trkpt>
<trkpt lat="45.79276400" lon="4.84281800"><ele>300.1000062504</ele><time>2010-07-31T07:45:15Z</time></trkpt>
<trkpt lat="45.79272800" lon="4.84277400"><ele>300.0000001512</ele><time>2010-07-31T07:45:16Z</time></trkpt>
<trkpt lat="45.79269100" lon="4.84272800"><ele>299.7000123336</ele><time>2010-07-31T07:45:17Z</time></trkpt>
<trkpt lat="45.79265700" lon="4.84267800"><ele>299.2999879368</ele><time>2010-07-31T07:45:18Z</time></trkpt>
<trkpt lat="45.79262000" lon="4.84263300"><ele>299.399994036</ele><time>2010-07-31T07:45:19Z</time></trkpt>
<trkpt lat="45.79258400" lon="4.84258700"><ele>299.6000062344</ele><time>2010-07-31T07:45:20Z</time></trkpt>
<trkpt lat="45.79255000" lon="4.84253800"><ele>299.399994036</ele><time>2010-07-31T07:45:21Z</time></trkpt>
<trkpt lat="45.79251400" lon="4.84249400"><ele>299.2999879368</ele><time>2010-07-31T07:45:22Z</time></trkpt>
<trkpt lat="45.79247600" lon="4.84244900"><ele>299.5000001352</ele><time>2010-07-31T07:45:23Z</time></trkpt>
<trkpt lat="45.79244100" lon="4.84240200"><ele>299.399994036</ele><time>2010-07-31T07:45:24Z</time></trkpt>
<trkpt lat="45.79240400" lon="4.84235600"><ele>299.399994036</ele><time>2010-07-31T07:45:25Z</time></trkpt>
<trkpt lat="45.79237100" lon="4.84230800"><ele>299.6000062344</ele><time>2010-07-31T07:45:26Z</time></trkpt>
<trkpt lat="45.79234000" lon="4.84225400"><ele>299.399994036</ele><time>2010-07-31T07:45:27Z</time></trkpt>
<trkpt lat="45.79227300" lon="4.84217500"><ele>299.5000001352</ele><time>2010-07-31T07:45:29Z</time></trkpt>
<trkpt lat="45.79222000" lon="4.84208400"><ele>299.0000001192</ele><time>2010-07-31T07:45:31Z</time></trkpt>
<trkpt lat="45.79216900" lon="4.84199800"><ele>298.7000123016</ele><time>2010-07-31T07:45:33Z</time></trkpt>
<trkpt lat="45.79210500" lon="4.84191700"><ele>298.0000000872</ele><time>2010-07-31T07:45:35Z</time></trkpt>
<trkpt lat="45.79204300" lon="4.84182500"><ele>298.0000000872</ele><time>2010-07-31T07:45:37Z</time></trkpt>
<trkpt lat="45.79198400" lon="4.84171700"><ele>297.7000122696</ele><time>2010-07-31T07:45:39Z</time></trkpt>
<trkpt lat="45.79195300" lon="4.84165900"><ele>297.399993972</ele><time>2010-07-31T07:45:40Z</time></trkpt>
<trkpt lat="45.79191400" lon="4.84160500"><ele>297.1000061544</ele><time>2010-07-31T07:45:41Z</time></trkpt>
<trkpt lat="45.79187300" lon="4.84156300"><ele>297.2000122536</ele><time>2010-07-31T07:45:42Z</time></trkpt>
<trkpt lat="45.79182900" lon="4.84152100"><ele>296.899993956</ele><time>2010-07-31T07:45:43Z</time></trkpt>
<trkpt lat="45.79178800" lon="4.84147200"><ele>297.2000122536</ele><time>2010-07-31T07:45:44Z</time></trkpt>
<trkpt lat="45.79174600" lon="4.84142100"><ele>297.2000122536</ele><time>2010-07-31T07:45:45Z</time></trkpt>
<trkpt lat="45.79170700" lon="4.84136800"><ele>296.7999878568</ele><time>2010-07-31T07:45:46Z</time></trkpt>
<trkpt lat="45.79166400" lon="4.84130800"><ele>296.7999878568</ele><time>2010-07-31T07:45:47Z</time></trkpt>
<trkpt lat="45.79162700" lon="4.84125600"><ele>297.0000000552</ele><time>2010-07-31T07:45:48Z</time></trkpt>
<trkpt lat="45.79158700" lon="4.84120200"><ele>297.1000061544</ele><time>2010-07-31T07:45:49Z</time></trkpt>
<trkpt lat="45.79155000" lon="4.84115100"><ele>297.1000061544</ele><time>2010-07-31T07:45:50Z</time></trkpt>
<trkpt lat="45.79151200" lon="4.84110600"><ele>297.1000061544</ele><time>2010-07-31T07:45:51Z</time></trkpt>
<trkpt lat="45.79147600" lon="4.84105600"><ele>297.0000000552</ele><time>2010-07-31T07:45:52Z</time></trkpt>
<trkpt lat="45.79144200" lon="4.84100300"><ele>296.899993956</ele><time>2010-07-31T07:45:53Z</time></trkpt>
<trkpt lat="45.79140800" lon="4.84095900"><ele>296.7999878568</ele><time>2010-07-31T07:45:54Z</time></trkpt>
<trkpt lat="45.79137100" lon="4.84090600"><ele>297.2000122536</ele><time>2010-07-31T07:45:55Z</time></trkpt>
<trkpt lat="45.79133800" lon="4.84085800"><ele>297.2999878728</ele><time>2010-07-31T07:45:56Z</time></trkpt>
<trkpt lat="45.79130100" lon="4.84081600"><ele>297.2000122536</ele><time>2010-07-31T07:45:57Z</time></trkpt>
<trkpt lat="45.79125600" lon="4.84078200"><ele>297.2000122536</ele><time>2010-07-31T07:45:58Z</time></trkpt>
<trkpt lat="45.79121400" lon="4.84074200"><ele>297.2999878728</ele><time>2010-07-31T07:45:59Z</time></trkpt>
<trkpt lat="45.79118000" lon="4.84069300"><ele>297.0000000552</ele><time>2010-07-31T07:46:00Z</time></trkpt>
<trkpt lat="45.79114300" lon="4.84064800"><ele>296.7999878568</ele><time>2010-07-31T07:46:01Z</time></trkpt>
<trkpt lat="45.79110900" lon="4.84060400"><ele>297.0000000552</ele><time>2010-07-31T07:46:02Z</time></trkpt>
<trkpt lat="45.79107400" lon="4.84055700"><ele>297.2999878728</ele><time>2010-07-31T07:46:03Z</time></trkpt>
<trkpt lat="45.79103900" lon="4.84051300"><ele>297.2999878728</ele><time>2010-07-31T07:46:04Z</time></trkpt>
<trkpt lat="45.79100600" lon="4.84046600"><ele>297.399993972</ele><time>2010-07-31T07:46:05Z</time></trkpt>
<trkpt lat="45.79097000" lon="4.84041700"><ele>297.1000061544</ele><time>2010-07-31T07:46:06Z</time></trkpt>
<trkpt lat="45.79093800" lon="4.84036700"><ele>297.2000122536</ele><time>2010-07-31T07:46:07Z</time></trkpt>
<trkpt lat="45.79090300" lon="4.84031900"><ele>297.0000000552</ele><time>2010-07-31T07:46:08Z</time></trkpt>
<trkpt lat="45.79086800" lon="4.84027200"><ele>297.1000061544</ele><time>2010-07-31T07:46:09Z</time></trkpt>
<trkpt lat="45.79080000" lon="4.84018300"><ele>297.1000061544</ele><time>2010-07-31T07:46:11Z</time></trkpt>
<trkpt lat="45.79076500" lon="4.84013800"><ele>297.1000061544</ele><time>2010-07-31T07:46:12Z</time></trkpt>
<trkpt lat="45.79072900" lon="4.84009600"><ele>297.6000061704</ele><time>2010-07-31T07:46:13Z</time></trkpt>
<trkpt lat="45.79069500" lon="4.84005200"><ele>297.5000000712</ele><time>2010-07-31T07:46:14Z</time></trkpt>
<trkpt lat="45.79066300" lon="4.84000500"><ele>297.399993972</ele><time>2010-07-31T07:46:15Z</time></trkpt>
<trkpt lat="45.79059900" lon="4.83992400"><ele>297.399993972</ele><time>2010-07-31T07:46:17Z</time></trkpt>
<trkpt lat="45.79054600" lon="4.83986300"><ele>297.399993972</ele><time>2010-07-31T07:46:19Z</time></trkpt>
<trkpt lat="45.79049300" lon="4.83983900"><ele>297.5000000712</ele><time>2010-07-31T07:46:22Z</time></trkpt>
<trkpt lat="45.79044700" lon="4.83978700"><ele>298.2999879048</ele><time>2010-07-31T07:46:27Z</time></trkpt>
<trkpt lat="45.79044400" lon="4.83971400"><ele>298.6000062024</ele><time>2010-07-31T07:46:29Z</time></trkpt>
<trkpt lat="45.79039700" lon="4.83961800"><ele>298.6000062024</ele><time>2010-07-31T07:46:32Z</time></trkpt>
<trkpt lat="45.79033700" lon="4.83953800"><ele>298.6000062024</ele><time>2010-07-31T07:46:34Z</time></trkpt>
<trkpt lat="45.79030200" lon="4.83949300"><ele>298.2999879048</ele><time>2010-07-31T07:46:35Z</time></trkpt>
<trkpt lat="45.79023500" lon="4.83940900"><ele>297.899993988</ele><time>2010-07-31T07:46:37Z</time></trkpt>
<trkpt lat="45.79017300" lon="4.83933100"><ele>298.2000122856</ele><time>2010-07-31T07:46:39Z</time></trkpt>
<trkpt lat="45.79011300" lon="4.83925500"><ele>298.2000122856</ele><time>2010-07-31T07:46:41Z</time></trkpt>
<trkpt lat="45.79004700" lon="4.83917100"><ele>297.899993988</ele><time>2010-07-31T07:46:43Z</time></trkpt>
<trkpt lat="45.78998100" lon="4.83909100"><ele>297.899993988</ele><time>2010-07-31T07:46:45Z</time></trkpt>
<trkpt lat="45.78991700" lon="4.83900500"><ele>297.7999878888</ele><time>2010-07-31T07:46:47Z</time></trkpt>
<trkpt lat="45.78988300" lon="4.83895700"><ele>297.7000122696</ele><time>2010-07-31T07:46:48Z</time></trkpt>
<trkpt lat="45.78984200" lon="4.83890300"><ele>297.399993972</ele><time>2010-07-31T07:46:49Z</time></trkpt>
<trkpt lat="45.78980400" lon="4.83885300"><ele>297.1000061544</ele><time>2010-07-31T07:46:50Z</time></trkpt>
<trkpt lat="45.78976100" lon="4.83879700"><ele>297.0000000552</ele><time>2010-07-31T07:46:51Z</time></trkpt>
<trkpt lat="45.78971900" lon="4.83874700"><ele>297.2999878728</ele><time>2010-07-31T07:46:52Z</time></trkpt>
<trkpt lat="45.78967800" lon="4.83869500"><ele>297.2999878728</ele><time>2010-07-31T07:46:53Z</time></trkpt>
<trkpt lat="45.78963800" lon="4.83864600"><ele>297.2999878728</ele><time>2010-07-31T07:46:54Z</time></trkpt>
<trkpt lat="45.78959900" lon="4.83860200"><ele>297.2999878728</ele><time>2010-07-31T07:46:55Z</time></trkpt>
<trkpt lat="45.78956100" lon="4.83855300"><ele>297.2000122536</ele><time>2010-07-31T07:46:56Z</time></trkpt>
<trkpt lat="45.78952000" lon="4.83850400"><ele>297.2999878728</ele><time>2010-07-31T07:46:57Z</time></trkpt>
<trkpt lat="45.78948400" lon="4.83845500"><ele>297.2999878728</ele><time>2010-07-31T07:46:58Z</time></trkpt>
<trkpt lat="45.78944200" lon="4.83840000"><ele>297.399993972</ele><time>2010-07-31T07:46:59Z</time></trkpt>
<trkpt lat="45.78940400" lon="4.83834300"><ele>297.2000122536</ele><time>2010-07-31T07:47:00Z</time></trkpt>
<trkpt lat="45.78936700" lon="4.83828800"><ele>297.2000122536</ele><time>2010-07-31T07:47:01Z</time></trkpt>
<trkpt lat="45.78932500" lon="4.83823500"><ele>297.5000000712</ele><time>2010-07-31T07:47:02Z</time></trkpt>
<trkpt lat="45.78928600" lon="4.83818100"><ele>297.1000061544</ele><time>2010-07-31T07:47:03Z</time></trkpt>
<trkpt lat="45.78924800" lon="4.83812600"><ele>297.399993972</ele><time>2010-07-31T07:47:04Z</time></trkpt>
<trkpt lat="45.78920800" lon="4.83808000"><ele>297.5000000712</ele><time>2010-07-31T07:47:05Z</time></trkpt>
<trkpt lat="45.78916800" lon="4.83803600"><ele>297.399993972</ele><time>2010-07-31T07:47:06Z</time></trkpt>
<trkpt lat="45.78912800" lon="4.83797500"><ele>297.2000122536</ele><time>2010-07-31T07:47:07Z</time></trkpt>
<trkpt lat="45.78909200" lon="4.83792000"><ele>297.2999878728</ele><time>2010-07-31T07:47:08Z</time></trkpt>
<trkpt lat="45.78904500" lon="4.83787000"><ele>297.2999878728</ele><time>2010-07-31T07:47:09Z</time></trkpt>
<trkpt lat="45.78899800" lon="4.83782300"><ele>297.0000000552</ele><time>2010-07-31T07:47:10Z</time></trkpt>
<trkpt lat="45.78895400" lon="4.83777600"><ele>297.1000061544</ele><time>2010-07-31T07:47:11Z</time></trkpt>
<trkpt lat="45.78891000" lon="4.83773600"><ele>297.0000000552</ele><time>2010-07-31T07:47:12Z</time></trkpt>
<trkpt lat="45.78886500" lon="4.83769800"><ele>297.0000000552</ele><time>2010-07-31T07:47:13Z</time></trkpt>
<trkpt lat="45.78882600" lon="4.83766000"><ele>296.7000122376</ele><time>2010-07-31T07:47:14Z</time></trkpt>
<trkpt lat="45.78878400" lon="4.83761900"><ele>296.899993956</ele><time>2010-07-31T07:47:15Z</time></trkpt>
<trkpt lat="45.78874200" lon="4.83758500"><ele>297.0000000552</ele><time>2010-07-31T07:47:16Z</time></trkpt>
<trkpt lat="45.78867100" lon="4.83752500"><ele>297.1000061544</ele><time>2010-07-31T07:47:18Z</time></trkpt>
<trkpt lat="45.78860500" lon="4.83744700"><ele>296.7000122376</ele><time>2010-07-31T07:47:20Z</time></trkpt>
<trkpt lat="45.78855700" lon="4.83736700"><ele>296.7000122376</ele><time>2010-07-31T07:47:22Z</time></trkpt>
<trkpt lat="45.78849600" lon="4.83729200"><ele>296.39999394</ele><time>2010-07-31T07:47:24Z</time></trkpt>
<trkpt lat="45.78844300" lon="4.83721100"><ele>296.899993956</ele><time>2010-07-31T07:47:26Z</time></trkpt>
<trkpt lat="45.78838500" lon="4.83711500"><ele>297.0000000552</ele><time>2010-07-31T07:47:28Z</time></trkpt>
<trkpt lat="45.78832200" lon="4.83702700"><ele>296.7000122376</ele><time>2010-07-31T07:47:30Z</time></trkpt>
<trkpt lat="45.78828900" lon="4.83697800"><ele>296.899993956</ele><time>2010-07-31T07:47:31Z</time></trkpt>
<trkpt lat="45.78825500" lon="4.83693300"><ele>297.1000061544</ele><time>2010-07-31T07:47:32Z</time></trkpt>
<trkpt lat="45.78822100" lon="4.83688700"><ele>297.0000000552</ele><time>2010-07-31T07:47:33Z</time></trkpt>
<trkpt lat="45.78819000" lon="4.83683700"><ele>297.0000000552</ele><time>2010-07-31T07:47:34Z</time></trkpt>
<trkpt lat="45.78815500" lon="4.83678500"><ele>297.0000000552</ele><time>2010-07-31T07:47:35Z</time></trkpt>
<trkpt lat="45.78811900" lon="4.83673800"><ele>297.1000061544</ele><time>2010-07-31T07:47:36Z</time></trkpt>
<trkpt lat="45.78808200" lon="4.83669000"><ele>296.7999878568</ele><time>2010-07-31T07:47:37Z</time></trkpt>
<trkpt lat="45.78804700" lon="4.83664500"><ele>296.6000061384</ele><time>2010-07-31T07:47:38Z</time></trkpt>
<trkpt lat="45.78800600" lon="4.83659500"><ele>296.6000061384</ele><time>2010-07-31T07:47:39Z</time></trkpt>
<trkpt lat="45.78796600" lon="4.83655100"><ele>296.5000000392</ele><time>2010-07-31T07:47:40Z</time></trkpt>
<trkpt lat="45.78793000" lon="4.83650300"><ele>296.5000000392</ele><time>2010-07-31T07:47:41Z</time></trkpt>
<trkpt lat="45.78789300" lon="4.83645000"><ele>296.39999394</ele><time>2010-07-31T07:47:42Z</time></trkpt>
<trkpt lat="45.78786000" lon="4.83639700"><ele>296.6000061384</ele><time>2010-07-31T07:47:43Z</time></trkpt>
<trkpt lat="45.78784700" lon="4.83633200"><ele>296.899993956</ele><time>2010-07-31T07:47:44Z</time></trkpt>
<trkpt lat="45.78784200" lon="4.83626000"><ele>297.0000000552</ele><time>2010-07-31T07:47:45Z</time></trkpt>
<trkpt lat="45.78782400" lon="4.83619400"><ele>297.0000000552</ele><time>2010-07-31T07:47:46Z</time></trkpt>
<trkpt lat="45.78778700" lon="4.83612700"><ele>296.7999878568</ele><time>2010-07-31T07:47:47Z</time></trkpt>
<trkpt lat="45.78774800" lon="4.83606600"><ele>296.7000122376</ele><time>2010-07-31T07:47:48Z</time></trkpt>
<trkpt lat="45.78770700" lon="4.83601000"><ele>296.7000122376</ele><time>2010-07-31T07:47:49Z</time></trkpt>
<trkpt lat="45.78766700" lon="4.83594900"><ele>296.39999394</ele><time>2010-07-31T07:47:50Z</time></trkpt>
<trkpt lat="45.78762500" lon="4.83589000"><ele>296.2000122216</ele><time>2010-07-31T07:47:51Z</time></trkpt>
<trkpt lat="45.78758600" lon="4.83583000"><ele>296.0000000232</ele><time>2010-07-31T07:47:52Z</time></trkpt>
<trkpt lat="45.78754200" lon="4.83577400"><ele>296.0000000232</ele><time>2010-07-31T07:47:53Z</time></trkpt>
<trkpt lat="45.78750100" lon="4.83572300"><ele>295.7999878248</ele><time>2010-07-31T07:47:54Z</time></trkpt>
<trkpt lat="45.78745300" lon="4.83566600"><ele>295.6000061064</ele><time>2010-07-31T07:47:55Z</time></trkpt>
<trkpt lat="45.78740900" lon="4.83561000"><ele>295.399993908</ele><time>2010-07-31T07:47:56Z</time></trkpt>
<trkpt lat="45.78736200" lon="4.83555400"><ele>294.9999999912</ele><time>2010-07-31T07:47:57Z</time></trkpt>
<trkpt lat="45.78731900" lon="4.83549200"><ele>294.899993892</ele><time>2010-07-31T07:47:58Z</time></trkpt>
<trkpt lat="45.78727400" lon="4.83543400"><ele>294.7999877928</ele><time>2010-07-31T07:47:59Z</time></trkpt>
<trkpt lat="45.78722800" lon="4.83537400"><ele>294.7000121736</ele><time>2010-07-31T07:48:00Z</time></trkpt>
<trkpt lat="45.78718400" lon="4.83531800"><ele>294.6000060744</ele><time>2010-07-31T07:48:01Z</time></trkpt>
<trkpt lat="45.78714100" lon="4.83526700"><ele>294.7000121736</ele><time>2010-07-31T07:48:02Z</time></trkpt>
<trkpt lat="45.78709200" lon="4.83520300"><ele>294.6000060744</ele><time>2010-07-31T07:48:03Z</time></trkpt>
<trkpt lat="45.78705300" lon="4.83513900"><ele>294.4999999752</ele><time>2010-07-31T07:48:04Z</time></trkpt>
<trkpt lat="45.78701200" lon="4.83508500"><ele>294.7000121736</ele><time>2010-07-31T07:48:05Z</time></trkpt>
<trkpt lat="45.78697300" lon="4.83503200"><ele>294.899993892</ele><time>2010-07-31T07:48:06Z</time></trkpt>
<trkpt lat="45.78693300" lon="4.83498500"><ele>295.2000121896</ele><time>2010-07-31T07:48:07Z</time></trkpt>
<trkpt lat="45.78689600" lon="4.83493100"><ele>295.1000060904</ele><time>2010-07-31T07:48:08Z</time></trkpt>
<trkpt lat="45.78685900" lon="4.83488200"><ele>295.2999878088</ele><time>2010-07-31T07:48:09Z</time></trkpt>
<trkpt lat="45.78682200" lon="4.83483700"><ele>295.5000000072</ele><time>2010-07-31T07:48:10Z</time></trkpt>
<trkpt lat="45.78678100" lon="4.83478600"><ele>295.6000061064</ele><time>2010-07-31T07:48:11Z</time></trkpt>
<trkpt lat="45.78674500" lon="4.83474300"><ele>295.899993924</ele><time>2010-07-31T07:48:12Z</time></trkpt>
<trkpt lat="45.78670900" lon="4.83469700"><ele>296.1000061224</ele><time>2010-07-31T07:48:13Z</time></trkpt>
<trkpt lat="45.78667300" lon="4.83465500"><ele>296.2999878408</ele><time>2010-07-31T07:48:14Z</time></trkpt>
<trkpt lat="45.78663600" lon="4.83461300"><ele>296.5000000392</ele><time>2010-07-31T07:48:15Z</time></trkpt>
<trkpt lat="45.78660000" lon="4.83457000"><ele>296.39999394</ele><time>2010-07-31T07:48:16Z</time></trkpt>
<trkpt lat="45.78656400" lon="4.83452800"><ele>296.2999878408</ele><time>2010-07-31T07:48:17Z</time></trkpt>
<trkpt lat="45.78652200" lon="4.83449500"><ele>296.2000122216</ele><time>2010-07-31T07:48:18Z</time></trkpt>
<trkpt lat="45.78646000" lon="4.83440900"><ele>296.7999878568</ele><time>2010-07-31T07:48:20Z</time></trkpt>
<trkpt lat="45.78638800" lon="4.83433500"><ele>297.5000000712</ele><time>2010-07-31T07:48:22Z</time></trkpt>
<trkpt lat="45.78633300" lon="4.83428000"><ele>297.7000122696</ele><time>2010-07-31T07:48:24Z</time></trkpt>
<trkpt lat="45.78628100" lon="4.83421800"><ele>297.399993972</ele><time>2010-07-31T07:48:26Z</time></trkpt>
<trkpt lat="45.78624000" lon="4.83414900"><ele>296.899993956</ele><time>2010-07-31T07:48:28Z</time></trkpt>
<trkpt lat="45.78620900" lon="4.83408000"><ele>298.2000122856</ele><time>2010-07-31T07:48:33Z</time></trkpt>
<trkpt lat="45.78616200" lon="4.83404400"><ele>297.7999878888</ele><time>2010-07-31T07:48:35Z</time></trkpt>
<trkpt lat="45.78611900" lon="4.83397100"><ele>297.1000061544</ele><time>2010-07-31T07:48:37Z</time></trkpt>
<trkpt lat="45.78606400" lon="4.83389100"><ele>296.5000000392</ele><time>2010-07-31T07:48:39Z</time></trkpt>
<trkpt lat="45.78600400" lon="4.83382100"><ele>296.2000122216</ele><time>2010-07-31T07:48:41Z</time></trkpt>
<trkpt lat="45.78595600" lon="4.83375200"><ele>296.2000122216</ele><time>2010-07-31T07:48:43Z</time></trkpt>
<trkpt lat="45.78589900" lon="4.83370900"><ele>296.6000061384</ele><time>2010-07-31T07:48:45Z</time></trkpt>
<trkpt lat="45.78583100" lon="4.83369000"><ele>296.5000000392</ele><time>2010-07-31T07:48:47Z</time></trkpt>
<trkpt lat="45.78577600" lon="4.83363600"><ele>296.6000061384</ele><time>2010-07-31T07:48:49Z</time></trkpt>
<trkpt lat="45.78572300" lon="4.83357400"><ele>296.39999394</ele><time>2010-07-31T07:48:51Z</time></trkpt>
<trkpt lat="45.78566600" lon="4.83351000"><ele>295.7999878248</ele><time>2010-07-31T07:48:53Z</time></trkpt>
<trkpt lat="45.78560900" lon="4.83344500"><ele>295.7999878248</ele><time>2010-07-31T07:48:55Z</time></trkpt>
<trkpt lat="45.78556300" lon="4.83338500"><ele>295.6000061064</ele><time>2010-07-31T07:48:57Z</time></trkpt>
<trkpt lat="45.78551500" lon="4.83332200"><ele>295.2999878088</ele><time>2010-07-31T07:48:59Z</time></trkpt>
<trkpt lat="45.78549000" lon="4.83324200"><ele>295.7999878248</ele><time>2010-07-31T07:49:01Z</time></trkpt>
<trkpt lat="45.78544800" lon="4.83317200"><ele>295.7000122056</ele><time>2010-07-31T07:49:03Z</time></trkpt>
<trkpt lat="45.78539200" lon="4.83310700"><ele>295.399993908</ele><time>2010-07-31T07:49:05Z</time></trkpt>
<trkpt lat="45.78534500" lon="4.83303800"><ele>295.2000121896</ele><time>2010-07-31T07:49:07Z</time></trkpt>
<trkpt lat="45.78530400" lon="4.83297100"><ele>294.4999999752</ele><time>2010-07-31T07:49:09Z</time></trkpt>
<trkpt lat="45.78527000" lon="4.83290300"><ele>294.1000060584</ele><time>2010-07-31T07:49:11Z</time></trkpt>
<trkpt lat="45.78523600" lon="4.83284000"><ele>294.1000060584</ele><time>2010-07-31T07:49:13Z</time></trkpt>
<trkpt lat="45.78519300" lon="4.83276800"><ele>293.9999999592</ele><time>2010-07-31T07:49:15Z</time></trkpt>
<trkpt lat="45.78515200" lon="4.83270000"><ele>294.1000060584</ele><time>2010-07-31T07:49:17Z</time></trkpt>
<trkpt lat="45.78512000" lon="4.83264300"><ele>293.89999386</ele><time>2010-07-31T07:49:20Z</time></trkpt>
<trkpt lat="45.78509000" lon="4.83259000"><ele>294.2000121576</ele><time>2010-07-31T07:49:23Z</time></trkpt>
<trkpt lat="45.78503600" lon="4.83254300"><ele>294.2000121576</ele><time>2010-07-31T07:49:26Z</time></trkpt>
<trkpt lat="45.78498700" lon="4.83251000"><ele>294.2999877768</ele><time>2010-07-31T07:49:27Z</time></trkpt>
<trkpt lat="45.78491500" lon="4.83244100"><ele>294.399993876</ele><time>2010-07-31T07:49:29Z</time></trkpt>
<trkpt lat="45.78484500" lon="4.83234800"><ele>293.7000121416</ele><time>2010-07-31T07:49:31Z</time></trkpt>
<trkpt lat="45.78480500" lon="4.83230500"><ele>293.4999999432</ele><time>2010-07-31T07:49:32Z</time></trkpt>
<trkpt lat="45.78476700" lon="4.83226000"><ele>293.6000060424</ele><time>2010-07-31T07:49:33Z</time></trkpt>
<trkpt lat="45.78473100" lon="4.83221300"><ele>293.399993844</ele><time>2010-07-31T07:49:34Z</time></trkpt>
<trkpt lat="45.78469300" lon="4.83216200"><ele>293.1000060264</ele><time>2010-07-31T07:49:35Z</time></trkpt>
<trkpt lat="45.78465500" lon="4.83211000"><ele>293.399993844</ele><time>2010-07-31T07:49:36Z</time></trkpt>
<trkpt lat="45.78461400" lon="4.83205300"><ele>293.1000060264</ele><time>2010-07-31T07:49:37Z</time></trkpt>
<trkpt lat="45.78457600" lon="4.83200200"><ele>292.899993828</ele><time>2010-07-31T07:49:38Z</time></trkpt>
<trkpt lat="45.78453400" lon="4.83194300"><ele>292.7999877288</ele><time>2010-07-31T07:49:39Z</time></trkpt>
<trkpt lat="45.78450500" lon="4.83188800"><ele>292.6000060104</ele><time>2010-07-31T07:49:40Z</time></trkpt>
<trkpt lat="45.78445500" lon="4.83184800"><ele>292.399993812</ele><time>2010-07-31T07:49:41Z</time></trkpt>
<trkpt lat="45.78438300" lon="4.83176800"><ele>293.2000121256</ele><time>2010-07-31T07:49:43Z</time></trkpt>
<trkpt lat="45.78433900" lon="4.83173600"><ele>293.4999999432</ele><time>2010-07-31T07:49:44Z</time></trkpt>
<trkpt lat="45.78427200" lon="4.83166600"><ele>293.2999877448</ele><time>2010-07-31T07:49:46Z</time></trkpt>
<trkpt lat="45.78422300" lon="4.83158800"><ele>293.89999386</ele><time>2010-07-31T07:49:48Z</time></trkpt>
<trkpt lat="45.78418300" lon="4.83153700"><ele>293.9999999592</ele><time>2010-07-31T07:49:51Z</time></trkpt>
<trkpt lat="45.78413300" lon="4.83147900"><ele>296.7999878568</ele><time>2010-07-31T07:50:02Z</time></trkpt>
<trkpt lat="45.78408100" lon="4.83144200"><ele>297.899993988</ele><time>2010-07-31T07:50:04Z</time></trkpt>
<trkpt lat="45.78403400" lon="4.83138800"><ele>297.399993972</ele><time>2010-07-31T07:50:06Z</time></trkpt>
<trkpt lat="45.78400100" lon="4.83132100"><ele>296.899993956</ele><time>2010-07-31T07:50:08Z</time></trkpt>
<trkpt lat="45.78395600" lon="4.83126100"><ele>296.899993956</ele><time>2010-07-31T07:50:10Z</time></trkpt>
<trkpt lat="45.78388800" lon="4.83122100"><ele>296.7000122376</ele><time>2010-07-31T07:50:12Z</time></trkpt>
<trkpt lat="45.78382700" lon="4.83117200"><ele>296.6000061384</ele><time>2010-07-31T07:50:14Z</time></trkpt>
<trkpt lat="45.78379200" lon="4.83108700"><ele>296.6000061384</ele><time>2010-07-31T07:50:16Z</time></trkpt>
<trkpt lat="45.78376600" lon="4.83101100"><ele>296.7999878568</ele><time>2010-07-31T07:50:18Z</time></trkpt>
<trkpt lat="45.78370300" lon="4.83094100"><ele>296.5000000392</ele><time>2010-07-31T07:50:20Z</time></trkpt>
<trkpt lat="45.78364900" lon="4.83088200"><ele>296.5000000392</ele><time>2010-07-31T07:50:22Z</time></trkpt>
<trkpt lat="45.78359100" lon="4.83080700"><ele>296.7999878568</ele><time>2010-07-31T07:50:24Z</time></trkpt>
<trkpt lat="45.78356200" lon="4.83073600"><ele>297.2000122536</ele><time>2010-07-31T07:50:26Z</time></trkpt>
<trkpt lat="45.78350900" lon="4.83066100"><ele>297.2000122536</ele><time>2010-07-31T07:50:28Z</time></trkpt>
<trkpt lat="45.78345600" lon="4.83059400"><ele>297.1000061544</ele><time>2010-07-31T07:50:30Z</time></trkpt>
<trkpt lat="45.78340500" lon="4.83052200"><ele>297.1000061544</ele><time>2010-07-31T07:50:32Z</time></trkpt>
<trkpt lat="45.78336000" lon="4.83045200"><ele>297.399993972</ele><time>2010-07-31T07:50:34Z</time></trkpt>
<trkpt lat="45.78331100" lon="4.83037600"><ele>297.399993972</ele><time>2010-07-31T07:50:36Z</time></trkpt>
<trkpt lat="45.78326600" lon="4.83030600"><ele>297.6000061704</ele><time>2010-07-31T07:50:38Z</time></trkpt>
<trkpt lat="45.78321800" lon="4.83024500"><ele>297.7000122696</ele><time>2010-07-31T07:50:40Z</time></trkpt>
<trkpt lat="45.78317000" lon="4.83019000"><ele>298.0000000872</ele><time>2010-07-31T07:50:42Z</time></trkpt>
<trkpt lat="45.78311900" lon="4.83012500"><ele>298.0000000872</ele><time>2010-07-31T07:50:44Z</time></trkpt>
<trkpt lat="45.78306600" lon="4.83005400"><ele>297.7999878888</ele><time>2010-07-31T07:50:46Z</time></trkpt>
<trkpt lat="45.78302200" lon="4.82999300"><ele>298.2000122856</ele><time>2010-07-31T07:50:48Z</time></trkpt>
<trkpt lat="45.78297700" lon="4.82993200"><ele>298.399994004</ele><time>2010-07-31T07:50:50Z</time></trkpt>
<trkpt lat="45.78292800" lon="4.82985700"><ele>298.6000062024</ele><time>2010-07-31T07:50:52Z</time></trkpt>
<trkpt lat="45.78287800" lon="4.82978100"><ele>298.399994004</ele><time>2010-07-31T07:50:54Z</time></trkpt>
<trkpt lat="45.78283100" lon="4.82971700"><ele>298.6000062024</ele><time>2010-07-31T07:50:56Z</time></trkpt>
<trkpt lat="45.78278700" lon="4.82965400"><ele>298.89999402</ele><time>2010-07-31T07:50:58Z</time></trkpt>
<trkpt lat="45.78273800" lon="4.82959500"><ele>298.89999402</ele><time>2010-07-31T07:51:00Z</time></trkpt>
<trkpt lat="45.78269300" lon="4.82952400"><ele>299.1000062184</ele><time>2010-07-31T07:51:02Z</time></trkpt>
<trkpt lat="45.78264100" lon="4.82944400"><ele>298.7999879208</ele><time>2010-07-31T07:51:04Z</time></trkpt>
<trkpt lat="45.78259300" lon="4.82937200"><ele>299.0000001192</ele><time>2010-07-31T07:51:06Z</time></trkpt>
<trkpt lat="45.78254000" lon="4.82929300"><ele>299.1000062184</ele><time>2010-07-31T07:51:08Z</time></trkpt>
<trkpt lat="45.78248000" lon="4.82921700"><ele>298.89999402</ele><time>2010-07-31T07:51:10Z</time></trkpt>
<trkpt lat="45.78241600" lon="4.82914000"><ele>298.7000123016</ele><time>2010-07-31T07:51:12Z</time></trkpt>
<trkpt lat="45.78235500" lon="4.82905300"><ele>298.5000001032</ele><time>2010-07-31T07:51:14Z</time></trkpt>
<trkpt lat="45.78231900" lon="4.82900500"><ele>298.5000001032</ele><time>2010-07-31T07:51:15Z</time></trkpt>
<trkpt lat="45.78225800" lon="4.82890600"><ele>298.1000061864</ele><time>2010-07-31T07:51:17Z</time></trkpt>
<trkpt lat="45.78219100" lon="4.82881900"><ele>298.2000122856</ele><time>2010-07-31T07:51:19Z</time></trkpt>
<trkpt lat="45.78212500" lon="4.82873500"><ele>298.1000061864</ele><time>2010-07-31T07:51:21Z</time></trkpt>
<trkpt lat="45.78205900" lon="4.82864800"><ele>298.2000122856</ele><time>2010-07-31T07:51:23Z</time></trkpt>
<trkpt lat="45.78198900" lon="4.82856100"><ele>298.0000000872</ele><time>2010-07-31T07:51:25Z</time></trkpt>
<trkpt lat="45.78194800" lon="4.82852400"><ele>297.6000061704</ele><time>2010-07-31T07:51:26Z</time></trkpt>
<trkpt lat="45.78191300" lon="4.82847300"><ele>297.5000000712</ele><time>2010-07-31T07:51:27Z</time></trkpt>
<trkpt lat="45.78187600" lon="4.82843500"><ele>297.7000122696</ele><time>2010-07-31T07:51:28Z</time></trkpt>
<trkpt lat="45.78181900" lon="4.82838300"><ele>297.7000122696</ele><time>2010-07-31T07:51:29Z</time></trkpt>
<trkpt lat="45.78173900" lon="4.82830900"><ele>297.7999878888</ele><time>2010-07-31T07:51:31Z</time></trkpt>
<trkpt lat="45.78169500" lon="4.82827700"><ele>297.7999878888</ele><time>2010-07-31T07:51:32Z</time></trkpt>
<trkpt lat="45.78161800" lon="4.82822200"><ele>297.7000122696</ele><time>2010-07-31T07:51:34Z</time></trkpt>
<trkpt lat="45.78154200" lon="4.82816200"><ele>296.39999394</ele><time>2010-07-31T07:51:36Z</time></trkpt>
<trkpt lat="45.78147100" lon="4.82812100"><ele>296.7000122376</ele><time>2010-07-31T07:51:38Z</time></trkpt>
<trkpt lat="45.78139100" lon="4.82807400"><ele>297.0000000552</ele><time>2010-07-31T07:51:40Z</time></trkpt>
<trkpt lat="45.78131900" lon="4.82801900"><ele>296.899993956</ele><time>2010-07-31T07:51:42Z</time></trkpt>
<trkpt lat="45.78126300" lon="4.82796100"><ele>296.7000122376</ele><time>2010-07-31T07:51:44Z</time></trkpt>
<trkpt lat="45.78120100" lon="4.82791700"><ele>296.7999878568</ele><time>2010-07-31T07:51:46Z</time></trkpt>
<trkpt lat="45.78114700" lon="4.82786600"><ele>297.399993972</ele><time>2010-07-31T07:51:48Z</time></trkpt>
<trkpt lat="45.78107400" lon="4.82782200"><ele>296.1000061224</ele><time>2010-07-31T07:51:50Z</time></trkpt>
<trkpt lat="45.78099100" lon="4.82777800"><ele>295.5000000072</ele><time>2010-07-31T07:51:52Z</time></trkpt>
<trkpt lat="45.78090600" lon="4.82774300"><ele>295.899993924</ele><time>2010-07-31T07:51:54Z</time></trkpt>
<trkpt lat="45.78085100" lon="4.82773000"><ele>296.1000061224</ele><time>2010-07-31T07:51:55Z</time></trkpt>
<trkpt lat="45.78080500" lon="4.82771500"><ele>295.899993924</ele><time>2010-07-31T07:51:56Z</time></trkpt>
<trkpt lat="45.78075900" lon="4.82770000"><ele>295.7999878248</ele><time>2010-07-31T07:51:57Z</time></trkpt>
<trkpt lat="45.78071500" lon="4.82767500"><ele>295.2999878088</ele><time>2010-07-31T07:51:58Z</time></trkpt>
<trkpt lat="45.78066500" lon="4.82765800"><ele>295.2000121896</ele><time>2010-07-31T07:51:59Z</time></trkpt>
<trkpt lat="45.78062000" lon="4.82763900"><ele>295.399993908</ele><time>2010-07-31T07:52:00Z</time></trkpt>
<trkpt lat="45.78057500" lon="4.82762600"><ele>295.399993908</ele><time>2010-07-31T07:52:01Z</time></trkpt>
<trkpt lat="45.78048400" lon="4.82760400"><ele>295.7000122056</ele><time>2010-07-31T07:52:03Z</time></trkpt>
<trkpt lat="45.78042600" lon="4.82758300"><ele>295.399993908</ele><time>2010-07-31T07:52:04Z</time></trkpt>
<trkpt lat="45.78036900" lon="4.82757800"><ele>295.5000000072</ele><time>2010-07-31T07:52:05Z</time></trkpt>
<trkpt lat="45.78032400" lon="4.82756000"><ele>295.6000061064</ele><time>2010-07-31T07:52:06Z</time></trkpt>
<trkpt lat="45.78027200" lon="4.82755400"><ele>295.5000000072</ele><time>2010-07-31T07:52:07Z</time></trkpt>
<trkpt lat="45.78022600" lon="4.82753800"><ele>295.7000122056</ele><time>2010-07-31T07:52:08Z</time></trkpt>
<trkpt lat="45.78017100" lon="4.82754100"><ele>296.1000061224</ele><time>2010-07-31T07:52:09Z</time></trkpt>
<trkpt lat="45.78009200" lon="4.82754000"><ele>297.2000122536</ele><time>2010-07-31T07:52:11Z</time></trkpt>
<trkpt lat="45.78002300" lon="4.82753200"><ele>295.7000122056</ele><time>2010-07-31T07:52:12Z</time></trkpt>
<trkpt lat="45.77997000" lon="4.82752400"><ele>295.7000122056</ele><time>2010-07-31T07:52:13Z</time></trkpt>
<trkpt lat="45.77988200" lon="4.82749800"><ele>296.1000061224</ele><time>2010-07-31T07:52:15Z</time></trkpt>
<trkpt lat="45.77980500" lon="4.82748400"><ele>296.39999394</ele><time>2010-07-31T07:52:17Z</time></trkpt>
<trkpt lat="45.77973200" lon="4.82753600"><ele>296.39999394</ele><time>2010-07-31T07:52:19Z</time></trkpt>
<trkpt lat="45.77966300" lon="4.82756100"><ele>297.1000061544</ele><time>2010-07-31T07:52:21Z</time></trkpt>
<trkpt lat="45.77961800" lon="4.82758100"><ele>298.2999879048</ele><time>2010-07-31T07:52:24Z</time></trkpt>
<trkpt lat="45.77955700" lon="4.82757100"><ele>299.2999879368</ele><time>2010-07-31T07:52:29Z</time></trkpt>
<trkpt lat="45.77948800" lon="4.82758900"><ele>299.399994036</ele><time>2010-07-31T07:52:31Z</time></trkpt>
<trkpt lat="45.77941800" lon="4.82760600"><ele>299.399994036</ele><time>2010-07-31T07:52:33Z</time></trkpt>
<trkpt lat="45.77933600" lon="4.82761300"><ele>300.0000001512</ele><time>2010-07-31T07:52:35Z</time></trkpt>
<trkpt lat="45.77923900" lon="4.82759400"><ele>299.799987648</ele><time>2010-07-31T07:52:37Z</time></trkpt>
<trkpt lat="45.77919300" lon="4.82758600"><ele>299.7000123336</ele><time>2010-07-31T07:52:38Z</time></trkpt>
<trkpt lat="45.77913700" lon="4.82757800"><ele>299.6000062344</ele><time>2010-07-31T07:52:39Z</time></trkpt>
<trkpt lat="45.77909100" lon="4.82758000"><ele>300.1000062504</ele><time>2010-07-31T07:52:40Z</time></trkpt>
<trkpt lat="45.77903700" lon="4.82757500"><ele>300.79998768</ele><time>2010-07-31T07:52:41Z</time></trkpt>
<trkpt lat="45.77896500" lon="4.82761700"><ele>303.9999999744</ele><time>2010-07-31T07:52:43Z</time></trkpt>
<trkpt lat="45.77893500" lon="4.82767200"><ele>303.1000060416</ele><time>2010-07-31T07:52:44Z</time></trkpt>
<trkpt lat="45.77885800" lon="4.82773400"><ele>301.4999998944</ele><time>2010-07-31T07:52:46Z</time></trkpt>
<trkpt lat="45.77877300" lon="4.82778400"><ele>300.79998768</ele><time>2010-07-31T07:52:48Z</time></trkpt>
<trkpt lat="45.77872900" lon="4.82780500"><ele>300.6000059616</ele><time>2010-07-31T07:52:49Z</time></trkpt>
<trkpt lat="45.77866700" lon="4.82784500"><ele>300.1000062504</ele><time>2010-07-31T07:52:51Z</time></trkpt>
<trkpt lat="45.77860500" lon="4.82790800"><ele>300.79998768</ele><time>2010-07-31T07:52:53Z</time></trkpt>
<trkpt lat="45.77854000" lon="4.82793100"><ele>302.1000060096</ele><time>2010-07-31T07:52:56Z</time></trkpt>
<trkpt lat="45.77847700" lon="4.82792000"><ele>302.1000060096</ele><time>2010-07-31T07:52:59Z</time></trkpt>
<trkpt lat="45.77843200" lon="4.82794400"><ele>304.3999938912</ele><time>2010-07-31T07:53:03Z</time></trkpt>
<trkpt lat="45.77838500" lon="4.82789800"><ele>303.4999999584</ele><time>2010-07-31T07:53:14Z</time></trkpt>
<trkpt lat="45.77833700" lon="4.82785500"><ele>303.7000121568</ele><time>2010-07-31T07:53:16Z</time></trkpt>
<trkpt lat="45.77825800" lon="4.82787500"><ele>302.9999999424</ele><time>2010-07-31T07:53:18Z</time></trkpt>
<trkpt lat="45.77820900" lon="4.82787600"><ele>301.8999938112</ele><time>2010-07-31T07:53:20Z</time></trkpt>
<trkpt lat="45.77816100" lon="4.82790000"><ele>302.1000060096</ele><time>2010-07-31T07:53:22Z</time></trkpt>
<trkpt lat="45.77810300" lon="4.82794900"><ele>302.8999938432</ele><time>2010-07-31T07:53:24Z</time></trkpt>
<trkpt lat="45.77804500" lon="4.82801500"><ele>302.4999999264</ele><time>2010-07-31T07:53:26Z</time></trkpt>
<trkpt lat="45.77799300" lon="4.82806300"><ele>302.7000121248</ele><time>2010-07-31T07:53:28Z</time></trkpt>
<trkpt lat="45.77795900" lon="4.82811600"><ele>302.2000121088</ele><time>2010-07-31T07:53:30Z</time></trkpt>
<trkpt lat="45.77789200" lon="4.82813600"><ele>302.2000121088</ele><time>2010-07-31T07:53:33Z</time></trkpt>
<trkpt lat="45.77782900" lon="4.82813700"><ele>301.9999999104</ele><time>2010-07-31T07:53:35Z</time></trkpt>
<trkpt lat="45.77779400" lon="4.82819500"><ele>302.299987728</ele><time>2010-07-31T07:53:37Z</time></trkpt>
<trkpt lat="45.77772800" lon="4.82825200"><ele>301.799987712</ele><time>2010-07-31T07:53:39Z</time></trkpt>
<trkpt lat="45.77768600" lon="4.82829400"><ele>301.1000059776</ele><time>2010-07-31T07:53:40Z</time></trkpt>
<trkpt lat="45.77763200" lon="4.82835500"><ele>302.1000060096</ele><time>2010-07-31T07:53:42Z</time></trkpt>
<trkpt lat="45.77757300" lon="4.82840600"><ele>300.79998768</ele><time>2010-07-31T07:53:44Z</time></trkpt>
<trkpt lat="45.77751300" lon="4.82843900"><ele>299.8999937472</ele><time>2010-07-31T07:53:46Z</time></trkpt>
<trkpt lat="45.77746900" lon="4.82848000"><ele>301.6000059936</ele><time>2010-07-31T07:53:48Z</time></trkpt>
<trkpt lat="45.77738200" lon="4.82854200"><ele>301.799987712</ele><time>2010-07-31T07:53:50Z</time></trkpt>
<trkpt lat="45.77733700" lon="4.82856200"><ele>301.9999999104</ele><time>2010-07-31T07:53:51Z</time></trkpt>
<trkpt lat="45.77725900" lon="4.82862200"><ele>304.1000060736</ele><time>2010-07-31T07:53:53Z</time></trkpt>
<trkpt lat="45.77717900" lon="4.82866700"><ele>304.299987792</ele><time>2010-07-31T07:53:55Z</time></trkpt>
<trkpt lat="45.77713400" lon="4.82868700"><ele>304.4999999904</ele><time>2010-07-31T07:53:56Z</time></trkpt>
<trkpt lat="45.77705500" lon="4.82872800"><ele>304.799987808</ele><time>2010-07-31T07:53:58Z</time></trkpt>
<trkpt lat="45.77698200" lon="4.82877000"><ele>304.799987808</ele><time>2010-07-31T07:54:00Z</time></trkpt>
<trkpt lat="45.77690500" lon="4.82881300"><ele>305.5000000224</ele><time>2010-07-31T07:54:02Z</time></trkpt>
<trkpt lat="45.77682800" lon="4.82885200"><ele>305.5000000224</ele><time>2010-07-31T07:54:04Z</time></trkpt>
<trkpt lat="45.77680400" lon="4.82891400"><ele>308.0000001024</ele><time>2010-07-31T07:54:05Z</time></trkpt>
<trkpt lat="45.77674000" lon="4.82898000"><ele>309.7000123488</ele><time>2010-07-31T07:54:07Z</time></trkpt>
<trkpt lat="45.77666200" lon="4.82902300"><ele>309.7999876632</ele><time>2010-07-31T07:54:09Z</time></trkpt>
<trkpt lat="45.77659000" lon="4.82906600"><ele>309.7999876632</ele><time>2010-07-31T07:54:11Z</time></trkpt>
<trkpt lat="45.77652500" lon="4.82914600"><ele>309.0000001344</ele><time>2010-07-31T07:54:13Z</time></trkpt>
<trkpt lat="45.77646400" lon="4.82922600"><ele>307.7000122848</ele><time>2010-07-31T07:54:15Z</time></trkpt>
<trkpt lat="45.77639200" lon="4.82927300"><ele>305.8999939392</ele><time>2010-07-31T07:54:17Z</time></trkpt>
<trkpt lat="45.77632300" lon="4.82932600"><ele>304.7000121888</ele><time>2010-07-31T07:54:19Z</time></trkpt>
<trkpt lat="45.77626600" lon="4.82938100"><ele>303.29998776</ele><time>2010-07-31T07:54:21Z</time></trkpt>
<trkpt lat="45.77619200" lon="4.82942700"><ele>303.29998776</ele><time>2010-07-31T07:54:23Z</time></trkpt>
<trkpt lat="45.77615000" lon="4.82945900"><ele>302.299987728</ele><time>2010-07-31T07:54:24Z</time></trkpt>
<trkpt lat="45.77610700" lon="4.82948800"><ele>301.7000120928</ele><time>2010-07-31T07:54:25Z</time></trkpt>
<trkpt lat="45.77603600" lon="4.82955200"><ele>302.1000060096</ele><time>2010-07-31T07:54:27Z</time></trkpt>
<trkpt lat="45.77597400" lon="4.82959700"><ele>302.7000121248</ele><time>2010-07-31T07:54:29Z</time></trkpt>
<trkpt lat="45.77590300" lon="4.82965700"><ele>303.6000060576</ele><time>2010-07-31T07:54:31Z</time></trkpt>
<trkpt lat="45.77582100" lon="4.82966800"><ele>304.4999999904</ele><time>2010-07-31T07:54:33Z</time></trkpt>
<trkpt lat="45.77574800" lon="4.82973400"><ele>305.1000061056</ele><time>2010-07-31T07:54:35Z</time></trkpt>
<trkpt lat="45.77567100" lon="4.82978600"><ele>305.1000061056</ele><time>2010-07-31T07:54:37Z</time></trkpt>
<trkpt lat="45.77561200" lon="4.82985200"><ele>304.299987792</ele><time>2010-07-31T07:54:39Z</time></trkpt>
<trkpt lat="45.77553400" lon="4.82990600"><ele>304.299987792</ele><time>2010-07-31T07:54:41Z</time></trkpt>
<trkpt lat="45.77546500" lon="4.82994800"><ele>304.3999938912</ele><time>2010-07-31T07:54:43Z</time></trkpt>
<trkpt lat="45.77540300" lon="4.82999500"><ele>303.8999938752</ele><time>2010-07-31T07:54:45Z</time></trkpt>
<trkpt lat="45.77533700" lon="4.83003600"><ele>303.9999999744</ele><time>2010-07-31T07:54:47Z</time></trkpt>
<trkpt lat="45.77529000" lon="4.83003800"><ele>303.7000121568</ele><time>2010-07-31T07:54:49Z</time></trkpt>
<trkpt lat="45.77525100" lon="4.83009900"><ele>303.799987776</ele><time>2010-07-31T07:54:53Z</time></trkpt>
<trkpt lat="45.77521500" lon="4.83018300"><ele>303.799987776</ele><time>2010-07-31T07:54:56Z</time></trkpt>
<trkpt lat="45.77517700" lon="4.83023400"><ele>302.6000060256</ele><time>2010-07-31T07:54:58Z</time></trkpt>
<trkpt lat="45.77510800" lon="4.83025700"><ele>301.4999998944</ele><time>2010-07-31T07:55:00Z</time></trkpt>
<trkpt lat="45.77503900" lon="4.83028300"><ele>301.3999937952</ele><time>2010-07-31T07:55:02Z</time></trkpt>
<trkpt lat="45.77497100" lon="4.83031400"><ele>301.299987696</ele><time>2010-07-31T07:55:04Z</time></trkpt>
<trkpt lat="45.77491200" lon="4.83034300"><ele>301.1000059776</ele><time>2010-07-31T07:55:06Z</time></trkpt>
<trkpt lat="45.77483900" lon="4.83037800"><ele>301.299987696</ele><time>2010-07-31T07:55:08Z</time></trkpt>
<trkpt lat="45.77475800" lon="4.83043000"><ele>302.7000121248</ele><time>2010-07-31T07:55:11Z</time></trkpt>
<trkpt lat="45.77466600" lon="4.83046000"><ele>302.299987728</ele><time>2010-07-31T07:55:13Z</time></trkpt>
<trkpt lat="45.77462300" lon="4.83047900"><ele>303.2000121408</ele><time>2010-07-31T07:55:14Z</time></trkpt>
<trkpt lat="45.77455600" lon="4.83050900"><ele>302.9999999424</ele><time>2010-07-31T07:55:16Z</time></trkpt>
<trkpt lat="45.77450300" lon="4.83057500"><ele>302.4999999264</ele><time>2010-07-31T07:55:18Z</time></trkpt>
<trkpt lat="45.77446200" lon="4.83060600"><ele>302.3999938272</ele><time>2010-07-31T07:55:20Z</time></trkpt>
<trkpt lat="45.77441500" lon="4.83061800"><ele>302.6000060256</ele><time>2010-07-31T07:55:25Z</time></trkpt>
<trkpt lat="45.77433400" lon="4.83066700"><ele>304.799987808</ele><time>2010-07-31T07:55:32Z</time></trkpt>
<trkpt lat="45.77429500" lon="4.83075000"><ele>304.799987808</ele><time>2010-07-31T07:55:34Z</time></trkpt>
<trkpt lat="45.77430200" lon="4.83086200"><ele>303.799987776</ele><time>2010-07-31T07:55:36Z</time></trkpt>
<trkpt lat="45.77432100" lon="4.83096800"><ele>303.799987776</ele><time>2010-07-31T07:55:38Z</time></trkpt>
<trkpt lat="45.77432700" lon="4.83103800"><ele>302.9999999424</ele><time>2010-07-31T07:55:39Z</time></trkpt>
<trkpt lat="45.77434200" lon="4.83116900"><ele>303.1000060416</ele><time>2010-07-31T07:55:41Z</time></trkpt>
<trkpt lat="45.77434900" lon="4.83123300"><ele>302.799987744</ele><time>2010-07-31T07:55:42Z</time></trkpt>
<trkpt lat="45.77435300" lon="4.83136500"><ele>302.7000121248</ele><time>2010-07-31T07:55:44Z</time></trkpt>
<trkpt lat="45.77435300" lon="4.83145400"><ele>302.7000121248</ele><time>2010-07-31T07:55:46Z</time></trkpt>
<trkpt lat="45.77436400" lon="4.83153000"><ele>301.8999938112</ele><time>2010-07-31T07:55:48Z</time></trkpt>
<trkpt lat="45.77437100" lon="4.83161400"><ele>301.799987712</ele><time>2010-07-31T07:55:50Z</time></trkpt>
<trkpt lat="45.77435200" lon="4.83169200"><ele>302.799987744</ele><time>2010-07-31T07:55:52Z</time></trkpt>
<trkpt lat="45.77434300" lon="4.83178100"><ele>302.9999999424</ele><time>2010-07-31T07:55:54Z</time></trkpt>
<trkpt lat="45.77435100" lon="4.83188600"><ele>303.1000060416</ele><time>2010-07-31T07:55:56Z</time></trkpt>
<trkpt lat="45.77435300" lon="4.83198100"><ele>302.4999999264</ele><time>2010-07-31T07:55:58Z</time></trkpt>
<trkpt lat="45.77435600" lon="4.83208800"><ele>302.2000121088</ele><time>2010-07-31T07:56:00Z</time></trkpt>
<trkpt lat="45.77429400" lon="4.83214400"><ele>301.3999937952</ele><time>2010-07-31T07:56:02Z</time></trkpt>
<trkpt lat="45.77423100" lon="4.83218900"><ele>301.1000059776</ele><time>2010-07-31T07:56:04Z</time></trkpt>
<trkpt lat="45.77415400" lon="4.83218700"><ele>301.2000120768</ele><time>2010-07-31T07:56:06Z</time></trkpt>
<trkpt lat="45.77410300" lon="4.83218000"><ele>301.299987696</ele><time>2010-07-31T07:56:07Z</time></trkpt>
<trkpt lat="45.77405600" lon="4.83218200"><ele>301.4999998944</ele><time>2010-07-31T07:56:08Z</time></trkpt>
<trkpt lat="45.77399700" lon="4.83217400"><ele>301.6000059936</ele><time>2010-07-31T07:56:09Z</time></trkpt>
<trkpt lat="45.77392500" lon="4.83215500"><ele>301.8999938112</ele><time>2010-07-31T07:56:11Z</time></trkpt>
<trkpt lat="45.77384100" lon="4.83211000"><ele>302.1000060096</ele><time>2010-07-31T07:56:13Z</time></trkpt>
<trkpt lat="45.77377500" lon="4.83207200"><ele>302.2000121088</ele><time>2010-07-31T07:56:14Z</time></trkpt>
<trkpt lat="45.77371000" lon="4.83204600"><ele>302.4999999264</ele><time>2010-07-31T07:56:15Z</time></trkpt>
<trkpt lat="45.77363400" lon="4.83203600"><ele>302.7000121248</ele><time>2010-07-31T07:56:16Z</time></trkpt>
<trkpt lat="45.77356300" lon="4.83204000"><ele>303.2000121408</ele><time>2010-07-31T07:56:17Z</time></trkpt>
<trkpt lat="45.77350300" lon="4.83204200"><ele>303.4999999584</ele><time>2010-07-31T07:56:18Z</time></trkpt>
<trkpt lat="45.77343600" lon="4.83206000"><ele>304.2000121728</ele><time>2010-07-31T07:56:19Z</time></trkpt>
<trkpt lat="45.77335100" lon="4.83205500"><ele>304.299987792</ele><time>2010-07-31T07:56:20Z</time></trkpt>
<trkpt lat="45.77329500" lon="4.83202800"><ele>304.7000121888</ele><time>2010-07-31T07:56:21Z</time></trkpt>
<trkpt lat="45.77323800" lon="4.83201700"><ele>304.8999939072</ele><time>2010-07-31T07:56:22Z</time></trkpt>
<trkpt lat="45.77319600" lon="4.83198200"><ele>305.299987824</ele><time>2010-07-31T07:56:23Z</time></trkpt>
<trkpt lat="45.77313800" lon="4.83196000"><ele>305.6000061216</ele><time>2010-07-31T07:56:24Z</time></trkpt>
<trkpt lat="45.77308900" lon="4.83195300"><ele>306.0000000384</ele><time>2010-07-31T07:56:25Z</time></trkpt>
<trkpt lat="45.77304100" lon="4.83197800"><ele>307.0000000704</ele><time>2010-07-31T07:56:26Z</time></trkpt>
<trkpt lat="45.77295500" lon="4.83196500"><ele>307.1000061696</ele><time>2010-07-31T07:56:28Z</time></trkpt>
<trkpt lat="45.77285700" lon="4.83194200"><ele>304.1000060736</ele><time>2010-07-31T07:56:30Z</time></trkpt>
<trkpt lat="45.77280100" lon="4.83192600"><ele>299.8999937472</ele><time>2010-07-31T07:56:31Z</time></trkpt>
<trkpt lat="45.77278100" lon="4.83186200"><ele>298.2000122856</ele><time>2010-07-31T07:56:34Z</time></trkpt>
<trkpt lat="45.77275100" lon="4.83178500"><ele>298.2000122856</ele><time>2010-07-31T07:56:36Z</time></trkpt>
<trkpt lat="45.77274100" lon="4.83169700"><ele>298.399994004</ele><time>2010-07-31T07:56:37Z</time></trkpt>
<trkpt lat="45.77269300" lon="4.83160000"><ele>298.5000001032</ele><time>2010-07-31T07:56:39Z</time></trkpt>
<trkpt lat="45.77265000" lon="4.83156000"><ele>298.0000000872</ele><time>2010-07-31T07:56:40Z</time></trkpt>
<trkpt lat="45.77258300" lon="4.83148300"><ele>297.7000122696</ele><time>2010-07-31T07:56:42Z</time></trkpt>
<trkpt lat="45.77252800" lon="4.83148400"><ele>298.399994004</ele><time>2010-07-31T07:56:44Z</time></trkpt>
<trkpt lat="45.77247900" lon="4.83147600"><ele>296.39999394</ele><time>2010-07-31T07:56:49Z</time></trkpt>
<trkpt lat="45.77242500" lon="4.83158000"><ele>298.2000122856</ele><time>2010-07-31T07:57:05Z</time></trkpt>
<trkpt lat="45.77239800" lon="4.83164100"><ele>298.89999402</ele><time>2010-07-31T07:57:06Z</time></trkpt>
<trkpt lat="45.77237400" lon="4.83171900"><ele>299.2000123176</ele><time>2010-07-31T07:57:07Z</time></trkpt>
<trkpt lat="45.77236000" lon="4.83185500"><ele>299.1000062184</ele><time>2010-07-31T07:57:09Z</time></trkpt>
<trkpt lat="45.77232100" lon="4.83191300"><ele>297.7000122696</ele><time>2010-07-31T07:57:11Z</time></trkpt>
<trkpt lat="45.77229000" lon="4.83199100"><ele>294.6000060744</ele><time>2010-07-31T07:57:13Z</time></trkpt>
<trkpt lat="45.77223200" lon="4.83201600"><ele>293.399993844</ele><time>2010-07-31T07:57:14Z</time></trkpt>
<trkpt lat="45.77217800" lon="4.83205000"><ele>292.6000060104</ele><time>2010-07-31T07:57:15Z</time></trkpt>
<trkpt lat="45.77212700" lon="4.83209200"><ele>293.6000060424</ele><time>2010-07-31T07:57:16Z</time></trkpt>
<trkpt lat="45.77208500" lon="4.83212400"><ele>292.1000059944</ele><time>2010-07-31T07:57:17Z</time></trkpt>
<trkpt lat="45.77204400" lon="4.83216100"><ele>291.4999998792</ele><time>2010-07-31T07:57:18Z</time></trkpt>
<trkpt lat="45.77198500" lon="4.83223200"><ele>289.50000012</ele><time>2010-07-31T07:57:20Z</time></trkpt>
<trkpt lat="45.77194900" lon="4.83228400"><ele>289.000000104</ele><time>2010-07-31T07:57:22Z</time></trkpt>
<trkpt lat="45.77191600" lon="4.83233600"><ele>289.000000104</ele><time>2010-07-31T07:57:26Z</time></trkpt>
<trkpt lat="45.77191500" lon="4.83240400"><ele>287.00000004</ele><time>2010-07-31T07:57:28Z</time></trkpt>
<trkpt lat="45.77191200" lon="4.83249400"><ele>286.8999939408</ele><time>2010-07-31T07:57:31Z</time></trkpt>
<trkpt lat="45.77186200" lon="4.83246300"><ele>287.2999878576</ele><time>2010-07-31T07:57:32Z</time></trkpt>
<trkpt lat="45.77181700" lon="4.83238600"><ele>288.000000072</ele><time>2010-07-31T07:57:35Z</time></trkpt>
<trkpt lat="45.77181400" lon="4.83232000"><ele>287.1000061392</ele><time>2010-07-31T07:57:37Z</time></trkpt>
<trkpt lat="45.77181800" lon="4.83221200"><ele>286.2000122064</ele><time>2010-07-31T07:57:39Z</time></trkpt>
<trkpt lat="45.77181200" lon="4.83214500"><ele>285.7999878096</ele><time>2010-07-31T07:57:40Z</time></trkpt>
<trkpt lat="45.77180600" lon="4.83205400"><ele>283.3999938288</ele><time>2010-07-31T07:57:41Z</time></trkpt>
<trkpt lat="45.77179900" lon="4.83197900"><ele>282.499999896</ele><time>2010-07-31T07:57:42Z</time></trkpt>
<trkpt lat="45.77178700" lon="4.83190500"><ele>282.2999876976</ele><time>2010-07-31T07:57:43Z</time></trkpt>
<trkpt lat="45.77178300" lon="4.83184000"><ele>282.2999876976</ele><time>2010-07-31T07:57:44Z</time></trkpt>
<trkpt lat="45.77178100" lon="4.83173500"><ele>281.99999988</ele><time>2010-07-31T07:57:46Z</time></trkpt>
<trkpt lat="45.77174900" lon="4.83164500"><ele>281.7000120624</ele><time>2010-07-31T07:57:48Z</time></trkpt>
<trkpt lat="45.77169100" lon="4.83159700"><ele>280.7000123352</ele><time>2010-07-31T07:57:50Z</time></trkpt>
<trkpt lat="45.77160800" lon="4.83158200"><ele>279.0000000888</ele><time>2010-07-31T07:57:52Z</time></trkpt>
<trkpt lat="45.77156200" lon="4.83157800"><ele>279.3999940056</ele><time>2010-07-31T07:57:53Z</time></trkpt>
<trkpt lat="45.77150500" lon="4.83158800"><ele>279.2000122872</ele><time>2010-07-31T07:57:54Z</time></trkpt>
<trkpt lat="45.77143700" lon="4.83159400"><ele>278.8999939896</ele><time>2010-07-31T07:57:55Z</time></trkpt>
<trkpt lat="45.77137700" lon="4.83159800"><ele>278.7000122712</ele><time>2010-07-31T07:57:56Z</time></trkpt>
<trkpt lat="45.77129500" lon="4.83157500"><ele>277.60000614</ele><time>2010-07-31T07:57:58Z</time></trkpt>
<trkpt lat="45.77119400" lon="4.83155900"><ele>272.8999937976</ele><time>2010-07-31T07:58:00Z</time></trkpt>
<trkpt lat="45.77114000" lon="4.83156200"><ele>271.700012352</ele><time>2010-07-31T07:58:01Z</time></trkpt>
<trkpt lat="45.77108200" lon="4.83156600"><ele>271.700012352</ele><time>2010-07-31T07:58:02Z</time></trkpt>
<trkpt lat="45.77101100" lon="4.83156200"><ele>271.4999998488</ele><time>2010-07-31T07:58:03Z</time></trkpt>
<trkpt lat="45.77095400" lon="4.83157500"><ele>271.7999876664</ele><time>2010-07-31T07:58:04Z</time></trkpt>
<trkpt lat="45.77088700" lon="4.83157500"><ele>271.200012336</ele><time>2010-07-31T07:58:06Z</time></trkpt>
<trkpt lat="45.77083000" lon="4.83156800"><ele>271.3999937496</ele><time>2010-07-31T07:58:08Z</time></trkpt>
<trkpt lat="45.77078200" lon="4.83153300"><ele>272.60000598</ele><time>2010-07-31T07:58:13Z</time></trkpt>
<trkpt lat="45.77073500" lon="4.83151200"><ele>273.2000120952</ele><time>2010-07-31T07:58:15Z</time></trkpt>
<trkpt lat="45.77066300" lon="4.83152200"><ele>273.2000120952</ele><time>2010-07-31T07:58:18Z</time></trkpt>
<trkpt lat="45.77059500" lon="4.83151800"><ele>273.8999938296</ele><time>2010-07-31T07:58:20Z</time></trkpt>
<trkpt lat="45.77052600" lon="4.83150200"><ele>274.2999877464</ele><time>2010-07-31T07:58:22Z</time></trkpt>
<trkpt lat="45.77046400" lon="4.83150400"><ele>274.2999877464</ele><time>2010-07-31T07:58:24Z</time></trkpt>
<trkpt lat="45.77036800" lon="4.83152400"><ele>274.7000121432</ele><time>2010-07-31T07:58:26Z</time></trkpt>
<trkpt lat="45.77032400" lon="4.83150400"><ele>272.8999937976</ele><time>2010-07-31T07:58:27Z</time></trkpt>
<trkpt lat="45.77025100" lon="4.83152000"><ele>271.2999876504</ele><time>2010-07-31T07:58:30Z</time></trkpt>
<trkpt lat="45.77016800" lon="4.83153600"><ele>270.2999879232</ele><time>2010-07-31T07:58:32Z</time></trkpt>
<trkpt lat="45.77011900" lon="4.83153700"><ele>270.3999940224</ele><time>2010-07-31T07:58:34Z</time></trkpt>
<trkpt lat="45.77007300" lon="4.83153200"><ele>270.1000062048</ele><time>2010-07-31T07:58:36Z</time></trkpt>
<trkpt lat="45.76998800" lon="4.83152600"><ele>270.200012304</ele><time>2010-07-31T07:58:38Z</time></trkpt>
<trkpt lat="45.76993800" lon="4.83153000"><ele>269.700012288</ele><time>2010-07-31T07:58:39Z</time></trkpt>
<trkpt lat="45.76989000" lon="4.83152700"><ele>269.700012288</ele><time>2010-07-31T07:58:40Z</time></trkpt>
<trkpt lat="45.76983300" lon="4.83156500"><ele>269.5000000896</ele><time>2010-07-31T07:58:41Z</time></trkpt>
<trkpt lat="45.76979400" lon="4.83160600"><ele>270.3999940224</ele><time>2010-07-31T07:58:42Z</time></trkpt>
<trkpt lat="45.76974500" lon="4.83160100"><ele>270.0000001056</ele><time>2010-07-31T07:58:43Z</time></trkpt>
<trkpt lat="45.76969400" lon="4.83167600"><ele>266.3999938944</ele><time>2010-07-31T07:58:45Z</time></trkpt>
<trkpt lat="45.76963500" lon="4.83173800"><ele>265.6000060608</ele><time>2010-07-31T07:58:47Z</time></trkpt>
<trkpt lat="45.76957600" lon="4.83179300"><ele>264.6000060288</ele><time>2010-07-31T07:58:49Z</time></trkpt>
<trkpt lat="45.76951900" lon="4.83184100"><ele>263.9999999136</ele><time>2010-07-31T07:58:52Z</time></trkpt>
<trkpt lat="45.76945200" lon="4.83186700"><ele>264.1000060128</ele><time>2010-07-31T07:58:54Z</time></trkpt>
<trkpt lat="45.76937400" lon="4.83191200"><ele>263.7999877152</ele><time>2010-07-31T07:58:56Z</time></trkpt>
<trkpt lat="45.76929600" lon="4.83194300"><ele>263.3999937984</ele><time>2010-07-31T07:58:58Z</time></trkpt>
<trkpt lat="45.76923300" lon="4.83193200"><ele>262.8999937824</ele><time>2010-07-31T07:58:59Z</time></trkpt>
<trkpt lat="45.76916500" lon="4.83195700"><ele>262.6000059648</ele><time>2010-07-31T07:59:00Z</time></trkpt>
<trkpt lat="45.76910600" lon="4.83197900"><ele>262.1000062536</ele><time>2010-07-31T07:59:01Z</time></trkpt>
<trkpt lat="45.76903800" lon="4.83197700"><ele>261.3999940392</ele><time>2010-07-31T07:59:03Z</time></trkpt>
<trkpt lat="45.76899800" lon="4.83203400"><ele>260.6000062056</ele><time>2010-07-31T07:59:06Z</time></trkpt>
<trkpt lat="45.76895000" lon="4.83208500"><ele>260.8999940232</ele><time>2010-07-31T07:59:10Z</time></trkpt>
<trkpt lat="45.76893000" lon="4.83201000"><ele>259.7000122728</ele><time>2010-07-31T07:59:12Z</time></trkpt>
<trkpt lat="45.76891800" lon="4.83194000"><ele>256.3999938792</ele><time>2010-07-31T07:59:15Z</time></trkpt>
<trkpt lat="45.76892000" lon="4.83184600"><ele>254.6999968728</ele><time>2010-07-31T07:59:28Z</time></trkpt>
<trkpt lat="45.76887600" lon="4.83177500"><ele>253.1000059656</ele><time>2010-07-31T07:59:31Z</time></trkpt>
<trkpt lat="45.76879100" lon="4.83179100"><ele>253.1000059656</ele><time>2010-07-31T07:59:33Z</time></trkpt>
<trkpt lat="45.76873700" lon="4.83180000"><ele>252.4999998504</ele><time>2010-07-31T07:59:34Z</time></trkpt>
<trkpt lat="45.76867200" lon="4.83182000"><ele>252.6000062544</ele><time>2010-07-31T07:59:35Z</time></trkpt>
<trkpt lat="45.76861400" lon="4.83183600"><ele>252.4999998504</ele><time>2010-07-31T07:59:36Z</time></trkpt>
<trkpt lat="45.76855100" lon="4.83184400"><ele>252.3999937512</ele><time>2010-07-31T07:59:37Z</time></trkpt>
<trkpt lat="45.76849200" lon="4.83186300"><ele>252.1000062384</ele><time>2010-07-31T07:59:38Z</time></trkpt>
<trkpt lat="45.76841300" lon="4.83186600"><ele>251.5000001232</ele><time>2010-07-31T07:59:39Z</time></trkpt>
<trkpt lat="45.76834700" lon="4.83187400"><ele>251.3000031648</ele><time>2010-07-31T07:59:40Z</time></trkpt>
<trkpt lat="45.76827200" lon="4.83188600"><ele>251.5000001232</ele><time>2010-07-31T07:59:41Z</time></trkpt>
<trkpt lat="45.76820100" lon="4.83189600"><ele>252.3000031968</ele><time>2010-07-31T07:59:42Z</time></trkpt>
<trkpt lat="45.76816500" lon="4.83197800"><ele>253.3999937832</ele><time>2010-07-31T07:59:43Z</time></trkpt>
<trkpt lat="45.76814600" lon="4.83207200"><ele>252.9999998664</ele><time>2010-07-31T07:59:45Z</time></trkpt>
<trkpt lat="45.76812300" lon="4.83216000"><ele>252.9999998664</ele><time>2010-07-31T07:59:47Z</time></trkpt>
<trkpt lat="45.76810900" lon="4.83226600"><ele>246.6000060624</ele><time>2010-07-31T07:59:50Z</time></trkpt>
<trkpt lat="45.76808500" lon="4.83237000"><ele>246.1000060464</ele><time>2010-07-31T07:59:52Z</time></trkpt>
<trkpt lat="45.76807600" lon="4.83243800"><ele>245.6999968896</ele><time>2010-07-31T07:59:53Z</time></trkpt>
<trkpt lat="45.76807400" lon="4.83253100"><ele>244.9999999152</ele><time>2010-07-31T07:59:55Z</time></trkpt>
<trkpt lat="45.76801400" lon="4.83257400"><ele>244.3000029408</ele><time>2010-07-31T07:59:57Z</time></trkpt>
<trkpt lat="45.76796900" lon="4.83258300"><ele>245.6000060304</ele><time>2010-07-31T07:59:59Z</time></trkpt>
<trkpt lat="45.76790000" lon="4.83260700"><ele>245.1999968736</ele><time>2010-07-31T08:00:01Z</time></trkpt>
<trkpt lat="45.76780900" lon="4.83261800"><ele>244.899993816</ele><time>2010-07-31T08:00:03Z</time></trkpt>
<trkpt lat="45.76772900" lon="4.83260700"><ele>244.899993816</ele><time>2010-07-31T08:00:05Z</time></trkpt>
<trkpt lat="45.76764800" lon="4.83261300"><ele>244.899993816</ele><time>2010-07-31T08:00:07Z</time></trkpt>
<trkpt lat="45.76761200" lon="4.83268400"><ele>244.6000059984</ele><time>2010-07-31T08:00:09Z</time></trkpt>
<trkpt lat="45.76763900" lon="4.83278800"><ele>245.6999968896</ele><time>2010-07-31T08:00:11Z</time></trkpt>
<trkpt lat="45.76758700" lon="4.83282100"><ele>249.1000061424</ele><time>2010-07-31T08:00:14Z</time></trkpt>
<trkpt lat="45.76753400" lon="4.83283500"><ele>247.6999969536</ele><time>2010-07-31T08:00:15Z</time></trkpt>
<trkpt lat="45.76752400" lon="4.83292500"><ele>242.3999940408</ele><time>2010-07-31T08:00:16Z</time></trkpt>
<trkpt lat="45.76751800" lon="4.83299200"><ele>240.1000061592</ele><time>2010-07-31T08:00:17Z</time></trkpt>
<trkpt lat="45.76747300" lon="4.83310200"><ele>239.3999939448</ele><time>2010-07-31T08:00:19Z</time></trkpt>
<trkpt lat="45.76744600" lon="4.83319000"><ele>237.3999938808</ele><time>2010-07-31T08:00:21Z</time></trkpt>
<trkpt lat="45.76741600" lon="4.83327400"><ele>234.6000059832</ele><time>2010-07-31T08:00:23Z</time></trkpt>
<trkpt lat="45.76739900" lon="4.83336900"><ele>231.6999970512</ele><time>2010-07-31T08:00:25Z</time></trkpt>
<trkpt lat="45.76741600" lon="4.83348600"><ele>228.10000608</ele><time>2010-07-31T08:00:27Z</time></trkpt>
<trkpt lat="45.76741800" lon="4.83361000"><ele>227.9999999808</ele><time>2010-07-31T08:00:29Z</time></trkpt>
<trkpt lat="45.76742800" lon="4.83372900"><ele>226.8999938496</ele><time>2010-07-31T08:00:31Z</time></trkpt>
<trkpt lat="45.76742900" lon="4.83385100"><ele>226.100006016</ele><time>2010-07-31T08:00:33Z</time></trkpt>
<trkpt lat="45.76742900" lon="4.83395300"><ele>226.100006016</ele><time>2010-07-31T08:00:35Z</time></trkpt>
<trkpt lat="45.76744800" lon="4.83406300"><ele>225.8999938176</ele><time>2010-07-31T08:00:37Z</time></trkpt>
<trkpt lat="45.76743200" lon="4.83414700"><ele>224.4999998688</ele><time>2010-07-31T08:00:39Z</time></trkpt>
<trkpt lat="45.76743600" lon="4.83425600"><ele>224.600005968</ele><time>2010-07-31T08:00:41Z</time></trkpt>
<trkpt lat="45.76741300" lon="4.83436300"><ele>224.3000029104</ele><time>2010-07-31T08:00:43Z</time></trkpt>
<trkpt lat="45.76733900" lon="4.83437400"><ele>223.8999937536</ele><time>2010-07-31T08:00:46Z</time></trkpt>
<trkpt lat="45.76731000" lon="4.83443300"><ele>224.100005952</ele><time>2010-07-31T08:00:48Z</time></trkpt>
<trkpt lat="45.76731500" lon="4.83453000"><ele>224.1999968112</ele><time>2010-07-31T08:00:50Z</time></trkpt>
<trkpt lat="45.76734600" lon="4.83462200"><ele>224.6999968272</ele><time>2010-07-31T08:00:52Z</time></trkpt>
<trkpt lat="45.76739100" lon="4.83475000"><ele>225.4999999008</ele><time>2010-07-31T08:00:54Z</time></trkpt>
<trkpt lat="45.76740700" lon="4.83481100"><ele>225.600006</ele><time>2010-07-31T08:00:55Z</time></trkpt>
<trkpt lat="45.76742600" lon="4.83489100"><ele>225.6999968592</ele><time>2010-07-31T08:00:56Z</time></trkpt>
<trkpt lat="45.76745300" lon="4.83496000"><ele>225.8000029584</ele><time>2010-07-31T08:00:57Z</time></trkpt>
<trkpt lat="45.76748100" lon="4.83503900"><ele>225.8999938176</ele><time>2010-07-31T08:00:58Z</time></trkpt>
<trkpt lat="45.76749500" lon="4.83511900"><ele>225.8999938176</ele><time>2010-07-31T08:00:59Z</time></trkpt>
<trkpt lat="45.76751700" lon="4.83521200"><ele>225.6999968592</ele><time>2010-07-31T08:01:00Z</time></trkpt>
<trkpt lat="45.76752800" lon="4.83528600"><ele>225.8000029584</ele><time>2010-07-31T08:01:01Z</time></trkpt>
<trkpt lat="45.76754400" lon="4.83538200"><ele>226.100006016</ele><time>2010-07-31T08:01:02Z</time></trkpt>
<trkpt lat="45.76754700" lon="4.83546700"><ele>226.4999999328</ele><time>2010-07-31T08:01:03Z</time></trkpt>
<trkpt lat="45.76756100" lon="4.83555200"><ele>226.8000029904</ele><time>2010-07-31T08:01:04Z</time></trkpt>
<trkpt lat="45.76757300" lon="4.83562900"><ele>226.8000029904</ele><time>2010-07-31T08:01:05Z</time></trkpt>
<trkpt lat="45.76752300" lon="4.83579300"><ele>226.8000029904</ele><time>2010-07-31T08:01:07Z</time></trkpt>
<trkpt lat="45.76750000" lon="4.83585400"><ele>226.6999968912</ele><time>2010-07-31T08:01:08Z</time></trkpt>
<trkpt lat="45.76742900" lon="4.83591600"><ele>226.6999968912</ele><time>2010-07-31T08:01:10Z</time></trkpt>
<trkpt lat="45.76738000" lon="4.83599100"><ele>227.1999969072</ele><time>2010-07-31T08:01:12Z</time></trkpt>
<trkpt lat="45.76731200" lon="4.83602600"><ele>230.6999970192</ele><time>2010-07-31T08:01:14Z</time></trkpt>
<trkpt lat="45.76726900" lon="4.83604900"><ele>231.5000000928</ele><time>2010-07-31T08:01:15Z</time></trkpt>
<trkpt lat="45.76718400" lon="4.83606300"><ele>233.3999937528</ele><time>2010-07-31T08:01:17Z</time></trkpt>
<trkpt lat="45.76709300" lon="4.83607600"><ele>236.6999969064</ele><time>2010-07-31T08:01:19Z</time></trkpt>
<trkpt lat="45.76704700" lon="4.83607300"><ele>236.1999968904</ele><time>2010-07-31T08:01:20Z</time></trkpt>
<trkpt lat="45.76696400" lon="4.83606200"><ele>237.8999938968</ele><time>2010-07-31T08:01:22Z</time></trkpt>
<trkpt lat="45.76687700" lon="4.83605800"><ele>239.1000061272</ele><time>2010-07-31T08:01:24Z</time></trkpt>
<trkpt lat="45.76682900" lon="4.83606400"><ele>239.6000061432</ele><time>2010-07-31T08:01:25Z</time></trkpt>
<trkpt lat="45.76678200" lon="4.83607100"><ele>239.8999939608</ele><time>2010-07-31T08:01:26Z</time></trkpt>
<trkpt lat="45.76673300" lon="4.83606500"><ele>241.3999940088</ele><time>2010-07-31T08:01:27Z</time></trkpt>
<trkpt lat="45.76664300" lon="4.83606700"><ele>241.8000031656</ele><time>2010-07-31T08:01:29Z</time></trkpt>
<trkpt lat="45.76659500" lon="4.83605900"><ele>242.1000062232</ele><time>2010-07-31T08:01:30Z</time></trkpt>
<trkpt lat="45.76654900" lon="4.83604500"><ele>242.50000014</ele><time>2010-07-31T08:01:31Z</time></trkpt>
<trkpt lat="45.76646200" lon="4.83604100"><ele>244.3999938</ele><time>2010-07-31T08:01:33Z</time></trkpt>
<trkpt lat="45.76640600" lon="4.83603500"><ele>244.899993816</ele><time>2010-07-31T08:01:34Z</time></trkpt>
<trkpt lat="45.76635700" lon="4.83603000"><ele>244.6999968576</ele><time>2010-07-31T08:01:35Z</time></trkpt>
<trkpt lat="45.76631000" lon="4.83602000"><ele>244.8000029568</ele><time>2010-07-31T08:01:36Z</time></trkpt>
<trkpt lat="45.76625600" lon="4.83600500"><ele>244.3999938</ele><time>2010-07-31T08:01:37Z</time></trkpt>
<trkpt lat="45.76620100" lon="4.83599600"><ele>245.1000060144</ele><time>2010-07-31T08:01:38Z</time></trkpt>
<trkpt lat="45.76614700" lon="4.83597600"><ele>245.6000060304</ele><time>2010-07-31T08:01:39Z</time></trkpt>
<trkpt lat="45.76605100" lon="4.83595900"><ele>245.1999968736</ele><time>2010-07-31T08:01:41Z</time></trkpt>
<trkpt lat="45.76600700" lon="4.83593200"><ele>244.6000059984</ele><time>2010-07-31T08:01:42Z</time></trkpt>
<trkpt lat="45.76596100" lon="4.83592600"><ele>243.8000029248</ele><time>2010-07-31T08:01:43Z</time></trkpt>
<trkpt lat="45.76590900" lon="4.83593800"><ele>244.1000059824</ele><time>2010-07-31T08:01:44Z</time></trkpt>
<trkpt lat="45.76585000" lon="4.83594800"><ele>244.9999999152</ele><time>2010-07-31T08:01:45Z</time></trkpt>
<trkpt lat="45.76580100" lon="4.83595300"><ele>244.9999999152</ele><time>2010-07-31T08:01:46Z</time></trkpt>
<trkpt lat="45.76573000" lon="4.83594700"><ele>244.6000059984</ele><time>2010-07-31T08:01:47Z</time></trkpt>
<trkpt lat="45.76567900" lon="4.83594600"><ele>244.9999999152</ele><time>2010-07-31T08:01:48Z</time></trkpt>
<trkpt lat="45.76562900" lon="4.83594000"><ele>244.9999999152</ele><time>2010-07-31T08:01:49Z</time></trkpt>
<trkpt lat="45.76557700" lon="4.83596400"><ele>246.1000060464</ele><time>2010-07-31T08:01:50Z</time></trkpt>
<trkpt lat="45.76551900" lon="4.83596900"><ele>246.1999969056</ele><time>2010-07-31T08:01:51Z</time></trkpt>
<trkpt lat="45.76546000" lon="4.83597900"><ele>246.3000030048</ele><time>2010-07-31T08:01:52Z</time></trkpt>
<trkpt lat="45.76540100" lon="4.83597900"><ele>246.4999999632</ele><time>2010-07-31T08:01:53Z</time></trkpt>
<trkpt lat="45.76534300" lon="4.83598000"><ele>247.1999969376</ele><time>2010-07-31T08:01:54Z</time></trkpt>
<trkpt lat="45.76528500" lon="4.83598900"><ele>247.3000030368</ele><time>2010-07-31T08:01:55Z</time></trkpt>
<trkpt lat="45.76522700" lon="4.83598300"><ele>247.6000060944</ele><time>2010-07-31T08:01:56Z</time></trkpt>
<trkpt lat="45.76517400" lon="4.83596300"><ele>248.0000000112</ele><time>2010-07-31T08:01:57Z</time></trkpt>
<trkpt lat="45.76512100" lon="4.83595900"><ele>248.3000030688</ele><time>2010-07-31T08:01:58Z</time></trkpt>
<trkpt lat="45.76506900" lon="4.83594300"><ele>247.6999969536</ele><time>2010-07-31T08:01:59Z</time></trkpt>
<trkpt lat="45.76500800" lon="4.83595400"><ele>248.1000061104</ele><time>2010-07-31T08:02:00Z</time></trkpt>
<trkpt lat="45.76494900" lon="4.83596800"><ele>248.1000061104</ele><time>2010-07-31T08:02:01Z</time></trkpt>
<trkpt lat="45.76490200" lon="4.83597400"><ele>248.8000030848</ele><time>2010-07-31T08:02:02Z</time></trkpt>
<trkpt lat="45.76483900" lon="4.83596600"><ele>249.6999970176</ele><time>2010-07-31T08:02:03Z</time></trkpt>
<trkpt lat="45.76478300" lon="4.83595900"><ele>249.39999396</ele><time>2010-07-31T08:02:04Z</time></trkpt>
<trkpt lat="45.76472400" lon="4.83596000"><ele>249.6999970176</ele><time>2010-07-31T08:02:05Z</time></trkpt>
<trkpt lat="45.76466600" lon="4.83596200"><ele>249.39999396</ele><time>2010-07-31T08:02:06Z</time></trkpt>
<trkpt lat="45.76461500" lon="4.83596000"><ele>249.1999970016</ele><time>2010-07-31T08:02:07Z</time></trkpt>
<trkpt lat="45.76455200" lon="4.83595500"><ele>248.8000030848</ele><time>2010-07-31T08:02:08Z</time></trkpt>
<trkpt lat="45.76450000" lon="4.83597000"><ele>249.0000000432</ele><time>2010-07-31T08:02:09Z</time></trkpt>
<trkpt lat="45.76444900" lon="4.83598400"><ele>248.399993928</ele><time>2010-07-31T08:02:10Z</time></trkpt>
<trkpt lat="45.76439100" lon="4.83599400"><ele>248.3000030688</ele><time>2010-07-31T08:02:11Z</time></trkpt>
<trkpt lat="45.76434400" lon="4.83605500"><ele>247.399993896</ele><time>2010-07-31T08:02:12Z</time></trkpt>
<trkpt lat="45.76428400" lon="4.83606500"><ele>247.1999969376</ele><time>2010-07-31T08:02:13Z</time></trkpt>
<trkpt lat="45.76423800" lon="4.83611700"><ele>242.3000031816</ele><time>2010-07-31T08:02:14Z</time></trkpt>
<trkpt lat="45.76419000" lon="4.83612500"><ele>241.3000031496</ele><time>2010-07-31T08:02:15Z</time></trkpt>
<trkpt lat="45.76412900" lon="4.83608500"><ele>240.6999970344</ele><time>2010-07-31T08:02:16Z</time></trkpt>
<trkpt lat="45.76407900" lon="4.83603200"><ele>240.500000076</ele><time>2010-07-31T08:02:17Z</time></trkpt>
<trkpt lat="45.76404400" lon="4.83598700"><ele>239.500000044</ele><time>2010-07-31T08:02:18Z</time></trkpt>
<trkpt lat="45.76402100" lon="4.83592600"><ele>238.500000012</ele><time>2010-07-31T08:02:19Z</time></trkpt>
<trkpt lat="45.76397900" lon="4.83590000"><ele>237.8999938968</ele><time>2010-07-31T08:02:20Z</time></trkpt>
<trkpt lat="45.76392100" lon="4.83589500"><ele>237.999999996</ele><time>2010-07-31T08:02:21Z</time></trkpt>
<trkpt lat="45.76386400" lon="4.83588000"><ele>237.6000060792</ele><time>2010-07-31T08:02:22Z</time></trkpt>
<trkpt lat="45.76381300" lon="4.83586800"><ele>238.1999969544</ele><time>2010-07-31T08:02:23Z</time></trkpt>
<trkpt lat="45.76372500" lon="4.83587900"><ele>239.1000061272</ele><time>2010-07-31T08:02:25Z</time></trkpt>
<trkpt lat="45.76364700" lon="4.83587300"><ele>240.500000076</ele><time>2010-07-31T08:02:27Z</time></trkpt>
<trkpt lat="45.76358100" lon="4.83588700"><ele>241.000000092</ele><time>2010-07-31T08:02:29Z</time></trkpt>
<trkpt lat="45.76353700" lon="4.83595700"><ele>240.6999970344</ele><time>2010-07-31T08:02:31Z</time></trkpt>
<trkpt lat="45.76351400" lon="4.83601800"><ele>238.1000060952</ele><time>2010-07-31T08:02:33Z</time></trkpt>
<trkpt lat="45.76350700" lon="4.83611700"><ele>235.8000029736</ele><time>2010-07-31T08:02:35Z</time></trkpt>
<trkpt lat="45.76352600" lon="4.83624400"><ele>233.10000624</ele><time>2010-07-31T08:02:37Z</time></trkpt>
<trkpt lat="45.76354600" lon="4.83632800"><ele>232.600006224</ele><time>2010-07-31T08:02:38Z</time></trkpt>
<trkpt lat="45.76353800" lon="4.83639100"><ele>230.8000031184</ele><time>2010-07-31T08:02:39Z</time></trkpt>
<trkpt lat="45.76354400" lon="4.83646100"><ele>230.0000000448</ele><time>2010-07-31T08:02:40Z</time></trkpt>
<trkpt lat="45.76355700" lon="4.83657600"><ele>229.0000000128</ele><time>2010-07-31T08:02:42Z</time></trkpt>
<trkpt lat="45.76355700" lon="4.83664000"><ele>228.3999938976</ele><time>2010-07-31T08:02:43Z</time></trkpt>
<trkpt lat="45.76356400" lon="4.83675700"><ele>228.10000608</ele><time>2010-07-31T08:02:45Z</time></trkpt>
<trkpt lat="45.76358800" lon="4.83687700"><ele>227.3000030064</ele><time>2010-07-31T08:02:47Z</time></trkpt>
<trkpt lat="45.76360500" lon="4.83694400"><ele>227.1999969072</ele><time>2010-07-31T08:02:50Z</time></trkpt>
<trkpt lat="45.76361300" lon="4.83702600"><ele>227.3000030064</ele><time>2010-07-31T08:02:53Z</time></trkpt>
<trkpt lat="45.76355500" lon="4.83709100"><ele>226.4999999328</ele><time>2010-07-31T08:02:56Z</time></trkpt>
<trkpt lat="45.76352400" lon="4.83715000"><ele>226.4999999328</ele><time>2010-07-31T08:02:58Z</time></trkpt>
<trkpt lat="45.76354300" lon="4.83722200"><ele>226.4999999328</ele><time>2010-07-31T08:02:59Z</time></trkpt>
<trkpt lat="45.76353800" lon="4.83732300"><ele>225.9999999168</ele><time>2010-07-31T08:03:01Z</time></trkpt>
<trkpt lat="45.76353800" lon="4.83741500"><ele>224.3000029104</ele><time>2010-07-31T08:03:03Z</time></trkpt>
<trkpt lat="45.76353700" lon="4.83750600"><ele>224.6999968272</ele><time>2010-07-31T08:03:05Z</time></trkpt>
<trkpt lat="45.76353700" lon="4.83757200"><ele>225.8000029584</ele><time>2010-07-31T08:03:07Z</time></trkpt>
<trkpt lat="45.76355700" lon="4.83763200"><ele>225.4999999008</ele><time>2010-07-31T08:03:09Z</time></trkpt>
<trkpt lat="45.76354200" lon="4.83770900"><ele>226.8999938496</ele><time>2010-07-31T08:03:11Z</time></trkpt>
<trkpt lat="45.76354200" lon="4.83779100"><ele>226.8999938496</ele><time>2010-07-31T08:03:14Z</time></trkpt>
<trkpt lat="45.76350500" lon="4.83782800"><ele>230.3999939616</ele><time>2010-07-31T08:03:19Z</time></trkpt>
<trkpt lat="45.76352300" lon="4.83789400"><ele>231.1999970352</ele><time>2010-07-31T08:03:22Z</time></trkpt>
<trkpt lat="45.76352200" lon="4.83797700"><ele>231.0000000768</ele><time>2010-07-31T08:03:24Z</time></trkpt>
<trkpt lat="45.76351100" lon="4.83806100"><ele>230.8000031184</ele><time>2010-07-31T08:03:26Z</time></trkpt>
<trkpt lat="45.76348900" lon="4.83815200"><ele>230.0000000448</ele><time>2010-07-31T08:03:28Z</time></trkpt>
<trkpt lat="45.76348300" lon="4.83824800"><ele>229.8000030864</ele><time>2010-07-31T08:03:30Z</time></trkpt>
<trkpt lat="45.76348100" lon="4.83835000"><ele>229.8999939456</ele><time>2010-07-31T08:03:32Z</time></trkpt>
<trkpt lat="45.76348700" lon="4.83845100"><ele>229.600006128</ele><time>2010-07-31T08:03:34Z</time></trkpt>
<trkpt lat="45.76349600" lon="4.83855100"><ele>229.0000000128</ele><time>2010-07-31T08:03:36Z</time></trkpt>
<trkpt lat="45.76350400" lon="4.83865200"><ele>229.0000000128</ele><time>2010-07-31T08:03:38Z</time></trkpt>
<trkpt lat="45.76351200" lon="4.83876600"><ele>228.3000030384</ele><time>2010-07-31T08:03:40Z</time></trkpt>
<trkpt lat="45.76351200" lon="4.83887900"><ele>227.9999999808</ele><time>2010-07-31T08:03:42Z</time></trkpt>
<trkpt lat="45.76351400" lon="4.83899000"><ele>227.1999969072</ele><time>2010-07-31T08:03:44Z</time></trkpt>
<trkpt lat="45.76351400" lon="4.83910500"><ele>226.4999999328</ele><time>2010-07-31T08:03:46Z</time></trkpt>
<trkpt lat="45.76351300" lon="4.83916900"><ele>226.1999968752</ele><time>2010-07-31T08:03:47Z</time></trkpt>
<trkpt lat="45.76351600" lon="4.83928600"><ele>225.6999968592</ele><time>2010-07-31T08:03:49Z</time></trkpt>
<trkpt lat="45.76351200" lon="4.83939900"><ele>226.100006016</ele><time>2010-07-31T08:03:51Z</time></trkpt>
<trkpt lat="45.76351100" lon="4.83951500"><ele>225.8000029584</ele><time>2010-07-31T08:03:53Z</time></trkpt>
<trkpt lat="45.76351300" lon="4.83962800"><ele>225.6999968592</ele><time>2010-07-31T08:03:55Z</time></trkpt>
<trkpt lat="45.76351300" lon="4.83974300"><ele>225.9999999168</ele><time>2010-07-31T08:03:57Z</time></trkpt>
<trkpt lat="45.76351400" lon="4.83985600"><ele>226.100006016</ele><time>2010-07-31T08:03:59Z</time></trkpt>
<trkpt lat="45.76351700" lon="4.83997300"><ele>225.9999999168</ele><time>2010-07-31T08:04:01Z</time></trkpt>
<trkpt lat="45.76351600" lon="4.84009300"><ele>226.1999968752</ele><time>2010-07-31T08:04:03Z</time></trkpt>
<trkpt lat="45.76351800" lon="4.84021600"><ele>226.100006016</ele><time>2010-07-31T08:04:05Z</time></trkpt>
<trkpt lat="45.76351700" lon="4.84033800"><ele>225.8999938176</ele><time>2010-07-31T08:04:07Z</time></trkpt>
<trkpt lat="45.76351400" lon="4.84046100"><ele>225.9999999168</ele><time>2010-07-31T08:04:09Z</time></trkpt>
<trkpt lat="45.76351100" lon="4.84058100"><ele>225.8000029584</ele><time>2010-07-31T08:04:11Z</time></trkpt>
<trkpt lat="45.76350900" lon="4.84069400"><ele>225.600006</ele><time>2010-07-31T08:04:13Z</time></trkpt>
<trkpt lat="45.76350800" lon="4.84080900"><ele>225.3999938016</ele><time>2010-07-31T08:04:15Z</time></trkpt>
<trkpt lat="45.76351200" lon="4.84093000"><ele>225.1999968432</ele><time>2010-07-31T08:04:17Z</time></trkpt>
<trkpt lat="45.76350900" lon="4.84105600"><ele>225.100005984</ele><time>2010-07-31T08:04:19Z</time></trkpt>
<trkpt lat="45.76346700" lon="4.84116500"><ele>224.9999998848</ele><time>2010-07-31T08:04:21Z</time></trkpt>
<trkpt lat="45.76341900" lon="4.84125700"><ele>224.6999968272</ele><time>2010-07-31T08:04:23Z</time></trkpt>
<trkpt lat="45.76335300" lon="4.84128200"><ele>224.4999998688</ele><time>2010-07-31T08:04:25Z</time></trkpt>
<trkpt lat="45.76326900" lon="4.84124300"><ele>224.3000029104</ele><time>2010-07-31T08:04:27Z</time></trkpt>
<trkpt lat="45.76317600" lon="4.84123600"><ele>224.1999968112</ele><time>2010-07-31T08:04:29Z</time></trkpt>
<trkpt lat="45.76307900" lon="4.84122200"><ele>224.4999998688</ele><time>2010-07-31T08:04:31Z</time></trkpt>
<trkpt lat="45.76303100" lon="4.84121400"><ele>223.9999998528</ele><time>2010-07-31T08:04:32Z</time></trkpt>
<trkpt lat="45.76294200" lon="4.84121200"><ele>223.8000031992</ele><time>2010-07-31T08:04:34Z</time></trkpt>
<trkpt lat="45.76288200" lon="4.84122400"><ele>223.3999940424</ele><time>2010-07-31T08:04:35Z</time></trkpt>
<trkpt lat="45.76283300" lon="4.84123000"><ele>222.8000031672</ele><time>2010-07-31T08:04:36Z</time></trkpt>
<trkpt lat="45.76278100" lon="4.84122000"><ele>222.3999940104</ele><time>2010-07-31T08:04:37Z</time></trkpt>
<trkpt lat="45.76273500" lon="4.84121100"><ele>222.199997052</ele><time>2010-07-31T08:04:38Z</time></trkpt>
<trkpt lat="45.76264400" lon="4.84121200"><ele>222.6000062088</ele><time>2010-07-31T08:04:40Z</time></trkpt>
<trkpt lat="45.76258800" lon="4.84120600"><ele>222.5000001096</ele><time>2010-07-31T08:04:41Z</time></trkpt>
<trkpt lat="45.76251300" lon="4.84117400"><ele>222.699997068</ele><time>2010-07-31T08:04:43Z</time></trkpt>
<trkpt lat="45.76245300" lon="4.84115700"><ele>222.199997052</ele><time>2010-07-31T08:04:44Z</time></trkpt>
<trkpt lat="45.76240500" lon="4.84113400"><ele>222.3999940104</ele><time>2010-07-31T08:04:45Z</time></trkpt>
<trkpt lat="45.76232600" lon="4.84112200"><ele>221.19999702</ele><time>2010-07-31T08:04:47Z</time></trkpt>
<trkpt lat="45.76223200" lon="4.84111400"><ele>219.6000061128</ele><time>2010-07-31T08:04:49Z</time></trkpt>
<trkpt lat="45.76218500" lon="4.84110500"><ele>218.9999999976</ele><time>2010-07-31T08:04:50Z</time></trkpt>
<trkpt lat="45.76212800" lon="4.84109900"><ele>218.6000060808</ele><time>2010-07-31T08:04:51Z</time></trkpt>
<trkpt lat="45.76207400" lon="4.84108200"><ele>218.1000060648</ele><time>2010-07-31T08:04:52Z</time></trkpt>
<trkpt lat="45.76202100" lon="4.84107700"><ele>217.4999999496</ele><time>2010-07-31T08:04:53Z</time></trkpt>
<trkpt lat="45.76196400" lon="4.84106200"><ele>216.8000029752</ele><time>2010-07-31T08:04:54Z</time></trkpt>
<trkpt lat="45.76191700" lon="4.84106000"><ele>216.3000029592</ele><time>2010-07-31T08:04:55Z</time></trkpt>
<trkpt lat="45.76186300" lon="4.84105500"><ele>216.4999999176</ele><time>2010-07-31T08:04:56Z</time></trkpt>
<trkpt lat="45.76181700" lon="4.84106100"><ele>216.3000029592</ele><time>2010-07-31T08:04:57Z</time></trkpt>
<trkpt lat="45.76170500" lon="4.84107200"><ele>215.3999937864</ele><time>2010-07-31T08:04:59Z</time></trkpt>
<trkpt lat="45.76165400" lon="4.84107200"><ele>215.3999937864</ele><time>2010-07-31T08:05:00Z</time></trkpt>
<trkpt lat="45.76160400" lon="4.84107000"><ele>214.3000032</ele><time>2010-07-31T08:05:01Z</time></trkpt>
<trkpt lat="45.76153300" lon="4.84106500"><ele>214.0000001424</ele><time>2010-07-31T08:05:03Z</time></trkpt>
<trkpt lat="45.76144900" lon="4.84106000"><ele>213.5000001264</ele><time>2010-07-31T08:05:05Z</time></trkpt>
<trkpt lat="45.76140300" lon="4.84105500"><ele>213.0000001104</ele><time>2010-07-31T08:05:06Z</time></trkpt>
<trkpt lat="45.76135100" lon="4.84104000"><ele>213.6000062256</ele><time>2010-07-31T08:05:07Z</time></trkpt>
<trkpt lat="45.76125300" lon="4.84101200"><ele>214.3000032</ele><time>2010-07-31T08:05:09Z</time></trkpt>
<trkpt lat="45.76119700" lon="4.84099900"><ele>214.199996796</ele><time>2010-07-31T08:05:10Z</time></trkpt>
<trkpt lat="45.76111300" lon="4.84099900"><ele>214.9999998696</ele><time>2010-07-31T08:05:12Z</time></trkpt>
<trkpt lat="45.76105500" lon="4.84100400"><ele>215.199996828</ele><time>2010-07-31T08:05:13Z</time></trkpt>
<trkpt lat="45.76100700" lon="4.84099800"><ele>215.3999937864</ele><time>2010-07-31T08:05:14Z</time></trkpt>
<trkpt lat="45.76095500" lon="4.84100200"><ele>214.699996812</ele><time>2010-07-31T08:05:15Z</time></trkpt>
<trkpt lat="45.76090800" lon="4.84100100"><ele>214.8000029112</ele><time>2010-07-31T08:05:16Z</time></trkpt>
<trkpt lat="45.76085800" lon="4.84099300"><ele>215.6000059848</ele><time>2010-07-31T08:05:17Z</time></trkpt>
<trkpt lat="45.76080800" lon="4.84098700"><ele>216.4999999176</ele><time>2010-07-31T08:05:18Z</time></trkpt>
<trkpt lat="45.76075900" lon="4.84098200"><ele>216.8000029752</ele><time>2010-07-31T08:05:19Z</time></trkpt>
<trkpt lat="45.76071300" lon="4.84097800"><ele>216.3999938184</ele><time>2010-07-31T08:05:20Z</time></trkpt>
<trkpt lat="45.76061900" lon="4.84098300"><ele>216.8000029752</ele><time>2010-07-31T08:05:22Z</time></trkpt>
<trkpt lat="45.76056300" lon="4.84097800"><ele>216.8000029752</ele><time>2010-07-31T08:05:23Z</time></trkpt>
<trkpt lat="45.76047900" lon="4.84097600"><ele>216.8999938344</ele><time>2010-07-31T08:05:25Z</time></trkpt>
<trkpt lat="45.76042600" lon="4.84098500"><ele>217.199996892</ele><time>2010-07-31T08:05:27Z</time></trkpt>
<trkpt lat="45.76035800" lon="4.84097400"><ele>217.199996892</ele><time>2010-07-31T08:05:29Z</time></trkpt>
<trkpt lat="45.76026900" lon="4.84096400"><ele>217.199996892</ele><time>2010-07-31T08:05:31Z</time></trkpt>
<trkpt lat="45.76018500" lon="4.84096900"><ele>217.6000060488</ele><time>2010-07-31T08:05:33Z</time></trkpt>
<trkpt lat="45.76011100" lon="4.84095700"><ele>216.3999938184</ele><time>2010-07-31T08:05:35Z</time></trkpt>
<trkpt lat="45.76005400" lon="4.84094800"><ele>216.3999938184</ele><time>2010-07-31T08:05:37Z</time></trkpt>
<trkpt lat="45.75999200" lon="4.84095900"><ele>216.8000029752</ele><time>2010-07-31T08:05:39Z</time></trkpt>
<trkpt lat="45.75993800" lon="4.84092900"><ele>218.8000030392</ele><time>2010-07-31T08:05:41Z</time></trkpt>
<trkpt lat="45.75988300" lon="4.84092000"><ele>219.3000030552</ele><time>2010-07-31T08:05:43Z</time></trkpt>
<trkpt lat="45.75982400" lon="4.84093400"><ele>219.3000030552</ele><time>2010-07-31T08:05:45Z</time></trkpt>
<trkpt lat="45.75975900" lon="4.84093800"><ele>219.3000030552</ele><time>2010-07-31T08:05:47Z</time></trkpt>
<trkpt lat="45.75971300" lon="4.84093800"><ele>218.69999694</ele><time>2010-07-31T08:05:48Z</time></trkpt>
<trkpt lat="45.75965500" lon="4.84092800"><ele>218.8000030392</ele><time>2010-07-31T08:05:49Z</time></trkpt>
<trkpt lat="45.75957400" lon="4.84090500"><ele>220.3000030872</ele><time>2010-07-31T08:05:51Z</time></trkpt>
<trkpt lat="45.75952200" lon="4.84087200"><ele>220.199996988</ele><time>2010-07-31T08:05:53Z</time></trkpt>
<trkpt lat="45.75944500" lon="4.84085100"><ele>220.3000030872</ele><time>2010-07-31T08:05:55Z</time></trkpt>
<trkpt lat="45.75936600" lon="4.84083000"><ele>220.8999939624</ele><time>2010-07-31T08:05:57Z</time></trkpt>
<trkpt lat="45.75927700" lon="4.84079400"><ele>219.5000000136</ele><time>2010-07-31T08:05:59Z</time></trkpt>
<trkpt lat="45.75919700" lon="4.84075700"><ele>219.699996972</ele><time>2010-07-31T08:06:01Z</time></trkpt>
<trkpt lat="45.75915100" lon="4.84075600"><ele>220.699997004</ele><time>2010-07-31T08:06:03Z</time></trkpt>
<trkpt lat="45.75915500" lon="4.84088900"><ele>222.199997052</ele><time>2010-07-31T08:06:05Z</time></trkpt>
<trkpt lat="45.75913300" lon="4.84096400"><ele>222.3000031512</ele><time>2010-07-31T08:06:07Z</time></trkpt>
<trkpt lat="45.75910000" lon="4.84105700"><ele>222.0000000936</ele><time>2010-07-31T08:06:09Z</time></trkpt>
<trkpt lat="45.75908000" lon="4.84114700"><ele>222.0000000936</ele><time>2010-07-31T08:06:11Z</time></trkpt>
<trkpt lat="45.75910500" lon="4.84126500"><ele>222.1000061928</ele><time>2010-07-31T08:06:13Z</time></trkpt>
<trkpt lat="45.75912900" lon="4.84136800"><ele>223.199997084</ele><time>2010-07-31T08:06:15Z</time></trkpt>
<trkpt lat="45.75915300" lon="4.84145400"><ele>227.4999999648</ele><time>2010-07-31T08:06:17Z</time></trkpt>
<trkpt lat="45.75917200" lon="4.84154400"><ele>227.9999999808</ele><time>2010-07-31T08:06:19Z</time></trkpt>
<trkpt lat="45.75918500" lon="4.84161600"><ele>227.600006064</ele><time>2010-07-31T08:06:21Z</time></trkpt>
<trkpt lat="45.75917400" lon="4.84172700"><ele>227.600006064</ele><time>2010-07-31T08:06:24Z</time></trkpt>
<trkpt lat="45.75914300" lon="4.84178800"><ele>228.3000030384</ele><time>2010-07-31T08:06:26Z</time></trkpt>
<trkpt lat="45.75912500" lon="4.84189100"><ele>228.8000030544</ele><time>2010-07-31T08:06:29Z</time></trkpt>
<trkpt lat="45.75912300" lon="4.84197100"><ele>229.8999939456</ele><time>2010-07-31T08:06:31Z</time></trkpt>
<trkpt lat="45.75909000" lon="4.84206700"><ele>230.3000031024</ele><time>2010-07-31T08:06:33Z</time></trkpt>
<trkpt lat="45.75913700" lon="4.84216800"><ele>233.0000001408</ele><time>2010-07-31T08:06:35Z</time></trkpt>
<trkpt lat="45.75916300" lon="4.84224400"><ele>234.499999884</ele><time>2010-07-31T08:06:36Z</time></trkpt>
<trkpt lat="45.75919200" lon="4.84234700"><ele>235.999999932</ele><time>2010-07-31T08:06:38Z</time></trkpt>
<trkpt lat="45.75920900" lon="4.84243700"><ele>236.6000060472</ele><time>2010-07-31T08:06:40Z</time></trkpt>
<trkpt lat="45.75922700" lon="4.84253700"><ele>235.999999932</ele><time>2010-07-31T08:06:42Z</time></trkpt>
<trkpt lat="45.75924100" lon="4.84263600"><ele>234.9999999</ele><time>2010-07-31T08:06:44Z</time></trkpt>
<trkpt lat="45.75924700" lon="4.84273500"><ele>235.1999968584</ele><time>2010-07-31T08:06:46Z</time></trkpt>
<trkpt lat="45.75925600" lon="4.84280400"><ele>235.1000059992</ele><time>2010-07-31T08:06:47Z</time></trkpt>
<trkpt lat="45.75926000" lon="4.84291200"><ele>236.1999968904</ele><time>2010-07-31T08:06:49Z</time></trkpt>
<trkpt lat="45.75926900" lon="4.84301900"><ele>235.999999932</ele><time>2010-07-31T08:06:51Z</time></trkpt>
<trkpt lat="45.75924500" lon="4.84312200"><ele>234.9999999</ele><time>2010-07-31T08:06:53Z</time></trkpt>
<trkpt lat="45.75924300" lon="4.84322100"><ele>235.3999938168</ele><time>2010-07-31T08:06:55Z</time></trkpt>
<trkpt lat="45.75923900" lon="4.84329000"><ele>234.9999999</ele><time>2010-07-31T08:06:56Z</time></trkpt>
<trkpt lat="45.75925000" lon="4.84340000"><ele>234.9999999</ele><time>2010-07-31T08:06:58Z</time></trkpt>
<trkpt lat="45.75925500" lon="4.84350200"><ele>236.6000060472</ele><time>2010-07-31T08:07:00Z</time></trkpt>
<trkpt lat="45.75926600" lon="4.84361600"><ele>237.1000060632</ele><time>2010-07-31T08:07:02Z</time></trkpt>
<trkpt lat="45.75928400" lon="4.84369300"><ele>237.6000060792</ele><time>2010-07-31T08:07:04Z</time></trkpt>
<trkpt lat="45.75929500" lon="4.84379100"><ele>237.49999998</ele><time>2010-07-31T08:07:06Z</time></trkpt>
<trkpt lat="45.75932400" lon="4.84390100"><ele>237.3000030216</ele><time>2010-07-31T08:07:08Z</time></trkpt>
<trkpt lat="45.75934100" lon="4.84402200"><ele>236.499999948</ele><time>2010-07-31T08:07:10Z</time></trkpt>
<trkpt lat="45.75934100" lon="4.84409100"><ele>236.6999969064</ele><time>2010-07-31T08:07:11Z</time></trkpt>
<trkpt lat="45.75935000" lon="4.84420100"><ele>236.999999964</ele><time>2010-07-31T08:07:13Z</time></trkpt>
<trkpt lat="45.75937000" lon="4.84429400"><ele>236.8999938648</ele><time>2010-07-31T08:07:14Z</time></trkpt>
<trkpt lat="45.75937200" lon="4.84439800"><ele>237.3000030216</ele><time>2010-07-31T08:07:15Z</time></trkpt>
<trkpt lat="45.75937400" lon="4.84447900"><ele>238.8000030696</ele><time>2010-07-31T08:07:16Z</time></trkpt>
<trkpt lat="45.75936200" lon="4.84455000"><ele>238.6000061112</ele><time>2010-07-31T08:07:17Z</time></trkpt>
<trkpt lat="45.75936300" lon="4.84463800"><ele>237.3000030216</ele><time>2010-07-31T08:07:18Z</time></trkpt>
<trkpt lat="45.75937000" lon="4.84470100"><ele>237.3999938808</ele><time>2010-07-31T08:07:19Z</time></trkpt>
<trkpt lat="45.75938500" lon="4.84477500"><ele>237.6999969384</ele><time>2010-07-31T08:07:20Z</time></trkpt>
<trkpt lat="45.75938600" lon="4.84487100"><ele>239.1000061272</ele><time>2010-07-31T08:07:21Z</time></trkpt>
<trkpt lat="45.75939000" lon="4.84497500"><ele>240.3999939768</ele><time>2010-07-31T08:07:22Z</time></trkpt>
<trkpt lat="45.75941200" lon="4.84507700"><ele>240.1999970184</ele><time>2010-07-31T08:07:23Z</time></trkpt>
<trkpt lat="45.75943400" lon="4.84513800"><ele>238.1000060952</ele><time>2010-07-31T08:07:24Z</time></trkpt>
<trkpt lat="45.75944300" lon="4.84527800"><ele>235.8000029736</ele><time>2010-07-31T08:07:26Z</time></trkpt>
<trkpt lat="45.75946000" lon="4.84539800"><ele>234.6000059832</ele><time>2010-07-31T08:07:27Z</time></trkpt>
<trkpt lat="45.75946400" lon="4.84549800"><ele>234.6000059832</ele><time>2010-07-31T08:07:28Z</time></trkpt>
<trkpt lat="45.75946700" lon="4.84559600"><ele>233.8999937688</ele><time>2010-07-31T08:07:29Z</time></trkpt>
<trkpt lat="45.75946000" lon="4.84567000"><ele>233.3999937528</ele><time>2010-07-31T08:07:30Z</time></trkpt>
<trkpt lat="45.75947200" lon="4.84575600"><ele>232.8000031824</ele><time>2010-07-31T08:07:31Z</time></trkpt>
<trkpt lat="45.75948700" lon="4.84584300"><ele>231.1999970352</ele><time>2010-07-31T08:07:32Z</time></trkpt>
<trkpt lat="45.75949500" lon="4.84592000"><ele>230.3000031024</ele><time>2010-07-31T08:07:33Z</time></trkpt>
<trkpt lat="45.75950600" lon="4.84599600"><ele>229.600006128</ele><time>2010-07-31T08:07:34Z</time></trkpt>
<trkpt lat="45.75950200" lon="4.84609000"><ele>229.3999939296</ele><time>2010-07-31T08:07:36Z</time></trkpt>
<trkpt lat="45.75951400" lon="4.84616100"><ele>230.0000000448</ele><time>2010-07-31T08:07:37Z</time></trkpt>
<trkpt lat="45.75953200" lon="4.84624000"><ele>230.60000616</ele><time>2010-07-31T08:07:38Z</time></trkpt>
<trkpt lat="45.75954900" lon="4.84634100"><ele>230.1999970032</ele><time>2010-07-31T08:07:39Z</time></trkpt>
<trkpt lat="45.75956000" lon="4.84642200"><ele>230.1999970032</ele><time>2010-07-31T08:07:40Z</time></trkpt>
<trkpt lat="45.75956500" lon="4.84649500"><ele>230.1999970032</ele><time>2010-07-31T08:07:41Z</time></trkpt>
<trkpt lat="45.75956900" lon="4.84657600"><ele>230.0000000448</ele><time>2010-07-31T08:07:42Z</time></trkpt>
<trkpt lat="45.75956400" lon="4.84666700"><ele>230.1999970032</ele><time>2010-07-31T08:07:43Z</time></trkpt>
<trkpt lat="45.75956800" lon="4.84674800"><ele>230.60000616</ele><time>2010-07-31T08:07:44Z</time></trkpt>
<trkpt lat="45.75958900" lon="4.84687400"><ele>228.600006096</ele><time>2010-07-31T08:07:46Z</time></trkpt>
<trkpt lat="45.75957300" lon="4.84697100"><ele>228.3000030384</ele><time>2010-07-31T08:07:48Z</time></trkpt>
<trkpt lat="45.75955700" lon="4.84707300"><ele>228.4999999968</ele><time>2010-07-31T08:07:50Z</time></trkpt>
<trkpt lat="45.75954400" lon="4.84717000"><ele>228.8999939136</ele><time>2010-07-31T08:07:52Z</time></trkpt>
<trkpt lat="45.75953200" lon="4.84726000"><ele>229.3000030704</ele><time>2010-07-31T08:07:53Z</time></trkpt>
<trkpt lat="45.75954700" lon="4.84738100"><ele>229.3000030704</ele><time>2010-07-31T08:07:54Z</time></trkpt>
<trkpt lat="45.75956300" lon="4.84748700"><ele>228.8000030544</ele><time>2010-07-31T08:07:55Z</time></trkpt>
<trkpt lat="45.75959900" lon="4.84759400"><ele>226.4999999328</ele><time>2010-07-31T08:07:56Z</time></trkpt>
<trkpt lat="45.75961400" lon="4.84769600"><ele>225.600006</ele><time>2010-07-31T08:07:57Z</time></trkpt>
<trkpt lat="45.75962200" lon="4.84777400"><ele>225.4999999008</ele><time>2010-07-31T08:07:58Z</time></trkpt>
<trkpt lat="45.75962900" lon="4.84785600"><ele>225.1999968432</ele><time>2010-07-31T08:07:59Z</time></trkpt>
<trkpt lat="45.75963500" lon="4.84794600"><ele>224.9999998848</ele><time>2010-07-31T08:08:00Z</time></trkpt>
<trkpt lat="45.75965000" lon="4.84802200"><ele>224.8999937856</ele><time>2010-07-31T08:08:01Z</time></trkpt>
<trkpt lat="45.75964900" lon="4.84808900"><ele>224.8000029264</ele><time>2010-07-31T08:08:02Z</time></trkpt>
<trkpt lat="45.75965000" lon="4.84816200"><ele>224.3000029104</ele><time>2010-07-31T08:08:03Z</time></trkpt>
<trkpt lat="45.75965200" lon="4.84823100"><ele>223.3999940424</ele><time>2010-07-31T08:08:04Z</time></trkpt>
<trkpt lat="45.75965800" lon="4.84829600"><ele>222.8000031672</ele><time>2010-07-31T08:08:05Z</time></trkpt>
<trkpt lat="45.75966700" lon="4.84842300"><ele>221.3999939784</ele><time>2010-07-31T08:08:07Z</time></trkpt>
<trkpt lat="45.75967500" lon="4.84849000"><ele>220.199996988</ele><time>2010-07-31T08:08:08Z</time></trkpt>
<trkpt lat="45.75968500" lon="4.84855600"><ele>219.199996956</ele><time>2010-07-31T08:08:09Z</time></trkpt>
<trkpt lat="45.75968400" lon="4.84862200"><ele>219.1000060968</ele><time>2010-07-31T08:08:10Z</time></trkpt>
<trkpt lat="45.75968000" lon="4.84868700"><ele>218.8999938984</ele><time>2010-07-31T08:08:11Z</time></trkpt>
<trkpt lat="45.75965400" lon="4.84876700"><ele>219.6000061128</ele><time>2010-07-31T08:08:13Z</time></trkpt>
<trkpt lat="45.75965900" lon="4.84884500"><ele>219.3999939144</ele><time>2010-07-31T08:08:14Z</time></trkpt>
<trkpt lat="45.75968300" lon="4.84892500"><ele>219.199996956</ele><time>2010-07-31T08:08:15Z</time></trkpt>
<trkpt lat="45.75969700" lon="4.84898800"><ele>219.8000030712</ele><time>2010-07-31T08:08:16Z</time></trkpt>
<trkpt lat="45.75971700" lon="4.84906700"><ele>221.19999702</ele><time>2010-07-31T08:08:18Z</time></trkpt>
<trkpt lat="45.75971600" lon="4.84915400"><ele>221.1000061608</ele><time>2010-07-31T08:08:20Z</time></trkpt>
<trkpt lat="45.75970300" lon="4.84924900"><ele>221.6000061768</ele><time>2010-07-31T08:08:22Z</time></trkpt>
<trkpt lat="45.75966800" lon="4.84934100"><ele>222.699997068</ele><time>2010-07-31T08:08:24Z</time></trkpt>
<trkpt lat="45.75968800" lon="4.84941600"><ele>223.6000062408</ele><time>2010-07-31T08:08:25Z</time></trkpt>
<trkpt lat="45.75971500" lon="4.84950500"><ele>224.100005952</ele><time>2010-07-31T08:08:26Z</time></trkpt>
<trkpt lat="45.75971700" lon="4.84959900"><ele>224.6999968272</ele><time>2010-07-31T08:08:27Z</time></trkpt>
<trkpt lat="45.75973600" lon="4.84967400"><ele>224.8999937856</ele><time>2010-07-31T08:08:28Z</time></trkpt>
<trkpt lat="45.75975100" lon="4.84974600"><ele>225.1999968432</ele><time>2010-07-31T08:08:29Z</time></trkpt>
<trkpt lat="45.75976400" lon="4.84983000"><ele>225.600006</ele><time>2010-07-31T08:08:30Z</time></trkpt>
<trkpt lat="45.75977300" lon="4.84989700"><ele>225.3000029424</ele><time>2010-07-31T08:08:31Z</time></trkpt>
<trkpt lat="45.75978000" lon="4.84997300"><ele>225.100005984</ele><time>2010-07-31T08:08:32Z</time></trkpt>
<trkpt lat="45.75977400" lon="4.85010100"><ele>224.9999998848</ele><time>2010-07-31T08:08:34Z</time></trkpt>
<trkpt lat="45.75977600" lon="4.85017700"><ele>224.8999937856</ele><time>2010-07-31T08:08:35Z</time></trkpt>
<trkpt lat="45.75979600" lon="4.85031800"><ele>223.8000031992</ele><time>2010-07-31T08:08:37Z</time></trkpt>
<trkpt lat="45.75980000" lon="4.85038200"><ele>223.8000031992</ele><time>2010-07-31T08:08:38Z</time></trkpt>
<trkpt lat="45.75981100" lon="4.85044900"><ele>223.8000031992</ele><time>2010-07-31T08:08:39Z</time></trkpt>
<trkpt lat="45.75981800" lon="4.85051500"><ele>223.8999937536</ele><time>2010-07-31T08:08:40Z</time></trkpt>
<trkpt lat="45.75983100" lon="4.85059200"><ele>224.100005952</ele><time>2010-07-31T08:08:41Z</time></trkpt>
<trkpt lat="45.75984100" lon="4.85065700"><ele>224.100005952</ele><time>2010-07-31T08:08:42Z</time></trkpt>
<trkpt lat="45.75984500" lon="4.85072800"><ele>224.4999998688</ele><time>2010-07-31T08:08:43Z</time></trkpt>
<trkpt lat="45.75985500" lon="4.85085600"><ele>222.5000001096</ele><time>2010-07-31T08:08:45Z</time></trkpt>
<trkpt lat="45.75986500" lon="4.85092500"><ele>221.8999939944</ele><time>2010-07-31T08:08:46Z</time></trkpt>
<trkpt lat="45.75987200" lon="4.85099700"><ele>222.1000061928</ele><time>2010-07-31T08:08:47Z</time></trkpt>
<trkpt lat="45.75988400" lon="4.85106800"><ele>221.5000000776</ele><time>2010-07-31T08:08:48Z</time></trkpt>
<trkpt lat="45.75988700" lon="4.85114600"><ele>221.3999939784</ele><time>2010-07-31T08:08:49Z</time></trkpt>
<trkpt lat="45.75988800" lon="4.85121200"><ele>221.3000031192</ele><time>2010-07-31T08:08:50Z</time></trkpt>
<trkpt lat="45.75988400" lon="4.85128800"><ele>220.8000031032</ele><time>2010-07-31T08:08:51Z</time></trkpt>
<trkpt lat="45.75990200" lon="4.85135300"><ele>221.19999702</ele><time>2010-07-31T08:08:52Z</time></trkpt>
<trkpt lat="45.75991100" lon="4.85142000"><ele>221.3000031192</ele><time>2010-07-31T08:08:53Z</time></trkpt>
<trkpt lat="45.75992200" lon="4.85149600"><ele>221.3999939784</ele><time>2010-07-31T08:08:54Z</time></trkpt>
<trkpt lat="45.75991100" lon="4.85156600"><ele>223.199997084</ele><time>2010-07-31T08:08:55Z</time></trkpt>
<trkpt lat="45.75992400" lon="4.85163700"><ele>223.8999937536</ele><time>2010-07-31T08:08:56Z</time></trkpt>
<trkpt lat="45.75991900" lon="4.85172700"><ele>224.8000029264</ele><time>2010-07-31T08:08:58Z</time></trkpt>
<trkpt lat="45.75992600" lon="4.85179600"><ele>225.6999968592</ele><time>2010-07-31T08:08:59Z</time></trkpt>
<trkpt lat="45.75993700" lon="4.85185900"><ele>225.8999938176</ele><time>2010-07-31T08:09:00Z</time></trkpt>
<trkpt lat="45.75994100" lon="4.85193600"><ele>225.4999999008</ele><time>2010-07-31T08:09:02Z</time></trkpt>
<trkpt lat="45.75991400" lon="4.85200500"><ele>226.8999938496</ele><time>2010-07-31T08:09:06Z</time></trkpt>
<trkpt lat="45.75987500" lon="4.85204800"><ele>227.8999938816</ele><time>2010-07-31T08:09:08Z</time></trkpt>
<trkpt lat="45.75980400" lon="4.85207700"><ele>227.8999938816</ele><time>2010-07-31T08:09:10Z</time></trkpt>
<trkpt lat="45.75970200" lon="4.85210300"><ele>230.3000031024</ele><time>2010-07-31T08:09:12Z</time></trkpt>
<trkpt lat="45.75963100" lon="4.85209000"><ele>231.6999970512</ele><time>2010-07-31T08:09:13Z</time></trkpt>
<trkpt lat="45.75958400" lon="4.85209600"><ele>232.1999970672</ele><time>2010-07-31T08:09:14Z</time></trkpt>
<trkpt lat="45.75951600" lon="4.85210900"><ele>232.600006224</ele><time>2010-07-31T08:09:16Z</time></trkpt>
<trkpt lat="45.75946500" lon="4.85210200"><ele>233.6999968104</ele><time>2010-07-31T08:09:17Z</time></trkpt>
<trkpt lat="45.75940700" lon="4.85211800"><ele>231.5000000928</ele><time>2010-07-31T08:09:19Z</time></trkpt>
<trkpt lat="45.75934400" lon="4.85213100"><ele>230.60000616</ele><time>2010-07-31T08:09:20Z</time></trkpt>
<trkpt lat="45.75929100" lon="4.85215600"><ele>231.0000000768</ele><time>2010-07-31T08:09:23Z</time></trkpt>
<trkpt lat="45.75924800" lon="4.85217900"><ele>236.999999964</ele><time>2010-07-31T08:10:02Z</time></trkpt>
<trkpt lat="45.75925800" lon="4.85226700"><ele>236.499999948</ele><time>2010-07-31T08:10:28Z</time></trkpt>
<trkpt lat="45.75927200" lon="4.85237100"><ele>233.3999937528</ele><time>2010-07-31T08:10:31Z</time></trkpt>
<trkpt lat="45.75928600" lon="4.85246100"><ele>232.8999940416</ele><time>2010-07-31T08:10:33Z</time></trkpt>
<trkpt lat="45.75930300" lon="4.85256000"><ele>231.8000031504</ele><time>2010-07-31T08:10:35Z</time></trkpt>
<trkpt lat="45.75930000" lon="4.85267200"><ele>230.5000000608</ele><time>2010-07-31T08:10:37Z</time></trkpt>
<trkpt lat="45.75930400" lon="4.85277700"><ele>228.600006096</ele><time>2010-07-31T08:10:39Z</time></trkpt>
<trkpt lat="45.75931200" lon="4.85284300"><ele>228.1999969392</ele><time>2010-07-31T08:10:40Z</time></trkpt>
<trkpt lat="45.75932700" lon="4.85296300"><ele>227.6999969232</ele><time>2010-07-31T08:10:42Z</time></trkpt>
<trkpt lat="45.75933100" lon="4.85303100"><ele>227.1999969072</ele><time>2010-07-31T08:10:43Z</time></trkpt>
<trkpt lat="45.75934100" lon="4.85315300"><ele>225.4999999008</ele><time>2010-07-31T08:10:45Z</time></trkpt>
<trkpt lat="45.75935700" lon="4.85327700"><ele>225.3999938016</ele><time>2010-07-31T08:10:47Z</time></trkpt>
<trkpt lat="45.75936900" lon="4.85340700"><ele>224.3000029104</ele><time>2010-07-31T08:10:49Z</time></trkpt>
<trkpt lat="45.75937400" lon="4.85347200"><ele>223.3000031832</ele><time>2010-07-31T08:10:50Z</time></trkpt>
<trkpt lat="45.75938800" lon="4.85354400"><ele>223.3000031832</ele><time>2010-07-31T08:10:51Z</time></trkpt>
<trkpt lat="45.75940400" lon="4.85361100"><ele>222.8999940264</ele><time>2010-07-31T08:10:52Z</time></trkpt>
<trkpt lat="45.75940800" lon="4.85368000"><ele>222.8999940264</ele><time>2010-07-31T08:10:53Z</time></trkpt>
<trkpt lat="45.75941300" lon="4.85374900"><ele>222.6000062088</ele><time>2010-07-31T08:10:54Z</time></trkpt>
<trkpt lat="45.75942500" lon="4.85382100"><ele>222.199997052</ele><time>2010-07-31T08:10:55Z</time></trkpt>
<trkpt lat="45.75942400" lon="4.85388900"><ele>221.699997036</ele><time>2010-07-31T08:10:56Z</time></trkpt>
<trkpt lat="45.75943700" lon="4.85395500"><ele>221.8000031352</ele><time>2010-07-31T08:10:57Z</time></trkpt>
<trkpt lat="45.75944500" lon="4.85402000"><ele>222.0000000936</ele><time>2010-07-31T08:10:58Z</time></trkpt>
<trkpt lat="45.75945200" lon="4.85414800"><ele>222.0000000936</ele><time>2010-07-31T08:11:00Z</time></trkpt>
<trkpt lat="45.75946300" lon="4.85427300"><ele>221.3999939784</ele><time>2010-07-31T08:11:02Z</time></trkpt>
<trkpt lat="45.75947200" lon="4.85440200"><ele>221.19999702</ele><time>2010-07-31T08:11:04Z</time></trkpt>
<trkpt lat="45.75948000" lon="4.85447200"><ele>221.0000000616</ele><time>2010-07-31T08:11:05Z</time></trkpt>
<trkpt lat="45.75948300" lon="4.85461400"><ele>220.6000061448</ele><time>2010-07-31T08:11:07Z</time></trkpt>
<trkpt lat="45.75948300" lon="4.85475100"><ele>220.3999939464</ele><time>2010-07-31T08:11:09Z</time></trkpt>
<trkpt lat="45.75948200" lon="4.85481600"><ele>220.0000000296</ele><time>2010-07-31T08:11:10Z</time></trkpt>
<trkpt lat="45.75949800" lon="4.85488800"><ele>219.8999939304</ele><time>2010-07-31T08:11:11Z</time></trkpt>
<trkpt lat="45.75951400" lon="4.85495900"><ele>220.0000000296</ele><time>2010-07-31T08:11:12Z</time></trkpt>
<trkpt lat="45.75952000" lon="4.85502800"><ele>219.8999939304</ele><time>2010-07-31T08:11:13Z</time></trkpt>
<trkpt lat="45.75952200" lon="4.85515100"><ele>221.1000061608</ele><time>2010-07-31T08:11:15Z</time></trkpt>
<trkpt lat="45.75952500" lon="4.85521700"><ele>220.8999939624</ele><time>2010-07-31T08:11:16Z</time></trkpt>
<trkpt lat="45.75953000" lon="4.85528200"><ele>221.0000000616</ele><time>2010-07-31T08:11:17Z</time></trkpt>
<trkpt lat="45.75953900" lon="4.85535700"><ele>221.0000000616</ele><time>2010-07-31T08:11:18Z</time></trkpt>
<trkpt lat="45.75954800" lon="4.85547700"><ele>220.5000000456</ele><time>2010-07-31T08:11:20Z</time></trkpt>
<trkpt lat="45.75955200" lon="4.85558100"><ele>220.8000031032</ele><time>2010-07-31T08:11:22Z</time></trkpt>
<trkpt lat="45.75956000" lon="4.85564700"><ele>220.6000061448</ele><time>2010-07-31T08:11:23Z</time></trkpt>
<trkpt lat="45.75957500" lon="4.85575900"><ele>220.6000061448</ele><time>2010-07-31T08:11:25Z</time></trkpt>
<trkpt lat="45.75961300" lon="4.85585800"><ele>221.3999939784</ele><time>2010-07-31T08:11:27Z</time></trkpt>
<trkpt lat="45.75963800" lon="4.85594500"><ele>221.699997036</ele><time>2010-07-31T08:11:29Z</time></trkpt>
<trkpt lat="45.75966600" lon="4.85602700"><ele>221.699997036</ele><time>2010-07-31T08:11:31Z</time></trkpt>
<trkpt lat="45.75970200" lon="4.85610300"><ele>223.3999940424</ele><time>2010-07-31T08:11:33Z</time></trkpt>
<trkpt lat="45.75973200" lon="4.85619900"><ele>224.3000029104</ele><time>2010-07-31T08:11:35Z</time></trkpt>
<trkpt lat="45.75975000" lon="4.85628500"><ele>224.100005952</ele><time>2010-07-31T08:11:37Z</time></trkpt>
<trkpt lat="45.75977400" lon="4.85635500"><ele>223.9999998528</ele><time>2010-07-31T08:11:39Z</time></trkpt>
<trkpt lat="45.75980100" lon="4.85642700"><ele>224.4999998688</ele><time>2010-07-31T08:11:41Z</time></trkpt>
<trkpt lat="45.75981400" lon="4.85653800"><ele>224.4999998688</ele><time>2010-07-31T08:11:43Z</time></trkpt>
<trkpt lat="45.75983300" lon="4.85663400"><ele>223.6999971</ele><time>2010-07-31T08:11:45Z</time></trkpt>
<trkpt lat="45.75985400" lon="4.85673700"><ele>223.0000001256</ele><time>2010-07-31T08:11:47Z</time></trkpt>
<trkpt lat="45.75987500" lon="4.85683400"><ele>223.3999940424</ele><time>2010-07-31T08:11:49Z</time></trkpt>
<trkpt lat="45.75989700" lon="4.85694000"><ele>223.1000062248</ele><time>2010-07-31T08:11:51Z</time></trkpt>
<trkpt lat="45.75990100" lon="4.85703800"><ele>223.6000062408</ele><time>2010-07-31T08:11:53Z</time></trkpt>
<trkpt lat="45.75990900" lon="4.85714200"><ele>224.3000029104</ele><time>2010-07-31T08:11:55Z</time></trkpt>
<trkpt lat="45.75992700" lon="4.85721100"><ele>223.0000001256</ele><time>2010-07-31T08:11:56Z</time></trkpt>
<trkpt lat="45.75993800" lon="4.85727500"><ele>222.5000001096</ele><time>2010-07-31T08:11:57Z</time></trkpt>
<trkpt lat="45.75994900" lon="4.85739100"><ele>222.699997068</ele><time>2010-07-31T08:11:59Z</time></trkpt>
<trkpt lat="45.75996500" lon="4.85751100"><ele>223.1000062248</ele><time>2010-07-31T08:12:01Z</time></trkpt>
<trkpt lat="45.75997600" lon="4.85761200"><ele>223.6999971</ele><time>2010-07-31T08:12:03Z</time></trkpt>
<trkpt lat="45.76000400" lon="4.85771400"><ele>223.6000062408</ele><time>2010-07-31T08:12:05Z</time></trkpt>
<trkpt lat="45.76001600" lon="4.85781000"><ele>223.3999940424</ele><time>2010-07-31T08:12:07Z</time></trkpt>
<trkpt lat="45.76001400" lon="4.85788600"><ele>223.3999940424</ele><time>2010-07-31T08:12:11Z</time></trkpt>
<trkpt lat="45.76002300" lon="4.85796500"><ele>223.3999940424</ele><time>2010-07-31T08:12:27Z</time></trkpt>
<trkpt lat="45.76002200" lon="4.85803000"><ele>222.8000031672</ele><time>2010-07-31T08:12:29Z</time></trkpt>
<trkpt lat="45.76002700" lon="4.85810100"><ele>222.6000062088</ele><time>2010-07-31T08:12:31Z</time></trkpt>
<trkpt lat="45.76002900" lon="4.85818900"><ele>223.1000062248</ele><time>2010-07-31T08:12:34Z</time></trkpt>
<trkpt lat="45.76002800" lon="4.85825800"><ele>223.0000001256</ele><time>2010-07-31T08:12:36Z</time></trkpt>
<trkpt lat="45.75997900" lon="4.85830900"><ele>223.199997084</ele><time>2010-07-31T08:12:39Z</time></trkpt>
<trkpt lat="45.75992800" lon="4.85830800"><ele>223.6000062408</ele><time>2010-07-31T08:12:41Z</time></trkpt>
<trkpt lat="45.75989200" lon="4.85826800"><ele>227.600006064</ele><time>2010-07-31T08:12:45Z</time></trkpt>
<trkpt lat="45.75981700" lon="4.85827800"><ele>229.3999939296</ele><time>2010-07-31T08:12:48Z</time></trkpt>
<trkpt lat="45.75976100" lon="4.85830800"><ele>229.6999969872</ele><time>2010-07-31T08:12:50Z</time></trkpt>
<trkpt lat="45.75968200" lon="4.85832000"><ele>230.3000031024</ele><time>2010-07-31T08:12:52Z</time></trkpt>
<trkpt lat="45.75960200" lon="4.85833300"><ele>231.3000031344</ele><time>2010-07-31T08:12:54Z</time></trkpt>
<trkpt lat="45.75953000" lon="4.85836300"><ele>231.8999940096</ele><time>2010-07-31T08:12:56Z</time></trkpt>
<trkpt lat="45.75947900" lon="4.85836400"><ele>232.600006224</ele><time>2010-07-31T08:12:58Z</time></trkpt>
<trkpt lat="45.75940500" lon="4.85837500"><ele>232.8000031824</ele><time>2010-07-31T08:13:00Z</time></trkpt>
<trkpt lat="45.75933900" lon="4.85838500"><ele>230.60000616</ele><time>2010-07-31T08:13:02Z</time></trkpt>
<trkpt lat="45.75926000" lon="4.85839100"><ele>230.3999939616</ele><time>2010-07-31T08:13:04Z</time></trkpt>
<trkpt lat="45.75918500" lon="4.85839100"><ele>231.600006192</ele><time>2010-07-31T08:13:06Z</time></trkpt>
<trkpt lat="45.75911600" lon="4.85841200"><ele>230.100006144</ele><time>2010-07-31T08:13:08Z</time></trkpt>
<trkpt lat="45.75905800" lon="4.85846800"><ele>228.8000030544</ele><time>2010-07-31T08:13:10Z</time></trkpt>
<trkpt lat="45.75898900" lon="4.85849300"><ele>227.100006048</ele><time>2010-07-31T08:13:12Z</time></trkpt>
<trkpt lat="45.75894900" lon="4.85852900"><ele>227.4999999648</ele><time>2010-07-31T08:13:17Z</time></trkpt>
<trkpt lat="45.75889100" lon="4.85853300"><ele>230.0000000448</ele><time>2010-07-31T08:13:38Z</time></trkpt>
<trkpt lat="45.75882900" lon="4.85853800"><ele>230.5000000608</ele><time>2010-07-31T08:13:40Z</time></trkpt>
<trkpt lat="45.75878000" lon="4.85854500"><ele>231.6999970512</ele><time>2010-07-31T08:13:42Z</time></trkpt>
<trkpt lat="45.75873100" lon="4.85859800"><ele>231.5000000928</ele><time>2010-07-31T08:13:44Z</time></trkpt>
<trkpt lat="45.75869100" lon="4.85866100"><ele>231.600006192</ele><time>2010-07-31T08:13:46Z</time></trkpt>
<trkpt lat="45.75865800" lon="4.85871100"><ele>231.600006192</ele><time>2010-07-31T08:13:48Z</time></trkpt>
<trkpt lat="45.75861500" lon="4.85875700"><ele>232.100006208</ele><time>2010-07-31T08:13:50Z</time></trkpt>
<trkpt lat="45.75863600" lon="4.85885200"><ele>232.5000001248</ele><time>2010-07-31T08:13:51Z</time></trkpt>
<trkpt lat="45.75869000" lon="4.85897200"><ele>231.3999939936</ele><time>2010-07-31T08:13:52Z</time></trkpt>
<trkpt lat="45.75870700" lon="4.85905800"><ele>230.6999970192</ele><time>2010-07-31T08:13:53Z</time></trkpt>
<trkpt lat="45.75872600" lon="4.85913600"><ele>230.1999970032</ele><time>2010-07-31T08:13:54Z</time></trkpt>
<trkpt lat="45.75874000" lon="4.85922100"><ele>229.8000030864</ele><time>2010-07-31T08:13:55Z</time></trkpt>
<trkpt lat="45.75874800" lon="4.85929100"><ele>229.6999969872</ele><time>2010-07-31T08:13:56Z</time></trkpt>
<trkpt lat="45.75873900" lon="4.85938200"><ele>229.8000030864</ele><time>2010-07-31T08:13:59Z</time></trkpt>
<trkpt lat="45.75892200" lon="4.86072400"><ele>229.3999939296</ele><time>2010-07-31T08:14:16Z</time></trkpt>
<trkpt lat="45.75894700" lon="4.86089700"><ele>228.4999999968</ele><time>2010-07-31T08:14:18Z</time></trkpt>
<trkpt lat="45.75894600" lon="4.86096600"><ele>227.9999999808</ele><time>2010-07-31T08:14:19Z</time></trkpt>
<trkpt lat="45.75894400" lon="4.86103700"><ele>227.100006048</ele><time>2010-07-31T08:14:20Z</time></trkpt>
<trkpt lat="45.75895000" lon="4.86111100"><ele>227.100006048</ele><time>2010-07-31T08:14:21Z</time></trkpt>
<trkpt lat="45.75893300" lon="4.86118500"><ele>228.8999939136</ele><time>2010-07-31T08:14:22Z</time></trkpt>
<trkpt lat="45.75891400" lon="4.86125100"><ele>230.3000031024</ele><time>2010-07-31T08:14:23Z</time></trkpt>
<trkpt lat="45.75891800" lon="4.86132200"><ele>227.6999969232</ele><time>2010-07-31T08:14:24Z</time></trkpt>
<trkpt lat="45.75890700" lon="4.86138900"><ele>227.8000030224</ele><time>2010-07-31T08:14:26Z</time></trkpt>
<trkpt lat="45.75888800" lon="4.86147400"><ele>228.6999969552</ele><time>2010-07-31T08:14:28Z</time></trkpt>
<trkpt lat="45.75886000" lon="4.86153900"><ele>225.3999938016</ele><time>2010-07-31T08:14:29Z</time></trkpt>
<trkpt lat="45.75879800" lon="4.86158400"><ele>225.100005984</ele><time>2010-07-31T08:14:31Z</time></trkpt>
<trkpt lat="45.75872300" lon="4.86160000"><ele>225.8000029584</ele><time>2010-07-31T08:14:33Z</time></trkpt>
<trkpt lat="45.75867300" lon="4.86158700"><ele>226.1999968752</ele><time>2010-07-31T08:14:34Z</time></trkpt>
<trkpt lat="45.75859700" lon="4.86158800"><ele>226.3000029744</ele><time>2010-07-31T08:14:36Z</time></trkpt>
<trkpt lat="45.75855000" lon="4.86158500"><ele>226.1999968752</ele><time>2010-07-31T08:14:37Z</time></trkpt>
<trkpt lat="45.75846200" lon="4.86154100"><ele>225.8999938176</ele><time>2010-07-31T08:14:39Z</time></trkpt>
<trkpt lat="45.75836700" lon="4.86151500"><ele>225.8999938176</ele><time>2010-07-31T08:14:41Z</time></trkpt>
<trkpt lat="45.75829900" lon="4.86153800"><ele>226.9999999488</ele><time>2010-07-31T08:14:42Z</time></trkpt>
<trkpt lat="45.75823500" lon="4.86154300"><ele>227.3000030064</ele><time>2010-07-31T08:14:43Z</time></trkpt>
<trkpt lat="45.75819700" lon="4.86149900"><ele>227.1999969072</ele><time>2010-07-31T08:14:44Z</time></trkpt>
<trkpt lat="45.75814600" lon="4.86147200"><ele>226.8999938496</ele><time>2010-07-31T08:14:45Z</time></trkpt>
<trkpt lat="45.75809800" lon="4.86146200"><ele>227.1999969072</ele><time>2010-07-31T08:14:46Z</time></trkpt>
<trkpt lat="45.75805000" lon="4.86143600"><ele>226.9999999488</ele><time>2010-07-31T08:14:47Z</time></trkpt>
<trkpt lat="45.75799900" lon="4.86146600"><ele>227.3000030064</ele><time>2010-07-31T08:14:48Z</time></trkpt>
<trkpt lat="45.75793500" lon="4.86150800"><ele>227.8999938816</ele><time>2010-07-31T08:14:49Z</time></trkpt>
<trkpt lat="45.75788000" lon="4.86152300"><ele>228.3999938976</ele><time>2010-07-31T08:14:50Z</time></trkpt>
<trkpt lat="45.75783400" lon="4.86151300"><ele>229.0000000128</ele><time>2010-07-31T08:14:51Z</time></trkpt>
<trkpt lat="45.75776700" lon="4.86145100"><ele>229.1999969712</ele><time>2010-07-31T08:14:53Z</time></trkpt>
<trkpt lat="45.75768900" lon="4.86143300"><ele>229.0000000128</ele><time>2010-07-31T08:14:55Z</time></trkpt>
<trkpt lat="45.75764400" lon="4.86144700"><ele>230.3000031024</ele><time>2010-07-31T08:14:56Z</time></trkpt>
<trkpt lat="45.75758800" lon="4.86140600"><ele>230.0000000448</ele><time>2010-07-31T08:14:58Z</time></trkpt>
<trkpt lat="45.75753900" lon="4.86140300"><ele>229.8000030864</ele><time>2010-07-31T08:14:59Z</time></trkpt>
<trkpt lat="45.75747500" lon="4.86134200"><ele>228.3999938976</ele><time>2010-07-31T08:15:01Z</time></trkpt>
<trkpt lat="45.75742900" lon="4.86134200"><ele>228.10000608</ele><time>2010-07-31T08:15:02Z</time></trkpt>
<trkpt lat="45.75738200" lon="4.86134000"><ele>229.0000000128</ele><time>2010-07-31T08:15:03Z</time></trkpt>
<trkpt lat="45.75730500" lon="4.86133000"><ele>230.8999939776</ele><time>2010-07-31T08:15:05Z</time></trkpt>
<trkpt lat="45.75728400" lon="4.86127200"><ele>230.1999970032</ele><time>2010-07-31T08:15:06Z</time></trkpt>
<trkpt lat="45.75721900" lon="4.86122000"><ele>228.8000030544</ele><time>2010-07-31T08:15:08Z</time></trkpt>
<trkpt lat="45.75716800" lon="4.86124300"><ele>225.6999968592</ele><time>2010-07-31T08:15:09Z</time></trkpt>
<trkpt lat="45.75711500" lon="4.86124900"><ele>224.3999937696</ele><time>2010-07-31T08:15:10Z</time></trkpt>
<trkpt lat="45.75705700" lon="4.86126600"><ele>223.3000031832</ele><time>2010-07-31T08:15:11Z</time></trkpt>
<trkpt lat="45.75700700" lon="4.86125800"><ele>223.199997084</ele><time>2010-07-31T08:15:12Z</time></trkpt>
<trkpt lat="45.75692400" lon="4.86119300"><ele>223.6999971</ele><time>2010-07-31T08:15:14Z</time></trkpt>
<trkpt lat="45.75687200" lon="4.86113100"><ele>224.4999998688</ele><time>2010-07-31T08:15:15Z</time></trkpt>
<trkpt lat="45.75681800" lon="4.86109600"><ele>224.3999937696</ele><time>2010-07-31T08:15:16Z</time></trkpt>
<trkpt lat="45.75675600" lon="4.86108100"><ele>224.9999998848</ele><time>2010-07-31T08:15:17Z</time></trkpt>
<trkpt lat="45.75665500" lon="4.86107700"><ele>223.199997084</ele><time>2010-07-31T08:15:19Z</time></trkpt>
<trkpt lat="45.75660300" lon="4.86107700"><ele>222.8999940264</ele><time>2010-07-31T08:15:20Z</time></trkpt>
<trkpt lat="45.75655600" lon="4.86108000"><ele>222.3999940104</ele><time>2010-07-31T08:15:21Z</time></trkpt>
<trkpt lat="45.75645500" lon="4.86110400"><ele>221.6000061768</ele><time>2010-07-31T08:15:23Z</time></trkpt>
<trkpt lat="45.75640600" lon="4.86111300"><ele>221.1000061608</ele><time>2010-07-31T08:15:24Z</time></trkpt>
<trkpt lat="45.75635400" lon="4.86112500"><ele>220.3999939464</ele><time>2010-07-31T08:15:25Z</time></trkpt>
<trkpt lat="45.75630100" lon="4.86113800"><ele>220.6000061448</ele><time>2010-07-31T08:15:26Z</time></trkpt>
<trkpt lat="45.75625400" lon="4.86115700"><ele>220.3999939464</ele><time>2010-07-31T08:15:27Z</time></trkpt>
<trkpt lat="45.75620500" lon="4.86117700"><ele>220.0000000296</ele><time>2010-07-31T08:15:28Z</time></trkpt>
<trkpt lat="45.75611700" lon="4.86120000"><ele>219.8000030712</ele><time>2010-07-31T08:15:30Z</time></trkpt>
<trkpt lat="45.75607000" lon="4.86121200"><ele>219.1000060968</ele><time>2010-07-31T08:15:31Z</time></trkpt>
<trkpt lat="45.75602000" lon="4.86122400"><ele>218.8999938984</ele><time>2010-07-31T08:15:32Z</time></trkpt>
<trkpt lat="45.75597400" lon="4.86123500"><ele>219.1000060968</ele><time>2010-07-31T08:15:33Z</time></trkpt>
<trkpt lat="45.75588000" lon="4.86126700"><ele>218.6000060808</ele><time>2010-07-31T08:15:35Z</time></trkpt>
<trkpt lat="45.75583200" lon="4.86128400"><ele>218.4999999816</ele><time>2010-07-31T08:15:36Z</time></trkpt>
<trkpt lat="45.75578400" lon="4.86130000"><ele>218.8000030392</ele><time>2010-07-31T08:15:37Z</time></trkpt>
<trkpt lat="45.75573800" lon="4.86131800"><ele>218.8999938984</ele><time>2010-07-31T08:15:38Z</time></trkpt>
<trkpt lat="45.75568700" lon="4.86134200"><ele>218.69999694</ele><time>2010-07-31T08:15:39Z</time></trkpt>
<trkpt lat="45.75564000" lon="4.86136600"><ele>218.9999999976</ele><time>2010-07-31T08:15:40Z</time></trkpt>
<trkpt lat="45.75559400" lon="4.86139100"><ele>218.9999999976</ele><time>2010-07-31T08:15:41Z</time></trkpt>
<trkpt lat="45.75554700" lon="4.86141500"><ele>218.8999938984</ele><time>2010-07-31T08:15:42Z</time></trkpt>
<trkpt lat="45.75550000" lon="4.86144100"><ele>219.699996972</ele><time>2010-07-31T08:15:43Z</time></trkpt>
<trkpt lat="45.75545500" lon="4.86147400"><ele>220.3000030872</ele><time>2010-07-31T08:15:44Z</time></trkpt>
<trkpt lat="45.75541000" lon="4.86150500"><ele>219.8000030712</ele><time>2010-07-31T08:15:45Z</time></trkpt>
<trkpt lat="45.75536800" lon="4.86153700"><ele>219.8999939304</ele><time>2010-07-31T08:15:46Z</time></trkpt>
<trkpt lat="45.75532300" lon="4.86157700"><ele>220.3999939464</ele><time>2010-07-31T08:15:47Z</time></trkpt>
<trkpt lat="45.75528000" lon="4.86161800"><ele>220.5000000456</ele><time>2010-07-31T08:15:48Z</time></trkpt>
<trkpt lat="45.75524300" lon="4.86165900"><ele>220.6000061448</ele><time>2010-07-31T08:15:49Z</time></trkpt>
<trkpt lat="45.75520600" lon="4.86170200"><ele>220.8000031032</ele><time>2010-07-31T08:15:50Z</time></trkpt>
<trkpt lat="45.75517300" lon="4.86175100"><ele>221.3999939784</ele><time>2010-07-31T08:15:51Z</time></trkpt>
<trkpt lat="45.75514100" lon="4.86180600"><ele>221.0000000616</ele><time>2010-07-31T08:15:52Z</time></trkpt>
<trkpt lat="45.75510700" lon="4.86185300"><ele>221.5000000776</ele><time>2010-07-31T08:15:53Z</time></trkpt>
<trkpt lat="45.75507200" lon="4.86189600"><ele>221.3999939784</ele><time>2010-07-31T08:15:54Z</time></trkpt>
<trkpt lat="45.75503800" lon="4.86194900"><ele>221.6000061768</ele><time>2010-07-31T08:15:55Z</time></trkpt>
<trkpt lat="45.75500800" lon="4.86200000"><ele>221.8999939944</ele><time>2010-07-31T08:15:56Z</time></trkpt>
<trkpt lat="45.75497700" lon="4.86205100"><ele>222.199997052</ele><time>2010-07-31T08:15:57Z</time></trkpt>
<trkpt lat="45.75494600" lon="4.86210700"><ele>222.3000031512</ele><time>2010-07-31T08:15:58Z</time></trkpt>
<trkpt lat="45.75491600" lon="4.86216400"><ele>222.6000062088</ele><time>2010-07-31T08:15:59Z</time></trkpt>
<trkpt lat="45.75488700" lon="4.86222200"><ele>222.699997068</ele><time>2010-07-31T08:16:00Z</time></trkpt>
<trkpt lat="45.75485700" lon="4.86228100"><ele>222.8999940264</ele><time>2010-07-31T08:16:01Z</time></trkpt>
<trkpt lat="45.75482700" lon="4.86233200"><ele>222.8000031672</ele><time>2010-07-31T08:16:02Z</time></trkpt>
<trkpt lat="45.75479700" lon="4.86239100"><ele>222.8999940264</ele><time>2010-07-31T08:16:03Z</time></trkpt>
<trkpt lat="45.75476500" lon="4.86244600"><ele>222.8999940264</ele><time>2010-07-31T08:16:04Z</time></trkpt>
<trkpt lat="45.75473500" lon="4.86250000"><ele>223.199997084</ele><time>2010-07-31T08:16:05Z</time></trkpt>
<trkpt lat="45.75470200" lon="4.86255000"><ele>223.3999940424</ele><time>2010-07-31T08:16:06Z</time></trkpt>
<trkpt lat="45.75467200" lon="4.86260400"><ele>223.3000031832</ele><time>2010-07-31T08:16:07Z</time></trkpt>
<trkpt lat="45.75464300" lon="4.86265600"><ele>223.5000001416</ele><time>2010-07-31T08:16:08Z</time></trkpt>
<trkpt lat="45.75461400" lon="4.86270900"><ele>223.8999937536</ele><time>2010-07-31T08:16:09Z</time></trkpt>
<trkpt lat="45.75456600" lon="4.86280800"><ele>223.9999998528</ele><time>2010-07-31T08:16:11Z</time></trkpt>
<trkpt lat="45.75453800" lon="4.86285900"><ele>223.8999937536</ele><time>2010-07-31T08:16:12Z</time></trkpt>
<trkpt lat="45.75449000" lon="4.86295800"><ele>224.1999968112</ele><time>2010-07-31T08:16:14Z</time></trkpt>
<trkpt lat="45.75444000" lon="4.86304700"><ele>224.3000029104</ele><time>2010-07-31T08:16:16Z</time></trkpt>
<trkpt lat="45.75438900" lon="4.86313600"><ele>224.3999937696</ele><time>2010-07-31T08:16:18Z</time></trkpt>
<trkpt lat="45.75433800" lon="4.86322900"><ele>224.3999937696</ele><time>2010-07-31T08:16:20Z</time></trkpt>
<trkpt lat="45.75429900" lon="4.86332600"><ele>224.3000029104</ele><time>2010-07-31T08:16:22Z</time></trkpt>
<trkpt lat="45.75426300" lon="4.86339100"><ele>224.4999998688</ele><time>2010-07-31T08:16:24Z</time></trkpt>
<trkpt lat="45.75421900" lon="4.86345200"><ele>225.3000029424</ele><time>2010-07-31T08:16:48Z</time></trkpt>
<trkpt lat="45.75418600" lon="4.86351400"><ele>224.600005968</ele><time>2010-07-31T08:16:50Z</time></trkpt>
<trkpt lat="45.75415100" lon="4.86359500"><ele>224.4999998688</ele><time>2010-07-31T08:16:52Z</time></trkpt>
<trkpt lat="45.75411000" lon="4.86366500"><ele>224.3999937696</ele><time>2010-07-31T08:16:54Z</time></trkpt>
<trkpt lat="45.75407100" lon="4.86374500"><ele>224.8000029264</ele><time>2010-07-31T08:16:56Z</time></trkpt>
<trkpt lat="45.75402900" lon="4.86382900"><ele>224.9999998848</ele><time>2010-07-31T08:16:58Z</time></trkpt>
<trkpt lat="45.75398100" lon="4.86392200"><ele>224.8000029264</ele><time>2010-07-31T08:17:00Z</time></trkpt>
<trkpt lat="45.75393400" lon="4.86402200"><ele>224.8999937856</ele><time>2010-07-31T08:17:02Z</time></trkpt>
<trkpt lat="45.75388400" lon="4.86413000"><ele>224.8000029264</ele><time>2010-07-31T08:17:04Z</time></trkpt>
<trkpt lat="45.75385500" lon="4.86418400"><ele>224.8999937856</ele><time>2010-07-31T08:17:05Z</time></trkpt>
<trkpt lat="45.75382900" lon="4.86423900"><ele>224.8000029264</ele><time>2010-07-31T08:17:06Z</time></trkpt>
<trkpt lat="45.75380200" lon="4.86430000"><ele>224.6999968272</ele><time>2010-07-31T08:17:07Z</time></trkpt>
<trkpt lat="45.75377700" lon="4.86435800"><ele>224.8000029264</ele><time>2010-07-31T08:17:08Z</time></trkpt>
<trkpt lat="45.75375200" lon="4.86441400"><ele>224.9999998848</ele><time>2010-07-31T08:17:09Z</time></trkpt>
<trkpt lat="45.75370300" lon="4.86452400"><ele>225.3000029424</ele><time>2010-07-31T08:17:11Z</time></trkpt>
<trkpt lat="45.75367700" lon="4.86457700"><ele>225.1999968432</ele><time>2010-07-31T08:17:12Z</time></trkpt>
<trkpt lat="45.75363300" lon="4.86468500"><ele>225.3000029424</ele><time>2010-07-31T08:17:14Z</time></trkpt>
<trkpt lat="45.75360900" lon="4.86474100"><ele>225.3000029424</ele><time>2010-07-31T08:17:15Z</time></trkpt>
<trkpt lat="45.75359100" lon="4.86480000"><ele>225.3999938016</ele><time>2010-07-31T08:17:16Z</time></trkpt>
<trkpt lat="45.75357300" lon="4.86485800"><ele>225.4999999008</ele><time>2010-07-31T08:17:17Z</time></trkpt>
<trkpt lat="45.75355600" lon="4.86492000"><ele>224.9999998848</ele><time>2010-07-31T08:17:18Z</time></trkpt>
<trkpt lat="45.75352500" lon="4.86503000"><ele>224.6999968272</ele><time>2010-07-31T08:17:20Z</time></trkpt>
<trkpt lat="45.75349600" lon="4.86513900"><ele>224.6999968272</ele><time>2010-07-31T08:17:22Z</time></trkpt>
<trkpt lat="45.75347100" lon="4.86525700"><ele>224.600005968</ele><time>2010-07-31T08:17:24Z</time></trkpt>
<trkpt lat="45.75344700" lon="4.86537100"><ele>223.9999998528</ele><time>2010-07-31T08:17:26Z</time></trkpt>
<trkpt lat="45.75342400" lon="4.86547900"><ele>223.8000031992</ele><time>2010-07-31T08:17:28Z</time></trkpt>
<trkpt lat="45.75338100" lon="4.86562600"><ele>223.6000062408</ele><time>2010-07-31T08:17:31Z</time></trkpt>
<trkpt lat="45.75336100" lon="4.86572200"><ele>223.6999971</ele><time>2010-07-31T08:17:33Z</time></trkpt>
<trkpt lat="45.75332000" lon="4.86578400"><ele>223.9999998528</ele><time>2010-07-31T08:17:36Z</time></trkpt>
<trkpt lat="45.75325100" lon="4.86576200"><ele>223.5000001416</ele><time>2010-07-31T08:17:39Z</time></trkpt>
<trkpt lat="45.75319800" lon="4.86572200"><ele>223.8000031992</ele><time>2010-07-31T08:17:41Z</time></trkpt>
<trkpt lat="45.75311900" lon="4.86571800"><ele>223.6999971</ele><time>2010-07-31T08:17:43Z</time></trkpt>
<trkpt lat="45.75305200" lon="4.86572900"><ele>223.199997084</ele><time>2010-07-31T08:17:45Z</time></trkpt>
<trkpt lat="45.75298800" lon="4.86573200"><ele>223.199997084</ele><time>2010-07-31T08:17:47Z</time></trkpt>
<trkpt lat="45.75293100" lon="4.86573400"><ele>223.5000001416</ele><time>2010-07-31T08:17:49Z</time></trkpt>
<trkpt lat="45.75286900" lon="4.86575900"><ele>224.3000029104</ele><time>2010-07-31T08:17:51Z</time></trkpt>
<trkpt lat="45.75281300" lon="4.86579200"><ele>224.8000029264</ele><time>2010-07-31T08:17:53Z</time></trkpt>
<trkpt lat="45.75274700" lon="4.86581300"><ele>225.1999968432</ele><time>2010-07-31T08:17:55Z</time></trkpt>
<trkpt lat="45.75268000" lon="4.86582200"><ele>225.3999938016</ele><time>2010-07-31T08:17:57Z</time></trkpt>
<trkpt lat="45.75264700" lon="4.86577500"><ele>225.8999938176</ele><time>2010-07-31T08:18:02Z</time></trkpt>
<trkpt lat="45.75257100" lon="4.86575500"><ele>225.4999999008</ele><time>2010-07-31T08:18:05Z</time></trkpt>
<trkpt lat="45.75251700" lon="4.86570900"><ele>226.3999938336</ele><time>2010-07-31T08:18:07Z</time></trkpt>
<trkpt lat="45.75246200" lon="4.86568300"><ele>226.8000029904</ele><time>2010-07-31T08:18:09Z</time></trkpt>
<trkpt lat="45.75239900" lon="4.86563100"><ele>227.1999969072</ele><time>2010-07-31T08:18:11Z</time></trkpt>
<trkpt lat="45.75232100" lon="4.86560200"><ele>226.9999999488</ele><time>2010-07-31T08:18:13Z</time></trkpt>
<trkpt lat="45.75226900" lon="4.86560500"><ele>227.1999969072</ele><time>2010-07-31T08:18:14Z</time></trkpt>
<trkpt lat="45.75221700" lon="4.86560900"><ele>227.3000030064</ele><time>2010-07-31T08:18:15Z</time></trkpt>
<trkpt lat="45.75216000" lon="4.86562100"><ele>227.4999999648</ele><time>2010-07-31T08:18:16Z</time></trkpt>
<trkpt lat="45.75207900" lon="4.86561400"><ele>227.6999969232</ele><time>2010-07-31T08:18:18Z</time></trkpt>
<trkpt lat="45.75203300" lon="4.86560800"><ele>227.6999969232</ele><time>2010-07-31T08:18:19Z</time></trkpt>
<trkpt lat="45.75198800" lon="4.86559900"><ele>227.6999969232</ele><time>2010-07-31T08:18:20Z</time></trkpt>
<trkpt lat="45.75194300" lon="4.86558500"><ele>227.8000030224</ele><time>2010-07-31T08:18:21Z</time></trkpt>
<trkpt lat="45.75185900" lon="4.86559400"><ele>227.3999938656</ele><time>2010-07-31T08:18:23Z</time></trkpt>
<trkpt lat="45.75178800" lon="4.86556400"><ele>227.3000030064</ele><time>2010-07-31T08:18:25Z</time></trkpt>
<trkpt lat="45.75168900" lon="4.86554900"><ele>226.9999999488</ele><time>2010-07-31T08:18:27Z</time></trkpt>
<trkpt lat="45.75159800" lon="4.86552400"><ele>226.600006032</ele><time>2010-07-31T08:18:29Z</time></trkpt>
<trkpt lat="45.75152800" lon="4.86551900"><ele>227.8000030224</ele><time>2010-07-31T08:18:31Z</time></trkpt>
<trkpt lat="45.75149400" lon="4.86559900"><ele>226.1999968752</ele><time>2010-07-31T08:18:34Z</time></trkpt>
<trkpt lat="45.75148700" lon="4.86566300"><ele>226.3000029744</ele><time>2010-07-31T08:18:35Z</time></trkpt>
<trkpt lat="45.75148200" lon="4.86577200"><ele>228.3999938976</ele><time>2010-07-31T08:18:37Z</time></trkpt>
<trkpt lat="45.75146500" lon="4.86588300"><ele>228.8000030544</ele><time>2010-07-31T08:18:39Z</time></trkpt>
<trkpt lat="45.75146200" lon="4.86596000"><ele>228.6999969552</ele><time>2010-07-31T08:18:40Z</time></trkpt>
<trkpt lat="45.75146500" lon="4.86609900"><ele>226.8000029904</ele><time>2010-07-31T08:18:42Z</time></trkpt>
<trkpt lat="45.75146300" lon="4.86616600"><ele>226.9999999488</ele><time>2010-07-31T08:18:43Z</time></trkpt>
<trkpt lat="45.75146200" lon="4.86623200"><ele>225.9999999168</ele><time>2010-07-31T08:18:44Z</time></trkpt>
<trkpt lat="45.75146800" lon="4.86629600"><ele>226.6999968912</ele><time>2010-07-31T08:18:45Z</time></trkpt>
<trkpt lat="45.75147600" lon="4.86636200"><ele>225.600006</ele><time>2010-07-31T08:18:46Z</time></trkpt>
<trkpt lat="45.75147800" lon="4.86643100"><ele>225.4999999008</ele><time>2010-07-31T08:18:47Z</time></trkpt>
<trkpt lat="45.75147800" lon="4.86649800"><ele>225.1999968432</ele><time>2010-07-31T08:18:48Z</time></trkpt>
<trkpt lat="45.75145700" lon="4.86660900"><ele>225.8999938176</ele><time>2010-07-31T08:18:50Z</time></trkpt>
<trkpt lat="45.75142500" lon="4.86672500"><ele>225.9999999168</ele><time>2010-07-31T08:18:52Z</time></trkpt>
<trkpt lat="45.75142700" lon="4.86681200"><ele>226.1999968752</ele><time>2010-07-31T08:18:54Z</time></trkpt>
<trkpt lat="45.75141900" lon="4.86691600"><ele>225.9999999168</ele><time>2010-07-31T08:18:56Z</time></trkpt>
<trkpt lat="45.75138300" lon="4.86698100"><ele>225.600006</ele><time>2010-07-31T08:18:58Z</time></trkpt>
<trkpt lat="45.75133300" lon="4.86702200"><ele>225.8000029584</ele><time>2010-07-31T08:19:00Z</time></trkpt>
<trkpt lat="45.75128800" lon="4.86699300"><ele>226.3999938336</ele><time>2010-07-31T08:19:02Z</time></trkpt>
<trkpt lat="45.75124000" lon="4.86698900"><ele>226.6999968912</ele><time>2010-07-31T08:19:03Z</time></trkpt>
<trkpt lat="45.75119100" lon="4.86696900"><ele>227.3000030064</ele><time>2010-07-31T08:19:04Z</time></trkpt>
<trkpt lat="45.75113400" lon="4.86693800"><ele>227.3999938656</ele><time>2010-07-31T08:19:05Z</time></trkpt>
<trkpt lat="45.75104800" lon="4.86689300"><ele>226.8999938496</ele><time>2010-07-31T08:19:07Z</time></trkpt>
<trkpt lat="45.75096500" lon="4.86685200"><ele>225.9999999168</ele><time>2010-07-31T08:19:09Z</time></trkpt>
<trkpt lat="45.75088800" lon="4.86681000"><ele>225.8999938176</ele><time>2010-07-31T08:19:11Z</time></trkpt>
<trkpt lat="45.75084500" lon="4.86678600"><ele>225.600006</ele><time>2010-07-31T08:19:12Z</time></trkpt>
<trkpt lat="45.75080500" lon="4.86674700"><ele>225.100005984</ele><time>2010-07-31T08:19:13Z</time></trkpt>
<trkpt lat="45.75072300" lon="4.86669300"><ele>224.3000029104</ele><time>2010-07-31T08:19:15Z</time></trkpt>
<trkpt lat="45.75067800" lon="4.86666700"><ele>224.4999998688</ele><time>2010-07-31T08:19:16Z</time></trkpt>
<trkpt lat="45.75063200" lon="4.86665200"><ele>224.3000029104</ele><time>2010-07-31T08:19:17Z</time></trkpt>
<trkpt lat="45.75058600" lon="4.86662200"><ele>222.8000031672</ele><time>2010-07-31T08:19:18Z</time></trkpt>
<trkpt lat="45.75050700" lon="4.86657200"><ele>221.8000031352</ele><time>2010-07-31T08:19:20Z</time></trkpt>
<trkpt lat="45.75043400" lon="4.86657300"><ele>223.3000031832</ele><time>2010-07-31T08:19:22Z</time></trkpt>
<trkpt lat="45.75036900" lon="4.86660300"><ele>223.6999971</ele><time>2010-07-31T08:19:24Z</time></trkpt>
<trkpt lat="45.75032700" lon="4.86666200"><ele>223.6999971</ele><time>2010-07-31T08:19:26Z</time></trkpt>
<trkpt lat="45.75029300" lon="4.86671500"><ele>223.8000031992</ele><time>2010-07-31T08:19:28Z</time></trkpt>
<trkpt lat="45.75024300" lon="4.86678100"><ele>223.8999937536</ele><time>2010-07-31T08:19:30Z</time></trkpt>
<trkpt lat="45.75019000" lon="4.86687100"><ele>223.8000031992</ele><time>2010-07-31T08:19:32Z</time></trkpt>
<trkpt lat="45.75014200" lon="4.86694600"><ele>224.3000029104</ele><time>2010-07-31T08:19:34Z</time></trkpt>
<trkpt lat="45.75013600" lon="4.86705500"><ele>223.5000001416</ele><time>2010-07-31T08:19:36Z</time></trkpt>
<trkpt lat="45.75008700" lon="4.86714200"><ele>223.5000001416</ele><time>2010-07-31T08:19:38Z</time></trkpt>
<trkpt lat="45.75003500" lon="4.86722200"><ele>224.600005968</ele><time>2010-07-31T08:19:40Z</time></trkpt>
<trkpt lat="45.75002100" lon="4.86728400"><ele>224.3000029104</ele><time>2010-07-31T08:19:42Z</time></trkpt>
<trkpt lat="45.75000100" lon="4.86735600"><ele>224.8999937856</ele><time>2010-07-31T08:19:44Z</time></trkpt>
<trkpt lat="45.74994100" lon="4.86735400"><ele>225.100005984</ele><time>2010-07-31T08:19:46Z</time></trkpt>
<trkpt lat="45.74988800" lon="4.86733600"><ele>225.8999938176</ele><time>2010-07-31T08:19:48Z</time></trkpt>
<trkpt lat="45.74983000" lon="4.86729400"><ele>226.6999968912</ele><time>2010-07-31T08:19:50Z</time></trkpt>
<trkpt lat="45.74978100" lon="4.86725800"><ele>227.600006064</ele><time>2010-07-31T08:19:52Z</time></trkpt>
<trkpt lat="45.74971200" lon="4.86726700"><ele>228.3000030384</ele><time>2010-07-31T08:19:54Z</time></trkpt>
<trkpt lat="45.74966700" lon="4.86727300"><ele>227.8000030224</ele><time>2010-07-31T08:19:55Z</time></trkpt>
<trkpt lat="45.74960800" lon="4.86731400"><ele>228.6999969552</ele><time>2010-07-31T08:19:57Z</time></trkpt>
<trkpt lat="45.74956200" lon="4.86735000"><ele>229.8999939456</ele><time>2010-07-31T08:19:59Z</time></trkpt>
<trkpt lat="45.74950200" lon="4.86736500"><ele>230.3000031024</ele><time>2010-07-31T08:20:01Z</time></trkpt>
<trkpt lat="45.74943000" lon="4.86733200"><ele>228.600006096</ele><time>2010-07-31T08:20:03Z</time></trkpt>
<trkpt lat="45.74937300" lon="4.86732800"><ele>229.3999939296</ele><time>2010-07-31T08:20:05Z</time></trkpt>
<trkpt lat="45.74930300" lon="4.86730800"><ele>230.8999939776</ele><time>2010-07-31T08:20:07Z</time></trkpt>
<trkpt lat="45.74924500" lon="4.86729300"><ele>233.3000031984</ele><time>2010-07-31T08:20:09Z</time></trkpt>
<trkpt lat="45.74919800" lon="4.86725800"><ele>234.9999999</ele><time>2010-07-31T08:20:12Z</time></trkpt>
<trkpt lat="45.74915400" lon="4.86720500"><ele>234.499999884</ele><time>2010-07-31T08:20:16Z</time></trkpt>
<trkpt lat="45.74910500" lon="4.86715400"><ele>233.8999937688</ele><time>2010-07-31T08:20:18Z</time></trkpt>
<trkpt lat="45.74915400" lon="4.86713800"><ele>235.999999932</ele><time>2010-07-31T08:20:30Z</time></trkpt>
</trkseg></trk></gpx>